<?xml version='1.0' encoding='UTF-8'?><gpx version="1.1" creator="JPX - https://github.com/jenetics/jpx" xmlns="http://www.topografix.com/GPX/1/1"><trk><trkseg><trkpt lat="45.108233497329294" lon="10.076937514763618"><ele>40.14285714285714</ele><time>2026-04-25T04:58:41.998Z</time></trkpt><trkpt lat="45.108258501545215" lon="10.076845424211733"><ele>40.285714285714285</ele><time>2026-04-25T04:58:51.999Z</time></trkpt><trkpt lat="45.10833354206979" lon="10.07681736270753"><ele>40.42857142857143</ele><time>2026-04-25T04:59:18Z</time></trkpt><trkpt lat="45.10840881134374" lon="10.076816548064748"><ele>40.57142857142857</ele><time>2026-04-25T04:59:20Z</time></trkpt><trkpt lat="45.108481194156745" lon="10.076779388858274"><ele>40.714285714285715</ele><time>2026-04-25T04:59:22Z</time></trkpt><trkpt lat="45.10855147964462" lon="10.076762796625946"><ele>40.857142857142854</ele><time>2026-04-25T04:59:24Z</time></trkpt><trkpt lat="45.10862274748712" lon="10.076747793496155"><ele>41.0</ele><time>2026-04-25T04:59:26Z</time></trkpt><trkpt lat="45.10868598641962" lon="10.076793568526421"><ele>41.0</ele><time>2026-04-25T04:59:57.999Z</time></trkpt><trkpt lat="45.10875293930833" lon="10.076841774068642"><ele>41.0</ele><time>2026-04-25T05:00:00.999Z</time></trkpt><trkpt lat="45.10880199064618" lon="10.07691892262647"><ele>41.0</ele><time>2026-04-25T05:00:03.999Z</time></trkpt><trkpt lat="45.108839133838146" lon="10.077031120947469"><ele>41.0</ele><time>2026-04-25T05:00:06.999Z</time></trkpt><trkpt lat="45.10885027473752" lon="10.077139460108503"><ele>41.0</ele><time>2026-04-25T05:00:09.999Z</time></trkpt><trkpt lat="45.108836535790694" lon="10.07723884936398"><ele>41.0</ele><time>2026-04-25T05:00:12.999Z</time></trkpt><trkpt lat="45.1088257480855" lon="10.077343972368576"><ele>41.166666666666664</ele><time>2026-04-25T05:00:15.999Z</time></trkpt><trkpt lat="45.10880926266633" lon="10.077455531774062"><ele>41.33333333333333</ele><time>2026-04-25T05:00:18.999Z</time></trkpt><trkpt lat="45.10879152473596" lon="10.077574468482474"><ele>41.5</ele><time>2026-04-25T05:00:22.001Z</time></trkpt><trkpt lat="45.10876847676861" lon="10.077697203740412"><ele>41.666666666666664</ele><time>2026-04-25T05:00:25.001Z</time></trkpt><trkpt lat="45.10872318695403" lon="10.07778511798049"><ele>41.833333333333336</ele><time>2026-04-25T05:00:27.001Z</time></trkpt><trkpt lat="45.10866463851185" lon="10.07785419317713"><ele>42.0</ele><time>2026-04-25T05:00:29.001Z</time></trkpt><trkpt lat="45.10857563892806" lon="10.077862474036682"><ele>42.0</ele><time>2026-04-25T05:00:31.001Z</time></trkpt><trkpt lat="45.1084818757428" lon="10.07783292875595"><ele>42.0</ele><time>2026-04-25T05:00:33.001Z</time></trkpt><trkpt lat="45.10839120188095" lon="10.077809868668417"><ele>42.0</ele><time>2026-04-25T05:00:35.001Z</time></trkpt><trkpt lat="45.1082937508661" lon="10.077781772668725"><ele>42.0</ele><time>2026-04-25T05:00:37.001Z</time></trkpt><trkpt lat="45.10819438513205" lon="10.077766712578573"><ele>42.0</ele><time>2026-04-25T05:00:39.001Z</time></trkpt><trkpt lat="45.10808769866085" lon="10.077746661953926"><ele>41.75</ele><time>2026-04-25T05:00:41.001Z</time></trkpt><trkpt lat="45.10798208706834" lon="10.07771437598773"><ele>41.5</ele><time>2026-04-25T05:00:43Z</time></trkpt><trkpt lat="45.107867880418574" lon="10.077680435562696"><ele>41.25</ele><time>2026-04-25T05:00:45Z</time></trkpt><trkpt lat="45.107749506787414" lon="10.077652671414459"><ele>41.0</ele><time>2026-04-25T05:00:47Z</time></trkpt><trkpt lat="45.10763620426023" lon="10.077625035802471"><ele>41.0</ele><time>2026-04-25T05:00:49Z</time></trkpt><trkpt lat="45.10752603299298" lon="10.077561698160126"><ele>41.0</ele><time>2026-04-25T05:00:51Z</time></trkpt><trkpt lat="45.1074148826354" lon="10.077509152880998"><ele>41.0</ele><time>2026-04-25T05:00:53Z</time></trkpt><trkpt lat="45.10730162797982" lon="10.077463934051359"><ele>41.0</ele><time>2026-04-25T05:00:55Z</time></trkpt><trkpt lat="45.10723337900115" lon="10.077410862412169"><ele>41.0</ele><time>2026-04-25T05:00:57Z</time></trkpt><trkpt lat="45.107299181210934" lon="10.077256112022095"><ele>40.75</ele><time>2026-04-25T05:01:00Z</time></trkpt><trkpt lat="45.10738930988674" lon="10.077146477744671"><ele>40.5</ele><time>2026-04-25T05:01:02Z</time></trkpt><trkpt lat="45.107478116704165" lon="10.077002157306282"><ele>40.25</ele><time>2026-04-25T05:01:04Z</time></trkpt><trkpt lat="45.107563153414674" lon="10.076871745580371"><ele>40.0</ele><time>2026-04-25T05:01:06Z</time></trkpt><trkpt lat="45.107640879865556" lon="10.0767467828407"><ele>40.0</ele><time>2026-04-25T05:01:08Z</time></trkpt><trkpt lat="45.10773032564595" lon="10.076617270157591"><ele>40.0</ele><time>2026-04-25T05:01:10Z</time></trkpt><trkpt lat="45.10778431152859" lon="10.076554984507828"><ele>40.0</ele><time>2026-04-25T05:01:11Z</time></trkpt><trkpt lat="45.107842642889075" lon="10.0764996852673"><ele>40.0</ele><time>2026-04-25T05:01:12Z</time></trkpt><trkpt lat="45.10790119506742" lon="10.076439083487598"><ele>40.0</ele><time>2026-04-25T05:01:13Z</time></trkpt><trkpt lat="45.10796513178684" lon="10.076389479727746"><ele>40.0</ele><time>2026-04-25T05:01:14Z</time></trkpt><trkpt lat="45.10802517491175" lon="10.076339745239162"><ele>40.0</ele><time>2026-04-25T05:01:15Z</time></trkpt><trkpt lat="45.10808791441101" lon="10.076298421999603"><ele>40.0</ele><time>2026-04-25T05:01:16Z</time></trkpt><trkpt lat="45.10815175003386" lon="10.076259971535462"><ele>40.0</ele><time>2026-04-25T05:01:17Z</time></trkpt><trkpt lat="45.10821352355035" lon="10.076225718599176"><ele>40.0</ele><time>2026-04-25T05:01:18Z</time></trkpt><trkpt lat="45.10827642263337" lon="10.076189701388211"><ele>40.0</ele><time>2026-04-25T05:01:19Z</time></trkpt><trkpt lat="45.10833909000485" lon="10.076157474125878"><ele>40.0</ele><time>2026-04-25T05:01:20Z</time></trkpt><trkpt lat="45.10840289127252" lon="10.076120566328253"><ele>40.0</ele><time>2026-04-25T05:01:21Z</time></trkpt><trkpt lat="45.108466682650715" lon="10.076082995886578"><ele>40.0</ele><time>2026-04-25T05:01:22Z</time></trkpt><trkpt lat="45.108526759905196" lon="10.076039443956109"><ele>40.0</ele><time>2026-04-25T05:01:23Z</time></trkpt><trkpt lat="45.108587623204215" lon="10.075996366361549"><ele>40.0</ele><time>2026-04-25T05:01:24Z</time></trkpt><trkpt lat="45.108643527912896" lon="10.075942987724902"><ele>40.0</ele><time>2026-04-25T05:01:25Z</time></trkpt><trkpt lat="45.108696387202386" lon="10.075887908133618"><ele>40.0</ele><time>2026-04-25T05:01:26Z</time></trkpt><trkpt lat="45.10874583372051" lon="10.075820700278914"><ele>40.0</ele><time>2026-04-25T05:01:27Z</time></trkpt><trkpt lat="45.10879340359589" lon="10.0757496048435"><ele>40.0</ele><time>2026-04-25T05:01:28Z</time></trkpt><trkpt lat="45.10883611208216" lon="10.075675807287627"><ele>39.57142857142857</ele><time>2026-04-25T05:01:29Z</time></trkpt><trkpt lat="45.10887412580121" lon="10.075589954986315"><ele>39.142857142857146</ele><time>2026-04-25T05:01:29.999Z</time></trkpt><trkpt lat="45.10891168255152" lon="10.07550453710667"><ele>38.714285714285715</ele><time>2026-04-25T05:01:30.999Z</time></trkpt><trkpt lat="45.1089406525287" lon="10.075412075628531"><ele>38.285714285714285</ele><time>2026-04-25T05:01:31.999Z</time></trkpt><trkpt lat="45.10896438557324" lon="10.07531786281297"><ele>37.857142857142854</ele><time>2026-04-25T05:01:32.999Z</time></trkpt><trkpt lat="45.108997201981225" lon="10.075222131775753"><ele>37.42857142857143</ele><time>2026-04-25T05:01:33.999Z</time></trkpt><trkpt lat="45.10902041229767" lon="10.075128736127546"><ele>37.0</ele><time>2026-04-25T05:01:34.999Z</time></trkpt><trkpt lat="45.109048374340986" lon="10.075035950232394"><ele>37.0</ele><time>2026-04-25T05:01:35.999Z</time></trkpt><trkpt lat="45.109073352538196" lon="10.07494297229409"><ele>37.0</ele><time>2026-04-25T05:01:36.999Z</time></trkpt><trkpt lat="45.10909845988903" lon="10.074850227464792"><ele>37.0</ele><time>2026-04-25T05:01:37.999Z</time></trkpt><trkpt lat="45.1091234174643" lon="10.07475705758429"><ele>37.0</ele><time>2026-04-25T05:01:38.999Z</time></trkpt><trkpt lat="45.10914780279501" lon="10.074667035351052"><ele>37.0</ele><time>2026-04-25T05:01:39.999Z</time></trkpt><trkpt lat="45.10917489833681" lon="10.074577236451098"><ele>37.0</ele><time>2026-04-25T05:01:40.999Z</time></trkpt><trkpt lat="45.10920420355361" lon="10.074490968908796"><ele>37.0</ele><time>2026-04-25T05:01:41.999Z</time></trkpt><trkpt lat="45.109233269160754" lon="10.074404526582585"><ele>37.285714285714285</ele><time>2026-04-25T05:01:42.999Z</time></trkpt><trkpt lat="45.10926383829628" lon="10.074319997470303"><ele>37.57142857142857</ele><time>2026-04-25T05:01:43.999Z</time></trkpt><trkpt lat="45.1092994849959" lon="10.074234326004387"><ele>37.85714285714286</ele><time>2026-04-25T05:01:44.999Z</time></trkpt><trkpt lat="45.109343761681735" lon="10.074159454216264"><ele>38.14285714285714</ele><time>2026-04-25T05:01:45.999Z</time></trkpt><trkpt lat="45.10938123697534" lon="10.074082358383677"><ele>38.42857142857142</ele><time>2026-04-25T05:01:46.999Z</time></trkpt><trkpt lat="45.10942131867042" lon="10.07400525915989"><ele>38.714285714285715</ele><time>2026-04-25T05:01:47.999Z</time></trkpt><trkpt lat="45.109468038849904" lon="10.073929918719653"><ele>39.0</ele><time>2026-04-25T05:01:48.999Z</time></trkpt><trkpt lat="45.10950665210741" lon="10.073851730501028"><ele>39.285714285714285</ele><time>2026-04-25T05:01:49.999Z</time></trkpt><trkpt lat="45.10954999504157" lon="10.073772641890057"><ele>39.57142857142857</ele><time>2026-04-25T05:01:50.999Z</time></trkpt><trkpt lat="45.10958958100964" lon="10.073694995168966"><ele>39.857142857142854</ele><time>2026-04-25T05:01:51.999Z</time></trkpt><trkpt lat="45.10963179037759" lon="10.073617436341022"><ele>40.14285714285714</ele><time>2026-04-25T05:01:52.999Z</time></trkpt><trkpt lat="45.10967421636941" lon="10.073538083953997"><ele>40.42857142857143</ele><time>2026-04-25T05:01:53.999Z</time></trkpt><trkpt lat="45.10971794465565" lon="10.07346385531308"><ele>40.71428571428571</ele><time>2026-04-25T05:01:54.999Z</time></trkpt><trkpt lat="45.109763783666416" lon="10.073385891338873"><ele>41.0</ele><time>2026-04-25T05:01:55.999Z</time></trkpt><trkpt lat="45.10980711199221" lon="10.073307840524775"><ele>40.99999999999999</ele><time>2026-04-25T05:01:56.999Z</time></trkpt><trkpt lat="45.109850108223725" lon="10.073230510766418"><ele>41.0</ele><time>2026-04-25T05:01:57.999Z</time></trkpt><trkpt lat="45.109894034661764" lon="10.073151975776508"><ele>41.0</ele><time>2026-04-25T05:01:58.999Z</time></trkpt><trkpt lat="45.10993773734881" lon="10.07307375146067"><ele>41.0</ele><time>2026-04-25T05:01:59.999Z</time></trkpt><trkpt lat="45.109980246040955" lon="10.07299550614598"><ele>41.0</ele><time>2026-04-25T05:02:00.999Z</time></trkpt><trkpt lat="45.11002190092705" lon="10.07291607221496"><ele>40.99999999999999</ele><time>2026-04-25T05:02:01.999Z</time></trkpt><trkpt lat="45.11006414456477" lon="10.072838021610444"><ele>41.0</ele><time>2026-04-25T05:02:02.999Z</time></trkpt><trkpt lat="45.110106268966" lon="10.072757892472234"><ele>40.99999999999999</ele><time>2026-04-25T05:02:03.999Z</time></trkpt><trkpt lat="45.11014681144056" lon="10.072683559016957"><ele>41.0</ele><time>2026-04-25T05:02:04.999Z</time></trkpt><trkpt lat="45.11018967228314" lon="10.072602666923359"><ele>41.0</ele><time>2026-04-25T05:02:05.999Z</time></trkpt><trkpt lat="45.11022841379919" lon="10.072519379903348"><ele>41.0</ele><time>2026-04-25T05:02:06.999Z</time></trkpt><trkpt lat="45.11026190799773" lon="10.072437739792202"><ele>41.0</ele><time>2026-04-25T05:02:07.999Z</time></trkpt><trkpt lat="45.11029413981903" lon="10.072353224458682"><ele>40.99999999999999</ele><time>2026-04-25T05:02:08.999Z</time></trkpt><trkpt lat="45.11032473487246" lon="10.072267821124514"><ele>41.0</ele><time>2026-04-25T05:02:09.999Z</time></trkpt><trkpt lat="45.11036123244884" lon="10.072185487718514"><ele>40.99999999999999</ele><time>2026-04-25T05:02:10.999Z</time></trkpt><trkpt lat="45.11039234139894" lon="10.072100388795691"><ele>41.0</ele><time>2026-04-25T05:02:11.999Z</time></trkpt><trkpt lat="45.11041961625383" lon="10.072015031438662"><ele>41.0</ele><time>2026-04-25T05:02:12.999Z</time></trkpt><trkpt lat="45.11044866729362" lon="10.071924031043226"><ele>41.0</ele><time>2026-04-25T05:02:13.999Z</time></trkpt><trkpt lat="45.1104779828109" lon="10.07183807908458"><ele>41.0</ele><time>2026-04-25T05:02:14.999Z</time></trkpt><trkpt lat="45.11051122019302" lon="10.071747901083373"><ele>40.99999999999999</ele><time>2026-04-25T05:02:15.999Z</time></trkpt><trkpt lat="45.110540913231596" lon="10.07166210426226"><ele>41.0</ele><time>2026-04-25T05:02:16.999Z</time></trkpt><trkpt lat="45.110571795746026" lon="10.071575206959896"><ele>41.0</ele><time>2026-04-25T05:02:17.999Z</time></trkpt><trkpt lat="45.11060337070517" lon="10.07149005124201"><ele>41.0</ele><time>2026-04-25T05:02:18.999Z</time></trkpt><trkpt lat="45.11063067810464" lon="10.07140582331064"><ele>41.0</ele><time>2026-04-25T05:02:19.999Z</time></trkpt><trkpt lat="45.11068797563295" lon="10.071247591260608"><ele>41.0</ele><time>2026-04-25T05:02:21.999Z</time></trkpt><trkpt lat="45.11072348514563" lon="10.071171208023868"><ele>41.0</ele><time>2026-04-25T05:02:22.999Z</time></trkpt><trkpt lat="45.11077178816981" lon="10.071032956723752"><ele>41.0</ele><time>2026-04-25T05:02:24.999Z</time></trkpt><trkpt lat="45.110697126742835" lon="10.07089397241485"><ele>41.42857142857142</ele><time>2026-04-25T05:02:27.001Z</time></trkpt><trkpt lat="45.11063054586224" lon="10.070862404948764"><ele>41.857142857142854</ele><time>2026-04-25T05:02:28.001Z</time></trkpt><trkpt lat="45.11056113842777" lon="10.070817106337651"><ele>42.285714285714285</ele><time>2026-04-25T05:02:29.001Z</time></trkpt><trkpt lat="45.110498040199005" lon="10.070778063630225"><ele>42.71428571428571</ele><time>2026-04-25T05:02:30.001Z</time></trkpt><trkpt lat="45.110429625397046" lon="10.070733314894046"><ele>43.14285714285714</ele><time>2026-04-25T05:02:31.001Z</time></trkpt><trkpt lat="45.11036286258437" lon="10.070690258916505"><ele>43.57142857142857</ele><time>2026-04-25T05:02:32.001Z</time></trkpt><trkpt lat="45.11029538899016" lon="10.070638673203819"><ele>44.0</ele><time>2026-04-25T05:02:33.001Z</time></trkpt><trkpt lat="45.11022685656004" lon="10.070582119385728"><ele>42.83333333333333</ele><time>2026-04-25T05:02:34.001Z</time></trkpt><trkpt lat="45.11016491048742" lon="10.070510221924721"><ele>41.666666666666664</ele><time>2026-04-25T05:02:35.001Z</time></trkpt><trkpt lat="45.11010958629737" lon="10.07043415569664"><ele>40.5</ele><time>2026-04-25T05:02:36.001Z</time></trkpt><trkpt lat="45.110059229613746" lon="10.07033705232916"><ele>39.333333333333336</ele><time>2026-04-25T05:02:37.001Z</time></trkpt><trkpt lat="45.11001621799865" lon="10.070236508651325"><ele>38.16666666666667</ele><time>2026-04-25T05:02:38.001Z</time></trkpt><trkpt lat="45.10998273028483" lon="10.070131880730495"><ele>37.0</ele><time>2026-04-25T05:02:39.001Z</time></trkpt><trkpt lat="45.1099502805949" lon="10.070027669458861"><ele>36.333333333333336</ele><time>2026-04-25T05:02:40.001Z</time></trkpt><trkpt lat="45.10991413908854" lon="10.069929679107137"><ele>35.66666666666667</ele><time>2026-04-25T05:02:41Z</time></trkpt><trkpt lat="45.109881209267414" lon="10.069830481228335"><ele>35.0</ele><time>2026-04-25T05:02:42Z</time></trkpt><trkpt lat="45.10984746986145" lon="10.069732480916215"><ele>34.333333333333336</ele><time>2026-04-25T05:02:43Z</time></trkpt><trkpt lat="45.10981427281465" lon="10.069634173326202"><ele>33.666666666666664</ele><time>2026-04-25T05:02:44Z</time></trkpt><trkpt lat="45.10978534016563" lon="10.069536070959296"><ele>33.0</ele><time>2026-04-25T05:02:45Z</time></trkpt><trkpt lat="45.10975698992694" lon="10.069439704726122"><ele>33.0</ele><time>2026-04-25T05:02:46Z</time></trkpt><trkpt lat="45.1097237982267" lon="10.069345524454"><ele>33.0</ele><time>2026-04-25T05:02:47Z</time></trkpt><trkpt lat="45.109686534434715" lon="10.069254998410008"><ele>33.0</ele><time>2026-04-25T05:02:48Z</time></trkpt><trkpt lat="45.1096501207953" lon="10.069169154128828"><ele>33.0</ele><time>2026-04-25T05:02:49Z</time></trkpt><trkpt lat="45.109611365592535" lon="10.069085891068807"><ele>33.0</ele><time>2026-04-25T05:02:50Z</time></trkpt><trkpt lat="45.109566050006954" lon="10.06900630188465"><ele>33.0</ele><time>2026-04-25T05:02:51Z</time></trkpt><trkpt lat="45.10952044456527" lon="10.06893368750101"><ele>33.0</ele><time>2026-04-25T05:02:52Z</time></trkpt><trkpt lat="45.109472372720624" lon="10.0688571438905"><ele>33.0</ele><time>2026-04-25T05:02:53Z</time></trkpt><trkpt lat="45.109423773716124" lon="10.06878177697392"><ele>33.0</ele><time>2026-04-25T05:02:54Z</time></trkpt><trkpt lat="45.10937815780492" lon="10.068704644897085"><ele>33.0</ele><time>2026-04-25T05:02:55Z</time></trkpt><trkpt lat="45.109333286324144" lon="10.068626857213147"><ele>33.0</ele><time>2026-04-25T05:02:56Z</time></trkpt><trkpt lat="45.109288372308335" lon="10.068549798270402"><ele>33.0</ele><time>2026-04-25T05:02:57Z</time></trkpt><trkpt lat="45.109244137056734" lon="10.06847348828927"><ele>33.0</ele><time>2026-04-25T05:02:58Z</time></trkpt><trkpt lat="45.109196317342054" lon="10.068398297271093"><ele>33.0</ele><time>2026-04-25T05:02:59Z</time></trkpt><trkpt lat="45.10915085581844" lon="10.068321723123987"><ele>33.14285714285714</ele><time>2026-04-25T05:03:00Z</time></trkpt><trkpt lat="45.10910579876598" lon="10.068242488506538"><ele>33.285714285714285</ele><time>2026-04-25T05:03:01Z</time></trkpt><trkpt lat="45.10906087864573" lon="10.068167107702248"><ele>33.42857142857143</ele><time>2026-04-25T05:03:02Z</time></trkpt><trkpt lat="45.10901478409586" lon="10.068093273164914"><ele>33.57142857142857</ele><time>2026-04-25T05:03:03Z</time></trkpt><trkpt lat="45.108968806062826" lon="10.068016021883182"><ele>33.714285714285715</ele><time>2026-04-25T05:03:04Z</time></trkpt><trkpt lat="45.108922585087086" lon="10.067941594282576"><ele>33.857142857142854</ele><time>2026-04-25T05:03:05Z</time></trkpt><trkpt lat="45.108877952907925" lon="10.067868025817184"><ele>34.0</ele><time>2026-04-25T05:03:06Z</time></trkpt><trkpt lat="45.10883245869633" lon="10.067791876866027"><ele>33.99999999999999</ele><time>2026-04-25T05:03:07Z</time></trkpt><trkpt lat="45.10878672271507" lon="10.067716386160425"><ele>34.0</ele><time>2026-04-25T05:03:08Z</time></trkpt><trkpt lat="45.108741407372996" lon="10.067642215268638"><ele>34.0</ele><time>2026-04-25T05:03:09Z</time></trkpt><trkpt lat="45.10869628680956" lon="10.067565981095255"><ele>34.0</ele><time>2026-04-25T05:03:10Z</time></trkpt><trkpt lat="45.10865174198799" lon="10.067488216015501"><ele>34.0</ele><time>2026-04-25T05:03:11Z</time></trkpt><trkpt lat="45.108604312757635" lon="10.06740969308364"><ele>33.99999999999999</ele><time>2026-04-25T05:03:12Z</time></trkpt><trkpt lat="45.10855619372372" lon="10.06733470739806"><ele>34.0</ele><time>2026-04-25T05:03:13Z</time></trkpt><trkpt lat="45.10850959883271" lon="10.067258020899102"><ele>33.857142857142854</ele><time>2026-04-25T05:03:14Z</time></trkpt><trkpt lat="45.108462391062154" lon="10.0671816143167"><ele>33.714285714285715</ele><time>2026-04-25T05:03:15Z</time></trkpt><trkpt lat="45.108417332586555" lon="10.067103230389405"><ele>33.57142857142857</ele><time>2026-04-25T05:03:16Z</time></trkpt><trkpt lat="45.10837312122803" lon="10.067023957156026"><ele>33.42857142857143</ele><time>2026-04-25T05:03:17Z</time></trkpt><trkpt lat="45.10833038140674" lon="10.066945929129599"><ele>33.285714285714285</ele><time>2026-04-25T05:03:18Z</time></trkpt><trkpt lat="45.10828178977583" lon="10.066868723092156"><ele>33.14285714285714</ele><time>2026-04-25T05:03:19Z</time></trkpt><trkpt lat="45.10823342779883" lon="10.066793048807968"><ele>33.0</ele><time>2026-04-25T05:03:20Z</time></trkpt><trkpt lat="45.10818662113328" lon="10.066717259800823"><ele>33.0</ele><time>2026-04-25T05:03:21Z</time></trkpt><trkpt lat="45.108141506376036" lon="10.066640157733561"><ele>33.0</ele><time>2026-04-25T05:03:22Z</time></trkpt><trkpt lat="45.10809665274589" lon="10.066561036957342"><ele>33.0</ele><time>2026-04-25T05:03:23Z</time></trkpt><trkpt lat="45.10805100488247" lon="10.0664862737358"><ele>33.0</ele><time>2026-04-25T05:03:24Z</time></trkpt><trkpt lat="45.10800476292749" lon="10.066409583268651"><ele>33.0</ele><time>2026-04-25T05:03:25Z</time></trkpt><trkpt lat="45.107958148221094" lon="10.066336333292035"><ele>33.0</ele><time>2026-04-25T05:03:26Z</time></trkpt><trkpt lat="45.107912753085806" lon="10.066259609512464"><ele>33.0</ele><time>2026-04-25T05:03:27Z</time></trkpt><trkpt lat="45.107869389764524" lon="10.066184562226667"><ele>33.0</ele><time>2026-04-25T05:03:28Z</time></trkpt><trkpt lat="45.107825228359985" lon="10.066110658751695"><ele>33.0</ele><time>2026-04-25T05:03:29Z</time></trkpt><trkpt lat="45.10778101952004" lon="10.066036323824873"><ele>33.0</ele><time>2026-04-25T05:03:30Z</time></trkpt><trkpt lat="45.10773573872506" lon="10.06596186121431"><ele>33.0</ele><time>2026-04-25T05:03:31Z</time></trkpt><trkpt lat="45.1076913619451" lon="10.065886507023514"><ele>33.0</ele><time>2026-04-25T05:03:31.999Z</time></trkpt><trkpt lat="45.10764467652896" lon="10.065814071005047"><ele>33.0</ele><time>2026-04-25T05:03:32.999Z</time></trkpt><trkpt lat="45.107597202032565" lon="10.065741169368358"><ele>33.0</ele><time>2026-04-25T05:03:33.999Z</time></trkpt><trkpt lat="45.107550016765316" lon="10.065669512637475"><ele>33.0</ele><time>2026-04-25T05:03:34.999Z</time></trkpt><trkpt lat="45.107501932793646" lon="10.065594897147472"><ele>33.0</ele><time>2026-04-25T05:03:35.999Z</time></trkpt><trkpt lat="45.107454874828626" lon="10.065518853527138"><ele>33.0</ele><time>2026-04-25T05:03:36.999Z</time></trkpt><trkpt lat="45.10740938029213" lon="10.06544225224367"><ele>33.0</ele><time>2026-04-25T05:03:37.999Z</time></trkpt><trkpt lat="45.10736299393926" lon="10.06536603022974"><ele>33.0</ele><time>2026-04-25T05:03:38.999Z</time></trkpt><trkpt lat="45.10731548000553" lon="10.065294381145538"><ele>33.0</ele><time>2026-04-25T05:03:39.999Z</time></trkpt><trkpt lat="45.107270287745465" lon="10.065220748672655"><ele>33.0</ele><time>2026-04-25T05:03:40.999Z</time></trkpt><trkpt lat="45.107224066637244" lon="10.065144132023159"><ele>33.0</ele><time>2026-04-25T05:03:41.999Z</time></trkpt><trkpt lat="45.10717912496536" lon="10.065068038062279"><ele>33.0</ele><time>2026-04-25T05:03:42.999Z</time></trkpt><trkpt lat="45.10713446723615" lon="10.06499414417648"><ele>33.0</ele><time>2026-04-25T05:03:43.999Z</time></trkpt><trkpt lat="45.107089286075826" lon="10.064919607544825"><ele>33.0</ele><time>2026-04-25T05:03:44.999Z</time></trkpt><trkpt lat="45.10704350507106" lon="10.064844969810713"><ele>33.0</ele><time>2026-04-25T05:03:45.999Z</time></trkpt><trkpt lat="45.10699600079006" lon="10.064769695283331"><ele>33.0</ele><time>2026-04-25T05:03:46.999Z</time></trkpt><trkpt lat="45.10694796431091" lon="10.064696159187813"><ele>33.0</ele><time>2026-04-25T05:03:47.999Z</time></trkpt><trkpt lat="45.10690152455463" lon="10.064624513271061"><ele>33.0</ele><time>2026-04-25T05:03:48.999Z</time></trkpt><trkpt lat="45.106855920799696" lon="10.06454890934328"><ele>33.0</ele><time>2026-04-25T05:03:49.999Z</time></trkpt><trkpt lat="45.10681011399022" lon="10.064472643260281"><ele>33.0</ele><time>2026-04-25T05:03:50.999Z</time></trkpt><trkpt lat="45.106763339389694" lon="10.064399383595452"><ele>33.0</ele><time>2026-04-25T05:03:51.999Z</time></trkpt><trkpt lat="45.10671774597907" lon="10.06432874502277"><ele>33.0</ele><time>2026-04-25T05:03:52.999Z</time></trkpt><trkpt lat="45.10667166603739" lon="10.064255378159816"><ele>33.0</ele><time>2026-04-25T05:03:53.999Z</time></trkpt><trkpt lat="45.10662679798547" lon="10.064185716806351"><ele>33.0</ele><time>2026-04-25T05:03:54.999Z</time></trkpt><trkpt lat="45.1065828930298" lon="10.0641139764091"><ele>33.333333333333336</ele><time>2026-04-25T05:03:55.999Z</time></trkpt><trkpt lat="45.1065405249918" lon="10.06404472220708"><ele>33.666666666666664</ele><time>2026-04-25T05:03:56.999Z</time></trkpt><trkpt lat="45.106497484879775" lon="10.063974604455948"><ele>34.0</ele><time>2026-04-25T05:03:57.999Z</time></trkpt><trkpt lat="45.10645526958701" lon="10.063903880211216"><ele>34.33333333333333</ele><time>2026-04-25T05:03:58.999Z</time></trkpt><trkpt lat="45.10641441475012" lon="10.063835035860407"><ele>34.666666666666664</ele><time>2026-04-25T05:03:59.999Z</time></trkpt><trkpt lat="45.10633385251898" lon="10.063700762083178"><ele>35.0</ele><time>2026-04-25T05:04:01.999Z</time></trkpt><trkpt lat="45.10625222355631" lon="10.063569824662343"><ele>35.0</ele><time>2026-04-25T05:04:03.999Z</time></trkpt><trkpt lat="45.10617016763824" lon="10.063443932610484"><ele>35.0</ele><time>2026-04-25T05:04:05.999Z</time></trkpt><trkpt lat="45.106086969886164" lon="10.063317243619819"><ele>35.0</ele><time>2026-04-25T05:04:07.999Z</time></trkpt><trkpt lat="45.10601107696859" lon="10.063187769085376"><ele>35.0</ele><time>2026-04-25T05:04:09.999Z</time></trkpt><trkpt lat="45.10593278495651" lon="10.06306254957895"><ele>34.83333333333333</ele><time>2026-04-25T05:04:11.999Z</time></trkpt><trkpt lat="45.10584278850537" lon="10.062938213522768"><ele>34.666666666666664</ele><time>2026-04-25T05:04:13.999Z</time></trkpt><trkpt lat="45.105794490363586" lon="10.062868962157289"><ele>34.5</ele><time>2026-04-25T05:04:14.999Z</time></trkpt><trkpt lat="45.105746124462655" lon="10.062795991484313"><ele>34.333333333333336</ele><time>2026-04-25T05:04:15.999Z</time></trkpt><trkpt lat="45.10569866377743" lon="10.062717503240442"><ele>34.16666666666667</ele><time>2026-04-25T05:04:16.999Z</time></trkpt><trkpt lat="45.10564470434684" lon="10.06263939974013"><ele>34.0</ele><time>2026-04-25T05:04:17.999Z</time></trkpt><trkpt lat="45.10559299458076" lon="10.062563571784086"><ele>34.0</ele><time>2026-04-25T05:04:18.999Z</time></trkpt><trkpt lat="45.10554001658846" lon="10.062481606967808"><ele>34.0</ele><time>2026-04-25T05:04:19.999Z</time></trkpt><trkpt lat="45.105486050175436" lon="10.062399293184331"><ele>34.0</ele><time>2026-04-25T05:04:20.999Z</time></trkpt><trkpt lat="45.105430152105356" lon="10.06231745726321"><ele>34.0</ele><time>2026-04-25T05:04:21.999Z</time></trkpt><trkpt lat="45.105366627505646" lon="10.062244972579586"><ele>34.0</ele><time>2026-04-25T05:04:22.999Z</time></trkpt><trkpt lat="45.10529787998147" lon="10.062182377717956"><ele>34.0</ele><time>2026-04-25T05:04:23.999Z</time></trkpt><trkpt lat="45.10522631113568" lon="10.06212603987398"><ele>33.71428571428571</ele><time>2026-04-25T05:04:24.999Z</time></trkpt><trkpt lat="45.10515597551648" lon="10.062077660949457"><ele>33.42857142857143</ele><time>2026-04-25T05:04:25.999Z</time></trkpt><trkpt lat="45.10508356587799" lon="10.06203374849642"><ele>33.14285714285714</ele><time>2026-04-25T05:04:26.999Z</time></trkpt><trkpt lat="45.1050126160371" lon="10.062002718277041"><ele>32.857142857142854</ele><time>2026-04-25T05:04:27.998Z</time></trkpt><trkpt lat="45.10494185914041" lon="10.06197806463522"><ele>32.57142857142857</ele><time>2026-04-25T05:04:28.998Z</time></trkpt><trkpt lat="45.10487267893837" lon="10.06196424677003"><ele>32.285714285714285</ele><time>2026-04-25T05:04:29.998Z</time></trkpt><trkpt lat="45.104802314055235" lon="10.061964263398657"><ele>32.0</ele><time>2026-04-25T05:04:30.998Z</time></trkpt><trkpt lat="45.104736841308885" lon="10.061970784016664"><ele>32.0</ele><time>2026-04-25T05:04:32Z</time></trkpt><trkpt lat="45.104669956208355" lon="10.061993832737803"><ele>31.999999999999996</ele><time>2026-04-25T05:04:33Z</time></trkpt><trkpt lat="45.10460751976667" lon="10.062026823029132"><ele>32.0</ele><time>2026-04-25T05:04:34Z</time></trkpt><trkpt lat="45.10454600820197" lon="10.062064648159904"><ele>32.0</ele><time>2026-04-25T05:04:35Z</time></trkpt><trkpt lat="45.1044796077851" lon="10.06207907388272"><ele>31.999999999999996</ele><time>2026-04-25T05:04:36Z</time></trkpt><trkpt lat="45.10441840103587" lon="10.062113464422795"><ele>32.0</ele><time>2026-04-25T05:04:37Z</time></trkpt><trkpt lat="45.10435686757535" lon="10.062148443295742"><ele>32.0</ele><time>2026-04-25T05:04:38Z</time></trkpt><trkpt lat="45.10429435191029" lon="10.0621846601445"><ele>32.0</ele><time>2026-04-25T05:04:39Z</time></trkpt><trkpt lat="45.10423111717876" lon="10.0622212935832"><ele>31.999999999999996</ele><time>2026-04-25T05:04:40Z</time></trkpt><trkpt lat="45.10416829117376" lon="10.06225769021692"><ele>32.0</ele><time>2026-04-25T05:04:41Z</time></trkpt><trkpt lat="45.10411126289236" lon="10.06231609628159"><ele>32.0</ele><time>2026-04-25T05:04:42Z</time></trkpt><trkpt lat="45.10404251600582" lon="10.062330554859534"><ele>31.999999999999996</ele><time>2026-04-25T05:04:43Z</time></trkpt><trkpt lat="45.10398507278333" lon="10.062387195138152"><ele>32.0</ele><time>2026-04-25T05:04:44Z</time></trkpt><trkpt lat="45.1039222261775" lon="10.062421810844517"><ele>32.0</ele><time>2026-04-25T05:04:45Z</time></trkpt><trkpt lat="45.103858353294434" lon="10.062458743942706"><ele>32.285714285714285</ele><time>2026-04-25T05:04:46Z</time></trkpt><trkpt lat="45.10379535397464" lon="10.062493050838391"><ele>32.57142857142857</ele><time>2026-04-25T05:04:47Z</time></trkpt><trkpt lat="45.10373242385336" lon="10.06253049716313"><ele>32.857142857142854</ele><time>2026-04-25T05:04:48Z</time></trkpt><trkpt lat="45.10367028793934" lon="10.062564777857284"><ele>33.14285714285714</ele><time>2026-04-25T05:04:49Z</time></trkpt><trkpt lat="45.10360746713054" lon="10.062598997584823"><ele>33.42857142857143</ele><time>2026-04-25T05:04:50Z</time></trkpt><trkpt lat="45.103546827815656" lon="10.06263539428301"><ele>33.71428571428571</ele><time>2026-04-25T05:04:51Z</time></trkpt><trkpt lat="45.10348465194635" lon="10.06267227009101"><ele>34.0</ele><time>2026-04-25T05:04:52Z</time></trkpt><trkpt lat="45.103423006181835" lon="10.062701646948042"><ele>34.0</ele><time>2026-04-25T05:04:53Z</time></trkpt><trkpt lat="45.10335701494786" lon="10.062722707983035"><ele>34.0</ele><time>2026-04-25T05:04:54Z</time></trkpt><trkpt lat="45.10324564616" lon="10.062654378388618"><ele>34.0</ele><time>2026-04-25T05:04:56Z</time></trkpt><trkpt lat="45.103233379685" lon="10.062562070142631"><ele>34.0</ele><time>2026-04-25T05:04:57Z</time></trkpt><trkpt lat="45.10324149222616" lon="10.062460674419746"><ele>34.0</ele><time>2026-04-25T05:04:58Z</time></trkpt><trkpt lat="45.103262672624965" lon="10.062367002279565"><ele>34.0</ele><time>2026-04-25T05:04:59Z</time></trkpt><trkpt lat="45.10326899202699" lon="10.062274385951849"><ele>34.14285714285714</ele><time>2026-04-25T05:05:00Z</time></trkpt><trkpt lat="45.10327274523642" lon="10.062178069610878"><ele>34.285714285714285</ele><time>2026-04-25T05:05:01Z</time></trkpt><trkpt lat="45.103280115414805" lon="10.062082172193263"><ele>34.42857142857143</ele><time>2026-04-25T05:05:02Z</time></trkpt><trkpt lat="45.10328687200402" lon="10.061986327840721"><ele>34.57142857142857</ele><time>2026-04-25T05:05:03Z</time></trkpt><trkpt lat="45.103289985578954" lon="10.061888709697373"><ele>34.714285714285715</ele><time>2026-04-25T05:05:04Z</time></trkpt><trkpt lat="45.10329234883689" lon="10.06179342525461"><ele>34.857142857142854</ele><time>2026-04-25T05:05:05Z</time></trkpt><trkpt lat="45.10329126541932" lon="10.061696722736858"><ele>35.0</ele><time>2026-04-25T05:05:06Z</time></trkpt><trkpt lat="45.10328940730446" lon="10.061598151585311"><ele>35.142857142857146</ele><time>2026-04-25T05:05:07Z</time></trkpt><trkpt lat="45.103287936733786" lon="10.061502238175285"><ele>35.285714285714285</ele><time>2026-04-25T05:05:08Z</time></trkpt><trkpt lat="45.10328884832118" lon="10.061405482909988"><ele>35.42857142857143</ele><time>2026-04-25T05:05:09Z</time></trkpt><trkpt lat="45.10328838371424" lon="10.061310077764865"><ele>35.57142857142857</ele><time>2026-04-25T05:05:10Z</time></trkpt><trkpt lat="45.10328843040783" lon="10.06121376485834"><ele>35.714285714285715</ele><time>2026-04-25T05:05:11Z</time></trkpt><trkpt lat="45.10328785374846" lon="10.061117677114371"><ele>35.85714285714286</ele><time>2026-04-25T05:05:12Z</time></trkpt><trkpt lat="45.1032902073453" lon="10.061021032604526"><ele>36.0</ele><time>2026-04-25T05:05:13Z</time></trkpt><trkpt lat="45.10329296342808" lon="10.060922741149742"><ele>36.00000000000001</ele><time>2026-04-25T05:05:14Z</time></trkpt><trkpt lat="45.10329629767664" lon="10.06082117811346"><ele>36.0</ele><time>2026-04-25T05:05:15Z</time></trkpt><trkpt lat="45.10329727472333" lon="10.060720652540107"><ele>36.0</ele><time>2026-04-25T05:05:16Z</time></trkpt><trkpt lat="45.10329948388168" lon="10.060620746274102"><ele>36.0</ele><time>2026-04-25T05:05:17Z</time></trkpt><trkpt lat="45.103304413262066" lon="10.060520309912404"><ele>36.0</ele><time>2026-04-25T05:05:18Z</time></trkpt><trkpt lat="45.10330671808937" lon="10.060420401562192"><ele>36.00000000000001</ele><time>2026-04-25T05:05:19Z</time></trkpt><trkpt lat="45.10330892952781" lon="10.060318568816573"><ele>36.0</ele><time>2026-04-25T05:05:20Z</time></trkpt><trkpt lat="45.10330910984753" lon="10.060217996462354"><ele>35.85714285714286</ele><time>2026-04-25T05:05:21Z</time></trkpt><trkpt lat="45.103309017489174" lon="10.060117418494963"><ele>35.714285714285715</ele><time>2026-04-25T05:05:22Z</time></trkpt><trkpt lat="45.103310453150954" lon="10.060016147990684"><ele>35.57142857142857</ele><time>2026-04-25T05:05:23Z</time></trkpt><trkpt lat="45.10331090006738" lon="10.059914987927835"><ele>35.42857142857143</ele><time>2026-04-25T05:05:24Z</time></trkpt><trkpt lat="45.103311905720666" lon="10.059811201317938"><ele>35.285714285714285</ele><time>2026-04-25T05:05:25Z</time></trkpt><trkpt lat="45.1033131227764" lon="10.059710054640405"><ele>35.142857142857146</ele><time>2026-04-25T05:05:26Z</time></trkpt><trkpt lat="45.103313800944456" lon="10.059606938471378"><ele>35.0</ele><time>2026-04-25T05:05:27Z</time></trkpt><trkpt lat="45.103308636128965" lon="10.059509700795003"><ele>35.0</ele><time>2026-04-25T05:05:28Z</time></trkpt><trkpt lat="45.103295052814495" lon="10.059409863432533"><ele>35.0</ele><time>2026-04-25T05:05:29Z</time></trkpt><trkpt lat="45.10326816529264" lon="10.059319217450154"><ele>35.0</ele><time>2026-04-25T05:05:30Z</time></trkpt><trkpt lat="45.10322539367898" lon="10.059238820057905"><ele>35.0</ele><time>2026-04-25T05:05:31Z</time></trkpt><trkpt lat="45.103171259366945" lon="10.059177747274417"><ele>35.0</ele><time>2026-04-25T05:05:32Z</time></trkpt><trkpt lat="45.10310729262764" lon="10.05913980944577"><ele>35.0</ele><time>2026-04-25T05:05:32.999Z</time></trkpt><trkpt lat="45.10303753664714" lon="10.059116641644117"><ele>35.0</ele><time>2026-04-25T05:05:33.999Z</time></trkpt><trkpt lat="45.10296751327767" lon="10.059106275807588"><ele>35.285714285714285</ele><time>2026-04-25T05:05:34.999Z</time></trkpt><trkpt lat="45.102902721880774" lon="10.059088225989823"><ele>35.57142857142857</ele><time>2026-04-25T05:05:35.999Z</time></trkpt><trkpt lat="45.102839939087026" lon="10.05904474109561"><ele>35.85714285714286</ele><time>2026-04-25T05:05:36.999Z</time></trkpt><trkpt lat="45.102788091269346" lon="10.05898490555164"><ele>36.14285714285714</ele><time>2026-04-25T05:05:37.999Z</time></trkpt><trkpt lat="45.102764966756865" lon="10.058882853065745"><ele>36.42857142857143</ele><time>2026-04-25T05:05:38.999Z</time></trkpt><trkpt lat="45.10275470004158" lon="10.05877612231507"><ele>36.714285714285715</ele><time>2026-04-25T05:05:39.999Z</time></trkpt><trkpt lat="45.102745723091886" lon="10.058673828898012"><ele>37.0</ele><time>2026-04-25T05:05:40.999Z</time></trkpt><trkpt lat="45.102734310111245" lon="10.058574341072822"><ele>37.0</ele><time>2026-04-25T05:05:41.999Z</time></trkpt><trkpt lat="45.10271897433142" lon="10.058473989818424"><ele>37.0</ele><time>2026-04-25T05:05:42.999Z</time></trkpt><trkpt lat="45.10270391340476" lon="10.058378451173478"><ele>37.0</ele><time>2026-04-25T05:05:43.999Z</time></trkpt><trkpt lat="45.10268319178173" lon="10.05828086385313"><ele>37.0</ele><time>2026-04-25T05:05:44.999Z</time></trkpt><trkpt lat="45.10266314036145" lon="10.058186303471192"><ele>37.0</ele><time>2026-04-25T05:05:45.999Z</time></trkpt><trkpt lat="45.10264047866578" lon="10.058092099727041"><ele>37.0</ele><time>2026-04-25T05:05:46.999Z</time></trkpt><trkpt lat="45.10261798541876" lon="10.058000215187029"><ele>37.0</ele><time>2026-04-25T05:05:47.999Z</time></trkpt><trkpt lat="45.10259860769011" lon="10.057905982048492"><ele>37.142857142857146</ele><time>2026-04-25T05:05:48.999Z</time></trkpt><trkpt lat="45.10257223261792" lon="10.057812097784831"><ele>37.285714285714285</ele><time>2026-04-25T05:05:49.999Z</time></trkpt><trkpt lat="45.10254813690085" lon="10.057723105796926"><ele>37.42857142857143</ele><time>2026-04-25T05:05:50.999Z</time></trkpt><trkpt lat="45.10252265840755" lon="10.057629768196128"><ele>37.57142857142857</ele><time>2026-04-25T05:05:51.999Z</time></trkpt><trkpt lat="45.10249068030674" lon="10.05754005172226"><ele>37.714285714285715</ele><time>2026-04-25T05:05:52.999Z</time></trkpt><trkpt lat="45.10246538736992" lon="10.057446057530852"><ele>37.857142857142854</ele><time>2026-04-25T05:05:53.999Z</time></trkpt><trkpt lat="45.1024313592595" lon="10.057356612018106"><ele>38.0</ele><time>2026-04-25T05:05:54.999Z</time></trkpt><trkpt lat="45.10239825921976" lon="10.057269842503377"><ele>38.0</ele><time>2026-04-25T05:05:55.999Z</time></trkpt><trkpt lat="45.102367211421566" lon="10.057181616433484"><ele>38.0</ele><time>2026-04-25T05:05:56.999Z</time></trkpt><trkpt lat="45.10233773522665" lon="10.057091364967366"><ele>38.0</ele><time>2026-04-25T05:05:57.999Z</time></trkpt><trkpt lat="45.102306494220805" lon="10.05699989439745"><ele>38.0</ele><time>2026-04-25T05:05:58.999Z</time></trkpt><trkpt lat="45.10227598606463" lon="10.0569103017986"><ele>38.0</ele><time>2026-04-25T05:05:59.999Z</time></trkpt><trkpt lat="45.102243595085106" lon="10.056819316983928"><ele>38.0</ele><time>2026-04-25T05:06:00.999Z</time></trkpt><trkpt lat="45.10221118249871" lon="10.056728582468784"><ele>38.0</ele><time>2026-04-25T05:06:01.999Z</time></trkpt><trkpt lat="45.1021802084288" lon="10.056635106502624"><ele>37.714285714285715</ele><time>2026-04-25T05:06:02.999Z</time></trkpt><trkpt lat="45.102148672521714" lon="10.05654271324293"><ele>37.42857142857143</ele><time>2026-04-25T05:06:03.999Z</time></trkpt><trkpt lat="45.10211753528207" lon="10.05645097462748"><ele>37.142857142857146</ele><time>2026-04-25T05:06:04.999Z</time></trkpt><trkpt lat="45.10208720835243" lon="10.056359427793454"><ele>36.85714285714286</ele><time>2026-04-25T05:06:05.999Z</time></trkpt><trkpt lat="45.1020560213393" lon="10.056270293693084"><ele>36.57142857142857</ele><time>2026-04-25T05:06:06.999Z</time></trkpt><trkpt lat="45.10202620036326" lon="10.056178137944341"><ele>36.28571428571429</ele><time>2026-04-25T05:06:07.999Z</time></trkpt><trkpt lat="45.101994516174045" lon="10.056084641911477"><ele>36.0</ele><time>2026-04-25T05:06:08.999Z</time></trkpt><trkpt lat="45.10195836792909" lon="10.055989448379005"><ele>36.00000000000001</ele><time>2026-04-25T05:06:09.999Z</time></trkpt><trkpt lat="45.10192831124" lon="10.055901402917083"><ele>36.0</ele><time>2026-04-25T05:06:10.999Z</time></trkpt><trkpt lat="45.10189815080892" lon="10.055805854339146"><ele>36.0</ele><time>2026-04-25T05:06:11.999Z</time></trkpt><trkpt lat="45.101868808836386" lon="10.055710109873887"><ele>36.0</ele><time>2026-04-25T05:06:12.999Z</time></trkpt><trkpt lat="45.1018386352682" lon="10.055617938558244"><ele>36.0</ele><time>2026-04-25T05:06:13.999Z</time></trkpt><trkpt lat="45.10180680609787" lon="10.055522347751285"><ele>36.00000000000001</ele><time>2026-04-25T05:06:14.999Z</time></trkpt><trkpt lat="45.10177737565141" lon="10.055427311423283"><ele>36.0</ele><time>2026-04-25T05:06:15.999Z</time></trkpt><trkpt lat="45.101746434909444" lon="10.055336590758717"><ele>35.85714285714286</ele><time>2026-04-25T05:06:16.999Z</time></trkpt><trkpt lat="45.1017153304766" lon="10.055242521768939"><ele>35.714285714285715</ele><time>2026-04-25T05:06:17.999Z</time></trkpt><trkpt lat="45.10168368060779" lon="10.055149786142294"><ele>35.57142857142857</ele><time>2026-04-25T05:06:18.999Z</time></trkpt><trkpt lat="45.10165147149542" lon="10.055058580899084"><ele>35.42857142857143</ele><time>2026-04-25T05:06:19.999Z</time></trkpt><trkpt lat="45.1016190169108" lon="10.054965738537488"><ele>35.285714285714285</ele><time>2026-04-25T05:06:20.999Z</time></trkpt><trkpt lat="45.10158910445964" lon="10.054873758513393"><ele>35.142857142857146</ele><time>2026-04-25T05:06:21.999Z</time></trkpt><trkpt lat="45.101558092168816" lon="10.05478127341627"><ele>35.0</ele><time>2026-04-25T05:06:22.999Z</time></trkpt><trkpt lat="45.10152985489199" lon="10.054688398473408"><ele>35.0</ele><time>2026-04-25T05:06:23.999Z</time></trkpt><trkpt lat="45.10150098374683" lon="10.054594055624689"><ele>35.0</ele><time>2026-04-25T05:06:24.999Z</time></trkpt><trkpt lat="45.1014745609166" lon="10.054496809342949"><ele>35.0</ele><time>2026-04-25T05:06:25.999Z</time></trkpt><trkpt lat="45.10144811454781" lon="10.054403125232371"><ele>35.0</ele><time>2026-04-25T05:06:26.999Z</time></trkpt><trkpt lat="45.10141728072519" lon="10.05430727982183"><ele>35.0</ele><time>2026-04-25T05:06:27.999Z</time></trkpt><trkpt lat="45.101394719853424" lon="10.0542131983939"><ele>35.0</ele><time>2026-04-25T05:06:28.998Z</time></trkpt><trkpt lat="45.101375747814444" lon="10.054109629061472"><ele>35.0</ele><time>2026-04-25T05:06:29.998Z</time></trkpt><trkpt lat="45.1013778962001" lon="10.054014101085501"><ele>35.0</ele><time>2026-04-25T05:06:30.998Z</time></trkpt><trkpt lat="45.10138127895262" lon="10.053910535692667"><ele>35.0</ele><time>2026-04-25T05:06:31.998Z</time></trkpt><trkpt lat="45.101386259086205" lon="10.053809562333983"><ele>35.0</ele><time>2026-04-25T05:06:32.998Z</time></trkpt><trkpt lat="45.10139000725739" lon="10.05371155724596"><ele>35.0</ele><time>2026-04-25T05:06:33.998Z</time></trkpt><trkpt lat="45.10139395018171" lon="10.053611683304766"><ele>35.0</ele><time>2026-04-25T05:06:34.998Z</time></trkpt><trkpt lat="45.101399506450534" lon="10.053511703735074"><ele>35.0</ele><time>2026-04-25T05:06:35.998Z</time></trkpt><trkpt lat="45.101404267522085" lon="10.053411932667807"><ele>35.0</ele><time>2026-04-25T05:06:36.998Z</time></trkpt><trkpt lat="45.10141249146161" lon="10.053310323351367"><ele>35.0</ele><time>2026-04-25T05:06:38Z</time></trkpt><trkpt lat="45.10142094974284" lon="10.053208174238533"><ele>35.0</ele><time>2026-04-25T05:06:39Z</time></trkpt><trkpt lat="45.101429767914276" lon="10.053107175784959"><ele>35.0</ele><time>2026-04-25T05:06:40Z</time></trkpt><trkpt lat="45.101437172619974" lon="10.05300729024582"><ele>35.0</ele><time>2026-04-25T05:06:41Z</time></trkpt><trkpt lat="45.1014472653149" lon="10.05290210158178"><ele>35.0</ele><time>2026-04-25T05:06:42Z</time></trkpt><trkpt lat="45.10145238853835" lon="10.052804167990844"><ele>35.0</ele><time>2026-04-25T05:06:43Z</time></trkpt><trkpt lat="45.1014612469279" lon="10.052701715444869"><ele>35.0</ele><time>2026-04-25T05:06:44Z</time></trkpt><trkpt lat="45.10146809531147" lon="10.052602616012607"><ele>35.0</ele><time>2026-04-25T05:06:45Z</time></trkpt><trkpt lat="45.1014785083107" lon="10.052501581209356"><ele>35.0</ele><time>2026-04-25T05:06:46Z</time></trkpt><trkpt lat="45.10148756107166" lon="10.052403223207204"><ele>35.0</ele><time>2026-04-25T05:06:47Z</time></trkpt><trkpt lat="45.101495580715934" lon="10.052302552077322"><ele>35.0</ele><time>2026-04-25T05:06:48Z</time></trkpt><trkpt lat="45.101502408537115" lon="10.052201468814534"><ele>35.0</ele><time>2026-04-25T05:06:49Z</time></trkpt><trkpt lat="45.101509310239095" lon="10.052102507293375"><ele>35.0</ele><time>2026-04-25T05:06:50Z</time></trkpt><trkpt lat="45.10151777770928" lon="10.052001587337275"><ele>35.0</ele><time>2026-04-25T05:06:51Z</time></trkpt><trkpt lat="45.10152477396435" lon="10.051902790371724"><ele>35.142857142857146</ele><time>2026-04-25T05:06:52Z</time></trkpt><trkpt lat="45.101536682686984" lon="10.051804705215094"><ele>35.285714285714285</ele><time>2026-04-25T05:06:53Z</time></trkpt><trkpt lat="45.101543917137455" lon="10.051704964582898"><ele>35.42857142857143</ele><time>2026-04-25T05:06:54Z</time></trkpt><trkpt lat="45.10155437090237" lon="10.051607152749053"><ele>35.57142857142857</ele><time>2026-04-25T05:06:55Z</time></trkpt><trkpt lat="45.10156030192589" lon="10.051506032028636"><ele>35.714285714285715</ele><time>2026-04-25T05:06:56Z</time></trkpt><trkpt lat="45.10156308330411" lon="10.051408587150611"><ele>35.85714285714286</ele><time>2026-04-25T05:06:57Z</time></trkpt><trkpt lat="45.10156751927837" lon="10.051314136180082"><ele>36.0</ele><time>2026-04-25T05:06:58Z</time></trkpt><trkpt lat="45.101576303053825" lon="10.051223648006665"><ele>36.142857142857146</ele><time>2026-04-25T05:06:59Z</time></trkpt><trkpt lat="45.101594086650266" lon="10.05113586459095"><ele>36.285714285714285</ele><time>2026-04-25T05:07:00Z</time></trkpt><trkpt lat="45.10163015867507" lon="10.051059538777395"><ele>36.42857142857143</ele><time>2026-04-25T05:07:01Z</time></trkpt><trkpt lat="45.101687732180416" lon="10.051021064554503"><ele>36.57142857142857</ele><time>2026-04-25T05:07:02Z</time></trkpt><trkpt lat="45.10175615138523" lon="10.051021404007313"><ele>36.714285714285715</ele><time>2026-04-25T05:07:03Z</time></trkpt><trkpt lat="45.1018233946427" lon="10.051037346226343"><ele>36.85714285714286</ele><time>2026-04-25T05:07:04Z</time></trkpt><trkpt lat="45.10189357847037" lon="10.051053402638217"><ele>37.0</ele><time>2026-04-25T05:07:05Z</time></trkpt><trkpt lat="45.10196075184498" lon="10.051065383118619"><ele>37.0</ele><time>2026-04-25T05:07:06Z</time></trkpt><trkpt lat="45.1020317401924" lon="10.051074223384703"><ele>37.0</ele><time>2026-04-25T05:07:07Z</time></trkpt><trkpt lat="45.10210029976917" lon="10.05108166665197"><ele>37.0</ele><time>2026-04-25T05:07:08Z</time></trkpt><trkpt lat="45.10216900788733" lon="10.051087492825257"><ele>37.0</ele><time>2026-04-25T05:07:09Z</time></trkpt><trkpt lat="45.10223925301398" lon="10.051094204670418"><ele>37.0</ele><time>2026-04-25T05:07:10Z</time></trkpt><trkpt lat="45.10231057383985" lon="10.051101157911557"><ele>37.0</ele><time>2026-04-25T05:07:11Z</time></trkpt><trkpt lat="45.10238186226844" lon="10.051107458804813"><ele>37.0</ele><time>2026-04-25T05:07:12Z</time></trkpt><trkpt lat="45.10245172292782" lon="10.05111499978474"><ele>36.714285714285715</ele><time>2026-04-25T05:07:13Z</time></trkpt><trkpt lat="45.10252487758085" lon="10.05112234709559"><ele>36.42857142857143</ele><time>2026-04-25T05:07:14Z</time></trkpt><trkpt lat="45.102596705822364" lon="10.051130062904443"><ele>36.14285714285714</ele><time>2026-04-25T05:07:15Z</time></trkpt><trkpt lat="45.102669490141345" lon="10.051135544321127"><ele>35.85714285714286</ele><time>2026-04-25T05:07:16Z</time></trkpt><trkpt lat="45.10273988093194" lon="10.051143831470338"><ele>35.57142857142857</ele><time>2026-04-25T05:07:17Z</time></trkpt><trkpt lat="45.10281237003622" lon="10.051155194633306"><ele>35.285714285714285</ele><time>2026-04-25T05:07:18Z</time></trkpt><trkpt lat="45.102882628243535" lon="10.05116556588196"><ele>35.0</ele><time>2026-04-25T05:07:19Z</time></trkpt><trkpt lat="45.10295399784197" lon="10.05117527200716"><ele>35.0</ele><time>2026-04-25T05:07:20Z</time></trkpt><trkpt lat="45.10302113301635" lon="10.051183139810687"><ele>35.0</ele><time>2026-04-25T05:07:21Z</time></trkpt><trkpt lat="45.10309241676263" lon="10.051192349664964"><ele>35.0</ele><time>2026-04-25T05:07:22Z</time></trkpt><trkpt lat="45.10316065857552" lon="10.051199661350264"><ele>35.0</ele><time>2026-04-25T05:07:23Z</time></trkpt><trkpt lat="45.10323138770433" lon="10.051211659348812"><ele>35.0</ele><time>2026-04-25T05:07:24Z</time></trkpt><trkpt lat="45.1033008283109" lon="10.051223772297837"><ele>35.0</ele><time>2026-04-25T05:07:25Z</time></trkpt><trkpt lat="45.10336969239986" lon="10.051236572935734"><ele>35.0</ele><time>2026-04-25T05:07:26Z</time></trkpt><trkpt lat="45.103437719175396" lon="10.05124934103549"><ele>34.857142857142854</ele><time>2026-04-25T05:07:27Z</time></trkpt><trkpt lat="45.10350249614894" lon="10.05126324189747"><ele>34.714285714285715</ele><time>2026-04-25T05:07:28Z</time></trkpt><trkpt lat="45.10357375564173" lon="10.051281151363506"><ele>34.57142857142857</ele><time>2026-04-25T05:07:29Z</time></trkpt><trkpt lat="45.10364099164013" lon="10.051296504503195"><ele>34.42857142857143</ele><time>2026-04-25T05:07:30Z</time></trkpt><trkpt lat="45.10371138836097" lon="10.051308305821259"><ele>34.285714285714285</ele><time>2026-04-25T05:07:31Z</time></trkpt><trkpt lat="45.10378073400045" lon="10.05132045056483"><ele>34.14285714285714</ele><time>2026-04-25T05:07:32Z</time></trkpt><trkpt lat="45.10385354753951" lon="10.051334587722138"><ele>34.0</ele><time>2026-04-25T05:07:33Z</time></trkpt><trkpt lat="45.10392458772326" lon="10.051345069798549"><ele>33.99999999999999</ele><time>2026-04-25T05:07:34Z</time></trkpt><trkpt lat="45.10399008715425" lon="10.051357312628483"><ele>34.0</ele><time>2026-04-25T05:07:35Z</time></trkpt><trkpt lat="45.10405511131928" lon="10.051371677982145"><ele>34.0</ele><time>2026-04-25T05:07:35.999Z</time></trkpt><trkpt lat="45.10412491487094" lon="10.051384244095987"><ele>34.0</ele><time>2026-04-25T05:07:36.999Z</time></trkpt><trkpt lat="45.104193112979466" lon="10.051401308756912"><ele>34.0</ele><time>2026-04-25T05:07:37.999Z</time></trkpt><trkpt lat="45.10426259201667" lon="10.051419079834286"><ele>33.99999999999999</ele><time>2026-04-25T05:07:38.999Z</time></trkpt><trkpt lat="45.104332968625734" lon="10.051433386027204"><ele>34.0</ele><time>2026-04-25T05:07:39.999Z</time></trkpt><trkpt lat="45.104402302931824" lon="10.051445624528059"><ele>33.857142857142854</ele><time>2026-04-25T05:07:40.999Z</time></trkpt><trkpt lat="45.10447124152249" lon="10.05145933023597"><ele>33.714285714285715</ele><time>2026-04-25T05:07:41.999Z</time></trkpt><trkpt lat="45.10454104018652" lon="10.051472120593788"><ele>33.57142857142857</ele><time>2026-04-25T05:07:42.999Z</time></trkpt><trkpt lat="45.1046098882356" lon="10.051480735479421"><ele>33.42857142857143</ele><time>2026-04-25T05:07:43.999Z</time></trkpt><trkpt lat="45.104678312492496" lon="10.051482725352534"><ele>33.285714285714285</ele><time>2026-04-25T05:07:44.999Z</time></trkpt><trkpt lat="45.10474901021165" lon="10.051489173860721"><ele>33.14285714285714</ele><time>2026-04-25T05:07:45.999Z</time></trkpt><trkpt lat="45.10481524397756" lon="10.051493767019517"><ele>33.0</ele><time>2026-04-25T05:07:46.999Z</time></trkpt><trkpt lat="45.10488286174953" lon="10.051490588700016"><ele>33.0</ele><time>2026-04-25T05:07:47.999Z</time></trkpt><trkpt lat="45.10495118979283" lon="10.05149165438808"><ele>33.0</ele><time>2026-04-25T05:07:48.999Z</time></trkpt><trkpt lat="45.10507770376397" lon="10.051479079813994"><ele>33.0</ele><time>2026-04-25T05:07:50.999Z</time></trkpt><trkpt lat="45.10518644962832" lon="10.051417099668704"><ele>33.0</ele><time>2026-04-25T05:07:52.999Z</time></trkpt><trkpt lat="45.10524590329712" lon="10.051355672748848"><ele>33.0</ele><time>2026-04-25T05:07:53.999Z</time></trkpt><trkpt lat="45.10523248730167" lon="10.051221454090285"><ele>33.0</ele><time>2026-04-25T05:07:54.999Z</time></trkpt><trkpt lat="45.105228951058784" lon="10.051115181953266"><ele>33.0</ele><time>2026-04-25T05:07:55.999Z</time></trkpt><trkpt lat="45.10522744530421" lon="10.051011819944847"><ele>33.0</ele><time>2026-04-25T05:07:56.999Z</time></trkpt><trkpt lat="45.10522620163763" lon="10.050907233591722"><ele>33.0</ele><time>2026-04-25T05:07:57.999Z</time></trkpt><trkpt lat="45.10522376150056" lon="10.050802736341707"><ele>33.0</ele><time>2026-04-25T05:07:58.999Z</time></trkpt><trkpt lat="45.105221413383106" lon="10.050697355464656"><ele>33.0</ele><time>2026-04-25T05:07:59.999Z</time></trkpt><trkpt lat="45.10522120890319" lon="10.050595634507996"><ele>33.0</ele><time>2026-04-25T05:08:00.999Z</time></trkpt><trkpt lat="45.10522191005841" lon="10.050494947138834"><ele>33.0</ele><time>2026-04-25T05:08:01.999Z</time></trkpt><trkpt lat="45.10522135429691" lon="10.05039359194006"><ele>33.0</ele><time>2026-04-25T05:08:02.999Z</time></trkpt><trkpt lat="45.105223880296606" lon="10.050294413614315"><ele>33.0</ele><time>2026-04-25T05:08:03.999Z</time></trkpt><trkpt lat="45.105225562430256" lon="10.050192829184207"><ele>33.0</ele><time>2026-04-25T05:08:04.999Z</time></trkpt><trkpt lat="45.1052253447327" lon="10.050093045850923"><ele>33.0</ele><time>2026-04-25T05:08:05.999Z</time></trkpt><trkpt lat="45.105226546454375" lon="10.049991374382754"><ele>33.0</ele><time>2026-04-25T05:08:06.999Z</time></trkpt><trkpt lat="45.10522651014968" lon="10.049893439863878"><ele>33.0</ele><time>2026-04-25T05:08:07.999Z</time></trkpt><trkpt lat="45.105224277724716" lon="10.049794800685294"><ele>33.0</ele><time>2026-04-25T05:08:08.999Z</time></trkpt><trkpt lat="45.10522293441505" lon="10.049694743804151"><ele>33.0</ele><time>2026-04-25T05:08:09.999Z</time></trkpt><trkpt lat="45.105221355995454" lon="10.049592856990477"><ele>33.0</ele><time>2026-04-25T05:08:10.999Z</time></trkpt><trkpt lat="45.10521652565287" lon="10.049492261722808"><ele>33.0</ele><time>2026-04-25T05:08:11.999Z</time></trkpt><trkpt lat="45.10521148628294" lon="10.049393242440477"><ele>33.0</ele><time>2026-04-25T05:08:12.999Z</time></trkpt><trkpt lat="45.105205747271626" lon="10.049291769253962"><ele>33.0</ele><time>2026-04-25T05:08:13.999Z</time></trkpt><trkpt lat="45.10520278038009" lon="10.049194449808223"><ele>33.0</ele><time>2026-04-25T05:08:14.999Z</time></trkpt><trkpt lat="45.10520160720174" lon="10.049092207397424"><ele>33.285714285714285</ele><time>2026-04-25T05:08:15.999Z</time></trkpt><trkpt lat="45.1051922569764" lon="10.04899194687217"><ele>33.57142857142857</ele><time>2026-04-25T05:08:16.999Z</time></trkpt><trkpt lat="45.105182222181554" lon="10.048894481836907"><ele>33.85714285714286</ele><time>2026-04-25T05:08:17.999Z</time></trkpt><trkpt lat="45.10517197941002" lon="10.048793219000926"><ele>34.14285714285714</ele><time>2026-04-25T05:08:18.999Z</time></trkpt><trkpt lat="45.105161801763444" lon="10.048694062322078"><ele>34.42857142857143</ele><time>2026-04-25T05:08:19.999Z</time></trkpt><trkpt lat="45.10515015790825" lon="10.048593037830456"><ele>34.714285714285715</ele><time>2026-04-25T05:08:20.999Z</time></trkpt><trkpt lat="45.105138034636326" lon="10.048493556169834"><ele>35.0</ele><time>2026-04-25T05:08:21.999Z</time></trkpt><trkpt lat="45.10512623186763" lon="10.048394431397877"><ele>35.0</ele><time>2026-04-25T05:08:22.999Z</time></trkpt><trkpt lat="45.10511376279881" lon="10.04829387154704"><ele>35.0</ele><time>2026-04-25T05:08:23.999Z</time></trkpt><trkpt lat="45.105101642709016" lon="10.048195824946742"><ele>35.0</ele><time>2026-04-25T05:08:24.999Z</time></trkpt><trkpt lat="45.105089120433504" lon="10.048098497003634"><ele>35.0</ele><time>2026-04-25T05:08:25.999Z</time></trkpt><trkpt lat="45.105076280422985" lon="10.048000808543659"><ele>35.0</ele><time>2026-04-25T05:08:26.999Z</time></trkpt><trkpt lat="45.10506146183521" lon="10.047903645879678"><ele>35.0</ele><time>2026-04-25T05:08:27.999Z</time></trkpt><trkpt lat="45.10504482023105" lon="10.047808550547993"><ele>35.0</ele><time>2026-04-25T05:08:28.999Z</time></trkpt><trkpt lat="45.10502119400942" lon="10.047716654455684"><ele>35.0</ele><time>2026-04-25T05:08:29.999Z</time></trkpt><trkpt lat="45.10499547675514" lon="10.047628206557349"><ele>35.0</ele><time>2026-04-25T05:08:30.999Z</time></trkpt><trkpt lat="45.104972363955625" lon="10.047538302522002"><ele>35.0</ele><time>2026-04-25T05:08:31.998Z</time></trkpt><trkpt lat="45.10495061856335" lon="10.04745009655209"><ele>35.0</ele><time>2026-04-25T05:08:32.998Z</time></trkpt><trkpt lat="45.10493117760744" lon="10.047357059605318"><ele>35.0</ele><time>2026-04-25T05:08:33.998Z</time></trkpt><trkpt lat="45.10491089061256" lon="10.047268096512564"><ele>35.0</ele><time>2026-04-25T05:08:34.998Z</time></trkpt><trkpt lat="45.10488907135478" lon="10.047175297470986"><ele>35.0</ele><time>2026-04-25T05:08:35.998Z</time></trkpt><trkpt lat="45.10486824056363" lon="10.047083898388493"><ele>34.714285714285715</ele><time>2026-04-25T05:08:36.998Z</time></trkpt><trkpt lat="45.10484720020193" lon="10.046990784231621"><ele>34.42857142857143</ele><time>2026-04-25T05:08:37.998Z</time></trkpt><trkpt lat="45.104825872836294" lon="10.046895743242304"><ele>34.14285714285714</ele><time>2026-04-25T05:08:38.998Z</time></trkpt><trkpt lat="45.104805416538305" lon="10.046802697950035"><ele>33.85714285714286</ele><time>2026-04-25T05:08:39.998Z</time></trkpt><trkpt lat="45.104784211421155" lon="10.04671164239279"><ele>33.57142857142857</ele><time>2026-04-25T05:08:40.998Z</time></trkpt><trkpt lat="45.10476235964654" lon="10.046618083071479"><ele>33.285714285714285</ele><time>2026-04-25T05:08:41.998Z</time></trkpt><trkpt lat="45.10474000594383" lon="10.046521345544022"><ele>33.0</ele><time>2026-04-25T05:08:42.998Z</time></trkpt><trkpt lat="45.10471896841895" lon="10.046428198749314"><ele>33.0</ele><time>2026-04-25T05:08:44Z</time></trkpt><trkpt lat="45.10469624137251" lon="10.046331874305316"><ele>33.0</ele><time>2026-04-25T05:08:45Z</time></trkpt><trkpt lat="45.1046752937385" lon="10.046235953227061"><ele>33.0</ele><time>2026-04-25T05:08:46Z</time></trkpt><trkpt lat="45.10465182631806" lon="10.046140164973929"><ele>33.0</ele><time>2026-04-25T05:08:47Z</time></trkpt><trkpt lat="45.104630784271485" lon="10.046046843608012"><ele>33.0</ele><time>2026-04-25T05:08:48Z</time></trkpt><trkpt lat="45.10460935772846" lon="10.045949230813463"><ele>33.0</ele><time>2026-04-25T05:08:49Z</time></trkpt><trkpt lat="45.10458909286575" lon="10.045852681158113"><ele>33.0</ele><time>2026-04-25T05:08:50Z</time></trkpt><trkpt lat="45.10456687591203" lon="10.045760465656901"><ele>33.4</ele><time>2026-04-25T05:08:51Z</time></trkpt><trkpt lat="45.104543841786814" lon="10.045672024793118"><ele>33.8</ele><time>2026-04-25T05:08:52Z</time></trkpt><trkpt lat="45.104524385767036" lon="10.045586906374021"><ele>34.2</ele><time>2026-04-25T05:08:53Z</time></trkpt><trkpt lat="45.10449043506265" lon="10.045421139233564"><ele>34.6</ele><time>2026-04-25T05:08:55Z</time></trkpt><trkpt lat="45.10445277002269" lon="10.045268684232138"><ele>35.0</ele><time>2026-04-25T05:08:57Z</time></trkpt><trkpt lat="45.10442566554116" lon="10.045121759591439"><ele>35.0</ele><time>2026-04-25T05:08:59Z</time></trkpt><trkpt lat="45.104394278158736" lon="10.044979765279832"><ele>35.0</ele><time>2026-04-25T05:09:01Z</time></trkpt><trkpt lat="45.10435508562074" lon="10.044828982727923"><ele>35.0</ele><time>2026-04-25T05:09:03Z</time></trkpt><trkpt lat="45.10431404200754" lon="10.044676248410918"><ele>35.0</ele><time>2026-04-25T05:09:05Z</time></trkpt><trkpt lat="45.10427805470335" lon="10.044519809940203"><ele>35.25</ele><time>2026-04-25T05:09:07Z</time></trkpt><trkpt lat="45.10424617128255" lon="10.044360786448323"><ele>35.5</ele><time>2026-04-25T05:09:09Z</time></trkpt><trkpt lat="45.10420905041652" lon="10.044202427944079"><ele>35.75</ele><time>2026-04-25T05:09:11Z</time></trkpt><trkpt lat="45.104157636306766" lon="10.044054257575691"><ele>36.0</ele><time>2026-04-25T05:09:13Z</time></trkpt><trkpt lat="45.10410394594933" lon="10.043906437025484"><ele>35.5</ele><time>2026-04-25T05:09:15Z</time></trkpt><trkpt lat="45.10405488231716" lon="10.043747982964328"><ele>35.0</ele><time>2026-04-25T05:09:17Z</time></trkpt><trkpt lat="45.103999199778514" lon="10.043596654260195"><ele>34.5</ele><time>2026-04-25T05:09:19Z</time></trkpt><trkpt lat="45.10394060959749" lon="10.04345409395376"><ele>34.0</ele><time>2026-04-25T05:09:21Z</time></trkpt><trkpt lat="45.10391395420133" lon="10.043301361760536"><ele>34.5</ele><time>2026-04-25T05:09:23Z</time></trkpt><trkpt lat="45.103984515346056" lon="10.043183170235018"><ele>35.0</ele><time>2026-04-25T05:09:25Z</time></trkpt><trkpt lat="45.10406836347032" lon="10.043092650518531"><ele>35.5</ele><time>2026-04-25T05:09:27Z</time></trkpt><trkpt lat="45.104136938163506" lon="10.04296040883041"><ele>36.0</ele><time>2026-04-25T05:09:29Z</time></trkpt><trkpt lat="45.10421436020071" lon="10.042822326553049"><ele>36.166666666666664</ele><time>2026-04-25T05:09:31Z</time></trkpt><trkpt lat="45.10429000102487" lon="10.042688409406773"><ele>36.333333333333336</ele><time>2026-04-25T05:09:33Z</time></trkpt><trkpt lat="45.10436663939785" lon="10.042553277763316"><ele>36.5</ele><time>2026-04-25T05:09:35Z</time></trkpt><trkpt lat="45.1044066660553" lon="10.042482370915227"><ele>36.66666666666667</ele><time>2026-04-25T05:09:36Z</time></trkpt><trkpt lat="45.10445169680208" lon="10.042409444966625"><ele>36.833333333333336</ele><time>2026-04-25T05:09:37Z</time></trkpt><trkpt lat="45.10449755988618" lon="10.0423371276433"><ele>37.0</ele><time>2026-04-25T05:09:38Z</time></trkpt><trkpt lat="45.104545673382056" lon="10.042259084803664"><ele>37.0</ele><time>2026-04-25T05:09:39Z</time></trkpt><trkpt lat="45.104591784773866" lon="10.042182527607377"><ele>37.0</ele><time>2026-04-25T05:09:39.999Z</time></trkpt><trkpt lat="45.10463626478183" lon="10.042100689494253"><ele>37.0</ele><time>2026-04-25T05:09:40.999Z</time></trkpt><trkpt lat="45.10467980641568" lon="10.042019240670793"><ele>37.0</ele><time>2026-04-25T05:09:41.999Z</time></trkpt><trkpt lat="45.10472493491603" lon="10.041944284933347"><ele>37.0</ele><time>2026-04-25T05:09:42.999Z</time></trkpt><trkpt lat="45.10477110838223" lon="10.041867202094839"><ele>37.0</ele><time>2026-04-25T05:09:43.999Z</time></trkpt><trkpt lat="45.10481595802724" lon="10.041790580248534"><ele>37.0</ele><time>2026-04-25T05:09:44.999Z</time></trkpt><trkpt lat="45.10486245449972" lon="10.041719024045738"><ele>37.0</ele><time>2026-04-25T05:09:45.999Z</time></trkpt><trkpt lat="45.104907019892785" lon="10.041645997683982"><ele>37.0</ele><time>2026-04-25T05:09:46.999Z</time></trkpt><trkpt lat="45.10494859133791" lon="10.041571517563689"><ele>37.0</ele><time>2026-04-25T05:09:47.999Z</time></trkpt><trkpt lat="45.10498816203041" lon="10.041501129711653"><ele>37.0</ele><time>2026-04-25T05:09:48.999Z</time></trkpt><trkpt lat="45.10506275829298" lon="10.041376787562667"><ele>37.0</ele><time>2026-04-25T05:09:50.999Z</time></trkpt><trkpt lat="45.10514215135379" lon="10.041236774503554"><ele>37.0</ele><time>2026-04-25T05:09:52.999Z</time></trkpt><trkpt lat="45.10520835417712" lon="10.041096450426473"><ele>37.2</ele><time>2026-04-25T05:09:54.999Z</time></trkpt><trkpt lat="45.10514258163567" lon="10.040944255997722"><ele>37.400000000000006</ele><time>2026-04-25T05:09:56.999Z</time></trkpt><trkpt lat="45.10507636035403" lon="10.040915526556091"><ele>37.599999999999994</ele><time>2026-04-25T05:09:57.999Z</time></trkpt><trkpt lat="45.10501286196146" lon="10.040905804482005"><ele>37.8</ele><time>2026-04-25T05:09:58.999Z</time></trkpt><trkpt lat="45.104892413445164" lon="10.040877532253017"><ele>38.0</ele><time>2026-04-25T05:10:00.999Z</time></trkpt><trkpt lat="45.10477093928427" lon="10.040832267070085"><ele>38.199999999999996</ele><time>2026-04-25T05:10:02.999Z</time></trkpt><trkpt lat="45.10465544537875" lon="10.040788459648699"><ele>38.4</ele><time>2026-04-25T05:10:04.999Z</time></trkpt><trkpt lat="45.10453425879607" lon="10.040750117537552"><ele>38.599999999999994</ele><time>2026-04-25T05:10:06.999Z</time></trkpt><trkpt lat="45.104412879888" lon="10.040707265243917"><ele>38.8</ele><time>2026-04-25T05:10:08.999Z</time></trkpt><trkpt lat="45.10435234801" lon="10.040681727502031"><ele>39.0</ele><time>2026-04-25T05:10:09.999Z</time></trkpt><trkpt lat="45.10422915812974" lon="10.040639019521567"><ele>39.0</ele><time>2026-04-25T05:10:11.999Z</time></trkpt><trkpt lat="45.104168132277906" lon="10.040616652618874"><ele>39.0</ele><time>2026-04-25T05:10:12.999Z</time></trkpt><trkpt lat="45.10404742404466" lon="10.040564924037229"><ele>39.0</ele><time>2026-04-25T05:10:14.999Z</time></trkpt><trkpt lat="45.10398667378433" lon="10.040536986148172"><ele>39.0</ele><time>2026-04-25T05:10:15.999Z</time></trkpt><trkpt lat="45.10392447615389" lon="10.040512467097772"><ele>39.0</ele><time>2026-04-25T05:10:16.999Z</time></trkpt><trkpt lat="45.103862886629415" lon="10.040489376401228"><ele>39.0</ele><time>2026-04-25T05:10:17.999Z</time></trkpt><trkpt lat="45.103799046976064" lon="10.04046736350676"><ele>39.0</ele><time>2026-04-25T05:10:18.999Z</time></trkpt><trkpt lat="45.10373597297821" lon="10.040445436879232"><ele>38.666666666666664</ele><time>2026-04-25T05:10:19.999Z</time></trkpt><trkpt lat="45.103609581412876" lon="10.040406704081546"><ele>38.333333333333336</ele><time>2026-04-25T05:10:21.999Z</time></trkpt><trkpt lat="45.10354551202179" lon="10.04038858367146"><ele>38.0</ele><time>2026-04-25T05:10:22.999Z</time></trkpt><trkpt lat="45.103481486681154" lon="10.040369862247028"><ele>37.66666666666667</ele><time>2026-04-25T05:10:23.999Z</time></trkpt><trkpt lat="45.10341724945841" lon="10.040348386176476"><ele>37.333333333333336</ele><time>2026-04-25T05:10:24.999Z</time></trkpt><trkpt lat="45.10335243391006" lon="10.040326606037015"><ele>37.0</ele><time>2026-04-25T05:10:25.999Z</time></trkpt><trkpt lat="45.103289185722595" lon="10.040305813789608"><ele>36.714285714285715</ele><time>2026-04-25T05:10:26.999Z</time></trkpt><trkpt lat="45.10322538820781" lon="10.040285953207905"><ele>36.42857142857143</ele><time>2026-04-25T05:10:27.999Z</time></trkpt><trkpt lat="45.103163421296806" lon="10.040263340560449"><ele>36.14285714285714</ele><time>2026-04-25T05:10:28.999Z</time></trkpt><trkpt lat="45.10310091269961" lon="10.040239937205849"><ele>35.85714285714286</ele><time>2026-04-25T05:10:29.999Z</time></trkpt><trkpt lat="45.10303841833131" lon="10.040214971650997"><ele>35.57142857142857</ele><time>2026-04-25T05:10:30.999Z</time></trkpt><trkpt lat="45.10297754570781" lon="10.04018802861017"><ele>35.285714285714285</ele><time>2026-04-25T05:10:31.999Z</time></trkpt><trkpt lat="45.102913855204235" lon="10.04015820964327"><ele>35.0</ele><time>2026-04-25T05:10:32.999Z</time></trkpt><trkpt lat="45.102851073454005" lon="10.04012628755145"><ele>35.0</ele><time>2026-04-25T05:10:33.999Z</time></trkpt><trkpt lat="45.10278712769518" lon="10.040103222510721"><ele>35.0</ele><time>2026-04-25T05:10:34.998Z</time></trkpt><trkpt lat="45.10272176596439" lon="10.040080859591647"><ele>35.0</ele><time>2026-04-25T05:10:35.998Z</time></trkpt><trkpt lat="45.102653726497856" lon="10.040053443421707"><ele>35.0</ele><time>2026-04-25T05:10:36.998Z</time></trkpt><trkpt lat="45.10259340305474" lon="10.040022274446793"><ele>35.0</ele><time>2026-04-25T05:10:37.998Z</time></trkpt><trkpt lat="45.10252861854496" lon="10.039992299503423"><ele>35.0</ele><time>2026-04-25T05:10:38.998Z</time></trkpt><trkpt lat="45.10246284944796" lon="10.039958427395662"><ele>35.0</ele><time>2026-04-25T05:10:39.998Z</time></trkpt><trkpt lat="45.102400381529" lon="10.039929001497569"><ele>35.166666666666664</ele><time>2026-04-25T05:10:40.998Z</time></trkpt><trkpt lat="45.10233906813956" lon="10.039900515062127"><ele>35.33333333333333</ele><time>2026-04-25T05:10:41.998Z</time></trkpt><trkpt lat="45.1022729796742" lon="10.039870438851201"><ele>35.5</ele><time>2026-04-25T05:10:42.998Z</time></trkpt><trkpt lat="45.1022078932348" lon="10.039840780840509"><ele>35.666666666666664</ele><time>2026-04-25T05:10:43.998Z</time></trkpt><trkpt lat="45.102098322948805" lon="10.03978194351138"><ele>35.833333333333336</ele><time>2026-04-25T05:10:45.998Z</time></trkpt><trkpt lat="45.10202569916395" lon="10.039747568654308"><ele>36.0</ele><time>2026-04-25T05:10:46.998Z</time></trkpt><trkpt lat="45.101964203692546" lon="10.039710613063674"><ele>36.00000000000001</ele><time>2026-04-25T05:10:47.998Z</time></trkpt><trkpt lat="45.10190308624976" lon="10.039674594344667"><ele>36.0</ele><time>2026-04-25T05:10:48.998Z</time></trkpt><trkpt lat="45.10184544647957" lon="10.039636643610292"><ele>36.0</ele><time>2026-04-25T05:10:50Z</time></trkpt><trkpt lat="45.101783206019896" lon="10.039589065885265"><ele>36.0</ele><time>2026-04-25T05:10:51Z</time></trkpt><trkpt lat="45.10172441009275" lon="10.039543993660798"><ele>36.0</ele><time>2026-04-25T05:10:52Z</time></trkpt><trkpt lat="45.10166583584274" lon="10.039497982006766"><ele>36.00000000000001</ele><time>2026-04-25T05:10:53Z</time></trkpt><trkpt lat="45.10160086825438" lon="10.039460195561958"><ele>36.0</ele><time>2026-04-25T05:10:54Z</time></trkpt><trkpt lat="45.101538281303164" lon="10.039421212566962"><ele>36.142857142857146</ele><time>2026-04-25T05:10:55Z</time></trkpt><trkpt lat="45.101475424358455" lon="10.039383909076879"><ele>36.285714285714285</ele><time>2026-04-25T05:10:56Z</time></trkpt><trkpt lat="45.10140954824374" lon="10.03934971759512"><ele>36.42857142857143</ele><time>2026-04-25T05:10:57Z</time></trkpt><trkpt lat="45.101344615946836" lon="10.039317720990796"><ele>36.57142857142857</ele><time>2026-04-25T05:10:58Z</time></trkpt><trkpt lat="45.10128316028639" lon="10.039278842948473"><ele>36.714285714285715</ele><time>2026-04-25T05:10:59Z</time></trkpt><trkpt lat="45.101221698374445" lon="10.039242439087266"><ele>36.85714285714286</ele><time>2026-04-25T05:11:00Z</time></trkpt><trkpt lat="45.10116293822548" lon="10.039208446874433"><ele>37.0</ele><time>2026-04-25T05:11:01Z</time></trkpt><trkpt lat="45.101104277620806" lon="10.039174269699185"><ele>37.0</ele><time>2026-04-25T05:11:02Z</time></trkpt><trkpt lat="45.10104067734166" lon="10.039142777711724"><ele>37.0</ele><time>2026-04-25T05:11:03Z</time></trkpt><trkpt lat="45.10092804654365" lon="10.03906404433809"><ele>37.0</ele><time>2026-04-25T05:11:05Z</time></trkpt><trkpt lat="45.10086980168678" lon="10.039026425618355"><ele>37.0</ele><time>2026-04-25T05:11:06Z</time></trkpt><trkpt lat="45.100806709774" lon="10.03898421148393"><ele>37.0</ele><time>2026-04-25T05:11:07Z</time></trkpt><trkpt lat="45.10069016001892" lon="10.038916512190166"><ele>37.142857142857146</ele><time>2026-04-25T05:11:09Z</time></trkpt><trkpt lat="45.10063107812623" lon="10.03887880271775"><ele>37.285714285714285</ele><time>2026-04-25T05:11:10Z</time></trkpt><trkpt lat="45.100571004469074" lon="10.03884373903731"><ele>37.42857142857143</ele><time>2026-04-25T05:11:11Z</time></trkpt><trkpt lat="45.100511716190404" lon="10.038805025058643"><ele>37.57142857142857</ele><time>2026-04-25T05:11:12Z</time></trkpt><trkpt lat="45.100453906869504" lon="10.038769390320912"><ele>37.714285714285715</ele><time>2026-04-25T05:11:13Z</time></trkpt><trkpt lat="45.10039421964048" lon="10.038733672919266"><ele>37.857142857142854</ele><time>2026-04-25T05:11:14Z</time></trkpt><trkpt lat="45.1002830029706" lon="10.038662457017562"><ele>38.0</ele><time>2026-04-25T05:11:16Z</time></trkpt><trkpt lat="45.10017170074589" lon="10.03857495438787"><ele>38.0</ele><time>2026-04-25T05:11:18Z</time></trkpt><trkpt lat="45.10011443450061" lon="10.038531732237995"><ele>38.0</ele><time>2026-04-25T05:11:19Z</time></trkpt><trkpt lat="45.100053674673475" lon="10.038479357764157"><ele>38.0</ele><time>2026-04-25T05:11:20Z</time></trkpt><trkpt lat="45.099990430915405" lon="10.038428865874609"><ele>38.0</ele><time>2026-04-25T05:11:21Z</time></trkpt><trkpt lat="45.09992600230722" lon="10.0383695837269"><ele>38.0</ele><time>2026-04-25T05:11:22Z</time></trkpt><trkpt lat="45.09986876049525" lon="10.038322987487035"><ele>38.0</ele><time>2026-04-25T05:11:23Z</time></trkpt><trkpt lat="45.09980715326535" lon="10.038270676541035"><ele>38.0</ele><time>2026-04-25T05:11:24Z</time></trkpt><trkpt lat="45.0997493397911" lon="10.038219957746527"><ele>37.714285714285715</ele><time>2026-04-25T05:11:25Z</time></trkpt><trkpt lat="45.09968662554417" lon="10.03817444971727"><ele>37.42857142857143</ele><time>2026-04-25T05:11:26Z</time></trkpt><trkpt lat="45.09962374085113" lon="10.038127295328483"><ele>37.142857142857146</ele><time>2026-04-25T05:11:27Z</time></trkpt><trkpt lat="45.09956791874877" lon="10.03807444531978"><ele>36.85714285714286</ele><time>2026-04-25T05:11:28Z</time></trkpt><trkpt lat="45.099508614760396" lon="10.038013026808954"><ele>36.57142857142857</ele><time>2026-04-25T05:11:29Z</time></trkpt><trkpt lat="45.09944710516462" lon="10.03795769455078"><ele>36.28571428571429</ele><time>2026-04-25T05:11:30Z</time></trkpt><trkpt lat="45.09938824121037" lon="10.037906660333272"><ele>36.0</ele><time>2026-04-25T05:11:31Z</time></trkpt><trkpt lat="45.09933130700499" lon="10.037862368577038"><ele>36.00000000000001</ele><time>2026-04-25T05:11:32Z</time></trkpt><trkpt lat="45.099271225021376" lon="10.037803488759424"><ele>36.0</ele><time>2026-04-25T05:11:33Z</time></trkpt><trkpt lat="45.09920932935668" lon="10.03775073783637"><ele>36.0</ele><time>2026-04-25T05:11:34Z</time></trkpt><trkpt lat="45.09915345335194" lon="10.037695970867162"><ele>36.0</ele><time>2026-04-25T05:11:35Z</time></trkpt><trkpt lat="45.09909790974165" lon="10.037637365842949"><ele>36.0</ele><time>2026-04-25T05:11:36Z</time></trkpt><trkpt lat="45.09904191092097" lon="10.037573492253058"><ele>36.00000000000001</ele><time>2026-04-25T05:11:37Z</time></trkpt><trkpt lat="45.098988068380415" lon="10.037510374440407"><ele>36.0</ele><time>2026-04-25T05:11:38Z</time></trkpt><trkpt lat="45.098933774206145" lon="10.037444606915361"><ele>35.714285714285715</ele><time>2026-04-25T05:11:39Z</time></trkpt><trkpt lat="45.09887859250402" lon="10.037382542662916"><ele>35.42857142857143</ele><time>2026-04-25T05:11:40Z</time></trkpt><trkpt lat="45.09882594641577" lon="10.037316320777768"><ele>35.14285714285714</ele><time>2026-04-25T05:11:41Z</time></trkpt><trkpt lat="45.09877012489225" lon="10.037255943414355"><ele>34.85714285714286</ele><time>2026-04-25T05:11:42Z</time></trkpt><trkpt lat="45.09871684724912" lon="10.037190430510167"><ele>34.57142857142857</ele><time>2026-04-25T05:11:43Z</time></trkpt><trkpt lat="45.09866208227975" lon="10.037126549721751"><ele>34.285714285714285</ele><time>2026-04-25T05:11:44Z</time></trkpt><trkpt lat="45.09860689405367" lon="10.037061015493597"><ele>34.0</ele><time>2026-04-25T05:11:45Z</time></trkpt><trkpt lat="45.09855373671258" lon="10.036998251931971"><ele>33.99999999999999</ele><time>2026-04-25T05:11:45.999Z</time></trkpt><trkpt lat="45.098500853960275" lon="10.036936152485277"><ele>34.0</ele><time>2026-04-25T05:11:46.999Z</time></trkpt><trkpt lat="45.09844479625953" lon="10.036872849758185"><ele>34.0</ele><time>2026-04-25T05:11:47.999Z</time></trkpt><trkpt lat="45.09839035336802" lon="10.036812471204863"><ele>34.0</ele><time>2026-04-25T05:11:48.999Z</time></trkpt><trkpt lat="45.098334699429174" lon="10.036756060969251"><ele>34.0</ele><time>2026-04-25T05:11:49.999Z</time></trkpt><trkpt lat="45.098277792439305" lon="10.036706304294817"><ele>33.99999999999999</ele><time>2026-04-25T05:11:50.999Z</time></trkpt><trkpt lat="45.09821886700314" lon="10.036661753179233"><ele>34.0</ele><time>2026-04-25T05:11:51.999Z</time></trkpt><trkpt lat="45.09815664923672" lon="10.036625329189016"><ele>34.57142857142857</ele><time>2026-04-25T05:11:52.999Z</time></trkpt><trkpt lat="45.09809619110728" lon="10.036591734471461"><ele>35.14285714285714</ele><time>2026-04-25T05:11:53.999Z</time></trkpt><trkpt lat="45.098035462253854" lon="10.036560064335509"><ele>35.71428571428571</ele><time>2026-04-25T05:11:54.999Z</time></trkpt><trkpt lat="45.097973125601335" lon="10.03652183981764"><ele>36.285714285714285</ele><time>2026-04-25T05:11:55.999Z</time></trkpt><trkpt lat="45.097915860721194" lon="10.03648399658628"><ele>36.85714285714286</ele><time>2026-04-25T05:11:56.999Z</time></trkpt><trkpt lat="45.09785862115406" lon="10.036441979402062"><ele>37.42857142857142</ele><time>2026-04-25T05:11:57.999Z</time></trkpt><trkpt lat="45.09780013603291" lon="10.036393176928131"><ele>38.0</ele><time>2026-04-25T05:11:58.999Z</time></trkpt><trkpt lat="45.09775031706094" lon="10.036333263005554"><ele>38.0</ele><time>2026-04-25T05:11:59.999Z</time></trkpt><trkpt lat="45.0977049521656" lon="10.036267475319"><ele>38.0</ele><time>2026-04-25T05:12:00.999Z</time></trkpt><trkpt lat="45.097658197913496" lon="10.036202308665617"><ele>38.0</ele><time>2026-04-25T05:12:01.999Z</time></trkpt><trkpt lat="45.0976096193138" lon="10.036134715914352"><ele>38.0</ele><time>2026-04-25T05:12:02.999Z</time></trkpt><trkpt lat="45.09755847486729" lon="10.036070338061853"><ele>38.0</ele><time>2026-04-25T05:12:03.999Z</time></trkpt><trkpt lat="45.09751165782378" lon="10.03600282695898"><ele>38.0</ele><time>2026-04-25T05:12:04.999Z</time></trkpt><trkpt lat="45.0974639839208" lon="10.035937181135196"><ele>38.0</ele><time>2026-04-25T05:12:05.999Z</time></trkpt><trkpt lat="45.09741787024734" lon="10.035864517891635"><ele>37.5</ele><time>2026-04-25T05:12:06.999Z</time></trkpt><trkpt lat="45.09737387938087" lon="10.035789632238547"><ele>37.0</ele><time>2026-04-25T05:12:07.999Z</time></trkpt><trkpt lat="45.097331287133684" lon="10.035717095536885"><ele>36.5</ele><time>2026-04-25T05:12:08.999Z</time></trkpt><trkpt lat="45.09729085163754" lon="10.035642669267498"><ele>36.0</ele><time>2026-04-25T05:12:09.999Z</time></trkpt><trkpt lat="45.09725585575863" lon="10.035565293446403"><ele>35.5</ele><time>2026-04-25T05:12:10.999Z</time></trkpt><trkpt lat="45.0972233830252" lon="10.035486324283319"><ele>35.0</ele><time>2026-04-25T05:12:11.999Z</time></trkpt><trkpt lat="45.09715657282976" lon="10.035342650856327"><ele>35.0</ele><time>2026-04-25T05:12:13.999Z</time></trkpt><trkpt lat="45.097101069083486" lon="10.03520449626292"><ele>35.0</ele><time>2026-04-25T05:12:15.999Z</time></trkpt><trkpt lat="45.09705987627443" lon="10.035094753954695"><ele>35.0</ele><time>2026-04-25T05:12:17.999Z</time></trkpt><trkpt lat="45.09709509470992" lon="10.034983412325781"><ele>35.0</ele><time>2026-04-25T05:12:20.999Z</time></trkpt><trkpt lat="45.09719573283807" lon="10.034981859784596"><ele>35.0</ele><time>2026-04-25T05:12:22.999Z</time></trkpt><trkpt lat="45.0972914379149" lon="10.034969732656135"><ele>35.2</ele><time>2026-04-25T05:12:24.999Z</time></trkpt><trkpt lat="45.09740456958175" lon="10.034951622477818"><ele>35.4</ele><time>2026-04-25T05:12:26.999Z</time></trkpt><trkpt lat="45.09752890047293" lon="10.034951175674529"><ele>35.6</ele><time>2026-04-25T05:12:28.999Z</time></trkpt><trkpt lat="45.09764959417964" lon="10.034925128698967"><ele>35.8</ele><time>2026-04-25T05:12:30.999Z</time></trkpt><trkpt lat="45.09771427307814" lon="10.034912058141831"><ele>36.0</ele><time>2026-04-25T05:12:31.999Z</time></trkpt><trkpt lat="45.09777966065137" lon="10.034905628738668"><ele>36.00000000000001</ele><time>2026-04-25T05:12:32.999Z</time></trkpt><trkpt lat="45.097845280096735" lon="10.034905433232064"><ele>36.0</ele><time>2026-04-25T05:12:33.999Z</time></trkpt><trkpt lat="45.09790972251674" lon="10.03490506525079"><ele>36.0</ele><time>2026-04-25T05:12:34.999Z</time></trkpt><trkpt lat="45.097975322738066" lon="10.034898463280038"><ele>36.0</ele><time>2026-04-25T05:12:35.999Z</time></trkpt><trkpt lat="45.09804334107118" lon="10.034886915296685"><ele>36.0</ele><time>2026-04-25T05:12:36.999Z</time></trkpt><trkpt lat="45.0981066559914" lon="10.034876682472545"><ele>36.00000000000001</ele><time>2026-04-25T05:12:37.999Z</time></trkpt><trkpt lat="45.098172532301916" lon="10.03486488038483"><ele>36.0</ele><time>2026-04-25T05:12:38.999Z</time></trkpt><trkpt lat="45.098240899173" lon="10.034855597276534"><ele>35.57142857142858</ele><time>2026-04-25T05:12:39.999Z</time></trkpt><trkpt lat="45.09830619023291" lon="10.034848224531492"><ele>35.142857142857146</ele><time>2026-04-25T05:12:40.998Z</time></trkpt><trkpt lat="45.09837220203679" lon="10.03484006351843"><ele>34.714285714285715</ele><time>2026-04-25T05:12:41.998Z</time></trkpt><trkpt lat="45.09843987380327" lon="10.034829141376743"><ele>34.28571428571429</ele><time>2026-04-25T05:12:42.998Z</time></trkpt><trkpt lat="45.0985059176515" lon="10.034816726806337"><ele>33.85714285714286</ele><time>2026-04-25T05:12:43.998Z</time></trkpt><trkpt lat="45.09857454957299" lon="10.034802916140524"><ele>33.42857142857143</ele><time>2026-04-25T05:12:44.998Z</time></trkpt><trkpt lat="45.09864309707295" lon="10.034794098445563"><ele>33.0</ele><time>2026-04-25T05:12:45.998Z</time></trkpt><trkpt lat="45.09871461923287" lon="10.034782890517075"><ele>33.0</ele><time>2026-04-25T05:12:46.998Z</time></trkpt><trkpt lat="45.09878460952424" lon="10.034768467134159"><ele>33.0</ele><time>2026-04-25T05:12:47.998Z</time></trkpt><trkpt lat="45.09885406726431" lon="10.034755858474067"><ele>33.0</ele><time>2026-04-25T05:12:48.998Z</time></trkpt><trkpt lat="45.09892291501405" lon="10.034745091564686"><ele>33.0</ele><time>2026-04-25T05:12:49.998Z</time></trkpt><trkpt lat="45.098992004615496" lon="10.03473544046957"><ele>33.0</ele><time>2026-04-25T05:12:50.998Z</time></trkpt><trkpt lat="45.09906049003442" lon="10.034724577869492"><ele>33.0</ele><time>2026-04-25T05:12:51.998Z</time></trkpt><trkpt lat="45.099128056563885" lon="10.03471105251165"><ele>33.0</ele><time>2026-04-25T05:12:52.998Z</time></trkpt><trkpt lat="45.09919635920048" lon="10.034703891422765"><ele>32.714285714285715</ele><time>2026-04-25T05:12:53.998Z</time></trkpt><trkpt lat="45.09926536045039" lon="10.034695524101405"><ele>32.42857142857143</ele><time>2026-04-25T05:12:55Z</time></trkpt><trkpt lat="45.099334487923876" lon="10.03468694530725"><ele>32.142857142857146</ele><time>2026-04-25T05:12:56Z</time></trkpt><trkpt lat="45.099403540517685" lon="10.034677807757925"><ele>31.857142857142858</ele><time>2026-04-25T05:12:57Z</time></trkpt><trkpt lat="45.09947207398907" lon="10.034665889977298"><ele>31.571428571428577</ele><time>2026-04-25T05:12:58Z</time></trkpt><trkpt lat="45.0995396168246" lon="10.034653963490154"><ele>31.28571428571429</ele><time>2026-04-25T05:12:59Z</time></trkpt><trkpt lat="45.09960799568367" lon="10.034644640666276"><ele>31.0</ele><time>2026-04-25T05:13:00Z</time></trkpt><trkpt lat="45.09967431774226" lon="10.034632447074637"><ele>31.0</ele><time>2026-04-25T05:13:01Z</time></trkpt><trkpt lat="45.09974106436593" lon="10.034615029687071"><ele>31.000000000000004</ele><time>2026-04-25T05:13:02Z</time></trkpt><trkpt lat="45.09980477393676" lon="10.034589041733511"><ele>31.0</ele><time>2026-04-25T05:13:03Z</time></trkpt><trkpt lat="45.09986758096803" lon="10.0345572639492"><ele>31.0</ele><time>2026-04-25T05:13:04Z</time></trkpt><trkpt lat="45.099931715520796" lon="10.034518419924419"><ele>31.000000000000004</ele><time>2026-04-25T05:13:05Z</time></trkpt><trkpt lat="45.099994047744126" lon="10.034474299859516"><ele>31.0</ele><time>2026-04-25T05:13:06Z</time></trkpt><trkpt lat="45.10005723526885" lon="10.034431377508387"><ele>31.0</ele><time>2026-04-25T05:13:07Z</time></trkpt><trkpt lat="45.10011980795323" lon="10.034388235929931"><ele>31.28571428571429</ele><time>2026-04-25T05:13:08Z</time></trkpt><trkpt lat="45.10018237937276" lon="10.034343183887739"><ele>31.571428571428577</ele><time>2026-04-25T05:13:09Z</time></trkpt><trkpt lat="45.10024484227045" lon="10.034301899414604"><ele>31.857142857142858</ele><time>2026-04-25T05:13:10Z</time></trkpt><trkpt lat="45.100309370644965" lon="10.034262861290458"><ele>32.142857142857146</ele><time>2026-04-25T05:13:11Z</time></trkpt><trkpt lat="45.10037427610076" lon="10.034221820867742"><ele>32.42857142857143</ele><time>2026-04-25T05:13:12Z</time></trkpt><trkpt lat="45.100437197962044" lon="10.034181887639066"><ele>32.714285714285715</ele><time>2026-04-25T05:13:13Z</time></trkpt><trkpt lat="45.100500547802525" lon="10.034143350618146"><ele>33.0</ele><time>2026-04-25T05:13:14Z</time></trkpt><trkpt lat="45.10056521394384" lon="10.034106091168075"><ele>33.0</ele><time>2026-04-25T05:13:15Z</time></trkpt><trkpt lat="45.100629087163654" lon="10.034065144461689"><ele>33.0</ele><time>2026-04-25T05:13:16Z</time></trkpt><trkpt lat="45.10069287860007" lon="10.034025341459285"><ele>33.0</ele><time>2026-04-25T05:13:17Z</time></trkpt><trkpt lat="45.10075588833289" lon="10.033985287148674"><ele>33.0</ele><time>2026-04-25T05:13:18Z</time></trkpt><trkpt lat="45.100819926802124" lon="10.033946339349427"><ele>33.0</ele><time>2026-04-25T05:13:19Z</time></trkpt><trkpt lat="45.10088455304599" lon="10.033905522232498"><ele>33.0</ele><time>2026-04-25T05:13:20Z</time></trkpt><trkpt lat="45.100948363999215" lon="10.033866040833237"><ele>33.0</ele><time>2026-04-25T05:13:21Z</time></trkpt><trkpt lat="45.10101258740941" lon="10.033827125413676"><ele>33.0</ele><time>2026-04-25T05:13:22Z</time></trkpt><trkpt lat="45.10107745417356" lon="10.033787733331508"><ele>33.0</ele><time>2026-04-25T05:13:23Z</time></trkpt><trkpt lat="45.10114192083494" lon="10.033747916371281"><ele>33.0</ele><time>2026-04-25T05:13:24Z</time></trkpt><trkpt lat="45.10120555626066" lon="10.03370579598631"><ele>33.0</ele><time>2026-04-25T05:13:25Z</time></trkpt><trkpt lat="45.1012697748205" lon="10.033665835840788"><ele>33.0</ele><time>2026-04-25T05:13:26Z</time></trkpt><trkpt lat="45.10133420133579" lon="10.033627011255255"><ele>33.0</ele><time>2026-04-25T05:13:27Z</time></trkpt><trkpt lat="45.10139822089941" lon="10.033587577762136"><ele>33.0</ele><time>2026-04-25T05:13:28Z</time></trkpt><trkpt lat="45.101462447501405" lon="10.033547662942446"><ele>33.0</ele><time>2026-04-25T05:13:29Z</time></trkpt><trkpt lat="45.10152603826157" lon="10.03351046848217"><ele>33.0</ele><time>2026-04-25T05:13:30Z</time></trkpt><trkpt lat="45.10159114222097" lon="10.03347220119584"><ele>33.0</ele><time>2026-04-25T05:13:31Z</time></trkpt><trkpt lat="45.101655596627005" lon="10.033433421131862"><ele>33.0</ele><time>2026-04-25T05:13:32Z</time></trkpt><trkpt lat="45.101719069050574" lon="10.033394189674143"><ele>33.0</ele><time>2026-04-25T05:13:33Z</time></trkpt><trkpt lat="45.10178199607767" lon="10.033354977175259"><ele>33.0</ele><time>2026-04-25T05:13:34Z</time></trkpt><trkpt lat="45.101845552906205" lon="10.03331774897378"><ele>33.0</ele><time>2026-04-25T05:13:35Z</time></trkpt><trkpt lat="45.10190944016729" lon="10.03327875958356"><ele>33.0</ele><time>2026-04-25T05:13:36Z</time></trkpt><trkpt lat="45.10197190560018" lon="10.033236689495665"><ele>33.0</ele><time>2026-04-25T05:13:37Z</time></trkpt><trkpt lat="45.10203466675509" lon="10.033194109371859"><ele>33.0</ele><time>2026-04-25T05:13:38Z</time></trkpt><trkpt lat="45.102096725461394" lon="10.033152054785857"><ele>33.0</ele><time>2026-04-25T05:13:39Z</time></trkpt><trkpt lat="45.10215802367711" lon="10.033104576628268"><ele>33.0</ele><time>2026-04-25T05:13:40Z</time></trkpt><trkpt lat="45.10221766568754" lon="10.033053082220336"><ele>33.0</ele><time>2026-04-25T05:13:41Z</time></trkpt><trkpt lat="45.10227400443752" lon="10.032991782441425"><ele>33.0</ele><time>2026-04-25T05:13:42Z</time></trkpt><trkpt lat="45.10232615461091" lon="10.03292544774031"><ele>33.0</ele><time>2026-04-25T05:13:43Z</time></trkpt><trkpt lat="45.10237581871232" lon="10.032854742991299"><ele>33.0</ele><time>2026-04-25T05:13:44Z</time></trkpt><trkpt lat="45.10242344680833" lon="10.032782891668367"><ele>33.0</ele><time>2026-04-25T05:13:45Z</time></trkpt><trkpt lat="45.102471750799836" lon="10.032708557962374"><ele>33.0</ele><time>2026-04-25T05:13:46Z</time></trkpt><trkpt lat="45.10251781781088" lon="10.0326350248053"><ele>33.0</ele><time>2026-04-25T05:13:47Z</time></trkpt><trkpt lat="45.10256430442946" lon="10.032562508816929"><ele>33.0</ele><time>2026-04-25T05:13:48Z</time></trkpt><trkpt lat="45.1026127295768" lon="10.03248878126312"><ele>33.0</ele><time>2026-04-25T05:13:48.999Z</time></trkpt><trkpt lat="45.10266029412317" lon="10.032416657528634"><ele>33.14285714285714</ele><time>2026-04-25T05:13:49.999Z</time></trkpt><trkpt lat="45.10270816983628" lon="10.032343559527746"><ele>33.285714285714285</ele><time>2026-04-25T05:13:50.999Z</time></trkpt><trkpt lat="45.10275448503161" lon="10.032267831175053"><ele>33.42857142857143</ele><time>2026-04-25T05:13:51.999Z</time></trkpt><trkpt lat="45.102799656059624" lon="10.032191258924227"><ele>33.57142857142857</ele><time>2026-04-25T05:13:52.999Z</time></trkpt><trkpt lat="45.10284485274801" lon="10.032117775694621"><ele>33.714285714285715</ele><time>2026-04-25T05:13:53.999Z</time></trkpt><trkpt lat="45.10289020252442" lon="10.03204149295571"><ele>33.857142857142854</ele><time>2026-04-25T05:13:54.999Z</time></trkpt><trkpt lat="45.10293406277056" lon="10.03196469849057"><ele>34.0</ele><time>2026-04-25T05:13:55.999Z</time></trkpt><trkpt lat="45.102976557817506" lon="10.031886976339338"><ele>33.99999999999999</ele><time>2026-04-25T05:13:56.999Z</time></trkpt><trkpt lat="45.10301869982767" lon="10.031808187944023"><ele>34.0</ele><time>2026-04-25T05:13:57.999Z</time></trkpt><trkpt lat="45.1030608664712" lon="10.03173068445873"><ele>34.0</ele><time>2026-04-25T05:13:58.999Z</time></trkpt><trkpt lat="45.10310514973049" lon="10.031654085208483"><ele>34.0</ele><time>2026-04-25T05:13:59.999Z</time></trkpt><trkpt lat="45.103149579393865" lon="10.031578128966745"><ele>34.0</ele><time>2026-04-25T05:14:00.999Z</time></trkpt><trkpt lat="45.103195895313156" lon="10.031500499476984"><ele>33.99999999999999</ele><time>2026-04-25T05:14:01.999Z</time></trkpt><trkpt lat="45.10324029894468" lon="10.03141944922334"><ele>34.0</ele><time>2026-04-25T05:14:02.999Z</time></trkpt><trkpt lat="45.10328811712673" lon="10.031337379636373"><ele>34.333333333333336</ele><time>2026-04-25T05:14:03.999Z</time></trkpt><trkpt lat="45.103337843577975" lon="10.03125106569445"><ele>34.66666666666667</ele><time>2026-04-25T05:14:04.999Z</time></trkpt><trkpt lat="45.10338796214312" lon="10.031163837027842"><ele>35.0</ele><time>2026-04-25T05:14:05.999Z</time></trkpt><trkpt lat="45.10343858083356" lon="10.031071704895673"><ele>35.333333333333336</ele><time>2026-04-25T05:14:06.999Z</time></trkpt><trkpt lat="45.1034913189191" lon="10.03097748642006"><ele>35.666666666666664</ele><time>2026-04-25T05:14:07.999Z</time></trkpt><trkpt lat="45.10354698342688" lon="10.030888113087995"><ele>36.0</ele><time>2026-04-25T05:14:08.999Z</time></trkpt><trkpt lat="45.10362031581371" lon="10.030822341755668"><ele>36.666666666666664</ele><time>2026-04-25T05:14:09.999Z</time></trkpt><trkpt lat="45.10369163576474" lon="10.030759804507898"><ele>37.333333333333336</ele><time>2026-04-25T05:14:10.999Z</time></trkpt><trkpt lat="45.103771525339695" lon="10.030696340501976"><ele>38.0</ele><time>2026-04-25T05:14:11.999Z</time></trkpt><trkpt lat="45.10384640642823" lon="10.030636582217696"><ele>38.66666666666667</ele><time>2026-04-25T05:14:12.999Z</time></trkpt><trkpt lat="45.10391419832505" lon="10.030560763801725"><ele>39.333333333333336</ele><time>2026-04-25T05:14:13.999Z</time></trkpt><trkpt lat="45.10398701046488" lon="10.030506181508082"><ele>40.0</ele><time>2026-04-25T05:14:14.999Z</time></trkpt><trkpt lat="45.10405785156292" lon="10.030448858460012"><ele>39.66666666666667</ele><time>2026-04-25T05:14:15.999Z</time></trkpt><trkpt lat="45.10412697883038" lon="10.030367278372884"><ele>39.333333333333336</ele><time>2026-04-25T05:14:16.999Z</time></trkpt><trkpt lat="45.10417657244729" lon="10.030298669424901"><ele>39.0</ele><time>2026-04-25T05:14:17.999Z</time></trkpt><trkpt lat="45.10426203904649" lon="10.030158037554793"><ele>38.666666666666664</ele><time>2026-04-25T05:14:19.999Z</time></trkpt><trkpt lat="45.10427926488057" lon="10.030063862786891"><ele>38.33333333333333</ele><time>2026-04-25T05:14:20.999Z</time></trkpt><trkpt lat="45.10427870331179" lon="10.029962935678775"><ele>38.0</ele><time>2026-04-25T05:14:21.999Z</time></trkpt><trkpt lat="45.10427583255415" lon="10.029863984642452"><ele>38.0</ele><time>2026-04-25T05:14:22.999Z</time></trkpt><trkpt lat="45.104270410785865" lon="10.029769248060239"><ele>38.0</ele><time>2026-04-25T05:14:23.999Z</time></trkpt><trkpt lat="45.10427049074674" lon="10.029589909184836"><ele>38.0</ele><time>2026-04-25T05:14:25.999Z</time></trkpt><trkpt lat="45.10427957002088" lon="10.029419853635392"><ele>38.0</ele><time>2026-04-25T05:14:27.999Z</time></trkpt><trkpt lat="45.10432275750093" lon="10.029264618368028"><ele>38.0</ele><time>2026-04-25T05:14:29.999Z</time></trkpt><trkpt lat="45.10434878587845" lon="10.029103394318545"><ele>37.83333333333333</ele><time>2026-04-25T05:14:31.999Z</time></trkpt><trkpt lat="45.10439676222316" lon="10.028962745655354"><ele>37.666666666666664</ele><time>2026-04-25T05:14:33.999Z</time></trkpt><trkpt lat="45.1044813772421" lon="10.028845773410849"><ele>37.5</ele><time>2026-04-25T05:14:35.999Z</time></trkpt><trkpt lat="45.10453833677163" lon="10.028800991508326"><ele>37.333333333333336</ele><time>2026-04-25T05:14:36.999Z</time></trkpt><trkpt lat="45.10459761867962" lon="10.028760336911056"><ele>37.16666666666667</ele><time>2026-04-25T05:14:37.999Z</time></trkpt><trkpt lat="45.10466820558422" lon="10.02875487477271"><ele>37.0</ele><time>2026-04-25T05:14:38.999Z</time></trkpt><trkpt lat="45.10472387467456" lon="10.028708024542171"><ele>37.0</ele><time>2026-04-25T05:14:39.999Z</time></trkpt><trkpt lat="45.10477945972372" lon="10.028663807086563"><ele>37.0</ele><time>2026-04-25T05:14:40.999Z</time></trkpt><trkpt lat="45.10483619315307" lon="10.028619852988854"><ele>37.0</ele><time>2026-04-25T05:14:41.999Z</time></trkpt><trkpt lat="45.10489532731382" lon="10.028574436165767"><ele>37.0</ele><time>2026-04-25T05:14:42.999Z</time></trkpt><trkpt lat="45.104953038246194" lon="10.028532222013714"><ele>37.0</ele><time>2026-04-25T05:14:43.999Z</time></trkpt><trkpt lat="45.10501314707555" lon="10.028491103109138"><ele>37.0</ele><time>2026-04-25T05:14:44.998Z</time></trkpt><trkpt lat="45.10507327780737" lon="10.02845294025747"><ele>37.0</ele><time>2026-04-25T05:14:45.998Z</time></trkpt><trkpt lat="45.10513268863812" lon="10.028418073025303"><ele>36.714285714285715</ele><time>2026-04-25T05:14:46.998Z</time></trkpt><trkpt lat="45.105184731821105" lon="10.028344978819248"><ele>36.42857142857143</ele><time>2026-04-25T05:14:47.998Z</time></trkpt><trkpt lat="45.10524868211942" lon="10.028312710654701"><ele>36.14285714285714</ele><time>2026-04-25T05:14:48.998Z</time></trkpt><trkpt lat="45.105311795604635" lon="10.028280671794498"><ele>35.85714285714286</ele><time>2026-04-25T05:14:49.998Z</time></trkpt><trkpt lat="45.10537448048705" lon="10.028245168534767"><ele>35.57142857142857</ele><time>2026-04-25T05:14:50.998Z</time></trkpt><trkpt lat="45.105437302337" lon="10.028211987968882"><ele>35.285714285714285</ele><time>2026-04-25T05:14:51.998Z</time></trkpt><trkpt lat="45.10549928692317" lon="10.028177125749123"><ele>35.0</ele><time>2026-04-25T05:14:52.998Z</time></trkpt><trkpt lat="45.10556056017363" lon="10.028143619669864"><ele>34.714285714285715</ele><time>2026-04-25T05:14:53.998Z</time></trkpt><trkpt lat="45.105622659328226" lon="10.02811006253736"><ele>34.42857142857143</ele><time>2026-04-25T05:14:54.998Z</time></trkpt><trkpt lat="45.10568484096639" lon="10.028077115675863"><ele>34.14285714285714</ele><time>2026-04-25T05:14:55.998Z</time></trkpt><trkpt lat="45.10574638155581" lon="10.028044196756321"><ele>33.85714285714286</ele><time>2026-04-25T05:14:56.998Z</time></trkpt><trkpt lat="45.10581144722339" lon="10.02801406547226"><ele>33.57142857142857</ele><time>2026-04-25T05:14:57.998Z</time></trkpt><trkpt lat="45.10587472257676" lon="10.027988232841178"><ele>33.285714285714285</ele><time>2026-04-25T05:14:58.998Z</time></trkpt><trkpt lat="45.105939813130064" lon="10.027962897715444"><ele>33.0</ele><time>2026-04-25T05:14:59.998Z</time></trkpt><trkpt lat="45.10600497404276" lon="10.027942054504908"><ele>33.0</ele><time>2026-04-25T05:15:01Z</time></trkpt><trkpt lat="45.106073884891735" lon="10.027983651680104"><ele>33.0</ele><time>2026-04-25T05:15:02Z</time></trkpt><trkpt lat="45.10613687513645" lon="10.027933655405075"><ele>33.0</ele><time>2026-04-25T05:15:03Z</time></trkpt><trkpt lat="45.106204701931674" lon="10.027937734753744"><ele>33.0</ele><time>2026-04-25T05:15:04Z</time></trkpt><trkpt lat="45.106270751924946" lon="10.027939417586882"><ele>33.0</ele><time>2026-04-25T05:15:05Z</time></trkpt><trkpt lat="45.106339379048" lon="10.02794129876382"><ele>33.0</ele><time>2026-04-25T05:15:06Z</time></trkpt><trkpt lat="45.10640717909611" lon="10.027940006099644"><ele>33.0</ele><time>2026-04-25T05:15:07Z</time></trkpt><trkpt lat="45.10647517057959" lon="10.027943383087148"><ele>33.0</ele><time>2026-04-25T05:15:08Z</time></trkpt><trkpt lat="45.1065429371499" lon="10.027945926332102"><ele>33.0</ele><time>2026-04-25T05:15:09Z</time></trkpt><trkpt lat="45.106609701927894" lon="10.027996739291229"><ele>33.0</ele><time>2026-04-25T05:15:10Z</time></trkpt><trkpt lat="45.10667799405608" lon="10.027999813819012"><ele>33.0</ele><time>2026-04-25T05:15:11Z</time></trkpt><trkpt lat="45.10674647353634" lon="10.028002491135936"><ele>33.0</ele><time>2026-04-25T05:15:12Z</time></trkpt><trkpt lat="45.10681444755641" lon="10.02800514869345"><ele>33.0</ele><time>2026-04-25T05:15:13Z</time></trkpt><trkpt lat="45.10688234917392" lon="10.02800780341894"><ele>33.0</ele><time>2026-04-25T05:15:14Z</time></trkpt><trkpt lat="45.106952079625444" lon="10.028010529647323"><ele>32.857142857142854</ele><time>2026-04-25T05:15:15Z</time></trkpt><trkpt lat="45.107020655563225" lon="10.028013210735692"><ele>32.714285714285715</ele><time>2026-04-25T05:15:16Z</time></trkpt><trkpt lat="45.10708890229296" lon="10.028015815508143"><ele>32.57142857142857</ele><time>2026-04-25T05:15:17Z</time></trkpt><trkpt lat="45.10715832007857" lon="10.02801807660445"><ele>32.42857142857143</ele><time>2026-04-25T05:15:18Z</time></trkpt><trkpt lat="45.10722726153582" lon="10.028020322186368"><ele>32.285714285714285</ele><time>2026-04-25T05:15:19Z</time></trkpt><trkpt lat="45.10729637500631" lon="10.028022573370535"><ele>32.14285714285714</ele><time>2026-04-25T05:15:20Z</time></trkpt><trkpt lat="45.107365807235894" lon="10.028024834936696"><ele>32.0</ele><time>2026-04-25T05:15:21Z</time></trkpt><trkpt lat="45.10743561152717" lon="10.028026942828385"><ele>32.0</ele><time>2026-04-25T05:15:22Z</time></trkpt><trkpt lat="45.107504308973105" lon="10.02802877164548"><ele>31.999999999999996</ele><time>2026-04-25T05:15:23Z</time></trkpt><trkpt lat="45.10757320626118" lon="10.028030605786672"><ele>32.0</ele><time>2026-04-25T05:15:24Z</time></trkpt><trkpt lat="45.10764220416636" lon="10.028032442606479"><ele>32.0</ele><time>2026-04-25T05:15:25Z</time></trkpt><trkpt lat="45.10771110499567" lon="10.028034276838124"><ele>31.999999999999996</ele><time>2026-04-25T05:15:26Z</time></trkpt><trkpt lat="45.10778177783775" lon="10.02803615824471"><ele>32.0</ele><time>2026-04-25T05:15:27Z</time></trkpt><trkpt lat="45.107849815148796" lon="10.02803796948873"><ele>32.0</ele><time>2026-04-25T05:15:28Z</time></trkpt><trkpt lat="45.107918965385664" lon="10.028039810361221"><ele>32.0</ele><time>2026-04-25T05:15:29Z</time></trkpt><trkpt lat="45.107987375060155" lon="10.028041631519995"><ele>31.999999999999996</ele><time>2026-04-25T05:15:30Z</time></trkpt><trkpt lat="45.10805600720314" lon="10.02804345860117"><ele>32.0</ele><time>2026-04-25T05:15:31Z</time></trkpt><trkpt lat="45.10812484274022" lon="10.028045137689737"><ele>32.0</ele><time>2026-04-25T05:15:32Z</time></trkpt><trkpt lat="45.108193552917704" lon="10.028045988386735"><ele>31.999999999999996</ele><time>2026-04-25T05:15:33Z</time></trkpt><trkpt lat="45.10825956023448" lon="10.02804507793952"><ele>32.0</ele><time>2026-04-25T05:15:34Z</time></trkpt><trkpt lat="45.108328787661996" lon="10.028042764022716"><ele>32.0</ele><time>2026-04-25T05:15:35Z</time></trkpt><trkpt lat="45.10839755959228" lon="10.028037736313813"><ele>32.14285714285714</ele><time>2026-04-25T05:15:36Z</time></trkpt><trkpt lat="45.10846797846964" lon="10.028025547866955"><ele>32.285714285714285</ele><time>2026-04-25T05:15:37Z</time></trkpt><trkpt lat="45.108535516662926" lon="10.02801111178313"><ele>32.42857142857143</ele><time>2026-04-25T05:15:38Z</time></trkpt><trkpt lat="45.10860467480021" lon="10.027993641880304"><ele>32.57142857142857</ele><time>2026-04-25T05:15:39Z</time></trkpt><trkpt lat="45.10867220200457" lon="10.027974995335486"><ele>32.714285714285715</ele><time>2026-04-25T05:15:40Z</time></trkpt><trkpt lat="45.10874009055102" lon="10.027954447478374"><ele>32.857142857142854</ele><time>2026-04-25T05:15:41Z</time></trkpt><trkpt lat="45.108806962115295" lon="10.027934207437525"><ele>33.0</ele><time>2026-04-25T05:15:42Z</time></trkpt><trkpt lat="45.1088750695564" lon="10.027912952298175"><ele>33.0</ele><time>2026-04-25T05:15:43Z</time></trkpt><trkpt lat="45.108941691641995" lon="10.02789195223748"><ele>33.0</ele><time>2026-04-25T05:15:44Z</time></trkpt><trkpt lat="45.10900946547079" lon="10.027870589106733"><ele>33.0</ele><time>2026-04-25T05:15:45Z</time></trkpt><trkpt lat="45.10907657594277" lon="10.027848287596967"><ele>33.0</ele><time>2026-04-25T05:15:46Z</time></trkpt><trkpt lat="45.10914458322739" lon="10.027825574626233"><ele>33.0</ele><time>2026-04-25T05:15:47Z</time></trkpt><trkpt lat="45.1092136220812" lon="10.027802517178344"><ele>33.0</ele><time>2026-04-25T05:15:48Z</time></trkpt><trkpt lat="45.10928068294101" lon="10.027780120294787"><ele>33.0</ele><time>2026-04-25T05:15:49Z</time></trkpt><trkpt lat="45.10934896013746" lon="10.027757317210112"><ele>32.857142857142854</ele><time>2026-04-25T05:15:50Z</time></trkpt><trkpt lat="45.10941629501732" lon="10.027734828811619"><ele>32.714285714285715</ele><time>2026-04-25T05:15:51Z</time></trkpt><trkpt lat="45.109484347437494" lon="10.02771210077959"><ele>32.57142857142857</ele><time>2026-04-25T05:15:51.999Z</time></trkpt><trkpt lat="45.109551730562686" lon="10.027689596306052"><ele>32.42857142857143</ele><time>2026-04-25T05:15:52.999Z</time></trkpt><trkpt lat="45.10961894652316" lon="10.02766714759138"><ele>32.285714285714285</ele><time>2026-04-25T05:15:53.999Z</time></trkpt><trkpt lat="45.109685541567146" lon="10.027644906306545"><ele>32.14285714285714</ele><time>2026-04-25T05:15:54.999Z</time></trkpt><trkpt lat="45.10975685424788" lon="10.027621089385047"><ele>32.0</ele><time>2026-04-25T05:15:55.999Z</time></trkpt><trkpt lat="45.10982060166093" lon="10.027599638086372"><ele>32.0</ele><time>2026-04-25T05:15:56.999Z</time></trkpt><trkpt lat="45.109885743327474" lon="10.027577530659432"><ele>31.999999999999996</ele><time>2026-04-25T05:15:57.999Z</time></trkpt><trkpt lat="45.10995102304214" lon="10.027555376347417"><ele>32.0</ele><time>2026-04-25T05:15:58.999Z</time></trkpt><trkpt lat="45.110016150826254" lon="10.027533273609173"><ele>32.0</ele><time>2026-04-25T05:15:59.999Z</time></trkpt><trkpt lat="45.1100799705108" lon="10.027511614810228"><ele>31.999999999999996</ele><time>2026-04-25T05:16:00.999Z</time></trkpt><trkpt lat="45.11014703742007" lon="10.027487764956547"><ele>32.0</ele><time>2026-04-25T05:16:01.999Z</time></trkpt><trkpt lat="45.1102132900952" lon="10.027463282849324"><ele>32.0</ele><time>2026-04-25T05:16:02.999Z</time></trkpt><trkpt lat="45.11028118208441" lon="10.027438193280165"><ele>32.14285714285714</ele><time>2026-04-25T05:16:03.999Z</time></trkpt><trkpt lat="45.11034754401523" lon="10.027412955687307"><ele>32.285714285714285</ele><time>2026-04-25T05:16:04.999Z</time></trkpt><trkpt lat="45.110414587936326" lon="10.02738687418691"><ele>32.42857142857143</ele><time>2026-04-25T05:16:05.999Z</time></trkpt><trkpt lat="45.110482149133006" lon="10.02736059121928"><ele>32.57142857142857</ele><time>2026-04-25T05:16:06.999Z</time></trkpt><trkpt lat="45.110545700427096" lon="10.027311782837453"><ele>32.714285714285715</ele><time>2026-04-25T05:16:07.999Z</time></trkpt><trkpt lat="45.1106130091313" lon="10.027285785618146"><ele>32.857142857142854</ele><time>2026-04-25T05:16:08.999Z</time></trkpt><trkpt lat="45.11068545674102" lon="10.027278599857421"><ele>33.0</ele><time>2026-04-25T05:16:09.999Z</time></trkpt><trkpt lat="45.110752824200304" lon="10.027248081751715"><ele>33.285714285714285</ele><time>2026-04-25T05:16:10.999Z</time></trkpt><trkpt lat="45.11081860554654" lon="10.027216928012336"><ele>33.57142857142857</ele><time>2026-04-25T05:16:11.999Z</time></trkpt><trkpt lat="45.11088509588156" lon="10.027183909241783"><ele>33.85714285714286</ele><time>2026-04-25T05:16:12.999Z</time></trkpt><trkpt lat="45.11095169699368" lon="10.027149603739941"><ele>34.14285714285714</ele><time>2026-04-25T05:16:13.999Z</time></trkpt><trkpt lat="45.11101812096152" lon="10.027115215302661"><ele>34.42857142857143</ele><time>2026-04-25T05:16:14.999Z</time></trkpt><trkpt lat="45.111083674978055" lon="10.027080720034826"><ele>34.714285714285715</ele><time>2026-04-25T05:16:15.999Z</time></trkpt><trkpt lat="45.11115028085326" lon="10.027045671348779"><ele>35.0</ele><time>2026-04-25T05:16:16.999Z</time></trkpt><trkpt lat="45.111215479089694" lon="10.02701136340168"><ele>35.0</ele><time>2026-04-25T05:16:17.999Z</time></trkpt><trkpt lat="45.111282935509415" lon="10.026975508415424"><ele>35.0</ele><time>2026-04-25T05:16:18.999Z</time></trkpt><trkpt lat="45.11134849808027" lon="10.026940236686498"><ele>35.0</ele><time>2026-04-25T05:16:19.999Z</time></trkpt><trkpt lat="45.11141373635243" lon="10.02690513948332"><ele>35.0</ele><time>2026-04-25T05:16:20.999Z</time></trkpt><trkpt lat="45.111479772788655" lon="10.026869612881702"><ele>35.0</ele><time>2026-04-25T05:16:21.999Z</time></trkpt><trkpt lat="45.111545647057966" lon="10.026834173450121"><ele>35.0</ele><time>2026-04-25T05:16:22.999Z</time></trkpt><trkpt lat="45.11161075682033" lon="10.026798646906208"><ele>35.0</ele><time>2026-04-25T05:16:23.999Z</time></trkpt><trkpt lat="45.11167678061105" lon="10.026762487744609"><ele>34.57142857142857</ele><time>2026-04-25T05:16:24.999Z</time></trkpt><trkpt lat="45.111742385165975" lon="10.026726558225578"><ele>34.14285714285714</ele><time>2026-04-25T05:16:25.999Z</time></trkpt><trkpt lat="45.111807478979955" lon="10.026690831467985"><ele>33.714285714285715</ele><time>2026-04-25T05:16:26.999Z</time></trkpt><trkpt lat="45.1118728492903" lon="10.026654161859753"><ele>33.285714285714285</ele><time>2026-04-25T05:16:27.999Z</time></trkpt><trkpt lat="45.111937990180245" lon="10.026617620980534"><ele>32.857142857142854</ele><time>2026-04-25T05:16:28.999Z</time></trkpt><trkpt lat="45.11200382738773" lon="10.026580689506204"><ele>32.42857142857143</ele><time>2026-04-25T05:16:29.999Z</time></trkpt><trkpt lat="45.112068932289176" lon="10.026544168883351"><ele>32.0</ele><time>2026-04-25T05:16:30.999Z</time></trkpt><trkpt lat="45.11213432107329" lon="10.026507488891513"><ele>32.0</ele><time>2026-04-25T05:16:31.999Z</time></trkpt><trkpt lat="45.11219905204135" lon="10.026471177968027"><ele>31.999999999999996</ele><time>2026-04-25T05:16:32.999Z</time></trkpt><trkpt lat="45.11226467751354" lon="10.026434365372761"><ele>32.0</ele><time>2026-04-25T05:16:33.999Z</time></trkpt><trkpt lat="45.11232861963626" lon="10.026398956398655"><ele>32.0</ele><time>2026-04-25T05:16:34.999Z</time></trkpt><trkpt lat="45.11239382600168" lon="10.026363712193444"><ele>31.999999999999996</ele><time>2026-04-25T05:16:35.999Z</time></trkpt><trkpt lat="45.11245982915512" lon="10.026328037344477"><ele>32.0</ele><time>2026-04-25T05:16:36.999Z</time></trkpt><trkpt lat="45.11252425863936" lon="10.026293490473499"><ele>32.0</ele><time>2026-04-25T05:16:37.999Z</time></trkpt><trkpt lat="45.11259052221756" lon="10.026260195059765"><ele>32.0</ele><time>2026-04-25T05:16:38.999Z</time></trkpt><trkpt lat="45.112656440360695" lon="10.026229338834728"><ele>31.999999999999996</ele><time>2026-04-25T05:16:39.999Z</time></trkpt><trkpt lat="45.112722187027174" lon="10.02620199164243"><ele>32.0</ele><time>2026-04-25T05:16:40.999Z</time></trkpt><trkpt lat="45.1127898151942" lon="10.026176206812693"><ele>32.0</ele><time>2026-04-25T05:16:41.999Z</time></trkpt><trkpt lat="45.11285680057523" lon="10.026151725479666"><ele>31.999999999999996</ele><time>2026-04-25T05:16:42.999Z</time></trkpt><trkpt lat="45.11292513392241" lon="10.026128009173616"><ele>32.0</ele><time>2026-04-25T05:16:43.999Z</time></trkpt><trkpt lat="45.11299523861369" lon="10.026103678073216"><ele>32.0</ele><time>2026-04-25T05:16:44.999Z</time></trkpt><trkpt lat="45.11306184731849" lon="10.02608146449479"><ele>32.0</ele><time>2026-04-25T05:16:45.999Z</time></trkpt><trkpt lat="45.11313177490807" lon="10.026058540718624"><ele>31.999999999999996</ele><time>2026-04-25T05:16:46.999Z</time></trkpt><trkpt lat="45.113200310549885" lon="10.026036925981726"><ele>32.0</ele><time>2026-04-25T05:16:47.998Z</time></trkpt><trkpt lat="45.11326865481089" lon="10.026015773293413"><ele>32.0</ele><time>2026-04-25T05:16:48.998Z</time></trkpt><trkpt lat="45.11333772457968" lon="10.025994396074276"><ele>31.999999999999996</ele><time>2026-04-25T05:16:49.998Z</time></trkpt><trkpt lat="45.113406776415964" lon="10.025973646389634"><ele>32.0</ele><time>2026-04-25T05:16:50.998Z</time></trkpt><trkpt lat="45.113475642163365" lon="10.025953508901454"><ele>32.0</ele><time>2026-04-25T05:16:51.998Z</time></trkpt><trkpt lat="45.11354351288425" lon="10.025933662327292"><ele>32.14285714285714</ele><time>2026-04-25T05:16:52.998Z</time></trkpt><trkpt lat="45.11360912945939" lon="10.025913058489452"><ele>32.285714285714285</ele><time>2026-04-25T05:16:53.998Z</time></trkpt><trkpt lat="45.11367268619211" lon="10.02589120833058"><ele>32.42857142857143</ele><time>2026-04-25T05:16:54.998Z</time></trkpt><trkpt lat="45.11373617985566" lon="10.0258693798123"><ele>32.57142857142857</ele><time>2026-04-25T05:16:55.998Z</time></trkpt><trkpt lat="45.11380486925177" lon="10.02584772751299"><ele>32.714285714285715</ele><time>2026-04-25T05:16:56.998Z</time></trkpt><trkpt lat="45.11387735576262" lon="10.025824930786518"><ele>32.857142857142854</ele><time>2026-04-25T05:16:57.998Z</time></trkpt><trkpt lat="45.11394875086155" lon="10.025802477269309"><ele>33.0</ele><time>2026-04-25T05:16:58.998Z</time></trkpt><trkpt lat="45.11402017706929" lon="10.025780013990293"><ele>32.714285714285715</ele><time>2026-04-25T05:16:59.998Z</time></trkpt><trkpt lat="45.11409184649084" lon="10.025757474219148"><ele>32.42857142857143</ele><time>2026-04-25T05:17:00.998Z</time></trkpt><trkpt lat="45.11416418455981" lon="10.025734724181389"><ele>32.142857142857146</ele><time>2026-04-25T05:17:01.998Z</time></trkpt><trkpt lat="45.11423606653955" lon="10.025712117542755"><ele>31.857142857142858</ele><time>2026-04-25T05:17:02.998Z</time></trkpt><trkpt lat="45.11430688689951" lon="10.02568984479871"><ele>31.571428571428577</ele><time>2026-04-25T05:17:03.998Z</time></trkpt><trkpt lat="45.11437727145086" lon="10.025667709120002"><ele>31.28571428571429</ele><time>2026-04-25T05:17:04.998Z</time></trkpt><trkpt lat="45.114447066280086" lon="10.025645758899195"><ele>31.0</ele><time>2026-04-25T05:17:06Z</time></trkpt><trkpt lat="45.114516766121966" lon="10.02562383855862"><ele>31.0</ele><time>2026-04-25T05:17:07Z</time></trkpt><trkpt lat="45.11458601773975" lon="10.025602059172375"><ele>31.000000000000004</ele><time>2026-04-25T05:17:08Z</time></trkpt><trkpt lat="45.114655877914615" lon="10.025579200520424"><ele>31.0</ele><time>2026-04-25T05:17:09Z</time></trkpt><trkpt lat="45.11472364260151" lon="10.025555214539024"><ele>31.0</ele><time>2026-04-25T05:17:10Z</time></trkpt><trkpt lat="45.114792144956546" lon="10.025530273526119"><ele>31.000000000000004</ele><time>2026-04-25T05:17:11Z</time></trkpt><trkpt lat="45.11486015933398" lon="10.025504933886713"><ele>31.0</ele><time>2026-04-25T05:17:12Z</time></trkpt><trkpt lat="45.11492859089032" lon="10.02547891037505"><ele>31.0</ele><time>2026-04-25T05:17:13Z</time></trkpt><trkpt lat="45.114995946482665" lon="10.025452930457783"><ele>31.0</ele><time>2026-04-25T05:17:14Z</time></trkpt><trkpt lat="45.115064131196704" lon="10.025426630582672"><ele>31.000000000000004</ele><time>2026-04-25T05:17:15Z</time></trkpt><trkpt lat="45.11513126184301" lon="10.025400737269582"><ele>31.0</ele><time>2026-04-25T05:17:16Z</time></trkpt><trkpt lat="45.115198380652416" lon="10.025374848681288"><ele>31.0</ele><time>2026-04-25T05:17:17Z</time></trkpt><trkpt lat="45.1152658262286" lon="10.025348833894894"><ele>31.000000000000004</ele><time>2026-04-25T05:17:18Z</time></trkpt><trkpt lat="45.11533414405682" lon="10.02532248264932"><ele>31.0</ele><time>2026-04-25T05:17:19Z</time></trkpt><trkpt lat="45.11540093762488" lon="10.025296719504736"><ele>31.0</ele><time>2026-04-25T05:17:20Z</time></trkpt><trkpt lat="45.11546800210805" lon="10.025269718687763"><ele>31.0</ele><time>2026-04-25T05:17:21Z</time></trkpt><trkpt lat="45.11553469486046" lon="10.025241657985113"><ele>31.000000000000004</ele><time>2026-04-25T05:17:22Z</time></trkpt><trkpt lat="45.11560029196931" lon="10.025213087499935"><ele>31.0</ele><time>2026-04-25T05:17:23Z</time></trkpt><trkpt lat="45.11566738956335" lon="10.025173442240554"><ele>31.0</ele><time>2026-04-25T05:17:24Z</time></trkpt><trkpt lat="45.11573107945634" lon="10.025124160399072"><ele>31.000000000000004</ele><time>2026-04-25T05:17:25Z</time></trkpt><trkpt lat="45.115789466875825" lon="10.025062742499076"><ele>31.0</ele><time>2026-04-25T05:17:26Z</time></trkpt><trkpt lat="45.11583018604281" lon="10.024975564947814"><ele>31.0</ele><time>2026-04-25T05:17:27Z</time></trkpt><trkpt lat="45.115889136690235" lon="10.024912792731715"><ele>31.142857142857146</ele><time>2026-04-25T05:17:28Z</time></trkpt><trkpt lat="45.1159136469646" lon="10.024813057741763"><ele>31.28571428571429</ele><time>2026-04-25T05:17:29Z</time></trkpt><trkpt lat="45.115962761172014" lon="10.024735533788014"><ele>31.42857142857143</ele><time>2026-04-25T05:17:30Z</time></trkpt><trkpt lat="45.11599676415292" lon="10.024647767731294"><ele>31.57142857142857</ele><time>2026-04-25T05:17:31Z</time></trkpt><trkpt lat="45.11603129740163" lon="10.024555748570428"><ele>31.71428571428571</ele><time>2026-04-25T05:17:32Z</time></trkpt><trkpt lat="45.116064124401575" lon="10.024467379326788"><ele>31.857142857142854</ele><time>2026-04-25T05:17:33Z</time></trkpt><trkpt lat="45.116097278733804" lon="10.02437812902884"><ele>32.0</ele><time>2026-04-25T05:17:34Z</time></trkpt><trkpt lat="45.11613081643805" lon="10.02428784673271"><ele>32.0</ele><time>2026-04-25T05:17:35Z</time></trkpt><trkpt lat="45.11616343129734" lon="10.02420004875505"><ele>31.999999999999996</ele><time>2026-04-25T05:17:36Z</time></trkpt><trkpt lat="45.11619683053903" lon="10.024110138973548"><ele>32.0</ele><time>2026-04-25T05:17:37Z</time></trkpt><trkpt lat="45.11621129688504" lon="10.024008912205803"><ele>32.0</ele><time>2026-04-25T05:17:38Z</time></trkpt><trkpt lat="45.11624666608804" lon="10.023918634322495"><ele>31.999999999999996</ele><time>2026-04-25T05:17:39Z</time></trkpt><trkpt lat="45.116279331441035" lon="10.023831001320938"><ele>32.0</ele><time>2026-04-25T05:17:40Z</time></trkpt><trkpt lat="45.1163132483062" lon="10.023741994675046"><ele>32.0</ele><time>2026-04-25T05:17:41Z</time></trkpt><trkpt lat="45.11634776345454" lon="10.02365537622269"><ele>32.0</ele><time>2026-04-25T05:17:42Z</time></trkpt><trkpt lat="45.11638322765451" lon="10.023570775790352"><ele>31.999999999999996</ele><time>2026-04-25T05:17:43Z</time></trkpt><trkpt lat="45.116421445655554" lon="10.023486242344735"><ele>32.0</ele><time>2026-04-25T05:17:44Z</time></trkpt><trkpt lat="45.116456845708214" lon="10.023401417740017"><ele>32.0</ele><time>2026-04-25T05:17:45Z</time></trkpt><trkpt lat="45.11649517384582" lon="10.023319815022703"><ele>31.999999999999996</ele><time>2026-04-25T05:17:46Z</time></trkpt><trkpt lat="45.11653624270364" lon="10.023241866847705"><ele>32.0</ele><time>2026-04-25T05:17:47Z</time></trkpt><trkpt lat="45.11658043649035" lon="10.02316492059408"><ele>32.0</ele><time>2026-04-25T05:17:48Z</time></trkpt><trkpt lat="45.116622633271355" lon="10.023086228858833"><ele>32.14285714285714</ele><time>2026-04-25T05:17:49Z</time></trkpt><trkpt lat="45.116665439237536" lon="10.023007559107139"><ele>32.285714285714285</ele><time>2026-04-25T05:17:50Z</time></trkpt><trkpt lat="45.11670743984286" lon="10.022930718915422"><ele>32.42857142857143</ele><time>2026-04-25T05:17:51Z</time></trkpt><trkpt lat="45.11675054245161" lon="10.022854760838545"><ele>32.57142857142857</ele><time>2026-04-25T05:17:52Z</time></trkpt><trkpt lat="45.11679265786219" lon="10.022779953093407"><ele>32.714285714285715</ele><time>2026-04-25T05:17:53Z</time></trkpt><trkpt lat="45.11683924923643" lon="10.022704878637098"><ele>32.857142857142854</ele><time>2026-04-25T05:17:54Z</time></trkpt><trkpt lat="45.116903925823586" lon="10.022659560982849"><ele>33.0</ele><time>2026-04-25T05:17:55Z</time></trkpt><trkpt lat="45.11695094748897" lon="10.022590211238919"><ele>33.0</ele><time>2026-04-25T05:17:56Z</time></trkpt><trkpt lat="45.11700051397781" lon="10.022523160341525"><ele>33.0</ele><time>2026-04-25T05:17:57Z</time></trkpt><trkpt lat="45.117051617512224" lon="10.022456132772756"><ele>33.0</ele><time>2026-04-25T05:17:57.999Z</time></trkpt><trkpt lat="45.11710416795032" lon="10.022395727094612"><ele>33.0</ele><time>2026-04-25T05:17:58.999Z</time></trkpt><trkpt lat="45.117158842198236" lon="10.02233314067556"><ele>33.0</ele><time>2026-04-25T05:17:59.999Z</time></trkpt><trkpt lat="45.117213510439406" lon="10.022270561041175"><ele>33.0</ele><time>2026-04-25T05:18:00.999Z</time></trkpt><trkpt lat="45.11726719740938" lon="10.02220827227188"><ele>33.0</ele><time>2026-04-25T05:18:01.999Z</time></trkpt><trkpt lat="45.11732102465136" lon="10.022144647591942"><ele>33.0</ele><time>2026-04-25T05:18:02.999Z</time></trkpt><trkpt lat="45.11737512010161" lon="10.02208070547432"><ele>33.0</ele><time>2026-04-25T05:18:03.999Z</time></trkpt><trkpt lat="45.11742911698725" lon="10.022016879983475"><ele>33.0</ele><time>2026-04-25T05:18:04.999Z</time></trkpt><trkpt lat="45.11748212982355" lon="10.02195421787897"><ele>33.0</ele><time>2026-04-25T05:18:05.999Z</time></trkpt><trkpt lat="45.117536548147505" lon="10.021889894266138"><ele>33.0</ele><time>2026-04-25T05:18:06.999Z</time></trkpt><trkpt lat="45.11759056845938" lon="10.021826041228397"><ele>33.0</ele><time>2026-04-25T05:18:07.999Z</time></trkpt><trkpt lat="45.11764523041634" lon="10.021761429656909"><ele>33.0</ele><time>2026-04-25T05:18:08.999Z</time></trkpt><trkpt lat="45.117698808295884" lon="10.021698173096132"><ele>32.857142857142854</ele><time>2026-04-25T05:18:09.999Z</time></trkpt><trkpt lat="45.117753769126175" lon="10.021634402457353"><ele>32.714285714285715</ele><time>2026-04-25T05:18:10.999Z</time></trkpt><trkpt lat="45.11780775790699" lon="10.02157179271129"><ele>32.57142857142857</ele><time>2026-04-25T05:18:11.999Z</time></trkpt><trkpt lat="45.11786130480758" lon="10.021510335504813"><ele>32.42857142857143</ele><time>2026-04-25T05:18:12.999Z</time></trkpt><trkpt lat="45.11791505243664" lon="10.021448647920158"><ele>32.285714285714285</ele><time>2026-04-25T05:18:13.999Z</time></trkpt><trkpt lat="45.117969183990354" lon="10.021386030354705"><ele>32.14285714285714</ele><time>2026-04-25T05:18:14.999Z</time></trkpt><trkpt lat="45.118023501198074" lon="10.021321842776421"><ele>32.0</ele><time>2026-04-25T05:18:15.999Z</time></trkpt><trkpt lat="45.11807652737516" lon="10.02125783588051"><ele>32.0</ele><time>2026-04-25T05:18:16.999Z</time></trkpt><trkpt lat="45.11812945632809" lon="10.021192972398898"><ele>31.999999999999996</ele><time>2026-04-25T05:18:17.999Z</time></trkpt><trkpt lat="45.11818267097192" lon="10.021126982677716"><ele>32.0</ele><time>2026-04-25T05:18:18.999Z</time></trkpt><trkpt lat="45.11823498884714" lon="10.021060527397758"><ele>32.0</ele><time>2026-04-25T05:18:19.999Z</time></trkpt><trkpt lat="45.11828719287382" lon="10.0209930326161"><ele>31.999999999999996</ele><time>2026-04-25T05:18:20.999Z</time></trkpt><trkpt lat="45.11833669026945" lon="10.020925560533538"><ele>32.0</ele><time>2026-04-25T05:18:21.999Z</time></trkpt><trkpt lat="45.11838723897296" lon="10.020853886056697"><ele>32.0</ele><time>2026-04-25T05:18:22.999Z</time></trkpt><trkpt lat="45.11843626060794" lon="10.020783125119976"><ele>32.14285714285714</ele><time>2026-04-25T05:18:23.999Z</time></trkpt><trkpt lat="45.118485333374686" lon="10.020711287223287"><ele>32.285714285714285</ele><time>2026-04-25T05:18:24.999Z</time></trkpt><trkpt lat="45.118534035072585" lon="10.020639992288805"><ele>32.42857142857143</ele><time>2026-04-25T05:18:25.999Z</time></trkpt><trkpt lat="45.11858428608868" lon="10.020566240612666"><ele>32.57142857142857</ele><time>2026-04-25T05:18:26.999Z</time></trkpt><trkpt lat="45.11863279419485" lon="10.02049504232781"><ele>32.714285714285715</ele><time>2026-04-25T05:18:27.999Z</time></trkpt><trkpt lat="45.118682188076114" lon="10.020422506853249"><ele>32.857142857142854</ele><time>2026-04-25T05:18:28.999Z</time></trkpt><trkpt lat="45.118731543402035" lon="10.020349929145274"><ele>33.0</ele><time>2026-04-25T05:18:29.999Z</time></trkpt><trkpt lat="45.11878052967211" lon="10.020277894497058"><ele>33.0</ele><time>2026-04-25T05:18:30.999Z</time></trkpt><trkpt lat="45.11883069380854" lon="10.020204127749386"><ele>33.0</ele><time>2026-04-25T05:18:31.999Z</time></trkpt><trkpt lat="45.118879408513564" lon="10.020132492157193"><ele>33.0</ele><time>2026-04-25T05:18:32.999Z</time></trkpt><trkpt lat="45.118929567781194" lon="10.020058732503685"><ele>33.0</ele><time>2026-04-25T05:18:33.999Z</time></trkpt><trkpt lat="45.118979531998185" lon="10.019984837144024"><ele>33.0</ele><time>2026-04-25T05:18:34.999Z</time></trkpt><trkpt lat="45.119028900753264" lon="10.019909764241403"><ele>33.0</ele><time>2026-04-25T05:18:35.999Z</time></trkpt><trkpt lat="45.11907771536643" lon="10.019835252602913"><ele>33.0</ele><time>2026-04-25T05:18:36.999Z</time></trkpt><trkpt lat="45.11912603616496" lon="10.019760172111319"><ele>33.0</ele><time>2026-04-25T05:18:37.999Z</time></trkpt><trkpt lat="45.11915853357339" lon="10.019666109376262"><ele>33.0</ele><time>2026-04-25T05:18:38.999Z</time></trkpt><trkpt lat="45.11920411702477" lon="10.019588791842343"><ele>33.0</ele><time>2026-04-25T05:18:39.999Z</time></trkpt><trkpt lat="45.119248471428925" lon="10.019509171327087"><ele>33.0</ele><time>2026-04-25T05:18:40.999Z</time></trkpt><trkpt lat="45.11929134495138" lon="10.019429655571749"><ele>33.0</ele><time>2026-04-25T05:18:41.999Z</time></trkpt><trkpt lat="45.11932882011873" lon="10.01934174604877"><ele>33.0</ele><time>2026-04-25T05:18:42.999Z</time></trkpt><trkpt lat="45.11936801926955" lon="10.019256329454963"><ele>33.0</ele><time>2026-04-25T05:18:43.999Z</time></trkpt><trkpt lat="45.11940451741302" lon="10.019170873665786"><ele>32.857142857142854</ele><time>2026-04-25T05:18:44.999Z</time></trkpt><trkpt lat="45.11944132756934" lon="10.019082526147214"><ele>32.714285714285715</ele><time>2026-04-25T05:18:45.999Z</time></trkpt><trkpt lat="45.119480562839385" lon="10.0189925850674"><ele>32.57142857142857</ele><time>2026-04-25T05:18:46.999Z</time></trkpt><trkpt lat="45.119515481915045" lon="10.018908828533139"><ele>32.42857142857143</ele><time>2026-04-25T05:18:47.999Z</time></trkpt><trkpt lat="45.1195527609951" lon="10.018819185289471"><ele>32.285714285714285</ele><time>2026-04-25T05:18:48.999Z</time></trkpt><trkpt lat="45.11958792477739" lon="10.01873360637874"><ele>32.14285714285714</ele><time>2026-04-25T05:18:49.999Z</time></trkpt><trkpt lat="45.11962600529302" lon="10.01864398657083"><ele>32.0</ele><time>2026-04-25T05:18:50.999Z</time></trkpt><trkpt lat="45.119662440448124" lon="10.018559571473537"><ele>32.0</ele><time>2026-04-25T05:18:51.999Z</time></trkpt><trkpt lat="45.119700683993905" lon="10.018469103181657"><ele>31.999999999999996</ele><time>2026-04-25T05:18:52.998Z</time></trkpt><trkpt lat="45.119753316513886" lon="10.018397970587367"><ele>32.0</ele><time>2026-04-25T05:18:53.998Z</time></trkpt><trkpt lat="45.119790809941456" lon="10.018308792960397"><ele>32.0</ele><time>2026-04-25T05:18:54.998Z</time></trkpt><trkpt lat="45.119827873684926" lon="10.018222663026593"><ele>31.999999999999996</ele><time>2026-04-25T05:18:55.998Z</time></trkpt><trkpt lat="45.11986540223863" lon="10.018135286575003"><ele>32.0</ele><time>2026-04-25T05:18:56.998Z</time></trkpt><trkpt lat="45.119903023820605" lon="10.018046882065372"><ele>32.0</ele><time>2026-04-25T05:18:57.998Z</time></trkpt><trkpt lat="45.11993934605966" lon="10.0179615307791"><ele>32.285714285714285</ele><time>2026-04-25T05:18:58.998Z</time></trkpt><trkpt lat="45.119975328308655" lon="10.017876978494982"><ele>32.57142857142857</ele><time>2026-04-25T05:18:59.998Z</time></trkpt><trkpt lat="45.120012018397304" lon="10.017790763111988"><ele>32.857142857142854</ele><time>2026-04-25T05:19:00.998Z</time></trkpt><trkpt lat="45.12004780453932" lon="10.01770671653821"><ele>33.14285714285714</ele><time>2026-04-25T05:19:01.998Z</time></trkpt><trkpt lat="45.1200846788989" lon="10.017620188587255"><ele>33.42857142857143</ele><time>2026-04-25T05:19:02.998Z</time></trkpt><trkpt lat="45.120121214221655" lon="10.017534253531453"><ele>33.71428571428571</ele><time>2026-04-25T05:19:03.998Z</time></trkpt><trkpt lat="45.120156784494974" lon="10.017450588350254"><ele>34.0</ele><time>2026-04-25T05:19:04.998Z</time></trkpt><trkpt lat="45.12019246079838" lon="10.017366673530152"><ele>33.99999999999999</ele><time>2026-04-25T05:19:05.998Z</time></trkpt><trkpt lat="45.120229242473805" lon="10.017280180651108"><ele>34.0</ele><time>2026-04-25T05:19:06.998Z</time></trkpt><trkpt lat="45.1202647978115" lon="10.01719658896118"><ele>34.0</ele><time>2026-04-25T05:19:07.998Z</time></trkpt><trkpt lat="45.12030034267524" lon="10.017113022078398"><ele>34.0</ele><time>2026-04-25T05:19:08.998Z</time></trkpt><trkpt lat="45.12033618128587" lon="10.01702876429167"><ele>34.0</ele><time>2026-04-25T05:19:09.998Z</time></trkpt><trkpt lat="45.12037174604274" lon="10.016945150367915"><ele>33.99999999999999</ele><time>2026-04-25T05:19:10.998Z</time></trkpt><trkpt lat="45.12040712732815" lon="10.016862286669724"><ele>34.0</ele><time>2026-04-25T05:19:12Z</time></trkpt><trkpt lat="45.12044337199846" lon="10.016779876480962"><ele>33.99999999999999</ele><time>2026-04-25T05:19:13Z</time></trkpt><trkpt lat="45.12047957631144" lon="10.016697558642779"><ele>34.0</ele><time>2026-04-25T05:19:14Z</time></trkpt><trkpt lat="45.120516014993505" lon="10.016614707586696"><ele>34.0</ele><time>2026-04-25T05:19:15Z</time></trkpt><trkpt lat="45.12055170041567" lon="10.016533569200888"><ele>34.0</ele><time>2026-04-25T05:19:16Z</time></trkpt><trkpt lat="45.12058782465456" lon="10.016451433462448"><ele>34.0</ele><time>2026-04-25T05:19:17Z</time></trkpt><trkpt lat="45.120623865259425" lon="10.01637176931902"><ele>33.99999999999999</ele><time>2026-04-25T05:19:18Z</time></trkpt><trkpt lat="45.1206625430583" lon="10.016292204370645"><ele>34.0</ele><time>2026-04-25T05:19:19Z</time></trkpt><trkpt lat="45.120702567202414" lon="10.016214680765241"><ele>33.857142857142854</ele><time>2026-04-25T05:19:20Z</time></trkpt><trkpt lat="45.12074372621042" lon="10.016138570138525"><ele>33.714285714285715</ele><time>2026-04-25T05:19:21Z</time></trkpt><trkpt lat="45.12078652391764" lon="10.016059429223123"><ele>33.57142857142857</ele><time>2026-04-25T05:19:22Z</time></trkpt><trkpt lat="45.12082879137748" lon="10.015981268537109"><ele>33.42857142857143</ele><time>2026-04-25T05:19:23Z</time></trkpt><trkpt lat="45.120870852119594" lon="10.015903490400682"><ele>33.285714285714285</ele><time>2026-04-25T05:19:24Z</time></trkpt><trkpt lat="45.120911827819654" lon="10.015827718651359"><ele>33.14285714285714</ele><time>2026-04-25T05:19:25Z</time></trkpt><trkpt lat="45.12095425546453" lon="10.015749261887402"><ele>33.0</ele><time>2026-04-25T05:19:26Z</time></trkpt><trkpt lat="45.120995534683594" lon="10.015672929183811"><ele>33.42857142857143</ele><time>2026-04-25T05:19:27Z</time></trkpt><trkpt lat="45.121037523231045" lon="10.01559571140201"><ele>33.85714285714286</ele><time>2026-04-25T05:19:28Z</time></trkpt><trkpt lat="45.12108020633722" lon="10.01551802821103"><ele>34.28571428571429</ele><time>2026-04-25T05:19:29Z</time></trkpt><trkpt lat="45.121122773867576" lon="10.015441571775758"><ele>34.714285714285715</ele><time>2026-04-25T05:19:30Z</time></trkpt><trkpt lat="45.121165761363706" lon="10.015364792867397"><ele>35.142857142857146</ele><time>2026-04-25T05:19:31Z</time></trkpt><trkpt lat="45.12120858966764" lon="10.015288297712923"><ele>35.57142857142858</ele><time>2026-04-25T05:19:32Z</time></trkpt><trkpt lat="45.12125188887784" lon="10.015210961746162"><ele>36.0</ele><time>2026-04-25T05:19:33Z</time></trkpt><trkpt lat="45.12129539188312" lon="10.015133261534686"><ele>36.00000000000001</ele><time>2026-04-25T05:19:34Z</time></trkpt><trkpt lat="45.12133975341948" lon="10.015054740370516"><ele>36.0</ele><time>2026-04-25T05:19:35Z</time></trkpt><trkpt lat="45.121383319922415" lon="10.014979101236165"><ele>36.0</ele><time>2026-04-25T05:19:36Z</time></trkpt><trkpt lat="45.121427614808646" lon="10.014902197472558"><ele>36.0</ele><time>2026-04-25T05:19:37Z</time></trkpt><trkpt lat="45.12147147752024" lon="10.014826178040334"><ele>36.0</ele><time>2026-04-25T05:19:38Z</time></trkpt><trkpt lat="45.12151636471889" lon="10.014750112590026"><ele>36.00000000000001</ele><time>2026-04-25T05:19:39Z</time></trkpt><trkpt lat="45.12156106150701" lon="10.01467549657964"><ele>36.0</ele><time>2026-04-25T05:19:40Z</time></trkpt><trkpt lat="45.12160746330914" lon="10.014600260406999"><ele>36.142857142857146</ele><time>2026-04-25T05:19:41Z</time></trkpt><trkpt lat="45.12164113608633" lon="10.014510264207471"><ele>36.285714285714285</ele><time>2026-04-25T05:19:42Z</time></trkpt><trkpt lat="45.121699517436014" lon="10.014451003505103"><ele>36.42857142857143</ele><time>2026-04-25T05:19:43Z</time></trkpt><trkpt lat="45.12173255992806" lon="10.014362099332262"><ele>36.57142857142857</ele><time>2026-04-25T05:19:44Z</time></trkpt><trkpt lat="45.12179073481987" lon="10.014303103700867"><ele>36.714285714285715</ele><time>2026-04-25T05:19:45Z</time></trkpt><trkpt lat="45.121836834829786" lon="10.014228357035732"><ele>36.85714285714286</ele><time>2026-04-25T05:19:46Z</time></trkpt><trkpt lat="45.12188313862263" lon="10.014155547896157"><ele>37.0</ele><time>2026-04-25T05:19:47Z</time></trkpt><trkpt lat="45.12193000517645" lon="10.01408206635264"><ele>36.285714285714285</ele><time>2026-04-25T05:19:48Z</time></trkpt><trkpt lat="45.12197674332154" lon="10.014008786362128"><ele>35.57142857142857</ele><time>2026-04-25T05:19:49Z</time></trkpt><trkpt lat="45.12202430114853" lon="10.013933246723393"><ele>34.857142857142854</ele><time>2026-04-25T05:19:50Z</time></trkpt><trkpt lat="45.12206930666549" lon="10.013859576138714"><ele>34.14285714285714</ele><time>2026-04-25T05:19:51Z</time></trkpt><trkpt lat="45.1221151526642" lon="10.013784529667054"><ele>33.42857142857142</ele><time>2026-04-25T05:19:52Z</time></trkpt><trkpt lat="45.122161722514946" lon="10.013708298433235"><ele>32.714285714285715</ele><time>2026-04-25T05:19:53Z</time></trkpt><trkpt lat="45.122195548627566" lon="10.013617746391116"><ele>32.0</ele><time>2026-04-25T05:19:54Z</time></trkpt><trkpt lat="45.12224156213886" lon="10.013543711933933"><ele>32.0</ele><time>2026-04-25T05:19:55Z</time></trkpt><trkpt lat="45.122289051931894" lon="10.013469351428606"><ele>31.999999999999996</ele><time>2026-04-25T05:19:56Z</time></trkpt><trkpt lat="45.12234639538218" lon="10.013411718292604"><ele>32.0</ele><time>2026-04-25T05:19:57Z</time></trkpt><trkpt lat="45.12239299597252" lon="10.013334601614357"><ele>32.0</ele><time>2026-04-25T05:19:58Z</time></trkpt><trkpt lat="45.12243786229399" lon="10.013258982073879"><ele>31.999999999999996</ele><time>2026-04-25T05:19:59Z</time></trkpt><trkpt lat="45.122484339336665" lon="10.013179768687856"><ele>32.0</ele><time>2026-04-25T05:20:00Z</time></trkpt><trkpt lat="45.122527592666295" lon="10.013100704225929"><ele>32.0</ele><time>2026-04-25T05:20:01Z</time></trkpt><trkpt lat="45.12256919954496" lon="10.013016260039834"><ele>31.857142857142854</ele><time>2026-04-25T05:20:01.999Z</time></trkpt><trkpt lat="45.122606390319774" lon="10.01293159213899"><ele>31.71428571428571</ele><time>2026-04-25T05:20:02.999Z</time></trkpt><trkpt lat="45.12262805128475" lon="10.012834555569235"><ele>31.57142857142857</ele><time>2026-04-25T05:20:03.999Z</time></trkpt><trkpt lat="45.12266335133081" lon="10.01275013258775"><ele>31.42857142857143</ele><time>2026-04-25T05:20:04.999Z</time></trkpt><trkpt lat="45.12271258283656" lon="10.012675979096027"><ele>31.28571428571429</ele><time>2026-04-25T05:20:05.999Z</time></trkpt><trkpt lat="45.122746367048485" lon="10.012591146287507"><ele>31.142857142857146</ele><time>2026-04-25T05:20:06.999Z</time></trkpt><trkpt lat="45.12278036317604" lon="10.012503851226509"><ele>31.0</ele><time>2026-04-25T05:20:07.999Z</time></trkpt><trkpt lat="45.1228120676371" lon="10.012415718295252"><ele>31.42857142857143</ele><time>2026-04-25T05:20:08.999Z</time></trkpt><trkpt lat="45.122842589128695" lon="10.012328415488348"><ele>31.85714285714286</ele><time>2026-04-25T05:20:09.999Z</time></trkpt><trkpt lat="45.12287153349298" lon="10.012240535895643"><ele>32.285714285714285</ele><time>2026-04-25T05:20:10.999Z</time></trkpt><trkpt lat="45.12290047558418" lon="10.012152641889706"><ele>32.714285714285715</ele><time>2026-04-25T05:20:11.999Z</time></trkpt><trkpt lat="45.12292896979476" lon="10.012066464992003"><ele>33.14285714285714</ele><time>2026-04-25T05:20:12.999Z</time></trkpt><trkpt lat="45.12295870836188" lon="10.011977549754079"><ele>33.57142857142857</ele><time>2026-04-25T05:20:13.999Z</time></trkpt><trkpt lat="45.12298797299908" lon="10.011890051277389"><ele>34.0</ele><time>2026-04-25T05:20:14.999Z</time></trkpt><trkpt lat="45.12301740271968" lon="10.011802059279029"><ele>33.99999999999999</ele><time>2026-04-25T05:20:15.999Z</time></trkpt><trkpt lat="45.12304660730622" lon="10.01171474069261"><ele>34.0</ele><time>2026-04-25T05:20:16.999Z</time></trkpt><trkpt lat="45.123061492706036" lon="10.011615456996457"><ele>34.0</ele><time>2026-04-25T05:20:17.999Z</time></trkpt><trkpt lat="45.12310572254839" lon="10.011538103659479"><ele>34.0</ele><time>2026-04-25T05:20:18.999Z</time></trkpt><trkpt lat="45.123135188277814" lon="10.011450127518994"><ele>34.0</ele><time>2026-04-25T05:20:19.999Z</time></trkpt><trkpt lat="45.12316424810101" lon="10.011363406998402"><ele>33.99999999999999</ele><time>2026-04-25T05:20:20.999Z</time></trkpt><trkpt lat="45.123193777335246" lon="10.011275285720684"><ele>34.0</ele><time>2026-04-25T05:20:21.999Z</time></trkpt><trkpt lat="45.12322287447247" lon="10.011188453777203"><ele>33.99999999999999</ele><time>2026-04-25T05:20:22.999Z</time></trkpt><trkpt lat="45.123252139853285" lon="10.011101119962632"><ele>34.0</ele><time>2026-04-25T05:20:23.999Z</time></trkpt><trkpt lat="45.123281396419166" lon="10.01101381250471"><ele>34.0</ele><time>2026-04-25T05:20:24.999Z</time></trkpt><trkpt lat="45.12331075712566" lon="10.010926194080335"><ele>34.0</ele><time>2026-04-25T05:20:25.999Z</time></trkpt><trkpt lat="45.12333980174524" lon="10.010839518922744"><ele>34.0</ele><time>2026-04-25T05:20:26.999Z</time></trkpt><trkpt lat="45.1233689958403" lon="10.01075239792762"><ele>33.99999999999999</ele><time>2026-04-25T05:20:27.999Z</time></trkpt><trkpt lat="45.12339761380825" lon="10.010666995932217"><ele>34.0</ele><time>2026-04-25T05:20:28.999Z</time></trkpt><trkpt lat="45.12342714207712" lon="10.01057887763881"><ele>33.99999999999999</ele><time>2026-04-25T05:20:29.999Z</time></trkpt><trkpt lat="45.12345690650895" lon="10.010490054322073"><ele>34.0</ele><time>2026-04-25T05:20:30.999Z</time></trkpt><trkpt lat="45.123486559710834" lon="10.010401563105384"><ele>34.0</ele><time>2026-04-25T05:20:31.999Z</time></trkpt><trkpt lat="45.123515828566376" lon="10.010313721502799"><ele>34.0</ele><time>2026-04-25T05:20:32.999Z</time></trkpt><trkpt lat="45.123545671839885" lon="10.010224087371752"><ele>34.0</ele><time>2026-04-25T05:20:33.999Z</time></trkpt><trkpt lat="45.12357478053879" lon="10.01013665939847"><ele>33.99999999999999</ele><time>2026-04-25T05:20:34.999Z</time></trkpt><trkpt lat="45.12360383840064" lon="10.010049384185658"><ele>34.0</ele><time>2026-04-25T05:20:35.999Z</time></trkpt><trkpt lat="45.12363336406148" lon="10.009960713653838"><ele>34.14285714285714</ele><time>2026-04-25T05:20:36.999Z</time></trkpt><trkpt lat="45.12366256919451" lon="10.00987369665834"><ele>34.285714285714285</ele><time>2026-04-25T05:20:37.999Z</time></trkpt><trkpt lat="45.123692020588734" lon="10.009785945821102"><ele>34.42857142857143</ele><time>2026-04-25T05:20:38.999Z</time></trkpt><trkpt lat="45.12372106090487" lon="10.009699419757068"><ele>34.57142857142857</ele><time>2026-04-25T05:20:39.999Z</time></trkpt><trkpt lat="45.12373593015048" lon="10.009600321426358"><ele>34.714285714285715</ele><time>2026-04-25T05:20:40.999Z</time></trkpt><trkpt lat="45.123779742983295" lon="10.00952457567288"><ele>34.857142857142854</ele><time>2026-04-25T05:20:41.999Z</time></trkpt><trkpt lat="45.12380951454255" lon="10.009435932310522"><ele>35.0</ele><time>2026-04-25T05:20:42.999Z</time></trkpt><trkpt lat="45.12383827915731" lon="10.00935031446503"><ele>35.0</ele><time>2026-04-25T05:20:43.999Z</time></trkpt><trkpt lat="45.123868143041655" lon="10.009261298742505"><ele>35.0</ele><time>2026-04-25T05:20:44.999Z</time></trkpt><trkpt lat="45.123896981808414" lon="10.009173936870704"><ele>35.0</ele><time>2026-04-25T05:20:45.999Z</time></trkpt><trkpt lat="45.1239260974557" lon="10.009085314516247"><ele>35.0</ele><time>2026-04-25T05:20:46.999Z</time></trkpt><trkpt lat="45.123954887959556" lon="10.00899763582692"><ele>35.0</ele><time>2026-04-25T05:20:47.999Z</time></trkpt><trkpt lat="45.12398446410569" lon="10.00890756447228"><ele>35.0</ele><time>2026-04-25T05:20:48.999Z</time></trkpt><trkpt lat="45.1240130642848" lon="10.008821743607307"><ele>35.0</ele><time>2026-04-25T05:20:49.999Z</time></trkpt><trkpt lat="45.12404290313234" lon="10.008734075007983"><ele>35.0</ele><time>2026-04-25T05:20:50.999Z</time></trkpt><trkpt lat="45.12407229046066" lon="10.008648272207177"><ele>35.0</ele><time>2026-04-25T05:20:51.999Z</time></trkpt><trkpt lat="45.12410343803554" lon="10.008560089443007"><ele>35.0</ele><time>2026-04-25T05:20:52.999Z</time></trkpt><trkpt lat="45.12413362460533" lon="10.008471746033557"><ele>35.0</ele><time>2026-04-25T05:20:53.999Z</time></trkpt><trkpt lat="45.12414891947111" lon="10.008372825613602"><ele>35.0</ele><time>2026-04-25T05:20:54.999Z</time></trkpt><trkpt lat="45.124178549550976" lon="10.00828796702422"><ele>35.0</ele><time>2026-04-25T05:20:55.999Z</time></trkpt><trkpt lat="45.12420678540143" lon="10.008203106203368"><ele>35.0</ele><time>2026-04-25T05:20:56.999Z</time></trkpt><trkpt lat="45.124233870822806" lon="10.008119606378855"><ele>35.33333333333333</ele><time>2026-04-25T05:20:57.998Z</time></trkpt><trkpt lat="45.12427654988206" lon="10.00804532266493"><ele>35.666666666666664</ele><time>2026-04-25T05:20:58.998Z</time></trkpt><trkpt lat="45.124305335303895" lon="10.007958306392588"><ele>36.0</ele><time>2026-04-25T05:20:59.998Z</time></trkpt><trkpt lat="45.12433381917121" lon="10.007872201672585"><ele>36.333333333333336</ele><time>2026-04-25T05:21:00.998Z</time></trkpt><trkpt lat="45.12436201374356" lon="10.007786971333365"><ele>36.66666666666667</ele><time>2026-04-25T05:21:01.998Z</time></trkpt><trkpt lat="45.124388351194604" lon="10.007703582719612"><ele>37.0</ele><time>2026-04-25T05:21:02.998Z</time></trkpt><trkpt lat="45.124438488267266" lon="10.007544094609417"><ele>37.8</ele><time>2026-04-25T05:21:04.998Z</time></trkpt><trkpt lat="45.12448567696023" lon="10.007392812228959"><ele>38.6</ele><time>2026-04-25T05:21:06.998Z</time></trkpt><trkpt lat="45.124519966253544" lon="10.007243851118853"><ele>39.4</ele><time>2026-04-25T05:21:08.998Z</time></trkpt><trkpt lat="45.124563701066606" lon="10.007111028940404"><ele>40.199999999999996</ele><time>2026-04-25T05:21:10.998Z</time></trkpt><trkpt lat="45.124602707944085" lon="10.007007230432539"><ele>41.0</ele><time>2026-04-25T05:21:12.998Z</time></trkpt><trkpt lat="45.124527836409825" lon="10.006891086640016"><ele>41.0</ele><time>2026-04-25T05:21:14.998Z</time></trkpt><trkpt lat="45.124437726524704" lon="10.006788961357735"><ele>41.0</ele><time>2026-04-25T05:21:16.998Z</time></trkpt><trkpt lat="45.124336198211566" lon="10.006682067764386"><ele>41.0</ele><time>2026-04-25T05:21:19Z</time></trkpt><trkpt lat="45.124282402520926" lon="10.006625393608957"><ele>41.0</ele><time>2026-04-25T05:21:20Z</time></trkpt><trkpt lat="45.12422577182045" lon="10.006565380719328"><ele>41.0</ele><time>2026-04-25T05:21:21Z</time></trkpt><trkpt lat="45.12417068466043" lon="10.006507003485716"><ele>41.0</ele><time>2026-04-25T05:21:22Z</time></trkpt><trkpt lat="45.124114722794985" lon="10.006447699355775"><ele>41.285714285714285</ele><time>2026-04-25T05:21:23Z</time></trkpt><trkpt lat="45.124059013106816" lon="10.00638866246684"><ele>41.57142857142857</ele><time>2026-04-25T05:21:24Z</time></trkpt><trkpt lat="45.123994678233665" lon="10.006348144108292"><ele>41.85714285714286</ele><time>2026-04-25T05:21:25Z</time></trkpt><trkpt lat="45.123942786928644" lon="10.00628082955626"><ele>42.14285714285714</ele><time>2026-04-25T05:21:26Z</time></trkpt><trkpt lat="45.12388536016176" lon="10.006223295488374"><ele>42.42857142857143</ele><time>2026-04-25T05:21:27Z</time></trkpt><trkpt lat="45.12382783843616" lon="10.00617110752245"><ele>42.714285714285715</ele><time>2026-04-25T05:21:28Z</time></trkpt><trkpt lat="45.12377466108229" lon="10.00611247115102"><ele>43.0</ele><time>2026-04-25T05:21:29Z</time></trkpt><trkpt lat="45.12371619420154" lon="10.006052552985492"><ele>43.00000000000001</ele><time>2026-04-25T05:21:30Z</time></trkpt><trkpt lat="45.123661064805276" lon="10.005991597646748"><ele>43.0</ele><time>2026-04-25T05:21:31Z</time></trkpt><trkpt lat="45.12360501472262" lon="10.005931210605624"><ele>43.0</ele><time>2026-04-25T05:21:32Z</time></trkpt><trkpt lat="45.12355233581353" lon="10.005873384540363"><ele>43.0</ele><time>2026-04-25T05:21:33Z</time></trkpt><trkpt lat="45.1234976472807" lon="10.005815510944034"><ele>43.0</ele><time>2026-04-25T05:21:34Z</time></trkpt><trkpt lat="45.12344231329125" lon="10.005755312248294"><ele>43.00000000000001</ele><time>2026-04-25T05:21:35Z</time></trkpt><trkpt lat="45.12338780153758" lon="10.005695833968009"><ele>43.0</ele><time>2026-04-25T05:21:36Z</time></trkpt><trkpt lat="45.1233361543553" lon="10.005639461108629"><ele>43.0</ele><time>2026-04-25T05:21:37Z</time></trkpt><trkpt lat="45.12328283565681" lon="10.005579692892994"><ele>43.0</ele><time>2026-04-25T05:21:38Z</time></trkpt><trkpt lat="45.12323252806597" lon="10.00551906834861"><ele>43.0</ele><time>2026-04-25T05:21:39Z</time></trkpt><trkpt lat="45.123177797787605" lon="10.00546030666222"><ele>43.0</ele><time>2026-04-25T05:21:40Z</time></trkpt><trkpt lat="45.12312015336707" lon="10.005405992726347"><ele>43.0</ele><time>2026-04-25T05:21:41Z</time></trkpt><trkpt lat="45.12306842971257" lon="10.005351695906654"><ele>43.0</ele><time>2026-04-25T05:21:42Z</time></trkpt><trkpt lat="45.122972269106526" lon="10.005245368499798"><ele>41.75</ele><time>2026-04-25T05:21:44Z</time></trkpt><trkpt lat="45.122969719469246" lon="10.005078261858486"><ele>40.5</ele><time>2026-04-25T05:21:46Z</time></trkpt><trkpt lat="45.12305144579465" lon="10.004954638423069"><ele>39.25</ele><time>2026-04-25T05:21:48Z</time></trkpt><trkpt lat="45.12313895173112" lon="10.00485172935226"><ele>38.0</ele><time>2026-04-25T05:21:50Z</time></trkpt><trkpt lat="45.12322832377808" lon="10.004749283617421"><ele>38.199999999999996</ele><time>2026-04-25T05:21:52Z</time></trkpt><trkpt lat="45.1233200420626" lon="10.004652743604545"><ele>38.4</ele><time>2026-04-25T05:21:54Z</time></trkpt><trkpt lat="45.12341492441283" lon="10.00454417968991"><ele>38.599999999999994</ele><time>2026-04-25T05:21:56Z</time></trkpt><trkpt lat="45.123509181358905" lon="10.004427354644347"><ele>38.8</ele><time>2026-04-25T05:21:58Z</time></trkpt><trkpt lat="45.12355801774108" lon="10.004370855647217"><ele>39.0</ele><time>2026-04-25T05:21:59Z</time></trkpt><trkpt lat="45.123616776632915" lon="10.004333760501442"><ele>39.0</ele><time>2026-04-25T05:22:00Z</time></trkpt><trkpt lat="45.12371611393832" lon="10.004224051377173"><ele>39.0</ele><time>2026-04-25T05:22:02Z</time></trkpt><trkpt lat="45.12381419580224" lon="10.004113103490157"><ele>39.0</ele><time>2026-04-25T05:22:04Z</time></trkpt><trkpt lat="45.123848798594025" lon="10.004035692597824"><ele>39.0</ele><time>2026-04-25T05:22:05Z</time></trkpt><trkpt lat="45.12394062060597" lon="10.003917517296355"><ele>39.0</ele><time>2026-04-25T05:22:06.999Z</time></trkpt><trkpt lat="45.12403473961998" lon="10.003807302476957"><ele>38.25</ele><time>2026-04-25T05:22:08.999Z</time></trkpt><trkpt lat="45.124130277249385" lon="10.003703068036293"><ele>37.5</ele><time>2026-04-25T05:22:10.999Z</time></trkpt><trkpt lat="45.12422433075103" lon="10.003594054777954"><ele>36.75</ele><time>2026-04-25T05:22:12.999Z</time></trkpt><trkpt lat="45.12431465431733" lon="10.003478549809268"><ele>36.0</ele><time>2026-04-25T05:22:14.999Z</time></trkpt><trkpt lat="45.12439936781659" lon="10.003356111884138"><ele>34.8</ele><time>2026-04-25T05:22:16.999Z</time></trkpt><trkpt lat="45.12448371202087" lon="10.003230644114128"><ele>33.6</ele><time>2026-04-25T05:22:18.999Z</time></trkpt><trkpt lat="45.12452897693716" lon="10.003166400463963"><ele>32.4</ele><time>2026-04-25T05:22:19.999Z</time></trkpt><trkpt lat="45.124606443928066" lon="10.003028780057601"><ele>31.2</ele><time>2026-04-25T05:22:21.999Z</time></trkpt><trkpt lat="45.12468848774671" lon="10.002895311471544"><ele>30.0</ele><time>2026-04-25T05:22:23.999Z</time></trkpt><trkpt lat="45.12476741607785" lon="10.002761808677963"><ele>30.0</ele><time>2026-04-25T05:22:25.999Z</time></trkpt><trkpt lat="45.1248079301948" lon="10.002690203493241"><ele>30.0</ele><time>2026-04-25T05:22:26.999Z</time></trkpt><trkpt lat="45.12489178246426" lon="10.002559246439455"><ele>30.0</ele><time>2026-04-25T05:22:28.999Z</time></trkpt><trkpt lat="45.12493617200149" lon="10.00249402553853"><ele>30.0</ele><time>2026-04-25T05:22:29.999Z</time></trkpt><trkpt lat="45.124981648751216" lon="10.002432088824232"><ele>30.0</ele><time>2026-04-25T05:22:30.999Z</time></trkpt><trkpt lat="45.125026229019724" lon="10.002365425884097"><ele>30.0</ele><time>2026-04-25T05:22:31.999Z</time></trkpt><trkpt lat="45.12507703816227" lon="10.002312188273274"><ele>30.0</ele><time>2026-04-25T05:22:32.999Z</time></trkpt><trkpt lat="45.12512358568265" lon="10.00224542425687"><ele>30.333333333333332</ele><time>2026-04-25T05:22:33.999Z</time></trkpt><trkpt lat="45.12517255016681" lon="10.002182296984657"><ele>30.666666666666664</ele><time>2026-04-25T05:22:34.999Z</time></trkpt><trkpt lat="45.12521996320315" lon="10.00212005219389"><ele>31.0</ele><time>2026-04-25T05:22:35.999Z</time></trkpt><trkpt lat="45.125269247836414" lon="10.00206159108244"><ele>31.333333333333332</ele><time>2026-04-25T05:22:36.999Z</time></trkpt><trkpt lat="45.12531832941688" lon="10.002002711865613"><ele>31.666666666666664</ele><time>2026-04-25T05:22:37.999Z</time></trkpt><trkpt lat="45.12539853145737" lon="10.001889957058568"><ele>32.0</ele><time>2026-04-25T05:22:39.999Z</time></trkpt><trkpt lat="45.1255005646163" lon="10.001791384632433"><ele>32.0</ele><time>2026-04-25T05:22:41.999Z</time></trkpt><trkpt lat="45.125592527715476" lon="10.001687896768438"><ele>32.0</ele><time>2026-04-25T05:22:43.999Z</time></trkpt><trkpt lat="45.125681533269926" lon="10.001583737909332"><ele>32.0</ele><time>2026-04-25T05:22:45.999Z</time></trkpt><trkpt lat="45.125780039793725" lon="10.001474190560721"><ele>32.0</ele><time>2026-04-25T05:22:47.999Z</time></trkpt><trkpt lat="45.12588330769104" lon="10.001365659933688"><ele>31.400000000000002</ele><time>2026-04-25T05:22:49.999Z</time></trkpt><trkpt lat="45.12593027870859" lon="10.001305956813106"><ele>30.800000000000004</ele><time>2026-04-25T05:22:50.999Z</time></trkpt><trkpt lat="45.126025557077796" lon="10.001189300806443"><ele>30.2</ele><time>2026-04-25T05:22:52.999Z</time></trkpt><trkpt lat="45.12607467158273" lon="10.001129121316257"><ele>29.6</ele><time>2026-04-25T05:22:53.999Z</time></trkpt><trkpt lat="45.12617176534538" lon="10.001013923705468"><ele>29.0</ele><time>2026-04-25T05:22:55.999Z</time></trkpt><trkpt lat="45.12626470677244" lon="10.000908082578983"><ele>29.0</ele><time>2026-04-25T05:22:57.999Z</time></trkpt><trkpt lat="45.12635037528167" lon="10.000796483242556"><ele>29.0</ele><time>2026-04-25T05:22:59.999Z</time></trkpt><trkpt lat="45.1264319789763" lon="10.000684490564295"><ele>29.0</ele><time>2026-04-25T05:23:01.998Z</time></trkpt><trkpt lat="45.126527213774715" lon="10.000582515329038"><ele>29.0</ele><time>2026-04-25T05:23:03.998Z</time></trkpt><trkpt lat="45.12662306903374" lon="10.000477519445461"><ele>29.0</ele><time>2026-04-25T05:23:05.998Z</time></trkpt><trkpt lat="45.12671874079313" lon="10.000371422343425"><ele>29.0</ele><time>2026-04-25T05:23:07.998Z</time></trkpt><trkpt lat="45.126813937153905" lon="10.00026512115187"><ele>29.0</ele><time>2026-04-25T05:23:09.998Z</time></trkpt><trkpt lat="45.12691695598501" lon="10.000168921741372"><ele>29.0</ele><time>2026-04-25T05:23:11.998Z</time></trkpt><trkpt lat="45.126970011341946" lon="10.000120198412787"><ele>29.0</ele><time>2026-04-25T05:23:12.998Z</time></trkpt><trkpt lat="45.127071258200345" lon="10.000017789500927"><ele>29.0</ele><time>2026-04-25T05:23:14.998Z</time></trkpt><trkpt lat="45.127124182061536" lon="9.99996702791213"><ele>29.0</ele><time>2026-04-25T05:23:15.998Z</time></trkpt><trkpt lat="45.12723388268567" lon="9.999882973881762"><ele>29.0</ele><time>2026-04-25T05:23:17.998Z</time></trkpt><trkpt lat="45.12734857839781" lon="9.999812007408092"><ele>29.0</ele><time>2026-04-25T05:23:19.998Z</time></trkpt><trkpt lat="45.12746782683977" lon="9.999763369095275"><ele>29.0</ele><time>2026-04-25T05:23:21.998Z</time></trkpt><trkpt lat="45.127590585101366" lon="9.999751609176146"><ele>31.5</ele><time>2026-04-25T05:23:24Z</time></trkpt><trkpt lat="45.12770980568816" lon="9.999792127111535"><ele>34.0</ele><time>2026-04-25T05:23:26Z</time></trkpt><trkpt lat="45.12782275197305" lon="9.99986298671434"><ele>36.5</ele><time>2026-04-25T05:23:28Z</time></trkpt><trkpt lat="45.127930617232785" lon="9.99994055388842"><ele>39.0</ele><time>2026-04-25T05:23:30Z</time></trkpt><trkpt lat="45.12803931171643" lon="10.000019885428683"><ele>39.0</ele><time>2026-04-25T05:23:32Z</time></trkpt><trkpt lat="45.12814706991521" lon="10.000095560692438"><ele>39.0</ele><time>2026-04-25T05:23:34Z</time></trkpt><trkpt lat="45.12825480333152" lon="10.000176601119646"><ele>39.0</ele><time>2026-04-25T05:23:36Z</time></trkpt><trkpt lat="45.12836197161437" lon="10.000248345495617"><ele>39.0</ele><time>2026-04-25T05:23:38Z</time></trkpt><trkpt lat="45.12846837897446" lon="10.00032389378064"><ele>39.0</ele><time>2026-04-25T05:23:40Z</time></trkpt><trkpt lat="45.1285695538305" lon="10.000406716658073"><ele>39.0</ele><time>2026-04-25T05:23:42Z</time></trkpt><trkpt lat="45.12867705991029" lon="10.00047555704058"><ele>39.0</ele><time>2026-04-25T05:23:44Z</time></trkpt><trkpt lat="45.12878334812321" lon="10.000547701261064"><ele>39.0</ele><time>2026-04-25T05:23:46Z</time></trkpt><trkpt lat="45.12888714127732" lon="10.000623777940797"><ele>39.0</ele><time>2026-04-25T05:23:48Z</time></trkpt><trkpt lat="45.12899208456227" lon="10.00068627063873"><ele>39.0</ele><time>2026-04-25T05:23:50Z</time></trkpt><trkpt lat="45.12909107199309" lon="10.000743217977734"><ele>39.0</ele><time>2026-04-25T05:23:52Z</time></trkpt><trkpt lat="45.12918518520486" lon="10.000808744639002"><ele>39.0</ele><time>2026-04-25T05:23:54Z</time></trkpt><trkpt lat="45.12927311955223" lon="10.000879857646943"><ele>39.0</ele><time>2026-04-25T05:23:56Z</time></trkpt><trkpt lat="45.1293578315058" lon="10.00094368317072"><ele>39.0</ele><time>2026-04-25T05:23:58Z</time></trkpt><trkpt lat="45.12944255956147" lon="10.001003649434512"><ele>39.0</ele><time>2026-04-25T05:24:00Z</time></trkpt><trkpt lat="45.129527746911606" lon="10.001066362074763"><ele>39.0</ele><time>2026-04-25T05:24:02Z</time></trkpt><trkpt lat="45.12961154237053" lon="10.001117278733128"><ele>39.0</ele><time>2026-04-25T05:24:04Z</time></trkpt><trkpt lat="45.12969294286677" lon="10.001169714116195"><ele>39.0</ele><time>2026-04-25T05:24:06Z</time></trkpt><trkpt lat="45.1297706665483" lon="10.00122818193122"><ele>39.0</ele><time>2026-04-25T05:24:08Z</time></trkpt><trkpt lat="45.1298463508075" lon="10.001283193744987"><ele>39.0</ele><time>2026-04-25T05:24:09.999Z</time></trkpt><trkpt lat="45.12991915605047" lon="10.001337128602124"><ele>39.0</ele><time>2026-04-25T05:24:11.999Z</time></trkpt><trkpt lat="45.12998984994827" lon="10.001385745148522"><ele>39.0</ele><time>2026-04-25T05:24:13.999Z</time></trkpt><trkpt lat="45.13004423799764" lon="10.001465103118779"><ele>39.0</ele><time>2026-04-25T05:24:16.999Z</time></trkpt><trkpt lat="45.13003968963773" lon="10.001367859294431"><ele>39.0</ele><time>2026-04-25T05:30:30.999Z</time></trkpt><trkpt lat="45.130106881131944" lon="10.001315775116552"><ele>39.142857142857146</ele><time>2026-04-25T05:30:33.999Z</time></trkpt><trkpt lat="45.130165287525" lon="10.001282325169397"><ele>39.285714285714285</ele><time>2026-04-25T05:30:36.999Z</time></trkpt><trkpt lat="45.130211127994485" lon="10.001183081545008"><ele>39.42857142857143</ele><time>2026-04-25T05:30:39.999Z</time></trkpt><trkpt lat="45.13024992672127" lon="10.001096471076552"><ele>39.57142857142857</ele><time>2026-04-25T05:30:41.999Z</time></trkpt><trkpt lat="45.13028769168911" lon="10.001001182031661"><ele>39.714285714285715</ele><time>2026-04-25T05:30:43.999Z</time></trkpt><trkpt lat="45.130321046267696" lon="10.000909585226417"><ele>39.857142857142854</ele><time>2026-04-25T05:30:45.999Z</time></trkpt><trkpt lat="45.130349763387976" lon="10.000826316493743"><ele>40.0</ele><time>2026-04-25T05:30:47.999Z</time></trkpt><trkpt lat="45.130391678085196" lon="10.000742132158248"><ele>40.16666666666667</ele><time>2026-04-25T05:30:49.999Z</time></trkpt><trkpt lat="45.130417519579254" lon="10.000635527528411"><ele>40.333333333333336</ele><time>2026-04-25T05:30:51.999Z</time></trkpt><trkpt lat="45.130434019387714" lon="10.000515699858378"><ele>40.5</ele><time>2026-04-25T05:30:53.999Z</time></trkpt><trkpt lat="45.13044519013615" lon="10.00039643227903"><ele>40.666666666666664</ele><time>2026-04-25T05:30:55.999Z</time></trkpt><trkpt lat="45.13044075660378" lon="10.000289631443088"><ele>40.83333333333333</ele><time>2026-04-25T05:30:57.999Z</time></trkpt><trkpt lat="45.130428863952886" lon="10.000177756813152"><ele>41.0</ele><time>2026-04-25T05:30:59.999Z</time></trkpt><trkpt lat="45.1304101719266" lon="10.000049789047953"><ele>41.0</ele><time>2026-04-25T05:31:01.999Z</time></trkpt><trkpt lat="45.13039719176043" lon="9.999914832435724"><ele>41.0</ele><time>2026-04-25T05:31:03.999Z</time></trkpt><trkpt lat="45.130383538553524" lon="9.999782194002714"><ele>41.0</ele><time>2026-04-25T05:31:05.999Z</time></trkpt><trkpt lat="45.13037313155474" lon="9.999647155484793"><ele>41.0</ele><time>2026-04-25T05:31:07.999Z</time></trkpt><trkpt lat="45.13035941599402" lon="9.999511059512473"><ele>41.0</ele><time>2026-04-25T05:31:09.999Z</time></trkpt><trkpt lat="45.13034126037503" lon="9.99937637986107"><ele>41.0</ele><time>2026-04-25T05:31:11.999Z</time></trkpt><trkpt lat="45.130325960901274" lon="9.999240165526258"><ele>41.0</ele><time>2026-04-25T05:31:13.999Z</time></trkpt><trkpt lat="45.13030540441526" lon="9.999100103603084"><ele>41.0</ele><time>2026-04-25T05:31:15.998Z</time></trkpt><trkpt lat="45.1302935015473" lon="9.998956211119497"><ele>41.0</ele><time>2026-04-25T05:31:17.998Z</time></trkpt><trkpt lat="45.130277442521084" lon="9.998813193768349"><ele>41.0</ele><time>2026-04-25T05:31:19.998Z</time></trkpt><trkpt lat="45.13032647459553" lon="9.998730126431012"><ele>41.0</ele><time>2026-04-25T05:31:20.998Z</time></trkpt><trkpt lat="45.130310561757426" lon="9.998584386193961"><ele>41.0</ele><time>2026-04-25T05:31:22.998Z</time></trkpt><trkpt lat="45.130294843441526" lon="9.998439514114773"><ele>41.0</ele><time>2026-04-25T05:31:24.998Z</time></trkpt><trkpt lat="45.130279021533084" lon="9.998293869159303"><ele>41.0</ele><time>2026-04-25T05:31:26.998Z</time></trkpt><trkpt lat="45.13026361626908" lon="9.998152059353309"><ele>41.0</ele><time>2026-04-25T05:31:28.998Z</time></trkpt><trkpt lat="45.130248412404896" lon="9.998012103589666"><ele>40.8</ele><time>2026-04-25T05:31:30.998Z</time></trkpt><trkpt lat="45.13023205903728" lon="9.997861028971315"><ele>40.599999999999994</ele><time>2026-04-25T05:31:32.998Z</time></trkpt><trkpt lat="45.130214838891256" lon="9.997701860892919"><ele>40.4</ele><time>2026-04-25T05:31:34.998Z</time></trkpt><trkpt lat="45.13019765943685" lon="9.997543000059702"><ele>40.2</ele><time>2026-04-25T05:31:36.998Z</time></trkpt><trkpt lat="45.13012213861892" lon="9.997480284117152"><ele>40.0</ele><time>2026-04-25T05:31:37.998Z</time></trkpt><trkpt lat="45.13010670941539" lon="9.997328448921092"><ele>40.0</ele><time>2026-04-25T05:31:39.998Z</time></trkpt><trkpt lat="45.130079765178195" lon="9.99718249620201"><ele>40.0</ele><time>2026-04-25T05:31:41.998Z</time></trkpt><trkpt lat="45.13005193148496" lon="9.997039273312305"><ele>40.0</ele><time>2026-04-25T05:31:43.998Z</time></trkpt><trkpt lat="45.130036292536765" lon="9.996887087087156"><ele>40.0</ele><time>2026-04-25T05:31:46Z</time></trkpt><trkpt lat="45.13002297330619" lon="9.996738905667634"><ele>40.0</ele><time>2026-04-25T05:31:48Z</time></trkpt><trkpt lat="45.13000411843172" lon="9.996594433164583"><ele>39.6</ele><time>2026-04-25T05:31:50Z</time></trkpt><trkpt lat="45.12998160210649" lon="9.9964485176694"><ele>39.2</ele><time>2026-04-25T05:31:52Z</time></trkpt><trkpt lat="45.12994089349113" lon="9.99631920582745"><ele>38.8</ele><time>2026-04-25T05:31:54Z</time></trkpt><trkpt lat="45.12989383835225" lon="9.996195972692679"><ele>38.4</ele><time>2026-04-25T05:31:56Z</time></trkpt><trkpt lat="45.12982700619272" lon="9.99608564157159"><ele>38.0</ele><time>2026-04-25T05:31:58Z</time></trkpt><trkpt lat="45.12978099670079" lon="9.99602460860806"><ele>38.0</ele><time>2026-04-25T05:32:00Z</time></trkpt><trkpt lat="45.129725371510546" lon="9.995976253970046"><ele>38.0</ele><time>2026-04-25T05:32:02Z</time></trkpt><trkpt lat="45.12964646360928" lon="9.995877745934123"><ele>38.0</ele><time>2026-04-25T05:32:03Z</time></trkpt><trkpt lat="45.129563404671494" lon="9.995809268298371"><ele>38.0</ele><time>2026-04-25T05:32:05Z</time></trkpt><trkpt lat="45.12947596542633" lon="9.995730625022738"><ele>38.0</ele><time>2026-04-25T05:32:07Z</time></trkpt><trkpt lat="45.1294132287058" lon="9.995587249576927"><ele>37.4</ele><time>2026-04-25T05:32:09Z</time></trkpt><trkpt lat="45.12932970965346" lon="9.995515623009476"><ele>36.8</ele><time>2026-04-25T05:32:11Z</time></trkpt><trkpt lat="45.129242172521806" lon="9.995440550505977"><ele>36.2</ele><time>2026-04-25T05:32:13Z</time></trkpt><trkpt lat="45.12915076645944" lon="9.995362160010574"><ele>35.6</ele><time>2026-04-25T05:32:15Z</time></trkpt><trkpt lat="45.129060956951996" lon="9.995285138662538"><ele>35.0</ele><time>2026-04-25T05:32:17Z</time></trkpt><trkpt lat="45.12896698109975" lon="9.995204544320936"><ele>34.6</ele><time>2026-04-25T05:32:19Z</time></trkpt><trkpt lat="45.12886318996134" lon="9.99511553227954"><ele>34.2</ele><time>2026-04-25T05:32:21Z</time></trkpt><trkpt lat="45.12877176388797" lon="9.99503712465042"><ele>33.8</ele><time>2026-04-25T05:32:23Z</time></trkpt><trkpt lat="45.12868347568161" lon="9.994960871875708"><ele>33.4</ele><time>2026-04-25T05:32:25Z</time></trkpt><trkpt lat="45.12859083053131" lon="9.99488037531046"><ele>33.0</ele><time>2026-04-25T05:32:27Z</time></trkpt><trkpt lat="45.12850088913245" lon="9.99480222801184"><ele>31.75</ele><time>2026-04-25T05:32:28.999Z</time></trkpt><trkpt lat="45.128367831279306" lon="9.994686618000523"><ele>30.5</ele><time>2026-04-25T05:32:31.999Z</time></trkpt><trkpt lat="45.12827185293587" lon="9.994603864584104"><ele>29.25</ele><time>2026-04-25T05:32:33.999Z</time></trkpt><trkpt lat="45.12817707142579" lon="9.994522289340509"><ele>28.0</ele><time>2026-04-25T05:32:35.999Z</time></trkpt><trkpt lat="45.12808398729181" lon="9.994442174765798"><ele>28.0</ele><time>2026-04-25T05:32:37.999Z</time></trkpt><trkpt lat="45.12798990046552" lon="9.994361231965076"><ele>28.0</ele><time>2026-04-25T05:32:39.999Z</time></trkpt><trkpt lat="45.12789414945379" lon="9.994279038529825"><ele>28.0</ele><time>2026-04-25T05:32:41.999Z</time></trkpt><trkpt lat="45.127795484852776" lon="9.99419427367576"><ele>28.0</ele><time>2026-04-25T05:32:43.999Z</time></trkpt><trkpt lat="45.12769115829699" lon="9.994104302445098"><ele>28.0</ele><time>2026-04-25T05:32:45.999Z</time></trkpt><trkpt lat="45.12759727351924" lon="9.994023335997717"><ele>28.0</ele><time>2026-04-25T05:32:47.999Z</time></trkpt><trkpt lat="45.12749853138453" lon="9.993938180722298"><ele>28.0</ele><time>2026-04-25T05:32:49.999Z</time></trkpt><trkpt lat="45.127385753526745" lon="9.993840921079316"><ele>28.0</ele><time>2026-04-25T05:32:51.999Z</time></trkpt><trkpt lat="45.127292603448446" lon="9.99376058830759"><ele>30.25</ele><time>2026-04-25T05:32:53.999Z</time></trkpt><trkpt lat="45.127194237553" lon="9.993675757474373"><ele>32.5</ele><time>2026-04-25T05:32:55.999Z</time></trkpt><trkpt lat="45.12709289063857" lon="9.993588572769845"><ele>34.75</ele><time>2026-04-25T05:32:57.999Z</time></trkpt><trkpt lat="45.12699408940976" lon="9.993503693944575"><ele>37.0</ele><time>2026-04-25T05:32:59.999Z</time></trkpt><trkpt lat="45.12689338399622" lon="9.993417014124217"><ele>37.5</ele><time>2026-04-25T05:33:01.999Z</time></trkpt><trkpt lat="45.12679522247883" lon="9.99333161933708"><ele>38.0</ele><time>2026-04-25T05:33:03.999Z</time></trkpt><trkpt lat="45.12669443664215" lon="9.993243941411652"><ele>38.5</ele><time>2026-04-25T05:33:05.999Z</time></trkpt><trkpt lat="45.126595907406156" lon="9.993158243112127"><ele>39.0</ele><time>2026-04-25T05:33:07.999Z</time></trkpt><trkpt lat="45.12649518625575" lon="9.993071920417991"><ele>39.0</ele><time>2026-04-25T05:33:09.999Z</time></trkpt><trkpt lat="45.12639774620132" lon="9.992988409705532"><ele>39.0</ele><time>2026-04-25T05:33:11.999Z</time></trkpt><trkpt lat="45.126298112900685" lon="9.992903019383538"><ele>39.0</ele><time>2026-04-25T05:33:13.999Z</time></trkpt><trkpt lat="45.12619966869877" lon="9.99281864808349"><ele>39.0</ele><time>2026-04-25T05:33:15.999Z</time></trkpt><trkpt lat="45.12610169159924" lon="9.99273467713153"><ele>39.0</ele><time>2026-04-25T05:33:17.999Z</time></trkpt><trkpt lat="45.12600610787418" lon="9.992652757387358"><ele>39.0</ele><time>2026-04-25T05:33:19.999Z</time></trkpt><trkpt lat="45.12590857140068" lon="9.992569164095698"><ele>39.0</ele><time>2026-04-25T05:33:21.999Z</time></trkpt><trkpt lat="45.12580807404178" lon="9.99248303322716"><ele>39.0</ele><time>2026-04-25T05:33:23.998Z</time></trkpt><trkpt lat="45.12570456084009" lon="9.992394328550294"><ele>39.5</ele><time>2026-04-25T05:33:25.998Z</time></trkpt><trkpt lat="45.12560352972484" lon="9.992308281624258"><ele>40.0</ele><time>2026-04-25T05:33:27.998Z</time></trkpt><trkpt lat="45.125499939727476" lon="9.992220055452092"><ele>40.5</ele><time>2026-04-25T05:33:29.998Z</time></trkpt><trkpt lat="45.125402497989974" lon="9.99213517795035"><ele>41.0</ele><time>2026-04-25T05:33:31.998Z</time></trkpt><trkpt lat="45.125305848534204" lon="9.99205055304329"><ele>41.0</ele><time>2026-04-25T05:33:33.998Z</time></trkpt><trkpt lat="45.125207020188256" lon="9.991964020218996"><ele>41.0</ele><time>2026-04-25T05:33:35.998Z</time></trkpt><trkpt lat="45.12510503887435" lon="9.991875499378967"><ele>41.0</ele><time>2026-04-25T05:33:37.998Z</time></trkpt><trkpt lat="45.12500367701307" lon="9.991788994862809"><ele>41.0</ele><time>2026-04-25T05:33:39.998Z</time></trkpt><trkpt lat="45.12490421881409" lon="9.991704116460967"><ele>40.5</ele><time>2026-04-25T05:33:41.998Z</time></trkpt><trkpt lat="45.124804720519954" lon="9.991618085598375"><ele>40.0</ele><time>2026-04-25T05:33:43.998Z</time></trkpt><trkpt lat="45.12470591472806" lon="9.991532099136608"><ele>39.5</ele><time>2026-04-25T05:33:45.998Z</time></trkpt><trkpt lat="45.12460784166173" lon="9.9914469440618"><ele>39.0</ele><time>2026-04-25T05:33:47.998Z</time></trkpt><trkpt lat="45.124507912895226" lon="9.991361046048898"><ele>39.0</ele><time>2026-04-25T05:33:49.998Z</time></trkpt><trkpt lat="45.12440797430643" lon="9.991275139773125"><ele>39.0</ele><time>2026-04-25T05:33:52Z</time></trkpt><trkpt lat="45.124311145307004" lon="9.991191906493093"><ele>39.0</ele><time>2026-04-25T05:33:54Z</time></trkpt><trkpt lat="45.124211063593336" lon="9.991105876983042"><ele>39.0</ele><time>2026-04-25T05:33:56Z</time></trkpt><trkpt lat="45.12410956383377" lon="9.991018354916518"><ele>39.25</ele><time>2026-04-25T05:33:58Z</time></trkpt><trkpt lat="45.12401163102941" lon="9.990933876506363"><ele>39.5</ele><time>2026-04-25T05:34:00Z</time></trkpt><trkpt lat="45.123910476932224" lon="9.9908466194818"><ele>39.75</ele><time>2026-04-25T05:34:02Z</time></trkpt><trkpt lat="45.12380964093104" lon="9.990759636743245"><ele>40.0</ele><time>2026-04-25T05:34:04Z</time></trkpt><trkpt lat="45.123710874304955" lon="9.990674439077736"><ele>40.0</ele><time>2026-04-25T05:34:06Z</time></trkpt><trkpt lat="45.123610030546075" lon="9.99058744955833"><ele>40.0</ele><time>2026-04-25T05:34:08Z</time></trkpt><trkpt lat="45.12351219055526" lon="9.990503051402351"><ele>40.0</ele><time>2026-04-25T05:34:10Z</time></trkpt><trkpt lat="45.12341498212776" lon="9.990419197690185"><ele>40.0</ele><time>2026-04-25T05:34:12Z</time></trkpt><trkpt lat="45.123314860866145" lon="9.990332290796138"><ele>40.0</ele><time>2026-04-25T05:34:14Z</time></trkpt><trkpt lat="45.123215993061635" lon="9.990246454440175"><ele>40.0</ele><time>2026-04-25T05:34:16Z</time></trkpt><trkpt lat="45.123115395426346" lon="9.990159115845678"><ele>40.0</ele><time>2026-04-25T05:34:18Z</time></trkpt><trkpt lat="45.123014865951774" lon="9.990071836547376"><ele>40.0</ele><time>2026-04-25T05:34:20Z</time></trkpt><trkpt lat="45.122914113582844" lon="9.98998461693905"><ele>40.0</ele><time>2026-04-25T05:34:22Z</time></trkpt><trkpt lat="45.12281560324046" lon="9.989899893250714"><ele>40.0</ele><time>2026-04-25T05:34:24Z</time></trkpt><trkpt lat="45.1227169783116" lon="9.989815070931185"><ele>40.0</ele><time>2026-04-25T05:34:26Z</time></trkpt><trkpt lat="45.12261425260563" lon="9.989726721954032"><ele>40.0</ele><time>2026-04-25T05:34:28Z</time></trkpt><trkpt lat="45.12251517854772" lon="9.989641513410628"><ele>40.0</ele><time>2026-04-25T05:34:30Z</time></trkpt><trkpt lat="45.12242134596477" lon="9.989559223305962"><ele>40.0</ele><time>2026-04-25T05:34:31.999Z</time></trkpt><trkpt lat="45.12232212450907" lon="9.98947065634134"><ele>40.0</ele><time>2026-04-25T05:34:33.999Z</time></trkpt><trkpt lat="45.12222398229242" lon="9.989389667494063"><ele>40.0</ele><time>2026-04-25T05:34:35.999Z</time></trkpt><trkpt lat="45.122132812272255" lon="9.989320978022635"><ele>40.0</ele><time>2026-04-25T05:34:37.999Z</time></trkpt><trkpt lat="45.1220346550698" lon="9.989248753519236"><ele>39.8</ele><time>2026-04-25T05:34:39.999Z</time></trkpt><trkpt lat="45.12197440568896" lon="9.989212778109891"><ele>39.6</ele><time>2026-04-25T05:34:40.999Z</time></trkpt><trkpt lat="45.12191102260905" lon="9.989187248763887"><ele>39.4</ele><time>2026-04-25T05:34:41.999Z</time></trkpt><trkpt lat="45.12178844555201" lon="9.989158919493061"><ele>39.2</ele><time>2026-04-25T05:34:43.999Z</time></trkpt><trkpt lat="45.121668891149284" lon="9.989156253248971"><ele>39.0</ele><time>2026-04-25T05:34:45.999Z</time></trkpt><trkpt lat="45.121546817494405" lon="9.98918603761404"><ele>38.4</ele><time>2026-04-25T05:34:47.999Z</time></trkpt><trkpt lat="45.1214354722998" lon="9.989242059111195"><ele>37.8</ele><time>2026-04-25T05:34:49.999Z</time></trkpt><trkpt lat="45.121338635372005" lon="9.989298277486073"><ele>37.2</ele><time>2026-04-25T05:34:51.999Z</time></trkpt><trkpt lat="45.121243752063386" lon="9.989354234276147"><ele>36.6</ele><time>2026-04-25T05:34:53.999Z</time></trkpt><trkpt lat="45.12115120324867" lon="9.989409971676412"><ele>36.0</ele><time>2026-04-25T05:34:55.999Z</time></trkpt><trkpt lat="45.121091134261356" lon="9.989553361310346"><ele>36.0</ele><time>2026-04-25T05:34:57.999Z</time></trkpt><trkpt lat="45.12100646631584" lon="9.989603182444023"><ele>36.0</ele><time>2026-04-25T05:34:59.999Z</time></trkpt><trkpt lat="45.120927686170546" lon="9.989655803853418"><ele>36.0</ele><time>2026-04-25T05:35:01.999Z</time></trkpt><trkpt lat="45.1208487022808" lon="9.98967863729058"><ele>36.0</ele><time>2026-04-25T05:35:03.999Z</time></trkpt><trkpt lat="45.12076424437131" lon="9.989683208851577"><ele>36.0</ele><time>2026-04-25T05:35:05.999Z</time></trkpt><trkpt lat="45.120655530957706" lon="9.989684097493038"><ele>36.5</ele><time>2026-04-25T05:35:07.999Z</time></trkpt><trkpt lat="45.120538153586644" lon="9.989736278481894"><ele>37.0</ele><time>2026-04-25T05:35:09.999Z</time></trkpt><trkpt lat="45.12042391852232" lon="9.989810050370602"><ele>37.5</ele><time>2026-04-25T05:35:11.999Z</time></trkpt><trkpt lat="45.12036216599214" lon="9.989843765579339"><ele>38.0</ele><time>2026-04-25T05:35:12.999Z</time></trkpt><trkpt lat="45.12030321369795" lon="9.989881012403927"><ele>38.5</ele><time>2026-04-25T05:35:13.999Z</time></trkpt><trkpt lat="45.12024242771639" lon="9.98991873685162"><ele>39.0</ele><time>2026-04-25T05:35:14.999Z</time></trkpt><trkpt lat="45.120181794706305" lon="9.989953429593328"><ele>39.0</ele><time>2026-04-25T05:35:15.999Z</time></trkpt><trkpt lat="45.12012317782146" lon="9.989986783611828"><ele>39.0</ele><time>2026-04-25T05:35:16.999Z</time></trkpt><trkpt lat="45.12001137982159" lon="9.990055871368826"><ele>39.0</ele><time>2026-04-25T05:35:18.999Z</time></trkpt><trkpt lat="45.11995344553683" lon="9.990092941183198"><ele>39.0</ele><time>2026-04-25T05:35:19.999Z</time></trkpt><trkpt lat="45.119891291226494" lon="9.99013191335233"><ele>39.0</ele><time>2026-04-25T05:35:20.999Z</time></trkpt><trkpt lat="45.11983160555124" lon="9.990172695932511"><ele>39.0</ele><time>2026-04-25T05:35:21.999Z</time></trkpt><trkpt lat="45.11976822005098" lon="9.990210687706313"><ele>38.57142857142858</ele><time>2026-04-25T05:35:22.999Z</time></trkpt><trkpt lat="45.119705801290856" lon="9.990246865234718"><ele>38.14285714285714</ele><time>2026-04-25T05:35:23.999Z</time></trkpt><trkpt lat="45.11964312858266" lon="9.990284297807207"><ele>37.714285714285715</ele><time>2026-04-25T05:35:24.999Z</time></trkpt><trkpt lat="45.119579969610854" lon="9.990321065875726"><ele>37.28571428571429</ele><time>2026-04-25T05:35:25.998Z</time></trkpt><trkpt lat="45.11951806918951" lon="9.990358281537457"><ele>36.85714285714286</ele><time>2026-04-25T05:35:26.998Z</time></trkpt><trkpt lat="45.11945544863118" lon="9.990396777747309"><ele>36.42857142857143</ele><time>2026-04-25T05:35:27.998Z</time></trkpt><trkpt lat="45.11939283728931" lon="9.990435777479957"><ele>36.0</ele><time>2026-04-25T05:35:28.998Z</time></trkpt><trkpt lat="45.11932975375827" lon="9.990473829170478"><ele>36.00000000000001</ele><time>2026-04-25T05:35:29.998Z</time></trkpt><trkpt lat="45.119266500229884" lon="9.990510123174301"><ele>36.0</ele><time>2026-04-25T05:35:30.998Z</time></trkpt><trkpt lat="45.11920304391539" lon="9.990546634135447"><ele>36.0</ele><time>2026-04-25T05:35:31.998Z</time></trkpt><trkpt lat="45.11914065502681" lon="9.990584048253066"><ele>36.0</ele><time>2026-04-25T05:35:32.998Z</time></trkpt><trkpt lat="45.11907815391634" lon="9.990622918254024"><ele>36.0</ele><time>2026-04-25T05:35:33.998Z</time></trkpt><trkpt lat="45.11901591600124" lon="9.990663419946618"><ele>36.00000000000001</ele><time>2026-04-25T05:35:34.998Z</time></trkpt><trkpt lat="45.11895261590676" lon="9.990701151662496"><ele>36.0</ele><time>2026-04-25T05:35:35.998Z</time></trkpt><trkpt lat="45.11889038894825" lon="9.990740214221704"><ele>36.00000000000001</ele><time>2026-04-25T05:35:36.998Z</time></trkpt><trkpt lat="45.11882693602251" lon="9.990778082071278"><ele>36.0</ele><time>2026-04-25T05:35:37.998Z</time></trkpt><trkpt lat="45.11876397381801" lon="9.990815426440282"><ele>36.0</ele><time>2026-04-25T05:35:38.998Z</time></trkpt><trkpt lat="45.11870009698072" lon="9.990852073485717"><ele>36.0</ele><time>2026-04-25T05:35:39.998Z</time></trkpt><trkpt lat="45.11863747846377" lon="9.99089142159798"><ele>36.0</ele><time>2026-04-25T05:35:40.998Z</time></trkpt><trkpt lat="45.11857462019666" lon="9.990931908106035"><ele>36.00000000000001</ele><time>2026-04-25T05:35:41.998Z</time></trkpt><trkpt lat="45.118509374389035" lon="9.990971453202972"><ele>36.0</ele><time>2026-04-25T05:35:42.998Z</time></trkpt><trkpt lat="45.118445672468475" lon="9.991010414786434"><ele>35.714285714285715</ele><time>2026-04-25T05:35:43.998Z</time></trkpt><trkpt lat="45.11838091434918" lon="9.991048656019881"><ele>35.42857142857143</ele><time>2026-04-25T05:35:44.998Z</time></trkpt><trkpt lat="45.11831737690775" lon="9.99108805261534"><ele>35.14285714285714</ele><time>2026-04-25T05:35:45.998Z</time></trkpt><trkpt lat="45.118252509476115" lon="9.991127616559616"><ele>34.85714285714286</ele><time>2026-04-25T05:35:46.998Z</time></trkpt><trkpt lat="45.118188410959604" lon="9.991167131208073"><ele>34.57142857142857</ele><time>2026-04-25T05:35:47.998Z</time></trkpt><trkpt lat="45.11812346628467" lon="9.991205277692693"><ele>34.285714285714285</ele><time>2026-04-25T05:35:48.998Z</time></trkpt><trkpt lat="45.118059399912816" lon="9.99124370810947"><ele>34.0</ele><time>2026-04-25T05:35:49.998Z</time></trkpt><trkpt lat="45.117995289143025" lon="9.991282933081283"><ele>34.71428571428571</ele><time>2026-04-25T05:35:50.998Z</time></trkpt><trkpt lat="45.117931423110306" lon="9.991324909545238"><ele>35.42857142857143</ele><time>2026-04-25T05:35:51.998Z</time></trkpt><trkpt lat="45.11786827257115" lon="9.99136427063535"><ele>36.14285714285714</ele><time>2026-04-25T05:35:52.998Z</time></trkpt><trkpt lat="45.11780456653021" lon="9.991401814364059"><ele>36.857142857142854</ele><time>2026-04-25T05:35:53.998Z</time></trkpt><trkpt lat="45.11774152512269" lon="9.991439884615005"><ele>37.57142857142857</ele><time>2026-04-25T05:35:54.998Z</time></trkpt><trkpt lat="45.11767931114663" lon="9.99147846890917"><ele>38.285714285714285</ele><time>2026-04-25T05:35:55.998Z</time></trkpt><trkpt lat="45.11761553002237" lon="9.991515430707137"><ele>39.0</ele><time>2026-04-25T05:35:57Z</time></trkpt><trkpt lat="45.11755086523442" lon="9.991552463349961"><ele>39.0</ele><time>2026-04-25T05:35:58Z</time></trkpt><trkpt lat="45.117488033264536" lon="9.991589208074954"><ele>39.0</ele><time>2026-04-25T05:35:59Z</time></trkpt><trkpt lat="45.117422607118016" lon="9.991627403012426"><ele>39.0</ele><time>2026-04-25T05:36:00Z</time></trkpt><trkpt lat="45.11735771832779" lon="9.991666922984301"><ele>39.0</ele><time>2026-04-25T05:36:01Z</time></trkpt><trkpt lat="45.117294947300245" lon="9.99170572509063"><ele>39.0</ele><time>2026-04-25T05:36:02Z</time></trkpt><trkpt lat="45.117229686379545" lon="9.991743149352807"><ele>39.0</ele><time>2026-04-25T05:36:03Z</time></trkpt><trkpt lat="45.11716365641606" lon="9.991781877249032"><ele>39.0</ele><time>2026-04-25T05:36:04Z</time></trkpt><trkpt lat="45.11710122940567" lon="9.991821759420606"><ele>39.0</ele><time>2026-04-25T05:36:05Z</time></trkpt><trkpt lat="45.1170349903736" lon="9.991858775261251"><ele>39.0</ele><time>2026-04-25T05:36:06Z</time></trkpt><trkpt lat="45.116969944890805" lon="9.99189466772637"><ele>39.0</ele><time>2026-04-25T05:36:07Z</time></trkpt><trkpt lat="45.11690449760269" lon="9.991938633269232"><ele>39.0</ele><time>2026-04-25T05:36:08Z</time></trkpt><trkpt lat="45.11684081288045" lon="9.991983463121274"><ele>39.0</ele><time>2026-04-25T05:36:09Z</time></trkpt><trkpt lat="45.11677367187479" lon="9.992019863385837"><ele>39.0</ele><time>2026-04-25T05:36:10Z</time></trkpt><trkpt lat="45.116707178995476" lon="9.992060887028247"><ele>39.0</ele><time>2026-04-25T05:36:11Z</time></trkpt><trkpt lat="45.11664202291248" lon="9.992099992611772"><ele>39.0</ele><time>2026-04-25T05:36:12Z</time></trkpt><trkpt lat="45.116576376326414" lon="9.99213926393212"><ele>39.0</ele><time>2026-04-25T05:36:13Z</time></trkpt><trkpt lat="45.1165097130661" lon="9.992177784409733"><ele>39.0</ele><time>2026-04-25T05:36:14Z</time></trkpt><trkpt lat="45.11644194732181" lon="9.992218142923132"><ele>39.0</ele><time>2026-04-25T05:36:15Z</time></trkpt><trkpt lat="45.11637627548862" lon="9.99225810571115"><ele>39.0</ele><time>2026-04-25T05:36:16Z</time></trkpt><trkpt lat="45.11630911547106" lon="9.99230023660521"><ele>39.0</ele><time>2026-04-25T05:36:17Z</time></trkpt><trkpt lat="45.11624288273261" lon="9.992342358526193"><ele>39.0</ele><time>2026-04-25T05:36:18Z</time></trkpt><trkpt lat="45.116175765461065" lon="9.992381966797097"><ele>39.0</ele><time>2026-04-25T05:36:19Z</time></trkpt><trkpt lat="45.116106889484136" lon="9.992418029770446"><ele>39.0</ele><time>2026-04-25T05:36:20Z</time></trkpt><trkpt lat="45.11603977610699" lon="9.99245670932227"><ele>39.0</ele><time>2026-04-25T05:36:21Z</time></trkpt><trkpt lat="45.115972724201804" lon="9.992497453311099"><ele>39.0</ele><time>2026-04-25T05:36:22Z</time></trkpt><trkpt lat="45.115904870012784" lon="9.992535847498031"><ele>39.0</ele><time>2026-04-25T05:36:23Z</time></trkpt><trkpt lat="45.11583948413501" lon="9.992576374667111"><ele>39.0</ele><time>2026-04-25T05:36:24Z</time></trkpt><trkpt lat="45.11577304200647" lon="9.992617699638677"><ele>39.0</ele><time>2026-04-25T05:36:25Z</time></trkpt><trkpt lat="45.115705877283126" lon="9.992659607188708"><ele>39.142857142857146</ele><time>2026-04-25T05:36:26Z</time></trkpt><trkpt lat="45.11563736580246" lon="9.992700566353376"><ele>39.285714285714285</ele><time>2026-04-25T05:36:27Z</time></trkpt><trkpt lat="45.11556902207859" lon="9.992736671389514"><ele>39.42857142857143</ele><time>2026-04-25T05:36:28Z</time></trkpt><trkpt lat="45.1155013709251" lon="9.99277788656792"><ele>39.57142857142857</ele><time>2026-04-25T05:36:29Z</time></trkpt><trkpt lat="45.11543515521365" lon="9.992819028191262"><ele>39.714285714285715</ele><time>2026-04-25T05:36:30Z</time></trkpt><trkpt lat="45.115367562682025" lon="9.99285873745626"><ele>39.857142857142854</ele><time>2026-04-25T05:36:31Z</time></trkpt><trkpt lat="45.115302680198326" lon="9.99290211887201"><ele>40.0</ele><time>2026-04-25T05:36:32Z</time></trkpt><trkpt lat="45.1152346523626" lon="9.992940783232548"><ele>40.0</ele><time>2026-04-25T05:36:33Z</time></trkpt><trkpt lat="45.115168046755834" lon="9.992981957580186"><ele>40.0</ele><time>2026-04-25T05:36:34Z</time></trkpt><trkpt lat="45.115102612321856" lon="9.993021723626635"><ele>40.0</ele><time>2026-04-25T05:36:35Z</time></trkpt><trkpt lat="45.11503497974177" lon="9.993061793771519"><ele>40.0</ele><time>2026-04-25T05:36:35.999Z</time></trkpt><trkpt lat="45.11496786328226" lon="9.993101952588463"><ele>40.0</ele><time>2026-04-25T05:36:36.999Z</time></trkpt><trkpt lat="45.11490166015639" lon="9.993142509256815"><ele>40.0</ele><time>2026-04-25T05:36:37.999Z</time></trkpt><trkpt lat="45.114832961610944" lon="9.993181237319533"><ele>40.0</ele><time>2026-04-25T05:36:38.999Z</time></trkpt><trkpt lat="45.11476863648049" lon="9.99322447075489"><ele>39.857142857142854</ele><time>2026-04-25T05:36:39.999Z</time></trkpt><trkpt lat="45.11469914725699" lon="9.993261675967522"><ele>39.714285714285715</ele><time>2026-04-25T05:36:40.999Z</time></trkpt><trkpt lat="45.11463257036606" lon="9.993301695264828"><ele>39.57142857142857</ele><time>2026-04-25T05:36:41.999Z</time></trkpt><trkpt lat="45.11456513703675" lon="9.993340677266197"><ele>39.42857142857143</ele><time>2026-04-25T05:36:42.999Z</time></trkpt><trkpt lat="45.1145013652369" lon="9.993383368510974"><ele>39.285714285714285</ele><time>2026-04-25T05:36:43.999Z</time></trkpt><trkpt lat="45.114434545032005" lon="9.993422781856747"><ele>39.142857142857146</ele><time>2026-04-25T05:36:44.999Z</time></trkpt><trkpt lat="45.11436652454135" lon="9.99346202096487"><ele>39.0</ele><time>2026-04-25T05:36:45.999Z</time></trkpt><trkpt lat="45.11430095280015" lon="9.993501175886061"><ele>39.0</ele><time>2026-04-25T05:36:46.999Z</time></trkpt><trkpt lat="45.1142345067483" lon="9.993539783217772"><ele>39.0</ele><time>2026-04-25T05:36:47.999Z</time></trkpt><trkpt lat="45.1141684943807" lon="9.993578518659522"><ele>39.0</ele><time>2026-04-25T05:36:48.999Z</time></trkpt><trkpt lat="45.114101174082236" lon="9.993617088723125"><ele>39.0</ele><time>2026-04-25T05:36:49.999Z</time></trkpt><trkpt lat="45.11403498379237" lon="9.99365822811076"><ele>39.0</ele><time>2026-04-25T05:36:50.999Z</time></trkpt><trkpt lat="45.11396826697794" lon="9.993699738089102"><ele>39.0</ele><time>2026-04-25T05:36:51.999Z</time></trkpt><trkpt lat="45.113901681112225" lon="9.993741110130097"><ele>39.0</ele><time>2026-04-25T05:36:52.999Z</time></trkpt><trkpt lat="45.11383527789974" lon="9.99378326647854"><ele>39.0</ele><time>2026-04-25T05:36:53.999Z</time></trkpt><trkpt lat="45.11376880198575" lon="9.993819679868688"><ele>39.0</ele><time>2026-04-25T05:36:54.999Z</time></trkpt><trkpt lat="45.11370401176808" lon="9.993859935526144"><ele>39.0</ele><time>2026-04-25T05:36:55.999Z</time></trkpt><trkpt lat="45.11363736414153" lon="9.993895107889557"><ele>39.0</ele><time>2026-04-25T05:36:56.999Z</time></trkpt><trkpt lat="45.113568359999135" lon="9.993927630927608"><ele>39.0</ele><time>2026-04-25T05:36:57.999Z</time></trkpt><trkpt lat="45.11350103352466" lon="9.99396129118651"><ele>39.0</ele><time>2026-04-25T05:36:58.999Z</time></trkpt><trkpt lat="45.11343334060994" lon="9.99399741743715"><ele>39.0</ele><time>2026-04-25T05:36:59.999Z</time></trkpt><trkpt lat="45.1133664464494" lon="9.994034940037366"><ele>39.0</ele><time>2026-04-25T05:37:00.999Z</time></trkpt><trkpt lat="45.113299621983494" lon="9.994071871457756"><ele>39.0</ele><time>2026-04-25T05:37:01.999Z</time></trkpt><trkpt lat="45.113237766683575" lon="9.994112995682176"><ele>39.0</ele><time>2026-04-25T05:37:02.999Z</time></trkpt><trkpt lat="45.11317009622384" lon="9.994153781100186"><ele>39.0</ele><time>2026-04-25T05:37:03.999Z</time></trkpt><trkpt lat="45.11310160148384" lon="9.994191303484888"><ele>39.0</ele><time>2026-04-25T05:37:04.999Z</time></trkpt><trkpt lat="45.11303523602003" lon="9.994230991814927"><ele>39.0</ele><time>2026-04-25T05:37:05.999Z</time></trkpt><trkpt lat="45.11297101892609" lon="9.994275064117728"><ele>39.0</ele><time>2026-04-25T05:37:06.999Z</time></trkpt><trkpt lat="45.11290300423614" lon="9.99431634722797"><ele>39.142857142857146</ele><time>2026-04-25T05:37:07.999Z</time></trkpt><trkpt lat="45.11283670879557" lon="9.994357637579988"><ele>39.285714285714285</ele><time>2026-04-25T05:37:08.999Z</time></trkpt><trkpt lat="45.11276744463263" lon="9.994399278195248"><ele>39.42857142857143</ele><time>2026-04-25T05:37:09.999Z</time></trkpt><trkpt lat="45.112700949394736" lon="9.994444096272742"><ele>39.57142857142857</ele><time>2026-04-25T05:37:10.999Z</time></trkpt><trkpt lat="45.112631289174594" lon="9.99448397766982"><ele>39.714285714285715</ele><time>2026-04-25T05:37:11.999Z</time></trkpt><trkpt lat="45.11256425999104" lon="9.994528206588454"><ele>39.857142857142854</ele><time>2026-04-25T05:37:12.999Z</time></trkpt><trkpt lat="45.112494411111264" lon="9.994564459691608"><ele>40.0</ele><time>2026-04-25T05:37:13.999Z</time></trkpt><trkpt lat="45.11241965673466" lon="9.994582519956916"><ele>39.857142857142854</ele><time>2026-04-25T05:37:14.999Z</time></trkpt><trkpt lat="45.11234645599878" lon="9.994589940152322"><ele>39.714285714285715</ele><time>2026-04-25T05:37:15.999Z</time></trkpt><trkpt lat="45.11227175003435" lon="9.994588019743418"><ele>39.57142857142857</ele><time>2026-04-25T05:37:16.999Z</time></trkpt><trkpt lat="45.11220036059691" lon="9.994578611778852"><ele>39.42857142857143</ele><time>2026-04-25T05:37:17.999Z</time></trkpt><trkpt lat="45.11212662718453" lon="9.99455407816543"><ele>39.285714285714285</ele><time>2026-04-25T05:37:18.999Z</time></trkpt><trkpt lat="45.11205417068712" lon="9.994518371413287"><ele>39.142857142857146</ele><time>2026-04-25T05:37:19.999Z</time></trkpt><trkpt lat="45.11198602024683" lon="9.994470005279947"><ele>39.0</ele><time>2026-04-25T05:37:20.999Z</time></trkpt><trkpt lat="45.111922782745054" lon="9.994418837218795"><ele>39.0</ele><time>2026-04-25T05:37:21.999Z</time></trkpt><trkpt lat="45.11186172682665" lon="9.99436271680534"><ele>39.0</ele><time>2026-04-25T05:37:22.999Z</time></trkpt><trkpt lat="45.1118059723135" lon="9.994298108265854"><ele>39.0</ele><time>2026-04-25T05:37:23.999Z</time></trkpt><trkpt lat="45.11175033368661" lon="9.994236739455163"><ele>39.0</ele><time>2026-04-25T05:37:24.999Z</time></trkpt><trkpt lat="45.11169375600918" lon="9.994175559627928"><ele>39.0</ele><time>2026-04-25T05:37:25.999Z</time></trkpt><trkpt lat="45.1116364943466" lon="9.994112630830303"><ele>39.0</ele><time>2026-04-25T05:37:26.999Z</time></trkpt><trkpt lat="45.111577933476234" lon="9.994054413130605"><ele>39.0</ele><time>2026-04-25T05:37:27.999Z</time></trkpt><trkpt lat="45.111521218295465" lon="9.993991423625456"><ele>38.714285714285715</ele><time>2026-04-25T05:37:28.999Z</time></trkpt><trkpt lat="45.11146317432019" lon="9.993925639210186"><ele>38.42857142857142</ele><time>2026-04-25T05:37:29.998Z</time></trkpt><trkpt lat="45.111406106583345" lon="9.993864996875333"><ele>38.14285714285714</ele><time>2026-04-25T05:37:30.998Z</time></trkpt><trkpt lat="45.11134565710857" lon="9.993802896045793"><ele>37.85714285714286</ele><time>2026-04-25T05:37:31.998Z</time></trkpt><trkpt lat="45.11128782988964" lon="9.993741029181658"><ele>37.57142857142857</ele><time>2026-04-25T05:37:32.998Z</time></trkpt><trkpt lat="45.11122940520288" lon="9.993677159051703"><ele>37.285714285714285</ele><time>2026-04-25T05:37:33.998Z</time></trkpt><trkpt lat="45.11117287346994" lon="9.993614217544993"><ele>37.0</ele><time>2026-04-25T05:37:34.998Z</time></trkpt><trkpt lat="45.11111389039042" lon="9.993548930212837"><ele>37.0</ele><time>2026-04-25T05:37:35.998Z</time></trkpt><trkpt lat="45.11105406480408" lon="9.99348639362874"><ele>37.0</ele><time>2026-04-25T05:37:36.998Z</time></trkpt><trkpt lat="45.11099576109056" lon="9.993422635832989"><ele>37.0</ele><time>2026-04-25T05:37:37.998Z</time></trkpt><trkpt lat="45.11093756868335" lon="9.993359778820107"><ele>37.0</ele><time>2026-04-25T05:37:38.998Z</time></trkpt><trkpt lat="45.110878148004836" lon="9.993296943795453"><ele>37.0</ele><time>2026-04-25T05:37:39.998Z</time></trkpt><trkpt lat="45.11081945233372" lon="9.993233225857393"><ele>37.0</ele><time>2026-04-25T05:37:40.998Z</time></trkpt><trkpt lat="45.11076187360493" lon="9.993167838281655"><ele>37.0</ele><time>2026-04-25T05:37:41.998Z</time></trkpt><trkpt lat="45.11070378052078" lon="9.99310305243538"><ele>37.0</ele><time>2026-04-25T05:37:42.998Z</time></trkpt><trkpt lat="45.11064599799252" lon="9.993040354499023"><ele>37.0</ele><time>2026-04-25T05:37:43.998Z</time></trkpt><trkpt lat="45.11058718216085" lon="9.992976333681186"><ele>37.0</ele><time>2026-04-25T05:37:44.998Z</time></trkpt><trkpt lat="45.11052941798362" lon="9.992910610707476"><ele>37.0</ele><time>2026-04-25T05:37:45.998Z</time></trkpt><trkpt lat="45.11047241309261" lon="9.992848503889464"><ele>37.0</ele><time>2026-04-25T05:37:46.998Z</time></trkpt><trkpt lat="45.11041393410357" lon="9.99278538614514"><ele>37.0</ele><time>2026-04-25T05:37:47.998Z</time></trkpt><trkpt lat="45.110356677389156" lon="9.992721342294006"><ele>37.0</ele><time>2026-04-25T05:37:48.998Z</time></trkpt><trkpt lat="45.1102999318846" lon="9.992656481729448"><ele>37.0</ele><time>2026-04-25T05:37:49.998Z</time></trkpt><trkpt lat="45.11024409366499" lon="9.992594646248765"><ele>37.0</ele><time>2026-04-25T05:37:50.998Z</time></trkpt><trkpt lat="45.11018662144974" lon="9.992530036771836"><ele>37.0</ele><time>2026-04-25T05:37:51.998Z</time></trkpt><trkpt lat="45.11013055461981" lon="9.99247016074015"><ele>37.0</ele><time>2026-04-25T05:37:52.998Z</time></trkpt><trkpt lat="45.11007346486718" lon="9.992407350382813"><ele>37.0</ele><time>2026-04-25T05:37:53.998Z</time></trkpt><trkpt lat="45.110019228246074" lon="9.992345057302616"><ele>37.0</ele><time>2026-04-25T05:37:54.998Z</time></trkpt><trkpt lat="45.10996100995543" lon="9.992282202571655"><ele>37.0</ele><time>2026-04-25T05:37:55.998Z</time></trkpt><trkpt lat="45.10990625397161" lon="9.99222143976292"><ele>36.85714285714286</ele><time>2026-04-25T05:37:56.998Z</time></trkpt><trkpt lat="45.10985056833207" lon="9.992159023475091"><ele>36.714285714285715</ele><time>2026-04-25T05:37:57.998Z</time></trkpt><trkpt lat="45.10979380003724" lon="9.992100476871913"><ele>36.57142857142857</ele><time>2026-04-25T05:37:58.998Z</time></trkpt><trkpt lat="45.10973894356018" lon="9.992036451518514"><ele>36.42857142857143</ele><time>2026-04-25T05:37:59.998Z</time></trkpt><trkpt lat="45.109684795434895" lon="9.991975488383686"><ele>36.285714285714285</ele><time>2026-04-25T05:38:00.998Z</time></trkpt><trkpt lat="45.10963006391329" lon="9.99191486144317"><ele>36.142857142857146</ele><time>2026-04-25T05:38:01.998Z</time></trkpt><trkpt lat="45.10957260961965" lon="9.991855220906984"><ele>36.0</ele><time>2026-04-25T05:38:03Z</time></trkpt><trkpt lat="45.10951723669361" lon="9.991793701486111"><ele>36.0</ele><time>2026-04-25T05:38:04Z</time></trkpt><trkpt lat="45.10946017490818" lon="9.991730213299833"><ele>36.0</ele><time>2026-04-25T05:38:05Z</time></trkpt><trkpt lat="45.10940171167656" lon="9.991664750265253"><ele>36.0</ele><time>2026-04-25T05:38:06Z</time></trkpt><trkpt lat="45.10934197741275" lon="9.991594536337052"><ele>36.0</ele><time>2026-04-25T05:38:07Z</time></trkpt><trkpt lat="45.10928270067702" lon="9.991524530516154"><ele>36.0</ele><time>2026-04-25T05:38:08Z</time></trkpt><trkpt lat="45.109222528193655" lon="9.991455460907998"><ele>36.0</ele><time>2026-04-25T05:38:09Z</time></trkpt><trkpt lat="45.109159673830305" lon="9.991384182966154"><ele>36.5</ele><time>2026-04-25T05:38:10Z</time></trkpt><trkpt lat="45.10909914458894" lon="9.991313791900057"><ele>37.0</ele><time>2026-04-25T05:38:11Z</time></trkpt><trkpt lat="45.10903656569757" lon="9.991240706399235"><ele>37.5</ele><time>2026-04-25T05:38:12Z</time></trkpt><trkpt lat="45.108975541224055" lon="9.991168235942842"><ele>38.0</ele><time>2026-04-25T05:38:13Z</time></trkpt><trkpt lat="45.108912028080226" lon="9.99109813478639"><ele>38.5</ele><time>2026-04-25T05:38:14Z</time></trkpt><trkpt lat="45.10885270775805" lon="9.99102183148166"><ele>39.0</ele><time>2026-04-25T05:38:15Z</time></trkpt><trkpt lat="45.10879262400464" lon="9.990950606971648"><ele>39.0</ele><time>2026-04-25T05:38:16Z</time></trkpt><trkpt lat="45.108732767045936" lon="9.990880297202699"><ele>39.0</ele><time>2026-04-25T05:38:17Z</time></trkpt><trkpt lat="45.108672050742115" lon="9.990809501805755"><ele>39.0</ele><time>2026-04-25T05:38:18Z</time></trkpt><trkpt lat="45.10861369243288" lon="9.99073957787295"><ele>39.0</ele><time>2026-04-25T05:38:19Z</time></trkpt><trkpt lat="45.108556048478974" lon="9.990668796705402"><ele>39.0</ele><time>2026-04-25T05:38:20Z</time></trkpt><trkpt lat="45.108497033999654" lon="9.990603867812373"><ele>39.0</ele><time>2026-04-25T05:38:21Z</time></trkpt><trkpt lat="45.10844030986802" lon="9.990533506429687"><ele>39.0</ele><time>2026-04-25T05:38:22Z</time></trkpt><trkpt lat="45.10837957227326" lon="9.990463284341502"><ele>39.0</ele><time>2026-04-25T05:38:23Z</time></trkpt><trkpt lat="45.10832139020706" lon="9.990397503020233"><ele>39.0</ele><time>2026-04-25T05:38:24Z</time></trkpt><trkpt lat="45.10826036130944" lon="9.990331444557519"><ele>39.0</ele><time>2026-04-25T05:38:25Z</time></trkpt><trkpt lat="45.108202213236225" lon="9.990265858151702"><ele>39.0</ele><time>2026-04-25T05:38:26Z</time></trkpt><trkpt lat="45.10814496404354" lon="9.99019875804713"><ele>39.0</ele><time>2026-04-25T05:38:27Z</time></trkpt><trkpt lat="45.10808723621835" lon="9.990131256642918"><ele>39.0</ele><time>2026-04-25T05:38:28Z</time></trkpt><trkpt lat="45.10802936012333" lon="9.990065816106016"><ele>39.0</ele><time>2026-04-25T05:38:29Z</time></trkpt><trkpt lat="45.107972078550304" lon="9.98999836317064"><ele>39.0</ele><time>2026-04-25T05:38:30Z</time></trkpt><trkpt lat="45.10791385779964" lon="9.989931563725536"><ele>39.0</ele><time>2026-04-25T05:38:31Z</time></trkpt><trkpt lat="45.10785472355406" lon="9.989866760994646"><ele>39.0</ele><time>2026-04-25T05:38:32Z</time></trkpt><trkpt lat="45.10779674043081" lon="9.989801178459444"><ele>39.0</ele><time>2026-04-25T05:38:33Z</time></trkpt><trkpt lat="45.10773675075134" lon="9.989735805982606"><ele>39.0</ele><time>2026-04-25T05:38:34Z</time></trkpt><trkpt lat="45.107679066228826" lon="9.989667747455185"><ele>38.833333333333336</ele><time>2026-04-25T05:38:35Z</time></trkpt><trkpt lat="45.10762081217133" lon="9.989601595362128"><ele>38.666666666666664</ele><time>2026-04-25T05:38:36Z</time></trkpt><trkpt lat="45.10756192088301" lon="9.989535057777099"><ele>38.5</ele><time>2026-04-25T05:38:37Z</time></trkpt><trkpt lat="45.1075039953676" lon="9.989468706257988"><ele>38.33333333333333</ele><time>2026-04-25T05:38:38Z</time></trkpt><trkpt lat="45.1074447989439" lon="9.989401203083373"><ele>38.166666666666664</ele><time>2026-04-25T05:38:38.999Z</time></trkpt><trkpt lat="45.10738522296192" lon="9.989334453939321"><ele>38.0</ele><time>2026-04-25T05:38:39.999Z</time></trkpt><trkpt lat="45.10732771850714" lon="9.989270294244365"><ele>38.285714285714285</ele><time>2026-04-25T05:38:40.999Z</time></trkpt><trkpt lat="45.107270281308935" lon="9.989205918015884"><ele>38.57142857142858</ele><time>2026-04-25T05:38:41.999Z</time></trkpt><trkpt lat="45.107213285052026" lon="9.989140132650242"><ele>38.85714285714286</ele><time>2026-04-25T05:38:42.999Z</time></trkpt><trkpt lat="45.10715804424278" lon="9.989072062871491"><ele>39.14285714285714</ele><time>2026-04-25T05:38:43.999Z</time></trkpt><trkpt lat="45.10709731517236" lon="9.989007736195774"><ele>39.42857142857143</ele><time>2026-04-25T05:38:44.999Z</time></trkpt><trkpt lat="45.10703914166004" lon="9.988945446923177"><ele>39.714285714285715</ele><time>2026-04-25T05:38:45.999Z</time></trkpt><trkpt lat="45.10698241568935" lon="9.988878069946487"><ele>40.0</ele><time>2026-04-25T05:38:46.999Z</time></trkpt><trkpt lat="45.10692379378994" lon="9.988813217554844"><ele>40.16666666666667</ele><time>2026-04-25T05:38:47.999Z</time></trkpt><trkpt lat="45.10686429243382" lon="9.988748202553204"><ele>40.333333333333336</ele><time>2026-04-25T05:38:48.999Z</time></trkpt><trkpt lat="45.106804923694575" lon="9.988683663952772"><ele>40.5</ele><time>2026-04-25T05:38:49.999Z</time></trkpt><trkpt lat="45.10674710661786" lon="9.988617411551706"><ele>40.666666666666664</ele><time>2026-04-25T05:38:50.999Z</time></trkpt><trkpt lat="45.10668900144044" lon="9.988550477086163"><ele>40.83333333333333</ele><time>2026-04-25T05:38:51.999Z</time></trkpt><trkpt lat="45.106629428908676" lon="9.988482260236822"><ele>41.0</ele><time>2026-04-25T05:38:52.999Z</time></trkpt><trkpt lat="45.10656961553848" lon="9.988417662527326"><ele>40.71428571428571</ele><time>2026-04-25T05:38:53.999Z</time></trkpt><trkpt lat="45.10651191654386" lon="9.98835387560016"><ele>40.42857142857143</ele><time>2026-04-25T05:38:54.999Z</time></trkpt><trkpt lat="45.10645370720827" lon="9.98829055893191"><ele>40.14285714285714</ele><time>2026-04-25T05:38:55.999Z</time></trkpt><trkpt lat="45.10639345358798" lon="9.988230207568096"><ele>39.857142857142854</ele><time>2026-04-25T05:38:56.999Z</time></trkpt><trkpt lat="45.10633183931243" lon="9.988165704787681"><ele>39.57142857142857</ele><time>2026-04-25T05:38:57.999Z</time></trkpt><trkpt lat="45.106274397722906" lon="9.988097993095815"><ele>39.285714285714285</ele><time>2026-04-25T05:38:58.999Z</time></trkpt><trkpt lat="45.106216783917645" lon="9.98803293618029"><ele>39.0</ele><time>2026-04-25T05:38:59.999Z</time></trkpt><trkpt lat="45.10615787662294" lon="9.987972735316612"><ele>39.0</ele><time>2026-04-25T05:39:00.999Z</time></trkpt><trkpt lat="45.10610043912214" lon="9.987909464570428"><ele>39.0</ele><time>2026-04-25T05:39:01.999Z</time></trkpt><trkpt lat="45.106041873904836" lon="9.987842819569217"><ele>39.0</ele><time>2026-04-25T05:39:02.999Z</time></trkpt><trkpt lat="45.10598209047221" lon="9.987778360584322"><ele>39.0</ele><time>2026-04-25T05:39:03.999Z</time></trkpt><trkpt lat="45.10592169546181" lon="9.987715530571524"><ele>39.0</ele><time>2026-04-25T05:39:04.999Z</time></trkpt><trkpt lat="45.105863565137525" lon="9.98765312571022"><ele>39.0</ele><time>2026-04-25T05:39:05.999Z</time></trkpt><trkpt lat="45.105805704204634" lon="9.987587367497515"><ele>39.0</ele><time>2026-04-25T05:39:06.999Z</time></trkpt><trkpt lat="45.1057437513977" lon="9.987523087419891"><ele>38.85714285714286</ele><time>2026-04-25T05:39:07.999Z</time></trkpt><trkpt lat="45.105685240580925" lon="9.98745991406881"><ele>38.71428571428571</ele><time>2026-04-25T05:39:08.999Z</time></trkpt><trkpt lat="45.105624610954045" lon="9.98739539966383"><ele>38.57142857142857</ele><time>2026-04-25T05:39:09.999Z</time></trkpt><trkpt lat="45.1055650180396" lon="9.987333403121212"><ele>38.42857142857143</ele><time>2026-04-25T05:39:10.999Z</time></trkpt><trkpt lat="45.105505870748836" lon="9.987271364694392"><ele>38.28571428571429</ele><time>2026-04-25T05:39:11.999Z</time></trkpt><trkpt lat="45.10544625653378" lon="9.9872053454559"><ele>38.14285714285714</ele><time>2026-04-25T05:39:12.999Z</time></trkpt><trkpt lat="45.10538764325253" lon="9.987141746097546"><ele>38.0</ele><time>2026-04-25T05:39:13.999Z</time></trkpt><trkpt lat="45.10533009590018" lon="9.987075567706867"><ele>38.0</ele><time>2026-04-25T05:39:14.999Z</time></trkpt><trkpt lat="45.105274068164775" lon="9.987008113040293"><ele>38.0</ele><time>2026-04-25T05:39:15.999Z</time></trkpt><trkpt lat="45.105219000611875" lon="9.986937908396749"><ele>38.0</ele><time>2026-04-25T05:39:16.999Z</time></trkpt><trkpt lat="45.10516811373421" lon="9.986868410985306"><ele>38.0</ele><time>2026-04-25T05:39:17.999Z</time></trkpt><trkpt lat="45.10513581053403" lon="9.9867826758092"><ele>38.0</ele><time>2026-04-25T05:39:18.999Z</time></trkpt><trkpt lat="45.10509439801639" lon="9.986709185669334"><ele>38.0</ele><time>2026-04-25T05:39:19.999Z</time></trkpt><trkpt lat="45.10502398501646" lon="9.986565260047755"><ele>38.0</ele><time>2026-04-25T05:39:21.999Z</time></trkpt><trkpt lat="45.10499107927446" lon="9.98648853211125"><ele>38.0</ele><time>2026-04-25T05:39:22.999Z</time></trkpt><trkpt lat="45.1049263362688" lon="9.986437324536347"><ele>38.0</ele><time>2026-04-25T05:39:23.999Z</time></trkpt><trkpt lat="45.10485908486045" lon="9.986406102661611"><ele>38.0</ele><time>2026-04-25T05:39:24.999Z</time></trkpt><trkpt lat="45.10478538816921" lon="9.986400950999391"><ele>38.0</ele><time>2026-04-25T05:39:25.999Z</time></trkpt><trkpt lat="45.10471188008126" lon="9.986397654254883"><ele>38.0</ele><time>2026-04-25T05:39:26.999Z</time></trkpt><trkpt lat="45.10464727115317" lon="9.98635299468963"><ele>38.0</ele><time>2026-04-25T05:39:27.999Z</time></trkpt><trkpt lat="45.10459224651924" lon="9.98627578968746"><ele>38.0</ele><time>2026-04-25T05:39:28.999Z</time></trkpt><trkpt lat="45.10454040530462" lon="9.986196674223656"><ele>38.0</ele><time>2026-04-25T05:39:29.999Z</time></trkpt><trkpt lat="45.1044846864199" lon="9.986125141004408"><ele>38.0</ele><time>2026-04-25T05:39:30.999Z</time></trkpt><trkpt lat="45.10442955376103" lon="9.986057834911595"><ele>38.0</ele><time>2026-04-25T05:39:31.999Z</time></trkpt><trkpt lat="45.10437583380357" lon="9.985992630039002"><ele>38.0</ele><time>2026-04-25T05:39:32.998Z</time></trkpt><trkpt lat="45.10431937931097" lon="9.985929419062465"><ele>38.0</ele><time>2026-04-25T05:39:33.998Z</time></trkpt><trkpt lat="45.104261187461084" lon="9.98586948899052"><ele>38.0</ele><time>2026-04-25T05:39:34.998Z</time></trkpt><trkpt lat="45.104204254812004" lon="9.985806963229125"><ele>37.857142857142854</ele><time>2026-04-25T05:39:35.998Z</time></trkpt><trkpt lat="45.10414578885453" lon="9.985744395049295"><ele>37.714285714285715</ele><time>2026-04-25T05:39:36.998Z</time></trkpt><trkpt lat="45.10408875545939" lon="9.985683487875914"><ele>37.57142857142857</ele><time>2026-04-25T05:39:37.998Z</time></trkpt><trkpt lat="45.10403191651604" lon="9.985617736493936"><ele>37.42857142857143</ele><time>2026-04-25T05:39:38.998Z</time></trkpt><trkpt lat="45.1039749246966" lon="9.985556377638243"><ele>37.285714285714285</ele><time>2026-04-25T05:39:39.998Z</time></trkpt><trkpt lat="45.10391509463343" lon="9.98549361296424"><ele>37.142857142857146</ele><time>2026-04-25T05:39:40.998Z</time></trkpt><trkpt lat="45.10385723731173" lon="9.985432998217844"><ele>37.0</ele><time>2026-04-25T05:39:41.998Z</time></trkpt><trkpt lat="45.10380087161846" lon="9.985368561356466"><ele>37.285714285714285</ele><time>2026-04-25T05:39:42.998Z</time></trkpt><trkpt lat="45.103744461384025" lon="9.985300696990755"><ele>37.57142857142857</ele><time>2026-04-25T05:39:43.998Z</time></trkpt><trkpt lat="45.10369155177169" lon="9.985231892257952"><ele>37.85714285714286</ele><time>2026-04-25T05:39:44.998Z</time></trkpt><trkpt lat="45.10363501081107" lon="9.985163603258524"><ele>38.14285714285714</ele><time>2026-04-25T05:39:45.998Z</time></trkpt><trkpt lat="45.103578250986665" lon="9.985097184319562"><ele>38.42857142857142</ele><time>2026-04-25T05:39:46.998Z</time></trkpt><trkpt lat="45.10352226054338" lon="9.985031444344724"><ele>38.714285714285715</ele><time>2026-04-25T05:39:47.998Z</time></trkpt><trkpt lat="45.10346404120179" lon="9.984967112268189"><ele>39.0</ele><time>2026-04-25T05:39:48.998Z</time></trkpt><trkpt lat="45.10340709352401" lon="9.984899079015358"><ele>39.0</ele><time>2026-04-25T05:39:49.998Z</time></trkpt><trkpt lat="45.103350185880295" lon="9.984836164798145"><ele>39.0</ele><time>2026-04-25T05:39:50.998Z</time></trkpt><trkpt lat="45.10329344228778" lon="9.984770920914464"><ele>39.0</ele><time>2026-04-25T05:39:51.998Z</time></trkpt><trkpt lat="45.10323588343617" lon="9.984707584911114"><ele>39.0</ele><time>2026-04-25T05:39:52.998Z</time></trkpt><trkpt lat="45.103178284487264" lon="9.984644792024332"><ele>39.0</ele><time>2026-04-25T05:39:53.998Z</time></trkpt><trkpt lat="45.103123097889" lon="9.984581762878838"><ele>39.0</ele><time>2026-04-25T05:39:54.998Z</time></trkpt><trkpt lat="45.10306523187239" lon="9.984515897218923"><ele>39.0</ele><time>2026-04-25T05:39:55.998Z</time></trkpt><trkpt lat="45.10300872424613" lon="9.984449270231512"><ele>39.0</ele><time>2026-04-25T05:39:56.998Z</time></trkpt><trkpt lat="45.10295201478436" lon="9.984383429468291"><ele>39.0</ele><time>2026-04-25T05:39:57.998Z</time></trkpt><trkpt lat="45.10289339631449" lon="9.98431894938399"><ele>39.0</ele><time>2026-04-25T05:39:58.998Z</time></trkpt><trkpt lat="45.102834210321035" lon="9.984255381672787"><ele>39.0</ele><time>2026-04-25T05:39:59.998Z</time></trkpt><trkpt lat="45.10277884397192" lon="9.984189676438454"><ele>39.0</ele><time>2026-04-25T05:40:00.998Z</time></trkpt><trkpt lat="45.10272060827621" lon="9.98412634345516"><ele>39.0</ele><time>2026-04-25T05:40:01.998Z</time></trkpt><trkpt lat="45.102662186933955" lon="9.984064256858357"><ele>39.0</ele><time>2026-04-25T05:40:02.998Z</time></trkpt><trkpt lat="45.10260543623306" lon="9.98399838105569"><ele>39.0</ele><time>2026-04-25T05:40:03.998Z</time></trkpt><trkpt lat="45.102549287520496" lon="9.98393289252565"><ele>39.0</ele><time>2026-04-25T05:40:04.998Z</time></trkpt><trkpt lat="45.10248829464203" lon="9.983868942055512"><ele>39.0</ele><time>2026-04-25T05:40:05.998Z</time></trkpt><trkpt lat="45.102431755794434" lon="9.983804110824634"><ele>39.0</ele><time>2026-04-25T05:40:06.998Z</time></trkpt><trkpt lat="45.10237492086247" lon="9.983738247731106"><ele>39.0</ele><time>2026-04-25T05:40:07.998Z</time></trkpt><trkpt lat="45.10231804609432" lon="9.983672682328214"><ele>39.0</ele><time>2026-04-25T05:40:09Z</time></trkpt><trkpt lat="45.10226135342487" lon="9.983607288856048"><ele>39.0</ele><time>2026-04-25T05:40:10Z</time></trkpt><trkpt lat="45.10220354616651" lon="9.983536277820065"><ele>39.142857142857146</ele><time>2026-04-25T05:40:11Z</time></trkpt><trkpt lat="45.10214518905121" lon="9.983474751659418"><ele>39.285714285714285</ele><time>2026-04-25T05:40:12Z</time></trkpt><trkpt lat="45.10208666159343" lon="9.983412146038015"><ele>39.42857142857143</ele><time>2026-04-25T05:40:13Z</time></trkpt><trkpt lat="45.10202699602367" lon="9.983355580594761"><ele>39.57142857142857</ele><time>2026-04-25T05:40:14Z</time></trkpt><trkpt lat="45.101959762808995" lon="9.983307719906042"><ele>39.714285714285715</ele><time>2026-04-25T05:40:15Z</time></trkpt><trkpt lat="45.101886559154316" lon="9.983275229037785"><ele>39.857142857142854</ele><time>2026-04-25T05:40:16Z</time></trkpt><trkpt lat="45.101813341865615" lon="9.983248388797696"><ele>40.0</ele><time>2026-04-25T05:40:17Z</time></trkpt><trkpt lat="45.10173918348912" lon="9.983239756416157"><ele>40.0</ele><time>2026-04-25T05:40:18Z</time></trkpt><trkpt lat="45.10166319259276" lon="9.983246002496088"><ele>40.0</ele><time>2026-04-25T05:40:19Z</time></trkpt><trkpt lat="45.1015887560414" lon="9.983266999626327"><ele>40.0</ele><time>2026-04-25T05:40:20Z</time></trkpt><trkpt lat="45.1015169947793" lon="9.983297518131069"><ele>40.0</ele><time>2026-04-25T05:40:21Z</time></trkpt><trkpt lat="45.10144359565576" lon="9.983340879578709"><ele>40.0</ele><time>2026-04-25T05:40:22Z</time></trkpt><trkpt lat="45.101376794840206" lon="9.983388818091658"><ele>40.0</ele><time>2026-04-25T05:40:23Z</time></trkpt><trkpt lat="45.10131721515349" lon="9.983455670121856"><ele>39.57142857142857</ele><time>2026-04-25T05:40:24Z</time></trkpt><trkpt lat="45.10126029014987" lon="9.983532638942586"><ele>39.142857142857146</ele><time>2026-04-25T05:40:25Z</time></trkpt><trkpt lat="45.10121234826593" lon="9.983617882683882"><ele>38.714285714285715</ele><time>2026-04-25T05:40:26Z</time></trkpt><trkpt lat="45.10117167248761" lon="9.98370744884327"><ele>38.285714285714285</ele><time>2026-04-25T05:40:27Z</time></trkpt><trkpt lat="45.10113218863762" lon="9.983796631908735"><ele>37.857142857142854</ele><time>2026-04-25T05:40:28Z</time></trkpt><trkpt lat="45.101096171648024" lon="9.983884649116069"><ele>37.42857142857143</ele><time>2026-04-25T05:40:29Z</time></trkpt><trkpt lat="45.10105988342594" lon="9.983967401445367"><ele>37.0</ele><time>2026-04-25T05:40:30Z</time></trkpt><trkpt lat="45.10102369725188" lon="9.98404919588244"><ele>37.0</ele><time>2026-04-25T05:40:31Z</time></trkpt><trkpt lat="45.10098510716564" lon="9.98412953273551"><ele>37.0</ele><time>2026-04-25T05:40:32Z</time></trkpt><trkpt lat="45.100950596525536" lon="9.984207059444616"><ele>37.0</ele><time>2026-04-25T05:40:33Z</time></trkpt><trkpt lat="45.10091629953656" lon="9.984283688723183"><ele>37.0</ele><time>2026-04-25T05:40:34Z</time></trkpt><trkpt lat="45.10088316340067" lon="9.98435994912378"><ele>37.0</ele><time>2026-04-25T05:40:35Z</time></trkpt><trkpt lat="45.10081693287307" lon="9.984502166371367"><ele>37.0</ele><time>2026-04-25T05:40:37Z</time></trkpt><trkpt lat="45.10075543250752" lon="9.984638643334621"><ele>37.333333333333336</ele><time>2026-04-25T05:40:39Z</time></trkpt><trkpt lat="45.1007089521029" lon="9.984756308929784"><ele>37.66666666666667</ele><time>2026-04-25T05:40:41Z</time></trkpt><trkpt lat="45.100664963403624" lon="9.984847895036124"><ele>38.0</ele><time>2026-04-25T05:40:42.999Z</time></trkpt><trkpt lat="45.10062791247018" lon="9.98493496201119"><ele>38.333333333333336</ele><time>2026-04-25T05:40:44.999Z</time></trkpt><trkpt lat="45.100596127165296" lon="9.985015632088453"><ele>38.666666666666664</ele><time>2026-04-25T05:40:46.999Z</time></trkpt><trkpt lat="45.1005500131267" lon="9.985123331819159"><ele>39.0</ele><time>2026-04-25T05:40:49.999Z</time></trkpt><trkpt lat="45.10051162355115" lon="9.985212242888615"><ele>39.0</ele><time>2026-04-25T05:40:52.999Z</time></trkpt><trkpt lat="45.10047464869957" lon="9.985289378642063"><ele>39.0</ele><time>2026-04-25T05:40:56.999Z</time></trkpt><trkpt lat="45.100437936686106" lon="9.98536460281278"><ele>39.0</ele><time>2026-04-25T05:41:17.999Z</time></trkpt><trkpt lat="45.10040638232377" lon="9.985489358208872"><ele>39.0</ele><time>2026-04-25T05:41:20.999Z</time></trkpt><trkpt lat="45.100353557642215" lon="9.985589406071838"><ele>39.0</ele><time>2026-04-25T05:41:22.999Z</time></trkpt><trkpt lat="45.10028877778259" lon="9.985713791987381"><ele>39.0</ele><time>2026-04-25T05:41:24.999Z</time></trkpt><trkpt lat="45.10022333318849" lon="9.985856549307952"><ele>38.833333333333336</ele><time>2026-04-25T05:41:26.999Z</time></trkpt><trkpt lat="45.10015674930273" lon="9.986012898018883"><ele>38.666666666666664</ele><time>2026-04-25T05:41:28.999Z</time></trkpt><trkpt lat="45.100123259624105" lon="9.986090883652809"><ele>38.5</ele><time>2026-04-25T05:41:29.999Z</time></trkpt><trkpt lat="45.100088543518524" lon="9.986167785786147"><ele>38.33333333333333</ele><time>2026-04-25T05:41:30.999Z</time></trkpt><trkpt lat="45.10005302144447" lon="9.986248586696048"><ele>38.166666666666664</ele><time>2026-04-25T05:41:31.999Z</time></trkpt><trkpt lat="45.10001486671237" lon="9.986331185830512"><ele>38.0</ele><time>2026-04-25T05:41:32.999Z</time></trkpt><trkpt lat="45.09997539613921" lon="9.986412361651816"><ele>38.0</ele><time>2026-04-25T05:41:33.999Z</time></trkpt><trkpt lat="45.09993685158414" lon="9.986493180002858"><ele>38.0</ele><time>2026-04-25T05:41:34.999Z</time></trkpt><trkpt lat="45.09989837671838" lon="9.986575835429603"><ele>38.0</ele><time>2026-04-25T05:41:35.998Z</time></trkpt><trkpt lat="45.09985960902838" lon="9.986659668116026"><ele>38.0</ele><time>2026-04-25T05:41:36.998Z</time></trkpt><trkpt lat="45.09982020266125" lon="9.986744458731444"><ele>38.0</ele><time>2026-04-25T05:41:37.998Z</time></trkpt><trkpt lat="45.09978161780539" lon="9.986828007076175"><ele>38.0</ele><time>2026-04-25T05:41:38.998Z</time></trkpt><trkpt lat="45.099739968272274" lon="9.986910441302616"><ele>38.0</ele><time>2026-04-25T05:41:39.998Z</time></trkpt><trkpt lat="45.099697574132186" lon="9.986990616277737"><ele>37.857142857142854</ele><time>2026-04-25T05:41:40.998Z</time></trkpt><trkpt lat="45.09965311462552" lon="9.987069070103008"><ele>37.714285714285715</ele><time>2026-04-25T05:41:41.998Z</time></trkpt><trkpt lat="45.09960702859753" lon="9.98715003909662"><ele>37.57142857142857</ele><time>2026-04-25T05:41:42.998Z</time></trkpt><trkpt lat="45.099561276436596" lon="9.987230853532596"><ele>37.42857142857143</ele><time>2026-04-25T05:41:43.998Z</time></trkpt><trkpt lat="45.09952092205486" lon="9.987312427208016"><ele>37.285714285714285</ele><time>2026-04-25T05:41:44.998Z</time></trkpt><trkpt lat="45.09946752725909" lon="9.987385468937559"><ele>37.142857142857146</ele><time>2026-04-25T05:41:45.998Z</time></trkpt><trkpt lat="45.09941693050817" lon="9.987463123807526"><ele>37.0</ele><time>2026-04-25T05:41:46.998Z</time></trkpt><trkpt lat="45.09936896715032" lon="9.987539283316655"><ele>37.0</ele><time>2026-04-25T05:41:47.998Z</time></trkpt><trkpt lat="45.099322085633325" lon="9.987616421669184"><ele>37.0</ele><time>2026-04-25T05:41:48.998Z</time></trkpt><trkpt lat="45.09927446782068" lon="9.98769116983226"><ele>37.0</ele><time>2026-04-25T05:41:49.998Z</time></trkpt><trkpt lat="45.09922565471893" lon="9.987766852353"><ele>37.0</ele><time>2026-04-25T05:41:50.998Z</time></trkpt><trkpt lat="45.09917464128793" lon="9.987840181623794"><ele>37.0</ele><time>2026-04-25T05:41:51.998Z</time></trkpt><trkpt lat="45.09912370606668" lon="9.987915096884699"><ele>37.0</ele><time>2026-04-25T05:41:52.998Z</time></trkpt><trkpt lat="45.09908757861913" lon="9.988000906689999"><ele>37.0</ele><time>2026-04-25T05:41:53.998Z</time></trkpt><trkpt lat="45.09904055263874" lon="9.988078443206065"><ele>37.285714285714285</ele><time>2026-04-25T05:41:54.998Z</time></trkpt><trkpt lat="45.09898255902032" lon="9.988148534342221"><ele>37.57142857142857</ele><time>2026-04-25T05:41:55.998Z</time></trkpt><trkpt lat="45.09893344413975" lon="9.988226308449669"><ele>37.85714285714286</ele><time>2026-04-25T05:41:56.998Z</time></trkpt><trkpt lat="45.09888205233112" lon="9.98829941678432"><ele>38.14285714285714</ele><time>2026-04-25T05:41:57.998Z</time></trkpt><trkpt lat="45.09882969203639" lon="9.98837301721087"><ele>38.42857142857142</ele><time>2026-04-25T05:41:58.998Z</time></trkpt><trkpt lat="45.09877851807425" lon="9.988449003278143"><ele>38.714285714285715</ele><time>2026-04-25T05:41:59.998Z</time></trkpt><trkpt lat="45.09873005512948" lon="9.98852696573163"><ele>39.0</ele><time>2026-04-25T05:42:00.998Z</time></trkpt><trkpt lat="45.098682334057216" lon="9.98860723959661"><ele>39.0</ele><time>2026-04-25T05:42:01.998Z</time></trkpt><trkpt lat="45.098630952026355" lon="9.988684999171536"><ele>39.0</ele><time>2026-04-25T05:42:02.998Z</time></trkpt><trkpt lat="45.09858203589877" lon="9.988762172497777"><ele>39.0</ele><time>2026-04-25T05:42:03.998Z</time></trkpt><trkpt lat="45.09853216550911" lon="9.988839714510151"><ele>39.0</ele><time>2026-04-25T05:42:04.998Z</time></trkpt><trkpt lat="45.09848120644089" lon="9.988916360572595"><ele>39.0</ele><time>2026-04-25T05:42:05.998Z</time></trkpt><trkpt lat="45.098432065404374" lon="9.98899395083819"><ele>39.0</ele><time>2026-04-25T05:42:06.998Z</time></trkpt><trkpt lat="45.09838274260821" lon="9.989073729400612"><ele>39.0</ele><time>2026-04-25T05:42:07.998Z</time></trkpt><trkpt lat="45.09833332172744" lon="9.989152067012173"><ele>39.0</ele><time>2026-04-25T05:42:08.998Z</time></trkpt><trkpt lat="45.09828592778466" lon="9.989230661983266"><ele>39.0</ele><time>2026-04-25T05:42:09.998Z</time></trkpt><trkpt lat="45.098239820098165" lon="9.989312786448865"><ele>39.0</ele><time>2026-04-25T05:42:10.998Z</time></trkpt><trkpt lat="45.09818996783384" lon="9.98938534604853"><ele>39.0</ele><time>2026-04-25T05:42:11.998Z</time></trkpt><trkpt lat="45.09814118767572" lon="9.989463588861847"><ele>39.0</ele><time>2026-04-25T05:42:12.998Z</time></trkpt><trkpt lat="45.0980911157297" lon="9.989540287084656"><ele>39.0</ele><time>2026-04-25T05:42:13.998Z</time></trkpt><trkpt lat="45.09804271766604" lon="9.98961519642899"><ele>39.0</ele><time>2026-04-25T05:42:15Z</time></trkpt><trkpt lat="45.09799144507396" lon="9.989685152031763"><ele>38.85714285714286</ele><time>2026-04-25T05:42:16Z</time></trkpt><trkpt lat="45.09792999142384" lon="9.989745821885238"><ele>38.71428571428571</ele><time>2026-04-25T05:42:17Z</time></trkpt><trkpt lat="45.09786808063703" lon="9.989801402757678"><ele>38.57142857142857</ele><time>2026-04-25T05:42:18Z</time></trkpt><trkpt lat="45.09780198397384" lon="9.989847964844564"><ele>38.42857142857143</ele><time>2026-04-25T05:42:19Z</time></trkpt><trkpt lat="45.09773595275592" lon="9.989881698504457"><ele>38.28571428571429</ele><time>2026-04-25T05:42:20Z</time></trkpt><trkpt lat="45.09766555488928" lon="9.98991158787678"><ele>38.14285714285714</ele><time>2026-04-25T05:42:21Z</time></trkpt><trkpt lat="45.09759977665606" lon="9.989938023647786"><ele>38.0</ele><time>2026-04-25T05:42:22Z</time></trkpt><trkpt lat="45.0975341706642" lon="9.989961822114301"><ele>38.0</ele><time>2026-04-25T05:42:23Z</time></trkpt><trkpt lat="45.09747067813742" lon="9.989985993690718"><ele>38.0</ele><time>2026-04-25T05:42:24Z</time></trkpt><trkpt lat="45.09735372235949" lon="9.990034321680747"><ele>38.0</ele><time>2026-04-25T05:42:26Z</time></trkpt><trkpt lat="45.09724730680433" lon="9.990074713032458"><ele>38.0</ele><time>2026-04-25T05:42:28Z</time></trkpt><trkpt lat="45.09714331629427" lon="9.990120360899029"><ele>38.0</ele><time>2026-04-25T05:42:30Z</time></trkpt><trkpt lat="45.097049295421726" lon="9.99015384723834"><ele>37.857142857142854</ele><time>2026-04-25T05:42:32Z</time></trkpt><trkpt lat="45.096965258872125" lon="9.990177373867834"><ele>37.714285714285715</ele><time>2026-04-25T05:42:34Z</time></trkpt><trkpt lat="45.09690133340752" lon="9.990191829513613"><ele>37.57142857142857</ele><time>2026-04-25T05:42:36Z</time></trkpt><trkpt lat="45.09683085395631" lon="9.990210520791422"><ele>37.42857142857143</ele><time>2026-04-25T05:42:39Z</time></trkpt><trkpt lat="45.096763180501085" lon="9.99022341931041"><ele>37.285714285714285</ele><time>2026-04-25T05:42:42Z</time></trkpt><trkpt lat="45.09670099966159" lon="9.99023862108456"><ele>37.142857142857146</ele><time>2026-04-25T05:42:45.999Z</time></trkpt><trkpt lat="45.09663726032498" lon="9.990259588625955"><ele>37.0</ele><time>2026-04-25T05:42:47.999Z</time></trkpt><trkpt lat="45.09654846630634" lon="9.990283640628277"><ele>37.5</ele><time>2026-04-25T05:42:49.999Z</time></trkpt><trkpt lat="45.09644228948723" lon="9.990311444763304"><ele>38.0</ele><time>2026-04-25T05:42:51.999Z</time></trkpt><trkpt lat="45.09632824211214" lon="9.990345696113444"><ele>38.5</ele><time>2026-04-25T05:42:53.999Z</time></trkpt><trkpt lat="45.09620457008962" lon="9.990347577213678"><ele>39.0</ele><time>2026-04-25T05:42:55.999Z</time></trkpt><trkpt lat="45.09608820601135" lon="9.990362811039716"><ele>39.0</ele><time>2026-04-25T05:42:57.999Z</time></trkpt><trkpt lat="45.09601895149907" lon="9.990385907884257"><ele>39.0</ele><time>2026-04-25T05:42:58.999Z</time></trkpt><trkpt lat="45.09589572269481" lon="9.99041620999495"><ele>39.0</ele><time>2026-04-25T05:43:00.999Z</time></trkpt><trkpt lat="45.09578508543663" lon="9.990458805273041"><ele>39.0</ele><time>2026-04-25T05:43:02.999Z</time></trkpt><trkpt lat="45.09565688560414" lon="9.990489479317821"><ele>39.0</ele><time>2026-04-25T05:43:04.999Z</time></trkpt><trkpt lat="45.09559366880517" lon="9.99051114069671"><ele>39.142857142857146</ele><time>2026-04-25T05:43:05.999Z</time></trkpt><trkpt lat="45.095531622289194" lon="9.990530595184767"><ele>39.285714285714285</ele><time>2026-04-25T05:43:06.999Z</time></trkpt><trkpt lat="45.095465366793604" lon="9.990550827429589"><ele>39.42857142857143</ele><time>2026-04-25T05:43:07.999Z</time></trkpt><trkpt lat="45.0953997061296" lon="9.99057453569424"><ele>39.57142857142857</ele><time>2026-04-25T05:43:08.999Z</time></trkpt><trkpt lat="45.095333795331264" lon="9.990598547549984"><ele>39.714285714285715</ele><time>2026-04-25T05:43:09.999Z</time></trkpt><trkpt lat="45.095270137194774" lon="9.990622875208382"><ele>39.857142857142854</ele><time>2026-04-25T05:43:10.999Z</time></trkpt><trkpt lat="45.09520363623011" lon="9.990645382386806"><ele>40.0</ele><time>2026-04-25T05:43:11.999Z</time></trkpt><trkpt lat="45.095136890479296" lon="9.990670775380082"><ele>40.0</ele><time>2026-04-25T05:43:12.999Z</time></trkpt><trkpt lat="45.095069797432146" lon="9.99069134719299"><ele>40.0</ele><time>2026-04-25T05:43:13.999Z</time></trkpt><trkpt lat="45.09499958411632" lon="9.990709353751917"><ele>40.0</ele><time>2026-04-25T05:43:14.999Z</time></trkpt><trkpt lat="45.09492969410363" lon="9.990717601951665"><ele>40.0</ele><time>2026-04-25T05:43:15.999Z</time></trkpt><trkpt lat="45.09485859399799" lon="9.990725844011774"><ele>40.0</ele><time>2026-04-25T05:43:16.999Z</time></trkpt><trkpt lat="45.09478752182114" lon="9.99073117735747"><ele>40.0</ele><time>2026-04-25T05:43:17.999Z</time></trkpt><trkpt lat="45.09471550260658" lon="9.990734969210303"><ele>40.0</ele><time>2026-04-25T05:43:18.999Z</time></trkpt><trkpt lat="45.094643638048346" lon="9.990740675311493"><ele>39.57142857142857</ele><time>2026-04-25T05:43:19.999Z</time></trkpt><trkpt lat="45.094571945199235" lon="9.990741068646606"><ele>39.142857142857146</ele><time>2026-04-25T05:43:20.999Z</time></trkpt><trkpt lat="45.09450038823791" lon="9.990741512951162"><ele>38.714285714285715</ele><time>2026-04-25T05:43:21.999Z</time></trkpt><trkpt lat="45.094429985897435" lon="9.990743603262622"><ele>38.285714285714285</ele><time>2026-04-25T05:43:22.999Z</time></trkpt><trkpt lat="45.09435874258888" lon="9.990757138262008"><ele>37.857142857142854</ele><time>2026-04-25T05:43:23.999Z</time></trkpt><trkpt lat="45.09429077248663" lon="9.990782071273737"><ele>37.42857142857143</ele><time>2026-04-25T05:43:24.999Z</time></trkpt><trkpt lat="45.09422378360902" lon="9.990813959455933"><ele>37.0</ele><time>2026-04-25T05:43:25.999Z</time></trkpt><trkpt lat="45.094157656259874" lon="9.990855806419363"><ele>37.0</ele><time>2026-04-25T05:43:26.999Z</time></trkpt><trkpt lat="45.09409292677709" lon="9.990902832883318"><ele>37.0</ele><time>2026-04-25T05:43:27.999Z</time></trkpt><trkpt lat="45.09402785099044" lon="9.990952901747947"><ele>37.0</ele><time>2026-04-25T05:43:28.999Z</time></trkpt><trkpt lat="45.09396648822194" lon="9.991007522917366"><ele>37.0</ele><time>2026-04-25T05:43:29.999Z</time></trkpt><trkpt lat="45.093904489908454" lon="9.991064889247639"><ele>37.0</ele><time>2026-04-25T05:43:30.999Z</time></trkpt><trkpt lat="45.09384386339455" lon="9.99112561106294"><ele>37.0</ele><time>2026-04-25T05:43:31.999Z</time></trkpt><trkpt lat="45.09378482488307" lon="9.991184632849473"><ele>37.0</ele><time>2026-04-25T05:43:32.999Z</time></trkpt><trkpt lat="45.09372707918104" lon="9.991244897746414"><ele>37.142857142857146</ele><time>2026-04-25T05:43:33.999Z</time></trkpt><trkpt lat="45.09366579037905" lon="9.99130130974674"><ele>37.285714285714285</ele><time>2026-04-25T05:43:34.999Z</time></trkpt><trkpt lat="45.09360566057129" lon="9.991354494576337"><ele>37.42857142857143</ele><time>2026-04-25T05:43:35.999Z</time></trkpt><trkpt lat="45.09354275131973" lon="9.991407650381353"><ele>37.57142857142857</ele><time>2026-04-25T05:43:36.999Z</time></trkpt><trkpt lat="45.093481613373726" lon="9.991457571619577"><ele>37.714285714285715</ele><time>2026-04-25T05:43:37.999Z</time></trkpt><trkpt lat="45.09341853629076" lon="9.991509766884842"><ele>37.857142857142854</ele><time>2026-04-25T05:43:38.999Z</time></trkpt><trkpt lat="45.09335795159814" lon="9.99156223311563"><ele>38.0</ele><time>2026-04-25T05:43:39.998Z</time></trkpt><trkpt lat="45.09329307342114" lon="9.991611007427752"><ele>37.857142857142854</ele><time>2026-04-25T05:43:40.998Z</time></trkpt><trkpt lat="45.093227868096314" lon="9.991656681056801"><ele>37.714285714285715</ele><time>2026-04-25T05:43:41.998Z</time></trkpt><trkpt lat="45.09316328037405" lon="9.991700273601735"><ele>37.57142857142857</ele><time>2026-04-25T05:43:42.998Z</time></trkpt><trkpt lat="45.09309480641253" lon="9.991737669009801"><ele>37.42857142857143</ele><time>2026-04-25T05:43:43.998Z</time></trkpt><trkpt lat="45.09302731746085" lon="9.9917734012924"><ele>37.285714285714285</ele><time>2026-04-25T05:43:44.998Z</time></trkpt><trkpt lat="45.09295838561348" lon="9.991806247906235"><ele>37.142857142857146</ele><time>2026-04-25T05:43:45.998Z</time></trkpt><trkpt lat="45.09288858973899" lon="9.991834508299448"><ele>37.0</ele><time>2026-04-25T05:43:46.998Z</time></trkpt><trkpt lat="45.09282017941483" lon="9.991859952944008"><ele>37.0</ele><time>2026-04-25T05:43:47.998Z</time></trkpt><trkpt lat="45.09274905146884" lon="9.991882670086328"><ele>37.0</ele><time>2026-04-25T05:43:48.998Z</time></trkpt><trkpt lat="45.09267772470797" lon="9.991902436104246"><ele>37.0</ele><time>2026-04-25T05:43:49.998Z</time></trkpt><trkpt lat="45.0926061771907" lon="9.991918070151536"><ele>37.0</ele><time>2026-04-25T05:43:50.998Z</time></trkpt><trkpt lat="45.09253162977962" lon="9.991931645823234"><ele>37.0</ele><time>2026-04-25T05:43:51.998Z</time></trkpt><trkpt lat="45.09246123546863" lon="9.991940786856384"><ele>37.0</ele><time>2026-04-25T05:43:52.998Z</time></trkpt><trkpt lat="45.09238766814662" lon="9.991948339079556"><ele>37.0</ele><time>2026-04-25T05:43:53.998Z</time></trkpt><trkpt lat="45.09231783809593" lon="9.99195497713026"><ele>37.142857142857146</ele><time>2026-04-25T05:43:54.998Z</time></trkpt><trkpt lat="45.092244853754394" lon="9.991955322553203"><ele>37.285714285714285</ele><time>2026-04-25T05:43:55.998Z</time></trkpt><trkpt lat="45.092171732549744" lon="9.99195213337086"><ele>37.42857142857143</ele><time>2026-04-25T05:43:56.998Z</time></trkpt><trkpt lat="45.092098884167314" lon="9.991949314024911"><ele>37.57142857142857</ele><time>2026-04-25T05:43:57.998Z</time></trkpt><trkpt lat="45.09202431458281" lon="9.99193688629508"><ele>37.714285714285715</ele><time>2026-04-25T05:43:58.998Z</time></trkpt><trkpt lat="45.09194968821079" lon="9.991922937817371"><ele>37.857142857142854</ele><time>2026-04-25T05:43:59.998Z</time></trkpt><trkpt lat="45.09188091221695" lon="9.991901588685364"><ele>38.0</ele><time>2026-04-25T05:44:00.998Z</time></trkpt><trkpt lat="45.09180706594759" lon="9.99188366636169"><ele>38.0</ele><time>2026-04-25T05:44:01.998Z</time></trkpt><trkpt lat="45.09173441121274" lon="9.991861624355225"><ele>38.0</ele><time>2026-04-25T05:44:02.998Z</time></trkpt><trkpt lat="45.09165947332727" lon="9.99184566355674"><ele>38.0</ele><time>2026-04-25T05:44:03.998Z</time></trkpt><trkpt lat="45.09158903794961" lon="9.991829295263159"><ele>38.0</ele><time>2026-04-25T05:44:04.998Z</time></trkpt><trkpt lat="45.091515059288454" lon="9.99180725356349"><ele>38.0</ele><time>2026-04-25T05:44:05.998Z</time></trkpt><trkpt lat="45.091441433886445" lon="9.991787522460108"><ele>38.0</ele><time>2026-04-25T05:44:06.998Z</time></trkpt><trkpt lat="45.09136741887244" lon="9.991769265155314"><ele>38.0</ele><time>2026-04-25T05:44:07.998Z</time></trkpt><trkpt lat="45.09129469526381" lon="9.99175098654201"><ele>37.857142857142854</ele><time>2026-04-25T05:44:08.998Z</time></trkpt><trkpt lat="45.09122074059666" lon="9.991734174279015"><ele>37.714285714285715</ele><time>2026-04-25T05:44:09.998Z</time></trkpt><trkpt lat="45.09114801769106" lon="9.991719693625708"><ele>37.57142857142857</ele><time>2026-04-25T05:44:10.998Z</time></trkpt><trkpt lat="45.091074539847725" lon="9.991705656951384"><ele>37.42857142857143</ele><time>2026-04-25T05:44:11.998Z</time></trkpt><trkpt lat="45.09100325363152" lon="9.991690264440203"><ele>37.285714285714285</ele><time>2026-04-25T05:44:12.998Z</time></trkpt><trkpt lat="45.09093333699791" lon="9.991675818776601"><ele>37.142857142857146</ele><time>2026-04-25T05:44:13.998Z</time></trkpt><trkpt lat="45.09086118730712" lon="9.99165954613226"><ele>37.0</ele><time>2026-04-25T05:44:14.998Z</time></trkpt><trkpt lat="45.090788884822224" lon="9.991642473475007"><ele>37.285714285714285</ele><time>2026-04-25T05:44:15.998Z</time></trkpt><trkpt lat="45.090716421476216" lon="9.991628852430246"><ele>37.57142857142857</ele><time>2026-04-25T05:44:16.998Z</time></trkpt><trkpt lat="45.090643749651726" lon="9.991612048069388"><ele>37.85714285714286</ele><time>2026-04-25T05:44:17.998Z</time></trkpt><trkpt lat="45.090573591453534" lon="9.991600233638822"><ele>38.14285714285714</ele><time>2026-04-25T05:44:18.998Z</time></trkpt><trkpt lat="45.090499087627634" lon="9.99158488909585"><ele>38.42857142857142</ele><time>2026-04-25T05:44:19.998Z</time></trkpt><trkpt lat="45.090427776975275" lon="9.991562845421386"><ele>38.714285714285715</ele><time>2026-04-25T05:44:21Z</time></trkpt><trkpt lat="45.09035268053374" lon="9.991541205931727"><ele>39.0</ele><time>2026-04-25T05:44:22Z</time></trkpt><trkpt lat="45.090281903705616" lon="9.991506454710782"><ele>39.0</ele><time>2026-04-25T05:44:23Z</time></trkpt><trkpt lat="45.0902149411003" lon="9.991457152100478"><ele>39.0</ele><time>2026-04-25T05:44:24Z</time></trkpt><trkpt lat="45.090142186596886" lon="9.99143390569839"><ele>39.0</ele><time>2026-04-25T05:44:25Z</time></trkpt><trkpt lat="45.090065562063096" lon="9.991436301080327"><ele>39.0</ele><time>2026-04-25T05:44:26Z</time></trkpt><trkpt lat="45.08998864894635" lon="9.991452992887565"><ele>39.0</ele><time>2026-04-25T05:44:27Z</time></trkpt><trkpt lat="45.0899135739269" lon="9.991456488024351"><ele>39.0</ele><time>2026-04-25T05:44:28Z</time></trkpt><trkpt lat="45.08983695880251" lon="9.991438424086668"><ele>38.833333333333336</ele><time>2026-04-25T05:44:29Z</time></trkpt><trkpt lat="45.08976302785624" lon="9.991415814282266"><ele>38.666666666666664</ele><time>2026-04-25T05:44:30Z</time></trkpt><trkpt lat="45.08968951208377" lon="9.991396573085579"><ele>38.5</ele><time>2026-04-25T05:44:31Z</time></trkpt><trkpt lat="45.08961625972279" lon="9.99137688289533"><ele>38.33333333333333</ele><time>2026-04-25T05:44:32Z</time></trkpt><trkpt lat="45.08954253902113" lon="9.991356976333027"><ele>38.166666666666664</ele><time>2026-04-25T05:44:33Z</time></trkpt><trkpt lat="45.08946937460452" lon="9.991333961399702"><ele>38.0</ele><time>2026-04-25T05:44:34Z</time></trkpt><trkpt lat="45.08939691834819" lon="9.991308720339676"><ele>38.0</ele><time>2026-04-25T05:44:35Z</time></trkpt><trkpt lat="45.08932375927235" lon="9.991281728695059"><ele>38.0</ele><time>2026-04-25T05:44:36Z</time></trkpt><trkpt lat="45.089251859895825" lon="9.991254597144378"><ele>38.0</ele><time>2026-04-25T05:44:37Z</time></trkpt><trkpt lat="45.089178590535056" lon="9.991233543638579"><ele>38.0</ele><time>2026-04-25T05:44:38Z</time></trkpt><trkpt lat="45.089105258271175" lon="9.991211711474287"><ele>38.0</ele><time>2026-04-25T05:44:39Z</time></trkpt><trkpt lat="45.089033998611896" lon="9.991185586858055"><ele>38.0</ele><time>2026-04-25T05:44:40Z</time></trkpt><trkpt lat="45.08896475399366" lon="9.991156829396196"><ele>38.0</ele><time>2026-04-25T05:44:41Z</time></trkpt><trkpt lat="45.08889449988104" lon="9.991122648874352"><ele>38.0</ele><time>2026-04-25T05:44:42Z</time></trkpt><trkpt lat="45.08882333871993" lon="9.991081533936216"><ele>38.0</ele><time>2026-04-25T05:44:43Z</time></trkpt><trkpt lat="45.088754111393285" lon="9.991038866626397"><ele>38.0</ele><time>2026-04-25T05:44:44Z</time></trkpt><trkpt lat="45.08868435274764" lon="9.99099070644704"><ele>38.0</ele><time>2026-04-25T05:44:45Z</time></trkpt><trkpt lat="45.08861609054728" lon="9.990935537337297"><ele>38.0</ele><time>2026-04-25T05:44:46Z</time></trkpt><trkpt lat="45.08854973901036" lon="9.99087656806551"><ele>38.0</ele><time>2026-04-25T05:44:47Z</time></trkpt><trkpt lat="45.088486041317815" lon="9.990807822013757"><ele>37.83333333333333</ele><time>2026-04-25T05:44:48Z</time></trkpt><trkpt lat="45.0884240897823" lon="9.990738281557444"><ele>37.666666666666664</ele><time>2026-04-25T05:44:49Z</time></trkpt><trkpt lat="45.08835957689832" lon="9.990663733978073"><ele>37.5</ele><time>2026-04-25T05:44:50Z</time></trkpt><trkpt lat="45.08829716078755" lon="9.99058906229185"><ele>37.333333333333336</ele><time>2026-04-25T05:44:51Z</time></trkpt><trkpt lat="45.08823466514094" lon="9.99050850905402"><ele>37.16666666666667</ele><time>2026-04-25T05:44:51.999Z</time></trkpt><trkpt lat="45.088170729242876" lon="9.990432432330087"><ele>37.0</ele><time>2026-04-25T05:44:52.999Z</time></trkpt><trkpt lat="45.08810758035224" lon="9.990352380581042"><ele>36.833333333333336</ele><time>2026-04-25T05:44:53.999Z</time></trkpt><trkpt lat="45.08804472386919" lon="9.990276884400991"><ele>36.66666666666667</ele><time>2026-04-25T05:44:54.999Z</time></trkpt><trkpt lat="45.0879815418802" lon="9.99019897427709"><ele>36.5</ele><time>2026-04-25T05:44:55.999Z</time></trkpt><trkpt lat="45.087916597765215" lon="9.990122371248038"><ele>36.333333333333336</ele><time>2026-04-25T05:44:56.999Z</time></trkpt><trkpt lat="45.08785366456348" lon="9.990044690211406"><ele>36.166666666666664</ele><time>2026-04-25T05:44:57.999Z</time></trkpt><trkpt lat="45.08778958894025" lon="9.989964492172948"><ele>36.0</ele><time>2026-04-25T05:44:58.999Z</time></trkpt><trkpt lat="45.087726841328035" lon="9.98989128811711"><ele>36.0</ele><time>2026-04-25T05:44:59.999Z</time></trkpt><trkpt lat="45.087665468549005" lon="9.989816065834363"><ele>36.0</ele><time>2026-04-25T05:45:00.999Z</time></trkpt><trkpt lat="45.08760267394785" lon="9.989738903821616"><ele>36.0</ele><time>2026-04-25T05:45:01.999Z</time></trkpt><trkpt lat="45.087542852735865" lon="9.989667589672724"><ele>36.0</ele><time>2026-04-25T05:45:02.999Z</time></trkpt><trkpt lat="45.08748225307406" lon="9.989592962921396"><ele>36.0</ele><time>2026-04-25T05:45:03.999Z</time></trkpt><trkpt lat="45.087421830696016" lon="9.989519970518957"><ele>36.0</ele><time>2026-04-25T05:45:04.999Z</time></trkpt><trkpt lat="45.08736083684092" lon="9.989447445960211"><ele>36.0</ele><time>2026-04-25T05:45:05.999Z</time></trkpt><trkpt lat="45.08729927670935" lon="9.989374430428173"><ele>36.0</ele><time>2026-04-25T05:45:06.999Z</time></trkpt><trkpt lat="45.087240475816095" lon="9.989300421348219"><ele>36.0</ele><time>2026-04-25T05:45:07.999Z</time></trkpt><trkpt lat="45.08717942950281" lon="9.989225663333395"><ele>36.0</ele><time>2026-04-25T05:45:08.999Z</time></trkpt><trkpt lat="45.0871191483412" lon="9.989151942760152"><ele>36.0</ele><time>2026-04-25T05:45:09.999Z</time></trkpt><trkpt lat="45.087059164668624" lon="9.989080047771493"><ele>36.0</ele><time>2026-04-25T05:45:10.999Z</time></trkpt><trkpt lat="45.08699742514737" lon="9.989005390671812"><ele>36.0</ele><time>2026-04-25T05:45:11.999Z</time></trkpt><trkpt lat="45.08693643895426" lon="9.988934602764315"><ele>36.0</ele><time>2026-04-25T05:45:12.999Z</time></trkpt><trkpt lat="45.0868755836806" lon="9.988857036386005"><ele>36.0</ele><time>2026-04-25T05:45:13.999Z</time></trkpt><trkpt lat="45.086815708267515" lon="9.98878351122183"><ele>36.0</ele><time>2026-04-25T05:45:14.999Z</time></trkpt><trkpt lat="45.08675432744894" lon="9.988712196196726"><ele>36.0</ele><time>2026-04-25T05:45:15.999Z</time></trkpt><trkpt lat="45.086692749459864" lon="9.988636217330585"><ele>36.0</ele><time>2026-04-25T05:45:16.999Z</time></trkpt><trkpt lat="45.08663209502158" lon="9.988566052646803"><ele>36.0</ele><time>2026-04-25T05:45:17.999Z</time></trkpt><trkpt lat="45.08657037201722" lon="9.9884900826093"><ele>36.0</ele><time>2026-04-25T05:45:18.999Z</time></trkpt><trkpt lat="45.08650967164887" lon="9.988415236068766"><ele>36.0</ele><time>2026-04-25T05:45:19.999Z</time></trkpt><trkpt lat="45.08645019762954" lon="9.988342587610889"><ele>36.0</ele><time>2026-04-25T05:45:20.999Z</time></trkpt><trkpt lat="45.08638922583925" lon="9.988266698075575"><ele>36.0</ele><time>2026-04-25T05:45:21.999Z</time></trkpt><trkpt lat="45.086328440338846" lon="9.988195181094559"><ele>36.0</ele><time>2026-04-25T05:45:22.999Z</time></trkpt><trkpt lat="45.08626827339933" lon="9.988121323971015"><ele>35.833333333333336</ele><time>2026-04-25T05:45:23.999Z</time></trkpt><trkpt lat="45.08620790572002" lon="9.98804905237259"><ele>35.666666666666664</ele><time>2026-04-25T05:45:24.999Z</time></trkpt><trkpt lat="45.08614794133571" lon="9.987976485438287"><ele>35.5</ele><time>2026-04-25T05:45:25.999Z</time></trkpt><trkpt lat="45.08608814184437" lon="9.987905845527182"><ele>35.33333333333333</ele><time>2026-04-25T05:45:26.999Z</time></trkpt><trkpt lat="45.08602744588291" lon="9.987832189387941"><ele>35.166666666666664</ele><time>2026-04-25T05:45:27.999Z</time></trkpt><trkpt lat="45.08596629078823" lon="9.987760222536954"><ele>35.0</ele><time>2026-04-25T05:45:28.999Z</time></trkpt><trkpt lat="45.08590707083324" lon="9.987686078874818"><ele>35.0</ele><time>2026-04-25T05:45:29.999Z</time></trkpt><trkpt lat="45.085846387607596" lon="9.987613796903528"><ele>35.0</ele><time>2026-04-25T05:45:30.999Z</time></trkpt><trkpt lat="45.085785619598596" lon="9.987538692119166"><ele>35.0</ele><time>2026-04-25T05:45:31.999Z</time></trkpt><trkpt lat="45.085726746604095" lon="9.987467706458652"><ele>35.0</ele><time>2026-04-25T05:45:32.999Z</time></trkpt><trkpt lat="45.085667283840465" lon="9.987394165558344"><ele>35.0</ele><time>2026-04-25T05:45:33.999Z</time></trkpt><trkpt lat="45.08560770913648" lon="9.987322562820433"><ele>35.0</ele><time>2026-04-25T05:45:34.999Z</time></trkpt><trkpt lat="45.08554984840459" lon="9.987249978676765"><ele>35.0</ele><time>2026-04-25T05:45:35.999Z</time></trkpt><trkpt lat="45.08548944030748" lon="9.987177684468195"><ele>35.0</ele><time>2026-04-25T05:45:36.999Z</time></trkpt><trkpt lat="45.08543038060491" lon="9.987110251021639"><ele>35.0</ele><time>2026-04-25T05:45:37.999Z</time></trkpt><trkpt lat="45.085372314309645" lon="9.987039926779106"><ele>35.0</ele><time>2026-04-25T05:45:38.999Z</time></trkpt><trkpt lat="45.08531468281862" lon="9.986967400627266"><ele>35.0</ele><time>2026-04-25T05:45:39.999Z</time></trkpt><trkpt lat="45.08525508127789" lon="9.986895217098875"><ele>35.0</ele><time>2026-04-25T05:45:40.999Z</time></trkpt><trkpt lat="45.08519373968297" lon="9.986829439082333"><ele>35.0</ele><time>2026-04-25T05:45:41.999Z</time></trkpt><trkpt lat="45.08512737350692" lon="9.986766181254412"><ele>35.0</ele><time>2026-04-25T05:45:42.999Z</time></trkpt><trkpt lat="45.085061054147594" lon="9.986708451480776"><ele>35.0</ele><time>2026-04-25T05:45:43.999Z</time></trkpt><trkpt lat="45.08499238856707" lon="9.986656470526631"><ele>35.0</ele><time>2026-04-25T05:45:44.999Z</time></trkpt><trkpt lat="45.08492082288016" lon="9.986609730375015"><ele>35.0</ele><time>2026-04-25T05:45:45.999Z</time></trkpt><trkpt lat="45.084847850190435" lon="9.986571081176269"><ele>35.0</ele><time>2026-04-25T05:45:46.998Z</time></trkpt><trkpt lat="45.08477546744405" lon="9.986536100217842"><ele>35.0</ele><time>2026-04-25T05:45:47.998Z</time></trkpt><trkpt lat="45.0847007240281" lon="9.98650143088306"><ele>35.0</ele><time>2026-04-25T05:45:48.998Z</time></trkpt><trkpt lat="45.08462359320066" lon="9.986477971521575"><ele>35.0</ele><time>2026-04-25T05:45:49.998Z</time></trkpt><trkpt lat="45.084546479425796" lon="9.986462111142577"><ele>35.0</ele><time>2026-04-25T05:45:50.998Z</time></trkpt><trkpt lat="45.084466725492675" lon="9.986447555012482"><ele>35.0</ele><time>2026-04-25T05:45:51.998Z</time></trkpt><trkpt lat="45.08438778345288" lon="9.9864428088209"><ele>35.0</ele><time>2026-04-25T05:45:52.998Z</time></trkpt><trkpt lat="45.084308154856174" lon="9.98644297029752"><ele>35.0</ele><time>2026-04-25T05:45:53.998Z</time></trkpt><trkpt lat="45.08422933413293" lon="9.986450089151399"><ele>35.0</ele><time>2026-04-25T05:45:54.998Z</time></trkpt><trkpt lat="45.08415017168133" lon="9.986461444785268"><ele>35.0</ele><time>2026-04-25T05:45:55.998Z</time></trkpt><trkpt lat="45.08407218047889" lon="9.9864785594083"><ele>35.0</ele><time>2026-04-25T05:45:56.998Z</time></trkpt><trkpt lat="45.08399817818663" lon="9.986504828177242"><ele>35.0</ele><time>2026-04-25T05:45:57.998Z</time></trkpt><trkpt lat="45.08392198480343" lon="9.986535682591327"><ele>35.0</ele><time>2026-04-25T05:45:58.998Z</time></trkpt><trkpt lat="45.0838464664186" lon="9.986570534505821"><ele>35.33333333333333</ele><time>2026-04-25T05:45:59.998Z</time></trkpt><trkpt lat="45.08377305002627" lon="9.98660875143844"><ele>35.666666666666664</ele><time>2026-04-25T05:46:00.998Z</time></trkpt><trkpt lat="45.083700581135716" lon="9.986651197727417"><ele>36.0</ele><time>2026-04-25T05:46:01.998Z</time></trkpt><trkpt lat="45.0836283514476" lon="9.98670076554185"><ele>36.333333333333336</ele><time>2026-04-25T05:46:02.998Z</time></trkpt><trkpt lat="45.08356006038455" lon="9.986749428951569"><ele>36.66666666666667</ele><time>2026-04-25T05:46:03.998Z</time></trkpt><trkpt lat="45.083488821709956" lon="9.986798859556757"><ele>37.0</ele><time>2026-04-25T05:46:04.998Z</time></trkpt><trkpt lat="45.08341624027694" lon="9.98684127045358"><ele>37.0</ele><time>2026-04-25T05:46:05.998Z</time></trkpt><trkpt lat="45.08334581407329" lon="9.986890883450384"><ele>37.0</ele><time>2026-04-25T05:46:06.998Z</time></trkpt><trkpt lat="45.08327397644956" lon="9.986941883216316"><ele>37.0</ele><time>2026-04-25T05:46:07.998Z</time></trkpt><trkpt lat="45.08319696756953" lon="9.986996249811783"><ele>37.0</ele><time>2026-04-25T05:46:08.998Z</time></trkpt><trkpt lat="45.083130457042806" lon="9.987043466557875"><ele>37.0</ele><time>2026-04-25T05:46:09.998Z</time></trkpt><trkpt lat="45.08306330314573" lon="9.987093148725695"><ele>37.0</ele><time>2026-04-25T05:46:10.998Z</time></trkpt><trkpt lat="45.08299073881484" lon="9.987137843988496"><ele>36.66666666666667</ele><time>2026-04-25T05:46:11.998Z</time></trkpt><trkpt lat="45.082917020585114" lon="9.987178137854038"><ele>36.333333333333336</ele><time>2026-04-25T05:46:12.998Z</time></trkpt><trkpt lat="45.08284526406656" lon="9.987211225182449"><ele>36.0</ele><time>2026-04-25T05:46:13.998Z</time></trkpt><trkpt lat="45.08277061355719" lon="9.987240227522124"><ele>35.666666666666664</ele><time>2026-04-25T05:46:14.998Z</time></trkpt><trkpt lat="45.082697473120646" lon="9.987275488444725"><ele>35.33333333333333</ele><time>2026-04-25T05:46:15.998Z</time></trkpt><trkpt lat="45.08262248002606" lon="9.987304748129228"><ele>35.0</ele><time>2026-04-25T05:46:16.998Z</time></trkpt><trkpt lat="45.08254787932802" lon="9.98733734060949"><ele>35.0</ele><time>2026-04-25T05:46:17.998Z</time></trkpt><trkpt lat="45.08247377448093" lon="9.987369277493649"><ele>35.0</ele><time>2026-04-25T05:46:18.998Z</time></trkpt><trkpt lat="45.082401015441526" lon="9.987402409437818"><ele>35.0</ele><time>2026-04-25T05:46:19.998Z</time></trkpt><trkpt lat="45.08232789384779" lon="9.987434450635947"><ele>35.0</ele><time>2026-04-25T05:46:20.998Z</time></trkpt><trkpt lat="45.08225265095536" lon="9.987466376203765"><ele>35.0</ele><time>2026-04-25T05:46:21.998Z</time></trkpt><trkpt lat="45.08217598406852" lon="9.987497175861787"><ele>35.0</ele><time>2026-04-25T05:46:22.998Z</time></trkpt><trkpt lat="45.082097525377925" lon="9.98752672877285"><ele>35.33333333333333</ele><time>2026-04-25T05:46:23.998Z</time></trkpt><trkpt lat="45.08202348802732" lon="9.987559777694193"><ele>35.666666666666664</ele><time>2026-04-25T05:46:24.998Z</time></trkpt><trkpt lat="45.08194621192913" lon="9.987590763506077"><ele>36.0</ele><time>2026-04-25T05:46:25.998Z</time></trkpt><trkpt lat="45.081869695519245" lon="9.987621973873065"><ele>36.333333333333336</ele><time>2026-04-25T05:46:27Z</time></trkpt><trkpt lat="45.08179349127679" lon="9.987652672867872"><ele>36.66666666666667</ele><time>2026-04-25T05:46:28Z</time></trkpt><trkpt lat="45.08171723326281" lon="9.987683554496165"><ele>37.0</ele><time>2026-04-25T05:46:29Z</time></trkpt><trkpt lat="45.08164102989945" lon="9.987714635318488"><ele>36.833333333333336</ele><time>2026-04-25T05:46:30Z</time></trkpt><trkpt lat="45.08156511725844" lon="9.987746344137253"><ele>36.66666666666667</ele><time>2026-04-25T05:46:31Z</time></trkpt><trkpt lat="45.0814887671819" lon="9.98777849885761"><ele>36.5</ele><time>2026-04-25T05:46:32Z</time></trkpt><trkpt lat="45.08141310221189" lon="9.987809928036185"><ele>36.333333333333336</ele><time>2026-04-25T05:46:33Z</time></trkpt><trkpt lat="45.08133742800091" lon="9.98784345217234"><ele>36.166666666666664</ele><time>2026-04-25T05:46:34Z</time></trkpt><trkpt lat="45.081263205276564" lon="9.987882521441598"><ele>36.0</ele><time>2026-04-25T05:46:35Z</time></trkpt><trkpt lat="45.08119074542586" lon="9.98793142744067"><ele>36.0</ele><time>2026-04-25T05:46:36Z</time></trkpt><trkpt lat="45.08112299044378" lon="9.98798007440309"><ele>36.0</ele><time>2026-04-25T05:46:37Z</time></trkpt><trkpt lat="45.08105261809402" lon="9.98802613859954"><ele>36.0</ele><time>2026-04-25T05:46:38Z</time></trkpt><trkpt lat="45.08097377351143" lon="9.988050251992535"><ele>36.0</ele><time>2026-04-25T05:46:39Z</time></trkpt><trkpt lat="45.08089521610181" lon="9.988075459338141"><ele>36.0</ele><time>2026-04-25T05:46:40Z</time></trkpt><trkpt lat="45.08081779268116" lon="9.988106679385417"><ele>36.0</ele><time>2026-04-25T05:46:41Z</time></trkpt><trkpt lat="45.08074105264057" lon="9.98813944522095"><ele>36.333333333333336</ele><time>2026-04-25T05:46:42Z</time></trkpt><trkpt lat="45.0806628873081" lon="9.988164265027587"><ele>36.666666666666664</ele><time>2026-04-25T05:46:43Z</time></trkpt><trkpt lat="45.08058434613012" lon="9.988173922405231"><ele>37.0</ele><time>2026-04-25T05:46:44Z</time></trkpt><trkpt lat="45.080501877483805" lon="9.98818800292949"><ele>37.33333333333333</ele><time>2026-04-25T05:46:45Z</time></trkpt><trkpt lat="45.08042256863384" lon="9.988214828926887"><ele>37.666666666666664</ele><time>2026-04-25T05:46:46Z</time></trkpt><trkpt lat="45.080342920248476" lon="9.988246957584261"><ele>38.0</ele><time>2026-04-25T05:46:47Z</time></trkpt><trkpt lat="45.080264737761084" lon="9.988283590268523"><ele>38.0</ele><time>2026-04-25T05:46:48Z</time></trkpt><trkpt lat="45.08018590383493" lon="9.988316717736932"><ele>38.0</ele><time>2026-04-25T05:46:49Z</time></trkpt><trkpt lat="45.08010944659848" lon="9.988347882854766"><ele>38.0</ele><time>2026-04-25T05:46:50Z</time></trkpt><trkpt lat="45.08003180218672" lon="9.988380594411268"><ele>38.0</ele><time>2026-04-25T05:46:51Z</time></trkpt><trkpt lat="45.07995491748663" lon="9.988413044605029"><ele>38.0</ele><time>2026-04-25T05:46:52Z</time></trkpt><trkpt lat="45.07987787108674" lon="9.988444181866104"><ele>38.0</ele><time>2026-04-25T05:46:53Z</time></trkpt><trkpt lat="45.07980036275261" lon="9.988476198413831"><ele>38.0</ele><time>2026-04-25T05:46:54Z</time></trkpt><trkpt lat="45.079722657951216" lon="9.988509126843496"><ele>38.0</ele><time>2026-04-25T05:46:54.999Z</time></trkpt><trkpt lat="45.079644434470744" lon="9.988541704938614"><ele>38.0</ele><time>2026-04-25T05:46:55.999Z</time></trkpt><trkpt lat="45.07956707994509" lon="9.988573415875019"><ele>38.0</ele><time>2026-04-25T05:46:56.999Z</time></trkpt><trkpt lat="45.07948916095253" lon="9.98860340846567"><ele>38.0</ele><time>2026-04-25T05:46:57.999Z</time></trkpt><trkpt lat="45.07941000962164" lon="9.98863364593802"><ele>38.0</ele><time>2026-04-25T05:46:58.999Z</time></trkpt><trkpt lat="45.07933277591174" lon="9.988666099106553"><ele>38.0</ele><time>2026-04-25T05:46:59.999Z</time></trkpt><trkpt lat="45.07925380214148" lon="9.988694814901482"><ele>38.0</ele><time>2026-04-25T05:47:00.999Z</time></trkpt><trkpt lat="45.07917464693161" lon="9.988717835592322"><ele>38.0</ele><time>2026-04-25T05:47:01.999Z</time></trkpt><trkpt lat="45.07909527386122" lon="9.988739907045447"><ele>38.0</ele><time>2026-04-25T05:47:02.999Z</time></trkpt><trkpt lat="45.07901637101352" lon="9.98876056144068"><ele>38.0</ele><time>2026-04-25T05:47:03.999Z</time></trkpt><trkpt lat="45.07893661971368" lon="9.98877751354513"><ele>38.0</ele><time>2026-04-25T05:47:04.999Z</time></trkpt><trkpt lat="45.07885877072451" lon="9.988794454456238"><ele>37.83333333333333</ele><time>2026-04-25T05:47:05.999Z</time></trkpt><trkpt lat="45.078780209575804" lon="9.988811394097608"><ele>37.666666666666664</ele><time>2026-04-25T05:47:06.999Z</time></trkpt><trkpt lat="45.07870210156544" lon="9.988829268862917"><ele>37.5</ele><time>2026-04-25T05:47:07.999Z</time></trkpt><trkpt lat="45.07862366266183" lon="9.988846799504573"><ele>37.333333333333336</ele><time>2026-04-25T05:47:08.999Z</time></trkpt><trkpt lat="45.07854375787108" lon="9.988862527096552"><ele>37.16666666666667</ele><time>2026-04-25T05:47:09.999Z</time></trkpt><trkpt lat="45.07846386499576" lon="9.988880779205005"><ele>37.0</ele><time>2026-04-25T05:47:10.999Z</time></trkpt><trkpt lat="45.07838521883708" lon="9.988893448153757"><ele>37.0</ele><time>2026-04-25T05:47:11.999Z</time></trkpt><trkpt lat="45.07830676749226" lon="9.98890655287737"><ele>37.0</ele><time>2026-04-25T05:47:12.999Z</time></trkpt><trkpt lat="45.07822761564275" lon="9.988919009135035"><ele>37.0</ele><time>2026-04-25T05:47:13.999Z</time></trkpt><trkpt lat="45.07814915568423" lon="9.988926726161939"><ele>37.0</ele><time>2026-04-25T05:47:14.999Z</time></trkpt><trkpt lat="45.07806872141782" lon="9.98892241195005"><ele>37.0</ele><time>2026-04-25T05:47:15.999Z</time></trkpt><trkpt lat="45.07798809611647" lon="9.988921620283739"><ele>37.0</ele><time>2026-04-25T05:47:16.999Z</time></trkpt><trkpt lat="45.0779088102854" lon="9.988923059922778"><ele>36.833333333333336</ele><time>2026-04-25T05:47:17.999Z</time></trkpt><trkpt lat="45.077829756103796" lon="9.988926210807533"><ele>36.66666666666667</ele><time>2026-04-25T05:47:18.999Z</time></trkpt><trkpt lat="45.07774881672675" lon="9.988927068626117"><ele>36.5</ele><time>2026-04-25T05:47:19.999Z</time></trkpt><trkpt lat="45.07767032008116" lon="9.9889266944927"><ele>36.333333333333336</ele><time>2026-04-25T05:47:20.999Z</time></trkpt><trkpt lat="45.07758919658254" lon="9.988929251032582"><ele>36.166666666666664</ele><time>2026-04-25T05:47:21.999Z</time></trkpt><trkpt lat="45.07751190835566" lon="9.98892822609201"><ele>36.0</ele><time>2026-04-25T05:47:22.999Z</time></trkpt><trkpt lat="45.07743277415868" lon="9.988929781962524"><ele>36.0</ele><time>2026-04-25T05:47:23.999Z</time></trkpt><trkpt lat="45.07735391489527" lon="9.988929213705042"><ele>36.0</ele><time>2026-04-25T05:47:24.999Z</time></trkpt><trkpt lat="45.077273418295015" lon="9.98892901015383"><ele>36.0</ele><time>2026-04-25T05:47:25.999Z</time></trkpt><trkpt lat="45.07719505602664" lon="9.988932961329851"><ele>36.0</ele><time>2026-04-25T05:47:26.999Z</time></trkpt><trkpt lat="45.077116617240954" lon="9.988931910894852"><ele>36.0</ele><time>2026-04-25T05:47:27.999Z</time></trkpt><trkpt lat="45.077038993045136" lon="9.988934378976248"><ele>36.0</ele><time>2026-04-25T05:47:28.999Z</time></trkpt><trkpt lat="45.076961335316945" lon="9.988934268671368"><ele>36.0</ele><time>2026-04-25T05:47:29.999Z</time></trkpt><trkpt lat="45.07688266617116" lon="9.98893253197555"><ele>36.0</ele><time>2026-04-25T05:47:30.999Z</time></trkpt><trkpt lat="45.07680765118317" lon="9.988942284000549"><ele>36.0</ele><time>2026-04-25T05:47:31.999Z</time></trkpt><trkpt lat="45.076736922938636" lon="9.988979836722477"><ele>36.0</ele><time>2026-04-25T05:47:32.999Z</time></trkpt><trkpt lat="45.076679065759556" lon="9.98905710752481"><ele>36.0</ele><time>2026-04-25T05:47:33.999Z</time></trkpt><trkpt lat="45.076647033547474" lon="9.9891679825276"><ele>36.0</ele><time>2026-04-25T05:47:34.999Z</time></trkpt><trkpt lat="45.076645205146775" lon="9.989289211627725"><ele>36.166666666666664</ele><time>2026-04-25T05:47:35.999Z</time></trkpt><trkpt lat="45.07664884208314" lon="9.989404934046526"><ele>36.333333333333336</ele><time>2026-04-25T05:47:36.999Z</time></trkpt><trkpt lat="45.07664749660075" lon="9.989515746827765"><ele>36.5</ele><time>2026-04-25T05:47:37.999Z</time></trkpt><trkpt lat="45.07663951016794" lon="9.989623652603864"><ele>36.66666666666667</ele><time>2026-04-25T05:47:38.999Z</time></trkpt><trkpt lat="45.076628720424296" lon="9.98973444229429"><ele>36.833333333333336</ele><time>2026-04-25T05:47:39.999Z</time></trkpt><trkpt lat="45.07661998579494" lon="9.989843879624452"><ele>37.0</ele><time>2026-04-25T05:47:40.999Z</time></trkpt><trkpt lat="45.076611050251024" lon="9.989953886128191"><ele>37.5</ele><time>2026-04-25T05:47:41.999Z</time></trkpt><trkpt lat="45.076602876363935" lon="9.99006540588408"><ele>38.0</ele><time>2026-04-25T05:47:42.999Z</time></trkpt><trkpt lat="45.07659433580163" lon="9.990176916878847"><ele>38.5</ele><time>2026-04-25T05:47:43.999Z</time></trkpt><trkpt lat="45.0765850582991" lon="9.990287303623647"><ele>39.0</ele><time>2026-04-25T05:47:44.999Z</time></trkpt><trkpt lat="45.07656812761673" lon="9.99039775877199"><ele>39.5</ele><time>2026-04-25T05:47:45.999Z</time></trkpt><trkpt lat="45.076547045728596" lon="9.990505245496934"><ele>40.0</ele><time>2026-04-25T05:47:46.999Z</time></trkpt><trkpt lat="45.076520201587336" lon="9.990610723280236"><ele>40.0</ele><time>2026-04-25T05:47:47.999Z</time></trkpt><trkpt lat="45.076483265300325" lon="9.990708612543974"><ele>40.0</ele><time>2026-04-25T05:47:48.999Z</time></trkpt><trkpt lat="45.07643510399019" lon="9.990801301913638"><ele>40.0</ele><time>2026-04-25T05:47:49.998Z</time></trkpt><trkpt lat="45.076385564836485" lon="9.990892384622034"><ele>40.0</ele><time>2026-04-25T05:47:50.998Z</time></trkpt><trkpt lat="45.076340661031594" lon="9.990983182860692"><ele>40.0</ele><time>2026-04-25T05:47:51.998Z</time></trkpt><trkpt lat="45.07629569846864" lon="9.991073970405"><ele>40.0</ele><time>2026-04-25T05:47:52.998Z</time></trkpt><trkpt lat="45.076271601163725" lon="9.991184259654272"><ele>39.714285714285715</ele><time>2026-04-25T05:47:53.998Z</time></trkpt><trkpt lat="45.07623912739567" lon="9.99128335776908"><ele>39.42857142857143</ele><time>2026-04-25T05:47:54.998Z</time></trkpt><trkpt lat="45.076218316816494" lon="9.99139140114435"><ele>39.14285714285714</ele><time>2026-04-25T05:47:55.998Z</time></trkpt><trkpt lat="45.07620351730511" lon="9.991493793610777"><ele>38.85714285714286</ele><time>2026-04-25T05:47:56.998Z</time></trkpt><trkpt lat="45.0761899412048" lon="9.991592561148911"><ele>38.57142857142858</ele><time>2026-04-25T05:47:57.998Z</time></trkpt><trkpt lat="45.076158999716945" lon="9.991676172958082"><ele>38.285714285714285</ele><time>2026-04-25T05:47:58.998Z</time></trkpt><trkpt lat="45.076101085070874" lon="9.991718775951954"><ele>38.0</ele><time>2026-04-25T05:47:59.998Z</time></trkpt><trkpt lat="45.076014412751356" lon="9.991705066836374"><ele>38.0</ele><time>2026-04-25T05:48:00.998Z</time></trkpt><trkpt lat="45.07593348521503" lon="9.991701660891412"><ele>38.0</ele><time>2026-04-25T05:48:01.998Z</time></trkpt><trkpt lat="45.07585884419504" lon="9.991709084207747"><ele>38.0</ele><time>2026-04-25T05:48:02.998Z</time></trkpt><trkpt lat="45.075781518880184" lon="9.991721828057157"><ele>38.0</ele><time>2026-04-25T05:48:03.998Z</time></trkpt><trkpt lat="45.07570636290889" lon="9.991733873115718"><ele>38.0</ele><time>2026-04-25T05:48:04.998Z</time></trkpt><trkpt lat="45.07563025843412" lon="9.991735385203965"><ele>38.0</ele><time>2026-04-25T05:48:05.998Z</time></trkpt><trkpt lat="45.07555353225379" lon="9.991725727512534"><ele>38.0</ele><time>2026-04-25T05:48:06.998Z</time></trkpt><trkpt lat="45.07547673844096" lon="9.99170801945257"><ele>38.0</ele><time>2026-04-25T05:48:07.998Z</time></trkpt><trkpt lat="45.075400068294456" lon="9.991685202926845"><ele>38.0</ele><time>2026-04-25T05:48:08.998Z</time></trkpt><trkpt lat="45.07532461324517" lon="9.991665552051119"><ele>38.0</ele><time>2026-04-25T05:48:09.998Z</time></trkpt><trkpt lat="45.07524729084875" lon="9.991658379622924"><ele>38.0</ele><time>2026-04-25T05:48:10.998Z</time></trkpt><trkpt lat="45.075172896984824" lon="9.991662601192397"><ele>38.0</ele><time>2026-04-25T05:48:11.998Z</time></trkpt><trkpt lat="45.07509187162482" lon="9.991688328433098"><ele>38.0</ele><time>2026-04-25T05:48:12.998Z</time></trkpt><trkpt lat="45.07501506431208" lon="9.991740791603771"><ele>38.0</ele><time>2026-04-25T05:48:13.998Z</time></trkpt><trkpt lat="45.07494508809149" lon="9.99179911873884"><ele>38.0</ele><time>2026-04-25T05:48:14.998Z</time></trkpt><trkpt lat="45.07487768156059" lon="9.991860222378813"><ele>38.0</ele><time>2026-04-25T05:48:15.998Z</time></trkpt><trkpt lat="45.07480588055139" lon="9.991917135490873"><ele>38.0</ele><time>2026-04-25T05:48:16.998Z</time></trkpt><trkpt lat="45.0747337350615" lon="9.99196867427668"><ele>38.0</ele><time>2026-04-25T05:48:17.998Z</time></trkpt><trkpt lat="45.07466253454655" lon="9.992025828537633"><ele>38.166666666666664</ele><time>2026-04-25T05:48:18.998Z</time></trkpt><trkpt lat="45.07459128106501" lon="9.992076599677688"><ele>38.33333333333333</ele><time>2026-04-25T05:48:19.998Z</time></trkpt><trkpt lat="45.074518169589744" lon="9.99212627664417"><ele>38.5</ele><time>2026-04-25T05:48:20.998Z</time></trkpt><trkpt lat="45.0744471955589" lon="9.992177600525917"><ele>38.666666666666664</ele><time>2026-04-25T05:48:21.998Z</time></trkpt><trkpt lat="45.074376527326706" lon="9.992231138899236"><ele>38.833333333333336</ele><time>2026-04-25T05:48:22.998Z</time></trkpt><trkpt lat="45.074305698033086" lon="9.992282531286829"><ele>39.0</ele><time>2026-04-25T05:48:23.998Z</time></trkpt><trkpt lat="45.07423547927133" lon="9.992332817500142"><ele>39.0</ele><time>2026-04-25T05:48:24.998Z</time></trkpt><trkpt lat="45.07416474622176" lon="9.992379276978948"><ele>39.0</ele><time>2026-04-25T05:48:25.998Z</time></trkpt><trkpt lat="45.07409123273574" lon="9.992423238978589"><ele>39.0</ele><time>2026-04-25T05:48:26.998Z</time></trkpt><trkpt lat="45.07402038392651" lon="9.992473130946815"><ele>39.0</ele><time>2026-04-25T05:48:27.998Z</time></trkpt><trkpt lat="45.07395146698034" lon="9.992524991607088"><ele>39.0</ele><time>2026-04-25T05:48:28.998Z</time></trkpt><trkpt lat="45.07388172784985" lon="9.99257606852739"><ele>39.0</ele><time>2026-04-25T05:48:29.998Z</time></trkpt><trkpt lat="45.07381466670045" lon="9.992631642200488"><ele>38.666666666666664</ele><time>2026-04-25T05:48:30.998Z</time></trkpt><trkpt lat="45.0737452021634" lon="9.99268518674396"><ele>38.333333333333336</ele><time>2026-04-25T05:48:31.998Z</time></trkpt><trkpt lat="45.073672371834896" lon="9.992728321839074"><ele>38.0</ele><time>2026-04-25T05:48:33Z</time></trkpt><trkpt lat="45.07359688469195" lon="9.992769328546073"><ele>37.66666666666667</ele><time>2026-04-25T05:48:34Z</time></trkpt><trkpt lat="45.073519365502364" lon="9.992799697639224"><ele>37.333333333333336</ele><time>2026-04-25T05:48:35Z</time></trkpt><trkpt lat="45.07344179933949" lon="9.99282005550337"><ele>37.0</ele><time>2026-04-25T05:48:36Z</time></trkpt><trkpt lat="45.07336121721142" lon="9.992828245284457"><ele>37.0</ele><time>2026-04-25T05:48:37Z</time></trkpt><trkpt lat="45.07328067069173" lon="9.992833037968245"><ele>37.0</ele><time>2026-04-25T05:48:38Z</time></trkpt><trkpt lat="45.07319844603371" lon="9.992839882527846"><ele>37.0</ele><time>2026-04-25T05:48:39Z</time></trkpt><trkpt lat="45.073118122796934" lon="9.992847309957929"><ele>37.0</ele><time>2026-04-25T05:48:40Z</time></trkpt><trkpt lat="45.07303837100283" lon="9.992856136687072"><ele>37.0</ele><time>2026-04-25T05:48:41Z</time></trkpt><trkpt lat="45.07295791008523" lon="9.992867865430828"><ele>37.0</ele><time>2026-04-25T05:48:42Z</time></trkpt><trkpt lat="45.072877585743996" lon="9.992872033107"><ele>36.833333333333336</ele><time>2026-04-25T05:48:43Z</time></trkpt><trkpt lat="45.07279982781211" lon="9.992876024557571"><ele>36.66666666666667</ele><time>2026-04-25T05:48:44Z</time></trkpt><trkpt lat="45.07271980142004" lon="9.992876571042796"><ele>36.5</ele><time>2026-04-25T05:48:45Z</time></trkpt><trkpt lat="45.07264132500513" lon="9.992882679601271"><ele>36.333333333333336</ele><time>2026-04-25T05:48:46Z</time></trkpt><trkpt lat="45.072561096641905" lon="9.992898436228622"><ele>36.166666666666664</ele><time>2026-04-25T05:48:47Z</time></trkpt><trkpt lat="45.07248503491924" lon="9.992928219452587"><ele>36.0</ele><time>2026-04-25T05:48:48Z</time></trkpt><trkpt lat="45.07241043256759" lon="9.992971885372594"><ele>36.166666666666664</ele><time>2026-04-25T05:48:49Z</time></trkpt><trkpt lat="45.072342329871276" lon="9.993031747282144"><ele>36.333333333333336</ele><time>2026-04-25T05:48:50Z</time></trkpt><trkpt lat="45.072279932896805" lon="9.993102539581711"><ele>36.5</ele><time>2026-04-25T05:48:51Z</time></trkpt><trkpt lat="45.07222597979793" lon="9.993185585827938"><ele>36.66666666666667</ele><time>2026-04-25T05:48:52Z</time></trkpt><trkpt lat="45.0721724066861" lon="9.99327118361987"><ele>36.833333333333336</ele><time>2026-04-25T05:48:53Z</time></trkpt><trkpt lat="45.072117327338965" lon="9.993352880228704"><ele>37.0</ele><time>2026-04-25T05:48:54Z</time></trkpt><trkpt lat="45.072059362271595" lon="9.993430072468966"><ele>37.0</ele><time>2026-04-25T05:48:55Z</time></trkpt><trkpt lat="45.07198398235054" lon="9.993480322233399"><ele>37.0</ele><time>2026-04-25T05:48:56Z</time></trkpt><trkpt lat="45.071906140075626" lon="9.993509769865716"><ele>37.0</ele><time>2026-04-25T05:48:57Z</time></trkpt><trkpt lat="45.071821644648395" lon="9.993509494083916"><ele>37.0</ele><time>2026-04-25T05:48:58Z</time></trkpt><trkpt lat="45.07173970003919" lon="9.9934960341393"><ele>37.0</ele><time>2026-04-25T05:48:58.999Z</time></trkpt><trkpt lat="45.07165979501926" lon="9.993474413647798"><ele>37.0</ele><time>2026-04-25T05:48:59.999Z</time></trkpt><trkpt lat="45.07158007971704" lon="9.9934532726157"><ele>37.16666666666667</ele><time>2026-04-25T05:49:00.999Z</time></trkpt><trkpt lat="45.07149938339926" lon="9.993437201896914"><ele>37.333333333333336</ele><time>2026-04-25T05:49:01.999Z</time></trkpt><trkpt lat="45.07142079379303" lon="9.993426739241825"><ele>37.5</ele><time>2026-04-25T05:49:02.999Z</time></trkpt><trkpt lat="45.071340468436595" lon="9.993411781212147"><ele>37.666666666666664</ele><time>2026-04-25T05:49:03.999Z</time></trkpt><trkpt lat="45.07126052867857" lon="9.993400026155662"><ele>37.83333333333333</ele><time>2026-04-25T05:49:04.999Z</time></trkpt><trkpt lat="45.0711808906275" lon="9.993391580687094"><ele>38.0</ele><time>2026-04-25T05:49:05.999Z</time></trkpt><trkpt lat="45.07110039949029" lon="9.993377981935748"><ele>38.0</ele><time>2026-04-25T05:49:06.999Z</time></trkpt><trkpt lat="45.071020043267026" lon="9.993365649972223"><ele>38.0</ele><time>2026-04-25T05:49:07.999Z</time></trkpt><trkpt lat="45.07094220431497" lon="9.993356155606621"><ele>38.0</ele><time>2026-04-25T05:49:08.999Z</time></trkpt><trkpt lat="45.07085847573128" lon="9.993357104628302"><ele>38.0</ele><time>2026-04-25T05:49:09.999Z</time></trkpt><trkpt lat="45.07078224518277" lon="9.99335418063483"><ele>38.0</ele><time>2026-04-25T05:49:10.999Z</time></trkpt><trkpt lat="45.07070476941309" lon="9.993368653803797"><ele>38.0</ele><time>2026-04-25T05:49:11.999Z</time></trkpt><trkpt lat="45.070627069335636" lon="9.993405934654351"><ele>38.166666666666664</ele><time>2026-04-25T05:49:12.999Z</time></trkpt><trkpt lat="45.07055352792892" lon="9.993433265981803"><ele>38.33333333333333</ele><time>2026-04-25T05:49:13.999Z</time></trkpt><trkpt lat="45.07047158422397" lon="9.993427237589284"><ele>38.5</ele><time>2026-04-25T05:49:14.999Z</time></trkpt><trkpt lat="45.070393877902475" lon="9.99339472455918"><ele>38.666666666666664</ele><time>2026-04-25T05:49:15.999Z</time></trkpt><trkpt lat="45.07033301238906" lon="9.993315549439982"><ele>38.833333333333336</ele><time>2026-04-25T05:49:16.999Z</time></trkpt><trkpt lat="45.07025910401239" lon="9.993259296324634"><ele>39.0</ele><time>2026-04-25T05:49:17.999Z</time></trkpt><trkpt lat="45.070199500143566" lon="9.993181441557823"><ele>39.0</ele><time>2026-04-25T05:49:18.999Z</time></trkpt><trkpt lat="45.07013823986746" lon="9.993111026116598"><ele>39.0</ele><time>2026-04-25T05:49:19.999Z</time></trkpt><trkpt lat="45.07007488828207" lon="9.99304036126498"><ele>39.0</ele><time>2026-04-25T05:49:20.999Z</time></trkpt><trkpt lat="45.070010497733385" lon="9.992973142658597"><ele>39.0</ele><time>2026-04-25T05:49:21.999Z</time></trkpt><trkpt lat="45.06994605632531" lon="9.99290860721289"><ele>39.0</ele><time>2026-04-25T05:49:22.999Z</time></trkpt><trkpt lat="45.06988209192867" lon="9.992839561511142"><ele>39.0</ele><time>2026-04-25T05:49:23.999Z</time></trkpt><trkpt lat="45.069821576310474" lon="9.99277186396143"><ele>38.833333333333336</ele><time>2026-04-25T05:49:24.999Z</time></trkpt><trkpt lat="45.06975837700743" lon="9.992704232069748"><ele>38.666666666666664</ele><time>2026-04-25T05:49:25.999Z</time></trkpt><trkpt lat="45.069694220685655" lon="9.992640031492277"><ele>38.5</ele><time>2026-04-25T05:49:26.999Z</time></trkpt><trkpt lat="45.069633196132564" lon="9.992569801419622"><ele>38.33333333333333</ele><time>2026-04-25T05:49:27.999Z</time></trkpt><trkpt lat="45.06957142848752" lon="9.992501892595655"><ele>38.166666666666664</ele><time>2026-04-25T05:49:28.999Z</time></trkpt><trkpt lat="45.069504503969014" lon="9.992431652946756"><ele>38.0</ele><time>2026-04-25T05:49:29.999Z</time></trkpt><trkpt lat="45.06944563018598" lon="9.992364102286771"><ele>38.0</ele><time>2026-04-25T05:49:30.999Z</time></trkpt><trkpt lat="45.069382918915856" lon="9.99229632868871"><ele>38.0</ele><time>2026-04-25T05:49:31.999Z</time></trkpt><trkpt lat="45.06932157155197" lon="9.992229713718126"><ele>38.0</ele><time>2026-04-25T05:49:32.999Z</time></trkpt><trkpt lat="45.06925955878489" lon="9.992159602808222"><ele>38.0</ele><time>2026-04-25T05:49:33.999Z</time></trkpt><trkpt lat="45.069205796678524" lon="9.992075009711698"><ele>38.0</ele><time>2026-04-25T05:49:34.999Z</time></trkpt><trkpt lat="45.06913969727413" lon="9.992013708192987"><ele>38.0</ele><time>2026-04-25T05:49:35.999Z</time></trkpt><trkpt lat="45.069075269458345" lon="9.991948014794962"><ele>38.0</ele><time>2026-04-25T05:49:36.999Z</time></trkpt><trkpt lat="45.06900866587724" lon="9.991881402301502"><ele>38.0</ele><time>2026-04-25T05:49:37.999Z</time></trkpt><trkpt lat="45.06894505538616" lon="9.991814847751355"><ele>38.0</ele><time>2026-04-25T05:49:38.999Z</time></trkpt><trkpt lat="45.06888081422854" lon="9.991742094353302"><ele>38.0</ele><time>2026-04-25T05:49:39.999Z</time></trkpt><trkpt lat="45.068819300236015" lon="9.991670111741008"><ele>38.0</ele><time>2026-04-25T05:49:40.999Z</time></trkpt><trkpt lat="45.06875705301438" lon="9.991598168752983"><ele>38.0</ele><time>2026-04-25T05:49:41.999Z</time></trkpt><trkpt lat="45.06869402579586" lon="9.991528860565998"><ele>38.0</ele><time>2026-04-25T05:49:42.999Z</time></trkpt><trkpt lat="45.068632034680256" lon="9.991463153818973"><ele>38.0</ele><time>2026-04-25T05:49:43.999Z</time></trkpt><trkpt lat="45.06856986798601" lon="9.991392338799198"><ele>38.0</ele><time>2026-04-25T05:49:44.999Z</time></trkpt><trkpt lat="45.0685073353433" lon="9.991323353114739"><ele>38.0</ele><time>2026-04-25T05:49:45.999Z</time></trkpt><trkpt lat="45.068446404163986" lon="9.991254410193378"><ele>38.0</ele><time>2026-04-25T05:49:46.999Z</time></trkpt><trkpt lat="45.06838373449121" lon="9.991186532540336"><ele>38.0</ele><time>2026-04-25T05:49:47.999Z</time></trkpt><trkpt lat="45.06832115938421" lon="9.991116260629497"><ele>38.0</ele><time>2026-04-25T05:49:48.999Z</time></trkpt><trkpt lat="45.06825817251599" lon="9.991050539552827"><ele>38.0</ele><time>2026-04-25T05:49:49.999Z</time></trkpt><trkpt lat="45.06819470266948" lon="9.990978618138998"><ele>38.0</ele><time>2026-04-25T05:49:50.999Z</time></trkpt><trkpt lat="45.06813141281234" lon="9.990914204003673"><ele>38.0</ele><time>2026-04-25T05:49:51.999Z</time></trkpt><trkpt lat="45.068068719144875" lon="9.990849229402503"><ele>38.0</ele><time>2026-04-25T05:49:52.999Z</time></trkpt><trkpt lat="45.06800051997629" lon="9.990795514172182"><ele>38.0</ele><time>2026-04-25T05:49:53.999Z</time></trkpt><trkpt lat="45.067929584422714" lon="9.990750087922267"><ele>38.0</ele><time>2026-04-25T05:49:54.998Z</time></trkpt><trkpt lat="45.06784993537141" lon="9.990729625263086"><ele>38.0</ele><time>2026-04-25T05:49:55.998Z</time></trkpt><trkpt lat="45.06777337994517" lon="9.990721057975458"><ele>38.0</ele><time>2026-04-25T05:49:56.998Z</time></trkpt><trkpt lat="45.067698173401176" lon="9.990715428626546"><ele>38.0</ele><time>2026-04-25T05:49:57.998Z</time></trkpt><trkpt lat="45.06761375211386" lon="9.990745968114933"><ele>38.0</ele><time>2026-04-25T05:49:58.998Z</time></trkpt><trkpt lat="45.067534707389925" lon="9.990769176085916"><ele>38.0</ele><time>2026-04-25T05:49:59.998Z</time></trkpt><trkpt lat="45.067454087949265" lon="9.99078888161959"><ele>37.83333333333333</ele><time>2026-04-25T05:50:00.998Z</time></trkpt><trkpt lat="45.06737141036805" lon="9.990799097151713"><ele>37.666666666666664</ele><time>2026-04-25T05:50:01.998Z</time></trkpt><trkpt lat="45.0672883631014" lon="9.990801686449997"><ele>37.5</ele><time>2026-04-25T05:50:02.998Z</time></trkpt><trkpt lat="45.06720604077752" lon="9.990778334896827"><ele>37.333333333333336</ele><time>2026-04-25T05:50:03.998Z</time></trkpt><trkpt lat="45.067125562138386" lon="9.99076409623699"><ele>37.16666666666667</ele><time>2026-04-25T05:50:04.998Z</time></trkpt><trkpt lat="45.06704719576993" lon="9.99073147767077"><ele>37.0</ele><time>2026-04-25T05:50:05.998Z</time></trkpt><trkpt lat="45.06696545495304" lon="9.990689036162737"><ele>37.0</ele><time>2026-04-25T05:50:06.998Z</time></trkpt><trkpt lat="45.0668853976099" lon="9.990652157700525"><ele>37.0</ele><time>2026-04-25T05:50:07.998Z</time></trkpt><trkpt lat="45.06680972802314" lon="9.990616837411766"><ele>37.0</ele><time>2026-04-25T05:50:08.998Z</time></trkpt><trkpt lat="45.066729784871804" lon="9.990586931549112"><ele>37.0</ele><time>2026-04-25T05:50:09.998Z</time></trkpt><trkpt lat="45.06665243170433" lon="9.990560531933225"><ele>37.0</ele><time>2026-04-25T05:50:10.998Z</time></trkpt><trkpt lat="45.066568186357166" lon="9.990562545198111"><ele>37.0</ele><time>2026-04-25T05:50:11.998Z</time></trkpt><trkpt lat="45.06648464962713" lon="9.990590381655789"><ele>36.833333333333336</ele><time>2026-04-25T05:50:12.998Z</time></trkpt><trkpt lat="45.0664051354804" lon="9.990630330312573"><ele>36.66666666666667</ele><time>2026-04-25T05:50:13.998Z</time></trkpt><trkpt lat="45.06632761711868" lon="9.990678662835094"><ele>36.5</ele><time>2026-04-25T05:50:14.998Z</time></trkpt><trkpt lat="45.06625952744514" lon="9.990735620770552"><ele>36.333333333333336</ele><time>2026-04-25T05:50:15.998Z</time></trkpt><trkpt lat="45.06618661211779" lon="9.990792959581997"><ele>36.166666666666664</ele><time>2026-04-25T05:50:16.998Z</time></trkpt><trkpt lat="45.066113082478324" lon="9.99084837115225"><ele>36.0</ele><time>2026-04-25T05:50:17.998Z</time></trkpt><trkpt lat="45.066041344001306" lon="9.990904220292766"><ele>35.833333333333336</ele><time>2026-04-25T05:50:18.998Z</time></trkpt><trkpt lat="45.06596974773514" lon="9.990964105821751"><ele>35.666666666666664</ele><time>2026-04-25T05:50:19.998Z</time></trkpt><trkpt lat="45.06590285332659" lon="9.991024353408214"><ele>35.5</ele><time>2026-04-25T05:50:20.998Z</time></trkpt><trkpt lat="45.06583341184772" lon="9.991087159982609"><ele>35.33333333333333</ele><time>2026-04-25T05:50:21.998Z</time></trkpt><trkpt lat="45.065773962151845" lon="9.991160411199079"><ele>35.166666666666664</ele><time>2026-04-25T05:50:22.998Z</time></trkpt><trkpt lat="45.0657206956566" lon="9.991247253727627"><ele>35.0</ele><time>2026-04-25T05:50:23.998Z</time></trkpt><trkpt lat="45.06568031893496" lon="9.99134715492591"><ele>35.0</ele><time>2026-04-25T05:50:24.998Z</time></trkpt><trkpt lat="45.06565124187767" lon="9.991456443460281"><ele>35.0</ele><time>2026-04-25T05:50:25.998Z</time></trkpt><trkpt lat="45.06559614999207" lon="9.991663639383036"><ele>35.0</ele><time>2026-04-25T05:50:27.998Z</time></trkpt><trkpt lat="45.06557218403064" lon="9.991774679344074"><ele>35.0</ele><time>2026-04-25T05:50:28.998Z</time></trkpt><trkpt lat="45.065546743631025" lon="9.99188484197524"><ele>35.0</ele><time>2026-04-25T05:50:29.998Z</time></trkpt><trkpt lat="45.06552161998333" lon="9.991993372432313"><ele>35.0</ele><time>2026-04-25T05:50:30.998Z</time></trkpt><trkpt lat="45.065495283713155" lon="9.992103606949712"><ele>35.0</ele><time>2026-04-25T05:50:31.998Z</time></trkpt><trkpt lat="45.06547019321871" lon="9.992213509879148"><ele>35.0</ele><time>2026-04-25T05:50:32.998Z</time></trkpt><trkpt lat="45.06544428739771" lon="9.992322597507789"><ele>35.0</ele><time>2026-04-25T05:50:33.998Z</time></trkpt><trkpt lat="45.065420174262876" lon="9.992433211952125"><ele>35.0</ele><time>2026-04-25T05:50:34.998Z</time></trkpt><trkpt lat="45.06539310635281" lon="9.992541424789083"><ele>35.0</ele><time>2026-04-25T05:50:35.998Z</time></trkpt><trkpt lat="45.065367528305764" lon="9.992650361547472"><ele>35.0</ele><time>2026-04-25T05:50:36.998Z</time></trkpt><trkpt lat="45.06534625637793" lon="9.992761539413618"><ele>35.0</ele><time>2026-04-25T05:50:37.998Z</time></trkpt><trkpt lat="45.065321569103496" lon="9.992871051215598"><ele>35.0</ele><time>2026-04-25T05:50:39Z</time></trkpt><trkpt lat="45.06529256482357" lon="9.992977890146443"><ele>35.0</ele><time>2026-04-25T05:50:40Z</time></trkpt><trkpt lat="45.065265056276935" lon="9.993084689758918"><ele>35.0</ele><time>2026-04-25T05:50:41Z</time></trkpt><trkpt lat="45.065238595788145" lon="9.993194144969756"><ele>35.0</ele><time>2026-04-25T05:50:42Z</time></trkpt><trkpt lat="45.065208852566606" lon="9.993300603810402"><ele>35.0</ele><time>2026-04-25T05:50:43Z</time></trkpt><trkpt lat="45.06518172067977" lon="9.993407308929886"><ele>35.0</ele><time>2026-04-25T05:50:44Z</time></trkpt><trkpt lat="45.065149994405886" lon="9.99351456696641"><ele>35.0</ele><time>2026-04-25T05:50:45Z</time></trkpt><trkpt lat="45.06512240803106" lon="9.993618598555425"><ele>35.0</ele><time>2026-04-25T05:50:46Z</time></trkpt><trkpt lat="45.065089079031715" lon="9.993719363710193"><ele>35.0</ele><time>2026-04-25T05:50:47Z</time></trkpt><trkpt lat="45.06505514974381" lon="9.993821413074793"><ele>35.0</ele><time>2026-04-25T05:50:48Z</time></trkpt><trkpt lat="45.06501864560859" lon="9.993921680513564"><ele>35.0</ele><time>2026-04-25T05:50:49Z</time></trkpt><trkpt lat="45.064982444826285" lon="9.99402290634381"><ele>35.0</ele><time>2026-04-25T05:50:50Z</time></trkpt><trkpt lat="45.06494642832537" lon="9.994123879034072"><ele>35.0</ele><time>2026-04-25T05:50:51Z</time></trkpt><trkpt lat="45.06490638365161" lon="9.994225149492305"><ele>35.0</ele><time>2026-04-25T05:50:52Z</time></trkpt><trkpt lat="45.06486871893818" lon="9.9943243016112"><ele>35.0</ele><time>2026-04-25T05:50:53Z</time></trkpt><trkpt lat="45.06482985857579" lon="9.994423131832864"><ele>35.0</ele><time>2026-04-25T05:50:54Z</time></trkpt><trkpt lat="45.064787739026634" lon="9.994524842010712"><ele>35.0</ele><time>2026-04-25T05:50:55Z</time></trkpt><trkpt lat="45.06475009632956" lon="9.994623664039732"><ele>35.0</ele><time>2026-04-25T05:50:56Z</time></trkpt><trkpt lat="45.064709527251715" lon="9.994722790788542"><ele>35.0</ele><time>2026-04-25T05:50:57Z</time></trkpt><trkpt lat="45.064668805901505" lon="9.994822148456262"><ele>35.0</ele><time>2026-04-25T05:50:58Z</time></trkpt><trkpt lat="45.064631181106094" lon="9.994922540118063"><ele>35.0</ele><time>2026-04-25T05:50:59Z</time></trkpt><trkpt lat="45.064590215585696" lon="9.995021736098641"><ele>35.0</ele><time>2026-04-25T05:51:00Z</time></trkpt><trkpt lat="45.064546203282625" lon="9.99511803020336"><ele>35.0</ele><time>2026-04-25T05:51:01Z</time></trkpt><trkpt lat="45.06449880431271" lon="9.995210484149073"><ele>35.0</ele><time>2026-04-25T05:51:02Z</time></trkpt><trkpt lat="45.06445377367721" lon="9.995305712968074"><ele>35.0</ele><time>2026-04-25T05:51:03Z</time></trkpt><trkpt lat="45.06441117615082" lon="9.995403170297559"><ele>35.0</ele><time>2026-04-25T05:51:04Z</time></trkpt><trkpt lat="45.06436822629825" lon="9.995501156498799"><ele>35.0</ele><time>2026-04-25T05:51:04.999Z</time></trkpt><trkpt lat="45.06432584611089" lon="9.9955987020977"><ele>35.0</ele><time>2026-04-25T05:51:05.999Z</time></trkpt><trkpt lat="45.06428417835916" lon="9.995695147023145"><ele>35.0</ele><time>2026-04-25T05:51:06.999Z</time></trkpt><trkpt lat="45.06423955768907" lon="9.995793554892307"><ele>35.0</ele><time>2026-04-25T05:51:07.999Z</time></trkpt><trkpt lat="45.06420025365214" lon="9.99588844877302"><ele>35.0</ele><time>2026-04-25T05:51:08.999Z</time></trkpt><trkpt lat="45.06415591759905" lon="9.99598134489263"><ele>35.0</ele><time>2026-04-25T05:51:09.999Z</time></trkpt><trkpt lat="45.06411289463882" lon="9.996078440491859"><ele>35.0</ele><time>2026-04-25T05:51:10.999Z</time></trkpt><trkpt lat="45.06407011483335" lon="9.996170691348286"><ele>35.0</ele><time>2026-04-25T05:51:11.999Z</time></trkpt><trkpt lat="45.064013825352795" lon="9.99624666397813"><ele>35.166666666666664</ele><time>2026-04-25T05:51:12.999Z</time></trkpt><trkpt lat="45.063940041679146" lon="9.99628613801844"><ele>35.33333333333333</ele><time>2026-04-25T05:51:13.999Z</time></trkpt><trkpt lat="45.06385249380249" lon="9.996259002014176"><ele>35.5</ele><time>2026-04-25T05:51:14.999Z</time></trkpt><trkpt lat="45.063798855959405" lon="9.996155879401947"><ele>35.666666666666664</ele><time>2026-04-25T05:51:15.999Z</time></trkpt><trkpt lat="45.063721982234966" lon="9.996106546364148"><ele>35.833333333333336</ele><time>2026-04-25T05:51:16.999Z</time></trkpt><trkpt lat="45.06366215738218" lon="9.996027433446585"><ele>36.0</ele><time>2026-04-25T05:51:17.999Z</time></trkpt><trkpt lat="45.063604036387765" lon="9.995950121969683"><ele>36.0</ele><time>2026-04-25T05:51:18.999Z</time></trkpt><trkpt lat="45.06354227352478" lon="9.99587550587266"><ele>36.0</ele><time>2026-04-25T05:51:19.999Z</time></trkpt><trkpt lat="45.06348638568371" lon="9.99580057713427"><ele>36.0</ele><time>2026-04-25T05:51:20.999Z</time></trkpt><trkpt lat="45.06343064442251" lon="9.995719883875209"><ele>36.0</ele><time>2026-04-25T05:51:21.999Z</time></trkpt><trkpt lat="45.06337677531338" lon="9.995639630549885"><ele>36.0</ele><time>2026-04-25T05:51:22.999Z</time></trkpt><trkpt lat="45.063319474375824" lon="9.995566016024851"><ele>36.0</ele><time>2026-04-25T05:51:23.999Z</time></trkpt><trkpt lat="45.06325925296016" lon="9.995496950310471"><ele>36.0</ele><time>2026-04-25T05:51:24.999Z</time></trkpt><trkpt lat="45.063190876139274" lon="9.995440607808488"><ele>36.0</ele><time>2026-04-25T05:51:25.999Z</time></trkpt><trkpt lat="45.063116440410106" lon="9.99539687236361"><ele>36.0</ele><time>2026-04-25T05:51:26.999Z</time></trkpt><trkpt lat="45.06304095175553" lon="9.995357525962293"><ele>36.0</ele><time>2026-04-25T05:51:27.999Z</time></trkpt><trkpt lat="45.062963300233676" lon="9.995328853197346"><ele>36.0</ele><time>2026-04-25T05:51:28.999Z</time></trkpt><trkpt lat="45.0628860512432" lon="9.995294036448215"><ele>36.0</ele><time>2026-04-25T05:51:29.999Z</time></trkpt><trkpt lat="45.06281020239974" lon="9.995257484174822"><ele>36.0</ele><time>2026-04-25T05:51:30.999Z</time></trkpt><trkpt lat="45.06273645564729" lon="9.995211890488722"><ele>36.0</ele><time>2026-04-25T05:51:31.999Z</time></trkpt><trkpt lat="45.06266341498239" lon="9.995161838336994"><ele>36.0</ele><time>2026-04-25T05:51:32.999Z</time></trkpt><trkpt lat="45.06259179886972" lon="9.995114191121312"><ele>36.0</ele><time>2026-04-25T05:51:33.999Z</time></trkpt><trkpt lat="45.06251869386238" lon="9.995064054443917"><ele>36.0</ele><time>2026-04-25T05:51:34.999Z</time></trkpt><trkpt lat="45.062449340306706" lon="9.995012867541643"><ele>36.0</ele><time>2026-04-25T05:51:35.999Z</time></trkpt><trkpt lat="45.06237601680661" lon="9.994961113525282"><ele>35.833333333333336</ele><time>2026-04-25T05:51:36.999Z</time></trkpt><trkpt lat="45.06230356537206" lon="9.994909805099637"><ele>35.666666666666664</ele><time>2026-04-25T05:51:37.999Z</time></trkpt><trkpt lat="45.06223212287289" lon="9.994861154087978"><ele>35.5</ele><time>2026-04-25T05:51:38.999Z</time></trkpt><trkpt lat="45.06215832279697" lon="9.994812326563236"><ele>35.33333333333333</ele><time>2026-04-25T05:51:39.999Z</time></trkpt><trkpt lat="45.062086364384555" lon="9.99476843417703"><ele>35.166666666666664</ele><time>2026-04-25T05:51:40.999Z</time></trkpt><trkpt lat="45.06201120362651" lon="9.994724896188618"><ele>35.0</ele><time>2026-04-25T05:51:41.999Z</time></trkpt><trkpt lat="45.06193665554611" lon="9.994687135332551"><ele>35.0</ele><time>2026-04-25T05:51:42.999Z</time></trkpt><trkpt lat="45.061860818008725" lon="9.994653538285142"><ele>35.0</ele><time>2026-04-25T05:51:43.999Z</time></trkpt><trkpt lat="45.06178455174503" lon="9.994619234745576"><ele>35.0</ele><time>2026-04-25T05:51:44.999Z</time></trkpt><trkpt lat="45.06170873497067" lon="9.994585679717058"><ele>35.0</ele><time>2026-04-25T05:51:45.999Z</time></trkpt><trkpt lat="45.061631079348665" lon="9.994551098440796"><ele>35.0</ele><time>2026-04-25T05:51:46.999Z</time></trkpt><trkpt lat="45.06155621891142" lon="9.994515397945941"><ele>35.0</ele><time>2026-04-25T05:51:47.999Z</time></trkpt><trkpt lat="45.06147932788301" lon="9.994482071508477"><ele>35.33333333333333</ele><time>2026-04-25T05:51:48.999Z</time></trkpt><trkpt lat="45.06140467155124" lon="9.994447832131405"><ele>35.666666666666664</ele><time>2026-04-25T05:51:49.999Z</time></trkpt><trkpt lat="45.06132923896553" lon="9.994411559205695"><ele>36.0</ele><time>2026-04-25T05:51:50.999Z</time></trkpt><trkpt lat="45.06125360958593" lon="9.99437685756846"><ele>36.333333333333336</ele><time>2026-04-25T05:51:51.999Z</time></trkpt><trkpt lat="45.06117792684688" lon="9.994343526168691"><ele>36.66666666666667</ele><time>2026-04-25T05:51:52.999Z</time></trkpt><trkpt lat="45.06110324867823" lon="9.994308753307976"><ele>37.0</ele><time>2026-04-25T05:51:53.999Z</time></trkpt><trkpt lat="45.061026937900955" lon="9.994272840350645"><ele>37.0</ele><time>2026-04-25T05:51:54.999Z</time></trkpt><trkpt lat="45.06095097838488" lon="9.99424070241574"><ele>37.0</ele><time>2026-04-25T05:51:55.999Z</time></trkpt><trkpt lat="45.060875607825565" lon="9.994205746117412"><ele>37.0</ele><time>2026-04-25T05:51:56.999Z</time></trkpt><trkpt lat="45.06080000520025" lon="9.994168710915014"><ele>37.0</ele><time>2026-04-25T05:51:57.999Z</time></trkpt><trkpt lat="45.06072381266379" lon="9.994130010871588"><ele>37.0</ele><time>2026-04-25T05:51:58.999Z</time></trkpt><trkpt lat="45.06064961476565" lon="9.994088383533233"><ele>37.0</ele><time>2026-04-25T05:51:59.998Z</time></trkpt><trkpt lat="45.06057483565944" lon="9.994046370101609"><ele>36.5</ele><time>2026-04-25T05:52:00.998Z</time></trkpt><trkpt lat="45.060500986403305" lon="9.994001154854752"><ele>36.0</ele><time>2026-04-25T05:52:01.998Z</time></trkpt><trkpt lat="45.06042807087385" lon="9.993946300281651"><ele>35.5</ele><time>2026-04-25T05:52:02.998Z</time></trkpt><trkpt lat="45.06035778850715" lon="9.99388788859565"><ele>35.0</ele><time>2026-04-25T05:52:03.998Z</time></trkpt><trkpt lat="45.06028889410832" lon="9.993826411545085"><ele>34.5</ele><time>2026-04-25T05:52:04.998Z</time></trkpt><trkpt lat="45.06022058462574" lon="9.993763197882076"><ele>34.0</ele><time>2026-04-25T05:52:05.998Z</time></trkpt><trkpt lat="45.06015223158279" lon="9.993700732002438"><ele>34.0</ele><time>2026-04-25T05:52:06.998Z</time></trkpt><trkpt lat="45.06008447778914" lon="9.993640400196904"><ele>34.0</ele><time>2026-04-25T05:52:07.998Z</time></trkpt><trkpt lat="45.06001713702904" lon="9.993579395473267"><ele>34.0</ele><time>2026-04-25T05:52:08.998Z</time></trkpt><trkpt lat="45.0599483082185" lon="9.993516516457014"><ele>34.0</ele><time>2026-04-25T05:52:09.998Z</time></trkpt><trkpt lat="45.05988151010169" lon="9.993457025222073"><ele>34.0</ele><time>2026-04-25T05:52:10.998Z</time></trkpt><trkpt lat="45.05981274597816" lon="9.99339763563693"><ele>34.0</ele><time>2026-04-25T05:52:11.998Z</time></trkpt><trkpt lat="45.05974450036999" lon="9.993339199795061"><ele>34.0</ele><time>2026-04-25T05:52:12.998Z</time></trkpt><trkpt lat="45.05968444859731" lon="9.993260438757606"><ele>34.0</ele><time>2026-04-25T05:52:13.998Z</time></trkpt><trkpt lat="45.05961647170429" lon="9.993197985557632"><ele>34.0</ele><time>2026-04-25T05:52:14.998Z</time></trkpt><trkpt lat="45.05954203260815" lon="9.993154174137487"><ele>34.0</ele><time>2026-04-25T05:52:15.998Z</time></trkpt><trkpt lat="45.05947658680669" lon="9.993086911516569"><ele>34.0</ele><time>2026-04-25T05:52:16.998Z</time></trkpt><trkpt lat="45.05940981113714" lon="9.99302271148439"><ele>34.0</ele><time>2026-04-25T05:52:17.998Z</time></trkpt><trkpt lat="45.05934363668307" lon="9.992961564923222"><ele>34.0</ele><time>2026-04-25T05:52:18.998Z</time></trkpt><trkpt lat="45.05927619459671" lon="9.992900151652854"><ele>34.0</ele><time>2026-04-25T05:52:19.998Z</time></trkpt><trkpt lat="45.05921087060653" lon="9.992835835259221"><ele>34.0</ele><time>2026-04-25T05:52:20.998Z</time></trkpt><trkpt lat="45.05914588913211" lon="9.992768966534632"><ele>34.0</ele><time>2026-04-25T05:52:21.998Z</time></trkpt><trkpt lat="45.05908158589827" lon="9.992702563654682"><ele>34.0</ele><time>2026-04-25T05:52:22.998Z</time></trkpt><trkpt lat="45.05901678963441" lon="9.992635283394852"><ele>34.0</ele><time>2026-04-25T05:52:23.998Z</time></trkpt><trkpt lat="45.05895236671156" lon="9.992565512018412"><ele>34.16666666666667</ele><time>2026-04-25T05:52:24.998Z</time></trkpt><trkpt lat="45.058889510017885" lon="9.992495706092777"><ele>34.333333333333336</ele><time>2026-04-25T05:52:25.998Z</time></trkpt><trkpt lat="45.05882695806388" lon="9.992421436423644"><ele>34.5</ele><time>2026-04-25T05:52:26.998Z</time></trkpt><trkpt lat="45.058767308568854" lon="9.992344789188671"><ele>34.666666666666664</ele><time>2026-04-25T05:52:27.998Z</time></trkpt><trkpt lat="45.05872063452522" lon="9.99225074963349"><ele>34.83333333333333</ele><time>2026-04-25T05:52:28.998Z</time></trkpt><trkpt lat="45.05866427055099" lon="9.99216917719655"><ele>35.0</ele><time>2026-04-25T05:52:29.998Z</time></trkpt><trkpt lat="45.05861112934625" lon="9.99208797558155"><ele>35.0</ele><time>2026-04-25T05:52:30.998Z</time></trkpt><trkpt lat="45.05855655055911" lon="9.992003392267426"><ele>35.0</ele><time>2026-04-25T05:52:31.998Z</time></trkpt><trkpt lat="45.05850518210657" lon="9.991918732398004"><ele>35.0</ele><time>2026-04-25T05:52:32.998Z</time></trkpt><trkpt lat="45.0584542393069" lon="9.991831336605355"><ele>35.0</ele><time>2026-04-25T05:52:33.998Z</time></trkpt><trkpt lat="45.0584025890691" lon="9.991742171167754"><ele>35.0</ele><time>2026-04-25T05:52:34.998Z</time></trkpt><trkpt lat="45.058353195846664" lon="9.991655838350662"><ele>35.0</ele><time>2026-04-25T05:52:35.998Z</time></trkpt><trkpt lat="45.058302305186125" lon="9.991566887985302"><ele>35.166666666666664</ele><time>2026-04-25T05:52:36.998Z</time></trkpt><trkpt lat="45.05824901862481" lon="9.991480284585254"><ele>35.33333333333333</ele><time>2026-04-25T05:52:37.998Z</time></trkpt><trkpt lat="45.058194923572714" lon="9.991397245871386"><ele>35.5</ele><time>2026-04-25T05:52:38.998Z</time></trkpt><trkpt lat="45.05813754464325" lon="9.991314463259165"><ele>35.666666666666664</ele><time>2026-04-25T05:52:39.998Z</time></trkpt><trkpt lat="45.05807914125537" lon="9.991236722895302"><ele>35.833333333333336</ele><time>2026-04-25T05:52:40.998Z</time></trkpt><trkpt lat="45.058013956724" lon="9.991163372972785"><ele>36.0</ele><time>2026-04-25T05:52:41.998Z</time></trkpt><trkpt lat="45.05794901576937" lon="9.991097624878652"><ele>36.0</ele><time>2026-04-25T05:52:42.998Z</time></trkpt><trkpt lat="45.05788239107296" lon="9.991032434842268"><ele>36.0</ele><time>2026-04-25T05:52:43.998Z</time></trkpt><trkpt lat="45.05781225385629" lon="9.990972174857909"><ele>36.0</ele><time>2026-04-25T05:52:45Z</time></trkpt><trkpt lat="45.05774032447234" lon="9.990917471064252"><ele>36.0</ele><time>2026-04-25T05:52:46Z</time></trkpt><trkpt lat="45.05766032421803" lon="9.990882366997036"><ele>36.0</ele><time>2026-04-25T05:52:47Z</time></trkpt><trkpt lat="45.05758983898701" lon="9.990826231609658"><ele>36.0</ele><time>2026-04-25T05:52:48Z</time></trkpt><trkpt lat="45.05752020006406" lon="9.990771630752466"><ele>36.333333333333336</ele><time>2026-04-25T05:52:49Z</time></trkpt><trkpt lat="45.057446871156586" lon="9.990719140006004"><ele>36.666666666666664</ele><time>2026-04-25T05:52:50Z</time></trkpt><trkpt lat="45.05737214974864" lon="9.99066931799218"><ele>37.0</ele><time>2026-04-25T05:52:51Z</time></trkpt><trkpt lat="45.057298704228934" lon="9.990618800576733"><ele>37.33333333333333</ele><time>2026-04-25T05:52:52Z</time></trkpt><trkpt lat="45.05722562960332" lon="9.990566715251727"><ele>37.666666666666664</ele><time>2026-04-25T05:52:53Z</time></trkpt><trkpt lat="45.05715424550554" lon="9.990519070457879"><ele>38.0</ele><time>2026-04-25T05:52:54Z</time></trkpt><trkpt lat="45.057078658803896" lon="9.99046977255207"><ele>38.0</ele><time>2026-04-25T05:52:55Z</time></trkpt><trkpt lat="45.05700729094276" lon="9.990420249626501"><ele>38.0</ele><time>2026-04-25T05:52:56Z</time></trkpt><trkpt lat="45.05693477480497" lon="9.990371774540597"><ele>38.0</ele><time>2026-04-25T05:52:57Z</time></trkpt><trkpt lat="45.05686144924094" lon="9.990325478383685"><ele>38.0</ele><time>2026-04-25T05:52:58Z</time></trkpt><trkpt lat="45.05678810758196" lon="9.990275993333217"><ele>38.0</ele><time>2026-04-25T05:52:59Z</time></trkpt><trkpt lat="45.056714548773165" lon="9.990231387031999"><ele>38.0</ele><time>2026-04-25T05:53:00Z</time></trkpt><trkpt lat="45.05663872617375" lon="9.990193776222007"><ele>37.83333333333333</ele><time>2026-04-25T05:53:01Z</time></trkpt><trkpt lat="45.05656294573865" lon="9.990162845848046"><ele>37.666666666666664</ele><time>2026-04-25T05:53:02Z</time></trkpt><trkpt lat="45.05648618166648" lon="9.990147197915416"><ele>37.5</ele><time>2026-04-25T05:53:03Z</time></trkpt><trkpt lat="45.05640897642241" lon="9.990146328070631"><ele>37.333333333333336</ele><time>2026-04-25T05:53:04Z</time></trkpt><trkpt lat="45.05633217518529" lon="9.990158899845351"><ele>37.16666666666667</ele><time>2026-04-25T05:53:05Z</time></trkpt><trkpt lat="45.056256176789006" lon="9.990182404735767"><ele>37.0</ele><time>2026-04-25T05:53:06Z</time></trkpt><trkpt lat="45.05617951425815" lon="9.990205570936267"><ele>37.0</ele><time>2026-04-25T05:53:07Z</time></trkpt><trkpt lat="45.05610721025096" lon="9.99022890823965"><ele>37.0</ele><time>2026-04-25T05:53:08Z</time></trkpt><trkpt lat="45.05602734432335" lon="9.990250102818846"><ele>37.0</ele><time>2026-04-25T05:53:08.999Z</time></trkpt><trkpt lat="45.05595312875622" lon="9.990276055093252"><ele>37.0</ele><time>2026-04-25T05:53:09.999Z</time></trkpt><trkpt lat="45.05587984961141" lon="9.990299213319966"><ele>37.0</ele><time>2026-04-25T05:53:10.999Z</time></trkpt><trkpt lat="45.05580321370441" lon="9.99032215367937"><ele>37.0</ele><time>2026-04-25T05:53:11.999Z</time></trkpt><trkpt lat="45.05572881003037" lon="9.990337278686331"><ele>37.0</ele><time>2026-04-25T05:53:12.999Z</time></trkpt><trkpt lat="45.05565312950509" lon="9.990350560347341"><ele>37.0</ele><time>2026-04-25T05:53:13.999Z</time></trkpt><trkpt lat="45.05557840911354" lon="9.990347305201368"><ele>37.0</ele><time>2026-04-25T05:53:14.999Z</time></trkpt><trkpt lat="45.055504202816174" lon="9.990339392912599"><ele>37.0</ele><time>2026-04-25T05:53:15.999Z</time></trkpt><trkpt lat="45.055433133271826" lon="9.990312678451513"><ele>37.0</ele><time>2026-04-25T05:53:16.999Z</time></trkpt><trkpt lat="45.05536159593717" lon="9.990280373988757"><ele>37.0</ele><time>2026-04-25T05:53:17.999Z</time></trkpt><trkpt lat="45.05529578356779" lon="9.99022928775781"><ele>37.0</ele><time>2026-04-25T05:53:18.999Z</time></trkpt><trkpt lat="45.05522702350239" lon="9.99018555802925"><ele>37.0</ele><time>2026-04-25T05:53:19.999Z</time></trkpt><trkpt lat="45.055164210132546" lon="9.99012589320212"><ele>37.0</ele><time>2026-04-25T05:53:20.999Z</time></trkpt><trkpt lat="45.05510204371184" lon="9.990057380928864"><ele>37.0</ele><time>2026-04-25T05:53:21.999Z</time></trkpt><trkpt lat="45.055049161973294" lon="9.98997804638039"><ele>37.0</ele><time>2026-04-25T05:53:22.999Z</time></trkpt><trkpt lat="45.054997955999994" lon="9.989894498227288"><ele>37.0</ele><time>2026-04-25T05:53:23.999Z</time></trkpt><trkpt lat="45.054947794847486" lon="9.989812698519161"><ele>37.0</ele><time>2026-04-25T05:53:24.999Z</time></trkpt><trkpt lat="45.05489551940138" lon="9.98973320385001"><ele>37.0</ele><time>2026-04-25T05:53:25.999Z</time></trkpt><trkpt lat="45.05484475211369" lon="9.989652102715995"><ele>37.0</ele><time>2026-04-25T05:53:26.999Z</time></trkpt><trkpt lat="45.054792117405505" lon="9.98957137138133"><ele>37.0</ele><time>2026-04-25T05:53:27.999Z</time></trkpt><trkpt lat="45.054741865847404" lon="9.989488290725593"><ele>37.0</ele><time>2026-04-25T05:53:28.999Z</time></trkpt><trkpt lat="45.05468973669396" lon="9.989407247986819"><ele>37.0</ele><time>2026-04-25T05:53:29.999Z</time></trkpt><trkpt lat="45.054639453076184" lon="9.989325179507732"><ele>37.0</ele><time>2026-04-25T05:53:30.999Z</time></trkpt><trkpt lat="45.05458772765354" lon="9.989246461451447"><ele>37.0</ele><time>2026-04-25T05:53:31.999Z</time></trkpt><trkpt lat="45.054534568428274" lon="9.989164072443511"><ele>37.0</ele><time>2026-04-25T05:53:32.999Z</time></trkpt><trkpt lat="45.05448569419112" lon="9.989082840341077"><ele>37.0</ele><time>2026-04-25T05:53:33.999Z</time></trkpt><trkpt lat="45.054432984425915" lon="9.989002367133562"><ele>37.0</ele><time>2026-04-25T05:53:34.999Z</time></trkpt><trkpt lat="45.05438049049057" lon="9.988924499375658"><ele>37.0</ele><time>2026-04-25T05:53:35.999Z</time></trkpt><trkpt lat="45.05432830570172" lon="9.988840916137281"><ele>37.0</ele><time>2026-04-25T05:53:36.999Z</time></trkpt><trkpt lat="45.05427469250084" lon="9.98876194234184"><ele>37.0</ele><time>2026-04-25T05:53:37.999Z</time></trkpt><trkpt lat="45.054223370477885" lon="9.988688692252571"><ele>37.0</ele><time>2026-04-25T05:53:38.999Z</time></trkpt><trkpt lat="45.054170410375555" lon="9.988613969016626"><ele>37.0</ele><time>2026-04-25T05:53:39.999Z</time></trkpt><trkpt lat="45.05411813059187" lon="9.988536658160443"><ele>37.0</ele><time>2026-04-25T05:53:40.999Z</time></trkpt><trkpt lat="45.05407257918973" lon="9.988453860791534"><ele>37.0</ele><time>2026-04-25T05:53:41.999Z</time></trkpt><trkpt lat="45.054022371216725" lon="9.98838265444532"><ele>37.0</ele><time>2026-04-25T05:53:42.999Z</time></trkpt><trkpt lat="45.05396404711545" lon="9.988316464525822"><ele>37.0</ele><time>2026-04-25T05:53:43.999Z</time></trkpt><trkpt lat="45.05389732188262" lon="9.988273004969747"><ele>37.0</ele><time>2026-04-25T05:53:44.999Z</time></trkpt><trkpt lat="45.05382407774773" lon="9.988246596744785"><ele>37.0</ele><time>2026-04-25T05:53:45.999Z</time></trkpt><trkpt lat="45.05374411783491" lon="9.988234933818436"><ele>37.0</ele><time>2026-04-25T05:53:46.999Z</time></trkpt><trkpt lat="45.05366300526244" lon="9.988227045761352"><ele>37.0</ele><time>2026-04-25T05:53:47.999Z</time></trkpt><trkpt lat="45.053579610884434" lon="9.988215429087672"><ele>37.0</ele><time>2026-04-25T05:53:48.999Z</time></trkpt><trkpt lat="45.053498848421455" lon="9.98819897176248"><ele>37.0</ele><time>2026-04-25T05:53:49.999Z</time></trkpt><trkpt lat="45.053416963804175" lon="9.988182902528868"><ele>37.0</ele><time>2026-04-25T05:53:50.999Z</time></trkpt><trkpt lat="45.05333659073521" lon="9.988167693515628"><ele>37.0</ele><time>2026-04-25T05:53:51.999Z</time></trkpt><trkpt lat="45.05325528933359" lon="9.988149989091777"><ele>37.0</ele><time>2026-04-25T05:53:52.999Z</time></trkpt><trkpt lat="45.05317449449133" lon="9.988132349728248"><ele>37.0</ele><time>2026-04-25T05:53:53.999Z</time></trkpt><trkpt lat="45.05309448984989" lon="9.988117295763491"><ele>37.0</ele><time>2026-04-25T05:53:54.999Z</time></trkpt><trkpt lat="45.05301649941232" lon="9.988104137419803"><ele>37.0</ele><time>2026-04-25T05:53:55.999Z</time></trkpt><trkpt lat="45.052936614101334" lon="9.988092964846185"><ele>36.833333333333336</ele><time>2026-04-25T05:53:56.999Z</time></trkpt><trkpt lat="45.05286033024354" lon="9.988081862898902"><ele>36.66666666666667</ele><time>2026-04-25T05:53:57.999Z</time></trkpt><trkpt lat="45.052782132293956" lon="9.988067380661022"><ele>36.5</ele><time>2026-04-25T05:53:58.999Z</time></trkpt><trkpt lat="45.05270532583148" lon="9.988051948881203"><ele>36.333333333333336</ele><time>2026-04-25T05:53:59.999Z</time></trkpt><trkpt lat="45.05262736578297" lon="9.988039208692653"><ele>36.166666666666664</ele><time>2026-04-25T05:54:00.999Z</time></trkpt><trkpt lat="45.0525511123483" lon="9.988028595679804"><ele>36.0</ele><time>2026-04-25T05:54:01.999Z</time></trkpt><trkpt lat="45.052472264454785" lon="9.988016178819995"><ele>36.0</ele><time>2026-04-25T05:54:02.999Z</time></trkpt><trkpt lat="45.052395096277" lon="9.988000470014606"><ele>36.0</ele><time>2026-04-25T05:54:03.998Z</time></trkpt><trkpt lat="45.052317041450024" lon="9.987982149420517"><ele>36.0</ele><time>2026-04-25T05:54:04.998Z</time></trkpt><trkpt lat="45.05223861504651" lon="9.987970609094086"><ele>36.0</ele><time>2026-04-25T05:54:05.998Z</time></trkpt><trkpt lat="45.05215959739497" lon="9.987958989096159"><ele>36.0</ele><time>2026-04-25T05:54:06.998Z</time></trkpt><trkpt lat="45.05208117121408" lon="9.987947741401385"><ele>36.0</ele><time>2026-04-25T05:54:07.998Z</time></trkpt><trkpt lat="45.052006531157346" lon="9.987933733854899"><ele>36.0</ele><time>2026-04-25T05:54:08.998Z</time></trkpt><trkpt lat="45.05192902042327" lon="9.987919240461704"><ele>36.0</ele><time>2026-04-25T05:54:09.998Z</time></trkpt><trkpt lat="45.05185082985595" lon="9.98790367486017"><ele>36.0</ele><time>2026-04-25T05:54:10.998Z</time></trkpt><trkpt lat="45.05177370304104" lon="9.987890076558358"><ele>36.0</ele><time>2026-04-25T05:54:11.998Z</time></trkpt><trkpt lat="45.05169599572366" lon="9.987879078378342"><ele>36.0</ele><time>2026-04-25T05:54:12.998Z</time></trkpt><trkpt lat="45.051617482583715" lon="9.987865650953852"><ele>36.0</ele><time>2026-04-25T05:54:13.998Z</time></trkpt><trkpt lat="45.05154079783484" lon="9.987850529902529"><ele>35.833333333333336</ele><time>2026-04-25T05:54:14.998Z</time></trkpt><trkpt lat="45.05146204802087" lon="9.987835208921052"><ele>35.666666666666664</ele><time>2026-04-25T05:54:15.998Z</time></trkpt><trkpt lat="45.05138495421071" lon="9.987822850130685"><ele>35.5</ele><time>2026-04-25T05:54:16.998Z</time></trkpt><trkpt lat="45.0513074604877" lon="9.987808823728543"><ele>35.33333333333333</ele><time>2026-04-25T05:54:17.998Z</time></trkpt><trkpt lat="45.05122755316155" lon="9.98779622144558"><ele>35.166666666666664</ele><time>2026-04-25T05:54:18.998Z</time></trkpt><trkpt lat="45.05114958739166" lon="9.987781111803354"><ele>35.0</ele><time>2026-04-25T05:54:19.998Z</time></trkpt><trkpt lat="45.05107196900335" lon="9.98776524505903"><ele>35.0</ele><time>2026-04-25T05:54:20.998Z</time></trkpt><trkpt lat="45.05099260842499" lon="9.987752067826017"><ele>35.0</ele><time>2026-04-25T05:54:21.998Z</time></trkpt><trkpt lat="45.05091486335799" lon="9.987736895285778"><ele>35.0</ele><time>2026-04-25T05:54:22.998Z</time></trkpt><trkpt lat="45.05083622346811" lon="9.98772620826726"><ele>35.0</ele><time>2026-04-25T05:54:23.998Z</time></trkpt><trkpt lat="45.05075766189989" lon="9.987714315800819"><ele>35.0</ele><time>2026-04-25T05:54:24.998Z</time></trkpt><trkpt lat="45.05067863722187" lon="9.987699455152224"><ele>35.0</ele><time>2026-04-25T05:54:25.998Z</time></trkpt><trkpt lat="45.0506003649869" lon="9.9876842722345"><ele>34.83333333333333</ele><time>2026-04-25T05:54:26.998Z</time></trkpt><trkpt lat="45.05051862689672" lon="9.987671441692795"><ele>34.666666666666664</ele><time>2026-04-25T05:54:27.998Z</time></trkpt><trkpt lat="45.05043957374609" lon="9.987657083561576"><ele>34.5</ele><time>2026-04-25T05:54:28.998Z</time></trkpt><trkpt lat="45.05036090474049" lon="9.987642214000838"><ele>34.333333333333336</ele><time>2026-04-25T05:54:29.998Z</time></trkpt><trkpt lat="45.050280880427586" lon="9.987629232618442"><ele>34.16666666666667</ele><time>2026-04-25T05:54:30.998Z</time></trkpt><trkpt lat="45.05020028916631" lon="9.987611756393797"><ele>34.0</ele><time>2026-04-25T05:54:31.998Z</time></trkpt><trkpt lat="45.05012122088931" lon="9.98759543548442"><ele>34.0</ele><time>2026-04-25T05:54:32.998Z</time></trkpt><trkpt lat="45.050041515835886" lon="9.987580406692967"><ele>34.0</ele><time>2026-04-25T05:54:33.998Z</time></trkpt><trkpt lat="45.04996081196487" lon="9.987566610450134"><ele>34.0</ele><time>2026-04-25T05:54:34.998Z</time></trkpt><trkpt lat="45.04988216115715" lon="9.987553084641679"><ele>34.0</ele><time>2026-04-25T05:54:35.998Z</time></trkpt><trkpt lat="45.0498024932645" lon="9.98753833606559"><ele>34.0</ele><time>2026-04-25T05:54:36.998Z</time></trkpt><trkpt lat="45.04972105748231" lon="9.9875211216145"><ele>34.0</ele><time>2026-04-25T05:54:37.998Z</time></trkpt><trkpt lat="45.04964293641337" lon="9.987507482067064"><ele>34.16666666666667</ele><time>2026-04-25T05:54:38.998Z</time></trkpt><trkpt lat="45.04956405681859" lon="9.987491219186943"><ele>34.333333333333336</ele><time>2026-04-25T05:54:39.998Z</time></trkpt><trkpt lat="45.049484074977244" lon="9.987476826677712"><ele>34.5</ele><time>2026-04-25T05:54:40.998Z</time></trkpt><trkpt lat="45.04940341730184" lon="9.987464027171455"><ele>34.666666666666664</ele><time>2026-04-25T05:54:41.998Z</time></trkpt><trkpt lat="45.049322277127146" lon="9.987450055561611"><ele>34.83333333333333</ele><time>2026-04-25T05:54:42.998Z</time></trkpt><trkpt lat="45.04924397087217" lon="9.987437478165173"><ele>35.0</ele><time>2026-04-25T05:54:43.998Z</time></trkpt><trkpt lat="45.04916477477549" lon="9.987426782562597"><ele>35.33333333333333</ele><time>2026-04-25T05:54:44.998Z</time></trkpt><trkpt lat="45.049088738836645" lon="9.987418306929282"><ele>35.666666666666664</ele><time>2026-04-25T05:54:45.998Z</time></trkpt><trkpt lat="45.049009085435564" lon="9.987405043576386"><ele>36.0</ele><time>2026-04-25T05:54:46.998Z</time></trkpt><trkpt lat="45.04893130955449" lon="9.987392749409482"><ele>36.333333333333336</ele><time>2026-04-25T05:54:47.998Z</time></trkpt><trkpt lat="45.04885054271137" lon="9.987380342631617"><ele>36.66666666666667</ele><time>2026-04-25T05:54:48.998Z</time></trkpt><trkpt lat="45.048772693458346" lon="9.987370381105869"><ele>37.0</ele><time>2026-04-25T05:54:49.998Z</time></trkpt><trkpt lat="45.04869236750643" lon="9.987358215670191"><ele>37.0</ele><time>2026-04-25T05:54:51Z</time></trkpt><trkpt lat="45.048613363706274" lon="9.987350129793406"><ele>37.0</ele><time>2026-04-25T05:54:52Z</time></trkpt><trkpt lat="45.048532819008955" lon="9.987340322082128"><ele>37.0</ele><time>2026-04-25T05:54:53Z</time></trkpt><trkpt lat="45.04845217630791" lon="9.987332466689375"><ele>37.0</ele><time>2026-04-25T05:54:54Z</time></trkpt><trkpt lat="45.04837265802182" lon="9.987319486308309"><ele>37.0</ele><time>2026-04-25T05:54:55Z</time></trkpt><trkpt lat="45.048292444381936" lon="9.987303100190154"><ele>37.0</ele><time>2026-04-25T05:54:56Z</time></trkpt><trkpt lat="45.048211898732276" lon="9.987293081188383"><ele>37.0</ele><time>2026-04-25T05:54:57Z</time></trkpt><trkpt lat="45.04813257497087" lon="9.987282500367762"><ele>37.0</ele><time>2026-04-25T05:54:58Z</time></trkpt><trkpt lat="45.04805284769777" lon="9.987272921688705"><ele>37.0</ele><time>2026-04-25T05:54:59Z</time></trkpt><trkpt lat="45.04797365232313" lon="9.9872621340459"><ele>37.0</ele><time>2026-04-25T05:55:00Z</time></trkpt><trkpt lat="45.04789476389802" lon="9.987253286885927"><ele>37.0</ele><time>2026-04-25T05:55:01Z</time></trkpt><trkpt lat="45.047815112904544" lon="9.987242901908768"><ele>37.0</ele><time>2026-04-25T05:55:02Z</time></trkpt><trkpt lat="45.047735762299766" lon="9.98723308772356"><ele>37.0</ele><time>2026-04-25T05:55:03Z</time></trkpt><trkpt lat="45.0476559538239" lon="9.987220710932446"><ele>37.0</ele><time>2026-04-25T05:55:04Z</time></trkpt><trkpt lat="45.04757827057079" lon="9.987210403233581"><ele>37.0</ele><time>2026-04-25T05:55:05Z</time></trkpt><trkpt lat="45.047499132296586" lon="9.987200050167726"><ele>37.0</ele><time>2026-04-25T05:55:06Z</time></trkpt><trkpt lat="45.04741904842669" lon="9.987186607576252"><ele>37.0</ele><time>2026-04-25T05:55:07Z</time></trkpt><trkpt lat="45.0473392677211" lon="9.987174358311556"><ele>37.0</ele><time>2026-04-25T05:55:08Z</time></trkpt><trkpt lat="45.047258941641154" lon="9.987166027671549"><ele>36.5</ele><time>2026-04-25T05:55:09Z</time></trkpt><trkpt lat="45.04717925275864" lon="9.987152926604029"><ele>36.0</ele><time>2026-04-25T05:55:10Z</time></trkpt><trkpt lat="45.04709832981388" lon="9.98714256516732"><ele>35.5</ele><time>2026-04-25T05:55:11Z</time></trkpt><trkpt lat="45.047018098004415" lon="9.98713124673202"><ele>35.0</ele><time>2026-04-25T05:55:12Z</time></trkpt><trkpt lat="45.04693756730335" lon="9.987119471557346"><ele>34.5</ele><time>2026-04-25T05:55:12.999Z</time></trkpt><trkpt lat="45.046856746673626" lon="9.987108463639256"><ele>34.0</ele><time>2026-04-25T05:55:13.999Z</time></trkpt><trkpt lat="45.04677647860778" lon="9.987097638814586"><ele>34.0</ele><time>2026-04-25T05:55:14.999Z</time></trkpt><trkpt lat="45.04669904471359" lon="9.987088352927433"><ele>34.0</ele><time>2026-04-25T05:55:15.999Z</time></trkpt><trkpt lat="45.0466192899091" lon="9.987077578994484"><ele>34.0</ele><time>2026-04-25T05:55:16.999Z</time></trkpt><trkpt lat="45.046541180666274" lon="9.987068634675538"><ele>34.0</ele><time>2026-04-25T05:55:17.999Z</time></trkpt><trkpt lat="45.04646188059606" lon="9.987058418839288"><ele>34.0</ele><time>2026-04-25T05:55:18.999Z</time></trkpt><trkpt lat="45.04638350225522" lon="9.987047707683763"><ele>34.0</ele><time>2026-04-25T05:55:19.999Z</time></trkpt><trkpt lat="45.046304295633504" lon="9.987038437462365"><ele>34.0</ele><time>2026-04-25T05:55:20.999Z</time></trkpt><trkpt lat="45.04622426569065" lon="9.987033470775145"><ele>34.0</ele><time>2026-04-25T05:55:21.999Z</time></trkpt><trkpt lat="45.04614315107174" lon="9.987031290859449"><ele>34.0</ele><time>2026-04-25T05:55:22.999Z</time></trkpt><trkpt lat="45.046063508931056" lon="9.98703342706093"><ele>34.0</ele><time>2026-04-25T05:55:23.999Z</time></trkpt><trkpt lat="45.04598381491976" lon="9.987047196431568"><ele>34.0</ele><time>2026-04-25T05:55:24.999Z</time></trkpt><trkpt lat="45.04590459287885" lon="9.98705771762599"><ele>34.0</ele><time>2026-04-25T05:55:25.999Z</time></trkpt><trkpt lat="45.04582575449163" lon="9.987075884425153"><ele>34.0</ele><time>2026-04-25T05:55:26.999Z</time></trkpt><trkpt lat="45.045747224681506" lon="9.987095669575853"><ele>34.0</ele><time>2026-04-25T05:55:27.999Z</time></trkpt><trkpt lat="45.045670726264326" lon="9.987117981971325"><ele>34.0</ele><time>2026-04-25T05:55:28.999Z</time></trkpt><trkpt lat="45.04558955810851" lon="9.987145424187615"><ele>34.0</ele><time>2026-04-25T05:55:29.999Z</time></trkpt><trkpt lat="45.04551363043647" lon="9.987168577560075"><ele>34.0</ele><time>2026-04-25T05:55:30.999Z</time></trkpt><trkpt lat="45.04543394438434" lon="9.987192997000362"><ele>34.0</ele><time>2026-04-25T05:55:31.999Z</time></trkpt><trkpt lat="45.045357109913766" lon="9.987219446323346"><ele>34.0</ele><time>2026-04-25T05:55:32.999Z</time></trkpt><trkpt lat="45.045279413528135" lon="9.98724403704539"><ele>34.0</ele><time>2026-04-25T05:55:33.999Z</time></trkpt><trkpt lat="45.04520119010628" lon="9.987269778007516"><ele>34.0</ele><time>2026-04-25T05:55:34.999Z</time></trkpt><trkpt lat="45.04512390835742" lon="9.987296233298817"><ele>34.0</ele><time>2026-04-25T05:55:35.999Z</time></trkpt><trkpt lat="45.045046500006166" lon="9.987319699922796"><ele>34.0</ele><time>2026-04-25T05:55:36.999Z</time></trkpt><trkpt lat="45.044968192922035" lon="9.987344621752703"><ele>34.0</ele><time>2026-04-25T05:55:37.999Z</time></trkpt><trkpt lat="45.04488851852675" lon="9.987368195576034"><ele>34.16666666666667</ele><time>2026-04-25T05:55:38.999Z</time></trkpt><trkpt lat="45.04481176582119" lon="9.987395149357344"><ele>34.333333333333336</ele><time>2026-04-25T05:55:39.999Z</time></trkpt><trkpt lat="45.04473403806637" lon="9.987420488244526"><ele>34.5</ele><time>2026-04-25T05:55:40.999Z</time></trkpt><trkpt lat="45.044656852671366" lon="9.987446717749874"><ele>34.666666666666664</ele><time>2026-04-25T05:55:41.999Z</time></trkpt><trkpt lat="45.04457867775367" lon="9.987471338377162"><ele>34.83333333333333</ele><time>2026-04-25T05:55:42.999Z</time></trkpt><trkpt lat="45.0444994034627" lon="9.987496788386888"><ele>35.0</ele><time>2026-04-25T05:55:43.999Z</time></trkpt><trkpt lat="45.04442097489249" lon="9.987521501639343"><ele>35.0</ele><time>2026-04-25T05:55:44.999Z</time></trkpt><trkpt lat="45.04434079767444" lon="9.987548927706976"><ele>35.0</ele><time>2026-04-25T05:55:45.999Z</time></trkpt><trkpt lat="45.04426103646528" lon="9.987573654216401"><ele>35.0</ele><time>2026-04-25T05:55:46.999Z</time></trkpt><trkpt lat="45.04418316282921" lon="9.987598940179883"><ele>35.0</ele><time>2026-04-25T05:55:47.999Z</time></trkpt><trkpt lat="45.044103255217514" lon="9.987622776906855"><ele>35.0</ele><time>2026-04-25T05:55:48.999Z</time></trkpt><trkpt lat="45.04402352234828" lon="9.987647624688803"><ele>35.0</ele><time>2026-04-25T05:55:49.999Z</time></trkpt><trkpt lat="45.04394591924846" lon="9.987673861665852"><ele>35.166666666666664</ele><time>2026-04-25T05:55:50.999Z</time></trkpt><trkpt lat="45.04386795911437" lon="9.987703768035985"><ele>35.33333333333333</ele><time>2026-04-25T05:55:51.999Z</time></trkpt><trkpt lat="45.043789047601244" lon="9.987728756695175"><ele>35.5</ele><time>2026-04-25T05:55:52.999Z</time></trkpt><trkpt lat="45.04371175982552" lon="9.987754776211332"><ele>35.666666666666664</ele><time>2026-04-25T05:55:53.999Z</time></trkpt><trkpt lat="45.043632427986836" lon="9.987781635444883"><ele>35.833333333333336</ele><time>2026-04-25T05:55:54.999Z</time></trkpt><trkpt lat="45.0435543899189" lon="9.987803546013959"><ele>36.0</ele><time>2026-04-25T05:55:55.999Z</time></trkpt><trkpt lat="45.04347640334179" lon="9.987827872733739"><ele>36.0</ele><time>2026-04-25T05:55:56.999Z</time></trkpt><trkpt lat="45.04339777457903" lon="9.987854353127593"><ele>36.0</ele><time>2026-04-25T05:55:57.999Z</time></trkpt><trkpt lat="45.04332129397216" lon="9.98788146883728"><ele>36.0</ele><time>2026-04-25T05:55:58.999Z</time></trkpt><trkpt lat="45.04324311283755" lon="9.987907123381513"><ele>36.0</ele><time>2026-04-25T05:55:59.999Z</time></trkpt><trkpt lat="45.04316595939969" lon="9.987930329978768"><ele>36.0</ele><time>2026-04-25T05:56:00.999Z</time></trkpt><trkpt lat="45.043086692368625" lon="9.987955644472041"><ele>36.0</ele><time>2026-04-25T05:56:01.999Z</time></trkpt><trkpt lat="45.043007976490706" lon="9.98798284461556"><ele>36.166666666666664</ele><time>2026-04-25T05:56:02.999Z</time></trkpt><trkpt lat="45.04293050030216" lon="9.9880082210465"><ele>36.333333333333336</ele><time>2026-04-25T05:56:03.999Z</time></trkpt><trkpt lat="45.04285112291005" lon="9.988033788747865"><ele>36.5</ele><time>2026-04-25T05:56:04.999Z</time></trkpt><trkpt lat="45.04277482010882" lon="9.988058667106337"><ele>36.66666666666667</ele><time>2026-04-25T05:56:05.999Z</time></trkpt><trkpt lat="45.04269419574491" lon="9.988083237977358"><ele>36.833333333333336</ele><time>2026-04-25T05:56:06.999Z</time></trkpt><trkpt lat="45.04261796003094" lon="9.988110931408572"><ele>37.0</ele><time>2026-04-25T05:56:07.999Z</time></trkpt><trkpt lat="45.042540192800786" lon="9.988136669174628"><ele>37.0</ele><time>2026-04-25T05:56:08.998Z</time></trkpt><trkpt lat="45.0424594808224" lon="9.988160168908962"><ele>37.0</ele><time>2026-04-25T05:56:09.998Z</time></trkpt><trkpt lat="45.042382518064166" lon="9.988187495238686"><ele>37.0</ele><time>2026-04-25T05:56:10.998Z</time></trkpt><trkpt lat="45.04230398751829" lon="9.98821184982067"><ele>37.0</ele><time>2026-04-25T05:56:11.998Z</time></trkpt><trkpt lat="45.04222698634572" lon="9.988238537097427"><ele>37.0</ele><time>2026-04-25T05:56:12.998Z</time></trkpt><trkpt lat="45.04214922407348" lon="9.988261829213757"><ele>37.0</ele><time>2026-04-25T05:56:13.998Z</time></trkpt><trkpt lat="45.0420700336171" lon="9.988282881658844"><ele>37.0</ele><time>2026-04-25T05:56:14.998Z</time></trkpt><trkpt lat="45.041993826494725" lon="9.988305823161364"><ele>37.0</ele><time>2026-04-25T05:56:15.998Z</time></trkpt><trkpt lat="45.04191485352637" lon="9.988330409151748"><ele>37.0</ele><time>2026-04-25T05:56:16.998Z</time></trkpt><trkpt lat="45.04183807002234" lon="9.988358775055513"><ele>37.0</ele><time>2026-04-25T05:56:17.998Z</time></trkpt><trkpt lat="45.041760227121955" lon="9.988383537052682"><ele>37.0</ele><time>2026-04-25T05:56:18.998Z</time></trkpt><trkpt lat="45.04168379516891" lon="9.988408348898647"><ele>37.0</ele><time>2026-04-25T05:56:19.998Z</time></trkpt><trkpt lat="45.04160606454526" lon="9.988434710583155"><ele>36.833333333333336</ele><time>2026-04-25T05:56:20.998Z</time></trkpt><trkpt lat="45.04152969151373" lon="9.988464413453737"><ele>36.66666666666667</ele><time>2026-04-25T05:56:21.998Z</time></trkpt><trkpt lat="45.04145202761015" lon="9.98849035819744"><ele>36.5</ele><time>2026-04-25T05:56:22.998Z</time></trkpt><trkpt lat="45.04137538836881" lon="9.988518085465126"><ele>36.333333333333336</ele><time>2026-04-25T05:56:23.998Z</time></trkpt><trkpt lat="45.04129951065636" lon="9.988545063757169"><ele>36.166666666666664</ele><time>2026-04-25T05:56:24.998Z</time></trkpt><trkpt lat="45.04122351998217" lon="9.988574773119616"><ele>36.0</ele><time>2026-04-25T05:56:25.998Z</time></trkpt><trkpt lat="45.04114638143702" lon="9.98860024363461"><ele>36.0</ele><time>2026-04-25T05:56:26.998Z</time></trkpt><trkpt lat="45.04106900805485" lon="9.98862687347357"><ele>36.0</ele><time>2026-04-25T05:56:27.998Z</time></trkpt><trkpt lat="45.04099300007896" lon="9.988652680441797"><ele>36.0</ele><time>2026-04-25T05:56:28.998Z</time></trkpt><trkpt lat="45.040914392948594" lon="9.988675529830969"><ele>36.0</ele><time>2026-04-25T05:56:29.998Z</time></trkpt><trkpt lat="45.04083704021205" lon="9.988701640239103"><ele>36.0</ele><time>2026-04-25T05:56:30.998Z</time></trkpt><trkpt lat="45.04075936650433" lon="9.988728076963723"><ele>36.0</ele><time>2026-04-25T05:56:31.998Z</time></trkpt><trkpt lat="45.04068357509185" lon="9.988753552784313"><ele>36.166666666666664</ele><time>2026-04-25T05:56:32.998Z</time></trkpt><trkpt lat="45.04060415981778" lon="9.988776291349824"><ele>36.333333333333336</ele><time>2026-04-25T05:56:33.998Z</time></trkpt><trkpt lat="45.040527756934786" lon="9.988801219218425"><ele>36.5</ele><time>2026-04-25T05:56:34.998Z</time></trkpt><trkpt lat="45.040450910151044" lon="9.988823813152587"><ele>36.66666666666667</ele><time>2026-04-25T05:56:35.998Z</time></trkpt><trkpt lat="45.040375421847195" lon="9.98885054189159"><ele>36.833333333333336</ele><time>2026-04-25T05:56:36.998Z</time></trkpt><trkpt lat="45.04029879394845" lon="9.988875427606441"><ele>37.0</ele><time>2026-04-25T05:56:37.998Z</time></trkpt><trkpt lat="45.04022181569521" lon="9.988900061705273"><ele>37.0</ele><time>2026-04-25T05:56:38.998Z</time></trkpt><trkpt lat="45.04014696923884" lon="9.988925871179784"><ele>37.0</ele><time>2026-04-25T05:56:39.998Z</time></trkpt><trkpt lat="45.04006920950605" lon="9.988947868347289"><ele>37.0</ele><time>2026-04-25T05:56:40.998Z</time></trkpt><trkpt lat="45.039993004456235" lon="9.988972765004512"><ele>37.0</ele><time>2026-04-25T05:56:41.998Z</time></trkpt><trkpt lat="45.03991537390593" lon="9.988996368090582"><ele>37.0</ele><time>2026-04-25T05:56:42.998Z</time></trkpt><trkpt lat="45.03983841968411" lon="9.989022303614545"><ele>37.0</ele><time>2026-04-25T05:56:43.998Z</time></trkpt><trkpt lat="45.039761873797254" lon="9.989047422341567"><ele>36.833333333333336</ele><time>2026-04-25T05:56:44.998Z</time></trkpt><trkpt lat="45.039684838407986" lon="9.989075242927179"><ele>36.66666666666667</ele><time>2026-04-25T05:56:45.998Z</time></trkpt><trkpt lat="45.039606746754224" lon="9.989100304141711"><ele>36.5</ele><time>2026-04-25T05:56:46.998Z</time></trkpt><trkpt lat="45.03952908335143" lon="9.989124759053707"><ele>36.333333333333336</ele><time>2026-04-25T05:56:47.998Z</time></trkpt><trkpt lat="45.03945363443733" lon="9.989150574692914"><ele>36.166666666666664</ele><time>2026-04-25T05:56:48.998Z</time></trkpt><trkpt lat="45.03937671337796" lon="9.989175031154682"><ele>36.0</ele><time>2026-04-25T05:56:49.998Z</time></trkpt><trkpt lat="45.039301739166206" lon="9.989201818945531"><ele>35.833333333333336</ele><time>2026-04-25T05:56:50.998Z</time></trkpt><trkpt lat="45.0392257034537" lon="9.989226242964914"><ele>35.666666666666664</ele><time>2026-04-25T05:56:51.998Z</time></trkpt><trkpt lat="45.03914962623511" lon="9.98925040088646"><ele>35.5</ele><time>2026-04-25T05:56:52.998Z</time></trkpt><trkpt lat="45.039075381640885" lon="9.989278367696471"><ele>35.33333333333333</ele><time>2026-04-25T05:56:53.998Z</time></trkpt><trkpt lat="45.03899673824748" lon="9.9893035194789"><ele>35.166666666666664</ele><time>2026-04-25T05:56:54.998Z</time></trkpt><trkpt lat="45.03892114995946" lon="9.989329459140567"><ele>35.0</ele><time>2026-04-25T05:56:55.998Z</time></trkpt><trkpt lat="45.03884272188272" lon="9.989353470226428"><ele>34.666666666666664</ele><time>2026-04-25T05:56:57Z</time></trkpt><trkpt lat="45.038766959728605" lon="9.98937895985689"><ele>34.33333333333333</ele><time>2026-04-25T05:56:58Z</time></trkpt><trkpt lat="45.03869071290367" lon="9.989404022588507"><ele>34.0</ele><time>2026-04-25T05:56:59Z</time></trkpt><trkpt lat="45.03861482701704" lon="9.989430807265258"><ele>33.666666666666664</ele><time>2026-04-25T05:57:00Z</time></trkpt><trkpt lat="45.03853881327727" lon="9.989459244249861"><ele>33.333333333333336</ele><time>2026-04-25T05:57:01Z</time></trkpt><trkpt lat="45.038461398586904" lon="9.989491560298474"><ele>33.0</ele><time>2026-04-25T05:57:02Z</time></trkpt><trkpt lat="45.038385148110336" lon="9.989524580975676"><ele>33.0</ele><time>2026-04-25T05:57:03Z</time></trkpt><trkpt lat="45.03830966899466" lon="9.989555301832862"><ele>33.0</ele><time>2026-04-25T05:57:04Z</time></trkpt><trkpt lat="45.03823153328568" lon="9.989582931987117"><ele>33.0</ele><time>2026-04-25T05:57:05Z</time></trkpt><trkpt lat="45.03815562267647" lon="9.98961057482432"><ele>33.0</ele><time>2026-04-25T05:57:06Z</time></trkpt><trkpt lat="45.03807981493793" lon="9.98964162466475"><ele>33.0</ele><time>2026-04-25T05:57:07Z</time></trkpt><trkpt lat="45.0380044314248" lon="9.98967356250538"><ele>33.0</ele><time>2026-04-25T05:57:08Z</time></trkpt><trkpt lat="45.03792748436728" lon="9.989705726148019"><ele>33.833333333333336</ele><time>2026-04-25T05:57:09Z</time></trkpt><trkpt lat="45.03785193067264" lon="9.989739410374064"><ele>34.666666666666664</ele><time>2026-04-25T05:57:10Z</time></trkpt><trkpt lat="45.03777648260479" lon="9.989771677009164"><ele>35.5</ele><time>2026-04-25T05:57:11Z</time></trkpt><trkpt lat="45.037700689472636" lon="9.989803456836734"><ele>36.33333333333333</ele><time>2026-04-25T05:57:12Z</time></trkpt><trkpt lat="45.037624300905705" lon="9.98983523501695"><ele>37.166666666666664</ele><time>2026-04-25T05:57:13Z</time></trkpt><trkpt lat="45.03754800802468" lon="9.989869093499191"><ele>38.0</ele><time>2026-04-25T05:57:14Z</time></trkpt><trkpt lat="45.03747279847991" lon="9.98990646369756"><ele>38.0</ele><time>2026-04-25T05:57:15Z</time></trkpt><trkpt lat="45.03739992801714" lon="9.98994894102909"><ele>38.0</ele><time>2026-04-25T05:57:16Z</time></trkpt><trkpt lat="45.03732674926797" lon="9.989992656142089"><ele>38.0</ele><time>2026-04-25T05:57:17Z</time></trkpt><trkpt lat="45.03725539409898" lon="9.990040726986141"><ele>38.0</ele><time>2026-04-25T05:57:17.999Z</time></trkpt><trkpt lat="45.03718170061197" lon="9.990087329911297"><ele>38.0</ele><time>2026-04-25T05:57:18.999Z</time></trkpt><trkpt lat="45.03711149597632" lon="9.990135010451372"><ele>38.0</ele><time>2026-04-25T05:57:19.999Z</time></trkpt><trkpt lat="45.03704203248441" lon="9.990188892868707"><ele>38.0</ele><time>2026-04-25T05:57:20.999Z</time></trkpt><trkpt lat="45.036973985219554" lon="9.990241272327058"><ele>38.0</ele><time>2026-04-25T05:57:21.999Z</time></trkpt><trkpt lat="45.036905263706" lon="9.990294468323494"><ele>38.0</ele><time>2026-04-25T05:57:22.999Z</time></trkpt><trkpt lat="45.03683398089358" lon="9.990345113138796"><ele>38.0</ele><time>2026-04-25T05:57:23.999Z</time></trkpt><trkpt lat="45.036762728659916" lon="9.9903900712524"><ele>38.0</ele><time>2026-04-25T05:57:24.999Z</time></trkpt><trkpt lat="45.03668742564781" lon="9.990426047343801"><ele>38.0</ele><time>2026-04-25T05:57:25.999Z</time></trkpt><trkpt lat="45.036611269228445" lon="9.990449356725819"><ele>38.0</ele><time>2026-04-25T05:57:26.999Z</time></trkpt><trkpt lat="45.03653109672516" lon="9.99045262978083"><ele>38.0</ele><time>2026-04-25T05:57:27.999Z</time></trkpt><trkpt lat="45.036451950498666" lon="9.990444957813374"><ele>38.0</ele><time>2026-04-25T05:57:28.999Z</time></trkpt><trkpt lat="45.03637528732334" lon="9.990427057169262"><ele>38.0</ele><time>2026-04-25T05:57:29.999Z</time></trkpt><trkpt lat="45.0362976987392" lon="9.99040858073498"><ele>38.0</ele><time>2026-04-25T05:57:30.999Z</time></trkpt><trkpt lat="45.036222143341526" lon="9.990391341594329"><ele>38.0</ele><time>2026-04-25T05:57:31.999Z</time></trkpt><trkpt lat="45.03614332443233" lon="9.990369846868758"><ele>38.0</ele><time>2026-04-25T05:57:32.999Z</time></trkpt><trkpt lat="45.03606731139636" lon="9.990353023092442"><ele>38.0</ele><time>2026-04-25T05:57:33.999Z</time></trkpt><trkpt lat="45.035990635977306" lon="9.990333373650088"><ele>38.0</ele><time>2026-04-25T05:57:34.999Z</time></trkpt><trkpt lat="45.035913042669776" lon="9.990316305597787"><ele>38.0</ele><time>2026-04-25T05:57:35.999Z</time></trkpt><trkpt lat="45.0358353123437" lon="9.99029932983401"><ele>38.0</ele><time>2026-04-25T05:57:36.999Z</time></trkpt><trkpt lat="45.035758019199726" lon="9.990280659856973"><ele>38.0</ele><time>2026-04-25T05:57:37.999Z</time></trkpt><trkpt lat="45.035682374370786" lon="9.990260032053673"><ele>37.83333333333333</ele><time>2026-04-25T05:57:38.999Z</time></trkpt><trkpt lat="45.035603827922955" lon="9.990243092541334"><ele>37.666666666666664</ele><time>2026-04-25T05:57:39.999Z</time></trkpt><trkpt lat="45.03553013969251" lon="9.990219942026606"><ele>37.5</ele><time>2026-04-25T05:57:40.999Z</time></trkpt><trkpt lat="45.03545386619898" lon="9.99019527517542"><ele>37.333333333333336</ele><time>2026-04-25T05:57:41.999Z</time></trkpt><trkpt lat="45.03537965438038" lon="9.99016828823257"><ele>37.16666666666667</ele><time>2026-04-25T05:57:42.999Z</time></trkpt><trkpt lat="45.03530551354465" lon="9.99013629939882"><ele>37.0</ele><time>2026-04-25T05:57:43.999Z</time></trkpt><trkpt lat="45.03523053088666" lon="9.990105600083387"><ele>37.0</ele><time>2026-04-25T05:57:44.999Z</time></trkpt><trkpt lat="45.035157853363714" lon="9.990068676912392"><ele>37.0</ele><time>2026-04-25T05:57:45.999Z</time></trkpt><trkpt lat="45.0350845612555" lon="9.990031280334604"><ele>37.0</ele><time>2026-04-25T05:57:46.999Z</time></trkpt><trkpt lat="45.03501200625357" lon="9.989991822526289"><ele>37.0</ele><time>2026-04-25T05:57:47.999Z</time></trkpt><trkpt lat="45.034938399466036" lon="9.98995356760468"><ele>37.0</ele><time>2026-04-25T05:57:48.999Z</time></trkpt><trkpt lat="45.03486756530165" lon="9.989915249634294"><ele>37.0</ele><time>2026-04-25T05:57:49.999Z</time></trkpt><trkpt lat="45.03479372702105" lon="9.989871819950027"><ele>37.5</ele><time>2026-04-25T05:57:50.999Z</time></trkpt><trkpt lat="45.03472240413132" lon="9.989823681693279"><ele>38.0</ele><time>2026-04-25T05:57:51.999Z</time></trkpt><trkpt lat="45.03465091600932" lon="9.98977491214221"><ele>38.5</ele><time>2026-04-25T05:57:52.999Z</time></trkpt><trkpt lat="45.03457865342903" lon="9.989727974755926"><ele>39.0</ele><time>2026-04-25T05:57:53.999Z</time></trkpt><trkpt lat="45.0345073274643" lon="9.989681090373903"><ele>39.5</ele><time>2026-04-25T05:57:54.999Z</time></trkpt><trkpt lat="45.0344357383256" lon="9.989634002433945"><ele>40.0</ele><time>2026-04-25T05:57:55.999Z</time></trkpt><trkpt lat="45.03436493197565" lon="9.98958470225983"><ele>40.0</ele><time>2026-04-25T05:57:56.999Z</time></trkpt><trkpt lat="45.03429209050628" lon="9.989539746808793"><ele>40.0</ele><time>2026-04-25T05:57:57.999Z</time></trkpt><trkpt lat="45.03421858820247" lon="9.98949491058017"><ele>40.0</ele><time>2026-04-25T05:57:58.999Z</time></trkpt><trkpt lat="45.034145263523456" lon="9.98945210183256"><ele>40.0</ele><time>2026-04-25T05:57:59.999Z</time></trkpt><trkpt lat="45.03406970564172" lon="9.989409796539574"><ele>40.0</ele><time>2026-04-25T05:58:00.999Z</time></trkpt><trkpt lat="45.03399640198307" lon="9.98937008178863"><ele>40.0</ele><time>2026-04-25T05:58:01.999Z</time></trkpt><trkpt lat="45.03392087268322" lon="9.989325388820916"><ele>39.833333333333336</ele><time>2026-04-25T05:58:02.999Z</time></trkpt><trkpt lat="45.03384442088296" lon="9.989291173970232"><ele>39.66666666666667</ele><time>2026-04-25T05:58:03.999Z</time></trkpt><trkpt lat="45.03376781274264" lon="9.989262411476496"><ele>39.5</ele><time>2026-04-25T05:58:04.999Z</time></trkpt><trkpt lat="45.03369171570668" lon="9.989231964520068"><ele>39.333333333333336</ele><time>2026-04-25T05:58:05.999Z</time></trkpt><trkpt lat="45.0336174014403" lon="9.989201110499167"><ele>39.166666666666664</ele><time>2026-04-25T05:58:06.999Z</time></trkpt><trkpt lat="45.03354015494665" lon="9.989176131972345"><ele>39.0</ele><time>2026-04-25T05:58:07.999Z</time></trkpt><trkpt lat="45.03346217577076" lon="9.989153560474769"><ele>39.0</ele><time>2026-04-25T05:58:08.999Z</time></trkpt><trkpt lat="45.03338456735348" lon="9.989133402076247"><ele>39.0</ele><time>2026-04-25T05:58:09.999Z</time></trkpt><trkpt lat="45.033305332344476" lon="9.989118095535758"><ele>39.0</ele><time>2026-04-25T05:58:10.999Z</time></trkpt><trkpt lat="45.033227983010995" lon="9.989103573480923"><ele>39.0</ele><time>2026-04-25T05:58:11.999Z</time></trkpt><trkpt lat="45.03314862660508" lon="9.98908688401492"><ele>39.0</ele><time>2026-04-25T05:58:12.998Z</time></trkpt><trkpt lat="45.03307129173223" lon="9.989071918486234"><ele>39.0</ele><time>2026-04-25T05:58:13.998Z</time></trkpt><trkpt lat="45.032992688066635" lon="9.989054024463094"><ele>39.0</ele><time>2026-04-25T05:58:14.998Z</time></trkpt><trkpt lat="45.032915665569824" lon="9.98903747857047"><ele>39.0</ele><time>2026-04-25T05:58:15.998Z</time></trkpt><trkpt lat="45.0328383766611" lon="9.989021149740225"><ele>39.0</ele><time>2026-04-25T05:58:16.998Z</time></trkpt><trkpt lat="45.032760791405124" lon="9.989002714415069"><ele>39.0</ele><time>2026-04-25T05:58:17.998Z</time></trkpt><trkpt lat="45.03268228814928" lon="9.988987328911168"><ele>39.0</ele><time>2026-04-25T05:58:18.998Z</time></trkpt><trkpt lat="45.03260509199524" lon="9.988972115032292"><ele>39.0</ele><time>2026-04-25T05:58:19.998Z</time></trkpt><trkpt lat="45.03252726989543" lon="9.988956627106681"><ele>39.0</ele><time>2026-04-25T05:58:20.998Z</time></trkpt><trkpt lat="45.03244997687412" lon="9.988945556286088"><ele>39.0</ele><time>2026-04-25T05:58:21.998Z</time></trkpt><trkpt lat="45.0323721505113" lon="9.988933672250553"><ele>39.0</ele><time>2026-04-25T05:58:22.998Z</time></trkpt><trkpt lat="45.03229224703153" lon="9.988926123997564"><ele>39.0</ele><time>2026-04-25T05:58:23.998Z</time></trkpt><trkpt lat="45.0322133510019" lon="9.98892680221948"><ele>39.0</ele><time>2026-04-25T05:58:24.998Z</time></trkpt><trkpt lat="45.03213401915895" lon="9.988934928863898"><ele>39.0</ele><time>2026-04-25T05:58:25.998Z</time></trkpt><trkpt lat="45.03205770861571" lon="9.98895220523273"><ele>39.0</ele><time>2026-04-25T05:58:26.998Z</time></trkpt><trkpt lat="45.03198278013315" lon="9.988977374987316"><ele>39.0</ele><time>2026-04-25T05:58:27.998Z</time></trkpt><trkpt lat="45.031909860334366" lon="9.989011261661046"><ele>39.0</ele><time>2026-04-25T05:58:28.998Z</time></trkpt><trkpt lat="45.03183893894413" lon="9.989053498555595"><ele>39.0</ele><time>2026-04-25T05:58:29.998Z</time></trkpt><trkpt lat="45.03176774877112" lon="9.989096712176165"><ele>39.0</ele><time>2026-04-25T05:58:30.998Z</time></trkpt><trkpt lat="45.03169903020493" lon="9.989145476539102"><ele>39.0</ele><time>2026-04-25T05:58:31.998Z</time></trkpt><trkpt lat="45.03163190203427" lon="9.989204663731915"><ele>38.333333333333336</ele><time>2026-04-25T05:58:32.998Z</time></trkpt><trkpt lat="45.03156897397121" lon="9.98926937866134"><ele>37.666666666666664</ele><time>2026-04-25T05:58:33.998Z</time></trkpt><trkpt lat="45.03150769302956" lon="9.989340003800047"><ele>37.0</ele><time>2026-04-25T05:58:34.998Z</time></trkpt><trkpt lat="45.031451001100606" lon="9.989416795894746"><ele>36.33333333333333</ele><time>2026-04-25T05:58:35.998Z</time></trkpt><trkpt lat="45.03140174180197" lon="9.989501297571362"><ele>35.666666666666664</ele><time>2026-04-25T05:58:36.998Z</time></trkpt><trkpt lat="45.031354475343115" lon="9.989590006722029"><ele>35.0</ele><time>2026-04-25T05:58:37.998Z</time></trkpt><trkpt lat="45.03131048660716" lon="9.989681369751716"><ele>35.0</ele><time>2026-04-25T05:58:38.998Z</time></trkpt><trkpt lat="45.03126941497862" lon="9.989776077972628"><ele>35.0</ele><time>2026-04-25T05:58:39.998Z</time></trkpt><trkpt lat="45.03123138851516" lon="9.989875483698269"><ele>35.0</ele><time>2026-04-25T05:58:40.998Z</time></trkpt><trkpt lat="45.03119454842619" lon="9.989973116514562"><ele>35.0</ele><time>2026-04-25T05:58:41.998Z</time></trkpt><trkpt lat="45.03115697616515" lon="9.990071857322203"><ele>35.0</ele><time>2026-04-25T05:58:42.998Z</time></trkpt><trkpt lat="45.03112018023079" lon="9.990169997595572"><ele>35.0</ele><time>2026-04-25T05:58:43.998Z</time></trkpt><trkpt lat="45.03108460896032" lon="9.990271147923723"><ele>35.0</ele><time>2026-04-25T05:58:44.998Z</time></trkpt><trkpt lat="45.031049822097046" lon="9.990368794839428"><ele>35.0</ele><time>2026-04-25T05:58:45.998Z</time></trkpt><trkpt lat="45.03101436179996" lon="9.99046821452205"><ele>35.0</ele><time>2026-04-25T05:58:46.998Z</time></trkpt><trkpt lat="45.03098009501861" lon="9.990568910167822"><ele>35.0</ele><time>2026-04-25T05:58:47.998Z</time></trkpt><trkpt lat="45.03094314530007" lon="9.99066990162693"><ele>35.0</ele><time>2026-04-25T05:58:48.998Z</time></trkpt><trkpt lat="45.03090828913613" lon="9.99077156997416"><ele>35.0</ele><time>2026-04-25T05:58:49.998Z</time></trkpt><trkpt lat="45.030870187551315" lon="9.990870378288047"><ele>35.33333333333333</ele><time>2026-04-25T05:58:50.998Z</time></trkpt><trkpt lat="45.030834281378816" lon="9.990972822128583"><ele>35.666666666666664</ele><time>2026-04-25T05:58:51.998Z</time></trkpt><trkpt lat="45.030797793003366" lon="9.991073770856017"><ele>36.0</ele><time>2026-04-25T05:58:52.998Z</time></trkpt><trkpt lat="45.03075978504254" lon="9.991171834483522"><ele>36.333333333333336</ele><time>2026-04-25T05:58:53.998Z</time></trkpt><trkpt lat="45.03072327155175" lon="9.9912724626292"><ele>36.66666666666667</ele><time>2026-04-25T05:58:54.998Z</time></trkpt><trkpt lat="45.03068845546338" lon="9.991375794141831"><ele>37.0</ele><time>2026-04-25T05:58:55.998Z</time></trkpt><trkpt lat="45.03065232485114" lon="9.991475364968359"><ele>37.0</ele><time>2026-04-25T05:58:56.998Z</time></trkpt><trkpt lat="45.03061577886158" lon="9.991577787392716"><ele>37.0</ele><time>2026-04-25T05:58:57.998Z</time></trkpt><trkpt lat="45.03058015068265" lon="9.991678196988335"><ele>37.0</ele><time>2026-04-25T05:58:58.998Z</time></trkpt><trkpt lat="45.030546520835884" lon="9.99178083463816"><ele>37.0</ele><time>2026-04-25T05:58:59.998Z</time></trkpt><trkpt lat="45.030509038538966" lon="9.991879948941131"><ele>37.0</ele><time>2026-04-25T05:59:00.998Z</time></trkpt><trkpt lat="45.030473473318814" lon="9.991979157996171"><ele>37.0</ele><time>2026-04-25T05:59:02Z</time></trkpt><trkpt lat="45.03043697951041" lon="9.992082173367638"><ele>36.833333333333336</ele><time>2026-04-25T05:59:03Z</time></trkpt><trkpt lat="45.03040153665082" lon="9.992179569543453"><ele>36.66666666666667</ele><time>2026-04-25T05:59:04Z</time></trkpt><trkpt lat="45.03036747887956" lon="9.992281713993268"><ele>36.5</ele><time>2026-04-25T05:59:05Z</time></trkpt><trkpt lat="45.03033599033837" lon="9.992379119995253"><ele>36.333333333333336</ele><time>2026-04-25T05:59:06Z</time></trkpt><trkpt lat="45.03030022553425" lon="9.992479391824148"><ele>36.166666666666664</ele><time>2026-04-25T05:59:07Z</time></trkpt><trkpt lat="45.03026638785129" lon="9.99257425196722"><ele>36.0</ele><time>2026-04-25T05:59:08Z</time></trkpt><trkpt lat="45.030230742249564" lon="9.992672266233745"><ele>36.333333333333336</ele><time>2026-04-25T05:59:09Z</time></trkpt><trkpt lat="45.03019854953977" lon="9.992756826662703"><ele>36.666666666666664</ele><time>2026-04-25T05:59:10Z</time></trkpt><trkpt lat="45.030162071138335" lon="9.992852421840427"><ele>37.0</ele><time>2026-04-25T05:59:11Z</time></trkpt><trkpt lat="45.03012841619083" lon="9.992946344535317"><ele>37.33333333333333</ele><time>2026-04-25T05:59:12Z</time></trkpt><trkpt lat="45.030092594784044" lon="9.993042740043027"><ele>37.666666666666664</ele><time>2026-04-25T05:59:13Z</time></trkpt><trkpt lat="45.030055802558486" lon="9.993138775046265"><ele>38.0</ele><time>2026-04-25T05:59:14Z</time></trkpt><trkpt lat="45.030018818676346" lon="9.993237342869163"><ele>38.0</ele><time>2026-04-25T05:59:15Z</time></trkpt><trkpt lat="45.02998483759717" lon="9.993335634320106"><ele>38.0</ele><time>2026-04-25T05:59:16Z</time></trkpt><trkpt lat="45.02994699673937" lon="9.993433977398068"><ele>38.0</ele><time>2026-04-25T05:59:17Z</time></trkpt><trkpt lat="45.029909614955656" lon="9.993531224269168"><ele>38.0</ele><time>2026-04-25T05:59:18Z</time></trkpt><trkpt lat="45.02987366596795" lon="9.99363221286943"><ele>38.0</ele><time>2026-04-25T05:59:19Z</time></trkpt><trkpt lat="45.02983841553453" lon="9.993731237106285"><ele>38.0</ele><time>2026-04-25T05:59:20Z</time></trkpt><trkpt lat="45.029804006380076" lon="9.993832293028314"><ele>38.33333333333333</ele><time>2026-04-25T05:59:21Z</time></trkpt><trkpt lat="45.02976680491875" lon="9.99393226847085"><ele>38.666666666666664</ele><time>2026-04-25T05:59:21.999Z</time></trkpt><trkpt lat="45.029732196838815" lon="9.994031269917587"><ele>39.0</ele><time>2026-04-25T05:59:22.999Z</time></trkpt><trkpt lat="45.02969343356655" lon="9.99412955343269"><ele>39.333333333333336</ele><time>2026-04-25T05:59:23.999Z</time></trkpt><trkpt lat="45.02966023875405" lon="9.99423124707696"><ele>39.66666666666667</ele><time>2026-04-25T05:59:24.999Z</time></trkpt><trkpt lat="45.02962506445041" lon="9.994333839993264"><ele>40.0</ele><time>2026-04-25T05:59:25.999Z</time></trkpt><trkpt lat="45.02959308686776" lon="9.9944324333279"><ele>40.0</ele><time>2026-04-25T05:59:26.999Z</time></trkpt><trkpt lat="45.02955690402226" lon="9.994534214806173"><ele>40.0</ele><time>2026-04-25T05:59:27.999Z</time></trkpt><trkpt lat="45.029521272422336" lon="9.994636841178172"><ele>40.0</ele><time>2026-04-25T05:59:28.999Z</time></trkpt><trkpt lat="45.02948367871242" lon="9.994736588752222"><ele>40.0</ele><time>2026-04-25T05:59:29.999Z</time></trkpt><trkpt lat="45.02944516616643" lon="9.994834294097865"><ele>40.0</ele><time>2026-04-25T05:59:30.999Z</time></trkpt><trkpt lat="45.02941208673454" lon="9.994936290859364"><ele>40.0</ele><time>2026-04-25T05:59:31.999Z</time></trkpt><trkpt lat="45.0293759058287" lon="9.995038786870065"><ele>39.833333333333336</ele><time>2026-04-25T05:59:32.999Z</time></trkpt><trkpt lat="45.029340576153025" lon="9.995139688617092"><ele>39.66666666666667</ele><time>2026-04-25T05:59:33.999Z</time></trkpt><trkpt lat="45.02930236500291" lon="9.995236544392037"><ele>39.5</ele><time>2026-04-25T05:59:34.999Z</time></trkpt><trkpt lat="45.029265667131604" lon="9.995334902164581"><ele>39.333333333333336</ele><time>2026-04-25T05:59:35.999Z</time></trkpt><trkpt lat="45.02922744015861" lon="9.995435362303896"><ele>39.166666666666664</ele><time>2026-04-25T05:59:36.999Z</time></trkpt><trkpt lat="45.02919057761728" lon="9.995531663980092"><ele>39.0</ele><time>2026-04-25T05:59:37.999Z</time></trkpt><trkpt lat="45.029154473744406" lon="9.99563203331068"><ele>39.166666666666664</ele><time>2026-04-25T05:59:38.999Z</time></trkpt><trkpt lat="45.0291195072087" lon="9.995733058307632"><ele>39.333333333333336</ele><time>2026-04-25T05:59:39.999Z</time></trkpt><trkpt lat="45.02908276652272" lon="9.99583278315952"><ele>39.5</ele><time>2026-04-25T05:59:40.999Z</time></trkpt><trkpt lat="45.029047260789014" lon="9.995931447981699"><ele>39.66666666666667</ele><time>2026-04-25T05:59:41.999Z</time></trkpt><trkpt lat="45.02901184422759" lon="9.996027890457515"><ele>39.833333333333336</ele><time>2026-04-25T05:59:42.999Z</time></trkpt><trkpt lat="45.02897719361553" lon="9.996130971194171"><ele>40.0</ele><time>2026-04-25T05:59:43.999Z</time></trkpt><trkpt lat="45.02894087397927" lon="9.996227012465964"><ele>40.0</ele><time>2026-04-25T05:59:44.999Z</time></trkpt><trkpt lat="45.02890214771866" lon="9.996328773288743"><ele>40.0</ele><time>2026-04-25T05:59:45.999Z</time></trkpt><trkpt lat="45.028867702942385" lon="9.99642551936924"><ele>40.0</ele><time>2026-04-25T05:59:46.999Z</time></trkpt><trkpt lat="45.02883140695102" lon="9.996525696037589"><ele>40.0</ele><time>2026-04-25T05:59:47.999Z</time></trkpt><trkpt lat="45.02879695977849" lon="9.996624407428525"><ele>40.0</ele><time>2026-04-25T05:59:48.999Z</time></trkpt><trkpt lat="45.02876176307989" lon="9.996725421428668"><ele>40.0</ele><time>2026-04-25T05:59:49.999Z</time></trkpt><trkpt lat="45.02872626501135" lon="9.996823908051832"><ele>40.16666666666667</ele><time>2026-04-25T05:59:50.999Z</time></trkpt><trkpt lat="45.02868837111037" lon="9.996924758693034"><ele>40.333333333333336</ele><time>2026-04-25T05:59:51.999Z</time></trkpt><trkpt lat="45.02865194864708" lon="9.997025440769372"><ele>40.5</ele><time>2026-04-25T05:59:52.999Z</time></trkpt><trkpt lat="45.02861582792705" lon="9.997125958203615"><ele>40.666666666666664</ele><time>2026-04-25T05:59:53.999Z</time></trkpt><trkpt lat="45.028580265839" lon="9.997224626025885"><ele>40.83333333333333</ele><time>2026-04-25T05:59:54.999Z</time></trkpt><trkpt lat="45.028545181121146" lon="9.997329787786825"><ele>41.0</ele><time>2026-04-25T05:59:55.999Z</time></trkpt><trkpt lat="45.028509301675456" lon="9.997426746129296"><ele>41.0</ele><time>2026-04-25T05:59:56.999Z</time></trkpt><trkpt lat="45.028470543331636" lon="9.997527237221481"><ele>41.0</ele><time>2026-04-25T05:59:57.999Z</time></trkpt><trkpt lat="45.028435311621934" lon="9.997626313909826"><ele>41.0</ele><time>2026-04-25T05:59:58.999Z</time></trkpt><trkpt lat="45.028398529587584" lon="9.997727787596377"><ele>41.0</ele><time>2026-04-25T05:59:59.999Z</time></trkpt><trkpt lat="45.02836172793184" lon="9.997828671863056"><ele>41.0</ele><time>2026-04-25T06:00:00.999Z</time></trkpt><trkpt lat="45.02832730328897" lon="9.997928648730209"><ele>41.0</ele><time>2026-04-25T06:00:01.999Z</time></trkpt><trkpt lat="45.02829039205515" lon="9.998025955297344"><ele>41.166666666666664</ele><time>2026-04-25T06:00:02.999Z</time></trkpt><trkpt lat="45.02825526533756" lon="9.998125163867435"><ele>41.33333333333333</ele><time>2026-04-25T06:00:03.999Z</time></trkpt><trkpt lat="45.02821578850351" lon="9.9982247973325"><ele>41.5</ele><time>2026-04-25T06:00:04.999Z</time></trkpt><trkpt lat="45.028167659007494" lon="9.99830337824283"><ele>41.666666666666664</ele><time>2026-04-25T06:00:05.999Z</time></trkpt><trkpt lat="45.028105436326115" lon="9.998370222099638"><ele>41.833333333333336</ele><time>2026-04-25T06:00:06.999Z</time></trkpt><trkpt lat="45.02802064391649" lon="9.998374597226025"><ele>42.0</ele><time>2026-04-25T06:00:07.999Z</time></trkpt><trkpt lat="45.02794373079371" lon="9.998338213438727"><ele>42.0</ele><time>2026-04-25T06:00:08.999Z</time></trkpt><trkpt lat="45.02786482968175" lon="9.998270403756377"><ele>42.0</ele><time>2026-04-25T06:00:09.999Z</time></trkpt><trkpt lat="45.027803166876645" lon="9.998213497227232"><ele>42.0</ele><time>2026-04-25T06:00:10.999Z</time></trkpt><trkpt lat="45.027739529150274" lon="9.998148890907745"><ele>42.0</ele><time>2026-04-25T06:00:11.999Z</time></trkpt><trkpt lat="45.027669426046856" lon="9.998096605419926"><ele>42.0</ele><time>2026-04-25T06:00:12.999Z</time></trkpt><trkpt lat="45.02760019161839" lon="9.998046062553593"><ele>42.0</ele><time>2026-04-25T06:00:13.999Z</time></trkpt><trkpt lat="45.027532476329895" lon="9.997995081329528"><ele>41.833333333333336</ele><time>2026-04-25T06:00:14.999Z</time></trkpt><trkpt lat="45.027463105196" lon="9.99794450153088"><ele>41.666666666666664</ele><time>2026-04-25T06:00:15.999Z</time></trkpt><trkpt lat="45.02739159336071" lon="9.99789100483337"><ele>41.5</ele><time>2026-04-25T06:00:16.999Z</time></trkpt><trkpt lat="45.0273215155225" lon="9.997840260769335"><ele>41.33333333333333</ele><time>2026-04-25T06:00:17.998Z</time></trkpt><trkpt lat="45.02725258762917" lon="9.997784308567887"><ele>41.166666666666664</ele><time>2026-04-25T06:00:18.998Z</time></trkpt><trkpt lat="45.02718293083816" lon="9.997734637153723"><ele>41.0</ele><time>2026-04-25T06:00:19.998Z</time></trkpt><trkpt lat="45.027114653128265" lon="9.997681705330118"><ele>41.0</ele><time>2026-04-25T06:00:20.998Z</time></trkpt><trkpt lat="45.0270443879637" lon="9.997632834833851"><ele>41.0</ele><time>2026-04-25T06:00:21.998Z</time></trkpt><trkpt lat="45.026974800311834" lon="9.997586076400488"><ele>41.0</ele><time>2026-04-25T06:00:22.998Z</time></trkpt><trkpt lat="45.02690229187342" lon="9.997536125866882"><ele>41.0</ele><time>2026-04-25T06:00:23.998Z</time></trkpt><trkpt lat="45.02683100251162" lon="9.997495660157888"><ele>41.0</ele><time>2026-04-25T06:00:24.998Z</time></trkpt><trkpt lat="45.026756452662276" lon="9.997467324910868"><ele>41.0</ele><time>2026-04-25T06:00:25.998Z</time></trkpt><trkpt lat="45.02667880243973" lon="9.997469217368318"><ele>41.33333333333333</ele><time>2026-04-25T06:00:26.998Z</time></trkpt><trkpt lat="45.02660392097532" lon="9.99750709210676"><ele>41.666666666666664</ele><time>2026-04-25T06:00:27.998Z</time></trkpt><trkpt lat="45.02653996510033" lon="9.997580323989126"><ele>42.0</ele><time>2026-04-25T06:00:28.998Z</time></trkpt><trkpt lat="45.02649338564237" lon="9.997675069620222"><ele>42.333333333333336</ele><time>2026-04-25T06:00:29.998Z</time></trkpt><trkpt lat="45.02645669860601" lon="9.99777886972541"><ele>42.66666666666667</ele><time>2026-04-25T06:00:30.998Z</time></trkpt><trkpt lat="45.02641956099822" lon="9.997876710711777"><ele>43.0</ele><time>2026-04-25T06:00:31.998Z</time></trkpt><trkpt lat="45.0263831777647" lon="9.997974726557963"><ele>43.0</ele><time>2026-04-25T06:00:32.998Z</time></trkpt><trkpt lat="45.02634158803091" lon="9.998067568915706"><ele>43.0</ele><time>2026-04-25T06:00:33.998Z</time></trkpt><trkpt lat="45.026299961215784" lon="9.998161797367997"><ele>43.0</ele><time>2026-04-25T06:00:34.998Z</time></trkpt><trkpt lat="45.02626434649509" lon="9.998258199337396"><ele>43.0</ele><time>2026-04-25T06:00:35.998Z</time></trkpt><trkpt lat="45.02622224683834" lon="9.998351079680273"><ele>43.0</ele><time>2026-04-25T06:00:36.998Z</time></trkpt><trkpt lat="45.02618498388256" lon="9.998446843090784"><ele>43.0</ele><time>2026-04-25T06:00:37.998Z</time></trkpt><trkpt lat="45.026145251801566" lon="9.998538025742826"><ele>42.833333333333336</ele><time>2026-04-25T06:00:38.998Z</time></trkpt><trkpt lat="45.02610688584677" lon="9.998634283312223"><ele>42.66666666666667</ele><time>2026-04-25T06:00:39.998Z</time></trkpt><trkpt lat="45.026064982371516" lon="9.99872674846049"><ele>42.5</ele><time>2026-04-25T06:00:40.998Z</time></trkpt><trkpt lat="45.02602654251361" lon="9.998820850255258"><ele>42.333333333333336</ele><time>2026-04-25T06:00:41.998Z</time></trkpt><trkpt lat="45.02598683768643" lon="9.998913344655938"><ele>42.166666666666664</ele><time>2026-04-25T06:00:42.998Z</time></trkpt><trkpt lat="45.0259470829395" lon="9.999007163399677"><ele>42.0</ele><time>2026-04-25T06:00:43.998Z</time></trkpt><trkpt lat="45.02591010403205" lon="9.999099196403082"><ele>42.166666666666664</ele><time>2026-04-25T06:00:44.998Z</time></trkpt><trkpt lat="45.02587240354138" lon="9.999194291564203"><ele>42.333333333333336</ele><time>2026-04-25T06:00:45.998Z</time></trkpt><trkpt lat="45.02583704150592" lon="9.999287509782288"><ele>42.5</ele><time>2026-04-25T06:00:46.998Z</time></trkpt><trkpt lat="45.02579638489158" lon="9.99938309624419"><ele>42.66666666666667</ele><time>2026-04-25T06:00:47.998Z</time></trkpt><trkpt lat="45.02576145161316" lon="9.999502248218384"><ele>42.833333333333336</ele><time>2026-04-25T06:00:48.998Z</time></trkpt><trkpt lat="45.025717522019484" lon="9.999576498081664"><ele>43.0</ele><time>2026-04-25T06:00:49.998Z</time></trkpt><trkpt lat="45.02568127825766" lon="9.999666464615041"><ele>43.00000000000001</ele><time>2026-04-25T06:00:50.998Z</time></trkpt><trkpt lat="45.02564222110872" lon="9.999753616646577"><ele>43.0</ele><time>2026-04-25T06:00:51.998Z</time></trkpt><trkpt lat="45.025595139805255" lon="9.999826962795092"><ele>43.0</ele><time>2026-04-25T06:00:52.998Z</time></trkpt><trkpt lat="45.02554359479986" lon="9.999893980011892"><ele>43.0</ele><time>2026-04-25T06:00:53.998Z</time></trkpt><trkpt lat="45.0254894015432" lon="9.999960193567262"><ele>43.0</ele><time>2026-04-25T06:00:54.998Z</time></trkpt><trkpt lat="45.02543665053088" lon="10.00002665777152"><ele>43.00000000000001</ele><time>2026-04-25T06:00:55.998Z</time></trkpt><trkpt lat="45.02537996122103" lon="10.000093852082584"><ele>43.0</ele><time>2026-04-25T06:00:56.998Z</time></trkpt><trkpt lat="45.02532346810039" lon="10.000154372283387"><ele>43.0</ele><time>2026-04-25T06:00:57.998Z</time></trkpt><trkpt lat="45.025265959791355" lon="10.000218648504843"><ele>43.0</ele><time>2026-04-25T06:00:58.998Z</time></trkpt><trkpt lat="45.02520881681101" lon="10.00028494182594"><ele>43.0</ele><time>2026-04-25T06:00:59.998Z</time></trkpt><trkpt lat="45.0251540087541" lon="10.000355039119135"><ele>43.0</ele><time>2026-04-25T06:01:00.998Z</time></trkpt><trkpt lat="45.02509860642716" lon="10.000427499352952"><ele>43.0</ele><time>2026-04-25T06:01:01.998Z</time></trkpt><trkpt lat="45.02503815161007" lon="10.000501014471498"><ele>43.0</ele><time>2026-04-25T06:01:02.998Z</time></trkpt><trkpt lat="45.02497208842169" lon="10.000570389025837"><ele>42.833333333333336</ele><time>2026-04-25T06:01:03.998Z</time></trkpt><trkpt lat="45.024906014539894" lon="10.000639104281177"><ele>42.66666666666667</ele><time>2026-04-25T06:01:04.998Z</time></trkpt><trkpt lat="45.02483754277561" lon="10.000707309610414"><ele>42.5</ele><time>2026-04-25T06:01:05.998Z</time></trkpt><trkpt lat="45.02477705245799" lon="10.00077918185514"><ele>42.333333333333336</ele><time>2026-04-25T06:01:06.998Z</time></trkpt><trkpt lat="45.024720099830844" lon="10.000849796774327"><ele>42.166666666666664</ele><time>2026-04-25T06:01:08Z</time></trkpt><trkpt lat="45.02464963604032" lon="10.000925613104899"><ele>42.0</ele><time>2026-04-25T06:01:09Z</time></trkpt><trkpt lat="45.02458677488897" lon="10.000995149308757"><ele>41.666666666666664</ele><time>2026-04-25T06:01:10Z</time></trkpt><trkpt lat="45.024524657063125" lon="10.00106576819109"><ele>41.333333333333336</ele><time>2026-04-25T06:01:11Z</time></trkpt><trkpt lat="45.024460722202214" lon="10.001141064315851"><ele>41.0</ele><time>2026-04-25T06:01:12Z</time></trkpt><trkpt lat="45.02439684493294" lon="10.001212222402133"><ele>40.66666666666667</ele><time>2026-04-25T06:01:13Z</time></trkpt><trkpt lat="45.0243333381888" lon="10.001286841572048"><ele>40.333333333333336</ele><time>2026-04-25T06:01:14Z</time></trkpt><trkpt lat="45.024270604633" lon="10.001358419479976"><ele>40.0</ele><time>2026-04-25T06:01:15Z</time></trkpt><trkpt lat="45.02420999806443" lon="10.001433652110464"><ele>39.66666666666667</ele><time>2026-04-25T06:01:16Z</time></trkpt><trkpt lat="45.02414533846526" lon="10.001506788220953"><ele>39.333333333333336</ele><time>2026-04-25T06:01:17Z</time></trkpt><trkpt lat="45.02408068104094" lon="10.001580307473873"><ele>39.0</ele><time>2026-04-25T06:01:18Z</time></trkpt><trkpt lat="45.02401580327792" lon="10.001651592784402"><ele>38.666666666666664</ele><time>2026-04-25T06:01:19Z</time></trkpt><trkpt lat="45.02395274524634" lon="10.001726758933245"><ele>38.33333333333333</ele><time>2026-04-25T06:01:20Z</time></trkpt><trkpt lat="45.02388972826637" lon="10.001801469426594"><ele>38.0</ele><time>2026-04-25T06:01:21Z</time></trkpt><trkpt lat="45.02382658289932" lon="10.00187651861259"><ele>37.83333333333333</ele><time>2026-04-25T06:01:22Z</time></trkpt><trkpt lat="45.02376481548244" lon="10.001951755206042"><ele>37.666666666666664</ele><time>2026-04-25T06:01:23Z</time></trkpt><trkpt lat="45.023700436588804" lon="10.002026154574919"><ele>37.5</ele><time>2026-04-25T06:01:23.999Z</time></trkpt><trkpt lat="45.02363588471282" lon="10.002097280511885"><ele>37.333333333333336</ele><time>2026-04-25T06:01:24.999Z</time></trkpt><trkpt lat="45.023573776359314" lon="10.00216880897977"><ele>37.16666666666667</ele><time>2026-04-25T06:01:25.999Z</time></trkpt><trkpt lat="45.02351142341694" lon="10.002248387923865"><ele>37.0</ele><time>2026-04-25T06:01:26.999Z</time></trkpt><trkpt lat="45.02345156671284" lon="10.002323171845218"><ele>37.0</ele><time>2026-04-25T06:01:27.999Z</time></trkpt><trkpt lat="45.02339258907031" lon="10.002404192316666"><ele>37.0</ele><time>2026-04-25T06:01:28.999Z</time></trkpt><trkpt lat="45.02333700036955" lon="10.002487068724184"><ele>37.0</ele><time>2026-04-25T06:01:29.999Z</time></trkpt><trkpt lat="45.023284978193956" lon="10.002577507373058"><ele>37.0</ele><time>2026-04-25T06:01:30.999Z</time></trkpt><trkpt lat="45.02323427534659" lon="10.002669521160984"><ele>37.0</ele><time>2026-04-25T06:01:31.999Z</time></trkpt><trkpt lat="45.02318654913542" lon="10.00276476475026"><ele>37.0</ele><time>2026-04-25T06:01:32.999Z</time></trkpt><trkpt lat="45.023139533062036" lon="10.002860142864742"><ele>36.833333333333336</ele><time>2026-04-25T06:01:33.999Z</time></trkpt><trkpt lat="45.02309330810602" lon="10.002953217865757"><ele>36.66666666666667</ele><time>2026-04-25T06:01:34.999Z</time></trkpt><trkpt lat="45.02304368230288" lon="10.00304853114001"><ele>36.5</ele><time>2026-04-25T06:01:35.999Z</time></trkpt><trkpt lat="45.02299707188819" lon="10.003141552522044"><ele>36.333333333333336</ele><time>2026-04-25T06:01:36.999Z</time></trkpt><trkpt lat="45.02294836498753" lon="10.003237565056832"><ele>36.166666666666664</ele><time>2026-04-25T06:01:37.999Z</time></trkpt><trkpt lat="45.02289973029357" lon="10.003333015706875"><ele>36.0</ele><time>2026-04-25T06:01:38.999Z</time></trkpt><trkpt lat="45.022851706471236" lon="10.00342696087031"><ele>36.0</ele><time>2026-04-25T06:01:39.999Z</time></trkpt><trkpt lat="45.02280327364732" lon="10.00352247427509"><ele>36.0</ele><time>2026-04-25T06:01:40.999Z</time></trkpt><trkpt lat="45.02275476989567" lon="10.003614243402092"><ele>36.0</ele><time>2026-04-25T06:01:41.999Z</time></trkpt><trkpt lat="45.02270768344325" lon="10.003708675796947"><ele>36.0</ele><time>2026-04-25T06:01:42.999Z</time></trkpt><trkpt lat="45.02265993635631" lon="10.003802001301427"><ele>36.0</ele><time>2026-04-25T06:01:43.999Z</time></trkpt><trkpt lat="45.022611248694005" lon="10.003897194265466"><ele>36.0</ele><time>2026-04-25T06:01:44.999Z</time></trkpt><trkpt lat="45.022562208899124" lon="10.003989860351313"><ele>36.0</ele><time>2026-04-25T06:01:45.999Z</time></trkpt><trkpt lat="45.0225140531708" lon="10.00408319487727"><ele>36.0</ele><time>2026-04-25T06:01:46.999Z</time></trkpt><trkpt lat="45.02246704117156" lon="10.004175767576857"><ele>36.0</ele><time>2026-04-25T06:01:47.999Z</time></trkpt><trkpt lat="45.02241877510113" lon="10.004271076150223"><ele>36.0</ele><time>2026-04-25T06:01:48.999Z</time></trkpt><trkpt lat="45.02237118137932" lon="10.004365317426123"><ele>36.0</ele><time>2026-04-25T06:01:49.999Z</time></trkpt><trkpt lat="45.02232249758049" lon="10.004455552443504"><ele>36.0</ele><time>2026-04-25T06:01:50.999Z</time></trkpt><trkpt lat="45.022275170983995" lon="10.004550657556885"><ele>36.166666666666664</ele><time>2026-04-25T06:01:51.999Z</time></trkpt><trkpt lat="45.022227746593316" lon="10.004645962691585"><ele>36.333333333333336</ele><time>2026-04-25T06:01:52.999Z</time></trkpt><trkpt lat="45.02217925261217" lon="10.004738402669892"><ele>36.5</ele><time>2026-04-25T06:01:53.999Z</time></trkpt><trkpt lat="45.02213098150203" lon="10.004833275172206"><ele>36.66666666666667</ele><time>2026-04-25T06:01:54.999Z</time></trkpt><trkpt lat="45.02208443862645" lon="10.004926252911096"><ele>36.833333333333336</ele><time>2026-04-25T06:01:55.999Z</time></trkpt><trkpt lat="45.02203685083103" lon="10.005020469755044"><ele>37.0</ele><time>2026-04-25T06:01:56.999Z</time></trkpt><trkpt lat="45.02198878794637" lon="10.005115522097018"><ele>37.0</ele><time>2026-04-25T06:01:57.999Z</time></trkpt><trkpt lat="45.02194189196635" lon="10.005207044903488"><ele>37.0</ele><time>2026-04-25T06:01:58.999Z</time></trkpt><trkpt lat="45.02189329461917" lon="10.005299656699988"><ele>37.0</ele><time>2026-04-25T06:01:59.999Z</time></trkpt><trkpt lat="45.02184696162597" lon="10.005391178718805"><ele>37.0</ele><time>2026-04-25T06:02:00.999Z</time></trkpt><trkpt lat="45.021800356869285" lon="10.005482847072273"><ele>37.0</ele><time>2026-04-25T06:02:01.999Z</time></trkpt><trkpt lat="45.0217552240501" lon="10.005576208079216"><ele>37.0</ele><time>2026-04-25T06:02:02.999Z</time></trkpt><trkpt lat="45.02170987902628" lon="10.00566796607554"><ele>37.0</ele><time>2026-04-25T06:02:03.999Z</time></trkpt><trkpt lat="45.021662339260594" lon="10.00576127052434"><ele>37.0</ele><time>2026-04-25T06:02:04.999Z</time></trkpt><trkpt lat="45.02161913144365" lon="10.005854181381006"><ele>37.0</ele><time>2026-04-25T06:02:05.999Z</time></trkpt><trkpt lat="45.02157261829618" lon="10.005948137136093"><ele>37.0</ele><time>2026-04-25T06:02:06.999Z</time></trkpt><trkpt lat="45.02152547834799" lon="10.006039773609283"><ele>37.0</ele><time>2026-04-25T06:02:07.998Z</time></trkpt><trkpt lat="45.02147855596316" lon="10.006131273687048"><ele>37.0</ele><time>2026-04-25T06:02:08.998Z</time></trkpt><trkpt lat="45.021429439540086" lon="10.00622538422821"><ele>37.16666666666667</ele><time>2026-04-25T06:02:09.998Z</time></trkpt><trkpt lat="45.021382256255286" lon="10.006313708473863"><ele>37.333333333333336</ele><time>2026-04-25T06:02:10.998Z</time></trkpt><trkpt lat="45.02133647306724" lon="10.006409588352073"><ele>37.5</ele><time>2026-04-25T06:02:11.998Z</time></trkpt><trkpt lat="45.021289787963646" lon="10.006502351014596"><ele>37.666666666666664</ele><time>2026-04-25T06:02:12.998Z</time></trkpt><trkpt lat="45.021241917989265" lon="10.006595467259567"><ele>37.83333333333333</ele><time>2026-04-25T06:02:13.998Z</time></trkpt><trkpt lat="45.0211967324172" lon="10.006686240957842"><ele>38.0</ele><time>2026-04-25T06:02:14.998Z</time></trkpt><trkpt lat="45.02115082142238" lon="10.006782502336232"><ele>38.0</ele><time>2026-04-25T06:02:15.998Z</time></trkpt><trkpt lat="45.02110308833789" lon="10.006871936140376"><ele>38.0</ele><time>2026-04-25T06:02:16.998Z</time></trkpt><trkpt lat="45.02105584506316" lon="10.006965313959993"><ele>38.0</ele><time>2026-04-25T06:02:17.998Z</time></trkpt><trkpt lat="45.021009703144614" lon="10.007057226257016"><ele>38.0</ele><time>2026-04-25T06:02:18.998Z</time></trkpt><trkpt lat="45.02096131782006" lon="10.007149483308034"><ele>38.0</ele><time>2026-04-25T06:02:19.998Z</time></trkpt><trkpt lat="45.02091548030276" lon="10.007242123418742"><ele>38.0</ele><time>2026-04-25T06:02:20.998Z</time></trkpt><trkpt lat="45.020866721558946" lon="10.007335000465073"><ele>38.0</ele><time>2026-04-25T06:02:21.998Z</time></trkpt><trkpt lat="45.02082070788228" lon="10.007427547061313"><ele>38.0</ele><time>2026-04-25T06:02:22.998Z</time></trkpt><trkpt lat="45.020774382139734" lon="10.007518060761628"><ele>38.0</ele><time>2026-04-25T06:02:23.998Z</time></trkpt><trkpt lat="45.020725944929154" lon="10.00760905517767"><ele>38.0</ele><time>2026-04-25T06:02:24.998Z</time></trkpt><trkpt lat="45.02068181863626" lon="10.007699419516838"><ele>38.0</ele><time>2026-04-25T06:02:25.998Z</time></trkpt><trkpt lat="45.020634388401916" lon="10.00779396960275"><ele>38.0</ele><time>2026-04-25T06:02:26.998Z</time></trkpt><trkpt lat="45.02058888100715" lon="10.007884974462533"><ele>38.0</ele><time>2026-04-25T06:02:27.998Z</time></trkpt><trkpt lat="45.02054285641349" lon="10.007977198384879"><ele>38.0</ele><time>2026-04-25T06:02:28.998Z</time></trkpt><trkpt lat="45.02049513657083" lon="10.00807018992397"><ele>38.0</ele><time>2026-04-25T06:02:29.998Z</time></trkpt><trkpt lat="45.020451113270525" lon="10.008161636952513"><ele>38.0</ele><time>2026-04-25T06:02:30.998Z</time></trkpt><trkpt lat="45.0204021194448" lon="10.008252518151497"><ele>38.0</ele><time>2026-04-25T06:02:31.998Z</time></trkpt><trkpt lat="45.02035662174393" lon="10.008343099904302"><ele>38.0</ele><time>2026-04-25T06:02:32.998Z</time></trkpt><trkpt lat="45.02031136293704" lon="10.008435826197015"><ele>37.83333333333333</ele><time>2026-04-25T06:02:33.998Z</time></trkpt><trkpt lat="45.020265948806745" lon="10.008527281216848"><ele>37.666666666666664</ele><time>2026-04-25T06:02:34.998Z</time></trkpt><trkpt lat="45.02021973035837" lon="10.008617674259442"><ele>37.5</ele><time>2026-04-25T06:02:35.998Z</time></trkpt><trkpt lat="45.02017549145432" lon="10.008707403835801"><ele>37.333333333333336</ele><time>2026-04-25T06:02:36.998Z</time></trkpt><trkpt lat="45.02013154625672" lon="10.008797169427654"><ele>37.16666666666667</ele><time>2026-04-25T06:02:37.998Z</time></trkpt><trkpt lat="45.02008891643375" lon="10.008876916196842"><ele>37.0</ele><time>2026-04-25T06:02:38.998Z</time></trkpt><trkpt lat="45.02004763904825" lon="10.008958296688274"><ele>37.0</ele><time>2026-04-25T06:02:39.998Z</time></trkpt><trkpt lat="45.020002697558816" lon="10.009020669828072"><ele>37.0</ele><time>2026-04-25T06:02:40.998Z</time></trkpt><trkpt lat="45.01988117381132" lon="10.008978133502078"><ele>37.0</ele><time>2026-04-25T06:02:42.998Z</time></trkpt><trkpt lat="45.019836971570484" lon="10.008902344688623"><ele>37.0</ele><time>2026-04-25T06:02:43.998Z</time></trkpt><trkpt lat="45.01979958452309" lon="10.008823531343113"><ele>37.0</ele><time>2026-04-25T06:02:44.998Z</time></trkpt><trkpt lat="45.0197589509307" lon="10.008751203095517"><ele>37.0</ele><time>2026-04-25T06:02:45.998Z</time></trkpt><trkpt lat="45.019718367822634" lon="10.008680693655645"><ele>36.85714285714286</ele><time>2026-04-25T06:02:46.998Z</time></trkpt><trkpt lat="45.01967410461956" lon="10.0086125826637"><ele>36.714285714285715</ele><time>2026-04-25T06:02:47.998Z</time></trkpt><trkpt lat="45.0196292213666" lon="10.008542537495291"><ele>36.57142857142857</ele><time>2026-04-25T06:02:48.998Z</time></trkpt><trkpt lat="45.019585809476276" lon="10.008471651716578"><ele>36.42857142857143</ele><time>2026-04-25T06:02:49.998Z</time></trkpt><trkpt lat="45.01954298487852" lon="10.008400923110703"><ele>36.285714285714285</ele><time>2026-04-25T06:02:50.998Z</time></trkpt><trkpt lat="45.0194991015124" lon="10.008327260281465"><ele>36.142857142857146</ele><time>2026-04-25T06:02:51.998Z</time></trkpt><trkpt lat="45.0194551854124" lon="10.008255448858206"><ele>36.0</ele><time>2026-04-25T06:02:52.998Z</time></trkpt><trkpt lat="45.01941086801606" lon="10.00818403168447"><ele>36.00000000000001</ele><time>2026-04-25T06:02:53.998Z</time></trkpt><trkpt lat="45.01936706290391" lon="10.008110168045057"><ele>36.0</ele><time>2026-04-25T06:02:54.998Z</time></trkpt><trkpt lat="45.01932268852787" lon="10.008039178191309"><ele>36.0</ele><time>2026-04-25T06:02:55.998Z</time></trkpt><trkpt lat="45.0192763985924" lon="10.00796609599629"><ele>36.0</ele><time>2026-04-25T06:02:56.998Z</time></trkpt><trkpt lat="45.0192306320463" lon="10.007896095535278"><ele>36.0</ele><time>2026-04-25T06:02:57.998Z</time></trkpt><trkpt lat="45.01918811875317" lon="10.007821750131267"><ele>36.00000000000001</ele><time>2026-04-25T06:02:58.998Z</time></trkpt><trkpt lat="45.0191434870225" lon="10.007749748198004"><ele>36.0</ele><time>2026-04-25T06:02:59.998Z</time></trkpt><trkpt lat="45.019094638797846" lon="10.007686684871915"><ele>36.28571428571429</ele><time>2026-04-25T06:03:00.998Z</time></trkpt><trkpt lat="45.01906533413088" lon="10.00759638809243"><ele>36.57142857142857</ele><time>2026-04-25T06:03:01.998Z</time></trkpt><trkpt lat="45.01902093254465" lon="10.007524075399362"><ele>36.85714285714286</ele><time>2026-04-25T06:03:02.997Z</time></trkpt><trkpt lat="45.01897657321869" lon="10.007451831503033"><ele>37.142857142857146</ele><time>2026-04-25T06:03:03.997Z</time></trkpt><trkpt lat="45.01892038380433" lon="10.007392911275765"><ele>37.42857142857143</ele><time>2026-04-25T06:03:04.997Z</time></trkpt><trkpt lat="45.01887789709896" lon="10.007318828510124"><ele>37.714285714285715</ele><time>2026-04-25T06:03:05.997Z</time></trkpt><trkpt lat="45.01883426059048" lon="10.007246507208684"><ele>38.0</ele><time>2026-04-25T06:03:06.997Z</time></trkpt><trkpt lat="45.01879138349685" lon="10.007175100126158"><ele>38.0</ele><time>2026-04-25T06:03:07.997Z</time></trkpt><trkpt lat="45.01874973797968" lon="10.007103558810204"><ele>38.0</ele><time>2026-04-25T06:03:08.997Z</time></trkpt><trkpt lat="45.01870634574176" lon="10.00703811942785"><ele>38.0</ele><time>2026-04-25T06:03:09.997Z</time></trkpt><trkpt lat="45.01862587877913" lon="10.006911981762888"><ele>38.0</ele><time>2026-04-25T06:03:11.997Z</time></trkpt><trkpt lat="45.018550903355404" lon="10.006791346786892"><ele>38.0</ele><time>2026-04-25T06:03:13.999Z</time></trkpt><trkpt lat="45.01848914188065" lon="10.006657998877577"><ele>38.25</ele><time>2026-04-25T06:03:15.999Z</time></trkpt><trkpt lat="45.01841402370197" lon="10.006535660901935"><ele>38.5</ele><time>2026-04-25T06:03:17.999Z</time></trkpt><trkpt lat="45.0183273896266" lon="10.006414298490226"><ele>38.75</ele><time>2026-04-25T06:03:19.999Z</time></trkpt><trkpt lat="45.01824548806904" lon="10.006286654505878"><ele>39.0</ele><time>2026-04-25T06:03:21.999Z</time></trkpt><trkpt lat="45.01816524501041" lon="10.006151886480405"><ele>39.0</ele><time>2026-04-25T06:03:23.999Z</time></trkpt><trkpt lat="45.01808268121073" lon="10.006023786023567"><ele>39.0</ele><time>2026-04-25T06:03:25.999Z</time></trkpt><trkpt lat="45.01800430070985" lon="10.005894573346957"><ele>39.0</ele><time>2026-04-25T06:03:27.999Z</time></trkpt><trkpt lat="45.01792452299697" lon="10.00576642817516"><ele>39.0</ele><time>2026-04-25T06:03:29.999Z</time></trkpt><trkpt lat="45.017847033870275" lon="10.005635860845427"><ele>39.0</ele><time>2026-04-25T06:03:31.999Z</time></trkpt><trkpt lat="45.01776706974614" lon="10.005507555195708"><ele>39.0</ele><time>2026-04-25T06:03:33.999Z</time></trkpt><trkpt lat="45.017688489515685" lon="10.00538209792398"><ele>39.0</ele><time>2026-04-25T06:03:35.999Z</time></trkpt><trkpt lat="45.01760889357027" lon="10.005254123540796"><ele>39.0</ele><time>2026-04-25T06:03:37.999Z</time></trkpt><trkpt lat="45.01753099988084" lon="10.005125103923229"><ele>38.75</ele><time>2026-04-25T06:03:39.999Z</time></trkpt><trkpt lat="45.01745379618357" lon="10.00499405364288"><ele>38.5</ele><time>2026-04-25T06:03:41.999Z</time></trkpt><trkpt lat="45.01737315696811" lon="10.004867128992998"><ele>38.25</ele><time>2026-04-25T06:03:43.999Z</time></trkpt><trkpt lat="45.01729609059392" lon="10.004734855444072"><ele>38.0</ele><time>2026-04-25T06:03:45.999Z</time></trkpt><trkpt lat="45.017217049922046" lon="10.004604941617593"><ele>38.0</ele><time>2026-04-25T06:03:47.999Z</time></trkpt><trkpt lat="45.01713764174073" lon="10.004478962207429"><ele>38.0</ele><time>2026-04-25T06:03:49.999Z</time></trkpt><trkpt lat="45.01705996247139" lon="10.004352493306254"><ele>38.0</ele><time>2026-04-25T06:03:51.999Z</time></trkpt><trkpt lat="45.01698488769841" lon="10.004228427947927"><ele>38.0</ele><time>2026-04-25T06:03:53.999Z</time></trkpt><trkpt lat="45.01691073306621" lon="10.004099815104643"><ele>38.0</ele><time>2026-04-25T06:03:55.999Z</time></trkpt><trkpt lat="45.01683288715128" lon="10.00397518539624"><ele>38.0</ele><time>2026-04-25T06:03:57.999Z</time></trkpt><trkpt lat="45.01675590060936" lon="10.00384712143068"><ele>38.0</ele><time>2026-04-25T06:03:59.999Z</time></trkpt><trkpt lat="45.01668050720977" lon="10.003719457921978"><ele>38.0</ele><time>2026-04-25T06:04:01.999Z</time></trkpt><trkpt lat="45.01660290947455" lon="10.003592883026613"><ele>38.0</ele><time>2026-04-25T06:04:03.999Z</time></trkpt><trkpt lat="45.01652344395943" lon="10.003467190721798"><ele>38.0</ele><time>2026-04-25T06:04:05.999Z</time></trkpt><trkpt lat="45.01644799221724" lon="10.003339362601077"><ele>38.0</ele><time>2026-04-25T06:04:07.999Z</time></trkpt><trkpt lat="45.01636904217178" lon="10.003220458861648"><ele>38.0</ele><time>2026-04-25T06:04:09.999Z</time></trkpt><trkpt lat="45.01629277427839" lon="10.003103353406516"><ele>38.0</ele><time>2026-04-25T06:04:11.999Z</time></trkpt><trkpt lat="45.01622350056303" lon="10.002991463584127"><ele>38.0</ele><time>2026-04-25T06:04:13.999Z</time></trkpt><trkpt lat="45.01615972901925" lon="10.002889278142714"><ele>38.0</ele><time>2026-04-25T06:04:15.999Z</time></trkpt><trkpt lat="45.01610166376752" lon="10.002796865398517"><ele>38.0</ele><time>2026-04-25T06:04:17.999Z</time></trkpt><trkpt lat="45.016045171124944" lon="10.00269662207469"><ele>38.0</ele><time>2026-04-25T06:04:19.999Z</time></trkpt><trkpt lat="45.01598530798344" lon="10.00260458779771"><ele>38.0</ele><time>2026-04-25T06:04:21.999Z</time></trkpt><trkpt lat="45.01592844197927" lon="10.002515397410363"><ele>38.0</ele><time>2026-04-25T06:04:23.999Z</time></trkpt><trkpt lat="45.01587556712883" lon="10.002427410962081"><ele>38.0</ele><time>2026-04-25T06:04:25.999Z</time></trkpt><trkpt lat="45.015837665665224" lon="10.002331343346322"><ele>38.0</ele><time>2026-04-25T06:04:27.998Z</time></trkpt><trkpt lat="45.01578899494954" lon="10.002253041788926"><ele>38.0</ele><time>2026-04-25T06:04:29.998Z</time></trkpt><trkpt lat="45.01573245694017" lon="10.002199287897522"><ele>38.0</ele><time>2026-04-25T06:04:31.998Z</time></trkpt><trkpt lat="45.01567393462791" lon="10.002101871487938"><ele>38.0</ele><time>2026-04-25T06:04:34.998Z</time></trkpt><trkpt lat="45.01562305648414" lon="10.002015640598119"><ele>38.0</ele><time>2026-04-25T06:04:37.998Z</time></trkpt><trkpt lat="45.01557203111783" lon="10.001932340695076"><ele>38.0</ele><time>2026-04-25T06:06:34.998Z</time></trkpt><trkpt lat="45.0155154276055" lon="10.001842114316444"><ele>38.0</ele><time>2026-04-25T06:06:37.998Z</time></trkpt><trkpt lat="45.01546951104383" lon="10.001758996264245"><ele>38.0</ele><time>2026-04-25T06:06:39.998Z</time></trkpt><trkpt lat="45.015407069832456" lon="10.00166110538249"><ele>38.0</ele><time>2026-04-25T06:06:41.998Z</time></trkpt><trkpt lat="45.01533502456383" lon="10.001544022748957"><ele>38.0</ele><time>2026-04-25T06:06:43.998Z</time></trkpt><trkpt lat="45.01526929998985" lon="10.001399852724417"><ele>38.0</ele><time>2026-04-25T06:06:45.998Z</time></trkpt><trkpt lat="45.01519101082824" lon="10.00127146012638"><ele>38.0</ele><time>2026-04-25T06:06:47.998Z</time></trkpt><trkpt lat="45.015109704405056" lon="10.001138119668378"><ele>38.0</ele><time>2026-04-25T06:06:49.998Z</time></trkpt><trkpt lat="45.01505140520318" lon="10.00109182585559"><ele>38.0</ele><time>2026-04-25T06:06:50.998Z</time></trkpt><trkpt lat="45.01501094976574" lon="10.001023282502693"><ele>38.14285714285714</ele><time>2026-04-25T06:06:51.998Z</time></trkpt><trkpt lat="45.01496879438182" lon="10.00095550837962"><ele>38.28571428571429</ele><time>2026-04-25T06:06:52.998Z</time></trkpt><trkpt lat="45.014928598768506" lon="10.000884283111638"><ele>38.42857142857143</ele><time>2026-04-25T06:06:53.998Z</time></trkpt><trkpt lat="45.014887019976435" lon="10.000816561715547"><ele>38.57142857142857</ele><time>2026-04-25T06:06:54.998Z</time></trkpt><trkpt lat="45.01484323531635" lon="10.000746360233432"><ele>38.71428571428571</ele><time>2026-04-25T06:06:55.998Z</time></trkpt><trkpt lat="45.01480074655373" lon="10.000675461235321"><ele>38.85714285714286</ele><time>2026-04-25T06:06:56.998Z</time></trkpt><trkpt lat="45.0147579261747" lon="10.000607493294776"><ele>39.0</ele><time>2026-04-25T06:06:57.998Z</time></trkpt><trkpt lat="45.01471579366302" lon="10.000538516749414"><ele>39.0</ele><time>2026-04-25T06:06:58.998Z</time></trkpt><trkpt lat="45.01467361773624" lon="10.000468288726085"><ele>39.0</ele><time>2026-04-25T06:06:59.998Z</time></trkpt><trkpt lat="45.01464977901338" lon="10.000378247499949"><ele>39.0</ele><time>2026-04-25T06:07:00.998Z</time></trkpt><trkpt lat="45.01460824420534" lon="10.00031027383742"><ele>39.0</ele><time>2026-04-25T06:07:01.998Z</time></trkpt><trkpt lat="45.014565899491544" lon="10.000240974847618"><ele>39.0</ele><time>2026-04-25T06:07:02.998Z</time></trkpt><trkpt lat="45.01452373808823" lon="10.000171975622006"><ele>39.0</ele><time>2026-04-25T06:07:03.998Z</time></trkpt><trkpt lat="45.0144812927269" lon="10.00010251194965"><ele>39.0</ele><time>2026-04-25T06:07:04.998Z</time></trkpt><trkpt lat="45.01443949793894" lon="10.00003411272306"><ele>39.0</ele><time>2026-04-25T06:07:05.998Z</time></trkpt><trkpt lat="45.01439663723722" lon="9.999963969224355"><ele>39.0</ele><time>2026-04-25T06:07:06.998Z</time></trkpt><trkpt lat="45.014352641107244" lon="9.999891967530068"><ele>39.0</ele><time>2026-04-25T06:07:07.998Z</time></trkpt><trkpt lat="45.01430935990269" lon="9.999821135745025"><ele>39.0</ele><time>2026-04-25T06:07:08.998Z</time></trkpt><trkpt lat="45.014266380391916" lon="9.999750797802745"><ele>39.0</ele><time>2026-04-25T06:07:09.998Z</time></trkpt><trkpt lat="45.01422353538439" lon="9.999680679920495"><ele>39.0</ele><time>2026-04-25T06:07:10.998Z</time></trkpt><trkpt lat="45.014179837700475" lon="9.999609166724527"><ele>39.0</ele><time>2026-04-25T06:07:11.998Z</time></trkpt><trkpt lat="45.0141360388271" lon="9.999537440651743"><ele>38.85714285714286</ele><time>2026-04-25T06:07:12.998Z</time></trkpt><trkpt lat="45.01409300133676" lon="9.999466535034756"><ele>38.71428571428571</ele><time>2026-04-25T06:07:13.998Z</time></trkpt><trkpt lat="45.01404912922696" lon="9.999394254578931"><ele>38.57142857142857</ele><time>2026-04-25T06:07:14.998Z</time></trkpt><trkpt lat="45.01400517860169" lon="9.99932184451149"><ele>38.42857142857143</ele><time>2026-04-25T06:07:15.998Z</time></trkpt><trkpt lat="45.01396136955875" lon="9.99924966782217"><ele>38.28571428571429</ele><time>2026-04-25T06:07:16.998Z</time></trkpt><trkpt lat="45.01391799730031" lon="9.999178211876314"><ele>38.14285714285714</ele><time>2026-04-25T06:07:17.998Z</time></trkpt><trkpt lat="45.01387195137427" lon="9.999103173866768"><ele>38.0</ele><time>2026-04-25T06:07:18.998Z</time></trkpt><trkpt lat="45.01382704566412" lon="9.999030037811528"><ele>38.0</ele><time>2026-04-25T06:07:19.998Z</time></trkpt><trkpt lat="45.013782701939306" lon="9.998957816881175"><ele>38.0</ele><time>2026-04-25T06:07:20.998Z</time></trkpt><trkpt lat="45.013737304518244" lon="9.998883879580841"><ele>38.0</ele><time>2026-04-25T06:07:21.998Z</time></trkpt><trkpt lat="45.01369323324241" lon="9.998812102543"><ele>38.0</ele><time>2026-04-25T06:07:22.998Z</time></trkpt><trkpt lat="45.013648238941336" lon="9.998738822220062"><ele>38.0</ele><time>2026-04-25T06:07:23.998Z</time></trkpt><trkpt lat="45.0136036542429" lon="9.998666209032182"><ele>38.0</ele><time>2026-04-25T06:07:25Z</time></trkpt><trkpt lat="45.0135580953006" lon="9.998592008920346"><ele>38.0</ele><time>2026-04-25T06:07:26Z</time></trkpt><trkpt lat="45.01351334251533" lon="9.998519121828702"><ele>38.0</ele><time>2026-04-25T06:07:27Z</time></trkpt><trkpt lat="45.01346816862999" lon="9.998445548722238"><ele>38.0</ele><time>2026-04-25T06:07:28Z</time></trkpt><trkpt lat="45.0134225541636" lon="9.998371258302338"><ele>38.0</ele><time>2026-04-25T06:07:29Z</time></trkpt><trkpt lat="45.01337772228965" lon="9.998298242290003"><ele>38.0</ele><time>2026-04-25T06:07:30Z</time></trkpt><trkpt lat="45.01333281109993" lon="9.998225097216705"><ele>38.0</ele><time>2026-04-25T06:07:31Z</time></trkpt><trkpt lat="45.0132880625402" lon="9.998151712319006"><ele>38.0</ele><time>2026-04-25T06:07:32Z</time></trkpt><trkpt lat="45.01324309052514" lon="9.998077320061142"><ele>38.0</ele><time>2026-04-25T06:07:33Z</time></trkpt><trkpt lat="45.01319762033879" lon="9.99800210370595"><ele>38.14285714285714</ele><time>2026-04-25T06:07:34Z</time></trkpt><trkpt lat="45.01315204836833" lon="9.997926719094401"><ele>38.28571428571429</ele><time>2026-04-25T06:07:35Z</time></trkpt><trkpt lat="45.01310590935893" lon="9.997849926272853"><ele>38.42857142857143</ele><time>2026-04-25T06:07:36Z</time></trkpt><trkpt lat="45.01306119321529" lon="9.997774250864037"><ele>38.57142857142857</ele><time>2026-04-25T06:07:37Z</time></trkpt><trkpt lat="45.013015505059116" lon="9.997696930916742"><ele>38.71428571428571</ele><time>2026-04-25T06:07:38Z</time></trkpt><trkpt lat="45.01297068729692" lon="9.997621083412394"><ele>38.85714285714286</ele><time>2026-04-25T06:07:39Z</time></trkpt><trkpt lat="45.01292498064909" lon="9.997543731950067"><ele>39.0</ele><time>2026-04-25T06:07:40Z</time></trkpt><trkpt lat="45.01287835699968" lon="9.997468245760432"><ele>39.0</ele><time>2026-04-25T06:07:40.999Z</time></trkpt><trkpt lat="45.01283054896245" lon="9.997390857638782"><ele>39.0</ele><time>2026-04-25T06:07:41.999Z</time></trkpt><trkpt lat="45.01278392731931" lon="9.997315389976704"><ele>39.0</ele><time>2026-04-25T06:07:42.999Z</time></trkpt><trkpt lat="45.01273529553177" lon="9.99723666922794"><ele>39.0</ele><time>2026-04-25T06:07:43.999Z</time></trkpt><trkpt lat="45.01268889203006" lon="9.99716029660755"><ele>39.0</ele><time>2026-04-25T06:07:44.999Z</time></trkpt><trkpt lat="45.01264243360215" lon="9.997084094774445"><ele>39.0</ele><time>2026-04-25T06:07:45.999Z</time></trkpt><trkpt lat="45.012595560603714" lon="9.997007212905784"><ele>39.0</ele><time>2026-04-25T06:07:46.999Z</time></trkpt><trkpt lat="45.012551095790776" lon="9.996933863026085"><ele>39.0</ele><time>2026-04-25T06:07:47.999Z</time></trkpt><trkpt lat="45.012504973280464" lon="9.996856655417007"><ele>39.0</ele><time>2026-04-25T06:07:48.999Z</time></trkpt><trkpt lat="45.012460011953166" lon="9.996781391548069"><ele>39.0</ele><time>2026-04-25T06:07:49.999Z</time></trkpt><trkpt lat="45.01241585440345" lon="9.996707473223523"><ele>39.0</ele><time>2026-04-25T06:07:50.999Z</time></trkpt><trkpt lat="45.01237087998713" lon="9.996632187474912"><ele>39.0</ele><time>2026-04-25T06:07:51.999Z</time></trkpt><trkpt lat="45.01232543900994" lon="9.996559834010188"><ele>39.0</ele><time>2026-04-25T06:07:52.999Z</time></trkpt><trkpt lat="45.012270295504194" lon="9.99650362995023"><ele>39.0</ele><time>2026-04-25T06:07:53.999Z</time></trkpt><trkpt lat="45.01223366723838" lon="9.996428854793722"><ele>39.142857142857146</ele><time>2026-04-25T06:07:54.999Z</time></trkpt><trkpt lat="45.01219342343235" lon="9.996352824045516"><ele>39.285714285714285</ele><time>2026-04-25T06:07:55.999Z</time></trkpt><trkpt lat="45.01214810163995" lon="9.99628018730805"><ele>39.42857142857143</ele><time>2026-04-25T06:07:56.999Z</time></trkpt><trkpt lat="45.01212308191487" lon="9.996177390526336"><ele>39.57142857142857</ele><time>2026-04-25T06:07:57.999Z</time></trkpt><trkpt lat="45.012076691311584" lon="9.9960918615077"><ele>39.714285714285715</ele><time>2026-04-25T06:07:58.999Z</time></trkpt><trkpt lat="45.01202634542239" lon="9.996003290878303"><ele>39.857142857142854</ele><time>2026-04-25T06:07:59.999Z</time></trkpt><trkpt lat="45.01197455583806" lon="9.995916682415547"><ele>40.0</ele><time>2026-04-25T06:08:00.999Z</time></trkpt><trkpt lat="45.01192154436832" lon="9.99583027922609"><ele>39.833333333333336</ele><time>2026-04-25T06:08:01.999Z</time></trkpt><trkpt lat="45.011868798044624" lon="9.995744308205618"><ele>39.66666666666667</ele><time>2026-04-25T06:08:02.999Z</time></trkpt><trkpt lat="45.01181491293013" lon="9.995659055470648"><ele>39.5</ele><time>2026-04-25T06:08:03.999Z</time></trkpt><trkpt lat="45.01176131980156" lon="9.995574383624879"><ele>39.333333333333336</ele><time>2026-04-25T06:08:04.999Z</time></trkpt><trkpt lat="45.01170637659397" lon="9.995489036799269"><ele>39.166666666666664</ele><time>2026-04-25T06:08:05.999Z</time></trkpt><trkpt lat="45.01165322732707" lon="9.9954070801224"><ele>39.0</ele><time>2026-04-25T06:08:06.999Z</time></trkpt><trkpt lat="45.011598643053524" lon="9.995322910717682"><ele>39.0</ele><time>2026-04-25T06:08:07.999Z</time></trkpt><trkpt lat="45.011545165004605" lon="9.995242179679208"><ele>39.0</ele><time>2026-04-25T06:08:08.999Z</time></trkpt><trkpt lat="45.0114907227443" lon="9.995160516320329"><ele>39.0</ele><time>2026-04-25T06:08:09.999Z</time></trkpt><trkpt lat="45.01143762726608" lon="9.995080873082513"><ele>39.0</ele><time>2026-04-25T06:08:10.999Z</time></trkpt><trkpt lat="45.01138240745667" lon="9.994999694788659"><ele>39.0</ele><time>2026-04-25T06:08:11.999Z</time></trkpt><trkpt lat="45.01132907734244" lon="9.994921524540644"><ele>39.0</ele><time>2026-04-25T06:08:12.999Z</time></trkpt><trkpt lat="45.01127251758748" lon="9.994843688126972"><ele>39.166666666666664</ele><time>2026-04-25T06:08:13.999Z</time></trkpt><trkpt lat="45.01121601351793" lon="9.994768368482893"><ele>39.333333333333336</ele><time>2026-04-25T06:08:14.999Z</time></trkpt><trkpt lat="45.01114816413673" lon="9.994714417012869"><ele>39.5</ele><time>2026-04-25T06:08:15.999Z</time></trkpt><trkpt lat="45.011102598452894" lon="9.994625621154215"><ele>39.66666666666667</ele><time>2026-04-25T06:08:16.999Z</time></trkpt><trkpt lat="45.01104563005962" lon="9.994553919233443"><ele>39.833333333333336</ele><time>2026-04-25T06:08:17.999Z</time></trkpt><trkpt lat="45.01098850866309" lon="9.994482024714328"><ele>40.0</ele><time>2026-04-25T06:08:18.999Z</time></trkpt><trkpt lat="45.010933022902066" lon="9.994410020594717"><ele>40.0</ele><time>2026-04-25T06:08:19.999Z</time></trkpt><trkpt lat="45.01086520182467" lon="9.994351950473282"><ele>40.0</ele><time>2026-04-25T06:08:20.999Z</time></trkpt><trkpt lat="45.01081099528036" lon="9.994276935125477"><ele>40.0</ele><time>2026-04-25T06:08:21.999Z</time></trkpt><trkpt lat="45.01075631690017" lon="9.99420244191407"><ele>40.0</ele><time>2026-04-25T06:08:22.999Z</time></trkpt><trkpt lat="45.010713076836325" lon="9.994107834374681"><ele>40.0</ele><time>2026-04-25T06:08:23.999Z</time></trkpt><trkpt lat="45.01065741549144" lon="9.994027680621354"><ele>40.0</ele><time>2026-04-25T06:08:24.999Z</time></trkpt><trkpt lat="45.01060379444808" lon="9.993950464899388"><ele>40.0</ele><time>2026-04-25T06:08:25.999Z</time></trkpt><trkpt lat="45.01055109467357" lon="9.993872475949106"><ele>40.0</ele><time>2026-04-25T06:08:26.999Z</time></trkpt><trkpt lat="45.01049768937911" lon="9.993793400746492"><ele>40.0</ele><time>2026-04-25T06:08:27.999Z</time></trkpt><trkpt lat="45.01044448288733" lon="9.993714620269056"><ele>40.0</ele><time>2026-04-25T06:08:28.999Z</time></trkpt><trkpt lat="45.01039061346029" lon="9.99363485753801"><ele>40.0</ele><time>2026-04-25T06:08:29.999Z</time></trkpt><trkpt lat="45.01033548095182" lon="9.993553225059939"><ele>40.0</ele><time>2026-04-25T06:08:30.999Z</time></trkpt><trkpt lat="45.01028015844073" lon="9.993470940108649"><ele>40.0</ele><time>2026-04-25T06:08:31.999Z</time></trkpt><trkpt lat="45.0102248591552" lon="9.99338804631274"><ele>40.0</ele><time>2026-04-25T06:08:32.999Z</time></trkpt><trkpt lat="45.0101688792595" lon="9.993304132569827"><ele>40.0</ele><time>2026-04-25T06:08:33.999Z</time></trkpt><trkpt lat="45.010101106673666" lon="9.993235653240038"><ele>40.0</ele><time>2026-04-25T06:08:34.999Z</time></trkpt><trkpt lat="45.01004521423986" lon="9.993151207757947"><ele>40.0</ele><time>2026-04-25T06:08:35.999Z</time></trkpt><trkpt lat="45.0100004324806" lon="9.99305163065865"><ele>40.0</ele><time>2026-04-25T06:08:36.998Z</time></trkpt><trkpt lat="45.00993313910042" lon="9.992983460269143"><ele>39.833333333333336</ele><time>2026-04-25T06:08:37.998Z</time></trkpt><trkpt lat="45.009879051563566" lon="9.992899949955836"><ele>39.66666666666667</ele><time>2026-04-25T06:08:38.998Z</time></trkpt><trkpt lat="45.00982292211787" lon="9.992817814088157"><ele>39.5</ele><time>2026-04-25T06:08:39.998Z</time></trkpt><trkpt lat="45.009779368816744" lon="9.992720256136511"><ele>39.333333333333336</ele><time>2026-04-25T06:08:40.998Z</time></trkpt><trkpt lat="45.009723300430984" lon="9.992636209610742"><ele>39.166666666666664</ele><time>2026-04-25T06:08:41.998Z</time></trkpt><trkpt lat="45.00966815290585" lon="9.992553543190358"><ele>39.0</ele><time>2026-04-25T06:08:42.998Z</time></trkpt><trkpt lat="45.009614387114475" lon="9.99247019696628"><ele>38.833333333333336</ele><time>2026-04-25T06:08:43.998Z</time></trkpt><trkpt lat="45.00955998666014" lon="9.992384456926306"><ele>38.666666666666664</ele><time>2026-04-25T06:08:44.998Z</time></trkpt><trkpt lat="45.00950732663244" lon="9.992301458983976"><ele>38.5</ele><time>2026-04-25T06:08:45.998Z</time></trkpt><trkpt lat="45.00945460043004" lon="9.992216187092941"><ele>38.33333333333333</ele><time>2026-04-25T06:08:46.998Z</time></trkpt><trkpt lat="45.009402020578705" lon="9.992130829243852"><ele>38.166666666666664</ele><time>2026-04-25T06:08:47.998Z</time></trkpt><trkpt lat="45.009350281624144" lon="9.992046705268182"><ele>38.0</ele><time>2026-04-25T06:08:48.998Z</time></trkpt><trkpt lat="45.00929852873557" lon="9.991959941124922"><ele>38.0</ele><time>2026-04-25T06:08:49.998Z</time></trkpt><trkpt lat="45.009247684460085" lon="9.99187541228311"><ele>38.0</ele><time>2026-04-25T06:08:50.998Z</time></trkpt><trkpt lat="45.0091827303874" lon="9.991803319010787"><ele>38.0</ele><time>2026-04-25T06:08:51.998Z</time></trkpt><trkpt lat="45.00913220462626" lon="9.991715982426173"><ele>38.0</ele><time>2026-04-25T06:08:52.998Z</time></trkpt><trkpt lat="45.00908077945932" lon="9.991628373862147"><ele>38.0</ele><time>2026-04-25T06:08:53.998Z</time></trkpt><trkpt lat="45.00902807873316" lon="9.991539603902222"><ele>38.0</ele><time>2026-04-25T06:08:54.998Z</time></trkpt><trkpt lat="45.00897631475582" lon="9.991451594538479"><ele>38.33333333333333</ele><time>2026-04-25T06:08:55.998Z</time></trkpt><trkpt lat="45.0089257574014" lon="9.991364720993115"><ele>38.666666666666664</ele><time>2026-04-25T06:08:56.998Z</time></trkpt><trkpt lat="45.008885482030045" lon="9.99126270485576"><ele>39.0</ele><time>2026-04-25T06:08:57.998Z</time></trkpt><trkpt lat="45.00883381768759" lon="9.991176188041123"><ele>39.333333333333336</ele><time>2026-04-25T06:08:58.998Z</time></trkpt><trkpt lat="45.00878204968307" lon="9.991089645555816"><ele>39.66666666666667</ele><time>2026-04-25T06:08:59.998Z</time></trkpt><trkpt lat="45.008730155117284" lon="9.991002891502374"><ele>40.0</ele><time>2026-04-25T06:09:00.998Z</time></trkpt><trkpt lat="45.0086668492699" lon="9.990930659519002"><ele>40.0</ele><time>2026-04-25T06:09:01.998Z</time></trkpt><trkpt lat="45.00861605590207" lon="9.990844899823694"><ele>40.0</ele><time>2026-04-25T06:09:02.998Z</time></trkpt><trkpt lat="45.0085656027118" lon="9.990756354484423"><ele>40.0</ele><time>2026-04-25T06:09:03.998Z</time></trkpt><trkpt lat="45.00852692703277" lon="9.990655529094326"><ele>40.0</ele><time>2026-04-25T06:09:04.998Z</time></trkpt><trkpt lat="45.00847623505462" lon="9.990568208706206"><ele>40.0</ele><time>2026-04-25T06:09:05.998Z</time></trkpt><trkpt lat="45.00842509261297" lon="9.990482263872307"><ele>40.0</ele><time>2026-04-25T06:09:06.998Z</time></trkpt><trkpt lat="45.008373642809566" lon="9.990396211555497"><ele>40.0</ele><time>2026-04-25T06:09:07.998Z</time></trkpt><trkpt lat="45.00832277890417" lon="9.99031113917643"><ele>40.0</ele><time>2026-04-25T06:09:08.998Z</time></trkpt><trkpt lat="45.00827031730171" lon="9.99022339459636"><ele>40.0</ele><time>2026-04-25T06:09:09.998Z</time></trkpt><trkpt lat="45.00822001203706" lon="9.990139256559573"><ele>40.0</ele><time>2026-04-25T06:09:10.998Z</time></trkpt><trkpt lat="45.008167548092416" lon="9.990052648102578"><ele>40.0</ele><time>2026-04-25T06:09:11.998Z</time></trkpt><trkpt lat="45.00811538559835" lon="9.989966712419841"><ele>40.0</ele><time>2026-04-25T06:09:12.998Z</time></trkpt><trkpt lat="45.008062404011866" lon="9.989878452058973"><ele>40.16666666666667</ele><time>2026-04-25T06:09:13.998Z</time></trkpt><trkpt lat="45.008010113965405" lon="9.989789582966514"><ele>40.333333333333336</ele><time>2026-04-25T06:09:14.998Z</time></trkpt><trkpt lat="45.007958434840454" lon="9.989701752151083"><ele>40.5</ele><time>2026-04-25T06:09:15.998Z</time></trkpt><trkpt lat="45.007906197678885" lon="9.989612973097723"><ele>40.666666666666664</ele><time>2026-04-25T06:09:16.998Z</time></trkpt><trkpt lat="45.00785674864257" lon="9.989523047082331"><ele>40.83333333333333</ele><time>2026-04-25T06:09:17.998Z</time></trkpt><trkpt lat="45.007809797562494" lon="9.989431807184255"><ele>41.0</ele><time>2026-04-25T06:09:18.998Z</time></trkpt><trkpt lat="45.007764569677725" lon="9.989338694512451"><ele>41.0</ele><time>2026-04-25T06:09:19.998Z</time></trkpt><trkpt lat="45.00772141983529" lon="9.989242328593587"><ele>41.0</ele><time>2026-04-25T06:09:20.998Z</time></trkpt><trkpt lat="45.00768031905069" lon="9.989142578792045"><ele>41.0</ele><time>2026-04-25T06:09:21.998Z</time></trkpt><trkpt lat="45.00764275499721" lon="9.98903892997902"><ele>41.0</ele><time>2026-04-25T06:09:22.998Z</time></trkpt><trkpt lat="45.00760926624961" lon="9.988932200140328"><ele>41.0</ele><time>2026-04-25T06:09:23.998Z</time></trkpt><trkpt lat="45.00757512744319" lon="9.988829772461068"><ele>41.0</ele><time>2026-04-25T06:09:24.998Z</time></trkpt><trkpt lat="45.007538176749456" lon="9.988721218078728"><ele>41.0</ele><time>2026-04-25T06:09:25.998Z</time></trkpt><trkpt lat="45.00750138244894" lon="9.988616714172602"><ele>41.0</ele><time>2026-04-25T06:09:26.998Z</time></trkpt><trkpt lat="45.00746423280777" lon="9.988515094086285"><ele>41.0</ele><time>2026-04-25T06:09:27.998Z</time></trkpt><trkpt lat="45.00741948344071" lon="9.988411320313114"><ele>41.0</ele><time>2026-04-25T06:09:28.998Z</time></trkpt><trkpt lat="45.007369913821265" lon="9.988315651921795"><ele>41.0</ele><time>2026-04-25T06:09:29.998Z</time></trkpt><trkpt lat="45.007318956616764" lon="9.988221812887247"><ele>41.0</ele><time>2026-04-25T06:09:31Z</time></trkpt><trkpt lat="45.00726738740601" lon="9.988130176392879"><ele>41.0</ele><time>2026-04-25T06:09:32Z</time></trkpt><trkpt lat="45.007215142635694" lon="9.988044057867047"><ele>41.0</ele><time>2026-04-25T06:09:33Z</time></trkpt><trkpt lat="45.00716120606138" lon="9.987958543499515"><ele>41.0</ele><time>2026-04-25T06:09:34Z</time></trkpt><trkpt lat="45.00710770713978" lon="9.987873723129349"><ele>41.0</ele><time>2026-04-25T06:09:35Z</time></trkpt><trkpt lat="45.00705477028988" lon="9.987789793751675"><ele>41.0</ele><time>2026-04-25T06:09:36Z</time></trkpt><trkpt lat="45.00700193445008" lon="9.98770479668058"><ele>41.0</ele><time>2026-04-25T06:09:37Z</time></trkpt><trkpt lat="45.00694870083014" lon="9.987619090822758"><ele>41.0</ele><time>2026-04-25T06:09:38Z</time></trkpt><trkpt lat="45.00689577116348" lon="9.987533874214195"><ele>41.0</ele><time>2026-04-25T06:09:39Z</time></trkpt><trkpt lat="45.00684326630499" lon="9.987449341608615"><ele>41.0</ele><time>2026-04-25T06:09:40Z</time></trkpt><trkpt lat="45.006789800485755" lon="9.987363482629087"><ele>41.0</ele><time>2026-04-25T06:09:41Z</time></trkpt><trkpt lat="45.006736292186496" lon="9.98727879697017"><ele>41.0</ele><time>2026-04-25T06:09:42Z</time></trkpt><trkpt lat="45.00668249614749" lon="9.987193778406406"><ele>41.0</ele><time>2026-04-25T06:09:43Z</time></trkpt><trkpt lat="45.00662857214877" lon="9.987110393000817"><ele>41.0</ele><time>2026-04-25T06:09:44Z</time></trkpt><trkpt lat="45.00657385396821" lon="9.98702577959574"><ele>41.0</ele><time>2026-04-25T06:09:45Z</time></trkpt><trkpt lat="45.00651894379339" lon="9.986940869367269"><ele>41.0</ele><time>2026-04-25T06:09:46Z</time></trkpt><trkpt lat="45.00646655756498" lon="9.986856652931941"><ele>41.0</ele><time>2026-04-25T06:09:47Z</time></trkpt><trkpt lat="45.00641408508655" lon="9.9867719116798"><ele>41.0</ele><time>2026-04-25T06:09:48Z</time></trkpt><trkpt lat="45.00635958727948" lon="9.98668443736469"><ele>41.0</ele><time>2026-04-25T06:09:48.999Z</time></trkpt><trkpt lat="45.006304920667304" lon="9.986600530640022"><ele>41.166666666666664</ele><time>2026-04-25T06:09:49.999Z</time></trkpt><trkpt lat="45.00624617493116" lon="9.98651825699728"><ele>41.33333333333333</ele><time>2026-04-25T06:09:50.999Z</time></trkpt><trkpt lat="45.00618755780276" lon="9.986439448609575"><ele>41.5</ele><time>2026-04-25T06:09:51.999Z</time></trkpt><trkpt lat="45.006122590884864" lon="9.986367969412209"><ele>41.666666666666664</ele><time>2026-04-25T06:09:52.999Z</time></trkpt><trkpt lat="45.00604578036564" lon="9.986321868752315"><ele>41.833333333333336</ele><time>2026-04-25T06:09:53.999Z</time></trkpt><trkpt lat="45.00597568363327" lon="9.98626440492681"><ele>42.0</ele><time>2026-04-25T06:09:54.999Z</time></trkpt><trkpt lat="45.0059024703509" lon="9.986212144171782"><ele>42.0</ele><time>2026-04-25T06:09:55.999Z</time></trkpt><trkpt lat="45.0058382917615" lon="9.986135740949445"><ele>42.0</ele><time>2026-04-25T06:09:56.999Z</time></trkpt><trkpt lat="45.00576820386726" lon="9.986079594233258"><ele>42.0</ele><time>2026-04-25T06:09:57.999Z</time></trkpt><trkpt lat="45.00569676287511" lon="9.986022363587011"><ele>42.0</ele><time>2026-04-25T06:09:58.999Z</time></trkpt><trkpt lat="45.0056257966641" lon="9.985965513264842"><ele>42.0</ele><time>2026-04-25T06:09:59.999Z</time></trkpt><trkpt lat="45.00555685624109" lon="9.985910285778063"><ele>42.0</ele><time>2026-04-25T06:10:00.999Z</time></trkpt><trkpt lat="45.00548675134713" lon="9.985854768004167"><ele>41.666666666666664</ele><time>2026-04-25T06:10:01.999Z</time></trkpt><trkpt lat="45.00541731318817" lon="9.985799804385685"><ele>41.333333333333336</ele><time>2026-04-25T06:10:02.999Z</time></trkpt><trkpt lat="45.00534697697601" lon="9.985744129927449"><ele>41.0</ele><time>2026-04-25T06:10:03.999Z</time></trkpt><trkpt lat="45.00527748901494" lon="9.985689126886712"><ele>40.66666666666667</ele><time>2026-04-25T06:10:04.999Z</time></trkpt><trkpt lat="45.005207683280894" lon="9.985633872322362"><ele>40.333333333333336</ele><time>2026-04-25T06:10:05.999Z</time></trkpt><trkpt lat="45.00513793597629" lon="9.985578664004514"><ele>40.0</ele><time>2026-04-25T06:10:06.999Z</time></trkpt><trkpt lat="45.00506739553979" lon="9.985522827887928"><ele>40.0</ele><time>2026-04-25T06:10:07.999Z</time></trkpt><trkpt lat="45.00499754277213" lon="9.985467221944889"><ele>40.0</ele><time>2026-04-25T06:10:08.999Z</time></trkpt><trkpt lat="45.00492785009537" lon="9.985411356219421"><ele>40.0</ele><time>2026-04-25T06:10:09.999Z</time></trkpt><trkpt lat="45.004858100294435" lon="9.985355444688162"><ele>40.0</ele><time>2026-04-25T06:10:10.999Z</time></trkpt><trkpt lat="45.004787940749054" lon="9.985299204699956"><ele>40.0</ele><time>2026-04-25T06:10:11.999Z</time></trkpt><trkpt lat="45.004718813534886" lon="9.985243792237835"><ele>40.0</ele><time>2026-04-25T06:10:12.999Z</time></trkpt><trkpt lat="45.00464794953717" lon="9.985186987552193"><ele>40.0</ele><time>2026-04-25T06:10:13.999Z</time></trkpt><trkpt lat="45.004577945831066" lon="9.985130872525739"><ele>40.0</ele><time>2026-04-25T06:10:14.999Z</time></trkpt><trkpt lat="45.00450757665976" lon="9.985074564536013"><ele>40.0</ele><time>2026-04-25T06:10:15.999Z</time></trkpt><trkpt lat="45.004436195102464" lon="9.985018130598306"><ele>40.0</ele><time>2026-04-25T06:10:16.999Z</time></trkpt><trkpt lat="45.004366314481125" lon="9.98496288164009"><ele>40.0</ele><time>2026-04-25T06:10:17.999Z</time></trkpt><trkpt lat="45.00429663841237" lon="9.984907794414244"><ele>40.0</ele><time>2026-04-25T06:10:18.999Z</time></trkpt><trkpt lat="45.004218228759655" lon="9.984872224146693"><ele>40.16666666666667</ele><time>2026-04-25T06:10:19.999Z</time></trkpt><trkpt lat="45.00415805634418" lon="9.984798228786513"><ele>40.333333333333336</ele><time>2026-04-25T06:10:20.999Z</time></trkpt><trkpt lat="45.00407904826427" lon="9.984762272511107"><ele>40.5</ele><time>2026-04-25T06:10:21.999Z</time></trkpt><trkpt lat="45.00401913185701" lon="9.98468808271449"><ele>40.666666666666664</ele><time>2026-04-25T06:10:22.999Z</time></trkpt><trkpt lat="45.00394190471183" lon="9.984652991404285"><ele>40.83333333333333</ele><time>2026-04-25T06:10:23.999Z</time></trkpt><trkpt lat="45.00388045725109" lon="9.984576673561472"><ele>41.0</ele><time>2026-04-25T06:10:24.999Z</time></trkpt><trkpt lat="45.00381039463013" lon="9.984520386273037"><ele>41.0</ele><time>2026-04-25T06:10:26Z</time></trkpt><trkpt lat="45.00374032069279" lon="9.98446408989301"><ele>41.0</ele><time>2026-04-25T06:10:27Z</time></trkpt><trkpt lat="45.00366230879419" lon="9.98442841966319"><ele>41.0</ele><time>2026-04-25T06:10:28Z</time></trkpt><trkpt lat="45.0036000755623" lon="9.984351716364158"><ele>41.0</ele><time>2026-04-25T06:10:29Z</time></trkpt><trkpt lat="45.003529420213006" lon="9.984295306906045"><ele>41.0</ele><time>2026-04-25T06:10:30Z</time></trkpt><trkpt lat="45.00346025573211" lon="9.984240087715756"><ele>41.0</ele><time>2026-04-25T06:10:31Z</time></trkpt><trkpt lat="45.003388401935894" lon="9.984182721452818"><ele>40.83333333333333</ele><time>2026-04-25T06:10:32Z</time></trkpt><trkpt lat="45.00331708685596" lon="9.984125785282798"><ele>40.666666666666664</ele><time>2026-04-25T06:10:33Z</time></trkpt><trkpt lat="45.00324749446501" lon="9.984070224458096"><ele>40.5</ele><time>2026-04-25T06:10:34Z</time></trkpt><trkpt lat="45.00317685119918" lon="9.984013824653735"><ele>40.333333333333336</ele><time>2026-04-25T06:10:35Z</time></trkpt><trkpt lat="45.00310515290031" lon="9.983957877979035"><ele>40.16666666666667</ele><time>2026-04-25T06:10:36Z</time></trkpt><trkpt lat="45.003035027486035" lon="9.983905185431283"><ele>40.0</ele><time>2026-04-25T06:10:37Z</time></trkpt><trkpt lat="45.00295717149469" lon="9.983870427949673"><ele>40.0</ele><time>2026-04-25T06:10:38Z</time></trkpt><trkpt lat="45.00289509845682" lon="9.983792824354524"><ele>40.0</ele><time>2026-04-25T06:10:39Z</time></trkpt><trkpt lat="45.002826014700965" lon="9.983734953896882"><ele>40.0</ele><time>2026-04-25T06:10:40Z</time></trkpt><trkpt lat="45.00275805514104" lon="9.983673940795953"><ele>40.0</ele><time>2026-04-25T06:10:41Z</time></trkpt><trkpt lat="45.00269560901754" lon="9.983607299324683"><ele>40.0</ele><time>2026-04-25T06:10:41.999Z</time></trkpt><trkpt lat="45.00264107674611" lon="9.983527893883766"><ele>40.0</ele><time>2026-04-25T06:10:42.999Z</time></trkpt><trkpt lat="45.00259303478465" lon="9.983441339213975"><ele>40.0</ele><time>2026-04-25T06:10:43.999Z</time></trkpt><trkpt lat="45.00254484990867" lon="9.983348071359602"><ele>40.0</ele><time>2026-04-25T06:10:44.999Z</time></trkpt><trkpt lat="45.00249520487999" lon="9.983255073928548"><ele>40.0</ele><time>2026-04-25T06:10:45.999Z</time></trkpt><trkpt lat="45.00244025690064" lon="9.983169145582677"><ele>40.0</ele><time>2026-04-25T06:10:46.999Z</time></trkpt><trkpt lat="45.002370313430774" lon="9.983106937815728"><ele>40.0</ele><time>2026-04-25T06:10:47.999Z</time></trkpt><trkpt lat="45.00230045741386" lon="9.983050359743256"><ele>40.0</ele><time>2026-04-25T06:10:48.999Z</time></trkpt><trkpt lat="45.0022321465454" lon="9.982977851593017"><ele>40.333333333333336</ele><time>2026-04-25T06:10:49.999Z</time></trkpt><trkpt lat="45.002157342970925" lon="9.982935630967598"><ele>40.66666666666667</ele><time>2026-04-25T06:10:50.999Z</time></trkpt><trkpt lat="45.002082898220785" lon="9.98288867406858"><ele>41.0</ele><time>2026-04-25T06:10:51.999Z</time></trkpt><trkpt lat="45.002009221134244" lon="9.982842201312625"><ele>41.333333333333336</ele><time>2026-04-25T06:10:52.999Z</time></trkpt><trkpt lat="45.00192953605174" lon="9.982813898816094"><ele>41.666666666666664</ele><time>2026-04-25T06:10:53.999Z</time></trkpt><trkpt lat="45.0018556171943" lon="9.982768535634348"><ele>42.0</ele><time>2026-04-25T06:10:54.999Z</time></trkpt><trkpt lat="45.00178075204015" lon="9.982723120878081"><ele>42.0</ele><time>2026-04-25T06:10:55.999Z</time></trkpt><trkpt lat="45.00170998836949" lon="9.982663204123227"><ele>42.0</ele><time>2026-04-25T06:10:56.999Z</time></trkpt><trkpt lat="45.00163792001989" lon="9.982618356780048"><ele>42.0</ele><time>2026-04-25T06:10:57.999Z</time></trkpt><trkpt lat="45.00156276163918" lon="9.982571808904357"><ele>42.0</ele><time>2026-04-25T06:10:58.999Z</time></trkpt><trkpt lat="45.00148708364428" lon="9.982527677159108"><ele>42.0</ele><time>2026-04-25T06:10:59.999Z</time></trkpt><trkpt lat="45.00141323020291" lon="9.982484609348964"><ele>42.0</ele><time>2026-04-25T06:11:00.999Z</time></trkpt><trkpt lat="45.001340131244" lon="9.982440744018447"><ele>42.0</ele><time>2026-04-25T06:11:01.999Z</time></trkpt><trkpt lat="45.00126618208167" lon="9.98239555284144"><ele>42.0</ele><time>2026-04-25T06:11:02.999Z</time></trkpt><trkpt lat="45.001194141776665" lon="9.982350637396003"><ele>42.0</ele><time>2026-04-25T06:11:03.999Z</time></trkpt><trkpt lat="45.00112056123878" lon="9.982304362131936"><ele>42.0</ele><time>2026-04-25T06:11:04.999Z</time></trkpt><trkpt lat="45.00104600362594" lon="9.98225979507196"><ele>42.0</ele><time>2026-04-25T06:11:05.999Z</time></trkpt><trkpt lat="45.00097131132097" lon="9.98221690493064"><ele>42.0</ele><time>2026-04-25T06:11:06.999Z</time></trkpt><trkpt lat="45.0008963167574" lon="9.982170440978344"><ele>42.0</ele><time>2026-04-25T06:11:07.999Z</time></trkpt><trkpt lat="45.00082325527648" lon="9.982125174599558"><ele>42.0</ele><time>2026-04-25T06:11:08.999Z</time></trkpt><trkpt lat="45.000746492001504" lon="9.982080502852297"><ele>42.0</ele><time>2026-04-25T06:11:09.999Z</time></trkpt><trkpt lat="45.00067091517393" lon="9.982039668029001"><ele>42.0</ele><time>2026-04-25T06:11:10.999Z</time></trkpt><trkpt lat="45.00059502470271" lon="9.981999724060945"><ele>42.0</ele><time>2026-04-25T06:11:11.999Z</time></trkpt><trkpt lat="45.00051868634498" lon="9.981959620036767"><ele>42.0</ele><time>2026-04-25T06:11:12.999Z</time></trkpt><trkpt lat="45.00044082995891" lon="9.981920033873086"><ele>42.0</ele><time>2026-04-25T06:11:13.999Z</time></trkpt><trkpt lat="45.00036321397858" lon="9.98188125039889"><ele>42.0</ele><time>2026-04-25T06:11:14.999Z</time></trkpt><trkpt lat="45.00028587026701" lon="9.981842602937459"><ele>42.0</ele><time>2026-04-25T06:11:15.999Z</time></trkpt><trkpt lat="45.00020951059631" lon="9.981804447211049"><ele>42.0</ele><time>2026-04-25T06:11:16.999Z</time></trkpt><trkpt lat="45.00013252342096" lon="9.981767062642428"><ele>42.0</ele><time>2026-04-25T06:11:17.999Z</time></trkpt><trkpt lat="45.00005402763916" lon="9.981729842447628"><ele>42.0</ele><time>2026-04-25T06:11:18.999Z</time></trkpt><trkpt lat="44.99997510488284" lon="9.981693220339027"><ele>42.166666666666664</ele><time>2026-04-25T06:11:19.999Z</time></trkpt><trkpt lat="44.99989625294508" lon="9.98165691160743"><ele>42.333333333333336</ele><time>2026-04-25T06:11:20.999Z</time></trkpt><trkpt lat="44.999817554249084" lon="9.981620816847888"><ele>42.5</ele><time>2026-04-25T06:11:21.999Z</time></trkpt><trkpt lat="44.9997402380442" lon="9.981585966320303"><ele>42.66666666666667</ele><time>2026-04-25T06:11:22.999Z</time></trkpt><trkpt lat="44.999661124781" lon="9.981550307632522"><ele>42.833333333333336</ele><time>2026-04-25T06:11:23.999Z</time></trkpt><trkpt lat="44.999583191232524" lon="9.981515178837663"><ele>43.0</ele><time>2026-04-25T06:11:24.999Z</time></trkpt><trkpt lat="44.99950456980961" lon="9.981478576213561"><ele>43.0</ele><time>2026-04-25T06:11:25.999Z</time></trkpt><trkpt lat="44.99942457643905" lon="9.981441167549379"><ele>43.0</ele><time>2026-04-25T06:11:26.999Z</time></trkpt><trkpt lat="44.99934617196173" lon="9.981404501925608"><ele>43.0</ele><time>2026-04-25T06:11:27.999Z</time></trkpt><trkpt lat="44.99926698108627" lon="9.981367722687391"><ele>43.0</ele><time>2026-04-25T06:11:28.999Z</time></trkpt><trkpt lat="44.99918594911111" lon="9.981330128771196"><ele>43.0</ele><time>2026-04-25T06:11:29.999Z</time></trkpt><trkpt lat="44.99910853096806" lon="9.98129421145465"><ele>43.0</ele><time>2026-04-25T06:11:30.999Z</time></trkpt><trkpt lat="44.999031409482036" lon="9.981258898811829"><ele>43.0</ele><time>2026-04-25T06:11:31.999Z</time></trkpt><trkpt lat="44.99895251691107" lon="9.981222847722341"><ele>43.0</ele><time>2026-04-25T06:11:32.999Z</time></trkpt><trkpt lat="44.99887350031579" lon="9.981186739957108"><ele>43.0</ele><time>2026-04-25T06:11:33.999Z</time></trkpt><trkpt lat="44.998794894948645" lon="9.98115082010843"><ele>43.0</ele><time>2026-04-25T06:11:34.999Z</time></trkpt><trkpt lat="44.99871592512944" lon="9.981114733718966"><ele>43.0</ele><time>2026-04-25T06:11:35.999Z</time></trkpt><trkpt lat="44.99863636961858" lon="9.981078379689102"><ele>43.0</ele><time>2026-04-25T06:11:37.001Z</time></trkpt><trkpt lat="44.99855819950388" lon="9.981042116148476"><ele>43.0</ele><time>2026-04-25T06:11:38.001Z</time></trkpt><trkpt lat="44.99847924769112" lon="9.98100506653145"><ele>43.0</ele><time>2026-04-25T06:11:39.001Z</time></trkpt><trkpt lat="44.9983989871434" lon="9.980967402766666"><ele>43.0</ele><time>2026-04-25T06:11:40.001Z</time></trkpt><trkpt lat="44.998319237344006" lon="9.980931030018368"><ele>43.0</ele><time>2026-04-25T06:11:41.001Z</time></trkpt><trkpt lat="44.998241011832015" lon="9.980895688894941"><ele>43.0</ele><time>2026-04-25T06:11:42.001Z</time></trkpt><trkpt lat="44.99816098060223" lon="9.980859531976893"><ele>43.0</ele><time>2026-04-25T06:11:43.001Z</time></trkpt><trkpt lat="44.99808088339346" lon="9.980823345249945"><ele>42.5</ele><time>2026-04-25T06:11:44.001Z</time></trkpt><trkpt lat="44.99800195208933" lon="9.980786911516725"><ele>42.0</ele><time>2026-04-25T06:11:45.001Z</time></trkpt><trkpt lat="44.997923343710134" lon="9.980750614426954"><ele>41.5</ele><time>2026-04-25T06:11:46.001Z</time></trkpt><trkpt lat="44.99784333481671" lon="9.980713670656602"><ele>41.0</ele><time>2026-04-25T06:11:47.001Z</time></trkpt><trkpt lat="44.99776456776838" lon="9.980677300302917"><ele>40.5</ele><time>2026-04-25T06:11:48.001Z</time></trkpt><trkpt lat="44.997685831061716" lon="9.980640943959063"><ele>40.0</ele><time>2026-04-25T06:11:49.001Z</time></trkpt><trkpt lat="44.997607176042074" lon="9.980604625334255"><ele>40.0</ele><time>2026-04-25T06:11:50.001Z</time></trkpt><trkpt lat="44.997527136758606" lon="9.980567667531497"><ele>40.0</ele><time>2026-04-25T06:11:51.001Z</time></trkpt><trkpt lat="44.997448580369436" lon="9.980531394447942"><ele>40.0</ele><time>2026-04-25T06:11:52.001Z</time></trkpt><trkpt lat="44.99736947916526" lon="9.980494869799394"><ele>40.0</ele><time>2026-04-25T06:11:53Z</time></trkpt><trkpt lat="44.997289799179754" lon="9.980458077901329"><ele>40.0</ele><time>2026-04-25T06:11:54Z</time></trkpt><trkpt lat="44.99721122231633" lon="9.98042179536343"><ele>40.0</ele><time>2026-04-25T06:11:55Z</time></trkpt><trkpt lat="44.997131685733784" lon="9.9803850696813"><ele>40.0</ele><time>2026-04-25T06:11:56Z</time></trkpt><trkpt lat="44.9970506958836" lon="9.980349615374049"><ele>40.0</ele><time>2026-04-25T06:11:57Z</time></trkpt><trkpt lat="44.99697123737056" lon="9.980315328595962"><ele>40.0</ele><time>2026-04-25T06:11:58Z</time></trkpt><trkpt lat="44.996891150173234" lon="9.980280770538268"><ele>40.0</ele><time>2026-04-25T06:11:59Z</time></trkpt><trkpt lat="44.996810606270074" lon="9.98024601540889"><ele>40.0</ele><time>2026-04-25T06:12:00Z</time></trkpt><trkpt lat="44.9967305519396" lon="9.980211471533226"><ele>40.0</ele><time>2026-04-25T06:12:01Z</time></trkpt><trkpt lat="44.99664836280332" lon="9.980176006477839"><ele>40.0</ele><time>2026-04-25T06:12:02Z</time></trkpt><trkpt lat="44.9965686096106" lon="9.980141031723788"><ele>40.0</ele><time>2026-04-25T06:12:03Z</time></trkpt><trkpt lat="44.99648863288394" lon="9.980105914422222"><ele>40.0</ele><time>2026-04-25T06:12:04Z</time></trkpt><trkpt lat="44.996408821202124" lon="9.980070869589138"><ele>40.0</ele><time>2026-04-25T06:12:05Z</time></trkpt><trkpt lat="44.99632522255844" lon="9.980057716495008"><ele>40.0</ele><time>2026-04-25T06:12:06Z</time></trkpt><trkpt lat="44.99624622566339" lon="9.980023768070582"><ele>40.0</ele><time>2026-04-25T06:12:07Z</time></trkpt><trkpt lat="44.996172061953615" lon="9.979966910018646"><ele>40.0</ele><time>2026-04-25T06:12:08Z</time></trkpt><trkpt lat="44.996092940011664" lon="9.979931618783953"><ele>40.0</ele><time>2026-04-25T06:12:09Z</time></trkpt><trkpt lat="44.996014597786704" lon="9.979895450335183"><ele>40.0</ele><time>2026-04-25T06:12:10Z</time></trkpt><trkpt lat="44.99593462550091" lon="9.979858529331548"><ele>40.0</ele><time>2026-04-25T06:12:11Z</time></trkpt><trkpt lat="44.995854813957344" lon="9.979821631762105"><ele>40.0</ele><time>2026-04-25T06:12:12Z</time></trkpt><trkpt lat="44.99577599699029" lon="9.979785324705592"><ele>40.0</ele><time>2026-04-25T06:12:13Z</time></trkpt><trkpt lat="44.995697340535486" lon="9.979749091589872"><ele>40.333333333333336</ele><time>2026-04-25T06:12:14Z</time></trkpt><trkpt lat="44.99561898156689" lon="9.979712995510273"><ele>40.66666666666667</ele><time>2026-04-25T06:12:15Z</time></trkpt><trkpt lat="44.99554090697004" lon="9.979676817537504"><ele>41.0</ele><time>2026-04-25T06:12:16Z</time></trkpt><trkpt lat="44.9954618524432" lon="9.979638606642085"><ele>41.333333333333336</ele><time>2026-04-25T06:12:17Z</time></trkpt><trkpt lat="44.99538364160876" lon="9.979600803544914"><ele>41.666666666666664</ele><time>2026-04-25T06:12:18Z</time></trkpt><trkpt lat="44.99530555707191" lon="9.979563061490552"><ele>42.0</ele><time>2026-04-25T06:12:19Z</time></trkpt><trkpt lat="44.99522688804597" lon="9.979525036925859"><ele>42.0</ele><time>2026-04-25T06:12:20Z</time></trkpt><trkpt lat="44.99514965282274" lon="9.979486242884695"><ele>42.0</ele><time>2026-04-25T06:12:21Z</time></trkpt><trkpt lat="44.995072495204845" lon="9.979447414536796"><ele>42.0</ele><time>2026-04-25T06:12:22Z</time></trkpt><trkpt lat="44.994997348705844" lon="9.979406237897349"><ele>42.0</ele><time>2026-04-25T06:12:23Z</time></trkpt><trkpt lat="44.99492057099345" lon="9.979363998134758"><ele>42.0</ele><time>2026-04-25T06:12:24Z</time></trkpt><trkpt lat="44.99484442219081" lon="9.979322102518136"><ele>42.0</ele><time>2026-04-25T06:12:25Z</time></trkpt><trkpt lat="44.99476917547314" lon="9.979280703206706"><ele>42.166666666666664</ele><time>2026-04-25T06:12:26Z</time></trkpt><trkpt lat="44.994693415278306" lon="9.979239021390404"><ele>42.333333333333336</ele><time>2026-04-25T06:12:27Z</time></trkpt><trkpt lat="44.99461742271742" lon="9.979197211729943"><ele>42.5</ele><time>2026-04-25T06:12:28Z</time></trkpt><trkpt lat="44.99454146452629" lon="9.979155420978707"><ele>42.66666666666667</ele><time>2026-04-25T06:12:29Z</time></trkpt><trkpt lat="44.99446566011546" lon="9.979113714850298"><ele>42.833333333333336</ele><time>2026-04-25T06:12:30Z</time></trkpt><trkpt lat="44.994389668171976" lon="9.9790719055223"><ele>43.0</ele><time>2026-04-25T06:12:31Z</time></trkpt><trkpt lat="44.994313677367984" lon="9.979030096822033"><ele>43.16666666666667</ele><time>2026-04-25T06:12:32Z</time></trkpt><trkpt lat="44.994237493677645" lon="9.978988111728778"><ele>43.333333333333336</ele><time>2026-04-25T06:12:33Z</time></trkpt><trkpt lat="44.99416192572457" lon="9.978944625123622"><ele>43.5</ele><time>2026-04-25T06:12:34Z</time></trkpt><trkpt lat="44.994087167718156" lon="9.978901604618025"><ele>43.666666666666664</ele><time>2026-04-25T06:12:35Z</time></trkpt><trkpt lat="44.994010940579805" lon="9.978857738674613"><ele>43.83333333333333</ele><time>2026-04-25T06:12:36Z</time></trkpt><trkpt lat="44.99393701373416" lon="9.97881519647264"><ele>44.0</ele><time>2026-04-25T06:12:37Z</time></trkpt><trkpt lat="44.99386196622947" lon="9.978772009366878"><ele>44.0</ele><time>2026-04-25T06:12:38Z</time></trkpt><trkpt lat="44.99378555179464" lon="9.978728035644712"><ele>44.0</ele><time>2026-04-25T06:12:39Z</time></trkpt><trkpt lat="44.99370874176733" lon="9.978684736721775"><ele>44.0</ele><time>2026-04-25T06:12:40Z</time></trkpt><trkpt lat="44.99363229881322" lon="9.978641764263415"><ele>44.0</ele><time>2026-04-25T06:12:41Z</time></trkpt><trkpt lat="44.993549310868374" lon="9.978620298483506"><ele>44.0</ele><time>2026-04-25T06:12:42Z</time></trkpt><trkpt lat="44.993471782766576" lon="9.978585006785746"><ele>44.0</ele><time>2026-04-25T06:12:43Z</time></trkpt><trkpt lat="44.99339023338745" lon="9.978567652494434"><ele>44.166666666666664</ele><time>2026-04-25T06:12:44Z</time></trkpt><trkpt lat="44.99330611599661" lon="9.978550595910098"><ele>44.33333333333333</ele><time>2026-04-25T06:12:45Z</time></trkpt><trkpt lat="44.99322451440993" lon="9.97862700476848"><ele>44.5</ele><time>2026-04-25T06:12:46Z</time></trkpt><trkpt lat="44.993159344609815" lon="9.978712809660784"><ele>44.666666666666664</ele><time>2026-04-25T06:12:47Z</time></trkpt><trkpt lat="44.9931145968936" lon="9.978820035924446"><ele>44.833333333333336</ele><time>2026-04-25T06:12:47.999Z</time></trkpt><trkpt lat="44.993077331838926" lon="9.978923856513767"><ele>45.0</ele><time>2026-04-25T06:12:48.999Z</time></trkpt><trkpt lat="44.9930334630002" lon="9.979024578074931"><ele>45.0</ele><time>2026-04-25T06:12:49.999Z</time></trkpt><trkpt lat="44.99298777637651" lon="9.979121121639833"><ele>45.0</ele><time>2026-04-25T06:12:50.999Z</time></trkpt><trkpt lat="44.99294183766979" lon="9.979215595172239"><ele>45.0</ele><time>2026-04-25T06:12:51.999Z</time></trkpt><trkpt lat="44.99289623551178" lon="9.979312146852713"><ele>45.0</ele><time>2026-04-25T06:12:52.999Z</time></trkpt><trkpt lat="44.99282996739596" lon="9.979378940011545"><ele>45.0</ele><time>2026-04-25T06:12:53.999Z</time></trkpt><trkpt lat="44.99276801368669" lon="9.979433001453103"><ele>45.0</ele><time>2026-04-25T06:12:54.999Z</time></trkpt><trkpt lat="44.99275910769042" lon="9.979592106304992"><ele>44.666666666666664</ele><time>2026-04-25T06:12:55.999Z</time></trkpt><trkpt lat="44.99271787404704" lon="9.979692560908672"><ele>44.333333333333336</ele><time>2026-04-25T06:12:56.999Z</time></trkpt><trkpt lat="44.992674420495696" lon="9.97979278302454"><ele>44.0</ele><time>2026-04-25T06:12:57.999Z</time></trkpt><trkpt lat="44.992627750686985" lon="9.97988826076677"><ele>43.66666666666667</ele><time>2026-04-25T06:12:58.999Z</time></trkpt><trkpt lat="44.99257944830724" lon="9.979981327510808"><ele>43.333333333333336</ele><time>2026-04-25T06:12:59.999Z</time></trkpt><trkpt lat="44.99253428198117" lon="9.98007623708626"><ele>43.0</ele><time>2026-04-25T06:13:00.999Z</time></trkpt><trkpt lat="44.99248682146315" lon="9.980171718940625"><ele>43.0</ele><time>2026-04-25T06:13:01.999Z</time></trkpt><trkpt lat="44.99244055538065" lon="9.98026648061139"><ele>43.0</ele><time>2026-04-25T06:13:02.999Z</time></trkpt><trkpt lat="44.992394298663726" lon="9.980360675712209"><ele>43.0</ele><time>2026-04-25T06:13:03.999Z</time></trkpt><trkpt lat="44.99234895654561" lon="9.980456465027085"><ele>43.0</ele><time>2026-04-25T06:13:04.999Z</time></trkpt><trkpt lat="44.99230399743735" lon="9.980552992883672"><ele>43.0</ele><time>2026-04-25T06:13:05.999Z</time></trkpt><trkpt lat="44.99225727796924" lon="9.980648181705773"><ele>43.0</ele><time>2026-04-25T06:13:06.999Z</time></trkpt><trkpt lat="44.99221199560284" lon="9.980744632674863"><ele>43.0</ele><time>2026-04-25T06:13:07.999Z</time></trkpt><trkpt lat="44.99216533279843" lon="9.980841397968778"><ele>43.0</ele><time>2026-04-25T06:13:08.999Z</time></trkpt><trkpt lat="44.99212032228884" lon="9.980936875488625"><ele>43.0</ele><time>2026-04-25T06:13:09.999Z</time></trkpt><trkpt lat="44.99207432216423" lon="9.981032716855282"><ele>43.0</ele><time>2026-04-25T06:13:10.999Z</time></trkpt><trkpt lat="44.992027518293945" lon="9.981126885864434"><ele>43.0</ele><time>2026-04-25T06:13:11.999Z</time></trkpt><trkpt lat="44.99198250470357" lon="9.981223476826719"><ele>43.0</ele><time>2026-04-25T06:13:12.999Z</time></trkpt><trkpt lat="44.99193598850893" lon="9.981319904866702"><ele>43.0</ele><time>2026-04-25T06:13:13.999Z</time></trkpt><trkpt lat="44.99189082349772" lon="9.981414983775968"><ele>43.0</ele><time>2026-04-25T06:13:14.999Z</time></trkpt><trkpt lat="44.99184757787258" lon="9.981511421466656"><ele>43.0</ele><time>2026-04-25T06:13:15.999Z</time></trkpt><trkpt lat="44.9918007118433" lon="9.981607912750954"><ele>43.0</ele><time>2026-04-25T06:13:16.999Z</time></trkpt><trkpt lat="44.991754849077495" lon="9.98170549625471"><ele>43.0</ele><time>2026-04-25T06:13:17.999Z</time></trkpt><trkpt lat="44.99170960464698" lon="9.981806061437036"><ele>43.0</ele><time>2026-04-25T06:13:18.999Z</time></trkpt><trkpt lat="44.99166206128953" lon="9.981902028003281"><ele>43.16666666666667</ele><time>2026-04-25T06:13:19.999Z</time></trkpt><trkpt lat="44.99161595322715" lon="9.982001290950969"><ele>43.333333333333336</ele><time>2026-04-25T06:13:20.999Z</time></trkpt><trkpt lat="44.99157003000857" lon="9.982100966302612"><ele>43.5</ele><time>2026-04-25T06:13:21.999Z</time></trkpt><trkpt lat="44.99152138805656" lon="9.982198695569211"><ele>43.666666666666664</ele><time>2026-04-25T06:13:22.999Z</time></trkpt><trkpt lat="44.99147391551322" lon="9.982297189713773"><ele>43.83333333333333</ele><time>2026-04-25T06:13:23.999Z</time></trkpt><trkpt lat="44.99142925130894" lon="9.982394847219586"><ele>44.0</ele><time>2026-04-25T06:13:24.999Z</time></trkpt><trkpt lat="44.991385628416495" lon="9.982494930998081"><ele>43.83333333333333</ele><time>2026-04-25T06:13:25.999Z</time></trkpt><trkpt lat="44.99134191332771" lon="9.982593153003581"><ele>43.666666666666664</ele><time>2026-04-25T06:13:26.999Z</time></trkpt><trkpt lat="44.991294664736635" lon="9.982690137775485"><ele>43.5</ele><time>2026-04-25T06:13:27.999Z</time></trkpt><trkpt lat="44.9912429985113" lon="9.982787014951025"><ele>43.333333333333336</ele><time>2026-04-25T06:13:28.999Z</time></trkpt><trkpt lat="44.99119757119165" lon="9.982885821488022"><ele>43.16666666666667</ele><time>2026-04-25T06:13:29.999Z</time></trkpt><trkpt lat="44.991153113546126" lon="9.982985719866143"><ele>43.0</ele><time>2026-04-25T06:13:30.999Z</time></trkpt><trkpt lat="44.99110746521615" lon="9.98308464530848"><ele>43.0</ele><time>2026-04-25T06:13:31.999Z</time></trkpt><trkpt lat="44.9910603171507" lon="9.983183443668596"><ele>43.0</ele><time>2026-04-25T06:13:32.999Z</time></trkpt><trkpt lat="44.991015159331305" lon="9.983280634850331"><ele>43.0</ele><time>2026-04-25T06:13:33.999Z</time></trkpt><trkpt lat="44.99097079829093" lon="9.983378580679348"><ele>43.0</ele><time>2026-04-25T06:13:34.999Z</time></trkpt><trkpt lat="44.9909256029006" lon="9.983479281544653"><ele>43.0</ele><time>2026-04-25T06:13:35.999Z</time></trkpt><trkpt lat="44.990882266358604" lon="9.983578805946483"><ele>43.0</ele><time>2026-04-25T06:13:36.999Z</time></trkpt><trkpt lat="44.990836803052" lon="9.983678546313056"><ele>43.0</ele><time>2026-04-25T06:13:37.999Z</time></trkpt><trkpt lat="44.99079211198402" lon="9.983779047788673"><ele>43.0</ele><time>2026-04-25T06:13:38.999Z</time></trkpt><trkpt lat="44.99074608397794" lon="9.983879361621106"><ele>43.0</ele><time>2026-04-25T06:13:39.999Z</time></trkpt><trkpt lat="44.9906983239621" lon="9.983979016702833"><ele>43.0</ele><time>2026-04-25T06:13:40.999Z</time></trkpt><trkpt lat="44.99065132385038" lon="9.984077488256"><ele>43.0</ele><time>2026-04-25T06:13:41.999Z</time></trkpt><trkpt lat="44.99060619728761" lon="9.984174294691343"><ele>43.0</ele><time>2026-04-25T06:13:43.001Z</time></trkpt><trkpt lat="44.990560981" lon="9.984271545771294"><ele>43.16666666666667</ele><time>2026-04-25T06:13:44.001Z</time></trkpt><trkpt lat="44.99051508443914" lon="9.984366993105066"><ele>43.333333333333336</ele><time>2026-04-25T06:13:45.001Z</time></trkpt><trkpt lat="44.99047132625074" lon="9.984461138902544"><ele>43.5</ele><time>2026-04-25T06:13:46.001Z</time></trkpt><trkpt lat="44.99042940689863" lon="9.984556537157555"><ele>43.666666666666664</ele><time>2026-04-25T06:13:47.001Z</time></trkpt><trkpt lat="44.990390272400724" lon="9.984651507817176"><ele>43.83333333333333</ele><time>2026-04-25T06:13:48.001Z</time></trkpt><trkpt lat="44.990356308858615" lon="9.984748212505727"><ele>44.0</ele><time>2026-04-25T06:13:49.001Z</time></trkpt><trkpt lat="44.9903102809937" lon="9.98482960752028"><ele>44.0</ele><time>2026-04-25T06:13:50.001Z</time></trkpt><trkpt lat="44.99024906560532" lon="9.98492981603178"><ele>44.0</ele><time>2026-04-25T06:13:52.001Z</time></trkpt><trkpt lat="44.99016289051806" lon="9.984798771931285"><ele>44.0</ele><time>2026-04-25T06:13:53.001Z</time></trkpt><trkpt lat="44.99011553665141" lon="9.984724795554504"><ele>44.0</ele><time>2026-04-25T06:13:54.001Z</time></trkpt><trkpt lat="44.99005647107157" lon="9.984667506606918"><ele>44.0</ele><time>2026-04-25T06:13:55.001Z</time></trkpt><trkpt lat="44.99000806033592" lon="9.98459797766085"><ele>44.0</ele><time>2026-04-25T06:13:56.001Z</time></trkpt><trkpt lat="44.989956875238164" lon="9.9845282743078"><ele>44.0</ele><time>2026-04-25T06:13:57.001Z</time></trkpt><trkpt lat="44.98990425386953" lon="9.984462567313784"><ele>44.0</ele><time>2026-04-25T06:13:58Z</time></trkpt><trkpt lat="44.98984645656099" lon="9.984398791674778"><ele>44.0</ele><time>2026-04-25T06:13:59Z</time></trkpt><trkpt lat="44.98978919240318" lon="9.984334597206363"><ele>44.0</ele><time>2026-04-25T06:14:00Z</time></trkpt><trkpt lat="44.98973139659487" lon="9.984268550547524"><ele>44.0</ele><time>2026-04-25T06:14:01Z</time></trkpt><trkpt lat="44.9896740649783" lon="9.984200108239953"><ele>44.0</ele><time>2026-04-25T06:14:02Z</time></trkpt><trkpt lat="44.989615735094176" lon="9.984134248621741"><ele>44.0</ele><time>2026-04-25T06:14:03Z</time></trkpt><trkpt lat="44.98955789677127" lon="9.984064034960406"><ele>43.666666666666664</ele><time>2026-04-25T06:14:04Z</time></trkpt><trkpt lat="44.98949987407019" lon="9.983994258924058"><ele>43.33333333333333</ele><time>2026-04-25T06:14:05Z</time></trkpt><trkpt lat="44.989442586371865" lon="9.983922410670337"><ele>43.0</ele><time>2026-04-25T06:14:06Z</time></trkpt><trkpt lat="44.98938531563272" lon="9.98385241350806"><ele>42.666666666666664</ele><time>2026-04-25T06:14:07Z</time></trkpt><trkpt lat="44.989326411285774" lon="9.983780992963126"><ele>42.333333333333336</ele><time>2026-04-25T06:14:08Z</time></trkpt><trkpt lat="44.989267107609145" lon="9.983713328907225"><ele>42.0</ele><time>2026-04-25T06:14:09Z</time></trkpt><trkpt lat="44.989207169777146" lon="9.983645434735433"><ele>42.166666666666664</ele><time>2026-04-25T06:14:10Z</time></trkpt><trkpt lat="44.98914549994044" lon="9.983577701155617"><ele>42.333333333333336</ele><time>2026-04-25T06:14:11Z</time></trkpt><trkpt lat="44.989083604832814" lon="9.983510236250074"><ele>42.5</ele><time>2026-04-25T06:14:12Z</time></trkpt><trkpt lat="44.9890209893196" lon="9.9834468051255"><ele>42.66666666666667</ele><time>2026-04-25T06:14:13Z</time></trkpt><trkpt lat="44.98895530665587" lon="9.983386805653817"><ele>42.833333333333336</ele><time>2026-04-25T06:14:14Z</time></trkpt><trkpt lat="44.98888710744299" lon="9.983329822277398"><ele>43.0</ele><time>2026-04-25T06:14:15Z</time></trkpt><trkpt lat="44.98881730795683" lon="9.983277027723798"><ele>43.0</ele><time>2026-04-25T06:14:16Z</time></trkpt><trkpt lat="44.98874621927303" lon="9.98322606718199"><ele>43.0</ele><time>2026-04-25T06:14:17Z</time></trkpt><trkpt lat="44.988674283319874" lon="9.983178534654403"><ele>43.0</ele><time>2026-04-25T06:14:18Z</time></trkpt><trkpt lat="44.98860021418387" lon="9.983133794357308"><ele>43.0</ele><time>2026-04-25T06:14:19Z</time></trkpt><trkpt lat="44.98852720274127" lon="9.983095321911357"><ele>43.0</ele><time>2026-04-25T06:14:20Z</time></trkpt><trkpt lat="44.98845209474323" lon="9.983058802028294"><ele>43.0</ele><time>2026-04-25T06:14:21Z</time></trkpt><trkpt lat="44.988377541863535" lon="9.983024482177123"><ele>42.833333333333336</ele><time>2026-04-25T06:14:22Z</time></trkpt><trkpt lat="44.988302022722955" lon="9.982987413687567"><ele>42.66666666666667</ele><time>2026-04-25T06:14:23Z</time></trkpt><trkpt lat="44.98822708216376" lon="9.982950321373322"><ele>42.5</ele><time>2026-04-25T06:14:24Z</time></trkpt><trkpt lat="44.98815287062563" lon="9.982911339286558"><ele>42.333333333333336</ele><time>2026-04-25T06:14:25Z</time></trkpt><trkpt lat="44.9880769430945" lon="9.982873399152021"><ele>42.166666666666664</ele><time>2026-04-25T06:14:26Z</time></trkpt><trkpt lat="44.988000661000406" lon="9.982832549879921"><ele>42.0</ele><time>2026-04-25T06:14:27Z</time></trkpt><trkpt lat="44.98792491884033" lon="9.982792096198587"><ele>42.0</ele><time>2026-04-25T06:14:28Z</time></trkpt><trkpt lat="44.987847677938085" lon="9.982750874305864"><ele>42.0</ele><time>2026-04-25T06:14:29Z</time></trkpt><trkpt lat="44.98777029806144" lon="9.982708613009146"><ele>42.0</ele><time>2026-04-25T06:14:30Z</time></trkpt><trkpt lat="44.98769333693299" lon="9.982671088707505"><ele>42.0</ele><time>2026-04-25T06:14:31Z</time></trkpt><trkpt lat="44.987613809192915" lon="9.982630335746581"><ele>42.0</ele><time>2026-04-25T06:14:32Z</time></trkpt><trkpt lat="44.987536252188534" lon="9.982589206238853"><ele>42.0</ele><time>2026-04-25T06:14:33Z</time></trkpt><trkpt lat="44.987458901971415" lon="9.982548439494938"><ele>42.333333333333336</ele><time>2026-04-25T06:14:34Z</time></trkpt><trkpt lat="44.98738154443947" lon="9.982509725022483"><ele>42.666666666666664</ele><time>2026-04-25T06:14:35Z</time></trkpt><trkpt lat="44.98730258729735" lon="9.982470377550202"><ele>43.0</ele><time>2026-04-25T06:14:36Z</time></trkpt><trkpt lat="44.98722406184256" lon="9.982429311947222"><ele>43.33333333333333</ele><time>2026-04-25T06:14:37Z</time></trkpt><trkpt lat="44.9871460362063" lon="9.982390020039873"><ele>43.666666666666664</ele><time>2026-04-25T06:14:38Z</time></trkpt><trkpt lat="44.98706887925608" lon="9.982348933547817"><ele>44.0</ele><time>2026-04-25T06:14:39Z</time></trkpt><trkpt lat="44.98699126514676" lon="9.982308765988655"><ele>44.0</ele><time>2026-04-25T06:14:40Z</time></trkpt><trkpt lat="44.98691287233954" lon="9.98226642728355"><ele>44.0</ele><time>2026-04-25T06:14:41Z</time></trkpt><trkpt lat="44.986834997555626" lon="9.982227650770632"><ele>44.0</ele><time>2026-04-25T06:14:42Z</time></trkpt><trkpt lat="44.98675657370517" lon="9.9821890764739"><ele>44.0</ele><time>2026-04-25T06:14:43Z</time></trkpt><trkpt lat="44.986678855642296" lon="9.982147204224885"><ele>44.0</ele><time>2026-04-25T06:14:44Z</time></trkpt><trkpt lat="44.98660311958564" lon="9.982104711523375"><ele>44.0</ele><time>2026-04-25T06:14:45Z</time></trkpt><trkpt lat="44.9865252723742" lon="9.98206403301358"><ele>44.0</ele><time>2026-04-25T06:14:46Z</time></trkpt><trkpt lat="44.986447300543844" lon="9.982024416002178"><ele>44.0</ele><time>2026-04-25T06:14:47Z</time></trkpt><trkpt lat="44.98636929235789" lon="9.981988948760117"><ele>44.0</ele><time>2026-04-25T06:14:48Z</time></trkpt><trkpt lat="44.98629066618202" lon="9.981946854225493"><ele>44.0</ele><time>2026-04-25T06:14:49Z</time></trkpt><trkpt lat="44.98621340398807" lon="9.98190606968679"><ele>44.0</ele><time>2026-04-25T06:14:50Z</time></trkpt><trkpt lat="44.98613544102293" lon="9.981865508014243"><ele>44.0</ele><time>2026-04-25T06:14:50.999Z</time></trkpt><trkpt lat="44.98605707985484" lon="9.981823992530199"><ele>44.0</ele><time>2026-04-25T06:14:51.999Z</time></trkpt><trkpt lat="44.98597960900099" lon="9.98178392842052"><ele>44.0</ele><time>2026-04-25T06:14:52.999Z</time></trkpt><trkpt lat="44.98590323457128" lon="9.98174390136284"><ele>44.0</ele><time>2026-04-25T06:14:53.999Z</time></trkpt><trkpt lat="44.98582595699293" lon="9.981705078848174"><ele>44.0</ele><time>2026-04-25T06:14:54.999Z</time></trkpt><trkpt lat="44.98575034491129" lon="9.981664506694473"><ele>44.0</ele><time>2026-04-25T06:14:55.999Z</time></trkpt><trkpt lat="44.98567448294294" lon="9.981629052283672"><ele>44.0</ele><time>2026-04-25T06:14:56.999Z</time></trkpt><trkpt lat="44.98559637124796" lon="9.981588911398347"><ele>44.166666666666664</ele><time>2026-04-25T06:14:57.999Z</time></trkpt><trkpt lat="44.98551876082702" lon="9.981552137074287"><ele>44.33333333333333</ele><time>2026-04-25T06:14:58.999Z</time></trkpt><trkpt lat="44.98544166698926" lon="9.981511990516816"><ele>44.5</ele><time>2026-04-25T06:14:59.999Z</time></trkpt><trkpt lat="44.985363124245445" lon="9.98147203544547"><ele>44.666666666666664</ele><time>2026-04-25T06:15:00.999Z</time></trkpt><trkpt lat="44.9852847575612" lon="9.981434985018833"><ele>44.833333333333336</ele><time>2026-04-25T06:15:01.999Z</time></trkpt><trkpt lat="44.98520628204088" lon="9.981392364252441"><ele>45.0</ele><time>2026-04-25T06:15:02.999Z</time></trkpt><trkpt lat="44.98512890433716" lon="9.98135300888619"><ele>45.0</ele><time>2026-04-25T06:15:03.999Z</time></trkpt><trkpt lat="44.98505047409642" lon="9.981313814410973"><ele>45.0</ele><time>2026-04-25T06:15:04.999Z</time></trkpt><trkpt lat="44.9849731720483" lon="9.981278358185662"><ele>45.0</ele><time>2026-04-25T06:15:05.999Z</time></trkpt><trkpt lat="44.98489635859479" lon="9.981240353098075"><ele>45.0</ele><time>2026-04-25T06:15:06.999Z</time></trkpt><trkpt lat="44.984819962122366" lon="9.981205256524305"><ele>45.0</ele><time>2026-04-25T06:15:07.999Z</time></trkpt><trkpt lat="44.984744295492725" lon="9.98116837902071"><ele>45.0</ele><time>2026-04-25T06:15:08.999Z</time></trkpt><trkpt lat="44.98467027189505" lon="9.981129969809304"><ele>45.333333333333336</ele><time>2026-04-25T06:15:09.999Z</time></trkpt><trkpt lat="44.98459627411529" lon="9.98109065203361"><ele>45.666666666666664</ele><time>2026-04-25T06:15:10.999Z</time></trkpt><trkpt lat="44.98452239808786" lon="9.981050018757067"><ele>46.0</ele><time>2026-04-25T06:15:11.999Z</time></trkpt><trkpt lat="44.984447206656256" lon="9.981015250790037"><ele>46.33333333333333</ele><time>2026-04-25T06:15:12.999Z</time></trkpt><trkpt lat="44.98437221255331" lon="9.98098302877476"><ele>46.666666666666664</ele><time>2026-04-25T06:15:13.999Z</time></trkpt><trkpt lat="44.9842969901812" lon="9.980946143382686"><ele>47.0</ele><time>2026-04-25T06:15:14.999Z</time></trkpt><trkpt lat="44.98422225339171" lon="9.980906732594205"><ele>47.0</ele><time>2026-04-25T06:15:15.999Z</time></trkpt><trkpt lat="44.98415243551525" lon="9.980866721820858"><ele>47.0</ele><time>2026-04-25T06:15:16.999Z</time></trkpt><trkpt lat="44.98409486736212" lon="9.980797418191498"><ele>47.0</ele><time>2026-04-25T06:15:17.999Z</time></trkpt><trkpt lat="44.98403719860794" lon="9.980745047172235"><ele>47.0</ele><time>2026-04-25T06:15:18.999Z</time></trkpt><trkpt lat="44.983885480245156" lon="9.980904764457497"><ele>47.0</ele><time>2026-04-25T06:15:20.999Z</time></trkpt><trkpt lat="44.98385469056951" lon="9.981009985490752"><ele>47.0</ele><time>2026-04-25T06:15:21.999Z</time></trkpt><trkpt lat="44.983836560626536" lon="9.981115969663602"><ele>47.0</ele><time>2026-04-25T06:15:22.999Z</time></trkpt><trkpt lat="44.983817300281565" lon="9.981221001814212"><ele>47.0</ele><time>2026-04-25T06:15:23.999Z</time></trkpt><trkpt lat="44.98379527063805" lon="9.981326843340387"><ele>47.0</ele><time>2026-04-25T06:15:24.999Z</time></trkpt><trkpt lat="44.98377589255269" lon="9.98143238756745"><ele>47.0</ele><time>2026-04-25T06:15:25.999Z</time></trkpt><trkpt lat="44.98375626550367" lon="9.981541385694209"><ele>47.0</ele><time>2026-04-25T06:15:26.999Z</time></trkpt><trkpt lat="44.98374025418532" lon="9.981650322169795"><ele>47.33333333333333</ele><time>2026-04-25T06:15:27.999Z</time></trkpt><trkpt lat="44.983721787476625" lon="9.981757378051112"><ele>47.666666666666664</ele><time>2026-04-25T06:15:28.999Z</time></trkpt><trkpt lat="44.9837033413015" lon="9.981866265719493"><ele>48.0</ele><time>2026-04-25T06:15:29.999Z</time></trkpt><trkpt lat="44.98368586034662" lon="9.981974297947966"><ele>48.33333333333333</ele><time>2026-04-25T06:15:30.999Z</time></trkpt><trkpt lat="44.98366710234412" lon="9.982081879703102"><ele>48.666666666666664</ele><time>2026-04-25T06:15:31.999Z</time></trkpt><trkpt lat="44.98365058118274" lon="9.982189594042435"><ele>49.0</ele><time>2026-04-25T06:15:32.999Z</time></trkpt><trkpt lat="44.98363418818747" lon="9.982295867525213"><ele>48.99999999999999</ele><time>2026-04-25T06:15:33.999Z</time></trkpt><trkpt lat="44.98361861566628" lon="9.982402908364458"><ele>49.0</ele><time>2026-04-25T06:15:34.999Z</time></trkpt><trkpt lat="44.983600026373566" lon="9.982510307117149"><ele>49.0</ele><time>2026-04-25T06:15:35.999Z</time></trkpt><trkpt lat="44.983583565283475" lon="9.982621021496898"><ele>49.0</ele><time>2026-04-25T06:15:36.999Z</time></trkpt><trkpt lat="44.983564628835325" lon="9.982732279613465"><ele>48.99999999999999</ele><time>2026-04-25T06:15:37.999Z</time></trkpt><trkpt lat="44.983546016927356" lon="9.982842457182178"><ele>49.0</ele><time>2026-04-25T06:15:38.999Z</time></trkpt><trkpt lat="44.98352903237907" lon="9.982954248201764"><ele>48.666666666666664</ele><time>2026-04-25T06:15:39.999Z</time></trkpt><trkpt lat="44.98351009835991" lon="9.983067417235304"><ele>48.33333333333333</ele><time>2026-04-25T06:15:40.999Z</time></trkpt><trkpt lat="44.98349216869551" lon="9.983179147094987"><ele>48.0</ele><time>2026-04-25T06:15:41.999Z</time></trkpt><trkpt lat="44.98347256189475" lon="9.983290786768299"><ele>47.666666666666664</ele><time>2026-04-25T06:15:42.999Z</time></trkpt><trkpt lat="44.98345229564985" lon="9.983402383963714"><ele>47.33333333333333</ele><time>2026-04-25T06:15:43.999Z</time></trkpt><trkpt lat="44.98343152336453" lon="9.983514424991254"><ele>47.0</ele><time>2026-04-25T06:15:44.999Z</time></trkpt><trkpt lat="44.98341313321057" lon="9.983627253433799"><ele>46.83333333333333</ele><time>2026-04-25T06:15:45.998Z</time></trkpt><trkpt lat="44.98339521102995" lon="9.983741626473794"><ele>46.666666666666664</ele><time>2026-04-25T06:15:46.998Z</time></trkpt><trkpt lat="44.983377155337685" lon="9.983855828498518"><ele>46.5</ele><time>2026-04-25T06:15:47.998Z</time></trkpt><trkpt lat="44.98335688896367" lon="9.983968858702614"><ele>46.333333333333336</ele><time>2026-04-25T06:15:49Z</time></trkpt><trkpt lat="44.983338143037926" lon="9.984084740112488"><ele>46.16666666666667</ele><time>2026-04-25T06:15:50Z</time></trkpt><trkpt lat="44.9833186551645" lon="9.984198586939163"><ele>46.0</ele><time>2026-04-25T06:15:51Z</time></trkpt><trkpt lat="44.98329679343044" lon="9.98431214259904"><ele>45.66666666666667</ele><time>2026-04-25T06:15:52Z</time></trkpt><trkpt lat="44.983277505815536" lon="9.98442683915016"><ele>45.333333333333336</ele><time>2026-04-25T06:15:53Z</time></trkpt><trkpt lat="44.98326076468606" lon="9.98454129314132"><ele>45.0</ele><time>2026-04-25T06:15:54Z</time></trkpt><trkpt lat="44.98324212542997" lon="9.984654566222082"><ele>44.666666666666664</ele><time>2026-04-25T06:15:55Z</time></trkpt><trkpt lat="44.983222203771795" lon="9.984765658300244"><ele>44.33333333333333</ele><time>2026-04-25T06:15:56Z</time></trkpt><trkpt lat="44.98320135374399" lon="9.984877934162062"><ele>44.0</ele><time>2026-04-25T06:15:57Z</time></trkpt><trkpt lat="44.98318108898433" lon="9.984990313006199"><ele>44.0</ele><time>2026-04-25T06:15:58Z</time></trkpt><trkpt lat="44.983162420438035" lon="9.985104779918863"><ele>44.0</ele><time>2026-04-25T06:15:59Z</time></trkpt><trkpt lat="44.983145148331694" lon="9.985216906361055"><ele>44.0</ele><time>2026-04-25T06:16:00Z</time></trkpt><trkpt lat="44.983127728906084" lon="9.98532912515745"><ele>44.0</ele><time>2026-04-25T06:16:01Z</time></trkpt><trkpt lat="44.983108479429106" lon="9.985441021865935"><ele>44.0</ele><time>2026-04-25T06:16:02Z</time></trkpt><trkpt lat="44.98309021754223" lon="9.985552149356392"><ele>44.0</ele><time>2026-04-25T06:16:03Z</time></trkpt><trkpt lat="44.98307202121813" lon="9.985665206840153"><ele>44.0</ele><time>2026-04-25T06:16:04Z</time></trkpt><trkpt lat="44.983053187215205" lon="9.985776985704886"><ele>44.0</ele><time>2026-04-25T06:16:05Z</time></trkpt><trkpt lat="44.983033847476996" lon="9.985888233787902"><ele>44.0</ele><time>2026-04-25T06:16:06Z</time></trkpt><trkpt lat="44.98301566861163" lon="9.986000000580335"><ele>44.0</ele><time>2026-04-25T06:16:07Z</time></trkpt><trkpt lat="44.982996033815716" lon="9.986111754109006"><ele>44.0</ele><time>2026-04-25T06:16:08Z</time></trkpt><trkpt lat="44.982975821154675" lon="9.986225598745675"><ele>44.0</ele><time>2026-04-25T06:16:09Z</time></trkpt><trkpt lat="44.98295695765058" lon="9.986338200824768"><ele>44.0</ele><time>2026-04-25T06:16:10Z</time></trkpt><trkpt lat="44.98293851965303" lon="9.986451101068791"><ele>44.0</ele><time>2026-04-25T06:16:11Z</time></trkpt><trkpt lat="44.98292043625509" lon="9.986564532352519"><ele>44.0</ele><time>2026-04-25T06:16:12Z</time></trkpt><trkpt lat="44.9829025836707" lon="9.986676127476946"><ele>44.0</ele><time>2026-04-25T06:16:13Z</time></trkpt><trkpt lat="44.98288310927854" lon="9.98678983001854"><ele>44.0</ele><time>2026-04-25T06:16:14Z</time></trkpt><trkpt lat="44.982862998475596" lon="9.986901998248117"><ele>44.0</ele><time>2026-04-25T06:16:15Z</time></trkpt><trkpt lat="44.98284292952129" lon="9.987014743968352"><ele>44.33333333333333</ele><time>2026-04-25T06:16:16Z</time></trkpt><trkpt lat="44.98282137473395" lon="9.987127753281682"><ele>44.666666666666664</ele><time>2026-04-25T06:16:17Z</time></trkpt><trkpt lat="44.98280467816491" lon="9.987239395091187"><ele>45.0</ele><time>2026-04-25T06:16:18Z</time></trkpt><trkpt lat="44.98278748779783" lon="9.987352548738793"><ele>45.333333333333336</ele><time>2026-04-25T06:16:19Z</time></trkpt><trkpt lat="44.98277119396364" lon="9.987465439678525"><ele>45.66666666666667</ele><time>2026-04-25T06:16:20Z</time></trkpt><trkpt lat="44.982752351300256" lon="9.987578243329212"><ele>46.0</ele><time>2026-04-25T06:16:21Z</time></trkpt><trkpt lat="44.9827174077141" lon="9.987682616997049"><ele>46.0</ele><time>2026-04-25T06:16:22Z</time></trkpt><trkpt lat="44.98265184822125" lon="9.98775577266749"><ele>46.0</ele><time>2026-04-25T06:16:23Z</time></trkpt><trkpt lat="44.98256196467577" lon="9.987774492423137"><ele>46.0</ele><time>2026-04-25T06:16:24Z</time></trkpt><trkpt lat="44.98247917666356" lon="9.987708965994331"><ele>46.0</ele><time>2026-04-25T06:16:25Z</time></trkpt><trkpt lat="44.98240463486029" lon="9.987659606321367"><ele>46.0</ele><time>2026-04-25T06:16:26Z</time></trkpt><trkpt lat="44.982327969853124" lon="9.987616348289569"><ele>46.0</ele><time>2026-04-25T06:16:27Z</time></trkpt><trkpt lat="44.982246181131956" lon="9.987587207854467"><ele>46.0</ele><time>2026-04-25T06:16:28Z</time></trkpt><trkpt lat="44.982171759389836" lon="9.987541065696496"><ele>46.0</ele><time>2026-04-25T06:16:29Z</time></trkpt><trkpt lat="44.98209807867088" lon="9.987496226991633"><ele>46.0</ele><time>2026-04-25T06:16:30Z</time></trkpt><trkpt lat="44.98202236855492" lon="9.987454171495797"><ele>46.0</ele><time>2026-04-25T06:16:31Z</time></trkpt><trkpt lat="44.98194424192996" lon="9.987422662205235"><ele>46.0</ele><time>2026-04-25T06:16:32Z</time></trkpt><trkpt lat="44.981861789173834" lon="9.987419282417937"><ele>46.0</ele><time>2026-04-25T06:16:33Z</time></trkpt><trkpt lat="44.98177623870219" lon="9.98744588149785"><ele>46.0</ele><time>2026-04-25T06:16:34Z</time></trkpt><trkpt lat="44.98172978580392" lon="9.987561045221378"><ele>46.0</ele><time>2026-04-25T06:16:35Z</time></trkpt><trkpt lat="44.98169168542854" lon="9.98766609330369"><ele>46.0</ele><time>2026-04-25T06:16:36Z</time></trkpt><trkpt lat="44.981661121676524" lon="9.987774623303107"><ele>46.0</ele><time>2026-04-25T06:16:37Z</time></trkpt><trkpt lat="44.981630333334316" lon="9.987878636618808"><ele>46.0</ele><time>2026-04-25T06:16:38Z</time></trkpt><trkpt lat="44.98159866158859" lon="9.98798493427181"><ele>46.0</ele><time>2026-04-25T06:16:39Z</time></trkpt><trkpt lat="44.98156946795315" lon="9.988094321928378"><ele>45.66666666666667</ele><time>2026-04-25T06:16:40Z</time></trkpt><trkpt lat="44.981538848982254" lon="9.98820195296303"><ele>45.333333333333336</ele><time>2026-04-25T06:16:41Z</time></trkpt><trkpt lat="44.981508787048334" lon="9.988309707247168"><ele>45.0</ele><time>2026-04-25T06:16:42Z</time></trkpt><trkpt lat="44.981475697992956" lon="9.98841560138375"><ele>44.666666666666664</ele><time>2026-04-25T06:16:43Z</time></trkpt><trkpt lat="44.981443531869466" lon="9.988520676151635"><ele>44.33333333333333</ele><time>2026-04-25T06:16:44Z</time></trkpt><trkpt lat="44.98141268170217" lon="9.988628130561194"><ele>44.0</ele><time>2026-04-25T06:16:45Z</time></trkpt><trkpt lat="44.98138061146188" lon="9.988733362678332"><ele>43.83333333333333</ele><time>2026-04-25T06:16:46Z</time></trkpt><trkpt lat="44.98134862643914" lon="9.988840676774519"><ele>43.666666666666664</ele><time>2026-04-25T06:16:47Z</time></trkpt><trkpt lat="44.981316808243406" lon="9.98894657281328"><ele>43.5</ele><time>2026-04-25T06:16:48Z</time></trkpt><trkpt lat="44.981284182254186" lon="9.989051892207158"><ele>43.333333333333336</ele><time>2026-04-25T06:16:49Z</time></trkpt><trkpt lat="44.98125320047336" lon="9.989158167031597"><ele>43.16666666666667</ele><time>2026-04-25T06:16:50Z</time></trkpt><trkpt lat="44.98122074056323" lon="9.989263445577595"><ele>43.0</ele><time>2026-04-25T06:16:51Z</time></trkpt><trkpt lat="44.98118813977637" lon="9.989370355984937"><ele>43.0</ele><time>2026-04-25T06:16:52Z</time></trkpt><trkpt lat="44.98115521258294" lon="9.989476010282628"><ele>43.0</ele><time>2026-04-25T06:16:53Z</time></trkpt><trkpt lat="44.98112491514692" lon="9.98958241241601"><ele>43.0</ele><time>2026-04-25T06:16:54Z</time></trkpt><trkpt lat="44.98109365696839" lon="9.98968912062077"><ele>43.0</ele><time>2026-04-25T06:16:54.999Z</time></trkpt><trkpt lat="44.98106203224662" lon="9.989795345080298"><ele>43.0</ele><time>2026-04-25T06:16:55.999Z</time></trkpt><trkpt lat="44.98103172870887" lon="9.989901549185303"><ele>43.0</ele><time>2026-04-25T06:16:56.999Z</time></trkpt><trkpt lat="44.98100055334742" lon="9.99000948114184"><ele>43.16666666666667</ele><time>2026-04-25T06:16:57.999Z</time></trkpt><trkpt lat="44.980969064153435" lon="9.990117135667013"><ele>43.333333333333336</ele><time>2026-04-25T06:16:58.999Z</time></trkpt><trkpt lat="44.98093573801201" lon="9.990223012910256"><ele>43.5</ele><time>2026-04-25T06:16:59.999Z</time></trkpt><trkpt lat="44.98090419759089" lon="9.99033005356408"><ele>43.666666666666664</ele><time>2026-04-25T06:17:00.999Z</time></trkpt><trkpt lat="44.98087091954464" lon="9.990438442280222"><ele>43.83333333333333</ele><time>2026-04-25T06:17:01.999Z</time></trkpt><trkpt lat="44.98084003657197" lon="9.990544836756998"><ele>44.0</ele><time>2026-04-25T06:17:02.999Z</time></trkpt><trkpt lat="44.98080802479142" lon="9.990654327869997"><ele>44.0</ele><time>2026-04-25T06:17:03.999Z</time></trkpt><trkpt lat="44.980775836423646" lon="9.990761887878154"><ele>44.0</ele><time>2026-04-25T06:17:04.999Z</time></trkpt><trkpt lat="44.98074511035059" lon="9.990867674857222"><ele>44.0</ele><time>2026-04-25T06:17:05.999Z</time></trkpt><trkpt lat="44.980710911665" lon="9.990976759215853"><ele>44.0</ele><time>2026-04-25T06:17:06.999Z</time></trkpt><trkpt lat="44.98067999784494" lon="9.991083436275176"><ele>44.0</ele><time>2026-04-25T06:17:07.999Z</time></trkpt><trkpt lat="44.98064609136546" lon="9.991189775383438"><ele>44.0</ele><time>2026-04-25T06:17:08.999Z</time></trkpt><trkpt lat="44.980612177537004" lon="9.991297386812176"><ele>43.83333333333333</ele><time>2026-04-25T06:17:09.999Z</time></trkpt><trkpt lat="44.98058004054505" lon="9.991404159844837"><ele>43.666666666666664</ele><time>2026-04-25T06:17:10.999Z</time></trkpt><trkpt lat="44.980547505898905" lon="9.991513259535177"><ele>43.5</ele><time>2026-04-25T06:17:11.999Z</time></trkpt><trkpt lat="44.98051721869039" lon="9.991619911704559"><ele>43.333333333333336</ele><time>2026-04-25T06:17:12.999Z</time></trkpt><trkpt lat="44.98048643565151" lon="9.991727460611447"><ele>43.16666666666667</ele><time>2026-04-25T06:17:13.999Z</time></trkpt><trkpt lat="44.980454077179346" lon="9.991836542769743"><ele>43.0</ele><time>2026-04-25T06:17:14.999Z</time></trkpt><trkpt lat="44.98042228405363" lon="9.991944932734794"><ele>43.0</ele><time>2026-04-25T06:17:15.999Z</time></trkpt><trkpt lat="44.98039157873475" lon="9.992052142183272"><ele>43.0</ele><time>2026-04-25T06:17:16.999Z</time></trkpt><trkpt lat="44.98035934904862" lon="9.992160899393088"><ele>43.0</ele><time>2026-04-25T06:17:17.999Z</time></trkpt><trkpt lat="44.980326519456526" lon="9.992271314423519"><ele>43.0</ele><time>2026-04-25T06:17:18.999Z</time></trkpt><trkpt lat="44.98029583198527" lon="9.992377607511248"><ele>43.0</ele><time>2026-04-25T06:17:19.999Z</time></trkpt><trkpt lat="44.98026524520127" lon="9.992487199221474"><ele>43.0</ele><time>2026-04-25T06:17:20.999Z</time></trkpt><trkpt lat="44.980232839092025" lon="9.992596950389425"><ele>43.0</ele><time>2026-04-25T06:17:21.999Z</time></trkpt><trkpt lat="44.9801997073056" lon="9.992702994090306"><ele>43.0</ele><time>2026-04-25T06:17:22.999Z</time></trkpt><trkpt lat="44.98016831690176" lon="9.992808764476"><ele>43.0</ele><time>2026-04-25T06:17:23.999Z</time></trkpt><trkpt lat="44.98013654887276" lon="9.992917783916704"><ele>43.0</ele><time>2026-04-25T06:17:24.999Z</time></trkpt><trkpt lat="44.98010428370979" lon="9.99302429085357"><ele>43.0</ele><time>2026-04-25T06:17:25.999Z</time></trkpt><trkpt lat="44.9800740612222" lon="9.993132959087891"><ele>43.0</ele><time>2026-04-25T06:17:26.999Z</time></trkpt><trkpt lat="44.980044660508895" lon="9.99324122916987"><ele>43.0</ele><time>2026-04-25T06:17:27.999Z</time></trkpt><trkpt lat="44.98001297534305" lon="9.993348421463581"><ele>43.0</ele><time>2026-04-25T06:17:28.999Z</time></trkpt><trkpt lat="44.97998160948322" lon="9.993455878722408"><ele>43.0</ele><time>2026-04-25T06:17:29.999Z</time></trkpt><trkpt lat="44.97995384988377" lon="9.993561774373399"><ele>43.0</ele><time>2026-04-25T06:17:30.999Z</time></trkpt><trkpt lat="44.979929821789426" lon="9.993671662956572"><ele>43.0</ele><time>2026-04-25T06:17:31.999Z</time></trkpt><trkpt lat="44.9799093780134" lon="9.993780524968608"><ele>43.0</ele><time>2026-04-25T06:17:32.999Z</time></trkpt><trkpt lat="44.979868064108324" lon="9.993873806948914"><ele>43.0</ele><time>2026-04-25T06:17:33.999Z</time></trkpt><trkpt lat="44.97983377004301" lon="9.993957699927414"><ele>43.0</ele><time>2026-04-25T06:17:34.999Z</time></trkpt><trkpt lat="44.979760041334806" lon="9.993986927655172"><ele>43.0</ele><time>2026-04-25T06:17:35.999Z</time></trkpt><trkpt lat="44.9796892332068" lon="9.993927619184467"><ele>43.0</ele><time>2026-04-25T06:17:36.999Z</time></trkpt><trkpt lat="44.97961923656015" lon="9.993891993486502"><ele>43.0</ele><time>2026-04-25T06:17:37.999Z</time></trkpt><trkpt lat="44.97955525172741" lon="9.99383805069126"><ele>43.0</ele><time>2026-04-25T06:17:38.999Z</time></trkpt><trkpt lat="44.979488112707855" lon="9.99379366011584"><ele>43.0</ele><time>2026-04-25T06:17:39.999Z</time></trkpt><trkpt lat="44.9794184669351" lon="9.993752491386944"><ele>43.0</ele><time>2026-04-25T06:17:40.999Z</time></trkpt><trkpt lat="44.97934821288867" lon="9.99371122452578"><ele>43.0</ele><time>2026-04-25T06:17:41.999Z</time></trkpt><trkpt lat="44.97927714623382" lon="9.993671102087024"><ele>43.0</ele><time>2026-04-25T06:17:42.999Z</time></trkpt><trkpt lat="44.97920736976137" lon="9.993630331716535"><ele>43.0</ele><time>2026-04-25T06:17:43.999Z</time></trkpt><trkpt lat="44.979135903518504" lon="9.993591903392925"><ele>43.0</ele><time>2026-04-25T06:17:44.999Z</time></trkpt><trkpt lat="44.97906558429785" lon="9.993549751259836"><ele>43.0</ele><time>2026-04-25T06:17:45.999Z</time></trkpt><trkpt lat="44.97899281822575" lon="9.9935064381619"><ele>43.0</ele><time>2026-04-25T06:17:46.999Z</time></trkpt><trkpt lat="44.97892093086147" lon="9.993466301822986"><ele>43.0</ele><time>2026-04-25T06:17:47.999Z</time></trkpt><trkpt lat="44.97884784859167" lon="9.993423776385956"><ele>43.0</ele><time>2026-04-25T06:17:48.999Z</time></trkpt><trkpt lat="44.978775235362136" lon="9.993381034828458"><ele>43.0</ele><time>2026-04-25T06:17:49.998Z</time></trkpt><trkpt lat="44.97870171166774" lon="9.993336993642487"><ele>43.0</ele><time>2026-04-25T06:17:50.998Z</time></trkpt><trkpt lat="44.97863080198516" lon="9.993289107726483"><ele>43.0</ele><time>2026-04-25T06:17:51.998Z</time></trkpt><trkpt lat="44.978559754113846" lon="9.993241745929925"><ele>43.0</ele><time>2026-04-25T06:17:52.998Z</time></trkpt><trkpt lat="44.97848503165223" lon="9.993199982000052"><ele>43.0</ele><time>2026-04-25T06:17:54Z</time></trkpt><trkpt lat="44.978410941501956" lon="9.993160048208681"><ele>43.0</ele><time>2026-04-25T06:17:55Z</time></trkpt><trkpt lat="44.97833745209354" lon="9.99311371483478"><ele>43.0</ele><time>2026-04-25T06:17:56Z</time></trkpt><trkpt lat="44.978263398587075" lon="9.9930697067891"><ele>43.0</ele><time>2026-04-25T06:17:57Z</time></trkpt><trkpt lat="44.97819131564286" lon="9.993024904328148"><ele>42.833333333333336</ele><time>2026-04-25T06:17:58Z</time></trkpt><trkpt lat="44.978116734205535" lon="9.992985341231774"><ele>42.66666666666667</ele><time>2026-04-25T06:17:59Z</time></trkpt><trkpt lat="44.97804224075409" lon="9.99294718192988"><ele>42.5</ele><time>2026-04-25T06:18:00Z</time></trkpt><trkpt lat="44.97796609257252" lon="9.992911059646316"><ele>42.333333333333336</ele><time>2026-04-25T06:18:01Z</time></trkpt><trkpt lat="44.97788679631271" lon="9.99287938826949"><ele>42.166666666666664</ele><time>2026-04-25T06:18:02Z</time></trkpt><trkpt lat="44.9778087739566" lon="9.992855196441072"><ele>42.0</ele><time>2026-04-25T06:18:03Z</time></trkpt><trkpt lat="44.97772721998159" lon="9.992839604769733"><ele>42.0</ele><time>2026-04-25T06:18:04Z</time></trkpt><trkpt lat="44.977647792250366" lon="9.992821960726316"><ele>42.0</ele><time>2026-04-25T06:18:05Z</time></trkpt><trkpt lat="44.97756678629934" lon="9.992786486173936"><ele>42.0</ele><time>2026-04-25T06:18:06Z</time></trkpt><trkpt lat="44.977492396225806" lon="9.992755224286679"><ele>42.0</ele><time>2026-04-25T06:18:07Z</time></trkpt><trkpt lat="44.977415470389374" lon="9.992718907576053"><ele>42.0</ele><time>2026-04-25T06:18:08Z</time></trkpt><trkpt lat="44.9773385659628" lon="9.992682069871561"><ele>42.0</ele><time>2026-04-25T06:18:09Z</time></trkpt><trkpt lat="44.9772629937801" lon="9.992646340541397"><ele>42.166666666666664</ele><time>2026-04-25T06:18:10Z</time></trkpt><trkpt lat="44.977187849338385" lon="9.992610395235044"><ele>42.333333333333336</ele><time>2026-04-25T06:18:11Z</time></trkpt><trkpt lat="44.97711104505406" lon="9.992573972357597"><ele>42.5</ele><time>2026-04-25T06:18:12Z</time></trkpt><trkpt lat="44.97703513517729" lon="9.992539545636308"><ele>42.66666666666667</ele><time>2026-04-25T06:18:13Z</time></trkpt><trkpt lat="44.97695826111637" lon="9.99250371356753"><ele>42.833333333333336</ele><time>2026-04-25T06:18:14Z</time></trkpt><trkpt lat="44.97688316333614" lon="9.992466975642463"><ele>43.0</ele><time>2026-04-25T06:18:15Z</time></trkpt><trkpt lat="44.97680841425799" lon="9.992428984270218"><ele>43.16666666666667</ele><time>2026-04-25T06:18:16Z</time></trkpt><trkpt lat="44.97673210492293" lon="9.99239250895526"><ele>43.333333333333336</ele><time>2026-04-25T06:18:17Z</time></trkpt><trkpt lat="44.97666160260719" lon="9.992337515525858"><ele>43.5</ele><time>2026-04-25T06:18:18Z</time></trkpt><trkpt lat="44.9765854886865" lon="9.99229800195311"><ele>43.666666666666664</ele><time>2026-04-25T06:18:19Z</time></trkpt><trkpt lat="44.976511623806275" lon="9.992259356770566"><ele>43.83333333333333</ele><time>2026-04-25T06:18:20Z</time></trkpt><trkpt lat="44.97643494441377" lon="9.992217434661308"><ele>44.0</ele><time>2026-04-25T06:18:21Z</time></trkpt><trkpt lat="44.97636092610118" lon="9.992174241814439"><ele>44.0</ele><time>2026-04-25T06:18:22Z</time></trkpt><trkpt lat="44.97628681787894" lon="9.99212976840668"><ele>44.0</ele><time>2026-04-25T06:18:23Z</time></trkpt><trkpt lat="44.976214151827406" lon="9.992085833403522"><ele>44.0</ele><time>2026-04-25T06:18:24Z</time></trkpt><trkpt lat="44.97613904256179" lon="9.992040280375747"><ele>44.0</ele><time>2026-04-25T06:18:25Z</time></trkpt><trkpt lat="44.97606745210979" lon="9.991995536353718"><ele>44.0</ele><time>2026-04-25T06:18:26Z</time></trkpt><trkpt lat="44.975991744033124" lon="9.99194821870425"><ele>44.0</ele><time>2026-04-25T06:18:27Z</time></trkpt><trkpt lat="44.975919594284605" lon="9.991903255232845"><ele>43.666666666666664</ele><time>2026-04-25T06:18:28Z</time></trkpt><trkpt lat="44.97584775751745" lon="9.991855188003509"><ele>43.33333333333333</ele><time>2026-04-25T06:18:29Z</time></trkpt><trkpt lat="44.97577657246615" lon="9.991807556881701"><ele>43.0</ele><time>2026-04-25T06:18:30Z</time></trkpt><trkpt lat="44.97570289363283" lon="9.991758257162083"><ele>42.666666666666664</ele><time>2026-04-25T06:18:31Z</time></trkpt><trkpt lat="44.975630076023286" lon="9.9917095337165"><ele>42.333333333333336</ele><time>2026-04-25T06:18:32Z</time></trkpt><trkpt lat="44.97555216996609" lon="9.99167969271281"><ele>42.0</ele><time>2026-04-25T06:18:33Z</time></trkpt><trkpt lat="44.97548321215001" lon="9.991622430834058"><ele>42.0</ele><time>2026-04-25T06:18:34Z</time></trkpt><trkpt lat="44.9754139925687" lon="9.991568985890426"><ele>42.0</ele><time>2026-04-25T06:18:35Z</time></trkpt><trkpt lat="44.97534202421497" lon="9.991518253726424"><ele>42.0</ele><time>2026-04-25T06:18:36Z</time></trkpt><trkpt lat="44.975269556971185" lon="9.991468704834558"><ele>42.0</ele><time>2026-04-25T06:18:37Z</time></trkpt><trkpt lat="44.975197903316875" lon="9.991421950961929"><ele>42.0</ele><time>2026-04-25T06:18:38Z</time></trkpt><trkpt lat="44.975123841441416" lon="9.991375607142947"><ele>42.0</ele><time>2026-04-25T06:18:39Z</time></trkpt><trkpt lat="44.975051120321574" lon="9.99132953187969"><ele>42.0</ele><time>2026-04-25T06:18:40Z</time></trkpt><trkpt lat="44.97497807535926" lon="9.9912809389452"><ele>42.0</ele><time>2026-04-25T06:18:41Z</time></trkpt><trkpt lat="44.97490780241406" lon="9.991230007128015"><ele>42.0</ele><time>2026-04-25T06:18:42Z</time></trkpt><trkpt lat="44.9748373142444" lon="9.991179898666566"><ele>42.0</ele><time>2026-04-25T06:18:43Z</time></trkpt><trkpt lat="44.974764460641246" lon="9.991138865010052"><ele>42.0</ele><time>2026-04-25T06:18:44Z</time></trkpt><trkpt lat="44.97469139520605" lon="9.991097017688944"><ele>42.0</ele><time>2026-04-25T06:18:45Z</time></trkpt><trkpt lat="44.97461646500104" lon="9.991055210567826"><ele>42.0</ele><time>2026-04-25T06:18:46Z</time></trkpt><trkpt lat="44.9745444756118" lon="9.991012973681025"><ele>42.0</ele><time>2026-04-25T06:18:47Z</time></trkpt><trkpt lat="44.97447054386744" lon="9.990971118271696"><ele>42.0</ele><time>2026-04-25T06:18:48Z</time></trkpt><trkpt lat="44.97439642401086" lon="9.99093502753889"><ele>42.0</ele><time>2026-04-25T06:18:49Z</time></trkpt><trkpt lat="44.97432211125632" lon="9.990893328924104"><ele>42.0</ele><time>2026-04-25T06:18:50Z</time></trkpt><trkpt lat="44.97424778928765" lon="9.990856460365224"><ele>42.0</ele><time>2026-04-25T06:18:51Z</time></trkpt><trkpt lat="44.97417414753823" lon="9.990816588897763"><ele>41.833333333333336</ele><time>2026-04-25T06:18:52Z</time></trkpt><trkpt lat="44.97409996134062" lon="9.99077808957679"><ele>41.666666666666664</ele><time>2026-04-25T06:18:53Z</time></trkpt><trkpt lat="44.974025435869216" lon="9.990739175774843"><ele>41.5</ele><time>2026-04-25T06:18:54Z</time></trkpt><trkpt lat="44.973951508094274" lon="9.990699102541827"><ele>41.33333333333333</ele><time>2026-04-25T06:18:55Z</time></trkpt><trkpt lat="44.97387706752376" lon="9.990658986468986"><ele>41.166666666666664</ele><time>2026-04-25T06:18:56Z</time></trkpt><trkpt lat="44.973801932117645" lon="9.990622548576432"><ele>41.0</ele><time>2026-04-25T06:18:57Z</time></trkpt><trkpt lat="44.97372582129052" lon="9.990583804267537"><ele>41.0</ele><time>2026-04-25T06:18:57.999Z</time></trkpt><trkpt lat="44.973649629982695" lon="9.990547356936462"><ele>41.0</ele><time>2026-04-25T06:18:58.999Z</time></trkpt><trkpt lat="44.97357394435894" lon="9.990510071763364"><ele>41.0</ele><time>2026-04-25T06:18:59.999Z</time></trkpt><trkpt lat="44.973498467486785" lon="9.99047234066318"><ele>41.0</ele><time>2026-04-25T06:19:00.999Z</time></trkpt><trkpt lat="44.97342426324795" lon="9.990434207019304"><ele>41.0</ele><time>2026-04-25T06:19:01.999Z</time></trkpt><trkpt lat="44.97334787464027" lon="9.990395937187444"><ele>41.0</ele><time>2026-04-25T06:19:02.999Z</time></trkpt><trkpt lat="44.97327178098206" lon="9.99036132396481"><ele>41.166666666666664</ele><time>2026-04-25T06:19:03.999Z</time></trkpt><trkpt lat="44.97319558172714" lon="9.990323685167922"><ele>41.33333333333333</ele><time>2026-04-25T06:19:04.999Z</time></trkpt><trkpt lat="44.973119424387825" lon="9.990287950861209"><ele>41.5</ele><time>2026-04-25T06:19:05.999Z</time></trkpt><trkpt lat="44.973044321489816" lon="9.990251315561133"><ele>41.666666666666664</ele><time>2026-04-25T06:19:06.999Z</time></trkpt><trkpt lat="44.97296811050996" lon="9.99021251451164"><ele>41.833333333333336</ele><time>2026-04-25T06:19:07.999Z</time></trkpt><trkpt lat="44.97289270040252" lon="9.990175214889396"><ele>42.0</ele><time>2026-04-25T06:19:08.999Z</time></trkpt><trkpt lat="44.97281768329664" lon="9.99013495576415"><ele>42.0</ele><time>2026-04-25T06:19:09.999Z</time></trkpt><trkpt lat="44.97274251766072" lon="9.990097118628917"><ele>42.0</ele><time>2026-04-25T06:19:10.999Z</time></trkpt><trkpt lat="44.97267025544652" lon="9.990054584808123"><ele>42.0</ele><time>2026-04-25T06:19:11.999Z</time></trkpt><trkpt lat="44.972598882771784" lon="9.990005876388615"><ele>42.0</ele><time>2026-04-25T06:19:12.999Z</time></trkpt><trkpt lat="44.97253821081795" lon="9.989929800835064"><ele>42.0</ele><time>2026-04-25T06:19:13.999Z</time></trkpt><trkpt lat="44.97246218092684" lon="9.989887565623555"><ele>42.0</ele><time>2026-04-25T06:19:14.999Z</time></trkpt><trkpt lat="44.972395572901064" lon="9.989823986260527"><ele>42.5</ele><time>2026-04-25T06:19:15.999Z</time></trkpt><trkpt lat="44.97232994310261" lon="9.989761242334831"><ele>43.0</ele><time>2026-04-25T06:19:16.999Z</time></trkpt><trkpt lat="44.97226262521883" lon="9.989697796594992"><ele>43.5</ele><time>2026-04-25T06:19:17.999Z</time></trkpt><trkpt lat="44.97219379346208" lon="9.989636931399081"><ele>44.0</ele><time>2026-04-25T06:19:18.999Z</time></trkpt><trkpt lat="44.97212582412423" lon="9.989578555520229"><ele>44.5</ele><time>2026-04-25T06:19:19.999Z</time></trkpt><trkpt lat="44.972056110914195" lon="9.989519102622118"><ele>45.0</ele><time>2026-04-25T06:19:20.999Z</time></trkpt><trkpt lat="44.97198857915448" lon="9.989455975771598"><ele>45.0</ele><time>2026-04-25T06:19:21.999Z</time></trkpt><trkpt lat="44.97191953716897" lon="9.989393490586346"><ele>45.0</ele><time>2026-04-25T06:19:22.999Z</time></trkpt><trkpt lat="44.97185136121887" lon="9.989337905600529"><ele>45.0</ele><time>2026-04-25T06:19:23.999Z</time></trkpt><trkpt lat="44.97178235247934" lon="9.989269321697522"><ele>45.0</ele><time>2026-04-25T06:19:24.999Z</time></trkpt><trkpt lat="44.97171411024969" lon="9.98920957181404"><ele>45.0</ele><time>2026-04-25T06:19:25.999Z</time></trkpt><trkpt lat="44.971646866003496" lon="9.989150265824458"><ele>45.0</ele><time>2026-04-25T06:19:26.999Z</time></trkpt><trkpt lat="44.971578903903094" lon="9.989090018445037"><ele>44.833333333333336</ele><time>2026-04-25T06:19:27.999Z</time></trkpt><trkpt lat="44.971512062958816" lon="9.989029602529117"><ele>44.666666666666664</ele><time>2026-04-25T06:19:28.999Z</time></trkpt><trkpt lat="44.97144613978429" lon="9.98896589217773"><ele>44.5</ele><time>2026-04-25T06:19:29.999Z</time></trkpt><trkpt lat="44.971379979408844" lon="9.988903039263313"><ele>44.33333333333333</ele><time>2026-04-25T06:19:30.999Z</time></trkpt><trkpt lat="44.97131376580701" lon="9.988844179841793"><ele>44.166666666666664</ele><time>2026-04-25T06:19:31.999Z</time></trkpt><trkpt lat="44.97124625173104" lon="9.98878452677852"><ele>44.0</ele><time>2026-04-25T06:19:32.999Z</time></trkpt><trkpt lat="44.9711799558898" lon="9.988726596128764"><ele>44.0</ele><time>2026-04-25T06:19:33.999Z</time></trkpt><trkpt lat="44.97111263393417" lon="9.988663941463892"><ele>44.0</ele><time>2026-04-25T06:19:34.999Z</time></trkpt><trkpt lat="44.971044994040945" lon="9.988605776695278"><ele>44.0</ele><time>2026-04-25T06:19:35.999Z</time></trkpt><trkpt lat="44.97097902253729" lon="9.988547380827296"><ele>44.0</ele><time>2026-04-25T06:19:36.999Z</time></trkpt><trkpt lat="44.970910572061115" lon="9.988488220530066"><ele>44.0</ele><time>2026-04-25T06:19:37.999Z</time></trkpt><trkpt lat="44.97084309903569" lon="9.988431832069008"><ele>44.0</ele><time>2026-04-25T06:19:38.999Z</time></trkpt><trkpt lat="44.970772889205" lon="9.98837558759191"><ele>44.0</ele><time>2026-04-25T06:19:39.999Z</time></trkpt><trkpt lat="44.970705119642545" lon="9.988318746427867"><ele>44.0</ele><time>2026-04-25T06:19:40.999Z</time></trkpt><trkpt lat="44.97063274598118" lon="9.988268808621397"><ele>44.0</ele><time>2026-04-25T06:19:41.999Z</time></trkpt><trkpt lat="44.970557622243966" lon="9.988225496580075"><ele>44.0</ele><time>2026-04-25T06:19:42.999Z</time></trkpt><trkpt lat="44.97048102351437" lon="9.98819165053154"><ele>44.0</ele><time>2026-04-25T06:19:43.999Z</time></trkpt><trkpt lat="44.970402856128246" lon="9.988163107492355"><ele>44.0</ele><time>2026-04-25T06:19:44.999Z</time></trkpt><trkpt lat="44.97032495837189" lon="9.988138370446974"><ele>44.0</ele><time>2026-04-25T06:19:45.999Z</time></trkpt><trkpt lat="44.970246978754325" lon="9.98811718973473"><ele>44.0</ele><time>2026-04-25T06:19:46.999Z</time></trkpt><trkpt lat="44.97016837831758" lon="9.988095581006782"><ele>44.0</ele><time>2026-04-25T06:19:47.999Z</time></trkpt><trkpt lat="44.97009069617828" lon="9.98807600825008"><ele>44.0</ele><time>2026-04-25T06:19:48.999Z</time></trkpt><trkpt lat="44.97001103087988" lon="9.988056411277679"><ele>44.0</ele><time>2026-04-25T06:19:49.999Z</time></trkpt><trkpt lat="44.96993471103278" lon="9.988041628931194"><ele>44.0</ele><time>2026-04-25T06:19:50.999Z</time></trkpt><trkpt lat="44.969854633950106" lon="9.988020334893335"><ele>44.33333333333333</ele><time>2026-04-25T06:19:51.998Z</time></trkpt><trkpt lat="44.96977564048685" lon="9.988009994839972"><ele>44.666666666666664</ele><time>2026-04-25T06:19:52.998Z</time></trkpt><trkpt lat="44.969696028054024" lon="9.988006656794184"><ele>45.0</ele><time>2026-04-25T06:19:53.998Z</time></trkpt><trkpt lat="44.969615825399195" lon="9.988010933756216"><ele>45.333333333333336</ele><time>2026-04-25T06:19:54.998Z</time></trkpt><trkpt lat="44.96953636852991" lon="9.988019568473693"><ele>45.66666666666667</ele><time>2026-04-25T06:19:55.998Z</time></trkpt><trkpt lat="44.969454998493504" lon="9.988034690296205"><ele>46.0</ele><time>2026-04-25T06:19:56.998Z</time></trkpt><trkpt lat="44.96937320032656" lon="9.988053316977124"><ele>46.0</ele><time>2026-04-25T06:19:57.998Z</time></trkpt><trkpt lat="44.96929468348939" lon="9.988069428261369"><ele>46.0</ele><time>2026-04-25T06:19:58.998Z</time></trkpt><trkpt lat="44.96921525161203" lon="9.988085020909624"><ele>46.0</ele><time>2026-04-25T06:20:00Z</time></trkpt><trkpt lat="44.969136575262404" lon="9.988099542876155"><ele>46.0</ele><time>2026-04-25T06:20:01Z</time></trkpt><trkpt lat="44.96905839214226" lon="9.988121927269455"><ele>46.0</ele><time>2026-04-25T06:20:02Z</time></trkpt><trkpt lat="44.96897640090898" lon="9.988138926057598"><ele>46.0</ele><time>2026-04-25T06:20:03Z</time></trkpt><trkpt lat="44.96889592363896" lon="9.988155256400852"><ele>46.0</ele><time>2026-04-25T06:20:04Z</time></trkpt><trkpt lat="44.968807663662474" lon="9.988175498266967"><ele>46.0</ele><time>2026-04-25T06:20:05Z</time></trkpt><trkpt lat="44.96873471619146" lon="9.988193638933028"><ele>46.0</ele><time>2026-04-25T06:20:06Z</time></trkpt><trkpt lat="44.968654271071266" lon="9.988210387969916"><ele>46.0</ele><time>2026-04-25T06:20:07Z</time></trkpt><trkpt lat="44.968575333787115" lon="9.988229720895221"><ele>46.0</ele><time>2026-04-25T06:20:08Z</time></trkpt><trkpt lat="44.968496514953024" lon="9.98824948186031"><ele>46.0</ele><time>2026-04-25T06:20:09Z</time></trkpt><trkpt lat="44.96841789580682" lon="9.988273676540718"><ele>45.833333333333336</ele><time>2026-04-25T06:20:10Z</time></trkpt><trkpt lat="44.96833673534636" lon="9.988296662476"><ele>45.66666666666667</ele><time>2026-04-25T06:20:11Z</time></trkpt><trkpt lat="44.968258562950254" lon="9.988318888041748"><ele>45.5</ele><time>2026-04-25T06:20:12Z</time></trkpt><trkpt lat="44.96817938375344" lon="9.988339648769083"><ele>45.333333333333336</ele><time>2026-04-25T06:20:13Z</time></trkpt><trkpt lat="44.96810028581129" lon="9.988361178335662"><ele>45.166666666666664</ele><time>2026-04-25T06:20:14Z</time></trkpt><trkpt lat="44.96802284571053" lon="9.988383041511797"><ele>45.0</ele><time>2026-04-25T06:20:15Z</time></trkpt><trkpt lat="44.967943848563685" lon="9.988402109095716"><ele>44.833333333333336</ele><time>2026-04-25T06:20:16Z</time></trkpt><trkpt lat="44.96786628945994" lon="9.988421489250767"><ele>44.666666666666664</ele><time>2026-04-25T06:20:17Z</time></trkpt><trkpt lat="44.96778728760918" lon="9.98844070542122"><ele>44.5</ele><time>2026-04-25T06:20:18Z</time></trkpt><trkpt lat="44.967708977390345" lon="9.988461496605455"><ele>44.33333333333333</ele><time>2026-04-25T06:20:19Z</time></trkpt><trkpt lat="44.967628965194244" lon="9.988483024576832"><ele>44.166666666666664</ele><time>2026-04-25T06:20:20Z</time></trkpt><trkpt lat="44.96754839962713" lon="9.98850209870621"><ele>44.0</ele><time>2026-04-25T06:20:21Z</time></trkpt><trkpt lat="44.9674699323615" lon="9.988525010932527"><ele>44.33333333333333</ele><time>2026-04-25T06:20:22Z</time></trkpt><trkpt lat="44.96738643619618" lon="9.9885431877694"><ele>44.666666666666664</ele><time>2026-04-25T06:20:23Z</time></trkpt><trkpt lat="44.967306916827994" lon="9.988564791416806"><ele>45.0</ele><time>2026-04-25T06:20:24Z</time></trkpt><trkpt lat="44.96722441630704" lon="9.988585281171797"><ele>45.333333333333336</ele><time>2026-04-25T06:20:25Z</time></trkpt><trkpt lat="44.96714319177541" lon="9.988605444139045"><ele>45.66666666666667</ele><time>2026-04-25T06:20:26Z</time></trkpt><trkpt lat="44.96706479248801" lon="9.988623845525092"><ele>46.0</ele><time>2026-04-25T06:20:27Z</time></trkpt><trkpt lat="44.96698398233337" lon="9.988643008301532"><ele>46.0</ele><time>2026-04-25T06:20:28Z</time></trkpt><trkpt lat="44.96690414258669" lon="9.98866339439053"><ele>46.0</ele><time>2026-04-25T06:20:29Z</time></trkpt><trkpt lat="44.9668252883829" lon="9.988681432146796"><ele>46.0</ele><time>2026-04-25T06:20:30Z</time></trkpt><trkpt lat="44.96674573058298" lon="9.988695877167437"><ele>46.0</ele><time>2026-04-25T06:20:31Z</time></trkpt><trkpt lat="44.966664242713136" lon="9.988714696742022"><ele>46.0</ele><time>2026-04-25T06:20:32Z</time></trkpt><trkpt lat="44.96658383328604" lon="9.988732682833799"><ele>46.0</ele><time>2026-04-25T06:20:33Z</time></trkpt><trkpt lat="44.966503836745275" lon="9.98875149420104"><ele>46.0</ele><time>2026-04-25T06:20:34Z</time></trkpt><trkpt lat="44.966423977344405" lon="9.988767230099166"><ele>46.0</ele><time>2026-04-25T06:20:35Z</time></trkpt><trkpt lat="44.96634106603759" lon="9.988784968058399"><ele>46.0</ele><time>2026-04-25T06:20:36Z</time></trkpt><trkpt lat="44.96626206998121" lon="9.988804287229543"><ele>46.0</ele><time>2026-04-25T06:20:37Z</time></trkpt><trkpt lat="44.96618026227845" lon="9.98882553182342"><ele>46.0</ele><time>2026-04-25T06:20:38Z</time></trkpt><trkpt lat="44.96609941111155" lon="9.988846449857068"><ele>46.0</ele><time>2026-04-25T06:20:39Z</time></trkpt><trkpt lat="44.96601733742378" lon="9.988872026036148"><ele>46.0</ele><time>2026-04-25T06:20:40Z</time></trkpt><trkpt lat="44.96593984759313" lon="9.988886190340281"><ele>46.0</ele><time>2026-04-25T06:20:41Z</time></trkpt><trkpt lat="44.96585737237875" lon="9.98890348939558"><ele>46.0</ele><time>2026-04-25T06:20:42Z</time></trkpt><trkpt lat="44.96577936736301" lon="9.988923013718845"><ele>46.0</ele><time>2026-04-25T06:20:43Z</time></trkpt><trkpt lat="44.965699687798896" lon="9.988946383794692"><ele>46.0</ele><time>2026-04-25T06:20:44Z</time></trkpt><trkpt lat="44.96561916694511" lon="9.988967610636179"><ele>46.0</ele><time>2026-04-25T06:20:45Z</time></trkpt><trkpt lat="44.965541663828496" lon="9.988987721329293"><ele>46.333333333333336</ele><time>2026-04-25T06:20:46Z</time></trkpt><trkpt lat="44.96546168734037" lon="9.989007314405436"><ele>46.66666666666667</ele><time>2026-04-25T06:20:47Z</time></trkpt><trkpt lat="44.96538479746179" lon="9.989029312723197"><ele>47.0</ele><time>2026-04-25T06:20:48Z</time></trkpt><trkpt lat="44.9653064206968" lon="9.989050947845996"><ele>47.333333333333336</ele><time>2026-04-25T06:20:49Z</time></trkpt><trkpt lat="44.965227401938975" lon="9.989067104721055"><ele>47.666666666666664</ele><time>2026-04-25T06:20:50Z</time></trkpt><trkpt lat="44.96514982488702" lon="9.989091472408168"><ele>48.0</ele><time>2026-04-25T06:20:51Z</time></trkpt><trkpt lat="44.96507895283569" lon="9.989144626671957"><ele>47.333333333333336</ele><time>2026-04-25T06:20:52Z</time></trkpt><trkpt lat="44.96501569675317" lon="9.989212930274384"><ele>46.666666666666664</ele><time>2026-04-25T06:20:53Z</time></trkpt><trkpt lat="44.96497449965221" lon="9.989317737246724"><ele>46.0</ele><time>2026-04-25T06:20:54Z</time></trkpt><trkpt lat="44.96494208716468" lon="9.989419249103598"><ele>45.33333333333333</ele><time>2026-04-25T06:20:55Z</time></trkpt><trkpt lat="44.96490722510889" lon="9.989526015716347"><ele>44.666666666666664</ele><time>2026-04-25T06:20:56Z</time></trkpt><trkpt lat="44.96487292710194" lon="9.989627619295645"><ele>44.0</ele><time>2026-04-25T06:20:57Z</time></trkpt><trkpt lat="44.96483586270815" lon="9.989727966393648"><ele>44.0</ele><time>2026-04-25T06:20:58Z</time></trkpt><trkpt lat="44.96479928795474" lon="9.989826447028834"><ele>44.0</ele><time>2026-04-25T06:20:59Z</time></trkpt><trkpt lat="44.9647617370761" lon="9.98992673021801"><ele>44.0</ele><time>2026-04-25T06:21:00Z</time></trkpt><trkpt lat="44.96472702210795" lon="9.990028279504163"><ele>44.0</ele><time>2026-04-25T06:21:01Z</time></trkpt><trkpt lat="44.96469211112643" lon="9.990126491225551"><ele>44.0</ele><time>2026-04-25T06:21:02Z</time></trkpt><trkpt lat="44.96465611517252" lon="9.990222760621867"><ele>44.0</ele><time>2026-04-25T06:21:02.999Z</time></trkpt><trkpt lat="44.9646102598344" lon="9.990310131627748"><ele>44.142857142857146</ele><time>2026-04-25T06:21:03.999Z</time></trkpt><trkpt lat="44.96454105725308" lon="9.990355382348037"><ele>44.285714285714285</ele><time>2026-04-25T06:21:04.999Z</time></trkpt><trkpt lat="44.964461315004016" lon="9.990352341735424"><ele>44.42857142857143</ele><time>2026-04-25T06:21:05.999Z</time></trkpt><trkpt lat="44.964390667384535" lon="9.990300051717888"><ele>44.57142857142857</ele><time>2026-04-25T06:21:06.999Z</time></trkpt><trkpt lat="44.964329127791665" lon="9.990259203669273"><ele>44.714285714285715</ele><time>2026-04-25T06:21:07.999Z</time></trkpt><trkpt lat="44.964274492521604" lon="9.990209757640956"><ele>44.857142857142854</ele><time>2026-04-25T06:21:08.999Z</time></trkpt><trkpt lat="44.96422211556825" lon="9.99015814624297"><ele>45.0</ele><time>2026-04-25T06:21:09.999Z</time></trkpt><trkpt lat="44.96416541209638" lon="9.990105787314826"><ele>44.714285714285715</ele><time>2026-04-25T06:21:10.999Z</time></trkpt><trkpt lat="44.96410849414159" lon="9.990054723307104"><ele>44.42857142857143</ele><time>2026-04-25T06:21:11.999Z</time></trkpt><trkpt lat="44.96405178593753" lon="9.9900070015842"><ele>44.142857142857146</ele><time>2026-04-25T06:21:12.999Z</time></trkpt><trkpt lat="44.96399545917641" lon="9.989961062445948"><ele>43.85714285714286</ele><time>2026-04-25T06:21:13.999Z</time></trkpt><trkpt lat="44.96393737039532" lon="9.989913776721483"><ele>43.57142857142857</ele><time>2026-04-25T06:21:14.999Z</time></trkpt><trkpt lat="44.963881714336715" lon="9.989864964570305"><ele>43.28571428571429</ele><time>2026-04-25T06:21:15.999Z</time></trkpt><trkpt lat="44.96382657808837" lon="9.989819740932623"><ele>43.0</ele><time>2026-04-25T06:21:16.999Z</time></trkpt><trkpt lat="44.96376957271215" lon="9.989774710654382"><ele>43.00000000000001</ele><time>2026-04-25T06:21:17.999Z</time></trkpt><trkpt lat="44.96372281097907" lon="9.9897011544488"><ele>43.0</ele><time>2026-04-25T06:21:18.999Z</time></trkpt><trkpt lat="44.96366534741777" lon="9.98965375364368"><ele>43.0</ele><time>2026-04-25T06:21:19.999Z</time></trkpt><trkpt lat="44.96360715326693" lon="9.98960634460381"><ele>43.0</ele><time>2026-04-25T06:21:20.999Z</time></trkpt><trkpt lat="44.96354876881001" lon="9.989558780545584"><ele>43.0</ele><time>2026-04-25T06:21:21.999Z</time></trkpt><trkpt lat="44.963489362812744" lon="9.989510384386152"><ele>43.00000000000001</ele><time>2026-04-25T06:21:22.999Z</time></trkpt><trkpt lat="44.96342883370885" lon="9.989461072940575"><ele>43.0</ele><time>2026-04-25T06:21:23.999Z</time></trkpt><trkpt lat="44.963369936296516" lon="9.989413091233816"><ele>43.28571428571429</ele><time>2026-04-25T06:21:24.999Z</time></trkpt><trkpt lat="44.963310128936754" lon="9.989364367960748"><ele>43.57142857142857</ele><time>2026-04-25T06:21:25.999Z</time></trkpt><trkpt lat="44.963250818462136" lon="9.98931604949958"><ele>43.85714285714286</ele><time>2026-04-25T06:21:26.999Z</time></trkpt><trkpt lat="44.96319015274484" lon="9.989266627029956"><ele>44.142857142857146</ele><time>2026-04-25T06:21:27.999Z</time></trkpt><trkpt lat="44.9631294042575" lon="9.98921670531609"><ele>44.42857142857143</ele><time>2026-04-25T06:21:28.999Z</time></trkpt><trkpt lat="44.96306809014183" lon="9.989166281038763"><ele>44.714285714285715</ele><time>2026-04-25T06:21:29.999Z</time></trkpt><trkpt lat="44.96299944921648" lon="9.9891316773948"><ele>45.0</ele><time>2026-04-25T06:21:30.999Z</time></trkpt><trkpt lat="44.96293414330481" lon="9.9890742181002"><ele>45.0</ele><time>2026-04-25T06:21:31.999Z</time></trkpt><trkpt lat="44.96286794303168" lon="9.989017877815568"><ele>45.0</ele><time>2026-04-25T06:21:32.999Z</time></trkpt><trkpt lat="44.96279780503937" lon="9.988960414752396"><ele>45.0</ele><time>2026-04-25T06:21:33.999Z</time></trkpt><trkpt lat="44.96272786541073" lon="9.9889051314919"><ele>45.0</ele><time>2026-04-25T06:21:34.999Z</time></trkpt><trkpt lat="44.96265712675319" lon="9.98884872884004"><ele>45.0</ele><time>2026-04-25T06:21:35.999Z</time></trkpt><trkpt lat="44.96258563690971" lon="9.988791136007052"><ele>45.0</ele><time>2026-04-25T06:21:36.999Z</time></trkpt><trkpt lat="44.962514625987126" lon="9.988735758656272"><ele>45.166666666666664</ele><time>2026-04-25T06:21:37.999Z</time></trkpt><trkpt lat="44.96244370511584" lon="9.988675360635368"><ele>45.333333333333336</ele><time>2026-04-25T06:21:38.999Z</time></trkpt><trkpt lat="44.96237332651525" lon="9.988617072476266"><ele>45.5</ele><time>2026-04-25T06:21:39.999Z</time></trkpt><trkpt lat="44.96230214687468" lon="9.988557915831578"><ele>45.66666666666667</ele><time>2026-04-25T06:21:40.999Z</time></trkpt><trkpt lat="44.96223065790416" lon="9.988499561313963"><ele>45.833333333333336</ele><time>2026-04-25T06:21:41.999Z</time></trkpt><trkpt lat="44.9621607998071" lon="9.988441947950218"><ele>46.0</ele><time>2026-04-25T06:21:42.999Z</time></trkpt><trkpt lat="44.96208939910416" lon="9.988385666858306"><ele>45.833333333333336</ele><time>2026-04-25T06:21:43.999Z</time></trkpt><trkpt lat="44.96202207739045" lon="9.98832779890662"><ele>45.66666666666667</ele><time>2026-04-25T06:21:44.999Z</time></trkpt><trkpt lat="44.961954066478796" lon="9.988272273523098"><ele>45.5</ele><time>2026-04-25T06:21:45.999Z</time></trkpt><trkpt lat="44.96188560321896" lon="9.98821688266869"><ele>45.333333333333336</ele><time>2026-04-25T06:21:46.999Z</time></trkpt><trkpt lat="44.96181717235375" lon="9.98816121862852"><ele>45.166666666666664</ele><time>2026-04-25T06:21:47.999Z</time></trkpt><trkpt lat="44.961748796932575" lon="9.98810242739405"><ele>45.0</ele><time>2026-04-25T06:21:48.999Z</time></trkpt><trkpt lat="44.9616792610253" lon="9.988045372159599"><ele>45.0</ele><time>2026-04-25T06:21:49.999Z</time></trkpt><trkpt lat="44.96161057153198" lon="9.98798856738059"><ele>45.0</ele><time>2026-04-25T06:21:50.999Z</time></trkpt><trkpt lat="44.961538459475065" lon="9.987928744293624"><ele>45.0</ele><time>2026-04-25T06:21:51.999Z</time></trkpt><trkpt lat="44.96146793878336" lon="9.98787475694803"><ele>45.0</ele><time>2026-04-25T06:21:52.999Z</time></trkpt><trkpt lat="44.96139824779374" lon="9.987814132416988"><ele>45.0</ele><time>2026-04-25T06:21:53.999Z</time></trkpt><trkpt lat="44.961329936133595" lon="9.987759001341459"><ele>45.0</ele><time>2026-04-25T06:21:54.999Z</time></trkpt><trkpt lat="44.96126265313841" lon="9.987702100395497"><ele>45.0</ele><time>2026-04-25T06:21:55.999Z</time></trkpt><trkpt lat="44.96119513896273" lon="9.987646143958257"><ele>45.0</ele><time>2026-04-25T06:21:56.998Z</time></trkpt><trkpt lat="44.96112454898439" lon="9.987589078997415"><ele>45.0</ele><time>2026-04-25T06:21:57.998Z</time></trkpt><trkpt lat="44.96105653416125" lon="9.987531147176007"><ele>45.0</ele><time>2026-04-25T06:21:58.998Z</time></trkpt><trkpt lat="44.96098333121871" lon="9.987474157209373"><ele>45.0</ele><time>2026-04-25T06:21:59.998Z</time></trkpt><trkpt lat="44.960912680561634" lon="9.987418886900441"><ele>45.0</ele><time>2026-04-25T06:22:00.998Z</time></trkpt><trkpt lat="44.96084247335614" lon="9.987361913996816"><ele>44.666666666666664</ele><time>2026-04-25T06:22:01.998Z</time></trkpt><trkpt lat="44.96077562435148" lon="9.987305876467477"><ele>44.333333333333336</ele><time>2026-04-25T06:22:02.998Z</time></trkpt><trkpt lat="44.960709541670866" lon="9.987250685520946"><ele>44.0</ele><time>2026-04-25T06:22:03.998Z</time></trkpt><trkpt lat="44.960644918307175" lon="9.987196438479202"><ele>43.66666666666667</ele><time>2026-04-25T06:22:04.998Z</time></trkpt><trkpt lat="44.96057812412583" lon="9.987140010819141"><ele>43.333333333333336</ele><time>2026-04-25T06:22:06Z</time></trkpt><trkpt lat="44.960512091644496" lon="9.987083806924158"><ele>43.0</ele><time>2026-04-25T06:22:07Z</time></trkpt><trkpt lat="44.96044418204054" lon="9.987030217350302"><ele>43.0</ele><time>2026-04-25T06:22:08Z</time></trkpt><trkpt lat="44.96037558456862" lon="9.986975460976165"><ele>43.0</ele><time>2026-04-25T06:22:09Z</time></trkpt><trkpt lat="44.960309148538464" lon="9.986922347314987"><ele>43.0</ele><time>2026-04-25T06:22:10Z</time></trkpt><trkpt lat="44.960243073231794" lon="9.986866959228037"><ele>43.0</ele><time>2026-04-25T06:22:11Z</time></trkpt><trkpt lat="44.96017898800014" lon="9.986811427040065"><ele>43.0</ele><time>2026-04-25T06:22:12Z</time></trkpt><trkpt lat="44.96011267062469" lon="9.986757314871431"><ele>43.0</ele><time>2026-04-25T06:22:13Z</time></trkpt><trkpt lat="44.96004506972549" lon="9.98670375662112"><ele>43.333333333333336</ele><time>2026-04-25T06:22:14Z</time></trkpt><trkpt lat="44.95997778323572" lon="9.986649884694854"><ele>43.66666666666667</ele><time>2026-04-25T06:22:15Z</time></trkpt><trkpt lat="44.95991063420039" lon="9.986597911695121"><ele>44.0</ele><time>2026-04-25T06:22:16Z</time></trkpt><trkpt lat="44.95984277117316" lon="9.986543958473323"><ele>44.333333333333336</ele><time>2026-04-25T06:22:17Z</time></trkpt><trkpt lat="44.95977430419599" lon="9.986487187216836"><ele>44.666666666666664</ele><time>2026-04-25T06:22:18Z</time></trkpt><trkpt lat="44.95970642394254" lon="9.986431839524458"><ele>45.0</ele><time>2026-04-25T06:22:19Z</time></trkpt><trkpt lat="44.959641102572526" lon="9.986375704937092"><ele>45.0</ele><time>2026-04-25T06:22:20Z</time></trkpt><trkpt lat="44.959572455954124" lon="9.98632164817279"><ele>45.0</ele><time>2026-04-25T06:22:21Z</time></trkpt><trkpt lat="44.959504838103435" lon="9.986268046190546"><ele>45.0</ele><time>2026-04-25T06:22:22Z</time></trkpt><trkpt lat="44.959439263338005" lon="9.98621219964381"><ele>45.0</ele><time>2026-04-25T06:22:23Z</time></trkpt><trkpt lat="44.95937254735023" lon="9.986156505981038"><ele>45.0</ele><time>2026-04-25T06:22:24Z</time></trkpt><trkpt lat="44.95930320300236" lon="9.986103916920749"><ele>45.0</ele><time>2026-04-25T06:22:25Z</time></trkpt><trkpt lat="44.959238282159646" lon="9.986049875880914"><ele>45.166666666666664</ele><time>2026-04-25T06:22:26Z</time></trkpt><trkpt lat="44.959170997805316" lon="9.985993404954208"><ele>45.333333333333336</ele><time>2026-04-25T06:22:27Z</time></trkpt><trkpt lat="44.95910274670834" lon="9.98594086625874"><ele>45.5</ele><time>2026-04-25T06:22:28Z</time></trkpt><trkpt lat="44.959038086655845" lon="9.98588445292916"><ele>45.66666666666667</ele><time>2026-04-25T06:22:29Z</time></trkpt><trkpt lat="44.95897259851385" lon="9.985827248180279"><ele>45.833333333333336</ele><time>2026-04-25T06:22:30Z</time></trkpt><trkpt lat="44.95890544845895" lon="9.985772853442912"><ele>46.0</ele><time>2026-04-25T06:22:31Z</time></trkpt><trkpt lat="44.95883631988904" lon="9.985721200323255"><ele>46.0</ele><time>2026-04-25T06:22:32Z</time></trkpt><trkpt lat="44.958768535759546" lon="9.985671166204451"><ele>46.0</ele><time>2026-04-25T06:22:33Z</time></trkpt><trkpt lat="44.958700317948505" lon="9.985614371473739"><ele>46.0</ele><time>2026-04-25T06:22:34Z</time></trkpt><trkpt lat="44.95863258080858" lon="9.985561789505386"><ele>46.0</ele><time>2026-04-25T06:22:35Z</time></trkpt><trkpt lat="44.958565628478695" lon="9.985506523387361"><ele>46.0</ele><time>2026-04-25T06:22:36Z</time></trkpt><trkpt lat="44.95849913370048" lon="9.98545295185354"><ele>46.0</ele><time>2026-04-25T06:22:37Z</time></trkpt><trkpt lat="44.95843194470308" lon="9.985399208707241"><ele>46.333333333333336</ele><time>2026-04-25T06:22:38Z</time></trkpt><trkpt lat="44.958364071402315" lon="9.98534538220094"><ele>46.66666666666667</ele><time>2026-04-25T06:22:39Z</time></trkpt><trkpt lat="44.95829705043782" lon="9.985290167385157"><ele>47.0</ele><time>2026-04-25T06:22:40Z</time></trkpt><trkpt lat="44.95822851427145" lon="9.98523711331747"><ele>47.333333333333336</ele><time>2026-04-25T06:22:41Z</time></trkpt><trkpt lat="44.958160755092216" lon="9.985183889810264"><ele>47.666666666666664</ele><time>2026-04-25T06:22:42Z</time></trkpt><trkpt lat="44.958092412655205" lon="9.985129925655276"><ele>48.0</ele><time>2026-04-25T06:22:43Z</time></trkpt><trkpt lat="44.95802544889055" lon="9.98507878560308"><ele>48.0</ele><time>2026-04-25T06:22:44Z</time></trkpt><trkpt lat="44.95795862081678" lon="9.985025579371507"><ele>48.0</ele><time>2026-04-25T06:22:45Z</time></trkpt><trkpt lat="44.95789158024293" lon="9.984972719426212"><ele>48.0</ele><time>2026-04-25T06:22:46Z</time></trkpt><trkpt lat="44.95782437445427" lon="9.98492361293355"><ele>48.0</ele><time>2026-04-25T06:22:47Z</time></trkpt><trkpt lat="44.95775644200268" lon="9.984869528588282"><ele>48.0</ele><time>2026-04-25T06:22:48Z</time></trkpt><trkpt lat="44.95769027856918" lon="9.984814928173943"><ele>48.0</ele><time>2026-04-25T06:22:49Z</time></trkpt><trkpt lat="44.95762373187534" lon="9.98476139799633"><ele>47.666666666666664</ele><time>2026-04-25T06:22:50Z</time></trkpt><trkpt lat="44.95755580179148" lon="9.984706278797255"><ele>47.333333333333336</ele><time>2026-04-25T06:22:51Z</time></trkpt><trkpt lat="44.95748948884199" lon="9.984651740276618"><ele>47.0</ele><time>2026-04-25T06:22:52Z</time></trkpt><trkpt lat="44.957420489579825" lon="9.984597155905917"><ele>46.66666666666667</ele><time>2026-04-25T06:22:53Z</time></trkpt><trkpt lat="44.95735368836431" lon="9.984544890160624"><ele>46.333333333333336</ele><time>2026-04-25T06:22:54Z</time></trkpt><trkpt lat="44.95728418640206" lon="9.98449105555749"><ele>46.0</ele><time>2026-04-25T06:22:55Z</time></trkpt><trkpt lat="44.957214591107395" lon="9.984439003629877"><ele>46.0</ele><time>2026-04-25T06:22:56Z</time></trkpt><trkpt lat="44.95714706636418" lon="9.984385627260362"><ele>46.0</ele><time>2026-04-25T06:22:57Z</time></trkpt><trkpt lat="44.957077522661855" lon="9.984330113278004"><ele>46.0</ele><time>2026-04-25T06:22:58Z</time></trkpt><trkpt lat="44.95700978639373" lon="9.98428006566424"><ele>46.0</ele><time>2026-04-25T06:22:59Z</time></trkpt><trkpt lat="44.956943508320236" lon="9.984226166838452"><ele>46.0</ele><time>2026-04-25T06:23:00Z</time></trkpt><trkpt lat="44.95687670931874" lon="9.984168703569924"><ele>46.0</ele><time>2026-04-25T06:23:01Z</time></trkpt><trkpt lat="44.956812774031725" lon="9.984119165449771"><ele>45.66666666666667</ele><time>2026-04-25T06:23:02Z</time></trkpt><trkpt lat="44.95674768077139" lon="9.984067506803513"><ele>45.333333333333336</ele><time>2026-04-25T06:23:03Z</time></trkpt><trkpt lat="44.95668268981783" lon="9.984017699339152"><ele>45.0</ele><time>2026-04-25T06:23:04Z</time></trkpt><trkpt lat="44.95662010795065" lon="9.983967309823225"><ele>44.666666666666664</ele><time>2026-04-25T06:23:05Z</time></trkpt><trkpt lat="44.95655653166523" lon="9.983914860664875"><ele>44.33333333333333</ele><time>2026-04-25T06:23:06Z</time></trkpt><trkpt lat="44.95648880748496" lon="9.983856551710089"><ele>44.0</ele><time>2026-04-25T06:23:06.999Z</time></trkpt><trkpt lat="44.95642339442631" lon="9.983798072263124"><ele>44.0</ele><time>2026-04-25T06:23:07.999Z</time></trkpt><trkpt lat="44.95635474225925" lon="9.983739514356353"><ele>44.0</ele><time>2026-04-25T06:23:08.999Z</time></trkpt><trkpt lat="44.95628586731201" lon="9.983681853157092"><ele>44.0</ele><time>2026-04-25T06:23:09.999Z</time></trkpt><trkpt lat="44.95621700705699" lon="9.983623574412594"><ele>44.0</ele><time>2026-04-25T06:23:10.999Z</time></trkpt><trkpt lat="44.95614753675115" lon="9.983564771473203"><ele>44.0</ele><time>2026-04-25T06:23:11.999Z</time></trkpt><trkpt lat="44.956080793786214" lon="9.983504606188278"><ele>44.0</ele><time>2026-04-25T06:23:12.999Z</time></trkpt><trkpt lat="44.95601253658499" lon="9.98344376956087"><ele>44.0</ele><time>2026-04-25T06:23:13.999Z</time></trkpt><trkpt lat="44.95594486116756" lon="9.983387339233044"><ele>44.0</ele><time>2026-04-25T06:23:14.999Z</time></trkpt><trkpt lat="44.95587598995351" lon="9.983330158449041"><ele>44.0</ele><time>2026-04-25T06:23:15.999Z</time></trkpt><trkpt lat="44.95580953107156" lon="9.983273452248126"><ele>44.0</ele><time>2026-04-25T06:23:16.999Z</time></trkpt><trkpt lat="44.9557383317453" lon="9.983214213746749"><ele>44.0</ele><time>2026-04-25T06:23:17.999Z</time></trkpt><trkpt lat="44.95566975371305" lon="9.983154691569206"><ele>44.0</ele><time>2026-04-25T06:23:18.999Z</time></trkpt><trkpt lat="44.9556039675607" lon="9.983097808761658"><ele>44.166666666666664</ele><time>2026-04-25T06:23:19.999Z</time></trkpt><trkpt lat="44.95553404583249" lon="9.983038905761948"><ele>44.33333333333333</ele><time>2026-04-25T06:23:20.999Z</time></trkpt><trkpt lat="44.95546825764985" lon="9.982979820445266"><ele>44.5</ele><time>2026-04-25T06:23:21.999Z</time></trkpt><trkpt lat="44.955399991321386" lon="9.982922145873772"><ele>44.666666666666664</ele><time>2026-04-25T06:23:22.999Z</time></trkpt><trkpt lat="44.95533308625682" lon="9.982864833074547"><ele>44.833333333333336</ele><time>2026-04-25T06:23:23.999Z</time></trkpt><trkpt lat="44.95526047020516" lon="9.982807720376616"><ele>45.0</ele><time>2026-04-25T06:23:24.999Z</time></trkpt><trkpt lat="44.95519264974793" lon="9.982748211756709"><ele>45.0</ele><time>2026-04-25T06:23:25.999Z</time></trkpt><trkpt lat="44.955123297542656" lon="9.982690195982764"><ele>45.0</ele><time>2026-04-25T06:23:26.999Z</time></trkpt><trkpt lat="44.95505552876741" lon="9.982630256393833"><ele>45.0</ele><time>2026-04-25T06:23:27.999Z</time></trkpt><trkpt lat="44.95498534294635" lon="9.982572191714677"><ele>45.0</ele><time>2026-04-25T06:23:28.999Z</time></trkpt><trkpt lat="44.95491837106066" lon="9.982511665700796"><ele>45.0</ele><time>2026-04-25T06:23:29.999Z</time></trkpt><trkpt lat="44.95485069958877" lon="9.982451733723167"><ele>45.0</ele><time>2026-04-25T06:23:30.999Z</time></trkpt><trkpt lat="44.95478417483214" lon="9.982392406851675"><ele>45.333333333333336</ele><time>2026-04-25T06:23:31.999Z</time></trkpt><trkpt lat="44.954713746659856" lon="9.982334612687428"><ele>45.666666666666664</ele><time>2026-04-25T06:23:32.999Z</time></trkpt><trkpt lat="44.954646077950585" lon="9.982278139515737"><ele>46.0</ele><time>2026-04-25T06:23:33.999Z</time></trkpt><trkpt lat="44.95457786034184" lon="9.982221997147754"><ele>46.33333333333333</ele><time>2026-04-25T06:23:34.999Z</time></trkpt><trkpt lat="44.95450719098148" lon="9.98216556766654"><ele>46.666666666666664</ele><time>2026-04-25T06:23:35.999Z</time></trkpt><trkpt lat="44.954437870499355" lon="9.98211019622155"><ele>47.0</ele><time>2026-04-25T06:23:36.999Z</time></trkpt><trkpt lat="44.95436862151997" lon="9.982058844007918"><ele>47.0</ele><time>2026-04-25T06:23:37.999Z</time></trkpt><trkpt lat="44.954297092834906" lon="9.98200267429542"><ele>47.0</ele><time>2026-04-25T06:23:38.999Z</time></trkpt><trkpt lat="44.95422583764109" lon="9.981947443110254"><ele>47.0</ele><time>2026-04-25T06:23:39.999Z</time></trkpt><trkpt lat="44.95415640623439" lon="9.981897286543647"><ele>47.0</ele><time>2026-04-25T06:23:40.999Z</time></trkpt><trkpt lat="44.95408469916133" lon="9.98184173443984"><ele>47.0</ele><time>2026-04-25T06:23:41.999Z</time></trkpt><trkpt lat="44.95401491639161" lon="9.981789460248173"><ele>47.0</ele><time>2026-04-25T06:23:42.999Z</time></trkpt><trkpt lat="44.953946017857795" lon="9.981736618231482"><ele>47.166666666666664</ele><time>2026-04-25T06:23:43.999Z</time></trkpt><trkpt lat="44.953875971318105" lon="9.981691173114225"><ele>47.33333333333333</ele><time>2026-04-25T06:23:44.999Z</time></trkpt><trkpt lat="44.9538037437903" lon="9.9816300289537"><ele>47.5</ele><time>2026-04-25T06:23:45.999Z</time></trkpt><trkpt lat="44.953733960796626" lon="9.981578536754393"><ele>47.666666666666664</ele><time>2026-04-25T06:23:46.999Z</time></trkpt><trkpt lat="44.95366601031351" lon="9.981523656793668"><ele>47.833333333333336</ele><time>2026-04-25T06:23:47.999Z</time></trkpt><trkpt lat="44.95359498037907" lon="9.981472394564161"><ele>48.0</ele><time>2026-04-25T06:23:48.999Z</time></trkpt><trkpt lat="44.953526948889724" lon="9.98141908949988"><ele>47.666666666666664</ele><time>2026-04-25T06:23:49.999Z</time></trkpt><trkpt lat="44.95345467556086" lon="9.981366442924"><ele>47.333333333333336</ele><time>2026-04-25T06:23:50.999Z</time></trkpt><trkpt lat="44.95338534614445" lon="9.981309616733958"><ele>47.0</ele><time>2026-04-25T06:23:51.999Z</time></trkpt><trkpt lat="44.95331533863583" lon="9.981255800640849"><ele>46.66666666666667</ele><time>2026-04-25T06:23:52.999Z</time></trkpt><trkpt lat="44.953245447156824" lon="9.981197979904707"><ele>46.333333333333336</ele><time>2026-04-25T06:23:53.999Z</time></trkpt><trkpt lat="44.953178470359994" lon="9.981141626871526"><ele>46.0</ele><time>2026-04-25T06:23:54.999Z</time></trkpt><trkpt lat="44.95310640791519" lon="9.98108491797591"><ele>46.0</ele><time>2026-04-25T06:23:55.999Z</time></trkpt><trkpt lat="44.95303670160319" lon="9.981034909358971"><ele>46.0</ele><time>2026-04-25T06:23:56.999Z</time></trkpt><trkpt lat="44.95296575829622" lon="9.980979246847005"><ele>46.0</ele><time>2026-04-25T06:23:57.999Z</time></trkpt><trkpt lat="44.952894742227485" lon="9.980921536487216"><ele>46.0</ele><time>2026-04-25T06:23:58.999Z</time></trkpt><trkpt lat="44.95282508895231" lon="9.98086481820057"><ele>46.0</ele><time>2026-04-25T06:23:59.999Z</time></trkpt><trkpt lat="44.95275243250181" lon="9.980805947677624"><ele>46.0</ele><time>2026-04-25T06:24:00.998Z</time></trkpt><trkpt lat="44.952681380845775" lon="9.980747559060028"><ele>46.0</ele><time>2026-04-25T06:24:01.998Z</time></trkpt><trkpt lat="44.95261034974473" lon="9.980689905477368"><ele>46.0</ele><time>2026-04-25T06:24:02.998Z</time></trkpt><trkpt lat="44.95254125371156" lon="9.980634126015207"><ele>46.0</ele><time>2026-04-25T06:24:03.998Z</time></trkpt><trkpt lat="44.952470804593" lon="9.98057735759242"><ele>46.0</ele><time>2026-04-25T06:24:04.998Z</time></trkpt><trkpt lat="44.95240404725784" lon="9.980523135265692"><ele>46.0</ele><time>2026-04-25T06:24:05.998Z</time></trkpt><trkpt lat="44.9523376953133" lon="9.980469300167666"><ele>46.0</ele><time>2026-04-25T06:24:06.998Z</time></trkpt><trkpt lat="44.95227162228902" lon="9.980415920347925"><ele>46.16666666666667</ele><time>2026-04-25T06:24:07.998Z</time></trkpt><trkpt lat="44.95220336023586" lon="9.980362522104269"><ele>46.333333333333336</ele><time>2026-04-25T06:24:08.998Z</time></trkpt><trkpt lat="44.95213478367425" lon="9.98030787995423"><ele>46.5</ele><time>2026-04-25T06:24:09.998Z</time></trkpt><trkpt lat="44.95206576335344" lon="9.98025400647628"><ele>46.666666666666664</ele><time>2026-04-25T06:24:10.998Z</time></trkpt><trkpt lat="44.951995036571134" lon="9.980195796028063"><ele>46.83333333333333</ele><time>2026-04-25T06:24:12Z</time></trkpt><trkpt lat="44.951926137453285" lon="9.980142421035245"><ele>47.0</ele><time>2026-04-25T06:24:13Z</time></trkpt><trkpt lat="44.95185564294625" lon="9.980085453031142"><ele>47.0</ele><time>2026-04-25T06:24:14Z</time></trkpt><trkpt lat="44.951787001153164" lon="9.980036418876123"><ele>47.0</ele><time>2026-04-25T06:24:15Z</time></trkpt><trkpt lat="44.951713629618354" lon="9.979980799684895"><ele>47.0</ele><time>2026-04-25T06:24:16Z</time></trkpt><trkpt lat="44.95164324462197" lon="9.979928392319817"><ele>47.0</ele><time>2026-04-25T06:24:17Z</time></trkpt><trkpt lat="44.95157306600698" lon="9.979872514927015"><ele>47.0</ele><time>2026-04-25T06:24:18Z</time></trkpt><trkpt lat="44.95150204326164" lon="9.979815924368618"><ele>47.0</ele><time>2026-04-25T06:24:19Z</time></trkpt><trkpt lat="44.95143049334014" lon="9.979762172108892"><ele>46.83333333333333</ele><time>2026-04-25T06:24:20Z</time></trkpt><trkpt lat="44.95135743292583" lon="9.979708698852352"><ele>46.666666666666664</ele><time>2026-04-25T06:24:21Z</time></trkpt><trkpt lat="44.95128415997141" lon="9.979660496299747"><ele>46.5</ele><time>2026-04-25T06:24:22Z</time></trkpt><trkpt lat="44.95120786682486" lon="9.97962591967391"><ele>46.333333333333336</ele><time>2026-04-25T06:24:23Z</time></trkpt><trkpt lat="44.9511306039065" lon="9.979606331437932"><ele>46.16666666666667</ele><time>2026-04-25T06:24:24Z</time></trkpt><trkpt lat="44.95105279369181" lon="9.979591800097626"><ele>46.0</ele><time>2026-04-25T06:24:25Z</time></trkpt><trkpt lat="44.95097315126032" lon="9.97958080937415"><ele>46.0</ele><time>2026-04-25T06:24:26Z</time></trkpt><trkpt lat="44.95089391997715" lon="9.979575371948645"><ele>46.0</ele><time>2026-04-25T06:24:27Z</time></trkpt><trkpt lat="44.95081399649841" lon="9.979575535780986"><ele>46.0</ele><time>2026-04-25T06:24:28Z</time></trkpt><trkpt lat="44.950734642779544" lon="9.979572751662932"><ele>46.0</ele><time>2026-04-25T06:24:29Z</time></trkpt><trkpt lat="44.95065228643643" lon="9.97957408329866"><ele>46.0</ele><time>2026-04-25T06:24:30Z</time></trkpt><trkpt lat="44.950572594555" lon="9.979552988159268"><ele>46.0</ele><time>2026-04-25T06:24:31Z</time></trkpt><trkpt lat="44.95049249135274" lon="9.97955150476714"><ele>45.833333333333336</ele><time>2026-04-25T06:24:32Z</time></trkpt><trkpt lat="44.95041319347484" lon="9.979572705732016"><ele>45.66666666666667</ele><time>2026-04-25T06:24:33Z</time></trkpt><trkpt lat="44.95033392436781" lon="9.979548568340952"><ele>45.5</ele><time>2026-04-25T06:24:34Z</time></trkpt><trkpt lat="44.95025268583633" lon="9.979547063924391"><ele>45.333333333333336</ele><time>2026-04-25T06:24:35Z</time></trkpt><trkpt lat="44.95017360300115" lon="9.979545599426789"><ele>45.166666666666664</ele><time>2026-04-25T06:24:36Z</time></trkpt><trkpt lat="44.95009381867536" lon="9.979567317059196"><ele>45.0</ele><time>2026-04-25T06:24:37Z</time></trkpt><trkpt lat="44.95001488939227" lon="9.979565520899104"><ele>45.0</ele><time>2026-04-25T06:24:38Z</time></trkpt><trkpt lat="44.94993716173404" lon="9.979562875666735"><ele>45.0</ele><time>2026-04-25T06:24:39Z</time></trkpt><trkpt lat="44.949861692582665" lon="9.979560087879914"><ele>45.0</ele><time>2026-04-25T06:24:40Z</time></trkpt><trkpt lat="44.94978847283835" lon="9.979558215375706"><ele>45.0</ele><time>2026-04-25T06:24:41Z</time></trkpt><trkpt lat="44.949721085808875" lon="9.979556919764327"><ele>45.0</ele><time>2026-04-25T06:24:42Z</time></trkpt><trkpt lat="44.94965479507246" lon="9.979552603696414"><ele>45.0</ele><time>2026-04-25T06:24:43Z</time></trkpt><trkpt lat="44.94958731251952" lon="9.979547106787203"><ele>45.0</ele><time>2026-04-25T06:24:44Z</time></trkpt><trkpt lat="44.949513805922216" lon="9.979547017834273"><ele>45.0</ele><time>2026-04-25T06:24:45Z</time></trkpt><trkpt lat="44.94944039315568" lon="9.979551154834915"><ele>45.0</ele><time>2026-04-25T06:24:46Z</time></trkpt><trkpt lat="44.94936564358732" lon="9.979555903488034"><ele>45.0</ele><time>2026-04-25T06:24:47Z</time></trkpt><trkpt lat="44.94929206712921" lon="9.979555180911595"><ele>45.0</ele><time>2026-04-25T06:24:48Z</time></trkpt><trkpt lat="44.94921397782074" lon="9.979553127259573"><ele>45.0</ele><time>2026-04-25T06:24:49Z</time></trkpt><trkpt lat="44.94913495762922" lon="9.979529189462186"><ele>45.0</ele><time>2026-04-25T06:24:50Z</time></trkpt><trkpt lat="44.94905878822507" lon="9.979527746993893"><ele>45.166666666666664</ele><time>2026-04-25T06:24:51Z</time></trkpt><trkpt lat="44.94898093363243" lon="9.979544149602"><ele>45.333333333333336</ele><time>2026-04-25T06:24:52Z</time></trkpt><trkpt lat="44.948903266387326" lon="9.979535195279436"><ele>45.5</ele><time>2026-04-25T06:24:53Z</time></trkpt><trkpt lat="44.94882474432155" lon="9.979518505422295"><ele>45.66666666666667</ele><time>2026-04-25T06:24:54Z</time></trkpt><trkpt lat="44.94875075835696" lon="9.979493771111288"><ele>45.833333333333336</ele><time>2026-04-25T06:24:55Z</time></trkpt><trkpt lat="44.9486781432879" lon="9.979462093108335"><ele>46.0</ele><time>2026-04-25T06:24:56Z</time></trkpt><trkpt lat="44.94860344283772" lon="9.979426387099897"><ele>46.0</ele><time>2026-04-25T06:24:57Z</time></trkpt><trkpt lat="44.94853117801236" lon="9.979388002055032"><ele>46.0</ele><time>2026-04-25T06:24:58Z</time></trkpt><trkpt lat="44.94845997279436" lon="9.979348656843632"><ele>46.0</ele><time>2026-04-25T06:24:59Z</time></trkpt><trkpt lat="44.948388899641095" lon="9.979314816479896"><ele>46.0</ele><time>2026-04-25T06:25:00Z</time></trkpt><trkpt lat="44.948323187454626" lon="9.97928303411368"><ele>46.0</ele><time>2026-04-25T06:25:01Z</time></trkpt><trkpt lat="44.948258806547386" lon="9.979248805926925"><ele>46.0</ele><time>2026-04-25T06:25:02Z</time></trkpt><trkpt lat="44.9481932613717" lon="9.9792149895406"><ele>46.0</ele><time>2026-04-25T06:25:03Z</time></trkpt><trkpt lat="44.94812922674816" lon="9.979176124741922"><ele>46.285714285714285</ele><time>2026-04-25T06:25:04Z</time></trkpt><trkpt lat="44.94806148714278" lon="9.979135863893916"><ele>46.57142857142857</ele><time>2026-04-25T06:25:05Z</time></trkpt><trkpt lat="44.94799213220354" lon="9.97909829367326"><ele>46.857142857142854</ele><time>2026-04-25T06:25:06Z</time></trkpt><trkpt lat="44.947922791717765" lon="9.979059765331426"><ele>47.14285714285714</ele><time>2026-04-25T06:25:07Z</time></trkpt><trkpt lat="44.947853099439854" lon="9.97902152669219"><ele>47.42857142857143</ele><time>2026-04-25T06:25:08Z</time></trkpt><trkpt lat="44.9477857318692" lon="9.978989000318359"><ele>47.71428571428571</ele><time>2026-04-25T06:25:09Z</time></trkpt><trkpt lat="44.9477173002965" lon="9.978952325473077"><ele>48.0</ele><time>2026-04-25T06:25:10Z</time></trkpt><trkpt lat="44.94764799803356" lon="9.978914435727116"><ele>48.0</ele><time>2026-04-25T06:25:10.999Z</time></trkpt><trkpt lat="44.94757847870042" lon="9.978876067218293"><ele>48.0</ele><time>2026-04-25T06:25:11.999Z</time></trkpt><trkpt lat="44.94750812998264" lon="9.978837935699671"><ele>48.0</ele><time>2026-04-25T06:25:12.999Z</time></trkpt><trkpt lat="44.947437327703604" lon="9.978799812319881"><ele>48.0</ele><time>2026-04-25T06:25:13.999Z</time></trkpt><trkpt lat="44.947367290345845" lon="9.978759171913863"><ele>48.0</ele><time>2026-04-25T06:25:14.999Z</time></trkpt><trkpt lat="44.94729550723496" lon="9.978720317894517"><ele>48.0</ele><time>2026-04-25T06:25:15.999Z</time></trkpt><trkpt lat="44.947221475557335" lon="9.978683284037091"><ele>48.0</ele><time>2026-04-25T06:25:16.999Z</time></trkpt><trkpt lat="44.94715143712128" lon="9.9786457975059"><ele>48.0</ele><time>2026-04-25T06:25:17.999Z</time></trkpt><trkpt lat="44.94708113627094" lon="9.978608659496345"><ele>48.0</ele><time>2026-04-25T06:25:18.999Z</time></trkpt><trkpt lat="44.94701044489886" lon="9.978570539137616"><ele>48.0</ele><time>2026-04-25T06:25:19.999Z</time></trkpt><trkpt lat="44.9469401930559" lon="9.978533265687814"><ele>48.0</ele><time>2026-04-25T06:25:20.999Z</time></trkpt><trkpt lat="44.94686878693222" lon="9.978494510517791"><ele>48.0</ele><time>2026-04-25T06:25:21.999Z</time></trkpt><trkpt lat="44.94679848893213" lon="9.97845696018334"><ele>48.0</ele><time>2026-04-25T06:25:22.999Z</time></trkpt><trkpt lat="44.94672685748918" lon="9.978417523162527"><ele>48.0</ele><time>2026-04-25T06:25:23.999Z</time></trkpt><trkpt lat="44.94665501712686" lon="9.978377569269181"><ele>48.0</ele><time>2026-04-25T06:25:24.999Z</time></trkpt><trkpt lat="44.94658243837106" lon="9.978337785907197"><ele>48.0</ele><time>2026-04-25T06:25:25.999Z</time></trkpt><trkpt lat="44.946508471540405" lon="9.978300319348191"><ele>48.0</ele><time>2026-04-25T06:25:26.999Z</time></trkpt><trkpt lat="44.946433740234546" lon="9.97826401121785"><ele>48.0</ele><time>2026-04-25T06:25:27.999Z</time></trkpt><trkpt lat="44.94636064775758" lon="9.978227983696021"><ele>48.0</ele><time>2026-04-25T06:25:28.999Z</time></trkpt><trkpt lat="44.94628710596793" lon="9.978188175815864"><ele>48.0</ele><time>2026-04-25T06:25:29.999Z</time></trkpt><trkpt lat="44.946215913836525" lon="9.978148036455602"><ele>48.0</ele><time>2026-04-25T06:25:30.999Z</time></trkpt><trkpt lat="44.94614251934665" lon="9.978105096767264"><ele>48.0</ele><time>2026-04-25T06:25:31.999Z</time></trkpt><trkpt lat="44.94607263162739" lon="9.978069928189557"><ele>48.0</ele><time>2026-04-25T06:25:32.999Z</time></trkpt><trkpt lat="44.946003084208755" lon="9.97802997417026"><ele>48.0</ele><time>2026-04-25T06:25:33.999Z</time></trkpt><trkpt lat="44.94593182140027" lon="9.977996438834744"><ele>48.333333333333336</ele><time>2026-04-25T06:25:34.999Z</time></trkpt><trkpt lat="44.9458640049892" lon="9.977959885546303"><ele>48.66666666666667</ele><time>2026-04-25T06:25:35.999Z</time></trkpt><trkpt lat="44.94579281462259" lon="9.977922375997274"><ele>49.0</ele><time>2026-04-25T06:25:36.999Z</time></trkpt><trkpt lat="44.945723966741404" lon="9.977881213858895"><ele>49.333333333333336</ele><time>2026-04-25T06:25:37.999Z</time></trkpt><trkpt lat="44.9456529867005" lon="9.977840810936728"><ele>49.66666666666667</ele><time>2026-04-25T06:25:38.999Z</time></trkpt><trkpt lat="44.94558098657236" lon="9.977801575482328"><ele>50.0</ele><time>2026-04-25T06:25:39.999Z</time></trkpt><trkpt lat="44.94550769873492" lon="9.977763636411137"><ele>50.00000000000001</ele><time>2026-04-25T06:25:40.999Z</time></trkpt><trkpt lat="44.94543585892564" lon="9.977726455050172"><ele>50.0</ele><time>2026-04-25T06:25:41.999Z</time></trkpt><trkpt lat="44.94536184351118" lon="9.977687432058643"><ele>50.0</ele><time>2026-04-25T06:25:42.999Z</time></trkpt><trkpt lat="44.945288758832504" lon="9.977649587850545"><ele>50.0</ele><time>2026-04-25T06:25:43.999Z</time></trkpt><trkpt lat="44.94521657388128" lon="9.977611716756256"><ele>50.00000000000001</ele><time>2026-04-25T06:25:44.999Z</time></trkpt><trkpt lat="44.94514461292521" lon="9.977572892777747"><ele>50.0</ele><time>2026-04-25T06:25:45.999Z</time></trkpt><trkpt lat="44.945073146442574" lon="9.977536550815355"><ele>50.00000000000001</ele><time>2026-04-25T06:25:46.999Z</time></trkpt><trkpt lat="44.94500057409572" lon="9.97749910582607"><ele>50.0</ele><time>2026-04-25T06:25:47.999Z</time></trkpt><trkpt lat="44.94493039018764" lon="9.977461987736278"><ele>50.0</ele><time>2026-04-25T06:25:48.999Z</time></trkpt><trkpt lat="44.94485699566009" lon="9.977423728011056"><ele>50.0</ele><time>2026-04-25T06:25:49.999Z</time></trkpt><trkpt lat="44.9447860122442" lon="9.977387218511609"><ele>50.00000000000001</ele><time>2026-04-25T06:25:50.999Z</time></trkpt><trkpt lat="44.944715831208164" lon="9.977349737193766"><ele>50.0</ele><time>2026-04-25T06:25:51.999Z</time></trkpt><trkpt lat="44.94464698082401" lon="9.97731529161172"><ele>50.00000000000001</ele><time>2026-04-25T06:25:52.999Z</time></trkpt><trkpt lat="44.94457865759993" lon="9.977280730253364"><ele>50.0</ele><time>2026-04-25T06:25:53.999Z</time></trkpt><trkpt lat="44.94451335724672" lon="9.977245485417177"><ele>50.0</ele><time>2026-04-25T06:25:54.999Z</time></trkpt><trkpt lat="44.94444814273506" lon="9.977209798305594"><ele>50.0</ele><time>2026-04-25T06:25:55.999Z</time></trkpt><trkpt lat="44.94437766078794" lon="9.977174366682817"><ele>50.0</ele><time>2026-04-25T06:25:56.999Z</time></trkpt><trkpt lat="44.944305625152886" lon="9.977139000348341"><ele>50.00000000000001</ele><time>2026-04-25T06:25:57.999Z</time></trkpt><trkpt lat="44.944234448729226" lon="9.977097748398826"><ele>50.0</ele><time>2026-04-25T06:25:58.999Z</time></trkpt><trkpt lat="44.94416044385285" lon="9.977058351942445"><ele>50.00000000000001</ele><time>2026-04-25T06:25:59.999Z</time></trkpt><trkpt lat="44.944089120521525" lon="9.977018818164916"><ele>50.0</ele><time>2026-04-25T06:26:00.999Z</time></trkpt><trkpt lat="44.94401498285347" lon="9.976978950978099"><ele>50.0</ele><time>2026-04-25T06:26:01.999Z</time></trkpt><trkpt lat="44.943941292809086" lon="9.97693803800491"><ele>50.0</ele><time>2026-04-25T06:26:02.999Z</time></trkpt><trkpt lat="44.94386863675585" lon="9.976899898812487"><ele>50.00000000000001</ele><time>2026-04-25T06:26:03.998Z</time></trkpt><trkpt lat="44.94379903847265" lon="9.976861491279305"><ele>50.0</ele><time>2026-04-25T06:26:04.998Z</time></trkpt><trkpt lat="44.94372949408729" lon="9.976822882473869"><ele>50.00000000000001</ele><time>2026-04-25T06:26:05.998Z</time></trkpt><trkpt lat="44.94365974356513" lon="9.976786822467973"><ele>50.0</ele><time>2026-04-25T06:26:06.998Z</time></trkpt><trkpt lat="44.94358905032103" lon="9.976751005982958"><ele>50.0</ele><time>2026-04-25T06:26:07.998Z</time></trkpt><trkpt lat="44.94351849728203" lon="9.976712757784428"><ele>50.0</ele><time>2026-04-25T06:26:08.998Z</time></trkpt><trkpt lat="44.94344878378612" lon="9.976675985898273"><ele>50.0</ele><time>2026-04-25T06:26:09.998Z</time></trkpt><trkpt lat="44.94337885731824" lon="9.976639286344849"><ele>50.00000000000001</ele><time>2026-04-25T06:26:10.998Z</time></trkpt><trkpt lat="44.94331027653692" lon="9.976602897861097"><ele>50.0</ele><time>2026-04-25T06:26:11.998Z</time></trkpt><trkpt lat="44.943241585878376" lon="9.976567066363216"><ele>49.57142857142858</ele><time>2026-04-25T06:26:12.998Z</time></trkpt><trkpt lat="44.943172575163615" lon="9.976533434909198"><ele>49.142857142857146</ele><time>2026-04-25T06:26:13.998Z</time></trkpt><trkpt lat="44.94310593927466" lon="9.976497247999601"><ele>48.714285714285715</ele><time>2026-04-25T06:26:14.998Z</time></trkpt><trkpt lat="44.943040379418214" lon="9.97646006989762"><ele>48.28571428571429</ele><time>2026-04-25T06:26:15.998Z</time></trkpt><trkpt lat="44.94297683169654" lon="9.976422292898283"><ele>47.857142857142854</ele><time>2026-04-25T06:26:16.998Z</time></trkpt><trkpt lat="44.94291300049972" lon="9.976386969384087"><ele>47.42857142857143</ele><time>2026-04-25T06:26:18Z</time></trkpt><trkpt lat="44.9428497741349" lon="9.976353014129621"><ele>47.0</ele><time>2026-04-25T06:26:19Z</time></trkpt><trkpt lat="44.942788124008686" lon="9.976319905095487"><ele>47.0</ele><time>2026-04-25T06:26:20Z</time></trkpt><trkpt lat="44.94267145260622" lon="9.976259003065719"><ele>47.0</ele><time>2026-04-25T06:26:22Z</time></trkpt><trkpt lat="44.94260872775531" lon="9.976227912349628"><ele>47.0</ele><time>2026-04-25T06:26:23Z</time></trkpt><trkpt lat="44.94254216295307" lon="9.976195169737071"><ele>47.0</ele><time>2026-04-25T06:26:24Z</time></trkpt><trkpt lat="44.94247690070504" lon="9.976161532218104"><ele>47.0</ele><time>2026-04-25T06:26:25Z</time></trkpt><trkpt lat="44.942406654827074" lon="9.976127647851227"><ele>47.0</ele><time>2026-04-25T06:26:26Z</time></trkpt><trkpt lat="44.94233449346595" lon="9.976094266183447"><ele>46.83333333333333</ele><time>2026-04-25T06:26:27Z</time></trkpt><trkpt lat="44.94226149634265" lon="9.976057902161907"><ele>46.666666666666664</ele><time>2026-04-25T06:26:28Z</time></trkpt><trkpt lat="44.9421880249844" lon="9.976019103704834"><ele>46.5</ele><time>2026-04-25T06:26:29Z</time></trkpt><trkpt lat="44.94211129119937" lon="9.975977535323501"><ele>46.333333333333336</ele><time>2026-04-25T06:26:30Z</time></trkpt><trkpt lat="44.94203375662435" lon="9.975937183576177"><ele>46.16666666666667</ele><time>2026-04-25T06:26:31Z</time></trkpt><trkpt lat="44.94195349678454" lon="9.975894164232528"><ele>46.0</ele><time>2026-04-25T06:26:32Z</time></trkpt><trkpt lat="44.941871964443735" lon="9.975852293214711"><ele>46.0</ele><time>2026-04-25T06:26:33Z</time></trkpt><trkpt lat="44.94178958381163" lon="9.975810538928332"><ele>46.0</ele><time>2026-04-25T06:26:34Z</time></trkpt><trkpt lat="44.94170939634374" lon="9.975769357811558"><ele>46.0</ele><time>2026-04-25T06:26:35Z</time></trkpt><trkpt lat="44.941632622175604" lon="9.975728388817725"><ele>46.0</ele><time>2026-04-25T06:26:36Z</time></trkpt><trkpt lat="44.94155743559768" lon="9.975687849665485"><ele>46.0</ele><time>2026-04-25T06:26:37Z</time></trkpt><trkpt lat="44.94148405743065" lon="9.975648601015637"><ele>46.0</ele><time>2026-04-25T06:26:38Z</time></trkpt><trkpt lat="44.94141186696702" lon="9.975608870961302"><ele>45.85714285714286</ele><time>2026-04-25T06:26:39Z</time></trkpt><trkpt lat="44.94134098508066" lon="9.975569543507023"><ele>45.71428571428571</ele><time>2026-04-25T06:26:40Z</time></trkpt><trkpt lat="44.94127218856101" lon="9.975530693344044"><ele>45.57142857142857</ele><time>2026-04-25T06:26:41Z</time></trkpt><trkpt lat="44.94120412086893" lon="9.975493064228317"><ele>45.42857142857143</ele><time>2026-04-25T06:26:42Z</time></trkpt><trkpt lat="44.94113708780047" lon="9.975459190525685"><ele>45.28571428571429</ele><time>2026-04-25T06:26:43Z</time></trkpt><trkpt lat="44.94107017468997" lon="9.975424903260281"><ele>45.14285714285714</ele><time>2026-04-25T06:26:44Z</time></trkpt><trkpt lat="44.94100447531368" lon="9.975390471690185"><ele>45.0</ele><time>2026-04-25T06:26:45Z</time></trkpt><trkpt lat="44.940937218850124" lon="9.975354163061084"><ele>45.5</ele><time>2026-04-25T06:26:46Z</time></trkpt><trkpt lat="44.940865075408645" lon="9.975318756038083"><ele>46.0</ele><time>2026-04-25T06:26:47Z</time></trkpt><trkpt lat="44.94079524633866" lon="9.975287133580546"><ele>46.5</ele><time>2026-04-25T06:26:48Z</time></trkpt><trkpt lat="44.94073177450119" lon="9.975231656458606"><ele>47.0</ele><time>2026-04-25T06:26:49Z</time></trkpt><trkpt lat="44.940662426615404" lon="9.975195489483346"><ele>47.5</ele><time>2026-04-25T06:26:50Z</time></trkpt><trkpt lat="44.94058638869905" lon="9.975180127355227"><ele>48.0</ele><time>2026-04-25T06:26:51Z</time></trkpt><trkpt lat="44.94051619714886" lon="9.975140154436394"><ele>48.0</ele><time>2026-04-25T06:26:52Z</time></trkpt><trkpt lat="44.94044306463374" lon="9.975099953659754"><ele>48.0</ele><time>2026-04-25T06:26:53Z</time></trkpt><trkpt lat="44.940372140706316" lon="9.975063348452231"><ele>48.0</ele><time>2026-04-25T06:26:54Z</time></trkpt><trkpt lat="44.94030180597158" lon="9.975019015164115"><ele>48.0</ele><time>2026-04-25T06:26:55Z</time></trkpt><trkpt lat="44.94022963219198" lon="9.974977538136061"><ele>48.0</ele><time>2026-04-25T06:26:56Z</time></trkpt><trkpt lat="44.94015735403981" lon="9.974943164177011"><ele>48.0</ele><time>2026-04-25T06:26:57Z</time></trkpt><trkpt lat="44.94008575642856" lon="9.97490619867031"><ele>47.833333333333336</ele><time>2026-04-25T06:26:58Z</time></trkpt><trkpt lat="44.9400150295864" lon="9.974868567478092"><ele>47.666666666666664</ele><time>2026-04-25T06:26:59Z</time></trkpt><trkpt lat="44.939943420582075" lon="9.974835427117835"><ele>47.5</ele><time>2026-04-25T06:27:00Z</time></trkpt><trkpt lat="44.93987125452277" lon="9.974803795575513"><ele>47.33333333333333</ele><time>2026-04-25T06:27:01Z</time></trkpt><trkpt lat="44.939801292527434" lon="9.974768001491805"><ele>47.166666666666664</ele><time>2026-04-25T06:27:02Z</time></trkpt><trkpt lat="44.93973028228944" lon="9.974729329950001"><ele>47.0</ele><time>2026-04-25T06:27:03Z</time></trkpt><trkpt lat="44.939658059930046" lon="9.97469668631854"><ele>47.0</ele><time>2026-04-25T06:27:04Z</time></trkpt><trkpt lat="44.93958586398949" lon="9.974660757115364"><ele>47.0</ele><time>2026-04-25T06:27:05Z</time></trkpt><trkpt lat="44.939514940039665" lon="9.974623008117806"><ele>47.0</ele><time>2026-04-25T06:27:06Z</time></trkpt><trkpt lat="44.93944254149275" lon="9.974588024278196"><ele>47.0</ele><time>2026-04-25T06:27:07Z</time></trkpt><trkpt lat="44.9393695946229" lon="9.974552741760291"><ele>47.0</ele><time>2026-04-25T06:27:08Z</time></trkpt><trkpt lat="44.93929603467579" lon="9.974517388401352"><ele>47.0</ele><time>2026-04-25T06:27:09Z</time></trkpt><trkpt lat="44.9392232396431" lon="9.974482662441499"><ele>47.166666666666664</ele><time>2026-04-25T06:27:10Z</time></trkpt><trkpt lat="44.93915115748651" lon="9.97444615650838"><ele>47.33333333333333</ele><time>2026-04-25T06:27:11Z</time></trkpt><trkpt lat="44.93907820357751" lon="9.974410395167101"><ele>47.5</ele><time>2026-04-25T06:27:12Z</time></trkpt><trkpt lat="44.93900435817197" lon="9.97437408288105"><ele>47.666666666666664</ele><time>2026-04-25T06:27:13Z</time></trkpt><trkpt lat="44.93893093608998" lon="9.974339108063507"><ele>47.833333333333336</ele><time>2026-04-25T06:27:13.999Z</time></trkpt><trkpt lat="44.93885825799742" lon="9.974304037981117"><ele>48.0</ele><time>2026-04-25T06:27:14.999Z</time></trkpt><trkpt lat="44.93878647989511" lon="9.974267287739952"><ele>48.0</ele><time>2026-04-25T06:27:15.999Z</time></trkpt><trkpt lat="44.93871249816792" lon="9.974232762333456"><ele>48.0</ele><time>2026-04-25T06:27:16.999Z</time></trkpt><trkpt lat="44.93863922306229" lon="9.97419452101727"><ele>48.0</ele><time>2026-04-25T06:27:17.999Z</time></trkpt><trkpt lat="44.93856674247896" lon="9.97415355030615"><ele>48.0</ele><time>2026-04-25T06:27:18.999Z</time></trkpt><trkpt lat="44.93849475280087" lon="9.974111301605419"><ele>48.0</ele><time>2026-04-25T06:27:19.999Z</time></trkpt><trkpt lat="44.93842146728369" lon="9.974069345053548"><ele>48.0</ele><time>2026-04-25T06:27:20.999Z</time></trkpt><trkpt lat="44.938348357631654" lon="9.974028602783445"><ele>48.0</ele><time>2026-04-25T06:27:21.999Z</time></trkpt><trkpt lat="44.93827493024208" lon="9.973990135820118"><ele>48.0</ele><time>2026-04-25T06:27:22.999Z</time></trkpt><trkpt lat="44.93820299688397" lon="9.973954160388166"><ele>48.0</ele><time>2026-04-25T06:27:23.999Z</time></trkpt><trkpt lat="44.93813263511386" lon="9.973915434608582"><ele>48.0</ele><time>2026-04-25T06:27:24.999Z</time></trkpt><trkpt lat="44.938061081762925" lon="9.97387004284761"><ele>48.0</ele><time>2026-04-25T06:27:25.999Z</time></trkpt><trkpt lat="44.937988304403156" lon="9.973830459462897"><ele>48.0</ele><time>2026-04-25T06:27:26.999Z</time></trkpt><trkpt lat="44.9379140286106" lon="9.973786474066431"><ele>48.0</ele><time>2026-04-25T06:27:27.999Z</time></trkpt><trkpt lat="44.93783977557045" lon="9.973742800814517"><ele>48.0</ele><time>2026-04-25T06:27:28.999Z</time></trkpt><trkpt lat="44.937769711405" lon="9.973698021270724"><ele>48.0</ele><time>2026-04-25T06:27:29.999Z</time></trkpt><trkpt lat="44.93770096645019" lon="9.973655708304594"><ele>48.0</ele><time>2026-04-25T06:27:30.999Z</time></trkpt><trkpt lat="44.93763302956878" lon="9.973612675420707"><ele>48.0</ele><time>2026-04-25T06:27:31.999Z</time></trkpt><trkpt lat="44.93756592693052" lon="9.973571752601632"><ele>48.0</ele><time>2026-04-25T06:27:32.999Z</time></trkpt><trkpt lat="44.937499563685485" lon="9.973531348775468"><ele>47.99999999999999</ele><time>2026-04-25T06:27:33.999Z</time></trkpt><trkpt lat="44.93743415375707" lon="9.973489594442034"><ele>48.0</ele><time>2026-04-25T06:27:34.999Z</time></trkpt><trkpt lat="44.937368913234984" lon="9.973448043612196"><ele>48.0</ele><time>2026-04-25T06:27:35.999Z</time></trkpt><trkpt lat="44.937301539657895" lon="9.973407967359925"><ele>48.0</ele><time>2026-04-25T06:27:36.999Z</time></trkpt><trkpt lat="44.937236795238505" lon="9.973371439316491"><ele>48.0</ele><time>2026-04-25T06:27:37.999Z</time></trkpt><trkpt lat="44.937170744841026" lon="9.973331074037343"><ele>47.99999999999999</ele><time>2026-04-25T06:27:38.999Z</time></trkpt><trkpt lat="44.937105456426" lon="9.97329017295031"><ele>48.0</ele><time>2026-04-25T06:27:39.999Z</time></trkpt><trkpt lat="44.9370417876839" lon="9.973248691982322"><ele>47.99999999999999</ele><time>2026-04-25T06:27:40.999Z</time></trkpt><trkpt lat="44.93697765665295" lon="9.973206403311712"><ele>48.0</ele><time>2026-04-25T06:27:41.999Z</time></trkpt><trkpt lat="44.936914329283105" lon="9.973163932587344"><ele>48.0</ele><time>2026-04-25T06:27:42.999Z</time></trkpt><trkpt lat="44.936851493678105" lon="9.973123853006527"><ele>48.0</ele><time>2026-04-25T06:27:43.999Z</time></trkpt><trkpt lat="44.93678878295312" lon="9.973082580582274"><ele>48.0</ele><time>2026-04-25T06:27:44.999Z</time></trkpt><trkpt lat="44.936727371544954" lon="9.973044218958801"><ele>47.99999999999999</ele><time>2026-04-25T06:27:45.999Z</time></trkpt><trkpt lat="44.93666852331086" lon="9.973007548007283"><ele>48.0</ele><time>2026-04-25T06:27:46.999Z</time></trkpt><trkpt lat="44.93660782118685" lon="9.972969892909987"><ele>48.0</ele><time>2026-04-25T06:27:47.999Z</time></trkpt><trkpt lat="44.93654999776345" lon="9.97293172527858"><ele>48.0</ele><time>2026-04-25T06:27:48.999Z</time></trkpt><trkpt lat="44.936435977801864" lon="9.972861135137924"><ele>48.0</ele><time>2026-04-25T06:27:50.999Z</time></trkpt><trkpt lat="44.936322536522965" lon="9.972788669920138"><ele>48.0</ele><time>2026-04-25T06:27:52.999Z</time></trkpt><trkpt lat="44.93620918611156" lon="9.97271732111624"><ele>48.0</ele><time>2026-04-25T06:27:54.999Z</time></trkpt><trkpt lat="44.93609896575332" lon="9.972645472391255"><ele>48.0</ele><time>2026-04-25T06:27:56.999Z</time></trkpt><trkpt lat="44.93599268156219" lon="9.972576414859633"><ele>48.0</ele><time>2026-04-25T06:27:58.999Z</time></trkpt><trkpt lat="44.93588574134626" lon="9.972507886519896"><ele>48.0</ele><time>2026-04-25T06:28:00.999Z</time></trkpt><trkpt lat="44.93577926441534" lon="9.97244040397932"><ele>48.0</ele><time>2026-04-25T06:28:02.999Z</time></trkpt><trkpt lat="44.93567528639212" lon="9.972373836621335"><ele>47.75</ele><time>2026-04-25T06:28:04.999Z</time></trkpt><trkpt lat="44.93557410418633" lon="9.97230776615911"><ele>47.5</ele><time>2026-04-25T06:28:06.998Z</time></trkpt><trkpt lat="44.93546739762445" lon="9.97224017313874"><ele>47.25</ele><time>2026-04-25T06:28:08.998Z</time></trkpt><trkpt lat="44.93536484111791" lon="9.972176633174819"><ele>47.0</ele><time>2026-04-25T06:28:10.998Z</time></trkpt><trkpt lat="44.9352581564919" lon="9.97211476657718"><ele>47.0</ele><time>2026-04-25T06:28:12.998Z</time></trkpt><trkpt lat="44.9351507865688" lon="9.972057940691533"><ele>47.0</ele><time>2026-04-25T06:28:14.998Z</time></trkpt><trkpt lat="44.93503701193566" lon="9.972007597963644"><ele>47.0</ele><time>2026-04-25T06:28:16.998Z</time></trkpt><trkpt lat="44.93492481625661" lon="9.971960788613378"><ele>47.0</ele><time>2026-04-25T06:28:18.998Z</time></trkpt><trkpt lat="44.93480700020675" lon="9.971914137380384"><ele>47.0</ele><time>2026-04-25T06:28:20.998Z</time></trkpt><trkpt lat="44.934691102596375" lon="9.971877616205607"><ele>47.0</ele><time>2026-04-25T06:28:22.998Z</time></trkpt><trkpt lat="44.93457011273406" lon="9.97184692478036"><ele>47.0</ele><time>2026-04-25T06:28:25Z</time></trkpt><trkpt lat="44.93444610437977" lon="9.971816872873923"><ele>47.0</ele><time>2026-04-25T06:28:27Z</time></trkpt><trkpt lat="44.934381906056" lon="9.971800348782912"><ele>47.0</ele><time>2026-04-25T06:28:28Z</time></trkpt><trkpt lat="44.93431630567932" lon="9.971793032710204"><ele>47.0</ele><time>2026-04-25T06:28:29Z</time></trkpt><trkpt lat="44.93425318566209" lon="9.971781986794742"><ele>47.0</ele><time>2026-04-25T06:28:30Z</time></trkpt><trkpt lat="44.93412672816538" lon="9.971763768539596"><ele>47.0</ele><time>2026-04-25T06:28:32Z</time></trkpt><trkpt lat="44.93406278027033" lon="9.971758393238499"><ele>47.0</ele><time>2026-04-25T06:28:33Z</time></trkpt><trkpt lat="44.93399996437276" lon="9.97174917616883"><ele>47.0</ele><time>2026-04-25T06:28:34Z</time></trkpt><trkpt lat="44.933937010233734" lon="9.97174496877939"><ele>47.0</ele><time>2026-04-25T06:28:35Z</time></trkpt><trkpt lat="44.9338736740266" lon="9.971736639101687"><ele>47.0</ele><time>2026-04-25T06:28:36Z</time></trkpt><trkpt lat="44.93374835609239" lon="9.971721292338083"><ele>47.14285714285714</ele><time>2026-04-25T06:28:38Z</time></trkpt><trkpt lat="44.93368055212502" lon="9.971715720311396"><ele>47.285714285714285</ele><time>2026-04-25T06:28:39Z</time></trkpt><trkpt lat="44.93361354436651" lon="9.971708103697251"><ele>47.42857142857143</ele><time>2026-04-25T06:28:40Z</time></trkpt><trkpt lat="44.933541390475035" lon="9.971702126840638"><ele>47.57142857142857</ele><time>2026-04-25T06:28:41Z</time></trkpt><trkpt lat="44.93346951086898" lon="9.971693706723773"><ele>47.714285714285715</ele><time>2026-04-25T06:28:42Z</time></trkpt><trkpt lat="44.933396909702395" lon="9.97168847066593"><ele>47.857142857142854</ele><time>2026-04-25T06:28:43Z</time></trkpt><trkpt lat="44.93332454427027" lon="9.97168115417988"><ele>48.0</ele><time>2026-04-25T06:28:44Z</time></trkpt><trkpt lat="44.933249383529784" lon="9.971675143251453"><ele>48.0</ele><time>2026-04-25T06:28:45Z</time></trkpt><trkpt lat="44.93317301470319" lon="9.971669150738094"><ele>48.0</ele><time>2026-04-25T06:28:46Z</time></trkpt><trkpt lat="44.933095448194614" lon="9.971661767682185"><ele>48.0</ele><time>2026-04-25T06:28:47Z</time></trkpt><trkpt lat="44.9330166147535" lon="9.971657726145956"><ele>48.0</ele><time>2026-04-25T06:28:48Z</time></trkpt><trkpt lat="44.93293487751529" lon="9.971649131988245"><ele>48.0</ele><time>2026-04-25T06:28:49Z</time></trkpt><trkpt lat="44.932853449421636" lon="9.971644143562491"><ele>48.0</ele><time>2026-04-25T06:28:50Z</time></trkpt><trkpt lat="44.932768472249684" lon="9.971636173566695"><ele>48.0</ele><time>2026-04-25T06:28:51Z</time></trkpt><trkpt lat="44.93268289241603" lon="9.971628228927441"><ele>48.0</ele><time>2026-04-25T06:28:52Z</time></trkpt><trkpt lat="44.93259451622787" lon="9.97162104805025"><ele>48.0</ele><time>2026-04-25T06:28:53Z</time></trkpt><trkpt lat="44.93250442987804" lon="9.971611508142367"><ele>48.0</ele><time>2026-04-25T06:28:54Z</time></trkpt><trkpt lat="44.93241125677672" lon="9.971604251674158"><ele>48.0</ele><time>2026-04-25T06:28:55Z</time></trkpt><trkpt lat="44.932316580427035" lon="9.971594683206629"><ele>48.2</ele><time>2026-04-25T06:28:56Z</time></trkpt><trkpt lat="44.93221875767944" lon="9.971586117333956"><ele>48.4</ele><time>2026-04-25T06:28:57Z</time></trkpt><trkpt lat="44.93211987850518" lon="9.971577813440511"><ele>48.6</ele><time>2026-04-25T06:28:58Z</time></trkpt><trkpt lat="44.93201976867625" lon="9.971570463127282"><ele>48.800000000000004</ele><time>2026-04-25T06:28:59Z</time></trkpt><trkpt lat="44.931917265935006" lon="9.97155912408848"><ele>49.0</ele><time>2026-04-25T06:29:00Z</time></trkpt><trkpt lat="44.93181651782968" lon="9.971552026244352"><ele>49.0</ele><time>2026-04-25T06:29:01Z</time></trkpt><trkpt lat="44.93171695679002" lon="9.971540593012973"><ele>49.0</ele><time>2026-04-25T06:29:02Z</time></trkpt><trkpt lat="44.93161468231642" lon="9.971529680700588"><ele>49.0</ele><time>2026-04-25T06:29:03Z</time></trkpt><trkpt lat="44.9315137724134" lon="9.971522275907773"><ele>49.0</ele><time>2026-04-25T06:29:04Z</time></trkpt><trkpt lat="44.93141149885872" lon="9.971511045728152"><ele>49.0</ele><time>2026-04-25T06:29:05Z</time></trkpt><trkpt lat="44.931310650189936" lon="9.97150225569315"><ele>49.0</ele><time>2026-04-25T06:29:06Z</time></trkpt><trkpt lat="44.931211778475785" lon="9.97148830050245"><ele>49.0</ele><time>2026-04-25T06:29:07Z</time></trkpt><trkpt lat="44.931112337506605" lon="9.971477939157241"><ele>49.0</ele><time>2026-04-25T06:29:08Z</time></trkpt><trkpt lat="44.931013592895034" lon="9.971468200165807"><ele>49.0</ele><time>2026-04-25T06:29:09Z</time></trkpt><trkpt lat="44.9309162008767" lon="9.97145535727225"><ele>49.0</ele><time>2026-04-25T06:29:10Z</time></trkpt><trkpt lat="44.93081930312223" lon="9.971441143988963"><ele>49.2</ele><time>2026-04-25T06:29:11Z</time></trkpt><trkpt lat="44.93072440993906" lon="9.971426819269976"><ele>49.400000000000006</ele><time>2026-04-25T06:29:12Z</time></trkpt><trkpt lat="44.930631068762956" lon="9.97141211223313"><ele>49.6</ele><time>2026-04-25T06:29:13Z</time></trkpt><trkpt lat="44.93053882260809" lon="9.971396666147237"><ele>49.8</ele><time>2026-04-25T06:29:14Z</time></trkpt><trkpt lat="44.930448706234145" lon="9.971382622223846"><ele>50.0</ele><time>2026-04-25T06:29:15Z</time></trkpt><trkpt lat="44.930359540386114" lon="9.971366057987957"><ele>50.00000000000001</ele><time>2026-04-25T06:29:16Z</time></trkpt><trkpt lat="44.930273766974366" lon="9.971349993455082"><ele>50.0</ele><time>2026-04-25T06:29:16.999Z</time></trkpt><trkpt lat="44.9301872415382" lon="9.971334496092407"><ele>50.0</ele><time>2026-04-25T06:29:17.999Z</time></trkpt><trkpt lat="44.93009957175231" lon="9.971318687078664"><ele>50.0</ele><time>2026-04-25T06:29:18.999Z</time></trkpt><trkpt lat="44.93001268255363" lon="9.971303553805075"><ele>50.00000000000001</ele><time>2026-04-25T06:29:19.999Z</time></trkpt><trkpt lat="44.929927258568526" lon="9.971289951124065"><ele>50.0</ele><time>2026-04-25T06:29:20.999Z</time></trkpt><trkpt lat="44.92984204261097" lon="9.97127326142922"><ele>50.16666666666667</ele><time>2026-04-25T06:29:21.999Z</time></trkpt><trkpt lat="44.92975853094106" lon="9.971254876748283"><ele>50.333333333333336</ele><time>2026-04-25T06:29:22.999Z</time></trkpt><trkpt lat="44.92967542067395" lon="9.971233098432666"><ele>50.5</ele><time>2026-04-25T06:29:23.999Z</time></trkpt><trkpt lat="44.929592827145385" lon="9.971214307637462"><ele>50.66666666666667</ele><time>2026-04-25T06:29:24.999Z</time></trkpt><trkpt lat="44.92950932826453" lon="9.97119909888253"><ele>50.833333333333336</ele><time>2026-04-25T06:29:25.999Z</time></trkpt><trkpt lat="44.92942632662736" lon="9.971183688839867"><ele>51.0</ele><time>2026-04-25T06:29:26.999Z</time></trkpt><trkpt lat="44.92934250310252" lon="9.971166477889971"><ele>51.0</ele><time>2026-04-25T06:29:27.999Z</time></trkpt><trkpt lat="44.929259181933126" lon="9.971148558164646"><ele>51.0</ele><time>2026-04-25T06:29:28.999Z</time></trkpt><trkpt lat="44.92917452121284" lon="9.971130488131543"><ele>51.0</ele><time>2026-04-25T06:29:29.999Z</time></trkpt><trkpt lat="44.92908904507819" lon="9.97111109064685"><ele>51.0</ele><time>2026-04-25T06:29:30.999Z</time></trkpt><trkpt lat="44.92900513289845" lon="9.971093443817148"><ele>51.0</ele><time>2026-04-25T06:29:31.999Z</time></trkpt><trkpt lat="44.92891927318028" lon="9.971074662816157"><ele>51.0</ele><time>2026-04-25T06:29:32.999Z</time></trkpt><trkpt lat="44.92883356540976" lon="9.971054574449628"><ele>51.0</ele><time>2026-04-25T06:29:33.999Z</time></trkpt><trkpt lat="44.92874874872362" lon="9.971035039915904"><ele>51.0</ele><time>2026-04-25T06:29:34.999Z</time></trkpt><trkpt lat="44.92866350931132" lon="9.971017465556917"><ele>51.0</ele><time>2026-04-25T06:29:35.999Z</time></trkpt><trkpt lat="44.928578826332625" lon="9.970999920263019"><ele>51.0</ele><time>2026-04-25T06:29:36.999Z</time></trkpt><trkpt lat="44.92849419682462" lon="9.970981749326285"><ele>51.0</ele><time>2026-04-25T06:29:37.999Z</time></trkpt><trkpt lat="44.928410375955536" lon="9.970964578932389"><ele>51.0</ele><time>2026-04-25T06:29:38.999Z</time></trkpt><trkpt lat="44.928325477961366" lon="9.970943996261601"><ele>51.0</ele><time>2026-04-25T06:29:39.999Z</time></trkpt><trkpt lat="44.92824137075736" lon="9.970925767873018"><ele>51.0</ele><time>2026-04-25T06:29:40.999Z</time></trkpt><trkpt lat="44.92815651139127" lon="9.97090931155791"><ele>51.0</ele><time>2026-04-25T06:29:41.999Z</time></trkpt><trkpt lat="44.92807170620538" lon="9.97089169026095"><ele>51.0</ele><time>2026-04-25T06:29:42.999Z</time></trkpt><trkpt lat="44.927987364676085" lon="9.970872452393612"><ele>51.0</ele><time>2026-04-25T06:29:43.999Z</time></trkpt><trkpt lat="44.92790347594582" lon="9.970853890291686"><ele>51.0</ele><time>2026-04-25T06:29:44.999Z</time></trkpt><trkpt lat="44.927820746676524" lon="9.970836057484144"><ele>51.0</ele><time>2026-04-25T06:29:45.999Z</time></trkpt><trkpt lat="44.92773624891093" lon="9.97081865458801"><ele>51.0</ele><time>2026-04-25T06:29:46.999Z</time></trkpt><trkpt lat="44.92765250852167" lon="9.970803202658338"><ele>51.0</ele><time>2026-04-25T06:29:47.999Z</time></trkpt><trkpt lat="44.92756802805362" lon="9.970786336221485"><ele>51.0</ele><time>2026-04-25T06:29:48.999Z</time></trkpt><trkpt lat="44.92748351197976" lon="9.970766078669348"><ele>51.0</ele><time>2026-04-25T06:29:49.999Z</time></trkpt><trkpt lat="44.92740003648504" lon="9.970746912949405"><ele>51.0</ele><time>2026-04-25T06:29:50.999Z</time></trkpt><trkpt lat="44.927316359132604" lon="9.970728692093326"><ele>51.0</ele><time>2026-04-25T06:29:51.999Z</time></trkpt><trkpt lat="44.927231904579735" lon="9.97070950886125"><ele>51.0</ele><time>2026-04-25T06:29:52.999Z</time></trkpt><trkpt lat="44.927148699701355" lon="9.970690669477884"><ele>51.0</ele><time>2026-04-25T06:29:53.999Z</time></trkpt><trkpt lat="44.92706647674099" lon="9.970672972250679"><ele>51.0</ele><time>2026-04-25T06:29:54.999Z</time></trkpt><trkpt lat="44.9269846777408" lon="9.970656256196513"><ele>51.0</ele><time>2026-04-25T06:29:55.999Z</time></trkpt><trkpt lat="44.926904074257465" lon="9.970639746076571"><ele>51.0</ele><time>2026-04-25T06:29:56.999Z</time></trkpt><trkpt lat="44.926823361981626" lon="9.970620970925985"><ele>51.0</ele><time>2026-04-25T06:29:57.999Z</time></trkpt><trkpt lat="44.92674330856187" lon="9.970599801264441"><ele>51.0</ele><time>2026-04-25T06:29:58.999Z</time></trkpt><trkpt lat="44.92666526173224" lon="9.970578662758644"><ele>51.0</ele><time>2026-04-25T06:29:59.999Z</time></trkpt><trkpt lat="44.92658918404868" lon="9.970558649162385"><ele>51.0</ele><time>2026-04-25T06:30:00.999Z</time></trkpt><trkpt lat="44.92651296579835" lon="9.970540206332789"><ele>51.0</ele><time>2026-04-25T06:30:01.999Z</time></trkpt><trkpt lat="44.92643960253054" lon="9.970523827877082"><ele>51.0</ele><time>2026-04-25T06:30:02.999Z</time></trkpt><trkpt lat="44.92636720632493" lon="9.970509038113525"><ele>51.0</ele><time>2026-04-25T06:30:03.999Z</time></trkpt><trkpt lat="44.926291520224666" lon="9.970494274602766"><ele>51.0</ele><time>2026-04-25T06:30:04.999Z</time></trkpt><trkpt lat="44.92621677001196" lon="9.970476845140302"><ele>51.0</ele><time>2026-04-25T06:30:05.999Z</time></trkpt><trkpt lat="44.92614341256346" lon="9.970460101698068"><ele>51.0</ele><time>2026-04-25T06:30:06.999Z</time></trkpt><trkpt lat="44.92606976973919" lon="9.970442841503514"><ele>51.0</ele><time>2026-04-25T06:30:07.999Z</time></trkpt><trkpt lat="44.92599486461766" lon="9.970424877440953"><ele>51.0</ele><time>2026-04-25T06:30:08.999Z</time></trkpt><trkpt lat="44.92592337596881" lon="9.970408847341426"><ele>51.0</ele><time>2026-04-25T06:30:09.998Z</time></trkpt><trkpt lat="44.9258501950809" lon="9.970392647458228"><ele>51.42857142857143</ele><time>2026-04-25T06:30:10.998Z</time></trkpt><trkpt lat="44.925781417518415" lon="9.970374344922464"><ele>51.85714285714286</ele><time>2026-04-25T06:30:11.998Z</time></trkpt><trkpt lat="44.92571453087001" lon="9.970363495421976"><ele>52.285714285714285</ele><time>2026-04-25T06:30:12.998Z</time></trkpt><trkpt lat="44.92564791721126" lon="9.970372831271364"><ele>52.714285714285715</ele><time>2026-04-25T06:30:13.998Z</time></trkpt><trkpt lat="44.92558404969637" lon="9.970407505455006"><ele>53.14285714285714</ele><time>2026-04-25T06:30:14.998Z</time></trkpt><trkpt lat="44.925535562735945" lon="9.970467607170361"><ele>53.57142857142857</ele><time>2026-04-25T06:30:15.998Z</time></trkpt><trkpt lat="44.92551455486785" lon="9.970559615251018"><ele>54.0</ele><time>2026-04-25T06:30:16.998Z</time></trkpt><trkpt lat="44.92551656904323" lon="9.970658098810835"><ele>54.0</ele><time>2026-04-25T06:30:17.998Z</time></trkpt><trkpt lat="44.925531770346446" lon="9.970749505243731"><ele>54.0</ele><time>2026-04-25T06:30:18.998Z</time></trkpt><trkpt lat="44.92554987672449" lon="9.97084147629914"><ele>54.0</ele><time>2026-04-25T06:30:19.998Z</time></trkpt><trkpt lat="44.925567267301886" lon="9.970935433929967"><ele>54.0</ele><time>2026-04-25T06:30:20.998Z</time></trkpt><trkpt lat="44.92558746938844" lon="9.971025734825673"><ele>54.0</ele><time>2026-04-25T06:30:21.998Z</time></trkpt><trkpt lat="44.9256055181763" lon="9.97111553839922"><ele>54.0</ele><time>2026-04-25T06:30:22.998Z</time></trkpt><trkpt lat="44.92562188346263" lon="9.971207178364333"><ele>54.0</ele><time>2026-04-25T06:30:23.998Z</time></trkpt><trkpt lat="44.92563050996267" lon="9.971300238300344"><ele>54.285714285714285</ele><time>2026-04-25T06:30:24.998Z</time></trkpt><trkpt lat="44.92559473376483" lon="9.971381759181755"><ele>54.57142857142857</ele><time>2026-04-25T06:30:25.998Z</time></trkpt><trkpt lat="44.92553040857495" lon="9.971422784629262"><ele>54.85714285714286</ele><time>2026-04-25T06:30:26.998Z</time></trkpt><trkpt lat="44.92546215953232" lon="9.971439438415695"><ele>55.14285714285714</ele><time>2026-04-25T06:30:27.998Z</time></trkpt><trkpt lat="44.925394488342214" lon="9.97145205411305"><ele>55.42857142857143</ele><time>2026-04-25T06:30:28.998Z</time></trkpt><trkpt lat="44.92532342586435" lon="9.971471323511844"><ele>55.714285714285715</ele><time>2026-04-25T06:30:30Z</time></trkpt><trkpt lat="44.925249573029845" lon="9.971495255789229"><ele>56.0</ele><time>2026-04-25T06:30:31Z</time></trkpt><trkpt lat="44.92517447331041" lon="9.971515093604305"><ele>56.00000000000001</ele><time>2026-04-25T06:30:32Z</time></trkpt><trkpt lat="44.92509739342047" lon="9.971534616088695"><ele>56.0</ele><time>2026-04-25T06:30:33Z</time></trkpt><trkpt lat="44.92502238679259" lon="9.971552096867706"><ele>56.0</ele><time>2026-04-25T06:30:34Z</time></trkpt><trkpt lat="44.92494697946117" lon="9.971571220752734"><ele>56.0</ele><time>2026-04-25T06:30:35Z</time></trkpt><trkpt lat="44.92487230441704" lon="9.971591356861481"><ele>56.00000000000001</ele><time>2026-04-25T06:30:36Z</time></trkpt><trkpt lat="44.92479515937814" lon="9.97160399524209"><ele>56.0</ele><time>2026-04-25T06:30:37Z</time></trkpt><trkpt lat="44.92471782674044" lon="9.971612668254629"><ele>55.833333333333336</ele><time>2026-04-25T06:30:38Z</time></trkpt><trkpt lat="44.92463788210888" lon="9.97161552871913"><ele>55.66666666666667</ele><time>2026-04-25T06:30:39Z</time></trkpt><trkpt lat="44.92455887842585" lon="9.971612491671628"><ele>55.5</ele><time>2026-04-25T06:30:40Z</time></trkpt><trkpt lat="44.92448097478966" lon="9.971604507243121"><ele>55.33333333333333</ele><time>2026-04-25T06:30:41Z</time></trkpt><trkpt lat="44.92440258479813" lon="9.971587918542085"><ele>55.166666666666664</ele><time>2026-04-25T06:30:42Z</time></trkpt><trkpt lat="44.92432513703631" lon="9.971565320309553"><ele>55.0</ele><time>2026-04-25T06:30:43Z</time></trkpt><trkpt lat="44.92424701972575" lon="9.971543941715488"><ele>54.666666666666664</ele><time>2026-04-25T06:30:44Z</time></trkpt><trkpt lat="44.92416882300908" lon="9.971531696605478"><ele>54.33333333333333</ele><time>2026-04-25T06:30:45Z</time></trkpt><trkpt lat="44.92408656977171" lon="9.971518749370846"><ele>54.0</ele><time>2026-04-25T06:30:46Z</time></trkpt><trkpt lat="44.92400854130221" lon="9.971503771620583"><ele>53.66666666666667</ele><time>2026-04-25T06:30:47Z</time></trkpt><trkpt lat="44.92392973157586" lon="9.971483587256447"><ele>53.333333333333336</ele><time>2026-04-25T06:30:48Z</time></trkpt><trkpt lat="44.92384995180897" lon="9.971463936782248"><ele>53.0</ele><time>2026-04-25T06:30:49Z</time></trkpt><trkpt lat="44.92377031326149" lon="9.971448903860898"><ele>53.00000000000001</ele><time>2026-04-25T06:30:50Z</time></trkpt><trkpt lat="44.9236901002581" lon="9.971428783841334"><ele>53.0</ele><time>2026-04-25T06:30:51Z</time></trkpt><trkpt lat="44.92361262579049" lon="9.971410735941205"><ele>53.0</ele><time>2026-04-25T06:30:52Z</time></trkpt><trkpt lat="44.92353313602278" lon="9.971389644158618"><ele>53.0</ele><time>2026-04-25T06:30:53Z</time></trkpt><trkpt lat="44.92345459152074" lon="9.971369756685629"><ele>53.00000000000001</ele><time>2026-04-25T06:30:54Z</time></trkpt><trkpt lat="44.92337571191551" lon="9.97134852669592"><ele>53.0</ele><time>2026-04-25T06:30:55Z</time></trkpt><trkpt lat="44.923292517754376" lon="9.971329824832779"><ele>53.16666666666667</ele><time>2026-04-25T06:30:56Z</time></trkpt><trkpt lat="44.9232090990791" lon="9.971312752452167"><ele>53.333333333333336</ele><time>2026-04-25T06:30:57Z</time></trkpt><trkpt lat="44.923125766390754" lon="9.97129395162149"><ele>53.5</ele><time>2026-04-25T06:30:58Z</time></trkpt><trkpt lat="44.923044270278325" lon="9.971276077624069"><ele>53.66666666666667</ele><time>2026-04-25T06:30:59Z</time></trkpt><trkpt lat="44.92296370323258" lon="9.971257642282598"><ele>53.833333333333336</ele><time>2026-04-25T06:31:00Z</time></trkpt><trkpt lat="44.92288628092604" lon="9.971239048231745"><ele>54.0</ele><time>2026-04-25T06:31:01Z</time></trkpt><trkpt lat="44.92280550635791" lon="9.971223487101337"><ele>54.0</ele><time>2026-04-25T06:31:02Z</time></trkpt><trkpt lat="44.92272690465094" lon="9.971210930807516"><ele>54.0</ele><time>2026-04-25T06:31:03Z</time></trkpt><trkpt lat="44.92264773318537" lon="9.971197242728998"><ele>54.0</ele><time>2026-04-25T06:31:04Z</time></trkpt><trkpt lat="44.92256936387457" lon="9.97118504502409"><ele>54.0</ele><time>2026-04-25T06:31:05Z</time></trkpt><trkpt lat="44.922493357573615" lon="9.971175050966743"><ele>54.0</ele><time>2026-04-25T06:31:06Z</time></trkpt><trkpt lat="44.92241856959315" lon="9.971164259826667"><ele>54.0</ele><time>2026-04-25T06:31:07Z</time></trkpt><trkpt lat="44.92234137897781" lon="9.971153644350299"><ele>54.0</ele><time>2026-04-25T06:31:08Z</time></trkpt><trkpt lat="44.92226670397961" lon="9.971139014698695"><ele>54.0</ele><time>2026-04-25T06:31:09Z</time></trkpt><trkpt lat="44.922191419267484" lon="9.971123167805702"><ele>54.0</ele><time>2026-04-25T06:31:10Z</time></trkpt><trkpt lat="44.922114645558956" lon="9.971102294675793"><ele>54.0</ele><time>2026-04-25T06:31:11Z</time></trkpt><trkpt lat="44.92203684220905" lon="9.971086216160137"><ele>54.0</ele><time>2026-04-25T06:31:12Z</time></trkpt><trkpt lat="44.921957859300264" lon="9.971072591045615"><ele>54.0</ele><time>2026-04-25T06:31:13Z</time></trkpt><trkpt lat="44.9218791132362" lon="9.971059642480153"><ele>54.0</ele><time>2026-04-25T06:31:14Z</time></trkpt><trkpt lat="44.9217991455744" lon="9.971045366126997"><ele>54.0</ele><time>2026-04-25T06:31:15Z</time></trkpt><trkpt lat="44.92172211302484" lon="9.971032610100686"><ele>54.0</ele><time>2026-04-25T06:31:16Z</time></trkpt><trkpt lat="44.92164529337281" lon="9.971023724480347"><ele>54.0</ele><time>2026-04-25T06:31:17Z</time></trkpt><trkpt lat="44.92156874467194" lon="9.971025665185193"><ele>54.0</ele><time>2026-04-25T06:31:18Z</time></trkpt><trkpt lat="44.92149471669802" lon="9.971050271588524"><ele>54.0</ele><time>2026-04-25T06:31:19Z</time></trkpt><trkpt lat="44.9214234075108" lon="9.971083846719369"><ele>54.0</ele><time>2026-04-25T06:31:20Z</time></trkpt><trkpt lat="44.92135397897364" lon="9.97112456967604"><ele>54.0</ele><time>2026-04-25T06:31:21Z</time></trkpt><trkpt lat="44.9212833941728" lon="9.971159799059624"><ele>54.0</ele><time>2026-04-25T06:31:21.999Z</time></trkpt><trkpt lat="44.92121409230517" lon="9.971197553392356"><ele>54.0</ele><time>2026-04-25T06:31:22.999Z</time></trkpt><trkpt lat="44.92114422181301" lon="9.971234898231202"><ele>54.0</ele><time>2026-04-25T06:31:23.999Z</time></trkpt><trkpt lat="44.9210741649796" lon="9.971270436383922"><ele>54.0</ele><time>2026-04-25T06:31:24.999Z</time></trkpt><trkpt lat="44.921002384351645" lon="9.971304588923836"><ele>54.0</ele><time>2026-04-25T06:31:25.999Z</time></trkpt><trkpt lat="44.92093270396005" lon="9.971338189189098"><ele>54.42857142857143</ele><time>2026-04-25T06:31:26.999Z</time></trkpt><trkpt lat="44.92086166851908" lon="9.971372913411356"><ele>54.857142857142854</ele><time>2026-04-25T06:31:27.999Z</time></trkpt><trkpt lat="44.92079480285364" lon="9.97140719149408"><ele>55.285714285714285</ele><time>2026-04-25T06:31:28.999Z</time></trkpt><trkpt lat="44.9207278591139" lon="9.971438402002885"><ele>55.71428571428571</ele><time>2026-04-25T06:31:29.999Z</time></trkpt><trkpt lat="44.92066005900924" lon="9.971472640285098"><ele>56.14285714285714</ele><time>2026-04-25T06:31:30.999Z</time></trkpt><trkpt lat="44.92058831834454" lon="9.971504907316117"><ele>56.57142857142857</ele><time>2026-04-25T06:31:31.999Z</time></trkpt><trkpt lat="44.92051915381948" lon="9.971530771140419"><ele>57.0</ele><time>2026-04-25T06:31:32.999Z</time></trkpt><trkpt lat="44.92044793212742" lon="9.97155624759642"><ele>57.0</ele><time>2026-04-25T06:31:33.999Z</time></trkpt><trkpt lat="44.920381493883745" lon="9.971580552065454"><ele>57.0</ele><time>2026-04-25T06:31:34.999Z</time></trkpt><trkpt lat="44.92031401627454" lon="9.971599746178464"><ele>57.0</ele><time>2026-04-25T06:31:35.999Z</time></trkpt><trkpt lat="44.92025224933151" lon="9.971625537288364"><ele>57.0</ele><time>2026-04-25T06:31:36.999Z</time></trkpt><trkpt lat="44.920187237367635" lon="9.971638736753459"><ele>57.0</ele><time>2026-04-25T06:31:37.999Z</time></trkpt><trkpt lat="44.92006622753386" lon="9.971685475694557"><ele>57.0</ele><time>2026-04-25T06:31:39.999Z</time></trkpt><trkpt lat="44.92000114601166" lon="9.971711573324246"><ele>57.14285714285714</ele><time>2026-04-25T06:31:40.999Z</time></trkpt><trkpt lat="44.91993176860973" lon="9.971738216650097"><ele>57.28571428571428</ele><time>2026-04-25T06:31:41.999Z</time></trkpt><trkpt lat="44.91986253410215" lon="9.971764063355208"><ele>57.42857142857143</ele><time>2026-04-25T06:31:42.999Z</time></trkpt><trkpt lat="44.91978963165116" lon="9.97178766483907"><ele>57.57142857142857</ele><time>2026-04-25T06:31:43.999Z</time></trkpt><trkpt lat="44.91972163042061" lon="9.97181468586293"><ele>57.714285714285715</ele><time>2026-04-25T06:31:44.999Z</time></trkpt><trkpt lat="44.91965164699664" lon="9.97183991873141"><ele>57.85714285714286</ele><time>2026-04-25T06:31:45.999Z</time></trkpt><trkpt lat="44.919578745498384" lon="9.971867437128209"><ele>58.00000000000001</ele><time>2026-04-25T06:31:46.999Z</time></trkpt><trkpt lat="44.91950850843293" lon="9.971893176043332"><ele>57.99999999999999</ele><time>2026-04-25T06:31:47.999Z</time></trkpt><trkpt lat="44.91943568577944" lon="9.971920430507918"><ele>58.0</ele><time>2026-04-25T06:31:48.999Z</time></trkpt><trkpt lat="44.919364152948425" lon="9.971944416068652"><ele>58.0</ele><time>2026-04-25T06:31:49.999Z</time></trkpt><trkpt lat="44.91929164064746" lon="9.971972503927034"><ele>58.0</ele><time>2026-04-25T06:31:50.999Z</time></trkpt><trkpt lat="44.91921589886266" lon="9.971994199285573"><ele>57.99999999999999</ele><time>2026-04-25T06:31:51.999Z</time></trkpt><trkpt lat="44.91914456169777" lon="9.972022232809328"><ele>58.0</ele><time>2026-04-25T06:31:52.999Z</time></trkpt><trkpt lat="44.91907243404051" lon="9.972049260230522"><ele>57.99999999999999</ele><time>2026-04-25T06:31:53.999Z</time></trkpt><trkpt lat="44.919000324864335" lon="9.972081947774248"><ele>58.0</ele><time>2026-04-25T06:31:54.999Z</time></trkpt><trkpt lat="44.918927995367675" lon="9.97211521800549"><ele>58.0</ele><time>2026-04-25T06:31:55.999Z</time></trkpt><trkpt lat="44.918854988013855" lon="9.972151375124229"><ele>58.0</ele><time>2026-04-25T06:31:56.999Z</time></trkpt><trkpt lat="44.91878235297805" lon="9.972185664352894"><ele>57.99999999999999</ele><time>2026-04-25T06:31:57.999Z</time></trkpt><trkpt lat="44.91870941024465" lon="9.97222238944916"><ele>58.0</ele><time>2026-04-25T06:31:58.999Z</time></trkpt><trkpt lat="44.918637361195735" lon="9.972257505605999"><ele>57.99999999999999</ele><time>2026-04-25T06:31:59.999Z</time></trkpt><trkpt lat="44.91856345810712" lon="9.972291660570596"><ele>58.0</ele><time>2026-04-25T06:32:00.999Z</time></trkpt><trkpt lat="44.91849106915016" lon="9.972323370990297"><ele>58.0</ele><time>2026-04-25T06:32:01.999Z</time></trkpt><trkpt lat="44.9184177408188" lon="9.972357923558459"><ele>58.0</ele><time>2026-04-25T06:32:02.999Z</time></trkpt><trkpt lat="44.91834538759482" lon="9.972392098657194"><ele>57.99999999999999</ele><time>2026-04-25T06:32:03.999Z</time></trkpt><trkpt lat="44.9182729174046" lon="9.972426930344374"><ele>58.0</ele><time>2026-04-25T06:32:04.999Z</time></trkpt><trkpt lat="44.91820186493785" lon="9.972459348425875"><ele>57.49999999999999</ele><time>2026-04-25T06:32:05.999Z</time></trkpt><trkpt lat="44.918128635950524" lon="9.972492720006025"><ele>57.0</ele><time>2026-04-25T06:32:06.999Z</time></trkpt><trkpt lat="44.91805886078338" lon="9.972527030346656"><ele>56.5</ele><time>2026-04-25T06:32:07.999Z</time></trkpt><trkpt lat="44.9179878136577" lon="9.972558142492336"><ele>56.0</ele><time>2026-04-25T06:32:08.999Z</time></trkpt><trkpt lat="44.917916130667" lon="9.97259225028535"><ele>55.49999999999999</ele><time>2026-04-25T06:32:09.999Z</time></trkpt><trkpt lat="44.91784454300313" lon="9.972626463080392"><ele>55.0</ele><time>2026-04-25T06:32:10.999Z</time></trkpt><trkpt lat="44.917773105884045" lon="9.972659191677119"><ele>54.83333333333333</ele><time>2026-04-25T06:32:11.999Z</time></trkpt><trkpt lat="44.9177017882568" lon="9.972691430081003"><ele>54.666666666666664</ele><time>2026-04-25T06:32:12.999Z</time></trkpt><trkpt lat="44.91763072462875" lon="9.972724997878654"><ele>54.5</ele><time>2026-04-25T06:32:13.999Z</time></trkpt><trkpt lat="44.91755953599584" lon="9.972759682116545"><ele>54.33333333333333</ele><time>2026-04-25T06:32:14.998Z</time></trkpt><trkpt lat="44.91748811225166" lon="9.9727925421755"><ele>54.166666666666664</ele><time>2026-04-25T06:32:15.998Z</time></trkpt><trkpt lat="44.917416923574656" lon="9.972824881279639"><ele>54.0</ele><time>2026-04-25T06:32:16.998Z</time></trkpt><trkpt lat="44.917347007981014" lon="9.972861925992337"><ele>54.42857142857143</ele><time>2026-04-25T06:32:17.998Z</time></trkpt><trkpt lat="44.917279928249044" lon="9.972910694738378"><ele>54.857142857142854</ele><time>2026-04-25T06:32:18.998Z</time></trkpt><trkpt lat="44.917217581393196" lon="9.972971907854113"><ele>55.285714285714285</ele><time>2026-04-25T06:32:19.998Z</time></trkpt><trkpt lat="44.91716071620659" lon="9.973040851541699"><ele>55.71428571428571</ele><time>2026-04-25T06:32:20.998Z</time></trkpt><trkpt lat="44.917105114703276" lon="9.973110289340909"><ele>56.14285714285714</ele><time>2026-04-25T06:32:21.998Z</time></trkpt><trkpt lat="44.91705139430831" lon="9.973181152920915"><ele>56.57142857142857</ele><time>2026-04-25T06:32:22.998Z</time></trkpt><trkpt lat="44.91700001646427" lon="9.973254622087824"><ele>57.0</ele><time>2026-04-25T06:32:23.998Z</time></trkpt><trkpt lat="44.91694748980241" lon="9.973329470299126"><ele>56.857142857142854</ele><time>2026-04-25T06:32:24.998Z</time></trkpt><trkpt lat="44.91689429273486" lon="9.97340252234138"><ele>56.71428571428571</ele><time>2026-04-25T06:32:25.998Z</time></trkpt><trkpt lat="44.91684077532366" lon="9.97347624116046"><ele>56.57142857142857</ele><time>2026-04-25T06:32:26.998Z</time></trkpt><trkpt lat="44.916788362489015" lon="9.97355089678989"><ele>56.42857142857143</ele><time>2026-04-25T06:32:27.998Z</time></trkpt><trkpt lat="44.91673656761056" lon="9.973624545071447"><ele>56.285714285714285</ele><time>2026-04-25T06:32:28.998Z</time></trkpt><trkpt lat="44.916683998276994" lon="9.973697063754562"><ele>56.14285714285714</ele><time>2026-04-25T06:32:29.998Z</time></trkpt><trkpt lat="44.916631064189104" lon="9.973769520895354"><ele>56.0</ele><time>2026-04-25T06:32:30.998Z</time></trkpt><trkpt lat="44.916581689624415" lon="9.973847108433"><ele>56.14285714285714</ele><time>2026-04-25T06:32:31.998Z</time></trkpt><trkpt lat="44.916527446676405" lon="9.973916787256732"><ele>56.285714285714285</ele><time>2026-04-25T06:32:32.998Z</time></trkpt><trkpt lat="44.91647708204312" lon="9.97399065938675"><ele>56.42857142857143</ele><time>2026-04-25T06:32:33.998Z</time></trkpt><trkpt lat="44.91642525792958" lon="9.974061469240196"><ele>56.57142857142857</ele><time>2026-04-25T06:32:34.998Z</time></trkpt><trkpt lat="44.91637328552713" lon="9.974136340630343"><ele>56.71428571428571</ele><time>2026-04-25T06:32:36Z</time></trkpt><trkpt lat="44.91631944168168" lon="9.974210266299092"><ele>56.857142857142854</ele><time>2026-04-25T06:32:37Z</time></trkpt><trkpt lat="44.916266293441936" lon="9.974284682776968"><ele>57.0</ele><time>2026-04-25T06:32:38Z</time></trkpt><trkpt lat="44.91621328810229" lon="9.974360012373708"><ele>57.0</ele><time>2026-04-25T06:32:39Z</time></trkpt><trkpt lat="44.916161177517324" lon="9.974436905588583"><ele>57.0</ele><time>2026-04-25T06:32:40Z</time></trkpt><trkpt lat="44.916107315021556" lon="9.974512166372252"><ele>57.0</ele><time>2026-04-25T06:32:41Z</time></trkpt><trkpt lat="44.91605240820653" lon="9.974587289017215"><ele>57.0</ele><time>2026-04-25T06:32:42Z</time></trkpt><trkpt lat="44.9159989737721" lon="9.97466365295743"><ele>57.0</ele><time>2026-04-25T06:32:43Z</time></trkpt><trkpt lat="44.91594635981747" lon="9.974741488581184"><ele>57.0</ele><time>2026-04-25T06:32:44Z</time></trkpt><trkpt lat="44.91589337072145" lon="9.974814155483472"><ele>57.0</ele><time>2026-04-25T06:32:45Z</time></trkpt><trkpt lat="44.91584048110042" lon="9.974890522122838"><ele>57.0</ele><time>2026-04-25T06:32:46Z</time></trkpt><trkpt lat="44.915788059812456" lon="9.974965736513072"><ele>57.0</ele><time>2026-04-25T06:32:47Z</time></trkpt><trkpt lat="44.91573406961737" lon="9.975042586511192"><ele>57.0</ele><time>2026-04-25T06:32:48Z</time></trkpt><trkpt lat="44.91568172678795" lon="9.975114572625918"><ele>57.0</ele><time>2026-04-25T06:32:49Z</time></trkpt><trkpt lat="44.91562799246602" lon="9.975190964314463"><ele>57.0</ele><time>2026-04-25T06:32:50Z</time></trkpt><trkpt lat="44.91557544904661" lon="9.975266475590567"><ele>57.0</ele><time>2026-04-25T06:32:51Z</time></trkpt><trkpt lat="44.915521510381346" lon="9.975341702433896"><ele>57.0</ele><time>2026-04-25T06:32:52Z</time></trkpt><trkpt lat="44.91546933813129" lon="9.975417841792241"><ele>57.0</ele><time>2026-04-25T06:32:53Z</time></trkpt><trkpt lat="44.915415621020465" lon="9.975494175551741"><ele>57.0</ele><time>2026-04-25T06:32:54Z</time></trkpt><trkpt lat="44.91536211813538" lon="9.9755690528215"><ele>57.0</ele><time>2026-04-25T06:32:55Z</time></trkpt><trkpt lat="44.915308588877124" lon="9.97564644993434"><ele>57.0</ele><time>2026-04-25T06:32:56Z</time></trkpt><trkpt lat="44.91525420986142" lon="9.975722479649194"><ele>57.0</ele><time>2026-04-25T06:32:57Z</time></trkpt><trkpt lat="44.915201575559955" lon="9.975801169122192"><ele>57.0</ele><time>2026-04-25T06:32:58Z</time></trkpt><trkpt lat="44.91514709375217" lon="9.975876019670974"><ele>57.0</ele><time>2026-04-25T06:32:59Z</time></trkpt><trkpt lat="44.915092625609056" lon="9.975954187972365"><ele>57.0</ele><time>2026-04-25T06:33:00Z</time></trkpt><trkpt lat="44.91503935443831" lon="9.976030877413919"><ele>57.0</ele><time>2026-04-25T06:33:01Z</time></trkpt><trkpt lat="44.91498367552218" lon="9.976110298395334"><ele>57.0</ele><time>2026-04-25T06:33:02Z</time></trkpt><trkpt lat="44.914931195188686" lon="9.976192690290732"><ele>57.0</ele><time>2026-04-25T06:33:03Z</time></trkpt><trkpt lat="44.914875681055" lon="9.976270287440823"><ele>57.0</ele><time>2026-04-25T06:33:04Z</time></trkpt><trkpt lat="44.9148202204673" lon="9.976348355675583"><ele>57.0</ele><time>2026-04-25T06:33:05Z</time></trkpt><trkpt lat="44.914765465938856" lon="9.976423754162228"><ele>57.0</ele><time>2026-04-25T06:33:06Z</time></trkpt><trkpt lat="44.91471305892789" lon="9.976503524026622"><ele>57.0</ele><time>2026-04-25T06:33:07Z</time></trkpt><trkpt lat="44.91465958138815" lon="9.976580837685306"><ele>57.0</ele><time>2026-04-25T06:33:08Z</time></trkpt><trkpt lat="44.91460730103154" lon="9.97665827476094"><ele>57.0</ele><time>2026-04-25T06:33:09Z</time></trkpt><trkpt lat="44.91455219689922" lon="9.976733617430327"><ele>57.0</ele><time>2026-04-25T06:33:10Z</time></trkpt><trkpt lat="44.914497796224126" lon="9.976809609671877"><ele>57.0</ele><time>2026-04-25T06:33:11Z</time></trkpt><trkpt lat="44.914443624358164" lon="9.976882069676826"><ele>57.0</ele><time>2026-04-25T06:33:12Z</time></trkpt><trkpt lat="44.91439094802232" lon="9.976959485163611"><ele>57.0</ele><time>2026-04-25T06:33:13Z</time></trkpt><trkpt lat="44.91433773315927" lon="9.97703333195801"><ele>57.0</ele><time>2026-04-25T06:33:14Z</time></trkpt><trkpt lat="44.91428359758848" lon="9.977107939187805"><ele>57.0</ele><time>2026-04-25T06:33:15Z</time></trkpt><trkpt lat="44.91422933300167" lon="9.977182087999712"><ele>57.0</ele><time>2026-04-25T06:33:16Z</time></trkpt><trkpt lat="44.91417484867585" lon="9.977258141877632"><ele>57.0</ele><time>2026-04-25T06:33:17Z</time></trkpt><trkpt lat="44.914122164125175" lon="9.977336192460221"><ele>57.0</ele><time>2026-04-25T06:33:18Z</time></trkpt><trkpt lat="44.91406810347344" lon="9.977411881431376"><ele>57.0</ele><time>2026-04-25T06:33:19Z</time></trkpt><trkpt lat="44.91401277479183" lon="9.977487463201568"><ele>57.0</ele><time>2026-04-25T06:33:20Z</time></trkpt><trkpt lat="44.9139583708465" lon="9.97756472479606"><ele>57.0</ele><time>2026-04-25T06:33:21Z</time></trkpt><trkpt lat="44.913905604860034" lon="9.977643241598496"><ele>57.0</ele><time>2026-04-25T06:33:22Z</time></trkpt><trkpt lat="44.913852766213225" lon="9.977721607622145"><ele>57.0</ele><time>2026-04-25T06:33:23Z</time></trkpt><trkpt lat="44.913799628697284" lon="9.97780083420639"><ele>57.0</ele><time>2026-04-25T06:33:24Z</time></trkpt><trkpt lat="44.91374383833417" lon="9.9778786011046"><ele>57.0</ele><time>2026-04-25T06:33:25Z</time></trkpt><trkpt lat="44.913689153598504" lon="9.977955202554647"><ele>57.0</ele><time>2026-04-25T06:33:26Z</time></trkpt><trkpt lat="44.91363431165078" lon="9.978030391471092"><ele>57.0</ele><time>2026-04-25T06:33:26.999Z</time></trkpt><trkpt lat="44.91357846410018" lon="9.978105209647229"><ele>57.0</ele><time>2026-04-25T06:33:27.999Z</time></trkpt><trkpt lat="44.913523416641794" lon="9.978182432331872"><ele>57.0</ele><time>2026-04-25T06:33:28.999Z</time></trkpt><trkpt lat="44.91346959895828" lon="9.97826034151194"><ele>57.0</ele><time>2026-04-25T06:33:29.999Z</time></trkpt><trkpt lat="44.91341537509899" lon="9.978339014486673"><ele>57.0</ele><time>2026-04-25T06:33:30.999Z</time></trkpt><trkpt lat="44.913361042255" lon="9.97841754542695"><ele>57.0</ele><time>2026-04-25T06:33:31.999Z</time></trkpt><trkpt lat="44.9133064924907" lon="9.978494291902686"><ele>57.166666666666664</ele><time>2026-04-25T06:33:32.999Z</time></trkpt><trkpt lat="44.91325279336944" lon="9.978570838280243"><ele>57.33333333333333</ele><time>2026-04-25T06:33:33.999Z</time></trkpt><trkpt lat="44.91320096635777" lon="9.978649077307141"><ele>57.5</ele><time>2026-04-25T06:33:34.999Z</time></trkpt><trkpt lat="44.91314782948151" lon="9.978725636861563"><ele>57.666666666666664</ele><time>2026-04-25T06:33:35.999Z</time></trkpt><trkpt lat="44.9130984310836" lon="9.978810776398866"><ele>57.83333333333333</ele><time>2026-04-25T06:33:36.999Z</time></trkpt><trkpt lat="44.913050192665835" lon="9.978888324001993"><ele>58.0</ele><time>2026-04-25T06:33:37.999Z</time></trkpt><trkpt lat="44.91299732150153" lon="9.978959558362236"><ele>57.99999999999999</ele><time>2026-04-25T06:33:38.999Z</time></trkpt><trkpt lat="44.912948109153234" lon="9.979027318482547"><ele>58.0</ele><time>2026-04-25T06:33:39.999Z</time></trkpt><trkpt lat="44.91289538835094" lon="9.97909810262223"><ele>58.0</ele><time>2026-04-25T06:33:40.999Z</time></trkpt><trkpt lat="44.912840490731554" lon="9.979175174173971"><ele>58.0</ele><time>2026-04-25T06:33:41.999Z</time></trkpt><trkpt lat="44.912782789454425" lon="9.979256218134303"><ele>57.99999999999999</ele><time>2026-04-25T06:33:42.999Z</time></trkpt><trkpt lat="44.912724047004836" lon="9.97933707962601"><ele>58.0</ele><time>2026-04-25T06:33:43.999Z</time></trkpt><trkpt lat="44.912669226805704" lon="9.979414739974617"><ele>58.14285714285715</ele><time>2026-04-25T06:33:44.999Z</time></trkpt><trkpt lat="44.91261608001544" lon="9.979490738068304"><ele>58.28571428571429</ele><time>2026-04-25T06:33:45.999Z</time></trkpt><trkpt lat="44.91256471585204" lon="9.979561790158433"><ele>58.42857142857143</ele><time>2026-04-25T06:33:46.999Z</time></trkpt><trkpt lat="44.912512961743026" lon="9.979630267280411"><ele>58.57142857142858</ele><time>2026-04-25T06:33:47.999Z</time></trkpt><trkpt lat="44.91246228245159" lon="9.97969807186825"><ele>58.71428571428572</ele><time>2026-04-25T06:33:48.999Z</time></trkpt><trkpt lat="44.91241586662054" lon="9.979767162948582"><ele>58.857142857142854</ele><time>2026-04-25T06:33:49.999Z</time></trkpt><trkpt lat="44.9123672370579" lon="9.979832993894975"><ele>59.0</ele><time>2026-04-25T06:33:50.999Z</time></trkpt><trkpt lat="44.91231589407945" lon="9.979907968880934"><ele>59.14285714285714</ele><time>2026-04-25T06:33:51.999Z</time></trkpt><trkpt lat="44.912263568085415" lon="9.979976341623319"><ele>59.28571428571429</ele><time>2026-04-25T06:33:52.999Z</time></trkpt><trkpt lat="44.91220804848065" lon="9.980040020166443"><ele>59.42857142857143</ele><time>2026-04-25T06:33:53.999Z</time></trkpt><trkpt lat="44.9121415664167" lon="9.980076711534819"><ele>59.57142857142857</ele><time>2026-04-25T06:33:54.999Z</time></trkpt><trkpt lat="44.912065738431984" lon="9.980087133045085"><ele>59.71428571428571</ele><time>2026-04-25T06:33:55.999Z</time></trkpt><trkpt lat="44.91198913475265" lon="9.980073429983923"><ele>59.85714285714286</ele><time>2026-04-25T06:33:56.999Z</time></trkpt><trkpt lat="44.91191738908473" lon="9.980031883794638"><ele>60.0</ele><time>2026-04-25T06:33:57.999Z</time></trkpt><trkpt lat="44.91185247616216" lon="9.979973804127942"><ele>60.0</ele><time>2026-04-25T06:33:58.999Z</time></trkpt><trkpt lat="44.911789311912756" lon="9.97991620667673"><ele>60.0</ele><time>2026-04-25T06:33:59.999Z</time></trkpt><trkpt lat="44.91172287081127" lon="9.979867334568521"><ele>60.0</ele><time>2026-04-25T06:34:00.999Z</time></trkpt><trkpt lat="44.91165536713234" lon="9.97981842662043"><ele>60.0</ele><time>2026-04-25T06:34:01.999Z</time></trkpt><trkpt lat="44.91158782749872" lon="9.979768923261686"><ele>60.0</ele><time>2026-04-25T06:34:02.999Z</time></trkpt><trkpt lat="44.91151969825633" lon="9.97972283093638"><ele>60.0</ele><time>2026-04-25T06:34:03.999Z</time></trkpt><trkpt lat="44.911452001484406" lon="9.979676489753972"><ele>60.28571428571429</ele><time>2026-04-25T06:34:04.999Z</time></trkpt><trkpt lat="44.91138344819235" lon="9.979628242808527"><ele>60.57142857142857</ele><time>2026-04-25T06:34:05.999Z</time></trkpt><trkpt lat="44.9113153276994" lon="9.979579932158922"><ele>60.85714285714286</ele><time>2026-04-25T06:34:06.999Z</time></trkpt><trkpt lat="44.91124713223507" lon="9.97953330582832"><ele>61.142857142857146</ele><time>2026-04-25T06:34:07.999Z</time></trkpt><trkpt lat="44.91118188804055" lon="9.97948604165052"><ele>61.42857142857143</ele><time>2026-04-25T06:34:08.999Z</time></trkpt><trkpt lat="44.911117415605176" lon="9.97943825061406"><ele>61.714285714285715</ele><time>2026-04-25T06:34:09.999Z</time></trkpt><trkpt lat="44.911053729619304" lon="9.979394812494665"><ele>62.0</ele><time>2026-04-25T06:34:10.999Z</time></trkpt><trkpt lat="44.91098805851154" lon="9.979349325686792"><ele>62.0</ele><time>2026-04-25T06:34:11.999Z</time></trkpt><trkpt lat="44.91092339793135" lon="9.979303311993853"><ele>62.00000000000001</ele><time>2026-04-25T06:34:12.999Z</time></trkpt><trkpt lat="44.91085706628503" lon="9.979260185578744"><ele>62.0</ele><time>2026-04-25T06:34:13.999Z</time></trkpt><trkpt lat="44.910793165717465" lon="9.979216645385787"><ele>62.0</ele><time>2026-04-25T06:34:14.999Z</time></trkpt><trkpt lat="44.91072582195443" lon="9.979170364531951"><ele>62.00000000000001</ele><time>2026-04-25T06:34:15.999Z</time></trkpt><trkpt lat="44.91065847488561" lon="9.979128119759837"><ele>62.0</ele><time>2026-04-25T06:34:16.999Z</time></trkpt><trkpt lat="44.91059201882119" lon="9.979081290604341"><ele>62.0</ele><time>2026-04-25T06:34:17.999Z</time></trkpt><trkpt lat="44.91052780973262" lon="9.97903352417256"><ele>61.85714285714286</ele><time>2026-04-25T06:34:18.999Z</time></trkpt><trkpt lat="44.91045958247747" lon="9.978990138545292"><ele>61.71428571428572</ele><time>2026-04-25T06:34:19.998Z</time></trkpt><trkpt lat="44.91039403884175" lon="9.978942876954292"><ele>61.57142857142857</ele><time>2026-04-25T06:34:20.998Z</time></trkpt><trkpt lat="44.91032784892145" lon="9.978895401418768"><ele>61.42857142857143</ele><time>2026-04-25T06:34:21.998Z</time></trkpt><trkpt lat="44.910263257466866" lon="9.978846456244549"><ele>61.285714285714285</ele><time>2026-04-25T06:34:22.998Z</time></trkpt><trkpt lat="44.91019707451568" lon="9.978801162154872"><ele>61.14285714285714</ele><time>2026-04-25T06:34:23.998Z</time></trkpt><trkpt lat="44.910131052271" lon="9.978755296612821"><ele>60.99999999999999</ele><time>2026-04-25T06:34:24.998Z</time></trkpt><trkpt lat="44.910065140024685" lon="9.978709713418729"><ele>60.99999999999999</ele><time>2026-04-25T06:34:25.998Z</time></trkpt><trkpt lat="44.90999948986327" lon="9.978665404723406"><ele>61.0</ele><time>2026-04-25T06:34:26.998Z</time></trkpt><trkpt lat="44.90993420069875" lon="9.978620013863226"><ele>60.99999999999999</ele><time>2026-04-25T06:34:27.998Z</time></trkpt><trkpt lat="44.9098682835162" lon="9.978574806604291"><ele>60.99999999999999</ele><time>2026-04-25T06:34:28.998Z</time></trkpt><trkpt lat="44.90980256922896" lon="9.978531693698292"><ele>61.0</ele><time>2026-04-25T06:34:29.998Z</time></trkpt><trkpt lat="44.90973465306357" lon="9.978485243041948"><ele>60.99999999999999</ele><time>2026-04-25T06:34:30.998Z</time></trkpt><trkpt lat="44.90966882560956" lon="9.978437781887623"><ele>60.99999999999999</ele><time>2026-04-25T06:34:31.998Z</time></trkpt><trkpt lat="44.90960224376606" lon="9.97839062944791"><ele>60.99999999999999</ele><time>2026-04-25T06:34:32.998Z</time></trkpt><trkpt lat="44.90953728133543" lon="9.978346315571294"><ele>61.0</ele><time>2026-04-25T06:34:33.998Z</time></trkpt><trkpt lat="44.90946827938402" lon="9.978299890956949"><ele>60.99999999999999</ele><time>2026-04-25T06:34:34.998Z</time></trkpt><trkpt lat="44.90940222599054" lon="9.978258686088859"><ele>60.99999999999999</ele><time>2026-04-25T06:34:35.998Z</time></trkpt><trkpt lat="44.90933645914298" lon="9.978211859271031"><ele>61.0</ele><time>2026-04-25T06:34:36.998Z</time></trkpt><trkpt lat="44.909272373719155" lon="9.978166717238953"><ele>60.99999999999999</ele><time>2026-04-25T06:34:37.998Z</time></trkpt><trkpt lat="44.9092061046125" lon="9.978122673010192"><ele>60.99999999999999</ele><time>2026-04-25T06:34:38.998Z</time></trkpt><trkpt lat="44.909140421579266" lon="9.978080564477992"><ele>60.99999999999999</ele><time>2026-04-25T06:34:39.998Z</time></trkpt><trkpt lat="44.909076507213385" lon="9.978035739908139"><ele>61.0</ele><time>2026-04-25T06:34:40.998Z</time></trkpt><trkpt lat="44.90901142636888" lon="9.977989622052277"><ele>60.99999999999999</ele><time>2026-04-25T06:34:42Z</time></trkpt><trkpt lat="44.90894635998915" lon="9.977945502765646"><ele>60.99999999999999</ele><time>2026-04-25T06:34:43Z</time></trkpt><trkpt lat="44.90888012068159" lon="9.977901779690505"><ele>61.0</ele><time>2026-04-25T06:34:44Z</time></trkpt><trkpt lat="44.908816383462465" lon="9.977857723776994"><ele>60.99999999999999</ele><time>2026-04-25T06:34:45Z</time></trkpt><trkpt lat="44.90874903395166" lon="9.97781281546896"><ele>60.99999999999999</ele><time>2026-04-25T06:34:46Z</time></trkpt><trkpt lat="44.90868422125859" lon="9.97776769482307"><ele>60.99999999999999</ele><time>2026-04-25T06:34:47Z</time></trkpt><trkpt lat="44.908619267616935" lon="9.977723427915516"><ele>61.0</ele><time>2026-04-25T06:34:48Z</time></trkpt><trkpt lat="44.90855398426524" lon="9.977677566803253"><ele>60.99999999999999</ele><time>2026-04-25T06:34:49Z</time></trkpt><trkpt lat="44.90848774823565" lon="9.977634985828196"><ele>60.99999999999999</ele><time>2026-04-25T06:34:50Z</time></trkpt><trkpt lat="44.908423159318076" lon="9.977587065077007"><ele>61.0</ele><time>2026-04-25T06:34:51Z</time></trkpt><trkpt lat="44.90835701190239" lon="9.977541765404787"><ele>60.99999999999999</ele><time>2026-04-25T06:34:52Z</time></trkpt><trkpt lat="44.90829050716427" lon="9.977493172178873"><ele>60.99999999999999</ele><time>2026-04-25T06:34:53Z</time></trkpt><trkpt lat="44.90822453543216" lon="9.977448231291165"><ele>61.14285714285714</ele><time>2026-04-25T06:34:54Z</time></trkpt><trkpt lat="44.90815682077679" lon="9.977402021863215"><ele>61.285714285714285</ele><time>2026-04-25T06:34:55Z</time></trkpt><trkpt lat="44.908090677792174" lon="9.977357500171525"><ele>61.42857142857143</ele><time>2026-04-25T06:34:56Z</time></trkpt><trkpt lat="44.90802554862635" lon="9.977313337158249"><ele>61.57142857142857</ele><time>2026-04-25T06:34:57Z</time></trkpt><trkpt lat="44.907960370081355" lon="9.977269774105153"><ele>61.71428571428572</ele><time>2026-04-25T06:34:58Z</time></trkpt><trkpt lat="44.90789520799743" lon="9.977225733506259"><ele>61.85714285714286</ele><time>2026-04-25T06:34:59Z</time></trkpt><trkpt lat="44.90783050988045" lon="9.977182456775195"><ele>62.0</ele><time>2026-04-25T06:35:00Z</time></trkpt><trkpt lat="44.90776467828548" lon="9.977136750659023"><ele>62.0</ele><time>2026-04-25T06:35:01Z</time></trkpt><trkpt lat="44.90770065935404" lon="9.977089216063431"><ele>62.00000000000001</ele><time>2026-04-25T06:35:02Z</time></trkpt><trkpt lat="44.90763637220833" lon="9.977045156303635"><ele>62.0</ele><time>2026-04-25T06:35:03Z</time></trkpt><trkpt lat="44.9075709683952" lon="9.977002969846337"><ele>62.0</ele><time>2026-04-25T06:35:04Z</time></trkpt><trkpt lat="44.907505126904745" lon="9.976959968335624"><ele>62.00000000000001</ele><time>2026-04-25T06:35:05Z</time></trkpt><trkpt lat="44.90744139735492" lon="9.976920072045159"><ele>62.0</ele><time>2026-04-25T06:35:06Z</time></trkpt><trkpt lat="44.90737974062757" lon="9.97687859353609"><ele>62.0</ele><time>2026-04-25T06:35:07Z</time></trkpt><trkpt lat="44.907319976521265" lon="9.976838900061077"><ele>62.142857142857146</ele><time>2026-04-25T06:35:08Z</time></trkpt><trkpt lat="44.907260929018406" lon="9.976799659313812"><ele>62.28571428571429</ele><time>2026-04-25T06:35:09Z</time></trkpt><trkpt lat="44.90720198447002" lon="9.976761301138"><ele>62.42857142857143</ele><time>2026-04-25T06:35:10Z</time></trkpt><trkpt lat="44.90714405814391" lon="9.976719442771993"><ele>62.57142857142857</ele><time>2026-04-25T06:35:11Z</time></trkpt><trkpt lat="44.90708497978013" lon="9.976674318394986"><ele>62.714285714285715</ele><time>2026-04-25T06:35:12Z</time></trkpt><trkpt lat="44.90702618826372" lon="9.97663119219329"><ele>62.85714285714286</ele><time>2026-04-25T06:35:13Z</time></trkpt><trkpt lat="44.90697009169336" lon="9.976586634317885"><ele>63.0</ele><time>2026-04-25T06:35:14Z</time></trkpt><trkpt lat="44.906913850733616" lon="9.976546404355933"><ele>63.0</ele><time>2026-04-25T06:35:15Z</time></trkpt><trkpt lat="44.90680646799154" lon="9.976464075051954"><ele>63.0</ele><time>2026-04-25T06:35:17Z</time></trkpt><trkpt lat="44.906701229202085" lon="9.976391988939847"><ele>63.0</ele><time>2026-04-25T06:35:19Z</time></trkpt><trkpt lat="44.90659789629674" lon="9.97632577006205"><ele>63.0</ele><time>2026-04-25T06:35:21Z</time></trkpt><trkpt lat="44.90651415068353" lon="9.976269801995175"><ele>63.0</ele><time>2026-04-25T06:35:23Z</time></trkpt><trkpt lat="44.90644019385036" lon="9.976219784349157"><ele>63.0</ele><time>2026-04-25T06:36:15.999Z</time></trkpt><trkpt lat="44.90634793555394" lon="9.97615890085951"><ele>63.0</ele><time>2026-04-25T06:36:18.999Z</time></trkpt><trkpt lat="44.906265485779535" lon="9.976096512347233"><ele>63.0</ele><time>2026-04-25T06:36:20.999Z</time></trkpt><trkpt lat="44.90616654491725" lon="9.976025270740985"><ele>63.0</ele><time>2026-04-25T06:36:22.999Z</time></trkpt><trkpt lat="44.90605267025709" lon="9.975955188976041"><ele>63.0</ele><time>2026-04-25T06:36:24.998Z</time></trkpt><trkpt lat="44.90599366867397" lon="9.97591548810742"><ele>63.0</ele><time>2026-04-25T06:36:25.998Z</time></trkpt><trkpt lat="44.905934348057876" lon="9.975874858397127"><ele>63.0</ele><time>2026-04-25T06:36:26.998Z</time></trkpt><trkpt lat="44.90587200126371" lon="9.975834738686611"><ele>63.0</ele><time>2026-04-25T06:36:27.998Z</time></trkpt><trkpt lat="44.905809517198065" lon="9.97579434738337"><ele>63.0</ele><time>2026-04-25T06:36:28.998Z</time></trkpt><trkpt lat="44.905745896149185" lon="9.97575037782857"><ele>63.0</ele><time>2026-04-25T06:36:29.998Z</time></trkpt><trkpt lat="44.90568155474902" lon="9.975707490310281"><ele>63.0</ele><time>2026-04-25T06:36:30.998Z</time></trkpt><trkpt lat="44.90561638570812" lon="9.97566149567029"><ele>63.0</ele><time>2026-04-25T06:36:31.998Z</time></trkpt><trkpt lat="44.90555015619915" lon="9.975615697026452"><ele>63.285714285714285</ele><time>2026-04-25T06:36:32.998Z</time></trkpt><trkpt lat="44.9054838192536" lon="9.975570030787841"><ele>63.57142857142857</ele><time>2026-04-25T06:36:33.998Z</time></trkpt><trkpt lat="44.9054172717066" lon="9.97552539235523"><ele>63.85714285714286</ele><time>2026-04-25T06:36:34.998Z</time></trkpt><trkpt lat="44.90534774660449" lon="9.975479422135258"><ele>64.14285714285714</ele><time>2026-04-25T06:36:35.998Z</time></trkpt><trkpt lat="44.90528234264592" lon="9.975433815169366"><ele>64.42857142857143</ele><time>2026-04-25T06:36:36.998Z</time></trkpt><trkpt lat="44.90521721314384" lon="9.975390869528345"><ele>64.71428571428572</ele><time>2026-04-25T06:36:37.998Z</time></trkpt><trkpt lat="44.9051482124504" lon="9.975343483253164"><ele>65.0</ele><time>2026-04-25T06:36:38.998Z</time></trkpt><trkpt lat="44.90507908380761" lon="9.975297785959562"><ele>65.0</ele><time>2026-04-25T06:36:39.998Z</time></trkpt><trkpt lat="44.905009857066986" lon="9.975248391070584"><ele>65.0</ele><time>2026-04-25T06:36:40.998Z</time></trkpt><trkpt lat="44.90493953262403" lon="9.975200925753503"><ele>65.0</ele><time>2026-04-25T06:36:41.998Z</time></trkpt><trkpt lat="44.90486950513141" lon="9.97515264265231"><ele>65.0</ele><time>2026-04-25T06:36:42.998Z</time></trkpt><trkpt lat="44.904798375904356" lon="9.975100388632498"><ele>65.0</ele><time>2026-04-25T06:36:43.998Z</time></trkpt><trkpt lat="44.90472808910931" lon="9.975054225385914"><ele>65.0</ele><time>2026-04-25T06:36:44.998Z</time></trkpt><trkpt lat="44.90465839330972" lon="9.975006120978053"><ele>65.0</ele><time>2026-04-25T06:36:45.998Z</time></trkpt><trkpt lat="44.9045907792923" lon="9.9749534929236"><ele>65.0</ele><time>2026-04-25T06:36:46.998Z</time></trkpt><trkpt lat="44.90452260495935" lon="9.974900150294598"><ele>65.0</ele><time>2026-04-25T06:36:48Z</time></trkpt><trkpt lat="44.904453023192175" lon="9.97485414046695"><ele>65.0</ele><time>2026-04-25T06:36:49Z</time></trkpt><trkpt lat="44.90438457257991" lon="9.974807968546408"><ele>65.0</ele><time>2026-04-25T06:36:50Z</time></trkpt><trkpt lat="44.904314290618885" lon="9.97475711005893"><ele>65.0</ele><time>2026-04-25T06:36:51Z</time></trkpt><trkpt lat="44.90424678480474" lon="9.974712539964315"><ele>65.16666666666667</ele><time>2026-04-25T06:36:52Z</time></trkpt><trkpt lat="44.904175379658135" lon="9.974666518832414"><ele>65.33333333333334</ele><time>2026-04-25T06:36:53Z</time></trkpt><trkpt lat="44.904108483250546" lon="9.974618344491745"><ele>65.5</ele><time>2026-04-25T06:36:54Z</time></trkpt><trkpt lat="44.90403814915321" lon="9.974572432278798"><ele>65.66666666666667</ele><time>2026-04-25T06:36:55Z</time></trkpt><trkpt lat="44.903967992751575" lon="9.974528564567402"><ele>65.83333333333333</ele><time>2026-04-25T06:36:56Z</time></trkpt><trkpt lat="44.90389965220161" lon="9.974482459584763"><ele>66.0</ele><time>2026-04-25T06:36:57Z</time></trkpt><trkpt lat="44.903831398070096" lon="9.974432896263464"><ele>66.0</ele><time>2026-04-25T06:36:58Z</time></trkpt><trkpt lat="44.903761018560644" lon="9.974383617581893"><ele>66.0</ele><time>2026-04-25T06:36:59Z</time></trkpt><trkpt lat="44.90369037767892" lon="9.974336068325645"><ele>66.0</ele><time>2026-04-25T06:37:00Z</time></trkpt><trkpt lat="44.90362136374572" lon="9.974288305166294"><ele>66.0</ele><time>2026-04-25T06:37:01Z</time></trkpt><trkpt lat="44.90355059152108" lon="9.974242473982802"><ele>66.0</ele><time>2026-04-25T06:37:02Z</time></trkpt><trkpt lat="44.90347800663098" lon="9.974195661340044"><ele>66.0</ele><time>2026-04-25T06:37:03Z</time></trkpt><trkpt lat="44.90340842678776" lon="9.974149016464592"><ele>66.16666666666667</ele><time>2026-04-25T06:37:04Z</time></trkpt><trkpt lat="44.903338534715765" lon="9.97409885317812"><ele>66.33333333333333</ele><time>2026-04-25T06:37:05Z</time></trkpt><trkpt lat="44.90326911505478" lon="9.974053348262649"><ele>66.5</ele><time>2026-04-25T06:37:06Z</time></trkpt><trkpt lat="44.903200665378634" lon="9.974004472462214"><ele>66.66666666666666</ele><time>2026-04-25T06:37:07Z</time></trkpt><trkpt lat="44.90313099845408" lon="9.973957329428798"><ele>66.83333333333333</ele><time>2026-04-25T06:37:08Z</time></trkpt><trkpt lat="44.90306307747522" lon="9.973909759882822"><ele>67.0</ele><time>2026-04-25T06:37:09Z</time></trkpt><trkpt lat="44.90299334864989" lon="9.973860163598447"><ele>67.0</ele><time>2026-04-25T06:37:10Z</time></trkpt><trkpt lat="44.90293033734957" lon="9.97381487340424"><ele>67.0</ele><time>2026-04-25T06:37:11Z</time></trkpt><trkpt lat="44.902858155140486" lon="9.973758978601234"><ele>67.0</ele><time>2026-04-25T06:37:12Z</time></trkpt><trkpt lat="44.90279442186019" lon="9.973708773813227"><ele>67.0</ele><time>2026-04-25T06:37:13Z</time></trkpt><trkpt lat="44.902725110294" lon="9.973658276429651"><ele>67.0</ele><time>2026-04-25T06:37:14Z</time></trkpt><trkpt lat="44.90265425665066" lon="9.97361248246388"><ele>67.0</ele><time>2026-04-25T06:37:15Z</time></trkpt><trkpt lat="44.90258318053161" lon="9.973571977570582"><ele>67.33333333333333</ele><time>2026-04-25T06:37:16Z</time></trkpt><trkpt lat="44.902511198204664" lon="9.973538307786056"><ele>67.66666666666666</ele><time>2026-04-25T06:37:17Z</time></trkpt><trkpt lat="44.90243796983922" lon="9.973507088251774"><ele>68.0</ele><time>2026-04-25T06:37:18Z</time></trkpt><trkpt lat="44.90236011146224" lon="9.97348289308842"><ele>68.33333333333333</ele><time>2026-04-25T06:37:19Z</time></trkpt><trkpt lat="44.90228051316074" lon="9.973461231432168"><ele>68.66666666666667</ele><time>2026-04-25T06:37:20Z</time></trkpt><trkpt lat="44.90219164659884" lon="9.973442084576028"><ele>69.0</ele><time>2026-04-25T06:37:21Z</time></trkpt><trkpt lat="44.902105074749336" lon="9.973415611661691"><ele>69.0</ele><time>2026-04-25T06:37:22Z</time></trkpt><trkpt lat="44.9020158187505" lon="9.973385409317515"><ele>69.0</ele><time>2026-04-25T06:37:23Z</time></trkpt><trkpt lat="44.90192571496029" lon="9.973342877873225"><ele>69.0</ele><time>2026-04-25T06:37:24Z</time></trkpt><trkpt lat="44.90183027886007" lon="9.973299147257729"><ele>69.0</ele><time>2026-04-25T06:37:25Z</time></trkpt><trkpt lat="44.901737787335094" lon="9.973245710444608"><ele>69.0</ele><time>2026-04-25T06:37:26Z</time></trkpt><trkpt lat="44.90164114445581" lon="9.973186846306172"><ele>68.8</ele><time>2026-04-25T06:37:27Z</time></trkpt><trkpt lat="44.9015501754289" lon="9.973137510403266"><ele>68.60000000000001</ele><time>2026-04-25T06:37:28Z</time></trkpt><trkpt lat="44.90146476789808" lon="9.973072302493946"><ele>68.4</ele><time>2026-04-25T06:37:29Z</time></trkpt><trkpt lat="44.90137380229983" lon="9.97303893828724"><ele>68.2</ele><time>2026-04-25T06:37:30Z</time></trkpt><trkpt lat="44.901296319497334" lon="9.972985163967088"><ele>68.0</ele><time>2026-04-25T06:37:31Z</time></trkpt><trkpt lat="44.9012210121211" lon="9.972930833649"><ele>67.99999999999999</ele><time>2026-04-25T06:37:32Z</time></trkpt><trkpt lat="44.90114896159511" lon="9.972884969500452"><ele>68.0</ele><time>2026-04-25T06:37:33Z</time></trkpt><trkpt lat="44.901078537592646" lon="9.972836135872981"><ele>68.0</ele><time>2026-04-25T06:37:34Z</time></trkpt><trkpt lat="44.901012381388476" lon="9.972779527450193"><ele>68.0</ele><time>2026-04-25T06:37:35Z</time></trkpt><trkpt lat="44.90095438212483" lon="9.972725762022995"><ele>68.0</ele><time>2026-04-25T06:37:35.999Z</time></trkpt><trkpt lat="44.900899813157174" lon="9.972667880711523"><ele>67.99999999999999</ele><time>2026-04-25T06:37:36.999Z</time></trkpt><trkpt lat="44.90084941285135" lon="9.972603614792206"><ele>68.0</ele><time>2026-04-25T06:37:37.999Z</time></trkpt><trkpt lat="44.90080228559835" lon="9.972541636098505"><ele>68.4</ele><time>2026-04-25T06:37:38.999Z</time></trkpt><trkpt lat="44.90075600909279" lon="9.972474777536565"><ele>68.8</ele><time>2026-04-25T06:37:39.999Z</time></trkpt><trkpt lat="44.9006752824136" lon="9.972346376944499"><ele>69.2</ele><time>2026-04-25T06:37:41.999Z</time></trkpt><trkpt lat="44.90059633454222" lon="9.972213039769258"><ele>69.6</ele><time>2026-04-25T06:37:43.999Z</time></trkpt><trkpt lat="44.90051976702757" lon="9.972075915087705"><ele>70.0</ele><time>2026-04-25T06:37:45.999Z</time></trkpt><trkpt lat="44.900483529139265" lon="9.97200263748446"><ele>70.0</ele><time>2026-04-25T06:37:46.999Z</time></trkpt><trkpt lat="44.900440945932566" lon="9.971930854499488"><ele>70.0</ele><time>2026-04-25T06:37:47.999Z</time></trkpt><trkpt lat="44.900396485945556" lon="9.971861125565917"><ele>70.0</ele><time>2026-04-25T06:37:48.999Z</time></trkpt><trkpt lat="44.90035032066702" lon="9.971790603329799"><ele>70.0</ele><time>2026-04-25T06:37:49.999Z</time></trkpt><trkpt lat="44.90030267129922" lon="9.971723166237998"><ele>70.0</ele><time>2026-04-25T06:37:50.999Z</time></trkpt><trkpt lat="44.90025109769955" lon="9.971654115836888"><ele>70.0</ele><time>2026-04-25T06:37:51.999Z</time></trkpt><trkpt lat="44.90019744089126" lon="9.971592647817308"><ele>70.0</ele><time>2026-04-25T06:37:52.999Z</time></trkpt><trkpt lat="44.90014285882984" lon="9.971528302181431"><ele>70.28571428571429</ele><time>2026-04-25T06:37:53.999Z</time></trkpt><trkpt lat="44.900086150674696" lon="9.971474169162576"><ele>70.57142857142857</ele><time>2026-04-25T06:37:54.999Z</time></trkpt><trkpt lat="44.90002323432042" lon="9.971414445153261"><ele>70.85714285714286</ele><time>2026-04-25T06:37:55.999Z</time></trkpt><trkpt lat="44.89996456181312" lon="9.97135632254074"><ele>71.14285714285714</ele><time>2026-04-25T06:37:56.999Z</time></trkpt><trkpt lat="44.899903490751406" lon="9.971297130767592"><ele>71.42857142857143</ele><time>2026-04-25T06:37:57.999Z</time></trkpt><trkpt lat="44.89984597590604" lon="9.971240314487044"><ele>71.71428571428572</ele><time>2026-04-25T06:37:58.999Z</time></trkpt><trkpt lat="44.899786987841274" lon="9.971183202267413"><ele>72.0</ele><time>2026-04-25T06:37:59.999Z</time></trkpt><trkpt lat="44.899729948110355" lon="9.971127322293388"><ele>72.00000000000001</ele><time>2026-04-25T06:38:00.999Z</time></trkpt><trkpt lat="44.89966898381799" lon="9.971074085276655"><ele>72.0</ele><time>2026-04-25T06:38:01.999Z</time></trkpt><trkpt lat="44.89961084533087" lon="9.971017305395259"><ele>72.0</ele><time>2026-04-25T06:38:02.999Z</time></trkpt><trkpt lat="44.899552253738875" lon="9.970960359959964"><ele>72.0</ele><time>2026-04-25T06:38:03.999Z</time></trkpt><trkpt lat="44.89949269658071" lon="9.970906802362977"><ele>72.0</ele><time>2026-04-25T06:38:04.999Z</time></trkpt><trkpt lat="44.89943430815717" lon="9.970853516206542"><ele>72.00000000000001</ele><time>2026-04-25T06:38:05.999Z</time></trkpt><trkpt lat="44.89937741953911" lon="9.97079996417995"><ele>72.0</ele><time>2026-04-25T06:38:06.999Z</time></trkpt><trkpt lat="44.89932093130361" lon="9.970740294534274"><ele>72.28571428571429</ele><time>2026-04-25T06:38:07.999Z</time></trkpt><trkpt lat="44.8992636198101" lon="9.970687333951055"><ele>72.57142857142857</ele><time>2026-04-25T06:38:08.999Z</time></trkpt><trkpt lat="44.89920803983907" lon="9.970634264276534"><ele>72.85714285714286</ele><time>2026-04-25T06:38:09.999Z</time></trkpt><trkpt lat="44.89915197856007" lon="9.97057947625155"><ele>73.14285714285714</ele><time>2026-04-25T06:38:10.999Z</time></trkpt><trkpt lat="44.89909481307469" lon="9.970526209998846"><ele>73.42857142857143</ele><time>2026-04-25T06:38:11.999Z</time></trkpt><trkpt lat="44.89903891295799" lon="9.970471987234797"><ele>73.71428571428572</ele><time>2026-04-25T06:38:12.999Z</time></trkpt><trkpt lat="44.89898400940258" lon="9.97041745863377"><ele>74.0</ele><time>2026-04-25T06:38:13.999Z</time></trkpt><trkpt lat="44.89892566115136" lon="9.97036347359873"><ele>74.0</ele><time>2026-04-25T06:38:14.999Z</time></trkpt><trkpt lat="44.89887035343267" lon="9.970307108093175"><ele>74.0</ele><time>2026-04-25T06:38:15.999Z</time></trkpt><trkpt lat="44.898814098019976" lon="9.970254988999852"><ele>74.0</ele><time>2026-04-25T06:38:16.999Z</time></trkpt><trkpt lat="44.89875885638818" lon="9.970202062711387"><ele>74.0</ele><time>2026-04-25T06:38:17.999Z</time></trkpt><trkpt lat="44.89870080182114" lon="9.970147009993795"><ele>74.0</ele><time>2026-04-25T06:38:18.999Z</time></trkpt><trkpt lat="44.898643753387965" lon="9.970091782984932"><ele>74.0</ele><time>2026-04-25T06:38:19.999Z</time></trkpt><trkpt lat="44.89858903137425" lon="9.970042868939995"><ele>74.0</ele><time>2026-04-25T06:38:20.999Z</time></trkpt><trkpt lat="44.89853097426139" lon="9.969988892460757"><ele>74.0</ele><time>2026-04-25T06:38:21.999Z</time></trkpt><trkpt lat="44.89847784553961" lon="9.969936675912695"><ele>74.0</ele><time>2026-04-25T06:38:22.999Z</time></trkpt><trkpt lat="44.89842123094705" lon="9.969885913228966"><ele>74.0</ele><time>2026-04-25T06:38:23.999Z</time></trkpt><trkpt lat="44.89836537623552" lon="9.969833654061844"><ele>74.0</ele><time>2026-04-25T06:38:24.999Z</time></trkpt><trkpt lat="44.89830983793834" lon="9.969779841064735"><ele>74.0</ele><time>2026-04-25T06:38:25.999Z</time></trkpt><trkpt lat="44.89825425190022" lon="9.969731947997078"><ele>74.0</ele><time>2026-04-25T06:38:26.999Z</time></trkpt><trkpt lat="44.89819634614612" lon="9.969681208330327"><ele>74.0</ele><time>2026-04-25T06:38:27.999Z</time></trkpt><trkpt lat="44.8981405718629" lon="9.969631739214497"><ele>74.14285714285714</ele><time>2026-04-25T06:38:28.998Z</time></trkpt><trkpt lat="44.89808541345062" lon="9.969581933858256"><ele>74.28571428571428</ele><time>2026-04-25T06:38:29.998Z</time></trkpt><trkpt lat="44.89802716404473" lon="9.96953046288462"><ele>74.42857142857142</ele><time>2026-04-25T06:38:30.998Z</time></trkpt><trkpt lat="44.897970624584374" lon="9.969480717871747"><ele>74.57142857142857</ele><time>2026-04-25T06:38:31.998Z</time></trkpt><trkpt lat="44.897912261366514" lon="9.969431527528839"><ele>74.71428571428571</ele><time>2026-04-25T06:38:32.998Z</time></trkpt><trkpt lat="44.897853466588884" lon="9.969379892139823"><ele>74.85714285714285</ele><time>2026-04-25T06:38:33.998Z</time></trkpt><trkpt lat="44.897797377406405" lon="9.969325863369065"><ele>75.0</ele><time>2026-04-25T06:38:34.998Z</time></trkpt><trkpt lat="44.89773935708144" lon="9.969270682051384"><ele>74.99999999999999</ele><time>2026-04-25T06:38:35.998Z</time></trkpt><trkpt lat="44.89768165356188" lon="9.969215433605514"><ele>75.0</ele><time>2026-04-25T06:38:36.998Z</time></trkpt><trkpt lat="44.89762249610441" lon="9.969162451024243"><ele>75.0</ele><time>2026-04-25T06:38:37.998Z</time></trkpt><trkpt lat="44.89756510907473" lon="9.969105974061156"><ele>75.0</ele><time>2026-04-25T06:38:38.998Z</time></trkpt><trkpt lat="44.89750719585115" lon="9.969050784708852"><ele>75.0</ele><time>2026-04-25T06:38:39.998Z</time></trkpt><trkpt lat="44.897446457473045" lon="9.969000321921673"><ele>74.99999999999999</ele><time>2026-04-25T06:38:40.998Z</time></trkpt><trkpt lat="44.89738966867782" lon="9.968939075197483"><ele>75.0</ele><time>2026-04-25T06:38:41.998Z</time></trkpt><trkpt lat="44.89732970453609" lon="9.96888894454016"><ele>75.28571428571428</ele><time>2026-04-25T06:38:42.998Z</time></trkpt><trkpt lat="44.897272621962124" lon="9.968825701277757"><ele>75.57142857142857</ele><time>2026-04-25T06:38:43.998Z</time></trkpt><trkpt lat="44.897214118907186" lon="9.96876862419026"><ele>75.85714285714286</ele><time>2026-04-25T06:38:44.998Z</time></trkpt><trkpt lat="44.89715879891288" lon="9.968710168610697"><ele>76.14285714285714</ele><time>2026-04-25T06:38:45.998Z</time></trkpt><trkpt lat="44.89709983336738" lon="9.968655207531624"><ele>76.42857142857143</ele><time>2026-04-25T06:38:46.998Z</time></trkpt><trkpt lat="44.89704137924093" lon="9.968603546770243"><ele>76.71428571428571</ele><time>2026-04-25T06:38:47.998Z</time></trkpt><trkpt lat="44.89698243001057" lon="9.968548641762728"><ele>77.0</ele><time>2026-04-25T06:38:48.998Z</time></trkpt><trkpt lat="44.896924885899985" lon="9.968495512306577"><ele>77.0</ele><time>2026-04-25T06:38:49.998Z</time></trkpt><trkpt lat="44.8968691484622" lon="9.968433213387573"><ele>77.0</ele><time>2026-04-25T06:38:50.998Z</time></trkpt><trkpt lat="44.89681247983147" lon="9.968374797404262"><ele>77.0</ele><time>2026-04-25T06:38:51.998Z</time></trkpt><trkpt lat="44.8967575784044" lon="9.968320120213457"><ele>77.0</ele><time>2026-04-25T06:38:52.998Z</time></trkpt><trkpt lat="44.89670186144415" lon="9.968262825030362"><ele>77.0</ele><time>2026-04-25T06:38:54Z</time></trkpt><trkpt lat="44.89664716037628" lon="9.968204807198934"><ele>77.0</ele><time>2026-04-25T06:38:55Z</time></trkpt><trkpt lat="44.896591711228574" lon="9.968142375053835"><ele>77.0</ele><time>2026-04-25T06:38:56Z</time></trkpt><trkpt lat="44.89654027992761" lon="9.968088442679587"><ele>77.2</ele><time>2026-04-25T06:38:57Z</time></trkpt><trkpt lat="44.89644642086503" lon="9.96798245212333"><ele>77.4</ele><time>2026-04-25T06:38:59Z</time></trkpt><trkpt lat="44.89636441551106" lon="9.967883598345292"><ele>77.6</ele><time>2026-04-25T06:39:01Z</time></trkpt><trkpt lat="44.89631659999857" lon="9.967814643176773"><ele>77.8</ele><time>2026-04-25T06:39:04Z</time></trkpt><trkpt lat="44.89623523640311" lon="9.96776914218193"><ele>78.0</ele><time>2026-04-25T06:39:21Z</time></trkpt><trkpt lat="44.896159040808314" lon="9.967818364806597"><ele>78.0</ele><time>2026-04-25T06:39:23Z</time></trkpt><trkpt lat="44.89605177578136" lon="9.967766663471503"><ele>78.0</ele><time>2026-04-25T06:39:25Z</time></trkpt><trkpt lat="44.89600660029098" lon="9.967703885972588"><ele>78.0</ele><time>2026-04-25T06:39:26Z</time></trkpt><trkpt lat="44.89595804944408" lon="9.967645114598525"><ele>78.0</ele><time>2026-04-25T06:39:27Z</time></trkpt><trkpt lat="44.895902542756104" lon="9.967588646304705"><ele>78.0</ele><time>2026-04-25T06:39:28Z</time></trkpt><trkpt lat="44.8958479577305" lon="9.967534556264212"><ele>78.0</ele><time>2026-04-25T06:39:29Z</time></trkpt><trkpt lat="44.8957896751966" lon="9.967474399496986"><ele>78.0</ele><time>2026-04-25T06:39:30Z</time></trkpt><trkpt lat="44.89573606440678" lon="9.967416992872918"><ele>78.28571428571429</ele><time>2026-04-25T06:39:31Z</time></trkpt><trkpt lat="44.89568031878881" lon="9.967354167831108"><ele>78.57142857142857</ele><time>2026-04-25T06:39:32Z</time></trkpt><trkpt lat="44.89562347825001" lon="9.967294751845074"><ele>78.85714285714286</ele><time>2026-04-25T06:39:33Z</time></trkpt><trkpt lat="44.895565678828916" lon="9.96723701200451"><ele>79.14285714285714</ele><time>2026-04-25T06:39:34Z</time></trkpt><trkpt lat="44.89550412014789" lon="9.967181177608245"><ele>79.42857142857143</ele><time>2026-04-25T06:39:35Z</time></trkpt><trkpt lat="44.89544283839256" lon="9.967127157042325"><ele>79.71428571428571</ele><time>2026-04-25T06:39:36Z</time></trkpt><trkpt lat="44.895382600947244" lon="9.967065797882572"><ele>80.0</ele><time>2026-04-25T06:39:37Z</time></trkpt><trkpt lat="44.8953291267807" lon="9.96700142922433"><ele>80.0</ele><time>2026-04-25T06:39:38Z</time></trkpt><trkpt lat="44.895269776580946" lon="9.966945017622152"><ele>80.0</ele><time>2026-04-25T06:39:39Z</time></trkpt><trkpt lat="44.895212792318866" lon="9.966885515931272"><ele>80.0</ele><time>2026-04-25T06:39:39.999Z</time></trkpt><trkpt lat="44.89515345745713" lon="9.966826455346448"><ele>80.0</ele><time>2026-04-25T06:39:40.999Z</time></trkpt><trkpt lat="44.89509251753304" lon="9.966768625571207"><ele>80.0</ele><time>2026-04-25T06:39:41.999Z</time></trkpt><trkpt lat="44.895035801345756" lon="9.966710985970337"><ele>80.0</ele><time>2026-04-25T06:39:42.999Z</time></trkpt><trkpt lat="44.89497963879217" lon="9.966653774369213"><ele>80.0</ele><time>2026-04-25T06:39:43.999Z</time></trkpt><trkpt lat="44.89492322880793" lon="9.966596999793701"><ele>79.85714285714286</ele><time>2026-04-25T06:39:44.999Z</time></trkpt><trkpt lat="44.894870685870465" lon="9.966536491940547"><ele>79.71428571428572</ele><time>2026-04-25T06:39:45.999Z</time></trkpt><trkpt lat="44.894821583958084" lon="9.966466048524303"><ele>79.57142857142858</ele><time>2026-04-25T06:39:46.999Z</time></trkpt><trkpt lat="44.894775810250636" lon="9.966394731034681"><ele>79.42857142857143</ele><time>2026-04-25T06:39:47.999Z</time></trkpt><trkpt lat="44.894729934657555" lon="9.96631872675712"><ele>79.28571428571429</ele><time>2026-04-25T06:39:48.999Z</time></trkpt><trkpt lat="44.89468872283126" lon="9.96624332248148"><ele>79.14285714285715</ele><time>2026-04-25T06:39:49.999Z</time></trkpt><trkpt lat="44.8946523446276" lon="9.966163932709575"><ele>79.0</ele><time>2026-04-25T06:39:50.999Z</time></trkpt><trkpt lat="44.8946185244793" lon="9.966085095425504"><ele>79.0</ele><time>2026-04-25T06:39:51.999Z</time></trkpt><trkpt lat="44.894581495743175" lon="9.966011922896818"><ele>79.0</ele><time>2026-04-25T06:39:52.999Z</time></trkpt><trkpt lat="44.89450903703134" lon="9.965858247478938"><ele>79.0</ele><time>2026-04-25T06:39:54.999Z</time></trkpt><trkpt lat="44.89447575180611" lon="9.965770781234356"><ele>79.0</ele><time>2026-04-25T06:39:55.999Z</time></trkpt><trkpt lat="44.89443728558167" lon="9.965687370862012"><ele>79.0</ele><time>2026-04-25T06:39:56.999Z</time></trkpt><trkpt lat="44.89439980760156" lon="9.965607147637899"><ele>79.0</ele><time>2026-04-25T06:39:57.999Z</time></trkpt><trkpt lat="44.894361891546794" lon="9.965519281523724"><ele>79.28571428571429</ele><time>2026-04-25T06:39:58.999Z</time></trkpt><trkpt lat="44.89432218403873" lon="9.965432827216096"><ele>79.57142857142857</ele><time>2026-04-25T06:39:59.999Z</time></trkpt><trkpt lat="44.89428416647814" lon="9.965350855057542"><ele>79.85714285714286</ele><time>2026-04-25T06:40:00.999Z</time></trkpt><trkpt lat="44.89424636039192" lon="9.965260566360332"><ele>80.14285714285714</ele><time>2026-04-25T06:40:01.999Z</time></trkpt><trkpt lat="44.89421056710924" lon="9.965177518070636"><ele>80.42857142857143</ele><time>2026-04-25T06:40:02.999Z</time></trkpt><trkpt lat="44.89417459784647" lon="9.965091644658026"><ele>80.71428571428572</ele><time>2026-04-25T06:40:03.999Z</time></trkpt><trkpt lat="44.894138953487456" lon="9.965013925298631"><ele>81.0</ele><time>2026-04-25T06:40:04.999Z</time></trkpt><trkpt lat="44.894100461524516" lon="9.964931492320371"><ele>81.28571428571429</ele><time>2026-04-25T06:40:05.999Z</time></trkpt><trkpt lat="44.89406142979634" lon="9.964845792380299"><ele>81.57142857142857</ele><time>2026-04-25T06:40:06.999Z</time></trkpt><trkpt lat="44.89402351590665" lon="9.964762758457471"><ele>81.85714285714286</ele><time>2026-04-25T06:40:07.999Z</time></trkpt><trkpt lat="44.89398076231117" lon="9.964680138766653"><ele>82.14285714285714</ele><time>2026-04-25T06:40:08.999Z</time></trkpt><trkpt lat="44.893942966071485" lon="9.964596467003531"><ele>82.42857142857143</ele><time>2026-04-25T06:40:09.999Z</time></trkpt><trkpt lat="44.89390256243895" lon="9.96451250883155"><ele>82.71428571428571</ele><time>2026-04-25T06:40:10.999Z</time></trkpt><trkpt lat="44.893862810000726" lon="9.964428694981024"><ele>83.0</ele><time>2026-04-25T06:40:11.999Z</time></trkpt><trkpt lat="44.893822306065054" lon="9.964344833565319"><ele>83.0</ele><time>2026-04-25T06:40:12.999Z</time></trkpt><trkpt lat="44.89378058238242" lon="9.964263639419963"><ele>83.0</ele><time>2026-04-25T06:40:13.999Z</time></trkpt><trkpt lat="44.89373885613639" lon="9.964180646328929"><ele>83.0</ele><time>2026-04-25T06:40:14.999Z</time></trkpt><trkpt lat="44.89369599567403" lon="9.964100800555222"><ele>83.0</ele><time>2026-04-25T06:40:15.999Z</time></trkpt><trkpt lat="44.89365322123201" lon="9.96401839851492"><ele>83.0</ele><time>2026-04-25T06:40:16.999Z</time></trkpt><trkpt lat="44.89361106844241" lon="9.963939027521658"><ele>83.0</ele><time>2026-04-25T06:40:17.999Z</time></trkpt><trkpt lat="44.893566375131805" lon="9.963859490928277"><ele>83.0</ele><time>2026-04-25T06:40:18.999Z</time></trkpt><trkpt lat="44.8935231905007" lon="9.963783133868391"><ele>83.0</ele><time>2026-04-25T06:40:19.999Z</time></trkpt><trkpt lat="44.89347510008091" lon="9.963707944005057"><ele>83.0</ele><time>2026-04-25T06:40:20.999Z</time></trkpt><trkpt lat="44.89342648490918" lon="9.963631232752547"><ele>83.0</ele><time>2026-04-25T06:40:21.999Z</time></trkpt><trkpt lat="44.893378112149406" lon="9.963554919657879"><ele>83.0</ele><time>2026-04-25T06:40:22.999Z</time></trkpt><trkpt lat="44.89332991333592" lon="9.96347611256461"><ele>83.0</ele><time>2026-04-25T06:40:23.999Z</time></trkpt><trkpt lat="44.8932824115091" lon="9.96339936694795"><ele>83.0</ele><time>2026-04-25T06:40:24.999Z</time></trkpt><trkpt lat="44.89323341918158" lon="9.963320750185513"><ele>83.0</ele><time>2026-04-25T06:40:25.999Z</time></trkpt><trkpt lat="44.89318513388859" lon="9.96324094406201"><ele>82.66666666666667</ele><time>2026-04-25T06:40:26.999Z</time></trkpt><trkpt lat="44.89313536687137" lon="9.96316032295516"><ele>82.33333333333334</ele><time>2026-04-25T06:40:27.999Z</time></trkpt><trkpt lat="44.89308434806781" lon="9.963081672024854"><ele>82.0</ele><time>2026-04-25T06:40:28.999Z</time></trkpt><trkpt lat="44.893033567781764" lon="9.963005326193315"><ele>81.66666666666667</ele><time>2026-04-25T06:40:29.999Z</time></trkpt><trkpt lat="44.892982601738396" lon="9.962925052454318"><ele>81.33333333333333</ele><time>2026-04-25T06:40:30.999Z</time></trkpt><trkpt lat="44.892930838365956" lon="9.962846324372588"><ele>81.0</ele><time>2026-04-25T06:40:31.999Z</time></trkpt><trkpt lat="44.89288051242714" lon="9.96276994257994"><ele>81.0</ele><time>2026-04-25T06:40:32.998Z</time></trkpt><trkpt lat="44.89282947303677" lon="9.96269065749729"><ele>81.0</ele><time>2026-04-25T06:40:33.998Z</time></trkpt><trkpt lat="44.89278063835482" lon="9.962612752557186"><ele>81.0</ele><time>2026-04-25T06:40:34.998Z</time></trkpt><trkpt lat="44.89273122103163" lon="9.962534404605883"><ele>81.0</ele><time>2026-04-25T06:40:35.998Z</time></trkpt><trkpt lat="44.892681305169894" lon="9.962453299214648"><ele>81.0</ele><time>2026-04-25T06:40:36.998Z</time></trkpt><trkpt lat="44.89263343075559" lon="9.962375199938867"><ele>81.0</ele><time>2026-04-25T06:40:37.998Z</time></trkpt><trkpt lat="44.892585420535944" lon="9.962297237799149"><ele>81.0</ele><time>2026-04-25T06:40:38.998Z</time></trkpt><trkpt lat="44.89253522810134" lon="9.962221495468029"><ele>81.28571428571429</ele><time>2026-04-25T06:40:39.998Z</time></trkpt><trkpt lat="44.8924848233276" lon="9.962144930770972"><ele>81.57142857142857</ele><time>2026-04-25T06:40:40.998Z</time></trkpt><trkpt lat="44.89243665059624" lon="9.962067814962824"><ele>81.85714285714286</ele><time>2026-04-25T06:40:41.998Z</time></trkpt><trkpt lat="44.892388380910276" lon="9.961991779033509"><ele>82.14285714285714</ele><time>2026-04-25T06:40:42.998Z</time></trkpt><trkpt lat="44.892339994428156" lon="9.961913897940795"><ele>82.42857142857143</ele><time>2026-04-25T06:40:43.998Z</time></trkpt><trkpt lat="44.89229166298865" lon="9.961834291090602"><ele>82.71428571428571</ele><time>2026-04-25T06:40:44.998Z</time></trkpt><trkpt lat="44.89224219665717" lon="9.961758788771718"><ele>83.0</ele><time>2026-04-25T06:40:45.998Z</time></trkpt><trkpt lat="44.892192280953694" lon="9.961683825041886"><ele>83.0</ele><time>2026-04-25T06:40:46.998Z</time></trkpt><trkpt lat="44.892140959306076" lon="9.961607138740964"><ele>83.0</ele><time>2026-04-25T06:40:47.998Z</time></trkpt><trkpt lat="44.89208988276588" lon="9.9615318644435"><ele>83.0</ele><time>2026-04-25T06:40:48.998Z</time></trkpt><trkpt lat="44.892040044925956" lon="9.96145500277421"><ele>83.0</ele><time>2026-04-25T06:40:49.998Z</time></trkpt><trkpt lat="44.89199127006704" lon="9.961374812353698"><ele>83.0</ele><time>2026-04-25T06:40:50.998Z</time></trkpt><trkpt lat="44.89194268779989" lon="9.961295692403448"><ele>83.0</ele><time>2026-04-25T06:40:51.998Z</time></trkpt><trkpt lat="44.89189233626184" lon="9.96121450112048"><ele>83.0</ele><time>2026-04-25T06:40:52.998Z</time></trkpt><trkpt lat="44.89184282280374" lon="9.961135879957"><ele>83.0</ele><time>2026-04-25T06:40:53.998Z</time></trkpt><trkpt lat="44.89179228770431" lon="9.961056521139128"><ele>83.0</ele><time>2026-04-25T06:40:54.998Z</time></trkpt><trkpt lat="44.89174135083515" lon="9.960975710439625"><ele>83.0</ele><time>2026-04-25T06:40:55.998Z</time></trkpt><trkpt lat="44.891692099941416" lon="9.960895431179132"><ele>83.0</ele><time>2026-04-25T06:40:56.998Z</time></trkpt><trkpt lat="44.891640799746234" lon="9.960815782474098"><ele>83.0</ele><time>2026-04-25T06:40:57.998Z</time></trkpt><trkpt lat="44.891589679469085" lon="9.960735621020351"><ele>83.0</ele><time>2026-04-25T06:40:58.998Z</time></trkpt><trkpt lat="44.89154015873148" lon="9.960655717631655"><ele>83.16666666666667</ele><time>2026-04-25T06:41:00Z</time></trkpt><trkpt lat="44.89148937384319" lon="9.960576751885496"><ele>83.33333333333334</ele><time>2026-04-25T06:41:01Z</time></trkpt><trkpt lat="44.891438597899125" lon="9.960499671059713"><ele>83.5</ele><time>2026-04-25T06:41:02Z</time></trkpt><trkpt lat="44.89138844999289" lon="9.960420052606597"><ele>83.66666666666667</ele><time>2026-04-25T06:41:03Z</time></trkpt><trkpt lat="44.8913392766078" lon="9.960342024776677"><ele>83.83333333333333</ele><time>2026-04-25T06:41:04Z</time></trkpt><trkpt lat="44.89128918608893" lon="9.960260935233617"><ele>84.0</ele><time>2026-04-25T06:41:05Z</time></trkpt><trkpt lat="44.89123873484196" lon="9.960181938297756"><ele>84.0</ele><time>2026-04-25T06:41:06Z</time></trkpt><trkpt lat="44.89118808695562" lon="9.960103873579715"><ele>84.0</ele><time>2026-04-25T06:41:07Z</time></trkpt><trkpt lat="44.891138337096656" lon="9.960024544818365"><ele>84.0</ele><time>2026-04-25T06:41:08Z</time></trkpt><trkpt lat="44.891089105396816" lon="9.959943936713392"><ele>84.0</ele><time>2026-04-25T06:41:09Z</time></trkpt><trkpt lat="44.8910403310451" lon="9.959866299435847"><ele>84.0</ele><time>2026-04-25T06:41:10Z</time></trkpt><trkpt lat="44.89099011856171" lon="9.95978241753067"><ele>84.0</ele><time>2026-04-25T06:41:11Z</time></trkpt><trkpt lat="44.890941165006105" lon="9.959704580021999"><ele>84.0</ele><time>2026-04-25T06:41:12Z</time></trkpt><trkpt lat="44.890891335844614" lon="9.95962484320069"><ele>84.0</ele><time>2026-04-25T06:41:13Z</time></trkpt><trkpt lat="44.89083939738454" lon="9.95954332276716"><ele>84.0</ele><time>2026-04-25T06:41:14Z</time></trkpt><trkpt lat="44.89079007552773" lon="9.959463881544059"><ele>84.0</ele><time>2026-04-25T06:41:15Z</time></trkpt><trkpt lat="44.89073898093152" lon="9.959383869006826"><ele>84.0</ele><time>2026-04-25T06:41:16Z</time></trkpt><trkpt lat="44.89068762689682" lon="9.95930355831438"><ele>84.0</ele><time>2026-04-25T06:41:17Z</time></trkpt><trkpt lat="44.89063796744625" lon="9.959224750493085"><ele>84.16666666666667</ele><time>2026-04-25T06:41:18Z</time></trkpt><trkpt lat="44.890587084241105" lon="9.959144987315067"><ele>84.33333333333333</ele><time>2026-04-25T06:41:19Z</time></trkpt><trkpt lat="44.89053605789148" lon="9.959063878215009"><ele>84.5</ele><time>2026-04-25T06:41:20Z</time></trkpt><trkpt lat="44.89048564012289" lon="9.958986577267176"><ele>84.66666666666666</ele><time>2026-04-25T06:41:21Z</time></trkpt><trkpt lat="44.89043422108475" lon="9.958908105510073"><ele>84.83333333333333</ele><time>2026-04-25T06:41:22Z</time></trkpt><trkpt lat="44.89038253439426" lon="9.958829139496501"><ele>85.0</ele><time>2026-04-25T06:41:23Z</time></trkpt><trkpt lat="44.890332359356286" lon="9.95875294470033"><ele>85.0</ele><time>2026-04-25T06:41:24Z</time></trkpt><trkpt lat="44.89028631050866" lon="9.958671740450788"><ele>85.0</ele><time>2026-04-25T06:41:25Z</time></trkpt><trkpt lat="44.89023698760652" lon="9.958589849714837"><ele>85.0</ele><time>2026-04-25T06:41:26Z</time></trkpt><trkpt lat="44.890187225974785" lon="9.958510464848676"><ele>85.0</ele><time>2026-04-25T06:41:27Z</time></trkpt><trkpt lat="44.89013867643909" lon="9.958429045622543"><ele>85.0</ele><time>2026-04-25T06:41:28Z</time></trkpt><trkpt lat="44.890090124853906" lon="9.958347244353488"><ele>85.0</ele><time>2026-04-25T06:41:29Z</time></trkpt><trkpt lat="44.89004077557498" lon="9.958267457768466"><ele>85.5</ele><time>2026-04-25T06:41:30Z</time></trkpt><trkpt lat="44.88998929282564" lon="9.958183184380562"><ele>86.0</ele><time>2026-04-25T06:41:31Z</time></trkpt><trkpt lat="44.88993760108247" lon="9.958103016265971"><ele>86.5</ele><time>2026-04-25T06:41:32Z</time></trkpt><trkpt lat="44.88988593371217" lon="9.958020521544432"><ele>87.0</ele><time>2026-04-25T06:41:33Z</time></trkpt><trkpt lat="44.889833515545874" lon="9.957936312047925"><ele>87.5</ele><time>2026-04-25T06:41:34Z</time></trkpt><trkpt lat="44.889784915462506" lon="9.957847348291553"><ele>88.0</ele><time>2026-04-25T06:41:35Z</time></trkpt><trkpt lat="44.88974016914685" lon="9.957755792949907"><ele>88.0</ele><time>2026-04-25T06:41:36Z</time></trkpt><trkpt lat="44.88969788223249" lon="9.957660314875673"><ele>88.0</ele><time>2026-04-25T06:41:37Z</time></trkpt><trkpt lat="44.889656340481665" lon="9.957567740719435"><ele>88.0</ele><time>2026-04-25T06:41:38Z</time></trkpt><trkpt lat="44.88961611884673" lon="9.95746772360676"><ele>88.0</ele><time>2026-04-25T06:41:39Z</time></trkpt><trkpt lat="44.88957404435762" lon="9.957372966824892"><ele>88.0</ele><time>2026-04-25T06:41:40Z</time></trkpt><trkpt lat="44.889533073499486" lon="9.957277136446177"><ele>88.0</ele><time>2026-04-25T06:41:41Z</time></trkpt><trkpt lat="44.88949066444389" lon="9.957185258422687"><ele>87.83333333333333</ele><time>2026-04-25T06:41:42Z</time></trkpt><trkpt lat="44.889445304206866" lon="9.957091216047903"><ele>87.66666666666666</ele><time>2026-04-25T06:41:43Z</time></trkpt><trkpt lat="44.88939658340426" lon="9.956998965279015"><ele>87.5</ele><time>2026-04-25T06:41:44Z</time></trkpt><trkpt lat="44.88934287521492" lon="9.956911643304005"><ele>87.33333333333333</ele><time>2026-04-25T06:41:44.999Z</time></trkpt><trkpt lat="44.88928478116403" lon="9.956830007841054"><ele>87.16666666666667</ele><time>2026-04-25T06:41:45.999Z</time></trkpt><trkpt lat="44.889223804749236" lon="9.956752325555726"><ele>87.0</ele><time>2026-04-25T06:41:46.999Z</time></trkpt><trkpt lat="44.889160990310835" lon="9.956674223639299"><ele>87.0</ele><time>2026-04-25T06:41:47.999Z</time></trkpt><trkpt lat="44.889096813384306" lon="9.956601832916535"><ele>87.0</ele><time>2026-04-25T06:41:48.999Z</time></trkpt><trkpt lat="44.889028804667255" lon="9.956533421544716"><ele>87.0</ele><time>2026-04-25T06:41:49.999Z</time></trkpt><trkpt lat="44.88895834713546" lon="9.956471428638986"><ele>87.0</ele><time>2026-04-25T06:41:50.999Z</time></trkpt><trkpt lat="44.88888461599657" lon="9.956414104966905"><ele>87.0</ele><time>2026-04-25T06:41:51.999Z</time></trkpt><trkpt lat="44.888812707914724" lon="9.956357467115991"><ele>87.0</ele><time>2026-04-25T06:41:52.999Z</time></trkpt><trkpt lat="44.888738934843296" lon="9.956301255616811"><ele>87.0</ele><time>2026-04-25T06:41:53.999Z</time></trkpt><trkpt lat="44.88866443588752" lon="9.956249793932365"><ele>87.0</ele><time>2026-04-25T06:41:54.999Z</time></trkpt><trkpt lat="44.88858968749695" lon="9.956201232267968"><ele>87.0</ele><time>2026-04-25T06:41:55.999Z</time></trkpt><trkpt lat="44.888514760275584" lon="9.956151937975472"><ele>87.0</ele><time>2026-04-25T06:41:56.999Z</time></trkpt><trkpt lat="44.88843973952463" lon="9.956105939560016"><ele>87.0</ele><time>2026-04-25T06:41:57.999Z</time></trkpt><trkpt lat="44.88836616059163" lon="9.95606161514008"><ele>87.0</ele><time>2026-04-25T06:41:58.999Z</time></trkpt><trkpt lat="44.88829140156281" lon="9.956015789522327"><ele>87.0</ele><time>2026-04-25T06:41:59.999Z</time></trkpt><trkpt lat="44.888215623257054" lon="9.955973214351536"><ele>87.0</ele><time>2026-04-25T06:42:00.999Z</time></trkpt><trkpt lat="44.888139984494664" lon="9.955927818087666"><ele>87.0</ele><time>2026-04-25T06:42:01.999Z</time></trkpt><trkpt lat="44.88806509307428" lon="9.955879449866096"><ele>87.0</ele><time>2026-04-25T06:42:02.999Z</time></trkpt><trkpt lat="44.887991771717836" lon="9.955836554186837"><ele>87.0</ele><time>2026-04-25T06:42:03.999Z</time></trkpt><trkpt lat="44.88791702573165" lon="9.95578979099342"><ele>87.0</ele><time>2026-04-25T06:42:04.999Z</time></trkpt><trkpt lat="44.88784647417388" lon="9.955738816919228"><ele>86.83333333333333</ele><time>2026-04-25T06:42:05.999Z</time></trkpt><trkpt lat="44.88777691040821" lon="9.955684500753925"><ele>86.66666666666667</ele><time>2026-04-25T06:42:06.999Z</time></trkpt><trkpt lat="44.88770751181944" lon="9.955626766194674"><ele>86.5</ele><time>2026-04-25T06:42:07.999Z</time></trkpt><trkpt lat="44.88764379360236" lon="9.955563352835474"><ele>86.33333333333334</ele><time>2026-04-25T06:42:08.999Z</time></trkpt><trkpt lat="44.88758126399026" lon="9.955492995225509"><ele>86.16666666666667</ele><time>2026-04-25T06:42:09.999Z</time></trkpt><trkpt lat="44.88752260333437" lon="9.955422826670912"><ele>86.0</ele><time>2026-04-25T06:42:10.999Z</time></trkpt><trkpt lat="44.88746064295572" lon="9.955356154974586"><ele>86.33333333333334</ele><time>2026-04-25T06:42:11.999Z</time></trkpt><trkpt lat="44.887403942790755" lon="9.95528678178774"><ele>86.66666666666667</ele><time>2026-04-25T06:42:12.999Z</time></trkpt><trkpt lat="44.88734529985956" lon="9.95521696478012"><ele>87.0</ele><time>2026-04-25T06:42:13.999Z</time></trkpt><trkpt lat="44.88729025733637" lon="9.955142437325241"><ele>87.33333333333333</ele><time>2026-04-25T06:42:14.999Z</time></trkpt><trkpt lat="44.88723063027638" lon="9.955074426170013"><ele>87.66666666666666</ele><time>2026-04-25T06:42:15.999Z</time></trkpt><trkpt lat="44.8871749049054" lon="9.955002172437935"><ele>88.0</ele><time>2026-04-25T06:42:16.999Z</time></trkpt><trkpt lat="44.88711847146853" lon="9.954936915233382"><ele>88.14285714285714</ele><time>2026-04-25T06:42:17.999Z</time></trkpt><trkpt lat="44.88706247376804" lon="9.954864118232777"><ele>88.28571428571428</ele><time>2026-04-25T06:42:18.999Z</time></trkpt><trkpt lat="44.88701247619576" lon="9.954793366682775"><ele>88.42857142857142</ele><time>2026-04-25T06:42:19.999Z</time></trkpt><trkpt lat="44.88696377583378" lon="9.954717923802534"><ele>88.57142857142857</ele><time>2026-04-25T06:42:20.999Z</time></trkpt><trkpt lat="44.886915376463065" lon="9.954649111930388"><ele>88.71428571428571</ele><time>2026-04-25T06:42:21.999Z</time></trkpt><trkpt lat="44.88686688987171" lon="9.954581481473525"><ele>88.85714285714285</ele><time>2026-04-25T06:42:22.999Z</time></trkpt><trkpt lat="44.88682288874613" lon="9.954517229367498"><ele>89.0</ele><time>2026-04-25T06:42:23.999Z</time></trkpt><trkpt lat="44.886740388920934" lon="9.954387129151577"><ele>89.0</ele><time>2026-04-25T06:42:25.999Z</time></trkpt><trkpt lat="44.88666031744663" lon="9.954275451269236"><ele>89.0</ele><time>2026-04-25T06:42:27.999Z</time></trkpt><trkpt lat="44.88657341418088" lon="9.954192480792319"><ele>89.0</ele><time>2026-04-25T06:42:29.999Z</time></trkpt><trkpt lat="44.88648342229324" lon="9.95429552342689"><ele>89.0</ele><time>2026-04-25T06:42:31.999Z</time></trkpt><trkpt lat="44.886456043340814" lon="9.95439282319474"><ele>89.0</ele><time>2026-04-25T06:42:32.999Z</time></trkpt><trkpt lat="44.886440023189095" lon="9.954479780357294"><ele>89.0</ele><time>2026-04-25T06:42:33.999Z</time></trkpt><trkpt lat="44.886421023065886" lon="9.954564779167004"><ele>89.0</ele><time>2026-04-25T06:42:34.999Z</time></trkpt><trkpt lat="44.886397178025" lon="9.954648988371169"><ele>89.0</ele><time>2026-04-25T06:42:35.999Z</time></trkpt><trkpt lat="44.88634207745753" lon="9.95481531110595"><ele>89.0</ele><time>2026-04-25T06:42:37.998Z</time></trkpt><trkpt lat="44.886309748251584" lon="9.954894309374339"><ele>89.0</ele><time>2026-04-25T06:42:38.998Z</time></trkpt><trkpt lat="44.88628128570488" lon="9.95498134678338"><ele>89.0</ele><time>2026-04-25T06:42:39.998Z</time></trkpt><trkpt lat="44.886248340337474" lon="9.955070268161174"><ele>88.85714285714285</ele><time>2026-04-25T06:42:40.998Z</time></trkpt><trkpt lat="44.88622038373854" lon="9.955157577569096"><ele>88.71428571428571</ele><time>2026-04-25T06:42:41.998Z</time></trkpt><trkpt lat="44.88618863098722" lon="9.955245831294064"><ele>88.57142857142857</ele><time>2026-04-25T06:42:42.998Z</time></trkpt><trkpt lat="44.886153407040275" lon="9.955335329117329"><ele>88.42857142857142</ele><time>2026-04-25T06:42:43.998Z</time></trkpt><trkpt lat="44.88611734843737" lon="9.955424525296136"><ele>88.28571428571428</ele><time>2026-04-25T06:42:44.998Z</time></trkpt><trkpt lat="44.88607747374878" lon="9.955513640476745"><ele>88.14285714285714</ele><time>2026-04-25T06:42:45.998Z</time></trkpt><trkpt lat="44.88604040748796" lon="9.955607670859635"><ele>88.0</ele><time>2026-04-25T06:42:46.998Z</time></trkpt><trkpt lat="44.886002346873866" lon="9.955706222176696"><ele>88.0</ele><time>2026-04-25T06:42:47.998Z</time></trkpt><trkpt lat="44.88596521578785" lon="9.955807414098574"><ele>88.0</ele><time>2026-04-25T06:42:48.998Z</time></trkpt><trkpt lat="44.8859272268947" lon="9.955909570618154"><ele>88.0</ele><time>2026-04-25T06:42:49.998Z</time></trkpt><trkpt lat="44.88589069484022" lon="9.956012840989196"><ele>88.0</ele><time>2026-04-25T06:42:50.998Z</time></trkpt><trkpt lat="44.88585203295531" lon="9.956120384170777"><ele>88.0</ele><time>2026-04-25T06:42:51.998Z</time></trkpt><trkpt lat="44.88581060487674" lon="9.956228402536738"><ele>88.0</ele><time>2026-04-25T06:42:52.998Z</time></trkpt><trkpt lat="44.88576948061317" lon="9.956335309065725"><ele>88.0</ele><time>2026-04-25T06:42:53.998Z</time></trkpt><trkpt lat="44.885728113231316" lon="9.956443983504316"><ele>88.0</ele><time>2026-04-25T06:42:54.998Z</time></trkpt><trkpt lat="44.88568897834421" lon="9.956553329668605"><ele>88.0</ele><time>2026-04-25T06:42:55.998Z</time></trkpt><trkpt lat="44.885649279796446" lon="9.95666190042721"><ele>88.0</ele><time>2026-04-25T06:42:56.998Z</time></trkpt><trkpt lat="44.88560884167141" lon="9.956769464739764"><ele>88.0</ele><time>2026-04-25T06:42:57.998Z</time></trkpt><trkpt lat="44.88556935661799" lon="9.956875086411147"><ele>88.0</ele><time>2026-04-25T06:42:58.998Z</time></trkpt><trkpt lat="44.88553014680268" lon="9.95698224555015"><ele>87.83333333333333</ele><time>2026-04-25T06:42:59.998Z</time></trkpt><trkpt lat="44.885494720496865" lon="9.957090416045057"><ele>87.66666666666666</ele><time>2026-04-25T06:43:00.998Z</time></trkpt><trkpt lat="44.88545749439124" lon="9.957196176882062"><ele>87.5</ele><time>2026-04-25T06:43:01.998Z</time></trkpt><trkpt lat="44.885418851606346" lon="9.95730171348294"><ele>87.33333333333333</ele><time>2026-04-25T06:43:02.998Z</time></trkpt><trkpt lat="44.88537976276987" lon="9.957405805073321"><ele>87.16666666666667</ele><time>2026-04-25T06:43:03.998Z</time></trkpt><trkpt lat="44.88534033979714" lon="9.957509754328939"><ele>87.0</ele><time>2026-04-25T06:43:04.998Z</time></trkpt><trkpt lat="44.88530148413214" lon="9.957612415690415"><ele>87.0</ele><time>2026-04-25T06:43:06Z</time></trkpt><trkpt lat="44.88526155517411" lon="9.957713632814547"><ele>87.0</ele><time>2026-04-25T06:43:07Z</time></trkpt><trkpt lat="44.88521922463046" lon="9.957813595614857"><ele>87.0</ele><time>2026-04-25T06:43:08Z</time></trkpt><trkpt lat="44.88517542951731" lon="9.957912962038524"><ele>87.0</ele><time>2026-04-25T06:43:09Z</time></trkpt><trkpt lat="44.88512897521731" lon="9.95800921019307"><ele>87.0</ele><time>2026-04-25T06:43:10Z</time></trkpt><trkpt lat="44.885080351530554" lon="9.958105119388502"><ele>87.0</ele><time>2026-04-25T06:43:11Z</time></trkpt><trkpt lat="44.885030992259196" lon="9.958198273219047"><ele>87.16666666666667</ele><time>2026-04-25T06:43:12Z</time></trkpt><trkpt lat="44.88498446432396" lon="9.958291483670365"><ele>87.33333333333333</ele><time>2026-04-25T06:43:13Z</time></trkpt><trkpt lat="44.88493922431011" lon="9.958382992636025"><ele>87.5</ele><time>2026-04-25T06:43:14Z</time></trkpt><trkpt lat="44.88489465326625" lon="9.95847306284263"><ele>87.66666666666666</ele><time>2026-04-25T06:43:15Z</time></trkpt><trkpt lat="44.88485221215533" lon="9.958565933453537"><ele>87.83333333333333</ele><time>2026-04-25T06:43:16Z</time></trkpt><trkpt lat="44.88480755738204" lon="9.958651558714134"><ele>88.0</ele><time>2026-04-25T06:43:17Z</time></trkpt><trkpt lat="44.88476139566457" lon="9.958739075858826"><ele>88.33333333333333</ele><time>2026-04-25T06:43:18Z</time></trkpt><trkpt lat="44.88471663143247" lon="9.958826873321865"><ele>88.66666666666666</ele><time>2026-04-25T06:43:19Z</time></trkpt><trkpt lat="44.884671907177385" lon="9.958913761178463"><ele>89.0</ele><time>2026-04-25T06:43:20Z</time></trkpt><trkpt lat="44.88462609613176" lon="9.959000860509262"><ele>89.33333333333333</ele><time>2026-04-25T06:43:21Z</time></trkpt><trkpt lat="44.884580754256916" lon="9.959085540635336"><ele>89.66666666666667</ele><time>2026-04-25T06:43:22Z</time></trkpt><trkpt lat="44.88453071959251" lon="9.959169302091574"><ele>90.0</ele><time>2026-04-25T06:43:23Z</time></trkpt><trkpt lat="44.884480846932846" lon="9.959246953449778"><ele>90.33333333333333</ele><time>2026-04-25T06:43:24Z</time></trkpt><trkpt lat="44.88442738370506" lon="9.959317214485361"><ele>90.66666666666667</ele><time>2026-04-25T06:43:25Z</time></trkpt><trkpt lat="44.884374923667586" lon="9.959379149137915"><ele>91.0</ele><time>2026-04-25T06:43:26Z</time></trkpt><trkpt lat="44.88431795186602" lon="9.959435803366556"><ele>91.33333333333334</ele><time>2026-04-25T06:43:27Z</time></trkpt><trkpt lat="44.88426644022748" lon="9.959490102445347"><ele>91.66666666666667</ele><time>2026-04-25T06:43:28Z</time></trkpt><trkpt lat="44.88416560290059" lon="9.959595041732937"><ele>92.0</ele><time>2026-04-25T06:43:30Z</time></trkpt><trkpt lat="44.88411325735334" lon="9.959646780846247"><ele>92.5</ele><time>2026-04-25T06:43:31Z</time></trkpt><trkpt lat="44.884059564862945" lon="9.959701525745011"><ele>93.0</ele><time>2026-04-25T06:43:32Z</time></trkpt><trkpt lat="44.88400560494953" lon="9.95975353299798"><ele>93.5</ele><time>2026-04-25T06:43:33Z</time></trkpt><trkpt lat="44.88389360229795" lon="9.959855795116564"><ele>94.0</ele><time>2026-04-25T06:43:35Z</time></trkpt><trkpt lat="44.883833562577" lon="9.95990888470344"><ele>94.5</ele><time>2026-04-25T06:43:36Z</time></trkpt><trkpt lat="44.883774747515474" lon="9.959960000226225"><ele>95.0</ele><time>2026-04-25T06:43:37Z</time></trkpt><trkpt lat="44.88371710250253" lon="9.960016359217216"><ele>94.71428571428572</ele><time>2026-04-25T06:43:38Z</time></trkpt><trkpt lat="44.88365664639038" lon="9.960072392276485"><ele>94.42857142857143</ele><time>2026-04-25T06:43:39Z</time></trkpt><trkpt lat="44.88359980963067" lon="9.960132316357312"><ele>94.14285714285714</ele><time>2026-04-25T06:43:40Z</time></trkpt><trkpt lat="44.88353876420952" lon="9.960189490439035"><ele>93.85714285714286</ele><time>2026-04-25T06:43:41Z</time></trkpt><trkpt lat="44.883480837862415" lon="9.960248155360711"><ele>93.57142857142857</ele><time>2026-04-25T06:43:42Z</time></trkpt><trkpt lat="44.88342460195346" lon="9.960306274886966"><ele>93.28571428571429</ele><time>2026-04-25T06:43:43Z</time></trkpt><trkpt lat="44.8833697855671" lon="9.960369110677338"><ele>93.0</ele><time>2026-04-25T06:43:44Z</time></trkpt><trkpt lat="44.883318991688036" lon="9.960432651035253"><ele>93.42857142857143</ele><time>2026-04-25T06:43:45Z</time></trkpt><trkpt lat="44.88326919954659" lon="9.960499263731053"><ele>93.85714285714286</ele><time>2026-04-25T06:43:46Z</time></trkpt><trkpt lat="44.88321783094987" lon="9.960566575733246"><ele>94.28571428571428</ele><time>2026-04-25T06:43:47Z</time></trkpt><trkpt lat="44.88316911662221" lon="9.960639486155989"><ele>94.71428571428572</ele><time>2026-04-25T06:43:48Z</time></trkpt><trkpt lat="44.883116870871156" lon="9.960710377539936"><ele>95.14285714285714</ele><time>2026-04-25T06:43:48.999Z</time></trkpt><trkpt lat="44.88306565575283" lon="9.96078482295843"><ele>95.57142857142857</ele><time>2026-04-25T06:43:49.999Z</time></trkpt><trkpt lat="44.883009821516616" lon="9.960858892445883"><ele>96.0</ele><time>2026-04-25T06:43:50.999Z</time></trkpt><trkpt lat="44.882952240672644" lon="9.960930107744048"><ele>96.0</ele><time>2026-04-25T06:43:51.999Z</time></trkpt><trkpt lat="44.88289210842463" lon="9.9610021130229"><ele>96.0</ele><time>2026-04-25T06:43:52.999Z</time></trkpt><trkpt lat="44.882830336876246" lon="9.96106962084615"><ele>96.0</ele><time>2026-04-25T06:43:53.999Z</time></trkpt><trkpt lat="44.882763567071045" lon="9.961130038949719"><ele>96.0</ele><time>2026-04-25T06:43:54.999Z</time></trkpt><trkpt lat="44.88269725436572" lon="9.961197445467143"><ele>96.0</ele><time>2026-04-25T06:43:55.999Z</time></trkpt><trkpt lat="44.88262733453157" lon="9.961261047967058"><ele>96.0</ele><time>2026-04-25T06:43:56.999Z</time></trkpt><trkpt lat="44.88255696130022" lon="9.961326866678652"><ele>95.33333333333333</ele><time>2026-04-25T06:43:57.999Z</time></trkpt><trkpt lat="44.88248532560837" lon="9.961394173874826"><ele>94.66666666666667</ele><time>2026-04-25T06:43:58.999Z</time></trkpt><trkpt lat="44.882414426221104" lon="9.961461716384894"><ele>94.0</ele><time>2026-04-25T06:43:59.999Z</time></trkpt><trkpt lat="44.88234201016404" lon="9.961531128332497"><ele>93.33333333333334</ele><time>2026-04-25T06:44:00.999Z</time></trkpt><trkpt lat="44.8822681964659" lon="9.961597265938895"><ele>92.66666666666667</ele><time>2026-04-25T06:44:01.999Z</time></trkpt><trkpt lat="44.882194186070066" lon="9.961665373503623"><ele>92.0</ele><time>2026-04-25T06:44:02.999Z</time></trkpt><trkpt lat="44.88211807144134" lon="9.961737018120296"><ele>92.0</ele><time>2026-04-25T06:44:03.999Z</time></trkpt><trkpt lat="44.882040910128914" lon="9.961809219068899"><ele>92.0</ele><time>2026-04-25T06:44:04.999Z</time></trkpt><trkpt lat="44.88196513887508" lon="9.961881082512805"><ele>92.0</ele><time>2026-04-25T06:44:05.999Z</time></trkpt><trkpt lat="44.88189028529678" lon="9.961948005334733"><ele>92.0</ele><time>2026-04-25T06:44:06.999Z</time></trkpt><trkpt lat="44.88181724190134" lon="9.96201408960172"><ele>92.0</ele><time>2026-04-25T06:44:07.999Z</time></trkpt><trkpt lat="44.88174589501964" lon="9.962080318384904"><ele>92.0</ele><time>2026-04-25T06:44:08.999Z</time></trkpt><trkpt lat="44.88167764360677" lon="9.96214656448089"><ele>92.0</ele><time>2026-04-25T06:44:09.999Z</time></trkpt><trkpt lat="44.88160971191816" lon="9.962208571041776"><ele>92.0</ele><time>2026-04-25T06:44:10.999Z</time></trkpt><trkpt lat="44.88154420435991" lon="9.962270750014042"><ele>92.0</ele><time>2026-04-25T06:44:11.999Z</time></trkpt><trkpt lat="44.881482470853214" lon="9.962336298998103"><ele>92.0</ele><time>2026-04-25T06:44:12.999Z</time></trkpt><trkpt lat="44.88142176067247" lon="9.9624038522554"><ele>92.0</ele><time>2026-04-25T06:44:13.999Z</time></trkpt><trkpt lat="44.88136455551446" lon="9.96247618576944"><ele>92.0</ele><time>2026-04-25T06:44:14.999Z</time></trkpt><trkpt lat="44.88130641558528" lon="9.962550381833125"><ele>92.28571428571429</ele><time>2026-04-25T06:44:15.999Z</time></trkpt><trkpt lat="44.881250946171285" lon="9.962626084130752"><ele>92.57142857142857</ele><time>2026-04-25T06:44:16.999Z</time></trkpt><trkpt lat="44.88120094146524" lon="9.962699881128591"><ele>92.85714285714286</ele><time>2026-04-25T06:44:17.999Z</time></trkpt><trkpt lat="44.88115419904647" lon="9.96278208970866"><ele>93.14285714285714</ele><time>2026-04-25T06:44:18.999Z</time></trkpt><trkpt lat="44.88111191979874" lon="9.96286573583267"><ele>93.42857142857142</ele><time>2026-04-25T06:44:19.999Z</time></trkpt><trkpt lat="44.88106800024231" lon="9.962948838474189"><ele>93.71428571428571</ele><time>2026-04-25T06:44:20.999Z</time></trkpt><trkpt lat="44.88102641631707" lon="9.9630341867025"><ele>94.0</ele><time>2026-04-25T06:44:21.999Z</time></trkpt><trkpt lat="44.880988995941" lon="9.963123397645239"><ele>94.0</ele><time>2026-04-25T06:44:22.999Z</time></trkpt><trkpt lat="44.88094937928884" lon="9.963210824199168"><ele>94.0</ele><time>2026-04-25T06:44:23.999Z</time></trkpt><trkpt lat="44.880909570386414" lon="9.963299868862263"><ele>94.0</ele><time>2026-04-25T06:44:24.999Z</time></trkpt><trkpt lat="44.88087088744595" lon="9.963386924220329"><ele>94.0</ele><time>2026-04-25T06:44:25.999Z</time></trkpt><trkpt lat="44.880830544637696" lon="9.963476005189502"><ele>94.0</ele><time>2026-04-25T06:44:26.999Z</time></trkpt><trkpt lat="44.8807888248837" lon="9.963568909516422"><ele>94.0</ele><time>2026-04-25T06:44:27.999Z</time></trkpt><trkpt lat="44.88074705891525" lon="9.963664082393702"><ele>94.0</ele><time>2026-04-25T06:44:28.999Z</time></trkpt><trkpt lat="44.88070874271467" lon="9.96376308578044"><ele>94.0</ele><time>2026-04-25T06:44:29.999Z</time></trkpt><trkpt lat="44.88066307197828" lon="9.963860510360199"><ele>94.0</ele><time>2026-04-25T06:44:30.999Z</time></trkpt><trkpt lat="44.88062067536233" lon="9.963966114478703"><ele>94.0</ele><time>2026-04-25T06:44:31.999Z</time></trkpt><trkpt lat="44.88057293220674" lon="9.964067047392465"><ele>94.0</ele><time>2026-04-25T06:44:32.999Z</time></trkpt><trkpt lat="44.880524757418286" lon="9.964174956630632"><ele>94.0</ele><time>2026-04-25T06:44:33.999Z</time></trkpt><trkpt lat="44.88048179959922" lon="9.964285220164891"><ele>94.0</ele><time>2026-04-25T06:44:34.999Z</time></trkpt><trkpt lat="44.88043121406967" lon="9.964391241306746"><ele>94.0</ele><time>2026-04-25T06:44:35.999Z</time></trkpt><trkpt lat="44.880383387632676" lon="9.964503401364546"><ele>94.0</ele><time>2026-04-25T06:44:36.999Z</time></trkpt><trkpt lat="44.88033558968367" lon="9.964619815171135"><ele>94.0</ele><time>2026-04-25T06:44:37.999Z</time></trkpt><trkpt lat="44.88028741412587" lon="9.9647317958378"><ele>94.0</ele><time>2026-04-25T06:44:38.999Z</time></trkpt><trkpt lat="44.88023996379191" lon="9.964845027436626"><ele>94.0</ele><time>2026-04-25T06:44:39.999Z</time></trkpt><trkpt lat="44.88018486758902" lon="9.964951605266865"><ele>94.0</ele><time>2026-04-25T06:44:40.998Z</time></trkpt><trkpt lat="44.88013426469362" lon="9.965063478174006"><ele>94.0</ele><time>2026-04-25T06:44:41.998Z</time></trkpt><trkpt lat="44.880084806304126" lon="9.965177887298509"><ele>94.0</ele><time>2026-04-25T06:44:42.998Z</time></trkpt><trkpt lat="44.88003543665161" lon="9.965293046270935"><ele>94.0</ele><time>2026-04-25T06:44:43.998Z</time></trkpt><trkpt lat="44.8799855549366" lon="9.965409827192362"><ele>93.4</ele><time>2026-04-25T06:44:44.998Z</time></trkpt><trkpt lat="44.879934885975594" lon="9.965526256009046"><ele>92.80000000000001</ele><time>2026-04-25T06:44:45.998Z</time></trkpt><trkpt lat="44.879885928407404" lon="9.965644400848317"><ele>92.19999999999999</ele><time>2026-04-25T06:44:46.998Z</time></trkpt><trkpt lat="44.879839417998404" lon="9.965763752474508"><ele>91.6</ele><time>2026-04-25T06:44:47.998Z</time></trkpt><trkpt lat="44.879793306151754" lon="9.9658796816541"><ele>91.0</ele><time>2026-04-25T06:44:48.998Z</time></trkpt><trkpt lat="44.879749834153394" lon="9.965998734403007"><ele>90.83333333333333</ele><time>2026-04-25T06:44:49.998Z</time></trkpt><trkpt lat="44.87970662362253" lon="9.96611550437256"><ele>90.66666666666666</ele><time>2026-04-25T06:44:50.998Z</time></trkpt><trkpt lat="44.879667472602264" lon="9.966229568838397"><ele>90.5</ele><time>2026-04-25T06:44:51.998Z</time></trkpt><trkpt lat="44.879626306584974" lon="9.966338655479294"><ele>90.33333333333333</ele><time>2026-04-25T06:44:52.998Z</time></trkpt><trkpt lat="44.87958559496232" lon="9.966446027881279"><ele>90.16666666666667</ele><time>2026-04-25T06:44:53.998Z</time></trkpt><trkpt lat="44.879546427191464" lon="9.966556068017844"><ele>90.0</ele><time>2026-04-25T06:44:54.998Z</time></trkpt><trkpt lat="44.87950697061584" lon="9.966660555637102"><ele>89.66666666666667</ele><time>2026-04-25T06:44:55.998Z</time></trkpt><trkpt lat="44.87946825721016" lon="9.966764692858082"><ele>89.33333333333333</ele><time>2026-04-25T06:44:56.998Z</time></trkpt><trkpt lat="44.87942881981863" lon="9.966865957939504"><ele>89.0</ele><time>2026-04-25T06:44:57.998Z</time></trkpt><trkpt lat="44.87939064961484" lon="9.966969732636967"><ele>88.66666666666666</ele><time>2026-04-25T06:44:58.998Z</time></trkpt><trkpt lat="44.87935547931864" lon="9.967072829463374"><ele>88.33333333333333</ele><time>2026-04-25T06:44:59.998Z</time></trkpt><trkpt lat="44.879319274434046" lon="9.96717695803524"><ele>88.0</ele><time>2026-04-25T06:45:00.998Z</time></trkpt><trkpt lat="44.87928302365884" lon="9.967277331057844"><ele>88.66666666666666</ele><time>2026-04-25T06:45:01.998Z</time></trkpt><trkpt lat="44.879245183180274" lon="9.967375543629696"><ele>89.33333333333333</ele><time>2026-04-25T06:45:02.998Z</time></trkpt><trkpt lat="44.879206640496115" lon="9.96746926800476"><ele>90.0</ele><time>2026-04-25T06:45:03.998Z</time></trkpt><trkpt lat="44.879171937575116" lon="9.96756981632898"><ele>90.66666666666667</ele><time>2026-04-25T06:45:04.998Z</time></trkpt><trkpt lat="44.87913619065862" lon="9.967665995214048"><ele>91.33333333333334</ele><time>2026-04-25T06:45:05.998Z</time></trkpt><trkpt lat="44.879101019887244" lon="9.967762894142025"><ele>92.0</ele><time>2026-04-25T06:45:06.998Z</time></trkpt><trkpt lat="44.87906690289634" lon="9.967854829125326"><ele>92.0</ele><time>2026-04-25T06:45:07.998Z</time></trkpt><trkpt lat="44.87903106978929" lon="9.967950153580512"><ele>92.0</ele><time>2026-04-25T06:45:08.998Z</time></trkpt><trkpt lat="44.878995254362884" lon="9.968045791759254"><ele>92.0</ele><time>2026-04-25T06:45:09.998Z</time></trkpt><trkpt lat="44.878959245424404" lon="9.96814149204237"><ele>92.0</ele><time>2026-04-25T06:45:10.998Z</time></trkpt><trkpt lat="44.878928348265845" lon="9.968232398204735"><ele>92.0</ele><time>2026-04-25T06:45:12Z</time></trkpt><trkpt lat="44.87889466351955" lon="9.968324481929539"><ele>92.0</ele><time>2026-04-25T06:45:13Z</time></trkpt><trkpt lat="44.87886050745333" lon="9.968416703772618"><ele>92.0</ele><time>2026-04-25T06:45:14Z</time></trkpt><trkpt lat="44.87882533451043" lon="9.968507507845725"><ele>91.28571428571429</ele><time>2026-04-25T06:45:15Z</time></trkpt><trkpt lat="44.87879015638395" lon="9.968598538590973"><ele>90.57142857142857</ele><time>2026-04-25T06:45:16Z</time></trkpt><trkpt lat="44.87875560561223" lon="9.96869150336166"><ele>89.85714285714286</ele><time>2026-04-25T06:45:17Z</time></trkpt><trkpt lat="44.87872026665663" lon="9.968783712370978"><ele>89.14285714285714</ele><time>2026-04-25T06:45:18Z</time></trkpt><trkpt lat="44.87868420776365" lon="9.968876609171497"><ele>88.42857142857143</ele><time>2026-04-25T06:45:19Z</time></trkpt><trkpt lat="44.87864924997999" lon="9.968967310699037"><ele>87.71428571428571</ele><time>2026-04-25T06:45:20Z</time></trkpt><trkpt lat="44.87861728132687" lon="9.96906123158367"><ele>87.0</ele><time>2026-04-25T06:45:21Z</time></trkpt><trkpt lat="44.878586959693884" lon="9.969151388156842"><ele>87.14285714285714</ele><time>2026-04-25T06:45:22Z</time></trkpt><trkpt lat="44.87855419656922" lon="9.969240247228225"><ele>87.28571428571429</ele><time>2026-04-25T06:45:23Z</time></trkpt><trkpt lat="44.87851765404041" lon="9.969332120146628"><ele>87.42857142857143</ele><time>2026-04-25T06:45:24Z</time></trkpt><trkpt lat="44.87848201043989" lon="9.96941650528099"><ele>87.57142857142857</ele><time>2026-04-25T06:45:25Z</time></trkpt><trkpt lat="44.878451696192656" lon="9.96950326306075"><ele>87.71428571428571</ele><time>2026-04-25T06:45:26Z</time></trkpt><trkpt lat="44.87840676335338" lon="9.96957671138563"><ele>87.85714285714286</ele><time>2026-04-25T06:45:27Z</time></trkpt><trkpt lat="44.878335594279775" lon="9.969655019986494"><ele>88.0</ele><time>2026-04-25T06:45:28Z</time></trkpt><trkpt lat="44.87827005334463" lon="9.969676029997453"><ele>88.25</ele><time>2026-04-25T06:45:29Z</time></trkpt><trkpt lat="44.878132086130044" lon="9.969565430214514"><ele>88.5</ele><time>2026-04-25T06:45:31Z</time></trkpt><trkpt lat="44.87804016615036" lon="9.969452974658275"><ele>88.75</ele><time>2026-04-25T06:45:33Z</time></trkpt><trkpt lat="44.87795989290942" lon="9.969335734116884"><ele>89.0</ele><time>2026-04-25T06:45:35Z</time></trkpt><trkpt lat="44.87788268449591" lon="9.969234909641793"><ele>89.2</ele><time>2026-04-25T06:45:37Z</time></trkpt><trkpt lat="44.87780817625467" lon="9.96912224977784"><ele>89.4</ele><time>2026-04-25T06:45:39Z</time></trkpt><trkpt lat="44.87769594203611" lon="9.969072848956996"><ele>89.6</ele><time>2026-04-25T06:45:41Z</time></trkpt><trkpt lat="44.877594365879666" lon="9.969207343254931"><ele>89.8</ele><time>2026-04-25T06:45:43Z</time></trkpt><trkpt lat="44.87756267974607" lon="9.969290748930039"><ele>90.0</ele><time>2026-04-25T06:45:44Z</time></trkpt><trkpt lat="44.87753846295792" lon="9.969378483312997"><ele>90.0</ele><time>2026-04-25T06:45:45Z</time></trkpt><trkpt lat="44.877510631017024" lon="9.96946474104336"><ele>90.0</ele><time>2026-04-25T06:45:46Z</time></trkpt><trkpt lat="44.87748164959685" lon="9.969552461161339"><ele>90.0</ele><time>2026-04-25T06:45:47Z</time></trkpt><trkpt lat="44.87744599624571" lon="9.969636323056937"><ele>90.0</ele><time>2026-04-25T06:45:48Z</time></trkpt><trkpt lat="44.87740593626136" lon="9.96971970442602"><ele>90.0</ele><time>2026-04-25T06:45:49Z</time></trkpt><trkpt lat="44.87736422071229" lon="9.969800578052718"><ele>90.0</ele><time>2026-04-25T06:45:50Z</time></trkpt><trkpt lat="44.877321199512195" lon="9.969881845048134"><ele>90.0</ele><time>2026-04-25T06:45:51Z</time></trkpt><trkpt lat="44.87727311525965" lon="9.969961876032295"><ele>90.0</ele><time>2026-04-25T06:45:52Z</time></trkpt><trkpt lat="44.87723334392839" lon="9.970047267102327"><ele>90.0</ele><time>2026-04-25T06:45:52.999Z</time></trkpt><trkpt lat="44.87719330614762" lon="9.970132728641365"><ele>90.0</ele><time>2026-04-25T06:45:53.999Z</time></trkpt><trkpt lat="44.87714226282566" lon="9.970211503947551"><ele>90.0</ele><time>2026-04-25T06:45:54.999Z</time></trkpt><trkpt lat="44.87709788123708" lon="9.970294949507675"><ele>90.0</ele><time>2026-04-25T06:45:55.999Z</time></trkpt><trkpt lat="44.87705691710954" lon="9.970383973174421"><ele>90.0</ele><time>2026-04-25T06:45:56.999Z</time></trkpt><trkpt lat="44.877011288483565" lon="9.970465983059384"><ele>90.0</ele><time>2026-04-25T06:45:57.999Z</time></trkpt><trkpt lat="44.876968430147826" lon="9.9705509823378"><ele>90.0</ele><time>2026-04-25T06:45:58.999Z</time></trkpt><trkpt lat="44.87692758864884" lon="9.970634741385213"><ele>90.0</ele><time>2026-04-25T06:45:59.999Z</time></trkpt><trkpt lat="44.87688647968578" lon="9.970717653372468"><ele>90.0</ele><time>2026-04-25T06:46:00.999Z</time></trkpt><trkpt lat="44.87684553019728" lon="9.970797412504096"><ele>90.0</ele><time>2026-04-25T06:46:01.999Z</time></trkpt><trkpt lat="44.876801932823824" lon="9.970874156612663"><ele>90.0</ele><time>2026-04-25T06:46:02.999Z</time></trkpt><trkpt lat="44.876758671823424" lon="9.970954232504509"><ele>90.0</ele><time>2026-04-25T06:46:03.999Z</time></trkpt><trkpt lat="44.87671779174118" lon="9.971034556165051"><ele>90.0</ele><time>2026-04-25T06:46:04.999Z</time></trkpt><trkpt lat="44.87667509511485" lon="9.971115523868784"><ele>90.0</ele><time>2026-04-25T06:46:05.999Z</time></trkpt><trkpt lat="44.87663119130452" lon="9.97119548044614"><ele>90.0</ele><time>2026-04-25T06:46:06.999Z</time></trkpt><trkpt lat="44.87658946079776" lon="9.971278841857607"><ele>90.0</ele><time>2026-04-25T06:46:07.999Z</time></trkpt><trkpt lat="44.876548224677016" lon="9.971359081321893"><ele>90.0</ele><time>2026-04-25T06:46:08.999Z</time></trkpt><trkpt lat="44.87650688873934" lon="9.971437903107951"><ele>90.0</ele><time>2026-04-25T06:46:09.999Z</time></trkpt><trkpt lat="44.876466827680254" lon="9.97151509888523"><ele>90.0</ele><time>2026-04-25T06:46:10.999Z</time></trkpt><trkpt lat="44.87642694992847" lon="9.971587690179941"><ele>90.0</ele><time>2026-04-25T06:46:11.999Z</time></trkpt><trkpt lat="44.87638657700242" lon="9.971664240385444"><ele>89.85714285714285</ele><time>2026-04-25T06:46:12.999Z</time></trkpt><trkpt lat="44.876347844131935" lon="9.97173928188229"><ele>89.71428571428572</ele><time>2026-04-25T06:46:13.999Z</time></trkpt><trkpt lat="44.87630745961408" lon="9.971821809718284"><ele>89.57142857142857</ele><time>2026-04-25T06:46:14.999Z</time></trkpt><trkpt lat="44.87626256952996" lon="9.971896474337681"><ele>89.42857142857142</ele><time>2026-04-25T06:46:15.999Z</time></trkpt><trkpt lat="44.8762232518836" lon="9.971974129382874"><ele>89.28571428571428</ele><time>2026-04-25T06:46:16.999Z</time></trkpt><trkpt lat="44.876183176804695" lon="9.97205020432121"><ele>89.14285714285714</ele><time>2026-04-25T06:46:17.999Z</time></trkpt><trkpt lat="44.87614409352551" lon="9.972127491113747"><ele>89.0</ele><time>2026-04-25T06:46:18.999Z</time></trkpt><trkpt lat="44.8761058852009" lon="9.972199500379332"><ele>89.0</ele><time>2026-04-25T06:46:19.999Z</time></trkpt><trkpt lat="44.87603098210513" lon="9.972340062936716"><ele>89.0</ele><time>2026-04-25T06:46:21.999Z</time></trkpt><trkpt lat="44.87595756371736" lon="9.972481161698576"><ele>89.0</ele><time>2026-04-25T06:46:23.999Z</time></trkpt><trkpt lat="44.87589511788923" lon="9.972630869778543"><ele>89.0</ele><time>2026-04-25T06:46:25.999Z</time></trkpt><trkpt lat="44.87584677093681" lon="9.972789702743215"><ele>90.6</ele><time>2026-04-25T06:46:27.999Z</time></trkpt><trkpt lat="44.87582485191632" lon="9.972873981539905"><ele>92.2</ele><time>2026-04-25T06:46:28.999Z</time></trkpt><trkpt lat="44.87580322523317" lon="9.972957854927792"><ele>93.8</ele><time>2026-04-25T06:46:29.999Z</time></trkpt><trkpt lat="44.875756978689644" lon="9.973126078472136"><ele>95.39999999999999</ele><time>2026-04-25T06:46:31.999Z</time></trkpt><trkpt lat="44.8757156186907" lon="9.97329089970384"><ele>97.0</ele><time>2026-04-25T06:46:33.999Z</time></trkpt><trkpt lat="44.875673084863486" lon="9.97344476087029"><ele>99.00000000000001</ele><time>2026-04-25T06:46:35.999Z</time></trkpt><trkpt lat="44.875638565578335" lon="9.973575101607807"><ele>101.0</ele><time>2026-04-25T06:46:37.999Z</time></trkpt><trkpt lat="44.87559822092578" lon="9.973697320242744"><ele>103.0</ele><time>2026-04-25T06:46:39.999Z</time></trkpt><trkpt lat="44.87557215931198" lon="9.973810456997004"><ele>105.0</ele><time>2026-04-25T06:46:41.999Z</time></trkpt><trkpt lat="44.87555017247685" lon="9.973914313794399"><ele>107.00000000000001</ele><time>2026-04-25T06:46:43.999Z</time></trkpt><trkpt lat="44.87552844264497" lon="9.974021561251313"><ele>109.0</ele><time>2026-04-25T06:46:45.998Z</time></trkpt><trkpt lat="44.87550790844411" lon="9.974131497565889"><ele>109.00000000000001</ele><time>2026-04-25T06:46:47.998Z</time></trkpt><trkpt lat="44.87548582980994" lon="9.974239489134641"><ele>109.0</ele><time>2026-04-25T06:46:49.998Z</time></trkpt><trkpt lat="44.875465280589886" lon="9.974352379266827"><ele>109.0</ele><time>2026-04-25T06:46:51.998Z</time></trkpt><trkpt lat="44.87544547758907" lon="9.974461644110972"><ele>109.0</ele><time>2026-04-25T06:46:53.998Z</time></trkpt><trkpt lat="44.87540396785972" lon="9.9745609973203"><ele>109.00000000000001</ele><time>2026-04-25T06:46:55.998Z</time></trkpt><trkpt lat="44.87535569446516" lon="9.974661488185367"><ele>109.0</ele><time>2026-04-25T06:46:57.998Z</time></trkpt><trkpt lat="44.87534903280139" lon="9.974762881657972"><ele>109.00000000000001</ele><time>2026-04-25T06:46:59.998Z</time></trkpt><trkpt lat="44.875280263785285" lon="9.974793295506688"><ele>109.0</ele><time>2026-04-25T06:47:01.998Z</time></trkpt><trkpt lat="44.87518824047549" lon="9.9747725433366"><ele>109.0</ele><time>2026-04-25T06:47:03.998Z</time></trkpt><trkpt lat="44.87509127745452" lon="9.974753526032654"><ele>109.0</ele><time>2026-04-25T06:47:05.998Z</time></trkpt><trkpt lat="44.87499781240703" lon="9.974742437651493"><ele>109.00000000000001</ele><time>2026-04-25T06:47:07.998Z</time></trkpt><trkpt lat="44.874905627147335" lon="9.974731883511208"><ele>109.0</ele><time>2026-04-25T06:47:09.998Z</time></trkpt><trkpt lat="44.8748096372213" lon="9.974716551782427"><ele>108.4</ele><time>2026-04-25T06:47:11.998Z</time></trkpt><trkpt lat="44.87471341847482" lon="9.974703597008725"><ele>107.80000000000001</ele><time>2026-04-25T06:47:13.998Z</time></trkpt><trkpt lat="44.874619224716604" lon="9.97469240812281"><ele>107.19999999999999</ele><time>2026-04-25T06:47:15.998Z</time></trkpt><trkpt lat="44.87452179062005" lon="9.974683127579278"><ele>106.6</ele><time>2026-04-25T06:47:18Z</time></trkpt><trkpt lat="44.87442039239924" lon="9.974670495733292"><ele>106.0</ele><time>2026-04-25T06:47:20Z</time></trkpt><trkpt lat="44.87431565238288" lon="9.974659293527164"><ele>106.6</ele><time>2026-04-25T06:47:22Z</time></trkpt><trkpt lat="44.87421201101847" lon="9.974641297995289"><ele>107.19999999999999</ele><time>2026-04-25T06:47:24Z</time></trkpt><trkpt lat="44.87410536239818" lon="9.974626866133642"><ele>107.80000000000001</ele><time>2026-04-25T06:47:26Z</time></trkpt><trkpt lat="44.87399530097127" lon="9.97461164119356"><ele>108.4</ele><time>2026-04-25T06:47:28Z</time></trkpt><trkpt lat="44.87388541844608" lon="9.97459678673554"><ele>109.0</ele><time>2026-04-25T06:47:30Z</time></trkpt><trkpt lat="44.87377571960339" lon="9.97458725331326"><ele>109.0</ele><time>2026-04-25T06:47:32Z</time></trkpt><trkpt lat="44.87366607854696" lon="9.974571171629112"><ele>109.0</ele><time>2026-04-25T06:47:34Z</time></trkpt><trkpt lat="44.87355539640959" lon="9.9745543879703"><ele>109.0</ele><time>2026-04-25T06:47:36Z</time></trkpt><trkpt lat="44.87344297060097" lon="9.974544540201693"><ele>109.0</ele><time>2026-04-25T06:47:38Z</time></trkpt><trkpt lat="44.873330297530316" lon="9.97453379420205"><ele>109.0</ele><time>2026-04-25T06:47:40Z</time></trkpt><trkpt lat="44.87321852610456" lon="9.974524570067356"><ele>109.4</ele><time>2026-04-25T06:47:42Z</time></trkpt><trkpt lat="44.87311026491199" lon="9.974515295947707"><ele>109.80000000000001</ele><time>2026-04-25T06:47:44Z</time></trkpt><trkpt lat="44.87299879239519" lon="9.974504492407394"><ele>110.19999999999999</ele><time>2026-04-25T06:47:46Z</time></trkpt><trkpt lat="44.87288937700828" lon="9.974490483226127"><ele>110.6</ele><time>2026-04-25T06:47:48Z</time></trkpt><trkpt lat="44.87277777056126" lon="9.974481998221515"><ele>111.0</ele><time>2026-04-25T06:47:50Z</time></trkpt><trkpt lat="44.87266711107829" lon="9.974463249882369"><ele>111.8</ele><time>2026-04-25T06:47:52Z</time></trkpt><trkpt lat="44.872559566259156" lon="9.974455358412674"><ele>112.6</ele><time>2026-04-25T06:47:54Z</time></trkpt><trkpt lat="44.8724571514434" lon="9.97444154470296"><ele>113.4</ele><time>2026-04-25T06:47:55.999Z</time></trkpt><trkpt lat="44.87235664356542" lon="9.974431240374251"><ele>114.2</ele><time>2026-04-25T06:47:57.999Z</time></trkpt><trkpt lat="44.87225544457792" lon="9.974416253643072"><ele>115.0</ele><time>2026-04-25T06:47:59.999Z</time></trkpt><trkpt lat="44.872153737701176" lon="9.974403176561403"><ele>115.0</ele><time>2026-04-25T06:48:01.999Z</time></trkpt><trkpt lat="44.87205283928245" lon="9.974384494802953"><ele>115.0</ele><time>2026-04-25T06:48:03.999Z</time></trkpt><trkpt lat="44.87195294873019" lon="9.974362204102894"><ele>115.0</ele><time>2026-04-25T06:48:05.999Z</time></trkpt><trkpt lat="44.87185494006379" lon="9.974342474558028"><ele>115.0</ele><time>2026-04-25T06:48:07.999Z</time></trkpt><trkpt lat="44.87175512764663" lon="9.974321815858225"><ele>115.0</ele><time>2026-04-25T06:48:09.999Z</time></trkpt><trkpt lat="44.87165342650477" lon="9.974294868319333"><ele>115.4</ele><time>2026-04-25T06:48:11.999Z</time></trkpt><trkpt lat="44.87155122732448" lon="9.974269881432352"><ele>115.8</ele><time>2026-04-25T06:48:13.999Z</time></trkpt><trkpt lat="44.8714507530528" lon="9.974242409399354"><ele>116.19999999999999</ele><time>2026-04-25T06:48:15.999Z</time></trkpt><trkpt lat="44.871347515571934" lon="9.97421451816533"><ele>116.6</ele><time>2026-04-25T06:48:17.999Z</time></trkpt><trkpt lat="44.87124272411703" lon="9.974189684026667"><ele>117.0</ele><time>2026-04-25T06:48:19.999Z</time></trkpt><trkpt lat="44.87114052837805" lon="9.974164400101575"><ele>117.39999999999999</ele><time>2026-04-25T06:48:21.999Z</time></trkpt><trkpt lat="44.87103504110345" lon="9.974139799183527"><ele>117.79999999999998</ele><time>2026-04-25T06:48:23.999Z</time></trkpt><trkpt lat="44.87092855980329" lon="9.97411876184668"><ele>118.2</ele><time>2026-04-25T06:48:25.999Z</time></trkpt><trkpt lat="44.87082628867155" lon="9.974102747475625"><ele>118.6</ele><time>2026-04-25T06:48:27.999Z</time></trkpt><trkpt lat="44.870718563313815" lon="9.974075654655971"><ele>119.0</ele><time>2026-04-25T06:48:29.999Z</time></trkpt><trkpt lat="44.87060627620431" lon="9.974069697801578"><ele>119.0</ele><time>2026-04-25T06:48:31.999Z</time></trkpt><trkpt lat="44.870494159815806" lon="9.974057199724209"><ele>119.0</ele><time>2026-04-25T06:48:33.999Z</time></trkpt><trkpt lat="44.87038272267992" lon="9.97403531978469"><ele>119.0</ele><time>2026-04-25T06:48:35.999Z</time></trkpt><trkpt lat="44.870267786214356" lon="9.974021131789858"><ele>119.0</ele><time>2026-04-25T06:48:37.999Z</time></trkpt><trkpt lat="44.870151209022985" lon="9.97400249797108"><ele>119.25</ele><time>2026-04-25T06:48:39.999Z</time></trkpt><trkpt lat="44.87003649802301" lon="9.973986126278026"><ele>119.5</ele><time>2026-04-25T06:48:41.999Z</time></trkpt><trkpt lat="44.86991873096191" lon="9.973974359937667"><ele>119.75</ele><time>2026-04-25T06:48:43.999Z</time></trkpt><trkpt lat="44.869801657478625" lon="9.973961003541604"><ele>120.0</ele><time>2026-04-25T06:48:45.999Z</time></trkpt><trkpt lat="44.86968674566712" lon="9.97395542084845"><ele>120.0</ele><time>2026-04-25T06:48:47.998Z</time></trkpt><trkpt lat="44.86956908023698" lon="9.973942635922562"><ele>120.0</ele><time>2026-04-25T06:48:49.998Z</time></trkpt><trkpt lat="44.869450414174246" lon="9.973926737170592"><ele>120.0</ele><time>2026-04-25T06:48:51.998Z</time></trkpt><trkpt lat="44.8693311485205" lon="9.973912106174838"><ele>120.0</ele><time>2026-04-25T06:48:53.998Z</time></trkpt><trkpt lat="44.869215552379444" lon="9.973892411435436"><ele>120.5</ele><time>2026-04-25T06:48:55.998Z</time></trkpt><trkpt lat="44.869100203404805" lon="9.97388190402702"><ele>121.0</ele><time>2026-04-25T06:48:57.998Z</time></trkpt><trkpt lat="44.868987889701536" lon="9.973874322167775"><ele>121.5</ele><time>2026-04-25T06:48:59.998Z</time></trkpt><trkpt lat="44.868874607001246" lon="9.973862390346442"><ele>122.0</ele><time>2026-04-25T06:49:01.998Z</time></trkpt><trkpt lat="44.86876211331854" lon="9.973867450249427"><ele>122.0</ele><time>2026-04-25T06:49:03.998Z</time></trkpt><trkpt lat="44.86864489013674" lon="9.97387547867018"><ele>122.0</ele><time>2026-04-25T06:49:05.998Z</time></trkpt><trkpt lat="44.868532182475725" lon="9.973890225902498"><ele>122.0</ele><time>2026-04-25T06:49:07.998Z</time></trkpt><trkpt lat="44.868422854883654" lon="9.973914044759354"><ele>122.0</ele><time>2026-04-25T06:49:09.998Z</time></trkpt><trkpt lat="44.86831276952514" lon="9.973935090200756"><ele>122.75</ele><time>2026-04-25T06:49:11.998Z</time></trkpt><trkpt lat="44.868202137193165" lon="9.97395871165607"><ele>123.5</ele><time>2026-04-25T06:49:13.998Z</time></trkpt><trkpt lat="44.868089513503676" lon="9.973981356387931"><ele>124.25</ele><time>2026-04-25T06:49:15.998Z</time></trkpt><trkpt lat="44.867974040440075" lon="9.974003258646658"><ele>125.0</ele><time>2026-04-25T06:49:17.998Z</time></trkpt><trkpt lat="44.867857896573796" lon="9.97403293147753"><ele>125.0</ele><time>2026-04-25T06:49:19.998Z</time></trkpt><trkpt lat="44.867740275347714" lon="9.9740452496656"><ele>125.0</ele><time>2026-04-25T06:49:21.998Z</time></trkpt><trkpt lat="44.86762282714242" lon="9.974055465906686"><ele>125.0</ele><time>2026-04-25T06:49:24Z</time></trkpt><trkpt lat="44.86750566522347" lon="9.97404975359103"><ele>125.0</ele><time>2026-04-25T06:49:26Z</time></trkpt><trkpt lat="44.86738738948234" lon="9.974039599424511"><ele>126.0</ele><time>2026-04-25T06:49:28Z</time></trkpt><trkpt lat="44.867272033126056" lon="9.974016333600648"><ele>127.0</ele><time>2026-04-25T06:49:30Z</time></trkpt><trkpt lat="44.86716158836484" lon="9.97398394134364"><ele>128.0</ele><time>2026-04-25T06:49:32Z</time></trkpt><trkpt lat="44.86704783981564" lon="9.97394805673596"><ele>129.0</ele><time>2026-04-25T06:49:34Z</time></trkpt><trkpt lat="44.86693580366065" lon="9.973920746434535"><ele>129.0</ele><time>2026-04-25T06:49:36Z</time></trkpt><trkpt lat="44.86682451270203" lon="9.973892567372696"><ele>129.0</ele><time>2026-04-25T06:49:38Z</time></trkpt><trkpt lat="44.86671374832924" lon="9.973865228449425"><ele>129.0</ele><time>2026-04-25T06:49:40Z</time></trkpt><trkpt lat="44.86659865756866" lon="9.973836714530231"><ele>129.0</ele><time>2026-04-25T06:49:42Z</time></trkpt><trkpt lat="44.8664829248155" lon="9.973805950244833"><ele>128.75</ele><time>2026-04-25T06:49:44Z</time></trkpt><trkpt lat="44.8663673853944" lon="9.973778327753957"><ele>128.5</ele><time>2026-04-25T06:49:46Z</time></trkpt><trkpt lat="44.8662514194402" lon="9.973747891357513"><ele>128.25</ele><time>2026-04-25T06:49:48Z</time></trkpt><trkpt lat="44.86613667454091" lon="9.973718628297213"><ele>128.0</ele><time>2026-04-25T06:49:50Z</time></trkpt><trkpt lat="44.86602335298543" lon="9.973687803287781"><ele>128.5</ele><time>2026-04-25T06:49:52Z</time></trkpt><trkpt lat="44.86590856006638" lon="9.973655917114854"><ele>129.0</ele><time>2026-04-25T06:49:54Z</time></trkpt><trkpt lat="44.865797401503094" lon="9.973628659950196"><ele>129.5</ele><time>2026-04-25T06:49:56Z</time></trkpt><trkpt lat="44.865685453135875" lon="9.973606988534668"><ele>130.0</ele><time>2026-04-25T06:49:58Z</time></trkpt><trkpt lat="44.86557903270293" lon="9.973584345118047"><ele>130.0</ele><time>2026-04-25T06:50:00Z</time></trkpt><trkpt lat="44.865471559192656" lon="9.973554984172464"><ele>130.0</ele><time>2026-04-25T06:50:01.999Z</time></trkpt><trkpt lat="44.86536454708726" lon="9.973532452687845"><ele>130.0</ele><time>2026-04-25T06:50:03.999Z</time></trkpt><trkpt lat="44.86525702096779" lon="9.973516389805416"><ele>130.0</ele><time>2026-04-25T06:50:05.999Z</time></trkpt><trkpt lat="44.86514282365581" lon="9.97350263128918"><ele>130.0</ele><time>2026-04-25T06:50:07.999Z</time></trkpt><trkpt lat="44.86503465066779" lon="9.973503589265313"><ele>130.6</ele><time>2026-04-25T06:50:09.999Z</time></trkpt><trkpt lat="44.86492474083443" lon="9.97350584424896"><ele>131.2</ele><time>2026-04-25T06:50:11.999Z</time></trkpt><trkpt lat="44.86481391152073" lon="9.973509352059436"><ele>131.8</ele><time>2026-04-25T06:50:13.999Z</time></trkpt><trkpt lat="44.864701931638464" lon="9.97352076355841"><ele>132.4</ele><time>2026-04-25T06:50:15.999Z</time></trkpt><trkpt lat="44.864591432889036" lon="9.97353441559649"><ele>133.0</ele><time>2026-04-25T06:50:17.999Z</time></trkpt><trkpt lat="44.86447734441625" lon="9.97354140087626"><ele>133.0</ele><time>2026-04-25T06:50:19.999Z</time></trkpt><trkpt lat="44.86435868986165" lon="9.973551594841892"><ele>133.0</ele><time>2026-04-25T06:50:21.999Z</time></trkpt><trkpt lat="44.864238490318705" lon="9.973564732093953"><ele>133.0</ele><time>2026-04-25T06:50:23.999Z</time></trkpt><trkpt lat="44.864116165285935" lon="9.973574707065955"><ele>133.0</ele><time>2026-04-25T06:50:25.999Z</time></trkpt><trkpt lat="44.86399123548117" lon="9.973587763941962"><ele>133.33333333333334</ele><time>2026-04-25T06:50:27.999Z</time></trkpt><trkpt lat="44.86392793542134" lon="9.973594632574114"><ele>133.66666666666669</ele><time>2026-04-25T06:50:28.999Z</time></trkpt><trkpt lat="44.863863682481885" lon="9.973598814974869"><ele>134.0</ele><time>2026-04-25T06:50:29.999Z</time></trkpt><trkpt lat="44.86380009521853" lon="9.973604324242789"><ele>134.33333333333334</ele><time>2026-04-25T06:50:30.999Z</time></trkpt><trkpt lat="44.86373402128616" lon="9.973609840132323"><ele>134.66666666666666</ele><time>2026-04-25T06:50:31.999Z</time></trkpt><trkpt lat="44.863667750679866" lon="9.973612707472974"><ele>135.0</ele><time>2026-04-25T06:50:32.999Z</time></trkpt><trkpt lat="44.86354132911608" lon="9.973628586822924"><ele>135.0</ele><time>2026-04-25T06:50:34.999Z</time></trkpt><trkpt lat="44.863477027453335" lon="9.97363112851827"><ele>135.0</ele><time>2026-04-25T06:50:35.999Z</time></trkpt><trkpt lat="44.86341092025431" lon="9.973636299283026"><ele>135.0</ele><time>2026-04-25T06:50:36.999Z</time></trkpt><trkpt lat="44.8633447664502" lon="9.973645295314038"><ele>135.0</ele><time>2026-04-25T06:50:37.999Z</time></trkpt><trkpt lat="44.86327854013345" lon="9.973651884426394"><ele>135.0</ele><time>2026-04-25T06:50:38.999Z</time></trkpt><trkpt lat="44.86321237942911" lon="9.973653595035698"><ele>135.0</ele><time>2026-04-25T06:50:39.999Z</time></trkpt><trkpt lat="44.86314724302903" lon="9.973660684889241"><ele>135.0</ele><time>2026-04-25T06:50:40.999Z</time></trkpt><trkpt lat="44.86308201578053" lon="9.973662526235614"><ele>135.14285714285714</ele><time>2026-04-25T06:50:41.999Z</time></trkpt><trkpt lat="44.86301815188004" lon="9.973667858059557"><ele>135.28571428571428</ele><time>2026-04-25T06:50:42.999Z</time></trkpt><trkpt lat="44.86295473460016" lon="9.973674752687396"><ele>135.42857142857142</ele><time>2026-04-25T06:50:43.999Z</time></trkpt><trkpt lat="44.862828745873195" lon="9.973685659385318"><ele>135.57142857142856</ele><time>2026-04-25T06:50:45.999Z</time></trkpt><trkpt lat="44.86276443838647" lon="9.973692618508887"><ele>135.71428571428572</ele><time>2026-04-25T06:50:46.999Z</time></trkpt><trkpt lat="44.86270135367409" lon="9.973695676128088"><ele>135.85714285714283</ele><time>2026-04-25T06:50:47.999Z</time></trkpt><trkpt lat="44.86263840542586" lon="9.973701533412198"><ele>136.0</ele><time>2026-04-25T06:50:48.999Z</time></trkpt><trkpt lat="44.86257405075963" lon="9.973704753544904"><ele>136.2</ele><time>2026-04-25T06:50:49.999Z</time></trkpt><trkpt lat="44.86244711771888" lon="9.973712229274978"><ele>136.39999999999998</ele><time>2026-04-25T06:50:51.999Z</time></trkpt><trkpt lat="44.86238353219039" lon="9.973713947664043"><ele>136.6</ele><time>2026-04-25T06:50:52.999Z</time></trkpt><trkpt lat="44.8622581135314" lon="9.973715335622758"><ele>136.79999999999998</ele><time>2026-04-25T06:50:54.998Z</time></trkpt><trkpt lat="44.86213320552457" lon="9.973710779027016"><ele>137.0</ele><time>2026-04-25T06:50:56.998Z</time></trkpt><trkpt lat="44.86200855559755" lon="9.973707631519956"><ele>137.0</ele><time>2026-04-25T06:50:58.998Z</time></trkpt><trkpt lat="44.86188479218247" lon="9.97370646001975"><ele>137.0</ele><time>2026-04-25T06:51:00.998Z</time></trkpt><trkpt lat="44.861821385139834" lon="9.973707811161207"><ele>137.0</ele><time>2026-04-25T06:51:01.998Z</time></trkpt><trkpt lat="44.86169840804793" lon="9.973699951384459"><ele>137.0</ele><time>2026-04-25T06:51:03.998Z</time></trkpt><trkpt lat="44.86163535765852" lon="9.973698764871184"><ele>137.0</ele><time>2026-04-25T06:51:04.998Z</time></trkpt><trkpt lat="44.861516960435075" lon="9.973695599987405"><ele>137.6</ele><time>2026-04-25T06:51:06.998Z</time></trkpt><trkpt lat="44.86140995071571" lon="9.973696255677226"><ele>138.2</ele><time>2026-04-25T06:51:08.998Z</time></trkpt><trkpt lat="44.86129274690309" lon="9.973682653579226"><ele>138.8</ele><time>2026-04-25T06:51:10.998Z</time></trkpt><trkpt lat="44.861171768852955" lon="9.973681057920041"><ele>139.4</ele><time>2026-04-25T06:51:12.998Z</time></trkpt><trkpt lat="44.86110756182509" lon="9.973680549064445"><ele>140.0</ele><time>2026-04-25T06:51:13.998Z</time></trkpt><trkpt lat="44.86104461896608" lon="9.97367448396642"><ele>140.66666666666666</ele><time>2026-04-25T06:51:14.998Z</time></trkpt><trkpt lat="44.86092250229843" lon="9.973668847489645"><ele>141.33333333333331</ele><time>2026-04-25T06:51:16.998Z</time></trkpt><trkpt lat="44.86085664179762" lon="9.9736702229661"><ele>142.0</ele><time>2026-04-25T06:51:17.998Z</time></trkpt><trkpt lat="44.86073180398384" lon="9.973664285051607"><ele>142.66666666666666</ele><time>2026-04-25T06:51:19.998Z</time></trkpt><trkpt lat="44.860668253672124" lon="9.97366164973882"><ele>143.33333333333334</ele><time>2026-04-25T06:51:20.998Z</time></trkpt><trkpt lat="44.86060432585198" lon="9.973653090341704"><ele>144.0</ele><time>2026-04-25T06:51:21.998Z</time></trkpt><trkpt lat="44.86048177823898" lon="9.973647012156803"><ele>144.0</ele><time>2026-04-25T06:51:23.998Z</time></trkpt><trkpt lat="44.86036519458843" lon="9.973645208202413"><ele>144.0</ele><time>2026-04-25T06:51:25.998Z</time></trkpt><trkpt lat="44.86025156687781" lon="9.973627804876324"><ele>144.0</ele><time>2026-04-25T06:51:27.998Z</time></trkpt><trkpt lat="44.86013512506197" lon="9.97360119108067"><ele>144.0</ele><time>2026-04-25T06:51:30Z</time></trkpt><trkpt lat="44.86002252617539" lon="9.973555251013105"><ele>144.0</ele><time>2026-04-25T06:51:32Z</time></trkpt><trkpt lat="44.859909432376455" lon="9.97349813325805"><ele>144.0</ele><time>2026-04-25T06:51:34Z</time></trkpt><trkpt lat="44.8597969395909" lon="9.97343220250993"><ele>144.0</ele><time>2026-04-25T06:51:36Z</time></trkpt><trkpt lat="44.859685814831806" lon="9.973351856333236"><ele>144.0</ele><time>2026-04-25T06:51:38Z</time></trkpt><trkpt lat="44.85957922023813" lon="9.973262233724473"><ele>144.0</ele><time>2026-04-25T06:51:40Z</time></trkpt><trkpt lat="44.85952671344756" lon="9.973207590533692"><ele>144.0</ele><time>2026-04-25T06:51:41Z</time></trkpt><trkpt lat="44.85942083275883" lon="9.973108677633954"><ele>144.0</ele><time>2026-04-25T06:51:43Z</time></trkpt><trkpt lat="44.859368000401965" lon="9.973058848801854"><ele>144.0</ele><time>2026-04-25T06:51:44Z</time></trkpt><trkpt lat="44.859313197397675" lon="9.973007431475866"><ele>144.0</ele><time>2026-04-25T06:51:45Z</time></trkpt><trkpt lat="44.85925995980093" lon="9.972959247806365"><ele>144.0</ele><time>2026-04-25T06:51:46Z</time></trkpt><trkpt lat="44.85920396357243" lon="9.97290663584269"><ele>144.57142857142858</ele><time>2026-04-25T06:51:47Z</time></trkpt><trkpt lat="44.859148048134394" lon="9.972850888204599"><ele>145.14285714285714</ele><time>2026-04-25T06:51:48Z</time></trkpt><trkpt lat="44.85909129349162" lon="9.972805569378878"><ele>145.71428571428572</ele><time>2026-04-25T06:51:49Z</time></trkpt><trkpt lat="44.859032015659736" lon="9.972760763673556"><ele>146.28571428571428</ele><time>2026-04-25T06:51:50Z</time></trkpt><trkpt lat="44.858971314434925" lon="9.972721306789213"><ele>146.85714285714286</ele><time>2026-04-25T06:51:51Z</time></trkpt><trkpt lat="44.858907022083" lon="9.972684228507221"><ele>147.42857142857144</ele><time>2026-04-25T06:51:52Z</time></trkpt><trkpt lat="44.85884683970177" lon="9.9726472895878"><ele>148.0</ele><time>2026-04-25T06:51:53Z</time></trkpt><trkpt lat="44.858781203347824" lon="9.972612038256079"><ele>148.0</ele><time>2026-04-25T06:51:54Z</time></trkpt><trkpt lat="44.85871986058266" lon="9.972580061740583"><ele>148.0</ele><time>2026-04-25T06:51:55Z</time></trkpt><trkpt lat="44.85865304188802" lon="9.972556188895746"><ele>148.0</ele><time>2026-04-25T06:51:56Z</time></trkpt><trkpt lat="44.85858850387461" lon="9.972534898619703"><ele>148.0</ele><time>2026-04-25T06:51:57Z</time></trkpt><trkpt lat="44.858522548269654" lon="9.97251588538447"><ele>148.0</ele><time>2026-04-25T06:51:58Z</time></trkpt><trkpt lat="44.85845832194602" lon="9.972501130373676"><ele>148.0</ele><time>2026-04-25T06:51:59Z</time></trkpt><trkpt lat="44.85839235183913" lon="9.972491733320057"><ele>148.0</ele><time>2026-04-25T06:52:00Z</time></trkpt><trkpt lat="44.85832471095594" lon="9.97248670083559"><ele>148.0</ele><time>2026-04-25T06:52:01Z</time></trkpt><trkpt lat="44.85825574123417" lon="9.97248608769053"><ele>148.0</ele><time>2026-04-25T06:52:02Z</time></trkpt><trkpt lat="44.85818918528402" lon="9.972479784570394"><ele>148.0</ele><time>2026-04-25T06:52:02.999Z</time></trkpt><trkpt lat="44.85812256285603" lon="9.972478675288894"><ele>148.0</ele><time>2026-04-25T06:52:03.999Z</time></trkpt><trkpt lat="44.85805712041708" lon="9.97248159876592"><ele>148.0</ele><time>2026-04-25T06:52:04.999Z</time></trkpt><trkpt lat="44.85799142874789" lon="9.972487311525981"><ele>148.0</ele><time>2026-04-25T06:52:05.999Z</time></trkpt><trkpt lat="44.85792441064896" lon="9.972498598444258"><ele>148.0</ele><time>2026-04-25T06:52:06.999Z</time></trkpt><trkpt lat="44.85785923622953" lon="9.9725135104516"><ele>148.0</ele><time>2026-04-25T06:52:07.999Z</time></trkpt><trkpt lat="44.85779251025656" lon="9.972532797974006"><ele>148.0</ele><time>2026-04-25T06:52:08.999Z</time></trkpt><trkpt lat="44.857728269420186" lon="9.97255661083585"><ele>148.0</ele><time>2026-04-25T06:52:09.999Z</time></trkpt><trkpt lat="44.857664328980576" lon="9.972580247172885"><ele>148.0</ele><time>2026-04-25T06:52:10.999Z</time></trkpt><trkpt lat="44.85760125092968" lon="9.972602077720264"><ele>148.0</ele><time>2026-04-25T06:52:11.999Z</time></trkpt><trkpt lat="44.85753487862536" lon="9.972625275984404"><ele>148.0</ele><time>2026-04-25T06:52:12.999Z</time></trkpt><trkpt lat="44.85741046285084" lon="9.97267141769758"><ele>148.16666666666669</ele><time>2026-04-25T06:52:14.999Z</time></trkpt><trkpt lat="44.857347590964736" lon="9.972696066088341"><ele>148.33333333333334</ele><time>2026-04-25T06:52:15.999Z</time></trkpt><trkpt lat="44.85728305297161" lon="9.972716649439011"><ele>148.5</ele><time>2026-04-25T06:52:16.999Z</time></trkpt><trkpt lat="44.85721936450368" lon="9.972734384883825"><ele>148.66666666666666</ele><time>2026-04-25T06:52:17.999Z</time></trkpt><trkpt lat="44.8571581678824" lon="9.972756866717251"><ele>148.83333333333331</ele><time>2026-04-25T06:52:18.999Z</time></trkpt><trkpt lat="44.857037083890184" lon="9.972791935584231"><ele>149.0</ele><time>2026-04-25T06:52:20.999Z</time></trkpt><trkpt lat="44.85691832960809" lon="9.97282607881772"><ele>149.0</ele><time>2026-04-25T06:52:22.999Z</time></trkpt><trkpt lat="44.85679785702277" lon="9.97284939504963"><ele>149.0</ele><time>2026-04-25T06:52:24.999Z</time></trkpt><trkpt lat="44.85667577017037" lon="9.972867447524848"><ele>149.0</ele><time>2026-04-25T06:52:26.999Z</time></trkpt><trkpt lat="44.856554916021025" lon="9.972879266938058"><ele>149.0</ele><time>2026-04-25T06:52:28.999Z</time></trkpt><trkpt lat="44.85643074520831" lon="9.97287842232638"><ele>149.5</ele><time>2026-04-25T06:52:30.999Z</time></trkpt><trkpt lat="44.856309994996515" lon="9.972876327117884"><ele>150.0</ele><time>2026-04-25T06:52:32.999Z</time></trkpt><trkpt lat="44.856186706443815" lon="9.972864756864363"><ele>150.5</ele><time>2026-04-25T06:52:34.999Z</time></trkpt><trkpt lat="44.85606223274838" lon="9.972843547087962"><ele>151.0</ele><time>2026-04-25T06:52:36.999Z</time></trkpt><trkpt lat="44.85594117904247" lon="9.972832965148989"><ele>151.5</ele><time>2026-04-25T06:52:38.999Z</time></trkpt><trkpt lat="44.85583478151706" lon="9.972814641757973"><ele>152.0</ele><time>2026-04-25T06:52:40.999Z</time></trkpt><trkpt lat="44.85571779520129" lon="9.97280233598743"><ele>152.5</ele><time>2026-04-25T06:52:42.999Z</time></trkpt><trkpt lat="44.855596129378235" lon="9.972781978383775"><ele>153.0</ele><time>2026-04-25T06:52:44.999Z</time></trkpt><trkpt lat="44.85547912762195" lon="9.972766200763614"><ele>153.0</ele><time>2026-04-25T06:52:46.999Z</time></trkpt><trkpt lat="44.85536342022269" lon="9.972744998406279"><ele>153.0</ele><time>2026-04-25T06:52:48.999Z</time></trkpt><trkpt lat="44.85524140625042" lon="9.972721106684295"><ele>153.0</ele><time>2026-04-25T06:52:50.999Z</time></trkpt><trkpt lat="44.855118854837684" lon="9.972703891022642"><ele>153.0</ele><time>2026-04-25T06:52:52.999Z</time></trkpt><trkpt lat="44.8550561118409" lon="9.972695754087896"><ele>153.0</ele><time>2026-04-25T06:52:53.999Z</time></trkpt><trkpt lat="44.854923242142924" lon="9.972673636878353"><ele>152.8</ele><time>2026-04-25T06:52:55.999Z</time></trkpt><trkpt lat="44.854802881033265" lon="9.9726514838524"><ele>152.60000000000002</ele><time>2026-04-25T06:52:57.998Z</time></trkpt><trkpt lat="44.85473984767598" lon="9.972644162463464"><ele>152.39999999999998</ele><time>2026-04-25T06:52:58.998Z</time></trkpt><trkpt lat="44.854614168804176" lon="9.972632530684049"><ele>152.2</ele><time>2026-04-25T06:53:00.998Z</time></trkpt><trkpt lat="44.8544963106514" lon="9.972618838030677"><ele>152.0</ele><time>2026-04-25T06:53:02.998Z</time></trkpt><trkpt lat="44.85438501393635" lon="9.97260016823903"><ele>152.0</ele><time>2026-04-25T06:53:04.998Z</time></trkpt><trkpt lat="44.85427437686725" lon="9.972587551612978"><ele>152.0</ele><time>2026-04-25T06:53:06.998Z</time></trkpt><trkpt lat="44.854167116967076" lon="9.972572581493846"><ele>152.0</ele><time>2026-04-25T06:53:08.998Z</time></trkpt><trkpt lat="44.85405077971383" lon="9.972557785581396"><ele>152.0</ele><time>2026-04-25T06:53:10.998Z</time></trkpt><trkpt lat="44.853932963605544" lon="9.972542753789943"><ele>152.0</ele><time>2026-04-25T06:53:12.998Z</time></trkpt><trkpt lat="44.85381616895679" lon="9.972524897312365"><ele>152.0</ele><time>2026-04-25T06:53:14.998Z</time></trkpt><trkpt lat="44.853696916397205" lon="9.972509797647044"><ele>152.0</ele><time>2026-04-25T06:53:16.998Z</time></trkpt><trkpt lat="44.85357702661541" lon="9.972492642261912"><ele>152.0</ele><time>2026-04-25T06:53:18.998Z</time></trkpt><trkpt lat="44.85344977322287" lon="9.97247873267361"><ele>152.28571428571428</ele><time>2026-04-25T06:53:20.998Z</time></trkpt><trkpt lat="44.85338536081379" lon="9.97246919952028"><ele>152.57142857142858</ele><time>2026-04-25T06:53:21.998Z</time></trkpt><trkpt lat="44.85331818611016" lon="9.97245718950137"><ele>152.85714285714286</ele><time>2026-04-25T06:53:22.998Z</time></trkpt><trkpt lat="44.85325228541753" lon="9.97244777564318"><ele>153.14285714285714</ele><time>2026-04-25T06:53:23.998Z</time></trkpt><trkpt lat="44.853186416072084" lon="9.97243897615364"><ele>153.42857142857144</ele><time>2026-04-25T06:53:24.998Z</time></trkpt><trkpt lat="44.853121910577705" lon="9.972429790163156"><ele>153.71428571428572</ele><time>2026-04-25T06:53:25.998Z</time></trkpt><trkpt lat="44.85305671674402" lon="9.972421547393441"><ele>154.0</ele><time>2026-04-25T06:53:26.998Z</time></trkpt><trkpt lat="44.85299099946594" lon="9.972411713195362"><ele>154.0</ele><time>2026-04-25T06:53:27.998Z</time></trkpt><trkpt lat="44.85292488618824" lon="9.97240471988292"><ele>154.0</ele><time>2026-04-25T06:53:28.998Z</time></trkpt><trkpt lat="44.852857231353596" lon="9.972396645186969"><ele>154.0</ele><time>2026-04-25T06:53:29.998Z</time></trkpt><trkpt lat="44.85278726945164" lon="9.972387347594042"><ele>154.0</ele><time>2026-04-25T06:53:30.998Z</time></trkpt><trkpt lat="44.85271325054108" lon="9.972373449697734"><ele>154.0</ele><time>2026-04-25T06:53:31.998Z</time></trkpt><trkpt lat="44.85263857123914" lon="9.972363537524762"><ele>154.0</ele><time>2026-04-25T06:53:32.998Z</time></trkpt><trkpt lat="44.85256309701076" lon="9.972352286740064"><ele>154.0</ele><time>2026-04-25T06:53:33.998Z</time></trkpt><trkpt lat="44.85248541461327" lon="9.972342966904412"><ele>153.66666666666669</ele><time>2026-04-25T06:53:35Z</time></trkpt><trkpt lat="44.85240924557924" lon="9.972332927704262"><ele>153.33333333333334</ele><time>2026-04-25T06:53:36Z</time></trkpt><trkpt lat="44.85232924280081" lon="9.972321985078393"><ele>153.0</ele><time>2026-04-25T06:53:37Z</time></trkpt><trkpt lat="44.85224935045916" lon="9.972312596852838"><ele>152.66666666666666</ele><time>2026-04-25T06:53:38Z</time></trkpt><trkpt lat="44.85216706093369" lon="9.972306380509474"><ele>152.33333333333331</ele><time>2026-04-25T06:53:39Z</time></trkpt><trkpt lat="44.85208721767093" lon="9.972289583434662"><ele>152.0</ele><time>2026-04-25T06:53:40Z</time></trkpt><trkpt lat="44.85200612492526" lon="9.972280866498307"><ele>152.0</ele><time>2026-04-25T06:53:41Z</time></trkpt><trkpt lat="44.85192473372351" lon="9.97226798216898"><ele>152.0</ele><time>2026-04-25T06:53:42Z</time></trkpt><trkpt lat="44.8518423003652" lon="9.97225359922791"><ele>152.0</ele><time>2026-04-25T06:53:43Z</time></trkpt><trkpt lat="44.85176038189756" lon="9.972243636179487"><ele>152.0</ele><time>2026-04-25T06:53:44Z</time></trkpt><trkpt lat="44.851675702722744" lon="9.972235784932057"><ele>152.0</ele><time>2026-04-25T06:53:45Z</time></trkpt><trkpt lat="44.85159199136976" lon="9.972221680795105"><ele>152.0</ele><time>2026-04-25T06:53:46Z</time></trkpt><trkpt lat="44.85150678847512" lon="9.972205858459967"><ele>152.0</ele><time>2026-04-25T06:53:47Z</time></trkpt><trkpt lat="44.85142157680456" lon="9.972195071050455"><ele>152.0</ele><time>2026-04-25T06:53:48Z</time></trkpt><trkpt lat="44.851336253235154" lon="9.972182654990188"><ele>152.0</ele><time>2026-04-25T06:53:49Z</time></trkpt><trkpt lat="44.85125158363222" lon="9.97216984583001"><ele>152.0</ele><time>2026-04-25T06:53:50Z</time></trkpt><trkpt lat="44.85116581206979" lon="9.972159727134363"><ele>152.0</ele><time>2026-04-25T06:53:51Z</time></trkpt><trkpt lat="44.85107867626872" lon="9.972150612151111"><ele>152.0</ele><time>2026-04-25T06:53:52Z</time></trkpt><trkpt lat="44.85099216029607" lon="9.972140831827378"><ele>151.66666666666666</ele><time>2026-04-25T06:53:53Z</time></trkpt><trkpt lat="44.85090500243362" lon="9.972128024446096"><ele>151.33333333333331</ele><time>2026-04-25T06:53:54Z</time></trkpt><trkpt lat="44.85081818179955" lon="9.97211345109447"><ele>151.0</ele><time>2026-04-25T06:53:55Z</time></trkpt><trkpt lat="44.850731764119075" lon="9.972099450268054"><ele>150.66666666666666</ele><time>2026-04-25T06:53:56Z</time></trkpt><trkpt lat="44.85064259928924" lon="9.972091740869738"><ele>150.33333333333334</ele><time>2026-04-25T06:53:57Z</time></trkpt><trkpt lat="44.85055582398646" lon="9.972082302196668"><ele>150.0</ele><time>2026-04-25T06:53:58Z</time></trkpt><trkpt lat="44.850468553566856" lon="9.972068321565175"><ele>150.0</ele><time>2026-04-25T06:53:59Z</time></trkpt><trkpt lat="44.850379287071775" lon="9.972054213821883"><ele>150.0</ele><time>2026-04-25T06:54:00Z</time></trkpt><trkpt lat="44.85029087016334" lon="9.972045924117133"><ele>150.0</ele><time>2026-04-25T06:54:01Z</time></trkpt><trkpt lat="44.850202509808575" lon="9.972039763876127"><ele>150.0</ele><time>2026-04-25T06:54:02Z</time></trkpt><trkpt lat="44.85011248391151" lon="9.97202817917939"><ele>150.0</ele><time>2026-04-25T06:54:03Z</time></trkpt><trkpt lat="44.85002235584951" lon="9.972017536259186"><ele>150.0</ele><time>2026-04-25T06:54:04Z</time></trkpt><trkpt lat="44.849933955310895" lon="9.972003231084031"><ele>149.6</ele><time>2026-04-25T06:54:05Z</time></trkpt><trkpt lat="44.849844865896635" lon="9.971988759856387"><ele>149.2</ele><time>2026-04-25T06:54:05.999Z</time></trkpt><trkpt lat="44.84975453146487" lon="9.971979497216523"><ele>148.8</ele><time>2026-04-25T06:54:06.999Z</time></trkpt><trkpt lat="44.84966463316838" lon="9.971966997295025"><ele>148.4</ele><time>2026-04-25T06:54:07.999Z</time></trkpt><trkpt lat="44.84957549383543" lon="9.971957435457334"><ele>148.0</ele><time>2026-04-25T06:54:08.999Z</time></trkpt><trkpt lat="44.8494832098002" lon="9.971949031456978"><ele>148.0</ele><time>2026-04-25T06:54:09.999Z</time></trkpt><trkpt lat="44.849395133348864" lon="9.971936787016935"><ele>148.0</ele><time>2026-04-25T06:54:10.999Z</time></trkpt><trkpt lat="44.84930517798714" lon="9.97192388497326"><ele>148.0</ele><time>2026-04-25T06:54:11.999Z</time></trkpt><trkpt lat="44.84921492316666" lon="9.971911332957335"><ele>148.0</ele><time>2026-04-25T06:54:12.999Z</time></trkpt><trkpt lat="44.849125202769486" lon="9.971896567793141"><ele>148.0</ele><time>2026-04-25T06:54:13.999Z</time></trkpt><trkpt lat="44.849033711380855" lon="9.971886465783092"><ele>147.6</ele><time>2026-04-25T06:54:14.999Z</time></trkpt><trkpt lat="44.84894197221518" lon="9.97187300973085"><ele>147.20000000000002</ele><time>2026-04-25T06:54:15.999Z</time></trkpt><trkpt lat="44.84885065572383" lon="9.971858675559034"><ele>146.8</ele><time>2026-04-25T06:54:16.999Z</time></trkpt><trkpt lat="44.84875848763675" lon="9.971843956208124"><ele>146.4</ele><time>2026-04-25T06:54:17.999Z</time></trkpt><trkpt lat="44.84866679998558" lon="9.971833787867594"><ele>146.0</ele><time>2026-04-25T06:54:18.999Z</time></trkpt><trkpt lat="44.848574053749786" lon="9.971819420742165"><ele>146.0</ele><time>2026-04-25T06:54:19.999Z</time></trkpt><trkpt lat="44.848481632009864" lon="9.97180397563843"><ele>146.0</ele><time>2026-04-25T06:54:20.999Z</time></trkpt><trkpt lat="44.84838860016117" lon="9.9717863600226"><ele>146.0</ele><time>2026-04-25T06:54:21.999Z</time></trkpt><trkpt lat="44.8482950072977" lon="9.971761975411273"><ele>146.0</ele><time>2026-04-25T06:54:22.999Z</time></trkpt><trkpt lat="44.84820272254921" lon="9.971735679963686"><ele>146.0</ele><time>2026-04-25T06:54:23.999Z</time></trkpt><trkpt lat="44.84811050051156" lon="9.971706813997654"><ele>146.8</ele><time>2026-04-25T06:54:24.999Z</time></trkpt><trkpt lat="44.84801611014528" lon="9.971673851965443"><ele>147.6</ele><time>2026-04-25T06:54:25.999Z</time></trkpt><trkpt lat="44.84792130504401" lon="9.97163593366615"><ele>148.4</ele><time>2026-04-25T06:54:26.999Z</time></trkpt><trkpt lat="44.84782517760232" lon="9.971599993967734"><ele>149.2</ele><time>2026-04-25T06:54:27.999Z</time></trkpt><trkpt lat="44.847731665851434" lon="9.971550193580573"><ele>150.0</ele><time>2026-04-25T06:54:28.999Z</time></trkpt><trkpt lat="44.84764082907697" lon="9.97149623827538"><ele>149.6</ele><time>2026-04-25T06:54:29.999Z</time></trkpt><trkpt lat="44.84754785301222" lon="9.971442062424844"><ele>149.2</ele><time>2026-04-25T06:54:30.999Z</time></trkpt><trkpt lat="44.84745511038504" lon="9.971372991394851"><ele>148.8</ele><time>2026-04-25T06:54:31.999Z</time></trkpt><trkpt lat="44.847363235855234" lon="9.97131247843429"><ele>148.4</ele><time>2026-04-25T06:54:32.999Z</time></trkpt><trkpt lat="44.847267192009475" lon="9.971241724709474"><ele>148.0</ele><time>2026-04-25T06:54:33.999Z</time></trkpt><trkpt lat="44.847169831511174" lon="9.971178677476345"><ele>148.0</ele><time>2026-04-25T06:54:34.999Z</time></trkpt><trkpt lat="44.8470704730808" lon="9.971114970777371"><ele>148.0</ele><time>2026-04-25T06:54:35.999Z</time></trkpt><trkpt lat="44.84697125091343" lon="9.9710451330388"><ele>148.0</ele><time>2026-04-25T06:54:36.999Z</time></trkpt><trkpt lat="44.84687036175333" lon="9.970974103624945"><ele>148.0</ele><time>2026-04-25T06:54:37.999Z</time></trkpt><trkpt lat="44.84676652990276" lon="9.970903166299118"><ele>148.0</ele><time>2026-04-25T06:54:38.999Z</time></trkpt><trkpt lat="44.84666334534758" lon="9.97082852542118"><ele>146.75</ele><time>2026-04-25T06:54:39.999Z</time></trkpt><trkpt lat="44.846557691836445" lon="9.970761530617688"><ele>145.5</ele><time>2026-04-25T06:54:40.999Z</time></trkpt><trkpt lat="44.8464502506882" lon="9.97069086966863"><ele>144.25</ele><time>2026-04-25T06:54:41.999Z</time></trkpt><trkpt lat="44.84634117313851" lon="9.970619033626065"><ele>143.0</ele><time>2026-04-25T06:54:42.999Z</time></trkpt><trkpt lat="44.84623257305617" lon="9.970537819856935"><ele>143.0</ele><time>2026-04-25T06:54:43.999Z</time></trkpt><trkpt lat="44.84612312078783" lon="9.970462988121772"><ele>143.0</ele><time>2026-04-25T06:54:44.999Z</time></trkpt><trkpt lat="44.846010907035584" lon="9.970387588950349"><ele>143.0</ele><time>2026-04-25T06:54:45.999Z</time></trkpt><trkpt lat="44.84589968499019" lon="9.970308151276356"><ele>143.0</ele><time>2026-04-25T06:54:46.999Z</time></trkpt><trkpt lat="44.845786553804814" lon="9.97023248357071"><ele>141.75</ele><time>2026-04-25T06:54:47.999Z</time></trkpt><trkpt lat="44.84566935017038" lon="9.970161795002033"><ele>140.5</ele><time>2026-04-25T06:54:48.999Z</time></trkpt><trkpt lat="44.84555509267674" lon="9.970087120441036"><ele>139.25</ele><time>2026-04-25T06:54:49.999Z</time></trkpt><trkpt lat="44.84544966831713" lon="9.969992347929498"><ele>138.0</ele><time>2026-04-25T06:54:50.999Z</time></trkpt><trkpt lat="44.8453363452704" lon="9.969913896536424"><ele>138.0</ele><time>2026-04-25T06:54:51.999Z</time></trkpt><trkpt lat="44.8452184157726" lon="9.969832976293574"><ele>138.0</ele><time>2026-04-25T06:54:52.999Z</time></trkpt><trkpt lat="44.84510897681658" lon="9.969757882497206"><ele>138.0</ele><time>2026-04-25T06:54:53.999Z</time></trkpt><trkpt lat="44.845000627076395" lon="9.969683535784581"><ele>138.0</ele><time>2026-04-25T06:54:54.999Z</time></trkpt><trkpt lat="44.84489492619207" lon="9.969611006817427"><ele>136.6</ele><time>2026-04-25T06:54:55.999Z</time></trkpt><trkpt lat="44.84479175900447" lon="9.969540216219015"><ele>135.20000000000002</ele><time>2026-04-25T06:54:56.999Z</time></trkpt><trkpt lat="44.84469116181457" lon="9.96947061362065"><ele>133.8</ele><time>2026-04-25T06:54:57.999Z</time></trkpt><trkpt lat="44.84459310210782" lon="9.969402554798975"><ele>132.4</ele><time>2026-04-25T06:54:58.999Z</time></trkpt><trkpt lat="44.844489065961994" lon="9.969347846665787"><ele>131.0</ele><time>2026-04-25T06:54:59.998Z</time></trkpt><trkpt lat="44.8443941665226" lon="9.96927885353128"><ele>131.0</ele><time>2026-04-25T06:55:00.998Z</time></trkpt><trkpt lat="44.844297561877944" lon="9.969216265824366"><ele>131.0</ele><time>2026-04-25T06:55:01.998Z</time></trkpt><trkpt lat="44.844199669166095" lon="9.969153347309858"><ele>131.0</ele><time>2026-04-25T06:55:02.998Z</time></trkpt><trkpt lat="44.84411031062791" lon="9.969091191886974"><ele>131.0</ele><time>2026-04-25T06:55:03.998Z</time></trkpt><trkpt lat="44.84401619846177" lon="9.969027569979025"><ele>131.0</ele><time>2026-04-25T06:55:04.998Z</time></trkpt><trkpt lat="44.84392728041503" lon="9.968975645333783"><ele>130.8</ele><time>2026-04-25T06:55:05.998Z</time></trkpt><trkpt lat="44.84383802235605" lon="9.968934445762185"><ele>130.6</ele><time>2026-04-25T06:55:06.998Z</time></trkpt><trkpt lat="44.84374335685837" lon="9.968898381855704"><ele>130.4</ele><time>2026-04-25T06:55:07.998Z</time></trkpt><trkpt lat="44.84364675577482" lon="9.968864245899088"><ele>130.2</ele><time>2026-04-25T06:55:08.998Z</time></trkpt><trkpt lat="44.843550943736034" lon="9.968830381429143"><ele>130.0</ele><time>2026-04-25T06:55:09.998Z</time></trkpt><trkpt lat="44.843457405365236" lon="9.968798391090901"><ele>130.0</ele><time>2026-04-25T06:55:10.998Z</time></trkpt><trkpt lat="44.84336461345891" lon="9.9687635146109"><ele>130.0</ele><time>2026-04-25T06:55:11.998Z</time></trkpt><trkpt lat="44.843272020631304" lon="9.968728087686419"><ele>130.0</ele><time>2026-04-25T06:55:12.998Z</time></trkpt><trkpt lat="44.84317723157514" lon="9.968692179174878"><ele>130.0</ele><time>2026-04-25T06:55:13.998Z</time></trkpt><trkpt lat="44.843082477937735" lon="9.968661569005967"><ele>130.0</ele><time>2026-04-25T06:55:14.998Z</time></trkpt><trkpt lat="44.84299326102635" lon="9.968627019861614"><ele>130.0</ele><time>2026-04-25T06:55:15.998Z</time></trkpt><trkpt lat="44.84290373730297" lon="9.968585755431087"><ele>130.0</ele><time>2026-04-25T06:55:16.998Z</time></trkpt><trkpt lat="44.84281215732066" lon="9.96855259477348"><ele>130.0</ele><time>2026-04-25T06:55:17.998Z</time></trkpt><trkpt lat="44.84272346067041" lon="9.968515232276921"><ele>130.0</ele><time>2026-04-25T06:55:18.998Z</time></trkpt><trkpt lat="44.84263323736176" lon="9.9684788842522"><ele>130.0</ele><time>2026-04-25T06:55:19.998Z</time></trkpt><trkpt lat="44.842544441895996" lon="9.968445132272933"><ele>129.8</ele><time>2026-04-25T06:55:20.998Z</time></trkpt><trkpt lat="44.8424551706266" lon="9.968411903691736"><ele>129.6</ele><time>2026-04-25T06:55:21.998Z</time></trkpt><trkpt lat="44.84236667238124" lon="9.96837727227814"><ele>129.4</ele><time>2026-04-25T06:55:22.998Z</time></trkpt><trkpt lat="44.84228175150528" lon="9.968339570788112"><ele>129.2</ele><time>2026-04-25T06:55:23.998Z</time></trkpt><trkpt lat="44.84219739209288" lon="9.96829603754677"><ele>129.0</ele><time>2026-04-25T06:55:24.998Z</time></trkpt><trkpt lat="44.84211431824917" lon="9.968252889458519"><ele>129.16666666666666</ele><time>2026-04-25T06:55:25.998Z</time></trkpt><trkpt lat="44.84203358054803" lon="9.968209596812168"><ele>129.33333333333334</ele><time>2026-04-25T06:55:26.998Z</time></trkpt><trkpt lat="44.841948874987864" lon="9.968164091866301"><ele>129.5</ele><time>2026-04-25T06:55:27.998Z</time></trkpt><trkpt lat="44.841869472169606" lon="9.968119472343467"><ele>129.66666666666669</ele><time>2026-04-25T06:55:28.998Z</time></trkpt><trkpt lat="44.841785288735124" lon="9.968074801463528"><ele>129.83333333333334</ele><time>2026-04-25T06:55:29.998Z</time></trkpt><trkpt lat="44.84170510174158" lon="9.96803385457151"><ele>130.0</ele><time>2026-04-25T06:55:30.998Z</time></trkpt><trkpt lat="44.841622757709025" lon="9.967993368217412"><ele>130.0</ele><time>2026-04-25T06:55:31.998Z</time></trkpt><trkpt lat="44.84153966967356" lon="9.967950647728921"><ele>130.0</ele><time>2026-04-25T06:55:32.998Z</time></trkpt><trkpt lat="44.84145961258972" lon="9.967903978543958"><ele>130.0</ele><time>2026-04-25T06:55:33.998Z</time></trkpt><trkpt lat="44.84137522923463" lon="9.967861827928079"><ele>130.0</ele><time>2026-04-25T06:55:34.998Z</time></trkpt><trkpt lat="44.841295469562404" lon="9.967814585163262"><ele>130.0</ele><time>2026-04-25T06:55:35.998Z</time></trkpt><trkpt lat="44.84121107071868" lon="9.96777870389302"><ele>130.0</ele><time>2026-04-25T06:55:36.998Z</time></trkpt><trkpt lat="44.841128263500295" lon="9.967736328939367"><ele>130.0</ele><time>2026-04-25T06:55:37.998Z</time></trkpt><trkpt lat="44.84104621550369" lon="9.967691326213295"><ele>130.0</ele><time>2026-04-25T06:55:38.998Z</time></trkpt><trkpt lat="44.84096545493352" lon="9.967646399030086"><ele>130.0</ele><time>2026-04-25T06:55:40Z</time></trkpt><trkpt lat="44.8408842572111" lon="9.96759771765745"><ele>130.0</ele><time>2026-04-25T06:55:41Z</time></trkpt><trkpt lat="44.840803399818476" lon="9.967553741175674"><ele>130.0</ele><time>2026-04-25T06:55:42Z</time></trkpt><trkpt lat="44.840722571381896" lon="9.967513919706171"><ele>130.0</ele><time>2026-04-25T06:55:43Z</time></trkpt><trkpt lat="44.84063891328191" lon="9.967473987226033"><ele>130.0</ele><time>2026-04-25T06:55:44Z</time></trkpt><trkpt lat="44.8405591730296" lon="9.967435602724949"><ele>130.0</ele><time>2026-04-25T06:55:45Z</time></trkpt><trkpt lat="44.84047608802273" lon="9.96738806712302"><ele>130.0</ele><time>2026-04-25T06:55:46Z</time></trkpt><trkpt lat="44.8403959275957" lon="9.967345501334572"><ele>130.0</ele><time>2026-04-25T06:55:47Z</time></trkpt><trkpt lat="44.84031400583547" lon="9.967301151638285"><ele>130.0</ele><time>2026-04-25T06:55:48Z</time></trkpt><trkpt lat="44.84023541390162" lon="9.967254767414104"><ele>130.0</ele><time>2026-04-25T06:55:49Z</time></trkpt><trkpt lat="44.84015398773252" lon="9.967212293275976"><ele>130.16666666666669</ele><time>2026-04-25T06:55:50Z</time></trkpt><trkpt lat="44.84007342804891" lon="9.967170139140546"><ele>130.33333333333334</ele><time>2026-04-25T06:55:51Z</time></trkpt><trkpt lat="44.83999278355051" lon="9.967128748128644"><ele>130.5</ele><time>2026-04-25T06:55:52Z</time></trkpt><trkpt lat="44.83991069649614" lon="9.967086797919183"><ele>130.66666666666666</ele><time>2026-04-25T06:55:53Z</time></trkpt><trkpt lat="44.83983282060871" lon="9.967042374682912"><ele>130.83333333333331</ele><time>2026-04-25T06:55:54Z</time></trkpt><trkpt lat="44.839750477913746" lon="9.966999329122306"><ele>131.0</ele><time>2026-04-25T06:55:55Z</time></trkpt><trkpt lat="44.839670913815084" lon="9.966953873490954"><ele>131.0</ele><time>2026-04-25T06:55:56Z</time></trkpt><trkpt lat="44.83959218065831" lon="9.96689444190409"><ele>131.0</ele><time>2026-04-25T06:55:57Z</time></trkpt><trkpt lat="44.839518482412295" lon="9.966832620486556"><ele>131.0</ele><time>2026-04-25T06:55:58Z</time></trkpt><trkpt lat="44.83944365139006" lon="9.966765947181328"><ele>131.0</ele><time>2026-04-25T06:55:59Z</time></trkpt><trkpt lat="44.839372378885" lon="9.966700652367853"><ele>131.0</ele><time>2026-04-25T06:56:00Z</time></trkpt><trkpt lat="44.8393013250735" lon="9.966632547195319"><ele>131.0</ele><time>2026-04-25T06:56:01Z</time></trkpt><trkpt lat="44.83923316797409" lon="9.966554287202904"><ele>131.16666666666666</ele><time>2026-04-25T06:56:02Z</time></trkpt><trkpt lat="44.83916786726748" lon="9.966468618342443"><ele>131.33333333333331</ele><time>2026-04-25T06:56:03Z</time></trkpt><trkpt lat="44.83910480176274" lon="9.96638562551871"><ele>131.5</ele><time>2026-04-25T06:56:04Z</time></trkpt><trkpt lat="44.839045630351485" lon="9.966294001414832"><ele>131.66666666666666</ele><time>2026-04-25T06:56:05Z</time></trkpt><trkpt lat="44.83898331860137" lon="9.966204212764575"><ele>131.83333333333334</ele><time>2026-04-25T06:56:06Z</time></trkpt><trkpt lat="44.838924105924974" lon="9.966119195749473"><ele>132.0</ele><time>2026-04-25T06:56:07Z</time></trkpt><trkpt lat="44.83886133334914" lon="9.966034640066663"><ele>132.0</ele><time>2026-04-25T06:56:08Z</time></trkpt><trkpt lat="44.83880254153915" lon="9.965941947654736"><ele>132.0</ele><time>2026-04-25T06:56:09Z</time></trkpt><trkpt lat="44.83874271280808" lon="9.965853704048868"><ele>132.0</ele><time>2026-04-25T06:56:09.999Z</time></trkpt><trkpt lat="44.83868171502857" lon="9.965767820460984"><ele>132.0</ele><time>2026-04-25T06:56:10.999Z</time></trkpt><trkpt lat="44.83862076654776" lon="9.965680309185464"><ele>132.0</ele><time>2026-04-25T06:56:11.999Z</time></trkpt><trkpt lat="44.83855851810262" lon="9.965592477557344"><ele>132.0</ele><time>2026-04-25T06:56:12.999Z</time></trkpt><trkpt lat="44.838499634019065" lon="9.965508195618671"><ele>132.0</ele><time>2026-04-25T06:56:13.999Z</time></trkpt><trkpt lat="44.83843758551212" lon="9.965418172721472"><ele>132.0</ele><time>2026-04-25T06:56:14.999Z</time></trkpt><trkpt lat="44.83837690579067" lon="9.965336586054745"><ele>132.0</ele><time>2026-04-25T06:56:15.999Z</time></trkpt><trkpt lat="44.838313182292595" lon="9.965252740940484"><ele>132.0</ele><time>2026-04-25T06:56:16.999Z</time></trkpt><trkpt lat="44.83825051714153" lon="9.965174008561103"><ele>132.0</ele><time>2026-04-25T06:56:17.999Z</time></trkpt><trkpt lat="44.83818784173828" lon="9.965092754373487"><ele>132.0</ele><time>2026-04-25T06:56:18.999Z</time></trkpt><trkpt lat="44.838122991585514" lon="9.965018952504316"><ele>132.0</ele><time>2026-04-25T06:56:19.999Z</time></trkpt><trkpt lat="44.838055523185695" lon="9.964952426665455"><ele>132.0</ele><time>2026-04-25T06:56:20.999Z</time></trkpt><trkpt lat="44.837982938892985" lon="9.964891232153605"><ele>132.0</ele><time>2026-04-25T06:56:21.999Z</time></trkpt><trkpt lat="44.837910609162854" lon="9.96483198137173"><ele>132.0</ele><time>2026-04-25T06:56:22.999Z</time></trkpt><trkpt lat="44.837837074211784" lon="9.964772798121096"><ele>132.0</ele><time>2026-04-25T06:56:23.999Z</time></trkpt><trkpt lat="44.83775871072911" lon="9.964723420518098"><ele>132.0</ele><time>2026-04-25T06:56:24.999Z</time></trkpt><trkpt lat="44.83767943349805" lon="9.964679956158356"><ele>132.0</ele><time>2026-04-25T06:56:25.999Z</time></trkpt><trkpt lat="44.83759903322234" lon="9.964640925014738"><ele>132.0</ele><time>2026-04-25T06:56:26.999Z</time></trkpt><trkpt lat="44.8375146726929" lon="9.964604942268066"><ele>132.0</ele><time>2026-04-25T06:56:27.999Z</time></trkpt><trkpt lat="44.83743314148316" lon="9.96457533324698"><ele>132.0</ele><time>2026-04-25T06:56:28.999Z</time></trkpt><trkpt lat="44.83735051003663" lon="9.964551290902817"><ele>132.0</ele><time>2026-04-25T06:56:29.999Z</time></trkpt><trkpt lat="44.83726597256571" lon="9.96453267092267"><ele>132.0</ele><time>2026-04-25T06:56:30.999Z</time></trkpt><trkpt lat="44.83718280454296" lon="9.964519970633336"><ele>132.0</ele><time>2026-04-25T06:56:31.999Z</time></trkpt><trkpt lat="44.837097858362704" lon="9.964511470272521"><ele>132.0</ele><time>2026-04-25T06:56:32.999Z</time></trkpt><trkpt lat="44.8370144656161" lon="9.96451078287739"><ele>132.0</ele><time>2026-04-25T06:56:33.999Z</time></trkpt><trkpt lat="44.83693032437758" lon="9.96451392883861"><ele>132.0</ele><time>2026-04-25T06:56:34.999Z</time></trkpt><trkpt lat="44.83684541478287" lon="9.964520220287927"><ele>132.0</ele><time>2026-04-25T06:56:35.999Z</time></trkpt><trkpt lat="44.83676047757046" lon="9.964527492400983"><ele>132.0</ele><time>2026-04-25T06:56:36.999Z</time></trkpt><trkpt lat="44.83667819766349" lon="9.96453932555402"><ele>131.83333333333334</ele><time>2026-04-25T06:56:37.999Z</time></trkpt><trkpt lat="44.83659502690438" lon="9.964552051480723"><ele>131.66666666666666</ele><time>2026-04-25T06:56:38.999Z</time></trkpt><trkpt lat="44.83651222017862" lon="9.964563024739663"><ele>131.5</ele><time>2026-04-25T06:56:39.999Z</time></trkpt><trkpt lat="44.8364305724588" lon="9.964572845725993"><ele>131.33333333333331</ele><time>2026-04-25T06:56:40.999Z</time></trkpt><trkpt lat="44.836348611307294" lon="9.964580928132472"><ele>131.16666666666666</ele><time>2026-04-25T06:56:41.999Z</time></trkpt><trkpt lat="44.83626757840338" lon="9.964584212229624"><ele>131.0</ele><time>2026-04-25T06:56:42.999Z</time></trkpt><trkpt lat="44.836182010689996" lon="9.96459388786238"><ele>131.0</ele><time>2026-04-25T06:56:43.999Z</time></trkpt><trkpt lat="44.83609891265716" lon="9.964609007316263"><ele>131.0</ele><time>2026-04-25T06:56:44.999Z</time></trkpt><trkpt lat="44.83601152013363" lon="9.964613723466739"><ele>131.0</ele><time>2026-04-25T06:56:45.999Z</time></trkpt><trkpt lat="44.83592774401114" lon="9.964623632444274"><ele>131.0</ele><time>2026-04-25T06:56:46.999Z</time></trkpt><trkpt lat="44.83584416726788" lon="9.964623757872168"><ele>131.0</ele><time>2026-04-25T06:56:47.999Z</time></trkpt><trkpt lat="44.83575801510804" lon="9.964595987427387"><ele>131.0</ele><time>2026-04-25T06:56:48.999Z</time></trkpt><trkpt lat="44.83568556758404" lon="9.964534267706787"><ele>131.83333333333331</ele><time>2026-04-25T06:56:49.999Z</time></trkpt><trkpt lat="44.83562518528785" lon="9.96444735549592"><ele>132.66666666666666</ele><time>2026-04-25T06:56:50.999Z</time></trkpt><trkpt lat="44.835573852682764" lon="9.9643506106088"><ele>133.5</ele><time>2026-04-25T06:56:51.999Z</time></trkpt><trkpt lat="44.835536907012006" lon="9.964249867444336"><ele>134.33333333333334</ele><time>2026-04-25T06:56:52.999Z</time></trkpt><trkpt lat="44.83550199704049" lon="9.964153698187861"><ele>135.16666666666669</ele><time>2026-04-25T06:56:53.999Z</time></trkpt><trkpt lat="44.835463631415344" lon="9.964057868788453"><ele>136.0</ele><time>2026-04-25T06:56:54.999Z</time></trkpt><trkpt lat="44.83542469646716" lon="9.96396522265873"><ele>136.28571428571428</ele><time>2026-04-25T06:56:55.999Z</time></trkpt><trkpt lat="44.83538654504327" lon="9.96387533433013"><ele>136.57142857142856</ele><time>2026-04-25T06:56:56.999Z</time></trkpt><trkpt lat="44.835348322722645" lon="9.963784744490656"><ele>136.85714285714286</ele><time>2026-04-25T06:56:57.999Z</time></trkpt><trkpt lat="44.83531262774419" lon="9.963696047450131"><ele>137.14285714285714</ele><time>2026-04-25T06:56:58.999Z</time></trkpt><trkpt lat="44.83527874974172" lon="9.963611982557266"><ele>137.42857142857144</ele><time>2026-04-25T06:56:59.999Z</time></trkpt><trkpt lat="44.83523905807581" lon="9.963526154519425"><ele>137.71428571428572</ele><time>2026-04-25T06:57:00.999Z</time></trkpt><trkpt lat="44.83520332095222" lon="9.963431967654074"><ele>138.0</ele><time>2026-04-25T06:57:01.999Z</time></trkpt><trkpt lat="44.835166037671385" lon="9.963347889660486"><ele>138.57142857142858</ele><time>2026-04-25T06:57:02.999Z</time></trkpt><trkpt lat="44.83512895729097" lon="9.96325989647612"><ele>139.14285714285717</ele><time>2026-04-25T06:57:03.999Z</time></trkpt><trkpt lat="44.83509775213068" lon="9.963166948690338"><ele>139.71428571428572</ele><time>2026-04-25T06:57:04.999Z</time></trkpt><trkpt lat="44.835071692549114" lon="9.963076738893909"><ele>140.28571428571428</ele><time>2026-04-25T06:57:05.998Z</time></trkpt><trkpt lat="44.83504471426011" lon="9.962987629884111"><ele>140.85714285714283</ele><time>2026-04-25T06:57:06.998Z</time></trkpt><trkpt lat="44.83502439035851" lon="9.962891613805988"><ele>141.42857142857142</ele><time>2026-04-25T06:57:07.998Z</time></trkpt><trkpt lat="44.83500704406822" lon="9.962803869805049"><ele>142.0</ele><time>2026-04-25T06:57:08.998Z</time></trkpt><trkpt lat="44.83498878261206" lon="9.962715212412709"><ele>142.0</ele><time>2026-04-25T06:57:09.998Z</time></trkpt><trkpt lat="44.83497303085608" lon="9.96262902522238"><ele>142.0</ele><time>2026-04-25T06:57:10.998Z</time></trkpt><trkpt lat="44.834960785949974" lon="9.962539480244223"><ele>142.0</ele><time>2026-04-25T06:57:11.998Z</time></trkpt><trkpt lat="44.83493639374503" lon="9.962370518125727"><ele>142.0</ele><time>2026-04-25T06:57:13.998Z</time></trkpt><trkpt lat="44.83489210924107" lon="9.96221221588374"><ele>142.0</ele><time>2026-04-25T06:57:15.998Z</time></trkpt><trkpt lat="44.834840034504076" lon="9.962062677232575"><ele>142.5</ele><time>2026-04-25T06:57:17.998Z</time></trkpt><trkpt lat="44.83477699498424" lon="9.961925711536315"><ele>143.0</ele><time>2026-04-25T06:57:19.998Z</time></trkpt><trkpt lat="44.8347077309378" lon="9.961797757146492"><ele>143.5</ele><time>2026-04-25T06:57:21.998Z</time></trkpt><trkpt lat="44.83464012351828" lon="9.961663814113427"><ele>144.0</ele><time>2026-04-25T06:57:23.998Z</time></trkpt><trkpt lat="44.834579554889935" lon="9.961518821592323"><ele>144.6</ele><time>2026-04-25T06:57:25.998Z</time></trkpt><trkpt lat="44.83454847007113" lon="9.961441538020226"><ele>145.2</ele><time>2026-04-25T06:57:26.998Z</time></trkpt><trkpt lat="44.834494290659755" lon="9.961285441469386"><ele>145.79999999999998</ele><time>2026-04-25T06:57:28.998Z</time></trkpt><trkpt lat="44.83444295457236" lon="9.961122454567851"><ele>146.4</ele><time>2026-04-25T06:57:30.998Z</time></trkpt><trkpt lat="44.83439977989226" lon="9.960955799389902"><ele>147.0</ele><time>2026-04-25T06:57:32.998Z</time></trkpt><trkpt lat="44.83436228872977" lon="9.960790587777195"><ele>147.25</ele><time>2026-04-25T06:57:34.998Z</time></trkpt><trkpt lat="44.83432862022494" lon="9.960628336127458"><ele>147.5</ele><time>2026-04-25T06:57:36.998Z</time></trkpt><trkpt lat="44.83429484756785" lon="9.960470725922288"><ele>147.75</ele><time>2026-04-25T06:57:38.998Z</time></trkpt><trkpt lat="44.834258108040395" lon="9.960316645522953"><ele>148.0</ele><time>2026-04-25T06:57:40.998Z</time></trkpt><trkpt lat="44.834222825162826" lon="9.960165224884634"><ele>147.8</ele><time>2026-04-25T06:57:42.998Z</time></trkpt><trkpt lat="44.83418795603515" lon="9.960012492451233"><ele>147.60000000000002</ele><time>2026-04-25T06:57:44.998Z</time></trkpt><trkpt lat="44.83415732217133" lon="9.95985920891361"><ele>147.39999999999998</ele><time>2026-04-25T06:57:47Z</time></trkpt><trkpt lat="44.83411874479105" lon="9.959714789873273"><ele>147.2</ele><time>2026-04-25T06:57:49Z</time></trkpt><trkpt lat="44.83408139172263" lon="9.959567996271"><ele>147.0</ele><time>2026-04-25T06:57:51Z</time></trkpt><trkpt lat="44.83403397959257" lon="9.959431806315006"><ele>147.0</ele><time>2026-04-25T06:57:53Z</time></trkpt><trkpt lat="44.833972693180776" lon="9.959312215306857"><ele>147.0</ele><time>2026-04-25T06:57:55Z</time></trkpt><trkpt lat="44.833901746432375" lon="9.959202689099346"><ele>147.0</ele><time>2026-04-25T06:57:57Z</time></trkpt><trkpt lat="44.833814899399485" lon="9.959100409348212"><ele>147.0</ele><time>2026-04-25T06:57:59Z</time></trkpt><trkpt lat="44.83372798250158" lon="9.958993691940389"><ele>147.0</ele><time>2026-04-25T06:58:01Z</time></trkpt><trkpt lat="44.833641303661445" lon="9.9588915512912"><ele>147.5</ele><time>2026-04-25T06:58:03Z</time></trkpt><trkpt lat="44.83355077039645" lon="9.958792353156174"><ele>148.0</ele><time>2026-04-25T06:58:05Z</time></trkpt><trkpt lat="44.83346452286555" lon="9.958689799742062"><ele>148.5</ele><time>2026-04-25T06:58:07Z</time></trkpt><trkpt lat="44.833372656955696" lon="9.958591023023514"><ele>149.0</ele><time>2026-04-25T06:58:09Z</time></trkpt><trkpt lat="44.83328065898593" lon="9.958491211102707"><ele>149.5</ele><time>2026-04-25T06:58:11Z</time></trkpt><trkpt lat="44.8331867466903" lon="9.958382699023597"><ele>150.0</ele><time>2026-04-25T06:58:13Z</time></trkpt><trkpt lat="44.83309087491902" lon="9.958276958330336"><ele>150.5</ele><time>2026-04-25T06:58:15Z</time></trkpt><trkpt lat="44.83299808294512" lon="9.958170993966831"><ele>151.0</ele><time>2026-04-25T06:58:16.999Z</time></trkpt><trkpt lat="44.83290487433612" lon="9.958068764302396"><ele>151.5</ele><time>2026-04-25T06:58:18.999Z</time></trkpt><trkpt lat="44.832814042822925" lon="9.957967767697577"><ele>152.0</ele><time>2026-04-25T06:58:20.999Z</time></trkpt><trkpt lat="44.8327244799411" lon="9.957866298031028"><ele>152.5</ele><time>2026-04-25T06:58:22.999Z</time></trkpt><trkpt lat="44.832633483249694" lon="9.957771738208335"><ele>153.0</ele><time>2026-04-25T06:58:24.999Z</time></trkpt><trkpt lat="44.832542480958686" lon="9.957675435915363"><ele>153.0</ele><time>2026-04-25T06:58:26.999Z</time></trkpt><trkpt lat="44.83245419584041" lon="9.95757556465205"><ele>153.0</ele><time>2026-04-25T06:58:28.999Z</time></trkpt><trkpt lat="44.83236442501758" lon="9.957478536100579"><ele>153.0</ele><time>2026-04-25T06:58:30.999Z</time></trkpt><trkpt lat="44.83227410084391" lon="9.9573796480957"><ele>153.0</ele><time>2026-04-25T06:58:32.999Z</time></trkpt><trkpt lat="44.83218439058644" lon="9.957277548453021"><ele>153.4</ele><time>2026-04-25T06:58:34.999Z</time></trkpt><trkpt lat="44.83210020968724" lon="9.95717457530154"><ele>153.8</ele><time>2026-04-25T06:58:36.999Z</time></trkpt><trkpt lat="44.832011821010816" lon="9.957079680379099"><ele>154.2</ele><time>2026-04-25T06:58:38.999Z</time></trkpt><trkpt lat="44.83192579555414" lon="9.956987799963999"><ele>154.6</ele><time>2026-04-25T06:58:40.999Z</time></trkpt><trkpt lat="44.83184159986081" lon="9.95689803797534"><ele>155.0</ele><time>2026-04-25T06:58:42.999Z</time></trkpt><trkpt lat="44.83175626433007" lon="9.95681804458217"><ele>155.2</ele><time>2026-04-25T06:58:44.999Z</time></trkpt><trkpt lat="44.831669696085655" lon="9.95674091148319"><ele>155.4</ele><time>2026-04-25T06:58:46.999Z</time></trkpt><trkpt lat="44.83158186354759" lon="9.956679123303806"><ele>155.6</ele><time>2026-04-25T06:58:48.999Z</time></trkpt><trkpt lat="44.83150076905996" lon="9.956626435724415"><ele>155.8</ele><time>2026-04-25T06:58:50.999Z</time></trkpt><trkpt lat="44.83141836345808" lon="9.956591848774304"><ele>156.0</ele><time>2026-04-25T06:58:52.999Z</time></trkpt><trkpt lat="44.83133918230781" lon="9.956668124805471"><ele>156.0</ele><time>2026-04-25T06:58:54.999Z</time></trkpt><trkpt lat="44.831294041125936" lon="9.95681508709134"><ele>156.0</ele><time>2026-04-25T06:58:56.999Z</time></trkpt><trkpt lat="44.831224084701354" lon="9.956932326869117"><ele>156.0</ele><time>2026-04-25T06:58:58.999Z</time></trkpt><trkpt lat="44.831160031369116" lon="9.957057213880118"><ele>156.0</ele><time>2026-04-25T06:59:00.999Z</time></trkpt><trkpt lat="44.831128867382546" lon="9.957205753039393"><ele>156.0</ele><time>2026-04-25T06:59:02.999Z</time></trkpt><trkpt lat="44.83112683292701" lon="9.957355926144702"><ele>156.0</ele><time>2026-04-25T06:59:04.999Z</time></trkpt><trkpt lat="44.83115518665844" lon="9.95750641898745"><ele>156.0</ele><time>2026-04-25T06:59:06.999Z</time></trkpt><trkpt lat="44.83119398510144" lon="9.95764655923207"><ele>156.0</ele><time>2026-04-25T06:59:08.999Z</time></trkpt><trkpt lat="44.83120874068541" lon="9.9577865287967"><ele>156.0</ele><time>2026-04-25T06:59:10.998Z</time></trkpt><trkpt lat="44.83116077700183" lon="9.957909120514602"><ele>156.0</ele><time>2026-04-25T06:59:12.998Z</time></trkpt><trkpt lat="44.83106356137235" lon="9.957924914467865"><ele>157.4</ele><time>2026-04-25T06:59:14.998Z</time></trkpt><trkpt lat="44.830973442815484" lon="9.957875090792088"><ele>158.8</ele><time>2026-04-25T06:59:16.998Z</time></trkpt><trkpt lat="44.83088434631174" lon="9.957821361799986"><ele>160.20000000000002</ele><time>2026-04-25T06:59:18.998Z</time></trkpt><trkpt lat="44.83078824206313" lon="9.957773404982385"><ele>161.6</ele><time>2026-04-25T06:59:20.998Z</time></trkpt><trkpt lat="44.830695548269624" lon="9.957729372844133"><ele>163.0</ele><time>2026-04-25T06:59:22.998Z</time></trkpt><trkpt lat="44.83060239341746" lon="9.957670421608407"><ele>163.0</ele><time>2026-04-25T06:59:24.998Z</time></trkpt><trkpt lat="44.83051520047537" lon="9.957601431337432"><ele>163.0</ele><time>2026-04-25T06:59:26.998Z</time></trkpt><trkpt lat="44.830427609817065" lon="9.95753779312998"><ele>163.0</ele><time>2026-04-25T06:59:28.998Z</time></trkpt><trkpt lat="44.83033886544359" lon="9.957462201894492"><ele>163.0</ele><time>2026-04-25T06:59:30.998Z</time></trkpt><trkpt lat="44.83025776844353" lon="9.957362900741188"><ele>163.0</ele><time>2026-04-25T06:59:32.998Z</time></trkpt><trkpt lat="44.830186386267485" lon="9.957253805267563"><ele>165.2</ele><time>2026-04-25T06:59:34.998Z</time></trkpt><trkpt lat="44.83011160443877" lon="9.95715759516878"><ele>167.4</ele><time>2026-04-25T06:59:36.998Z</time></trkpt><trkpt lat="44.83003912382916" lon="9.957061375316865"><ele>169.6</ele><time>2026-04-25T06:59:38.998Z</time></trkpt><trkpt lat="44.82996255987837" lon="9.956983737644986"><ele>171.79999999999998</ele><time>2026-04-25T06:59:40.998Z</time></trkpt><trkpt lat="44.829877845153945" lon="9.956906975390382"><ele>174.0</ele><time>2026-04-25T06:59:42.998Z</time></trkpt><trkpt lat="44.829783960515506" lon="9.956861788034939"><ele>174.0</ele><time>2026-04-25T06:59:44.998Z</time></trkpt><trkpt lat="44.82968305025534" lon="9.956841137810098"><ele>174.0</ele><time>2026-04-25T06:59:46.998Z</time></trkpt><trkpt lat="44.82958487105091" lon="9.95685072657371"><ele>174.0</ele><time>2026-04-25T06:59:48.998Z</time></trkpt><trkpt lat="44.82948905995205" lon="9.956875603181318"><ele>174.0</ele><time>2026-04-25T06:59:50.998Z</time></trkpt><trkpt lat="44.82939802107333" lon="9.956907199809896"><ele>174.0</ele><time>2026-04-25T06:59:53Z</time></trkpt><trkpt lat="44.82930975869884" lon="9.95694573466807"><ele>174.6</ele><time>2026-04-25T06:59:55Z</time></trkpt><trkpt lat="44.82921917598514" lon="9.956983595565267"><ele>175.2</ele><time>2026-04-25T06:59:57Z</time></trkpt><trkpt lat="44.829135545552596" lon="9.957021070996383"><ele>175.79999999999998</ele><time>2026-04-25T06:59:59Z</time></trkpt><trkpt lat="44.829051344002536" lon="9.95706031090639"><ele>176.39999999999998</ele><time>2026-04-25T07:00:01Z</time></trkpt><trkpt lat="44.82896501950587" lon="9.957106472742488"><ele>177.0</ele><time>2026-04-25T07:00:03Z</time></trkpt><trkpt lat="44.828887330783004" lon="9.957171502642346"><ele>177.0</ele><time>2026-04-25T07:00:05Z</time></trkpt><trkpt lat="44.82881554881329" lon="9.957242343905332"><ele>177.0</ele><time>2026-04-25T07:00:07Z</time></trkpt><trkpt lat="44.82875226578502" lon="9.957320704159532"><ele>177.0</ele><time>2026-04-25T07:00:09Z</time></trkpt><trkpt lat="44.828694626549215" lon="9.957409755990353"><ele>177.0</ele><time>2026-04-25T07:00:11Z</time></trkpt><trkpt lat="44.82864603801989" lon="9.957504655064685"><ele>177.0</ele><time>2026-04-25T07:00:13Z</time></trkpt><trkpt lat="44.82860041235322" lon="9.957604058602985"><ele>177.0</ele><time>2026-04-25T07:00:15Z</time></trkpt><trkpt lat="44.82855727855607" lon="9.957705093223021"><ele>177.5</ele><time>2026-04-25T07:00:17Z</time></trkpt><trkpt lat="44.828518149161376" lon="9.957811409884782"><ele>178.0</ele><time>2026-04-25T07:00:19Z</time></trkpt><trkpt lat="44.82848843177261" lon="9.957919051295498"><ele>178.5</ele><time>2026-04-25T07:00:21Z</time></trkpt><trkpt lat="44.8284569663303" lon="9.958023924274805"><ele>179.0</ele><time>2026-04-25T07:00:22.999Z</time></trkpt><trkpt lat="44.82843952148213" lon="9.958134422935776"><ele>179.5</ele><time>2026-04-25T07:00:24.999Z</time></trkpt><trkpt lat="44.82845119034371" lon="9.958246890095978"><ele>180.0</ele><time>2026-04-25T07:00:26.999Z</time></trkpt><trkpt lat="44.8285073218221" lon="9.958333256451839"><ele>181.33333333333334</ele><time>2026-04-25T07:00:28.999Z</time></trkpt><trkpt lat="44.82858465743336" lon="9.958365745544187"><ele>182.66666666666666</ele><time>2026-04-25T07:00:30.999Z</time></trkpt><trkpt lat="44.82866638282427" lon="9.958340870570359"><ele>184.0</ele><time>2026-04-25T07:00:32.999Z</time></trkpt><trkpt lat="44.828739263153665" lon="9.958277716773077"><ele>185.33333333333331</ele><time>2026-04-25T07:00:34.999Z</time></trkpt><trkpt lat="44.82881144205084" lon="9.95819862881228"><ele>186.66666666666666</ele><time>2026-04-25T07:00:36.999Z</time></trkpt><trkpt lat="44.82888026439929" lon="9.958119880903896"><ele>188.0</ele><time>2026-04-25T07:00:38.999Z</time></trkpt><trkpt lat="44.828950215908236" lon="9.958044650161984"><ele>188.0</ele><time>2026-04-25T07:00:40.999Z</time></trkpt><trkpt lat="44.82901574113179" lon="9.957967485157923"><ele>188.0</ele><time>2026-04-25T07:00:42.999Z</time></trkpt><trkpt lat="44.829084533334836" lon="9.957897262754813"><ele>188.0</ele><time>2026-04-25T07:00:44.999Z</time></trkpt><trkpt lat="44.82915051099319" lon="9.957829322817416"><ele>188.0</ele><time>2026-04-25T07:00:46.999Z</time></trkpt><trkpt lat="44.82924755564025" lon="9.957771989491967"><ele>188.0</ele><time>2026-04-25T07:00:49.999Z</time></trkpt><trkpt lat="44.82933125116826" lon="9.95780852004488"><ele>188.0</ele><time>2026-04-25T07:00:51.999Z</time></trkpt><trkpt lat="44.82937588203365" lon="9.957935618675723"><ele>188.0</ele><time>2026-04-25T07:00:54.999Z</time></trkpt><trkpt lat="44.82936651690642" lon="9.9580477772147"><ele>188.0</ele><time>2026-04-25T07:00:56.999Z</time></trkpt><trkpt lat="44.82931874922845" lon="9.958127343372974"><ele>188.0</ele><time>2026-04-25T07:00:58.999Z</time></trkpt><trkpt lat="44.829280469929856" lon="9.958208392501113"><ele>188.0</ele><time>2026-04-25T07:00:59.999Z</time></trkpt><trkpt lat="44.82923119259362" lon="9.958284992851494"><ele>188.0</ele><time>2026-04-25T07:01:01.999Z</time></trkpt><trkpt lat="44.82915468974421" lon="9.958424969805636"><ele>188.0</ele><time>2026-04-25T07:01:04.999Z</time></trkpt><trkpt lat="44.82910805464593" lon="9.958504362266186"><ele>190.66666666666666</ele><time>2026-04-25T07:01:06.999Z</time></trkpt><trkpt lat="44.82905387964776" lon="9.958560591584702"><ele>193.33333333333331</ele><time>2026-04-25T07:01:08.999Z</time></trkpt><trkpt lat="44.82900436912251" lon="9.95864246289262"><ele>196.0</ele><time>2026-04-25T07:01:09.999Z</time></trkpt><trkpt lat="44.82895529253006" lon="9.958717377968714"><ele>198.66666666666666</ele><time>2026-04-25T07:01:11.999Z</time></trkpt><trkpt lat="44.828894951540754" lon="9.958780859707828"><ele>201.33333333333334</ele><time>2026-04-25T07:01:13.999Z</time></trkpt><trkpt lat="44.828839496626635" lon="9.958843926873238"><ele>204.0</ele><time>2026-04-25T07:01:14.999Z</time></trkpt><trkpt lat="44.828762907898145" lon="9.95890866371941"><ele>204.0</ele><time>2026-04-25T07:01:17.998Z</time></trkpt><trkpt lat="44.82867260000043" lon="9.958977161775547"><ele>204.0</ele><time>2026-04-25T07:01:19.998Z</time></trkpt><trkpt lat="44.82859605396718" lon="9.959029325089856"><ele>204.0</ele><time>2026-04-25T07:01:21.998Z</time></trkpt><trkpt lat="44.82853093404863" lon="9.959080961072551"><ele>204.0</ele><time>2026-04-25T07:01:23.998Z</time></trkpt><trkpt lat="44.828472220555845" lon="9.959124968274324"><ele>204.0</ele><time>2026-04-25T07:01:24.998Z</time></trkpt><trkpt lat="44.82840394350988" lon="9.959177499808828"><ele>204.0</ele><time>2026-04-25T07:01:27.998Z</time></trkpt><trkpt lat="44.82834142276693" lon="9.959233913176044"><ele>204.6</ele><time>2026-04-25T07:01:28.998Z</time></trkpt><trkpt lat="44.82824186667742" lon="9.959285800457458"><ele>205.2</ele><time>2026-04-25T07:01:30.998Z</time></trkpt><trkpt lat="44.8281630716688" lon="9.959346544270614"><ele>205.79999999999998</ele><time>2026-04-25T07:01:32.998Z</time></trkpt><trkpt lat="44.82808167564192" lon="9.959403897984984"><ele>206.39999999999998</ele><time>2026-04-25T07:01:34.998Z</time></trkpt><trkpt lat="44.82799771217317" lon="9.959463977312595"><ele>207.0</ele><time>2026-04-25T07:01:36.998Z</time></trkpt><trkpt lat="44.82791384210059" lon="9.959519838141777"><ele>207.0</ele><time>2026-04-25T07:01:38.998Z</time></trkpt><trkpt lat="44.82783594029086" lon="9.959581457121551"><ele>207.0</ele><time>2026-04-25T07:01:40.998Z</time></trkpt><trkpt lat="44.827759611246165" lon="9.959638943847617"><ele>207.0</ele><time>2026-04-25T07:01:42.998Z</time></trkpt><trkpt lat="44.827682875306024" lon="9.959692867870805"><ele>207.0</ele><time>2026-04-25T07:01:44.998Z</time></trkpt><trkpt lat="44.82760235066488" lon="9.959746666408707"><ele>207.0</ele><time>2026-04-25T07:01:46.998Z</time></trkpt><trkpt lat="44.827518484023834" lon="9.959806681046063"><ele>207.0</ele><time>2026-04-25T07:01:48.998Z</time></trkpt><trkpt lat="44.827438172800335" lon="9.959861096641024"><ele>206.66666666666666</ele><time>2026-04-25T07:01:50.998Z</time></trkpt><trkpt lat="44.827360272867395" lon="9.959913732668323"><ele>206.33333333333331</ele><time>2026-04-25T07:01:52.998Z</time></trkpt><trkpt lat="44.82728818817747" lon="9.959975190237698"><ele>206.0</ele><time>2026-04-25T07:01:54.998Z</time></trkpt><trkpt lat="44.82720882750557" lon="9.960034024376208"><ele>205.66666666666666</ele><time>2026-04-25T07:01:56.998Z</time></trkpt><trkpt lat="44.82712930602515" lon="9.960090142446475"><ele>205.33333333333331</ele><time>2026-04-25T07:01:59Z</time></trkpt><trkpt lat="44.82704851880462" lon="9.9601502096587"><ele>205.0</ele><time>2026-04-25T07:02:01Z</time></trkpt><trkpt lat="44.82697076656277" lon="9.960209266560337"><ele>204.99999999999997</ele><time>2026-04-25T07:02:03Z</time></trkpt><trkpt lat="44.82689502863434" lon="9.960268167048367"><ele>205.0</ele><time>2026-04-25T07:02:05Z</time></trkpt><trkpt lat="44.826822477515414" lon="9.96033557994166"><ele>205.0</ele><time>2026-04-25T07:02:07Z</time></trkpt><trkpt lat="44.82675287366751" lon="9.960416959022554"><ele>205.0</ele><time>2026-04-25T07:02:09Z</time></trkpt><trkpt lat="44.82669004587792" lon="9.960508606766789"><ele>204.99999999999997</ele><time>2026-04-25T07:02:11Z</time></trkpt><trkpt lat="44.826631763091164" lon="9.960605710395901"><ele>205.0</ele><time>2026-04-25T07:02:13Z</time></trkpt><trkpt lat="44.82657780642354" lon="9.960698997879181"><ele>204.49999999999997</ele><time>2026-04-25T07:02:15Z</time></trkpt><trkpt lat="44.82651931888383" lon="9.960789705247015"><ele>204.0</ele><time>2026-04-25T07:02:17Z</time></trkpt><trkpt lat="44.82646378723097" lon="9.960877577435541"><ele>203.5</ele><time>2026-04-25T07:02:19Z</time></trkpt><trkpt lat="44.82641210434904" lon="9.960966371354257"><ele>203.0</ele><time>2026-04-25T07:02:21Z</time></trkpt><trkpt lat="44.8263594184133" lon="9.961055159342578"><ele>202.49999999999997</ele><time>2026-04-25T07:02:23Z</time></trkpt><trkpt lat="44.82630532875808" lon="9.961146190078722"><ele>202.0</ele><time>2026-04-25T07:02:25Z</time></trkpt><trkpt lat="44.826246239749906" lon="9.961234482323967"><ele>202.99999999999997</ele><time>2026-04-25T07:02:26.999Z</time></trkpt><trkpt lat="44.82618318435778" lon="9.96131772935787"><ele>204.0</ele><time>2026-04-25T07:02:28.999Z</time></trkpt><trkpt lat="44.826123673466356" lon="9.961397878093385"><ele>205.0</ele><time>2026-04-25T07:02:30.999Z</time></trkpt><trkpt lat="44.82605577826245" lon="9.961467135639003"><ele>206.0</ele><time>2026-04-25T07:02:32.999Z</time></trkpt><trkpt lat="44.825986809610455" lon="9.961543014740185"><ele>206.99999999999997</ele><time>2026-04-25T07:02:34.999Z</time></trkpt><trkpt lat="44.8259156439587" lon="9.961611350154671"><ele>208.0</ele><time>2026-04-25T07:02:36.999Z</time></trkpt><trkpt lat="44.82585939348325" lon="9.961659195246892"><ele>210.60000000000002</ele><time>2026-04-25T07:02:38.999Z</time></trkpt><trkpt lat="44.82576775936775" lon="9.961727414938187"><ele>213.20000000000002</ele><time>2026-04-25T07:02:40.999Z</time></trkpt><trkpt lat="44.82569352140299" lon="9.961789982249904"><ele>215.8</ele><time>2026-04-25T07:02:42.999Z</time></trkpt><trkpt lat="44.8256142975954" lon="9.96184501804571"><ele>218.4</ele><time>2026-04-25T07:02:44.999Z</time></trkpt><trkpt lat="44.825529464928785" lon="9.961893667879119"><ele>221.0</ele><time>2026-04-25T07:02:46.999Z</time></trkpt><trkpt lat="44.82544537174543" lon="9.961927422693924"><ele>221.00000000000003</ele><time>2026-04-25T07:02:48.999Z</time></trkpt><trkpt lat="44.8253608286421" lon="9.961940248479781"><ele>221.0</ele><time>2026-04-25T07:02:50.999Z</time></trkpt><trkpt lat="44.825273714641575" lon="9.961923391013666"><ele>221.0</ele><time>2026-04-25T07:02:52.999Z</time></trkpt><trkpt lat="44.82519052941541" lon="9.961905536377854"><ele>221.0</ele><time>2026-04-25T07:02:54.999Z</time></trkpt><trkpt lat="44.825111475917026" lon="9.961873251040478"><ele>221.00000000000003</ele><time>2026-04-25T07:02:56.999Z</time></trkpt><trkpt lat="44.825029289838945" lon="9.961830888608826"><ele>221.0</ele><time>2026-04-25T07:02:58.999Z</time></trkpt><trkpt lat="44.82495709923491" lon="9.961791539140366"><ele>220.83333333333334</ele><time>2026-04-25T07:03:00.999Z</time></trkpt><trkpt lat="44.824879849968326" lon="9.961741354232164"><ele>220.66666666666669</ele><time>2026-04-25T07:03:02.999Z</time></trkpt><trkpt lat="44.824788169765405" lon="9.96171048954984"><ele>220.5</ele><time>2026-04-25T07:03:04.999Z</time></trkpt><trkpt lat="44.824706574520015" lon="9.9616722869457"><ele>220.33333333333331</ele><time>2026-04-25T07:03:06.999Z</time></trkpt><trkpt lat="44.82462135485344" lon="9.961635332529497"><ele>220.16666666666666</ele><time>2026-04-25T07:03:08.999Z</time></trkpt><trkpt lat="44.824538313434594" lon="9.961594232540218"><ele>220.0</ele><time>2026-04-25T07:03:10.999Z</time></trkpt><trkpt lat="44.82445249242168" lon="9.961547874156203"><ele>219.99999999999997</ele><time>2026-04-25T07:03:12.999Z</time></trkpt><trkpt lat="44.8243745373446" lon="9.961502392162872"><ele>220.0</ele><time>2026-04-25T07:03:14.999Z</time></trkpt><trkpt lat="44.82430719984939" lon="9.961435775077861"><ele>220.0</ele><time>2026-04-25T07:03:16.999Z</time></trkpt><trkpt lat="44.824234314805175" lon="9.961372579409362"><ele>220.0</ele><time>2026-04-25T07:03:18.999Z</time></trkpt><trkpt lat="44.82416484643426" lon="9.961314498450667"><ele>219.99999999999997</ele><time>2026-04-25T07:03:20.998Z</time></trkpt><trkpt lat="44.82409269119058" lon="9.961250237424059"><ele>220.0</ele><time>2026-04-25T07:03:22.998Z</time></trkpt><trkpt lat="44.8240232147408" lon="9.96119311418291"><ele>220.0</ele><time>2026-04-25T07:03:24.998Z</time></trkpt><trkpt lat="44.82394338383543" lon="9.961140430066724"><ele>220.0</ele><time>2026-04-25T07:03:26.998Z</time></trkpt><trkpt lat="44.82385649439644" lon="9.961103624187345"><ele>220.0</ele><time>2026-04-25T07:03:28.998Z</time></trkpt><trkpt lat="44.823766505020764" lon="9.961077370554886"><ele>220.0</ele><time>2026-04-25T07:03:30.998Z</time></trkpt><trkpt lat="44.8236747322982" lon="9.961074693360935"><ele>220.0</ele><time>2026-04-25T07:03:32.998Z</time></trkpt><trkpt lat="44.823581834253375" lon="9.961083841345527"><ele>220.0</ele><time>2026-04-25T07:03:34.998Z</time></trkpt><trkpt lat="44.823491544297006" lon="9.961094258004646"><ele>220.0</ele><time>2026-04-25T07:03:36.998Z</time></trkpt><trkpt lat="44.823400229574375" lon="9.961115403399612"><ele>220.0</ele><time>2026-04-25T07:03:38.998Z</time></trkpt><trkpt lat="44.823306777920045" lon="9.961131926564686"><ele>220.0</ele><time>2026-04-25T07:03:40.998Z</time></trkpt><trkpt lat="44.823216058124366" lon="9.961154961120716"><ele>220.0</ele><time>2026-04-25T07:03:42.998Z</time></trkpt><trkpt lat="44.823093370291964" lon="9.961184221666453"><ele>221.6</ele><time>2026-04-25T07:03:45.998Z</time></trkpt><trkpt lat="44.82302558152956" lon="9.961197771436753"><ele>223.2</ele><time>2026-04-25T07:03:46.998Z</time></trkpt><trkpt lat="44.822936832866525" lon="9.961214692725072"><ele>224.8</ele><time>2026-04-25T07:03:48.998Z</time></trkpt><trkpt lat="44.822841995474526" lon="9.961224383221337"><ele>226.4</ele><time>2026-04-25T07:03:50.998Z</time></trkpt><trkpt lat="44.822742533070674" lon="9.961220794543445"><ele>228.0</ele><time>2026-04-25T07:03:52.998Z</time></trkpt><trkpt lat="44.822646087190364" lon="9.961206369895306"><ele>228.4</ele><time>2026-04-25T07:03:54.998Z</time></trkpt><trkpt lat="44.82255151827727" lon="9.961198238494864"><ele>228.8</ele><time>2026-04-25T07:03:56.998Z</time></trkpt><trkpt lat="44.82246115247054" lon="9.961177490188089"><ele>229.2</ele><time>2026-04-25T07:03:58.998Z</time></trkpt><trkpt lat="44.82237429417827" lon="9.961150694071925"><ele>229.6</ele><time>2026-04-25T07:04:00.998Z</time></trkpt><trkpt lat="44.82228114280209" lon="9.961115042496298"><ele>230.0</ele><time>2026-04-25T07:04:02.998Z</time></trkpt><trkpt lat="44.82219047128179" lon="9.961082980587472"><ele>230.0</ele><time>2026-04-25T07:04:05Z</time></trkpt><trkpt lat="44.82210116002511" lon="9.961050328043019"><ele>230.0</ele><time>2026-04-25T07:04:07Z</time></trkpt><trkpt lat="44.82200819084243" lon="9.96102720281937"><ele>230.0</ele><time>2026-04-25T07:04:09Z</time></trkpt><trkpt lat="44.82191830675779" lon="9.961002780612796"><ele>230.0</ele><time>2026-04-25T07:04:11Z</time></trkpt><trkpt lat="44.82182603104981" lon="9.960987015707907"><ele>230.0</ele><time>2026-04-25T07:04:13Z</time></trkpt><trkpt lat="44.82173396494618" lon="9.960974142789345"><ele>229.2</ele><time>2026-04-25T07:04:15Z</time></trkpt><trkpt lat="44.82164162867617" lon="9.960965583693078"><ele>228.4</ele><time>2026-04-25T07:04:17Z</time></trkpt><trkpt lat="44.82155068738599" lon="9.960957368808199"><ele>227.60000000000002</ele><time>2026-04-25T07:04:19Z</time></trkpt><trkpt lat="44.82145737424387" lon="9.96095260575158"><ele>226.8</ele><time>2026-04-25T07:04:21Z</time></trkpt><trkpt lat="44.821362163265846" lon="9.960947213997631"><ele>226.0</ele><time>2026-04-25T07:04:23Z</time></trkpt><trkpt lat="44.821270742795726" lon="9.96093647079521"><ele>226.0</ele><time>2026-04-25T07:04:25Z</time></trkpt><trkpt lat="44.82117731161465" lon="9.960917110336757"><ele>226.00000000000003</ele><time>2026-04-25T07:04:27Z</time></trkpt><trkpt lat="44.82108391341266" lon="9.960909068867943"><ele>226.00000000000003</ele><time>2026-04-25T07:04:29Z</time></trkpt><trkpt lat="44.820987399523375" lon="9.960899848110069"><ele>226.0</ele><time>2026-04-25T07:04:31Z</time></trkpt><trkpt lat="44.82089725368736" lon="9.9608902582534"><ele>226.0</ele><time>2026-04-25T07:04:32.999Z</time></trkpt><trkpt lat="44.8208040582494" lon="9.960884975064129"><ele>226.4</ele><time>2026-04-25T07:04:34.999Z</time></trkpt><trkpt lat="44.82071238796681" lon="9.960876084080907"><ele>226.8</ele><time>2026-04-25T07:04:36.999Z</time></trkpt><trkpt lat="44.82062192992967" lon="9.960865132627019"><ele>227.20000000000002</ele><time>2026-04-25T07:04:38.999Z</time></trkpt><trkpt lat="44.82052486396571" lon="9.9608565609492"><ele>227.60000000000002</ele><time>2026-04-25T07:04:40.999Z</time></trkpt><trkpt lat="44.82043294883666" lon="9.960843259840944"><ele>228.0</ele><time>2026-04-25T07:04:42.999Z</time></trkpt><trkpt lat="44.82033818359044" lon="9.960830948071395"><ele>228.4</ele><time>2026-04-25T07:04:44.999Z</time></trkpt><trkpt lat="44.820242775418436" lon="9.960814998800844"><ele>228.8</ele><time>2026-04-25T07:04:46.999Z</time></trkpt><trkpt lat="44.820145521134364" lon="9.960809093892635"><ele>229.2</ele><time>2026-04-25T07:04:48.999Z</time></trkpt><trkpt lat="44.820049496352226" lon="9.960801044541084"><ele>229.6</ele><time>2026-04-25T07:04:50.999Z</time></trkpt><trkpt lat="44.81995102109065" lon="9.960797759040599"><ele>230.0</ele><time>2026-04-25T07:04:52.999Z</time></trkpt><trkpt lat="44.8198544411755" lon="9.9607969065686"><ele>229.66666666666669</ele><time>2026-04-25T07:04:54.999Z</time></trkpt><trkpt lat="44.81975793223793" lon="9.96079803192416"><ele>229.33333333333334</ele><time>2026-04-25T07:04:56.999Z</time></trkpt><trkpt lat="44.81966587562858" lon="9.960815403996364"><ele>229.0</ele><time>2026-04-25T07:04:58.999Z</time></trkpt><trkpt lat="44.819574923284286" lon="9.960846960474019"><ele>228.66666666666669</ele><time>2026-04-25T07:05:00.999Z</time></trkpt><trkpt lat="44.81949248272532" lon="9.960880813446762"><ele>228.33333333333334</ele><time>2026-04-25T07:05:02.999Z</time></trkpt><trkpt lat="44.81941888945847" lon="9.960925635157912"><ele>228.0</ele><time>2026-04-25T07:05:04.999Z</time></trkpt><trkpt lat="44.819352205350945" lon="9.960984703289254"><ele>228.66666666666666</ele><time>2026-04-25T07:05:06.999Z</time></trkpt><trkpt lat="44.81928737507239" lon="9.9610492092977"><ele>229.33333333333331</ele><time>2026-04-25T07:05:08.999Z</time></trkpt><trkpt lat="44.819224218722496" lon="9.961112363102966"><ele>230.0</ele><time>2026-04-25T07:05:10.999Z</time></trkpt><trkpt lat="44.81916993024989" lon="9.961193468034779"><ele>230.66666666666666</ele><time>2026-04-25T07:05:12.999Z</time></trkpt><trkpt lat="44.81911368358904" lon="9.96127795753346"><ele>231.33333333333331</ele><time>2026-04-25T07:05:14.999Z</time></trkpt><trkpt lat="44.81905742391117" lon="9.96138135593199"><ele>232.0</ele><time>2026-04-25T07:05:16.999Z</time></trkpt><trkpt lat="44.818998496182026" lon="9.96149782875532"><ele>232.0</ele><time>2026-04-25T07:05:18.999Z</time></trkpt><trkpt lat="44.81893352993584" lon="9.961624794253161"><ele>232.0</ele><time>2026-04-25T07:05:20.999Z</time></trkpt><trkpt lat="44.81886400223214" lon="9.961767445088782"><ele>232.0</ele><time>2026-04-25T07:05:22.999Z</time></trkpt><trkpt lat="44.81881137674526" lon="9.961922190456534"><ele>232.0</ele><time>2026-04-25T07:05:24.999Z</time></trkpt><trkpt lat="44.81876832150817" lon="9.962043392886256"><ele>231.33333333333331</ele><time>2026-04-25T07:05:26.999Z</time></trkpt><trkpt lat="44.81874430378154" lon="9.962146807173703"><ele>230.66666666666666</ele><time>2026-04-25T07:05:28.998Z</time></trkpt><trkpt lat="44.818733190843055" lon="9.962245421226504"><ele>230.0</ele><time>2026-04-25T07:05:30.998Z</time></trkpt><trkpt lat="44.81870831966015" lon="9.9623727246607"><ele>229.33333333333331</ele><time>2026-04-25T07:05:32.998Z</time></trkpt><trkpt lat="44.81869450960152" lon="9.96251150291861"><ele>228.66666666666666</ele><time>2026-04-25T07:05:34.998Z</time></trkpt><trkpt lat="44.81869926192088" lon="9.962647217741669"><ele>228.0</ele><time>2026-04-25T07:05:36.998Z</time></trkpt><trkpt lat="44.818712438975034" lon="9.96278695402026"><ele>227.4</ele><time>2026-04-25T07:05:38.998Z</time></trkpt><trkpt lat="44.81872382159004" lon="9.962947365194504"><ele>226.8</ele><time>2026-04-25T07:05:40.998Z</time></trkpt><trkpt lat="44.81872933882219" lon="9.963130082775184"><ele>226.2</ele><time>2026-04-25T07:05:42.998Z</time></trkpt><trkpt lat="44.81873041681048" lon="9.963230705433013"><ele>225.6</ele><time>2026-04-25T07:05:43.998Z</time></trkpt><trkpt lat="44.81873211306838" lon="9.963333940773213"><ele>225.0</ele><time>2026-04-25T07:05:44.998Z</time></trkpt><trkpt lat="44.8187370512806" lon="9.963440257630346"><ele>224.5</ele><time>2026-04-25T07:05:45.998Z</time></trkpt><trkpt lat="44.81873896028244" lon="9.963546435158309"><ele>224.0</ele><time>2026-04-25T07:05:46.998Z</time></trkpt><trkpt lat="44.81874102068655" lon="9.96365852875888"><ele>223.5</ele><time>2026-04-25T07:05:47.998Z</time></trkpt><trkpt lat="44.8187437657842" lon="9.963773028789454"><ele>223.0</ele><time>2026-04-25T07:05:48.998Z</time></trkpt><trkpt lat="44.81873836134254" lon="9.963892247222153"><ele>222.5</ele><time>2026-04-25T07:05:49.998Z</time></trkpt><trkpt lat="44.81873109555188" lon="9.964014476739909"><ele>222.0</ele><time>2026-04-25T07:05:50.998Z</time></trkpt><trkpt lat="44.81872081232856" lon="9.964139168142603"><ele>221.39999999999998</ele><time>2026-04-25T07:05:51.998Z</time></trkpt><trkpt lat="44.818706533724956" lon="9.96426966120037"><ele>220.79999999999998</ele><time>2026-04-25T07:05:52.998Z</time></trkpt><trkpt lat="44.818690319506416" lon="9.964398364796784"><ele>220.2</ele><time>2026-04-25T07:05:53.998Z</time></trkpt><trkpt lat="44.818673589203605" lon="9.964531584349869"><ele>219.6</ele><time>2026-04-25T07:05:54.998Z</time></trkpt><trkpt lat="44.81864831551676" lon="9.964665262143729"><ele>219.0</ele><time>2026-04-25T07:05:55.998Z</time></trkpt><trkpt lat="44.81861823852734" lon="9.964791978301847"><ele>219.0</ele><time>2026-04-25T07:05:56.998Z</time></trkpt><trkpt lat="44.81858938589585" lon="9.964923292338012"><ele>218.99999999999997</ele><time>2026-04-25T07:05:57.998Z</time></trkpt><trkpt lat="44.81855974352896" lon="9.965047882788447"><ele>218.99999999999997</ele><time>2026-04-25T07:05:58.998Z</time></trkpt><trkpt lat="44.818524877966574" lon="9.965173203817555"><ele>219.0</ele><time>2026-04-25T07:05:59.998Z</time></trkpt><trkpt lat="44.818489407883625" lon="9.965297076947937"><ele>219.0</ele><time>2026-04-25T07:06:00.998Z</time></trkpt><trkpt lat="44.81846152248317" lon="9.965416087980824"><ele>218.83333333333334</ele><time>2026-04-25T07:06:01.998Z</time></trkpt><trkpt lat="44.818438022761555" lon="9.965535751383097"><ele>218.66666666666669</ele><time>2026-04-25T07:06:02.998Z</time></trkpt><trkpt lat="44.81841515943874" lon="9.965653098098652"><ele>218.5</ele><time>2026-04-25T07:06:03.998Z</time></trkpt><trkpt lat="44.818403771277495" lon="9.965772896346056"><ele>218.33333333333334</ele><time>2026-04-25T07:06:04.998Z</time></trkpt><trkpt lat="44.81840037274833" lon="9.965891839535866"><ele>218.16666666666669</ele><time>2026-04-25T07:06:05.998Z</time></trkpt><trkpt lat="44.818401127152164" lon="9.966014187608536"><ele>218.0</ele><time>2026-04-25T07:06:06.998Z</time></trkpt><trkpt lat="44.81840979346165" lon="9.966136665525342"><ele>217.4</ele><time>2026-04-25T07:06:07.998Z</time></trkpt><trkpt lat="44.8184245769245" lon="9.966260178672128"><ele>216.8</ele><time>2026-04-25T07:06:08.998Z</time></trkpt><trkpt lat="44.81844145870831" lon="9.966386881005675"><ele>216.2</ele><time>2026-04-25T07:06:10Z</time></trkpt><trkpt lat="44.818466034615724" lon="9.966518477978475"><ele>215.6</ele><time>2026-04-25T07:06:11Z</time></trkpt><trkpt lat="44.818496986329784" lon="9.966646487647601"><ele>215.0</ele><time>2026-04-25T07:06:12Z</time></trkpt><trkpt lat="44.818529777421155" lon="9.966781294344841"><ele>214.0</ele><time>2026-04-25T07:06:13Z</time></trkpt><trkpt lat="44.81855748106431" lon="9.966920612380992"><ele>213.0</ele><time>2026-04-25T07:06:14Z</time></trkpt><trkpt lat="44.81858563020748" lon="9.96706182986977"><ele>212.0</ele><time>2026-04-25T07:06:15Z</time></trkpt><trkpt lat="44.818614453912886" lon="9.967202386578304"><ele>211.0</ele><time>2026-04-25T07:06:16Z</time></trkpt><trkpt lat="44.818637139928555" lon="9.967347111189955"><ele>210.0</ele><time>2026-04-25T07:06:17Z</time></trkpt><trkpt lat="44.81866425893818" lon="9.967494159901369"><ele>208.8</ele><time>2026-04-25T07:06:18Z</time></trkpt><trkpt lat="44.818692443070475" lon="9.967639991537178"><ele>207.6</ele><time>2026-04-25T07:06:19Z</time></trkpt><trkpt lat="44.81871082669647" lon="9.967783651583677"><ele>206.39999999999998</ele><time>2026-04-25T07:06:20Z</time></trkpt><trkpt lat="44.81872076015869" lon="9.967931119411315"><ele>205.2</ele><time>2026-04-25T07:06:21Z</time></trkpt><trkpt lat="44.81873310353844" lon="9.968077405711357"><ele>204.0</ele><time>2026-04-25T07:06:22Z</time></trkpt><trkpt lat="44.818740800104216" lon="9.968221113698146"><ele>203.79999999999998</ele><time>2026-04-25T07:06:23Z</time></trkpt><trkpt lat="44.81875162891592" lon="9.968365924503555"><ele>203.6</ele><time>2026-04-25T07:06:24Z</time></trkpt><trkpt lat="44.81876335570747" lon="9.968506674683525"><ele>203.4</ele><time>2026-04-25T07:06:25Z</time></trkpt><trkpt lat="44.8187727526666" lon="9.968648736392742"><ele>203.2</ele><time>2026-04-25T07:06:26Z</time></trkpt><trkpt lat="44.818778124452976" lon="9.968790349284218"><ele>203.0</ele><time>2026-04-25T07:06:27Z</time></trkpt><trkpt lat="44.81878344723816" lon="9.968930811587287"><ele>203.0</ele><time>2026-04-25T07:06:28Z</time></trkpt><trkpt lat="44.81878505499408" lon="9.969069093550393"><ele>203.0</ele><time>2026-04-25T07:06:29Z</time></trkpt><trkpt lat="44.818786126030325" lon="9.969207231181782"><ele>203.0</ele><time>2026-04-25T07:06:30Z</time></trkpt><trkpt lat="44.81878510934889" lon="9.969345530869624"><ele>203.0</ele><time>2026-04-25T07:06:31Z</time></trkpt><trkpt lat="44.818788184177485" lon="9.96948272346945"><ele>203.0</ele><time>2026-04-25T07:06:32Z</time></trkpt><trkpt lat="44.81878665824887" lon="9.969621973821667"><ele>203.00000000000003</ele><time>2026-04-25T07:06:33Z</time></trkpt><trkpt lat="44.81878151991862" lon="9.969754913009412"><ele>203.0</ele><time>2026-04-25T07:06:33.999Z</time></trkpt><trkpt lat="44.8187820476507" lon="9.969875255568379"><ele>203.0</ele><time>2026-04-25T07:06:34.999Z</time></trkpt><trkpt lat="44.81878284979249" lon="9.96997964645574"><ele>203.0</ele><time>2026-04-25T07:06:35.999Z</time></trkpt><trkpt lat="44.81877608851069" lon="9.970068224520997"><ele>203.00000000000003</ele><time>2026-04-25T07:06:36.999Z</time></trkpt><trkpt lat="44.818704856019544" lon="9.970180166256718"><ele>203.0</ele><time>2026-04-25T07:06:38.999Z</time></trkpt><trkpt lat="44.81862541627951" lon="9.970136612288846"><ele>203.14285714285714</ele><time>2026-04-25T07:06:40.999Z</time></trkpt><trkpt lat="44.818608497635736" lon="9.970224206522568"><ele>203.28571428571428</ele><time>2026-04-25T07:06:44.999Z</time></trkpt><trkpt lat="44.81860794781986" lon="9.970330246234655"><ele>203.42857142857144</ele><time>2026-04-25T07:07:03.999Z</time></trkpt><trkpt lat="44.818635032602046" lon="9.970433886485054"><ele>203.57142857142856</ele><time>2026-04-25T07:07:07.999Z</time></trkpt><trkpt lat="44.8186433243106" lon="9.970535083981389"><ele>203.71428571428572</ele><time>2026-04-25T07:07:11.999Z</time></trkpt><trkpt lat="44.818621480520655" lon="9.970438716567383"><ele>203.85714285714286</ele><time>2026-04-25T07:09:35.998Z</time></trkpt><trkpt lat="44.81862567814637" lon="9.970340407478462"><ele>204.0</ele><time>2026-04-25T07:09:48.998Z</time></trkpt><trkpt lat="44.818606790718846" lon="9.970246770560378"><ele>204.0</ele><time>2026-04-25T07:10:35Z</time></trkpt><trkpt lat="44.81859920911865" lon="9.970152308475454"><ele>204.0</ele><time>2026-04-25T07:10:38Z</time></trkpt><trkpt lat="44.818591690986295" lon="9.970030503152623"><ele>204.0</ele><time>2026-04-25T07:10:40Z</time></trkpt><trkpt lat="44.81854958280618" lon="9.969885204738542"><ele>204.0</ele><time>2026-04-25T07:10:41.999Z</time></trkpt><trkpt lat="44.818518205167585" lon="9.969805880641562"><ele>204.0</ele><time>2026-04-25T07:10:42.999Z</time></trkpt><trkpt lat="44.81848185042755" lon="9.969730083221833"><ele>204.0</ele><time>2026-04-25T07:10:43.999Z</time></trkpt><trkpt lat="44.818448118662005" lon="9.969648352162713"><ele>203.0</ele><time>2026-04-25T07:10:44.999Z</time></trkpt><trkpt lat="44.81841339502572" lon="9.969563484485818"><ele>202.0</ele><time>2026-04-25T07:10:45.999Z</time></trkpt><trkpt lat="44.81838403239678" lon="9.969469277543238"><ele>201.0</ele><time>2026-04-25T07:10:46.999Z</time></trkpt><trkpt lat="44.818351896725346" lon="9.969370539632513"><ele>200.0</ele><time>2026-04-25T07:10:47.999Z</time></trkpt><trkpt lat="44.81831629690277" lon="9.96927133460618"><ele>199.0</ele><time>2026-04-25T07:10:48.999Z</time></trkpt><trkpt lat="44.81827661110832" lon="9.969166088510576"><ele>198.0</ele><time>2026-04-25T07:10:49.999Z</time></trkpt><trkpt lat="44.818238330125915" lon="9.969057815536068"><ele>198.0</ele><time>2026-04-25T07:10:50.999Z</time></trkpt><trkpt lat="44.81819820806342" lon="9.968946230209218"><ele>198.0</ele><time>2026-04-25T07:10:51.999Z</time></trkpt><trkpt lat="44.818163613416836" lon="9.96883132898856"><ele>198.0</ele><time>2026-04-25T07:10:52.999Z</time></trkpt><trkpt lat="44.8181329420711" lon="9.968721660288873"><ele>198.0</ele><time>2026-04-25T07:10:53.999Z</time></trkpt><trkpt lat="44.81810626232966" lon="9.968620835666371"><ele>198.0</ele><time>2026-04-25T07:10:54.999Z</time></trkpt><trkpt lat="44.81807809865729" lon="9.968529409644818"><ele>198.0</ele><time>2026-04-25T07:10:55.999Z</time></trkpt><trkpt lat="44.81804509159076" lon="9.968453050215569"><ele>198.0</ele><time>2026-04-25T07:10:56.999Z</time></trkpt><trkpt lat="44.81794035405614" lon="9.968386122509504"><ele>198.0</ele><time>2026-04-25T07:10:58.999Z</time></trkpt><trkpt lat="44.81787368090051" lon="9.968422642871737"><ele>198.0</ele><time>2026-04-25T07:10:59.999Z</time></trkpt><trkpt lat="44.81782192255142" lon="9.968508396930229"><ele>198.0</ele><time>2026-04-25T07:11:00.999Z</time></trkpt><trkpt lat="44.81782734151568" lon="9.968645564168506"><ele>198.0</ele><time>2026-04-25T07:11:01.999Z</time></trkpt><trkpt lat="44.817829714859954" lon="9.968752586473343"><ele>198.0</ele><time>2026-04-25T07:11:02.999Z</time></trkpt><trkpt lat="44.817827362794915" lon="9.968857688709495"><ele>198.0</ele><time>2026-04-25T07:11:03.999Z</time></trkpt><trkpt lat="44.81781670352093" lon="9.96896285077765"><ele>198.0</ele><time>2026-04-25T07:11:04.999Z</time></trkpt><trkpt lat="44.817805788199124" lon="9.969077256753065"><ele>198.0</ele><time>2026-04-25T07:11:05.999Z</time></trkpt><trkpt lat="44.8177932178378" lon="9.96919533476771"><ele>198.0</ele><time>2026-04-25T07:11:06.999Z</time></trkpt><trkpt lat="44.81778381893849" lon="9.969315823827527"><ele>198.0</ele><time>2026-04-25T07:11:07.999Z</time></trkpt><trkpt lat="44.81777361291522" lon="9.969440102028118"><ele>198.0</ele><time>2026-04-25T07:11:08.999Z</time></trkpt><trkpt lat="44.81776462585964" lon="9.96956873159431"><ele>198.0</ele><time>2026-04-25T07:11:09.999Z</time></trkpt><trkpt lat="44.81775494243191" lon="9.969696974222602"><ele>198.0</ele><time>2026-04-25T07:11:10.999Z</time></trkpt><trkpt lat="44.8177509015814" lon="9.96983077559653"><ele>198.0</ele><time>2026-04-25T07:11:11.999Z</time></trkpt><trkpt lat="44.81774242513111" lon="9.969966045444124"><ele>198.0</ele><time>2026-04-25T07:11:12.999Z</time></trkpt><trkpt lat="44.81773021815887" lon="9.970107253668003"><ele>198.0</ele><time>2026-04-25T07:11:13.999Z</time></trkpt><trkpt lat="44.81772389965612" lon="9.970247866747679"><ele>197.60000000000002</ele><time>2026-04-25T07:11:14.999Z</time></trkpt><trkpt lat="44.817715511746314" lon="9.970394448015494"><ele>197.20000000000002</ele><time>2026-04-25T07:11:15.999Z</time></trkpt><trkpt lat="44.81769646268107" lon="9.970538203311547"><ele>196.8</ele><time>2026-04-25T07:11:16.999Z</time></trkpt><trkpt lat="44.8176866195401" lon="9.97068771720579"><ele>196.4</ele><time>2026-04-25T07:11:17.999Z</time></trkpt><trkpt lat="44.81767695323908" lon="9.970838771699544"><ele>196.0</ele><time>2026-04-25T07:11:18.999Z</time></trkpt><trkpt lat="44.8176680951743" lon="9.970992122309756"><ele>192.4</ele><time>2026-04-25T07:11:19.999Z</time></trkpt><trkpt lat="44.81764718252326" lon="9.971139712534281"><ele>188.8</ele><time>2026-04-25T07:11:20.999Z</time></trkpt><trkpt lat="44.81762075422223" lon="9.971283121395057"><ele>185.20000000000002</ele><time>2026-04-25T07:11:21.999Z</time></trkpt><trkpt lat="44.817585172941655" lon="9.971425271621573"><ele>181.60000000000002</ele><time>2026-04-25T07:11:22.999Z</time></trkpt><trkpt lat="44.81755382828659" lon="9.971574028661644"><ele>178.0</ele><time>2026-04-25T07:11:23.999Z</time></trkpt><trkpt lat="44.817518268883276" lon="9.971712552227132"><ele>178.0</ele><time>2026-04-25T07:11:24.999Z</time></trkpt><trkpt lat="44.81747597645923" lon="9.971847894013544"><ele>178.0</ele><time>2026-04-25T07:11:25.999Z</time></trkpt><trkpt lat="44.817440717939185" lon="9.97198291496607"><ele>178.0</ele><time>2026-04-25T07:11:26.999Z</time></trkpt><trkpt lat="44.817409977965546" lon="9.97211193317362"><ele>178.0</ele><time>2026-04-25T07:11:27.999Z</time></trkpt><trkpt lat="44.817375196657075" lon="9.972243316548063"><ele>178.0</ele><time>2026-04-25T07:11:28.999Z</time></trkpt><trkpt lat="44.81733584372411" lon="9.972376658160243"><ele>178.0</ele><time>2026-04-25T07:11:29.999Z</time></trkpt><trkpt lat="44.81730250368928" lon="9.972514304737107"><ele>178.0</ele><time>2026-04-25T07:11:30.999Z</time></trkpt><trkpt lat="44.81726809858053" lon="9.97265309959954"><ele>178.0</ele><time>2026-04-25T07:11:31.999Z</time></trkpt><trkpt lat="44.81722917722751" lon="9.972782396924453"><ele>178.0</ele><time>2026-04-25T07:11:32.999Z</time></trkpt><trkpt lat="44.81719344661066" lon="9.972924666042005"><ele>178.0</ele><time>2026-04-25T07:11:33.999Z</time></trkpt><trkpt lat="44.81715410561116" lon="9.973061118220572"><ele>178.0</ele><time>2026-04-25T07:11:34.999Z</time></trkpt><trkpt lat="44.817118385741416" lon="9.973201770540891"><ele>178.0</ele><time>2026-04-25T07:11:35.999Z</time></trkpt><trkpt lat="44.8170784787946" lon="9.973341206264267"><ele>178.0</ele><time>2026-04-25T07:11:36.999Z</time></trkpt><trkpt lat="44.81703764416312" lon="9.973480618604603"><ele>178.0</ele><time>2026-04-25T07:11:37.999Z</time></trkpt><trkpt lat="44.81699722094688" lon="9.973623929308156"><ele>178.0</ele><time>2026-04-25T07:11:38.998Z</time></trkpt><trkpt lat="44.8169582821329" lon="9.97376913168142"><ele>178.0</ele><time>2026-04-25T07:11:39.998Z</time></trkpt><trkpt lat="44.816921662520414" lon="9.973910076900232"><ele>178.0</ele><time>2026-04-25T07:11:40.998Z</time></trkpt><trkpt lat="44.81688152118497" lon="9.974054242127348"><ele>178.0</ele><time>2026-04-25T07:11:41.998Z</time></trkpt><trkpt lat="44.81683836809246" lon="9.974198667908558"><ele>178.0</ele><time>2026-04-25T07:11:42.998Z</time></trkpt><trkpt lat="44.816802025961564" lon="9.97434125310653"><ele>178.0</ele><time>2026-04-25T07:11:43.998Z</time></trkpt><trkpt lat="44.816760718694894" lon="9.974484796114966"><ele>176.60000000000002</ele><time>2026-04-25T07:11:44.998Z</time></trkpt><trkpt lat="44.81672320656216" lon="9.97463005071219"><ele>175.20000000000002</ele><time>2026-04-25T07:11:45.998Z</time></trkpt><trkpt lat="44.81668569513862" lon="9.97477447779916"><ele>173.8</ele><time>2026-04-25T07:11:46.998Z</time></trkpt><trkpt lat="44.816647256088295" lon="9.974914070153387"><ele>172.4</ele><time>2026-04-25T07:11:47.998Z</time></trkpt><trkpt lat="44.81660639662738" lon="9.975050437342926"><ele>171.0</ele><time>2026-04-25T07:11:48.998Z</time></trkpt><trkpt lat="44.81657158528425" lon="9.975174218380872"><ele>170.33333333333334</ele><time>2026-04-25T07:11:49.998Z</time></trkpt><trkpt lat="44.81653984853264" lon="9.975292138420714"><ele>169.66666666666666</ele><time>2026-04-25T07:11:50.998Z</time></trkpt><trkpt lat="44.81651276192567" lon="9.975391873359383"><ele>169.0</ele><time>2026-04-25T07:11:51.998Z</time></trkpt><trkpt lat="44.81648855754263" lon="9.975478510275769"><ele>168.33333333333331</ele><time>2026-04-25T07:11:52.998Z</time></trkpt><trkpt lat="44.81643627094399" lon="9.975629343069777"><ele>167.66666666666666</ele><time>2026-04-25T07:11:54.998Z</time></trkpt><trkpt lat="44.81638886328238" lon="9.975746031378433"><ele>167.0</ele><time>2026-04-25T07:11:56.998Z</time></trkpt><trkpt lat="44.81626202931842" lon="9.975699732524182"><ele>167.0</ele><time>2026-04-25T07:11:59.998Z</time></trkpt><trkpt lat="44.816180369434235" lon="9.975643367871408"><ele>167.0</ele><time>2026-04-25T07:12:01.998Z</time></trkpt><trkpt lat="44.816095966287754" lon="9.975608439759442"><ele>167.0</ele><time>2026-04-25T07:12:03.998Z</time></trkpt><trkpt lat="44.81601058222242" lon="9.97555681233803"><ele>167.0</ele><time>2026-04-25T07:12:05.998Z</time></trkpt><trkpt lat="44.81593122072689" lon="9.975526905715476"><ele>167.0</ele><time>2026-04-25T07:12:07.998Z</time></trkpt><trkpt lat="44.81583797801544" lon="9.975673416362046"><ele>167.0</ele><time>2026-04-25T07:12:10.998Z</time></trkpt><trkpt lat="44.815817143570435" lon="9.975803001647444"><ele>167.0</ele><time>2026-04-25T07:12:12.998Z</time></trkpt><trkpt lat="44.81580348730606" lon="9.97594296247314"><ele>167.0</ele><time>2026-04-25T07:12:14.998Z</time></trkpt><trkpt lat="44.81579145853165" lon="9.976091309301239"><ele>167.0</ele><time>2026-04-25T07:12:16.998Z</time></trkpt><trkpt lat="44.81578298699899" lon="9.976240872342196"><ele>167.0</ele><time>2026-04-25T07:12:18.998Z</time></trkpt><trkpt lat="44.81576349289687" lon="9.976399279193053"><ele>167.2</ele><time>2026-04-25T07:12:20.998Z</time></trkpt><trkpt lat="44.815744041270904" lon="9.976560944445392"><ele>167.39999999999998</ele><time>2026-04-25T07:12:22.998Z</time></trkpt><trkpt lat="44.815727379989816" lon="9.97670474792389"><ele>167.60000000000002</ele><time>2026-04-25T07:12:24.998Z</time></trkpt><trkpt lat="44.815703638525775" lon="9.976830289612217"><ele>167.8</ele><time>2026-04-25T07:12:26.998Z</time></trkpt><trkpt lat="44.81561975403536" lon="9.976876581748062"><ele>168.0</ele><time>2026-04-25T07:12:29Z</time></trkpt><trkpt lat="44.81556746902889" lon="9.976793132356235"><ele>168.0</ele><time>2026-04-25T07:12:31Z</time></trkpt><trkpt lat="44.815541175960604" lon="9.976711171121899"><ele>168.0</ele><time>2026-04-25T07:12:33Z</time></trkpt><trkpt lat="44.81555395931193" lon="9.976582310573635"><ele>168.0</ele><time>2026-04-25T07:12:36Z</time></trkpt><trkpt lat="44.81558328952715" lon="9.976499915546993"><ele>168.0</ele><time>2026-04-25T07:12:38Z</time></trkpt><trkpt lat="44.8155921563045" lon="9.97640577091139"><ele>168.0</ele><time>2026-04-25T07:12:40Z</time></trkpt><trkpt lat="44.81560759949202" lon="9.976275468818944"><ele>168.0</ele><time>2026-04-25T07:12:43Z</time></trkpt><trkpt lat="44.8156199355948" lon="9.976183960109678"><ele>168.0</ele><time>2026-04-25T07:12:45Z</time></trkpt><trkpt lat="44.81559986858677" lon="9.97609591587434"><ele>168.0</ele><time>2026-04-25T07:12:47.999Z</time></trkpt><trkpt lat="44.81557026490142" lon="9.975983185040754"><ele>168.0</ele><time>2026-04-25T07:12:50.999Z</time></trkpt><trkpt lat="44.81551788330324" lon="9.975878940281184"><ele>168.0</ele><time>2026-04-25T07:12:53.999Z</time></trkpt><trkpt lat="44.815439607493865" lon="9.975847044865095"><ele>168.0</ele><time>2026-04-25T07:12:56.999Z</time></trkpt><trkpt lat="44.8153672183446" lon="9.975901626467447"><ele>168.0</ele><time>2026-04-25T07:12:59.999Z</time></trkpt><trkpt lat="44.8153084807647" lon="9.976001563988838"><ele>168.0</ele><time>2026-04-25T07:13:02.999Z</time></trkpt><trkpt lat="44.815244137742795" lon="9.976106979611076"><ele>168.0</ele><time>2026-04-25T07:13:05.999Z</time></trkpt><trkpt lat="44.8152016692128" lon="9.976204609319769"><ele>168.0</ele><time>2026-04-25T07:13:08.999Z</time></trkpt><trkpt lat="44.815157330006826" lon="9.976317257427448"><ele>168.0</ele><time>2026-04-25T07:13:11.999Z</time></trkpt><trkpt lat="44.81511761445147" lon="9.97643658409881"><ele>168.0</ele><time>2026-04-25T07:13:14.999Z</time></trkpt><trkpt lat="44.8150790999797" lon="9.976558913772044"><ele>168.0</ele><time>2026-04-25T07:13:17.999Z</time></trkpt><trkpt lat="44.815053429454814" lon="9.976645801262242"><ele>168.0</ele><time>2026-04-25T07:13:19.999Z</time></trkpt><trkpt lat="44.8150341118355" lon="9.976734963156082"><ele>169.14285714285714</ele><time>2026-04-25T07:13:21.999Z</time></trkpt><trkpt lat="44.81501149904272" lon="9.97682150823521"><ele>170.28571428571428</ele><time>2026-04-25T07:13:23.999Z</time></trkpt><trkpt lat="44.81493649625337" lon="9.976912534326926"><ele>171.42857142857144</ele><time>2026-04-25T07:13:28.999Z</time></trkpt><trkpt lat="44.814897333506465" lon="9.976989910851152"><ele>172.57142857142856</ele><time>2026-04-25T07:13:30.999Z</time></trkpt><trkpt lat="44.814863522974704" lon="9.977072801743377"><ele>173.71428571428572</ele><time>2026-04-25T07:13:32.999Z</time></trkpt><trkpt lat="44.81483498091674" lon="9.977152223954008"><ele>174.85714285714286</ele><time>2026-04-25T07:13:34.999Z</time></trkpt><trkpt lat="44.81479930192221" lon="9.977236609973925"><ele>176.0</ele><time>2026-04-25T07:13:36.999Z</time></trkpt><trkpt lat="44.81476025916478" lon="9.977314062510464"><ele>176.0</ele><time>2026-04-25T07:13:38.999Z</time></trkpt><trkpt lat="44.81471562919761" lon="9.977392442142811"><ele>176.0</ele><time>2026-04-25T07:13:40.999Z</time></trkpt><trkpt lat="44.814677772256395" lon="9.977484872074097"><ele>176.0</ele><time>2026-04-25T07:13:42.999Z</time></trkpt><trkpt lat="44.81463381457751" lon="9.977568965316213"><ele>176.0</ele><time>2026-04-25T07:13:44.998Z</time></trkpt><trkpt lat="44.81451495555239" lon="9.97782618248858"><ele>176.0</ele><time>2026-04-25T07:13:46.998Z</time></trkpt><trkpt lat="44.81450742895275" lon="9.977959944881931"><ele>175.4</ele><time>2026-04-25T07:13:48.998Z</time></trkpt><trkpt lat="44.81450486573552" lon="9.978091493082633"><ele>174.8</ele><time>2026-04-25T07:13:50.998Z</time></trkpt><trkpt lat="44.81452114028811" lon="9.978237558137485"><ele>174.20000000000002</ele><time>2026-04-25T07:13:52.998Z</time></trkpt><trkpt lat="44.81453723251493" lon="9.978336371539438"><ele>173.60000000000002</ele><time>2026-04-25T07:13:53.998Z</time></trkpt><trkpt lat="44.81456180449344" lon="9.97851574239789"><ele>173.0</ele><time>2026-04-25T07:13:55.998Z</time></trkpt><trkpt lat="44.814571386264234" lon="9.978622696417965"><ele>172.33333333333331</ele><time>2026-04-25T07:13:56.998Z</time></trkpt><trkpt lat="44.81457586377265" lon="9.978720750732874"><ele>171.66666666666666</ele><time>2026-04-25T07:13:57.998Z</time></trkpt><trkpt lat="44.81457645997714" lon="9.978901733005552"><ele>171.0</ele><time>2026-04-25T07:13:59.998Z</time></trkpt><trkpt lat="44.81456973230486" lon="9.978996439363977"><ele>170.33333333333334</ele><time>2026-04-25T07:14:00.998Z</time></trkpt><trkpt lat="44.81454981377889" lon="9.979085822799608"><ele>169.66666666666669</ele><time>2026-04-25T07:14:01.998Z</time></trkpt><trkpt lat="44.814521207117245" lon="9.97917115542378"><ele>169.0</ele><time>2026-04-25T07:14:02.998Z</time></trkpt><trkpt lat="44.814493498190394" lon="9.979260891348027"><ele>169.28571428571428</ele><time>2026-04-25T07:14:03.998Z</time></trkpt><trkpt lat="44.81446659729451" lon="9.979348463875578"><ele>169.57142857142856</ele><time>2026-04-25T07:14:04.998Z</time></trkpt><trkpt lat="44.8144381521034" lon="9.979430115977896"><ele>169.85714285714283</ele><time>2026-04-25T07:14:05.998Z</time></trkpt><trkpt lat="44.81439032230854" lon="9.979500535797188"><ele>170.14285714285714</ele><time>2026-04-25T07:14:06.998Z</time></trkpt><trkpt lat="44.8143418102703" lon="9.979577308363044"><ele>170.42857142857142</ele><time>2026-04-25T07:14:07.998Z</time></trkpt><trkpt lat="44.81429136361914" lon="9.979661536535877"><ele>170.7142857142857</ele><time>2026-04-25T07:14:08.998Z</time></trkpt><trkpt lat="44.81424328159506" lon="9.979753627709947"><ele>171.0</ele><time>2026-04-25T07:14:09.998Z</time></trkpt><trkpt lat="44.814196668132226" lon="9.979849871670691"><ele>170.99999999999997</ele><time>2026-04-25T07:14:10.998Z</time></trkpt><trkpt lat="44.814154136898615" lon="9.979935277823015"><ele>171.0</ele><time>2026-04-25T07:14:11.998Z</time></trkpt><trkpt lat="44.814107778016414" lon="9.980012932652603"><ele>171.0</ele><time>2026-04-25T07:14:12.998Z</time></trkpt><trkpt lat="44.81406264388948" lon="9.980086505655727"><ele>171.0</ele><time>2026-04-25T07:14:13.998Z</time></trkpt><trkpt lat="44.814021662136795" lon="9.980166602881981"><ele>171.0</ele><time>2026-04-25T07:14:14.998Z</time></trkpt><trkpt lat="44.81398261543435" lon="9.980243107234037"><ele>170.99999999999997</ele><time>2026-04-25T07:14:15.998Z</time></trkpt><trkpt lat="44.81393113226534" lon="9.980316537200896"><ele>171.0</ele><time>2026-04-25T07:14:16.998Z</time></trkpt><trkpt lat="44.81387599547806" lon="9.980388739845539"><ele>170.16666666666666</ele><time>2026-04-25T07:14:17.998Z</time></trkpt><trkpt lat="44.81381925286106" lon="9.98045214062915"><ele>169.33333333333334</ele><time>2026-04-25T07:14:18.998Z</time></trkpt><trkpt lat="44.813760541365106" lon="9.980506248107211"><ele>168.5</ele><time>2026-04-25T07:14:19.998Z</time></trkpt><trkpt lat="44.8137116303625" lon="9.980570682482407"><ele>167.66666666666669</ele><time>2026-04-25T07:14:20.998Z</time></trkpt><trkpt lat="44.813663082250244" lon="9.980723647985744"><ele>166.83333333333334</ele><time>2026-04-25T07:14:22.998Z</time></trkpt><trkpt lat="44.81367024066463" lon="9.980816119236147"><ele>166.0</ele><time>2026-04-25T07:14:23.998Z</time></trkpt><trkpt lat="44.813695370808944" lon="9.980954225463435"><ele>165.83333333333334</ele><time>2026-04-25T07:14:25.998Z</time></trkpt><trkpt lat="44.81364639639543" lon="9.981025451512137"><ele>165.66666666666669</ele><time>2026-04-25T07:14:27.998Z</time></trkpt><trkpt lat="44.81357020616255" lon="9.98105433938151"><ele>165.5</ele><time>2026-04-25T07:14:29.998Z</time></trkpt><trkpt lat="44.81348840374082" lon="9.981032336665534"><ele>165.33333333333334</ele><time>2026-04-25T07:14:31.998Z</time></trkpt><trkpt lat="44.81341600154278" lon="9.981045001046168"><ele>165.16666666666666</ele><time>2026-04-25T07:14:34Z</time></trkpt><trkpt lat="44.81331909852287" lon="9.981056767960984"><ele>165.0</ele><time>2026-04-25T07:14:36Z</time></trkpt><trkpt lat="44.81323234605389" lon="9.98106109802001"><ele>165.33333333333334</ele><time>2026-04-25T07:14:38Z</time></trkpt><trkpt lat="44.81314682077404" lon="9.98106863331142"><ele>165.66666666666666</ele><time>2026-04-25T07:14:40Z</time></trkpt><trkpt lat="44.8130542886767" lon="9.981070573229685"><ele>166.0</ele><time>2026-04-25T07:14:42Z</time></trkpt><trkpt lat="44.81297575429406" lon="9.981057269031139"><ele>166.33333333333331</ele><time>2026-04-25T07:14:44Z</time></trkpt><trkpt lat="44.81287692265827" lon="9.981061365828749"><ele>166.66666666666666</ele><time>2026-04-25T07:14:46Z</time></trkpt><trkpt lat="44.81278840710365" lon="9.981072101765028"><ele>167.0</ele><time>2026-04-25T07:14:48Z</time></trkpt><trkpt lat="44.8127037654484" lon="9.98106147223667"><ele>166.83333333333331</ele><time>2026-04-25T07:14:50Z</time></trkpt><trkpt lat="44.812617567246285" lon="9.981054211996238"><ele>166.66666666666666</ele><time>2026-04-25T07:14:52Z</time></trkpt><trkpt lat="44.81252761774399" lon="9.981033942275117"><ele>166.5</ele><time>2026-04-25T07:14:53.999Z</time></trkpt><trkpt lat="44.81243869997957" lon="9.981035721372123"><ele>166.33333333333334</ele><time>2026-04-25T07:14:55.999Z</time></trkpt><trkpt lat="44.812355149004134" lon="9.981036457506539"><ele>166.16666666666669</ele><time>2026-04-25T07:14:57.999Z</time></trkpt><trkpt lat="44.812268819052996" lon="9.981036735504711"><ele>166.0</ele><time>2026-04-25T07:14:59.999Z</time></trkpt><trkpt lat="44.81218306795043" lon="9.981028043580439"><ele>166.0</ele><time>2026-04-25T07:15:01.999Z</time></trkpt><trkpt lat="44.81209406974168" lon="9.981023298775753"><ele>166.0</ele><time>2026-04-25T07:15:03.999Z</time></trkpt><trkpt lat="44.812003659411516" lon="9.981026319874216"><ele>166.0</ele><time>2026-04-25T07:15:05.999Z</time></trkpt><trkpt lat="44.811914832812086" lon="9.98102782426317"><ele>166.0</ele><time>2026-04-25T07:15:07.999Z</time></trkpt><trkpt lat="44.81183019925512" lon="9.981032524159893"><ele>166.0</ele><time>2026-04-25T07:15:09.999Z</time></trkpt><trkpt lat="44.811740768916394" lon="9.981035335620485"><ele>166.0</ele><time>2026-04-25T07:15:11.999Z</time></trkpt><trkpt lat="44.81165287377802" lon="9.981104332554937"><ele>166.4</ele><time>2026-04-25T07:15:13.999Z</time></trkpt><trkpt lat="44.81155972020316" lon="9.981111543186183"><ele>166.8</ele><time>2026-04-25T07:15:15.999Z</time></trkpt><trkpt lat="44.811466471115736" lon="9.981094721792422"><ele>167.20000000000002</ele><time>2026-04-25T07:15:17.999Z</time></trkpt><trkpt lat="44.81137357197181" lon="9.981099786000083"><ele>167.60000000000002</ele><time>2026-04-25T07:15:19.999Z</time></trkpt><trkpt lat="44.811285640514306" lon="9.981122170845724"><ele>168.0</ele><time>2026-04-25T07:15:21.999Z</time></trkpt><trkpt lat="44.81118977586031" lon="9.981119006633007"><ele>168.0</ele><time>2026-04-25T07:15:23.999Z</time></trkpt><trkpt lat="44.811093552847936" lon="9.981119006636181"><ele>168.0</ele><time>2026-04-25T07:15:25.999Z</time></trkpt><trkpt lat="44.8110018915959" lon="9.981119401689394"><ele>168.0</ele><time>2026-04-25T07:15:27.999Z</time></trkpt><trkpt lat="44.81092113692498" lon="9.981119941595015"><ele>168.0</ele><time>2026-04-25T07:15:29.999Z</time></trkpt><trkpt lat="44.81082960981621" lon="9.981120930393399"><ele>168.0</ele><time>2026-04-25T07:15:31.999Z</time></trkpt><trkpt lat="44.81072578789845" lon="9.981123411205475"><ele>168.0</ele><time>2026-04-25T07:15:33.999Z</time></trkpt><trkpt lat="44.81063402547769" lon="9.981125603883433"><ele>168.0</ele><time>2026-04-25T07:15:35.999Z</time></trkpt><trkpt lat="44.810531289339814" lon="9.981091070593372"><ele>168.0</ele><time>2026-04-25T07:15:37.999Z</time></trkpt><trkpt lat="44.81043493534099" lon="9.981097545780859"><ele>168.0</ele><time>2026-04-25T07:15:39.999Z</time></trkpt><trkpt lat="44.81034281597874" lon="9.98110735356154"><ele>168.0</ele><time>2026-04-25T07:15:41.999Z</time></trkpt><trkpt lat="44.8102500743178" lon="9.981094698243366"><ele>168.0</ele><time>2026-04-25T07:15:43.999Z</time></trkpt><trkpt lat="44.81018090511943" lon="9.981113814480915"><ele>168.0</ele><time>2026-04-25T07:15:45.999Z</time></trkpt><trkpt lat="44.81001594302203" lon="9.981124721331579"><ele>168.0</ele><time>2026-04-25T07:15:48.999Z</time></trkpt><trkpt lat="44.809932550718415" lon="9.981125487652658"><ele>168.0</ele><time>2026-04-25T07:15:50.998Z</time></trkpt><trkpt lat="44.809839314670896" lon="9.981126808255762"><ele>168.0</ele><time>2026-04-25T07:15:52.998Z</time></trkpt><trkpt lat="44.809750212041294" lon="9.981133058972114"><ele>167.8</ele><time>2026-04-25T07:15:54.998Z</time></trkpt><trkpt lat="44.80966393615786" lon="9.981131179166875"><ele>167.60000000000002</ele><time>2026-04-25T07:15:56.998Z</time></trkpt><trkpt lat="44.80958101412845" lon="9.981126486649977"><ele>167.39999999999998</ele><time>2026-04-25T07:15:58.998Z</time></trkpt><trkpt lat="44.80948770742896" lon="9.981129126175663"><ele>167.2</ele><time>2026-04-25T07:16:00.998Z</time></trkpt><trkpt lat="44.80939224698897" lon="9.98112555758613"><ele>167.0</ele><time>2026-04-25T07:16:02.998Z</time></trkpt><trkpt lat="44.80929322108278" lon="9.981117497876076"><ele>167.8</ele><time>2026-04-25T07:16:04.998Z</time></trkpt><trkpt lat="44.80920954818963" lon="9.981128911038368"><ele>168.6</ele><time>2026-04-25T07:16:06.998Z</time></trkpt><trkpt lat="44.80911719328237" lon="9.981126451646888"><ele>169.4</ele><time>2026-04-25T07:16:08.998Z</time></trkpt><trkpt lat="44.809024374876664" lon="9.981126783661074"><ele>170.20000000000002</ele><time>2026-04-25T07:16:10.998Z</time></trkpt><trkpt lat="44.808930167174786" lon="9.981137217920992"><ele>171.0</ele><time>2026-04-25T07:16:12.998Z</time></trkpt><trkpt lat="44.808836937714574" lon="9.981136239068572"><ele>171.0</ele><time>2026-04-25T07:16:14.998Z</time></trkpt><trkpt lat="44.80874464435854" lon="9.981142242751375"><ele>171.0</ele><time>2026-04-25T07:16:16.998Z</time></trkpt><trkpt lat="44.80865124895413" lon="9.98113857688034"><ele>171.0</ele><time>2026-04-25T07:16:18.998Z</time></trkpt><trkpt lat="44.808556762487605" lon="9.981132685219766"><ele>171.0</ele><time>2026-04-25T07:16:20.998Z</time></trkpt><trkpt lat="44.80846333809637" lon="9.981122215255416"><ele>171.0</ele><time>2026-04-25T07:16:22.998Z</time></trkpt><trkpt lat="44.80836542721336" lon="9.981102531157038"><ele>171.0</ele><time>2026-04-25T07:16:24.998Z</time></trkpt><trkpt lat="44.80826167827354" lon="9.981083697219018"><ele>171.0</ele><time>2026-04-25T07:16:26.998Z</time></trkpt><trkpt lat="44.808196256143596" lon="9.981083549170988"><ele>171.0</ele><time>2026-04-25T07:16:28.998Z</time></trkpt><trkpt lat="44.808117556565406" lon="9.981083953790867"><ele>171.0</ele><time>2026-04-25T07:16:30.998Z</time></trkpt><trkpt lat="44.80803790038767" lon="9.981067175373443"><ele>171.0</ele><time>2026-04-25T07:16:32.998Z</time></trkpt><trkpt lat="44.80794539231838" lon="9.981065199178953"><ele>171.0</ele><time>2026-04-25T07:16:34.998Z</time></trkpt><trkpt lat="44.807851702567" lon="9.981051280086175"><ele>171.0</ele><time>2026-04-25T07:16:36.998Z</time></trkpt><trkpt lat="44.807763166780816" lon="9.981053953936213"><ele>171.0</ele><time>2026-04-25T07:16:39Z</time></trkpt><trkpt lat="44.80766425053925" lon="9.981053845004492"><ele>171.0</ele><time>2026-04-25T07:16:41Z</time></trkpt><trkpt lat="44.807560060036984" lon="9.981033148390036"><ele>171.0</ele><time>2026-04-25T07:16:43Z</time></trkpt><trkpt lat="44.80744384411504" lon="9.981030933497316"><ele>171.0</ele><time>2026-04-25T07:16:45Z</time></trkpt><trkpt lat="44.80734668607829" lon="9.981035403233953"><ele>171.0</ele><time>2026-04-25T07:16:47Z</time></trkpt><trkpt lat="44.807227427004115" lon="9.98104979847311"><ele>171.0</ele><time>2026-04-25T07:16:49Z</time></trkpt><trkpt lat="44.80711998944584" lon="9.98107608612365"><ele>171.0</ele><time>2026-04-25T07:16:51Z</time></trkpt><trkpt lat="44.80701137695733" lon="9.981095943888253"><ele>171.0</ele><time>2026-04-25T07:16:53Z</time></trkpt><trkpt lat="44.80691253865255" lon="9.981140910246896"><ele>171.0</ele><time>2026-04-25T07:16:55Z</time></trkpt><trkpt lat="44.80674864446631" lon="9.981214607503494"><ele>172.20000000000002</ele><time>2026-04-25T07:16:57.999Z</time></trkpt><trkpt lat="44.8066473989363" lon="9.981264951574591"><ele>173.4</ele><time>2026-04-25T07:16:59.999Z</time></trkpt><trkpt lat="44.80654531326263" lon="9.981318397531386"><ele>174.6</ele><time>2026-04-25T07:17:01.999Z</time></trkpt><trkpt lat="44.806437500619616" lon="9.981369358885532"><ele>175.8</ele><time>2026-04-25T07:17:03.999Z</time></trkpt><trkpt lat="44.806327828738375" lon="9.98142675188243"><ele>177.0</ele><time>2026-04-25T07:17:05.999Z</time></trkpt><trkpt lat="44.80621906165005" lon="9.981489073626877"><ele>177.0</ele><time>2026-04-25T07:17:07.999Z</time></trkpt><trkpt lat="44.80610442629002" lon="9.981551363532772"><ele>177.0</ele><time>2026-04-25T07:17:09.999Z</time></trkpt><trkpt lat="44.80598870458011" lon="9.981611010611397"><ele>177.0</ele><time>2026-04-25T07:17:11.999Z</time></trkpt><trkpt lat="44.8059289345043" lon="9.9816419700326"><ele>177.0</ele><time>2026-04-25T07:17:12.999Z</time></trkpt><trkpt lat="44.80586832759382" lon="9.981670935009053"><ele>177.0</ele><time>2026-04-25T07:17:13.999Z</time></trkpt><trkpt lat="44.805803007810084" lon="9.981701178133248"><ele>177.0</ele><time>2026-04-25T07:17:14.999Z</time></trkpt><trkpt lat="44.80573889574796" lon="9.981732156949162"><ele>176.39999999999998</ele><time>2026-04-25T07:17:15.999Z</time></trkpt><trkpt lat="44.80562348942862" lon="9.981806632411732"><ele>175.79999999999998</ele><time>2026-04-25T07:17:17.999Z</time></trkpt><trkpt lat="44.80551614916586" lon="9.98187067661194"><ele>175.2</ele><time>2026-04-25T07:17:19.999Z</time></trkpt><trkpt lat="44.80540480261148" lon="9.981916716842235"><ele>174.6</ele><time>2026-04-25T07:17:21.999Z</time></trkpt><trkpt lat="44.80533921402773" lon="9.981952002312884"><ele>174.0</ele><time>2026-04-25T07:17:22.999Z</time></trkpt><trkpt lat="44.80527857401303" lon="9.981984904573773"><ele>174.0</ele><time>2026-04-25T07:17:23.999Z</time></trkpt><trkpt lat="44.805217428658125" lon="9.982018786411327"><ele>174.0</ele><time>2026-04-25T07:17:24.999Z</time></trkpt><trkpt lat="44.80515756138264" lon="9.982053977427887"><ele>174.0</ele><time>2026-04-25T07:17:25.999Z</time></trkpt><trkpt lat="44.805097651559684" lon="9.98208878100801"><ele>174.0</ele><time>2026-04-25T07:17:26.999Z</time></trkpt><trkpt lat="44.80503758328668" lon="9.98211757221242"><ele>174.0</ele><time>2026-04-25T07:17:27.999Z</time></trkpt><trkpt lat="44.80497620443465" lon="9.982150825082586"><ele>174.0</ele><time>2026-04-25T07:17:28.999Z</time></trkpt><trkpt lat="44.80486007367995" lon="9.98221541979355"><ele>174.0</ele><time>2026-04-25T07:17:30.999Z</time></trkpt><trkpt lat="44.80479976544384" lon="9.982250927728265"><ele>174.16666666666666</ele><time>2026-04-25T07:17:31.999Z</time></trkpt><trkpt lat="44.80473716875713" lon="9.982282205634267"><ele>174.33333333333334</ele><time>2026-04-25T07:17:32.999Z</time></trkpt><trkpt lat="44.80467670333853" lon="9.982313694397572"><ele>174.5</ele><time>2026-04-25T07:17:33.999Z</time></trkpt><trkpt lat="44.80461863223619" lon="9.982348976642589"><ele>174.66666666666669</ele><time>2026-04-25T07:17:34.999Z</time></trkpt><trkpt lat="44.8045576724363" lon="9.982380425785962"><ele>174.83333333333334</ele><time>2026-04-25T07:17:35.999Z</time></trkpt><trkpt lat="44.80444011523701" lon="9.982442693442833"><ele>175.0</ele><time>2026-04-25T07:17:37.999Z</time></trkpt><trkpt lat="44.80432599518024" lon="9.982516877730147"><ele>175.0</ele><time>2026-04-25T07:17:39.999Z</time></trkpt><trkpt lat="44.80426169546241" lon="9.982530421851187"><ele>175.0</ele><time>2026-04-25T07:17:40.999Z</time></trkpt><trkpt lat="44.80420182313433" lon="9.982559226160667"><ele>175.0</ele><time>2026-04-25T07:17:41.999Z</time></trkpt><trkpt lat="44.804135904608856" lon="9.982592867420857"><ele>175.0</ele><time>2026-04-25T07:17:42.999Z</time></trkpt><trkpt lat="44.80407468392509" lon="9.982617320956894"><ele>175.0</ele><time>2026-04-25T07:17:43.999Z</time></trkpt><trkpt lat="44.80401205710921" lon="9.982640881953413"><ele>175.0</ele><time>2026-04-25T07:17:44.999Z</time></trkpt><trkpt lat="44.80394731948159" lon="9.982652904119046"><ele>175.0</ele><time>2026-04-25T07:17:45.999Z</time></trkpt><trkpt lat="44.80381904072881" lon="9.982662490077583"><ele>175.0</ele><time>2026-04-25T07:17:47.999Z</time></trkpt><trkpt lat="44.80369603519296" lon="9.982648033912055"><ele>175.0</ele><time>2026-04-25T07:17:49.999Z</time></trkpt><trkpt lat="44.80357965668914" lon="9.982610327860854"><ele>175.0</ele><time>2026-04-25T07:17:51.999Z</time></trkpt><trkpt lat="44.80346284369516" lon="9.98256273464095"><ele>175.0</ele><time>2026-04-25T07:17:53.998Z</time></trkpt><trkpt lat="44.803353577194315" lon="9.982502882224955"><ele>176.25</ele><time>2026-04-25T07:17:55.998Z</time></trkpt><trkpt lat="44.80324349797584" lon="9.982438056858129"><ele>177.5</ele><time>2026-04-25T07:17:57.998Z</time></trkpt><trkpt lat="44.80313711879141" lon="9.982361612651847"><ele>178.75</ele><time>2026-04-25T07:17:59.998Z</time></trkpt><trkpt lat="44.80303213006385" lon="9.982290282950867"><ele>180.0</ele><time>2026-04-25T07:18:01.998Z</time></trkpt><trkpt lat="44.802924495605424" lon="9.982228061808584"><ele>180.0</ele><time>2026-04-25T07:18:03.998Z</time></trkpt><trkpt lat="44.802814040766584" lon="9.982171180853163"><ele>180.0</ele><time>2026-04-25T07:18:05.998Z</time></trkpt><trkpt lat="44.80271348143484" lon="9.982095686758507"><ele>180.0</ele><time>2026-04-25T07:18:07.998Z</time></trkpt><trkpt lat="44.802608169343415" lon="9.982029804144894"><ele>180.0</ele><time>2026-04-25T07:18:09.998Z</time></trkpt><trkpt lat="44.802498546486" lon="9.981967173880632"><ele>178.75</ele><time>2026-04-25T07:18:11.998Z</time></trkpt><trkpt lat="44.802390282396246" lon="9.981900514589144"><ele>177.5</ele><time>2026-04-25T07:18:13.998Z</time></trkpt><trkpt lat="44.802283370688315" lon="9.981837214300706"><ele>176.25</ele><time>2026-04-25T07:18:15.998Z</time></trkpt><trkpt lat="44.802177863715" lon="9.981782953815253"><ele>175.0</ele><time>2026-04-25T07:18:17.998Z</time></trkpt><trkpt lat="44.80207075564196" lon="9.981732065205012"><ele>175.0</ele><time>2026-04-25T07:18:19.998Z</time></trkpt><trkpt lat="44.80195927987496" lon="9.981692229664896"><ele>175.0</ele><time>2026-04-25T07:18:21.998Z</time></trkpt><trkpt lat="44.80184535912061" lon="9.981659045778947"><ele>175.0</ele><time>2026-04-25T07:18:23.998Z</time></trkpt><trkpt lat="44.80172667417171" lon="9.981630377295456"><ele>175.0</ele><time>2026-04-25T07:18:25.998Z</time></trkpt><trkpt lat="44.801607763693426" lon="9.981594454346347"><ele>177.5</ele><time>2026-04-25T07:18:27.998Z</time></trkpt><trkpt lat="44.801487948153785" lon="9.981564297991092"><ele>180.0</ele><time>2026-04-25T07:18:29.998Z</time></trkpt><trkpt lat="44.80137205601644" lon="9.981530405354247"><ele>182.5</ele><time>2026-04-25T07:18:31.998Z</time></trkpt><trkpt lat="44.801259123020095" lon="9.981480828751259"><ele>185.0</ele><time>2026-04-25T07:18:33.998Z</time></trkpt><trkpt lat="44.801145464883625" lon="9.98143250712612"><ele>185.0</ele><time>2026-04-25T07:18:35.998Z</time></trkpt><trkpt lat="44.801036048152824" lon="9.98138315834727"><ele>185.0</ele><time>2026-04-25T07:18:37.998Z</time></trkpt><trkpt lat="44.80092597834172" lon="9.98132420111739"><ele>185.0</ele><time>2026-04-25T07:18:39.998Z</time></trkpt><trkpt lat="44.80081964374419" lon="9.981262970839046"><ele>185.0</ele><time>2026-04-25T07:18:41.998Z</time></trkpt><trkpt lat="44.80072080872964" lon="9.981178226138923"><ele>184.25</ele><time>2026-04-25T07:18:43.998Z</time></trkpt><trkpt lat="44.80062686964688" lon="9.981082620256368"><ele>183.5</ele><time>2026-04-25T07:18:46Z</time></trkpt><trkpt lat="44.80053447045536" lon="9.980987728614414"><ele>182.75</ele><time>2026-04-25T07:18:48Z</time></trkpt><trkpt lat="44.80044290852778" lon="9.980900587041583"><ele>182.0</ele><time>2026-04-25T07:18:50Z</time></trkpt><trkpt lat="44.800352910462664" lon="9.980814172458953"><ele>182.0</ele><time>2026-04-25T07:18:52Z</time></trkpt><trkpt lat="44.80026349060552" lon="9.98072700834386"><ele>182.0</ele><time>2026-04-25T07:18:54Z</time></trkpt><trkpt lat="44.80017568139442" lon="9.980642232211487"><ele>182.0</ele><time>2026-04-25T07:18:56Z</time></trkpt><trkpt lat="44.80008534137891" lon="9.980565556612655"><ele>182.0</ele><time>2026-04-25T07:18:58Z</time></trkpt><trkpt lat="44.79999349254238" lon="9.980488574341837"><ele>182.0</ele><time>2026-04-25T07:19:00Z</time></trkpt><trkpt lat="44.79989858680473" lon="9.980426590054563"><ele>182.0</ele><time>2026-04-25T07:19:01.999Z</time></trkpt><trkpt lat="44.799747334934416" lon="9.980327287854333"><ele>182.0</ele><time>2026-04-25T07:19:04.999Z</time></trkpt><trkpt lat="44.79965111874196" lon="9.980268536849124"><ele>182.0</ele><time>2026-04-25T07:19:06.999Z</time></trkpt><trkpt lat="44.799556889470054" lon="9.980210675395584"><ele>182.0</ele><time>2026-04-25T07:19:08.999Z</time></trkpt><trkpt lat="44.79946867870939" lon="9.980156877391211"><ele>182.0</ele><time>2026-04-25T07:19:10.999Z</time></trkpt><trkpt lat="44.799376465777804" lon="9.980093516773698"><ele>182.0</ele><time>2026-04-25T07:19:12.999Z</time></trkpt><trkpt lat="44.79928434145885" lon="9.980030173648553"><ele>182.0</ele><time>2026-04-25T07:19:14.999Z</time></trkpt><trkpt lat="44.799191984815444" lon="9.979958601602847"><ele>182.0</ele><time>2026-04-25T07:19:16.999Z</time></trkpt><trkpt lat="44.799100422899016" lon="9.979900634979229"><ele>182.0</ele><time>2026-04-25T07:19:18.999Z</time></trkpt><trkpt lat="44.7990127213999" lon="9.979831784642517"><ele>184.0</ele><time>2026-04-25T07:19:20.999Z</time></trkpt><trkpt lat="44.79892557577916" lon="9.979739690054942"><ele>186.0</ele><time>2026-04-25T07:19:22.999Z</time></trkpt><trkpt lat="44.79885420497265" lon="9.979645838560202"><ele>188.0</ele><time>2026-04-25T07:19:24.999Z</time></trkpt><trkpt lat="44.798780036561105" lon="9.979521156901423"><ele>190.0</ele><time>2026-04-25T07:19:26.999Z</time></trkpt><trkpt lat="44.79870312477035" lon="9.979410255058587"><ele>192.0</ele><time>2026-04-25T07:19:28.999Z</time></trkpt><trkpt lat="44.79862626276979" lon="9.979297241098697"><ele>192.2</ele><time>2026-04-25T07:19:30.999Z</time></trkpt><trkpt lat="44.798553621314795" lon="9.979181734040171"><ele>192.39999999999998</ele><time>2026-04-25T07:19:32.999Z</time></trkpt><trkpt lat="44.79847682264141" lon="9.979075304464237"><ele>192.60000000000002</ele><time>2026-04-25T07:19:34.999Z</time></trkpt><trkpt lat="44.798405922772" lon="9.97896960596348"><ele>192.8</ele><time>2026-04-25T07:19:36.999Z</time></trkpt><trkpt lat="44.79832964126597" lon="9.978862977917965"><ele>193.0</ele><time>2026-04-25T07:19:38.999Z</time></trkpt><trkpt lat="44.798267324754846" lon="9.978774863991285"><ele>193.0</ele><time>2026-04-25T07:19:40.999Z</time></trkpt><trkpt lat="44.798206900806356" lon="9.978673879374817"><ele>193.0</ele><time>2026-04-25T07:19:42.999Z</time></trkpt><trkpt lat="44.798147668854064" lon="9.97855798132796"><ele>193.0</ele><time>2026-04-25T07:19:44.999Z</time></trkpt><trkpt lat="44.79808409105755" lon="9.978439617802554"><ele>193.0</ele><time>2026-04-25T07:19:46.999Z</time></trkpt><trkpt lat="44.79802794207143" lon="9.978321544560718"><ele>193.0</ele><time>2026-04-25T07:19:48.999Z</time></trkpt><trkpt lat="44.7979574836355" lon="9.978211291991625"><ele>194.0</ele><time>2026-04-25T07:19:50.999Z</time></trkpt><trkpt lat="44.79787654903582" lon="9.978110488499343"><ele>195.0</ele><time>2026-04-25T07:19:52.999Z</time></trkpt><trkpt lat="44.79779518507856" lon="9.978010646900334"><ele>196.0</ele><time>2026-04-25T07:19:54.999Z</time></trkpt><trkpt lat="44.797681259739775" lon="9.977896541004077"><ele>197.0</ele><time>2026-04-25T07:19:56.999Z</time></trkpt><trkpt lat="44.79759250391072" lon="9.977808884179245"><ele>197.0</ele><time>2026-04-25T07:19:58.998Z</time></trkpt><trkpt lat="44.79750166083793" lon="9.977731489285043"><ele>197.0</ele><time>2026-04-25T07:20:00.998Z</time></trkpt><trkpt lat="44.79741414225302" lon="9.977637481508241"><ele>197.0</ele><time>2026-04-25T07:20:02.998Z</time></trkpt><trkpt lat="44.79732359530701" lon="9.977542342172592"><ele>197.0</ele><time>2026-04-25T07:20:04.998Z</time></trkpt><trkpt lat="44.79724257969427" lon="9.977439917963656"><ele>197.0</ele><time>2026-04-25T07:20:06.998Z</time></trkpt><trkpt lat="44.79718404147229" lon="9.97735264383359"><ele>199.0</ele><time>2026-04-25T07:20:08.998Z</time></trkpt><trkpt lat="44.79713911739699" lon="9.97727144139413"><ele>201.0</ele><time>2026-04-25T07:20:09.998Z</time></trkpt><trkpt lat="44.797076964547166" lon="9.977146739249825"><ele>203.0</ele><time>2026-04-25T07:20:11.998Z</time></trkpt><trkpt lat="44.79702256580486" lon="9.97704822252906"><ele>205.0</ele><time>2026-04-25T07:20:13.998Z</time></trkpt><trkpt lat="44.79696057309467" lon="9.976943025740864"><ele>207.0</ele><time>2026-04-25T07:20:15.998Z</time></trkpt><trkpt lat="44.79688576391911" lon="9.976830853409682"><ele>207.0</ele><time>2026-04-25T07:20:17.998Z</time></trkpt><trkpt lat="44.79680067319924" lon="9.9767371796496"><ele>207.0</ele><time>2026-04-25T07:20:19.998Z</time></trkpt><trkpt lat="44.79670738082914" lon="9.976648092030835"><ele>207.0</ele><time>2026-04-25T07:20:21.998Z</time></trkpt><trkpt lat="44.79660511174866" lon="9.976568073401097"><ele>207.0</ele><time>2026-04-25T07:20:23.998Z</time></trkpt><trkpt lat="44.79650420910409" lon="9.976490418190668"><ele>207.0</ele><time>2026-04-25T07:20:25.998Z</time></trkpt><trkpt lat="44.796401961192224" lon="9.976419500636325"><ele>207.0</ele><time>2026-04-25T07:20:27.998Z</time></trkpt><trkpt lat="44.796278079295945" lon="9.976334135847377"><ele>207.0</ele><time>2026-04-25T07:20:29.998Z</time></trkpt><trkpt lat="44.796223010491325" lon="9.976284663753274"><ele>207.0</ele><time>2026-04-25T07:20:30.998Z</time></trkpt><trkpt lat="44.796113603632335" lon="9.976209674459682"><ele>207.0</ele><time>2026-04-25T07:20:32.998Z</time></trkpt><trkpt lat="44.79601134816972" lon="9.97612881661315"><ele>208.0</ele><time>2026-04-25T07:20:34.998Z</time></trkpt><trkpt lat="44.795898725476526" lon="9.976052088868164"><ele>209.0</ele><time>2026-04-25T07:20:36.998Z</time></trkpt><trkpt lat="44.79584197017004" lon="9.976012962080093"><ele>210.0</ele><time>2026-04-25T07:20:37.998Z</time></trkpt><trkpt lat="44.7957835576684" lon="9.975967756921097"><ele>211.0</ele><time>2026-04-25T07:20:38.998Z</time></trkpt><trkpt lat="44.795669450971296" lon="9.975883872635071"><ele>212.0</ele><time>2026-04-25T07:20:40.998Z</time></trkpt><trkpt lat="44.79561404395507" lon="9.97583776500136"><ele>213.0</ele><time>2026-04-25T07:20:41.998Z</time></trkpt><trkpt lat="44.79554675403796" lon="9.975789325365877"><ele>212.99999999999997</ele><time>2026-04-25T07:20:42.998Z</time></trkpt><trkpt lat="44.79548574153141" lon="9.975738893272469"><ele>213.0</ele><time>2026-04-25T07:20:43.998Z</time></trkpt><trkpt lat="44.79541929783307" lon="9.975693040759024"><ele>213.0</ele><time>2026-04-25T07:20:44.998Z</time></trkpt><trkpt lat="44.795354955618286" lon="9.975651019628657"><ele>213.0</ele><time>2026-04-25T07:20:45.998Z</time></trkpt><trkpt lat="44.7952891642285" lon="9.975603113494047"><ele>213.0</ele><time>2026-04-25T07:20:46.998Z</time></trkpt><trkpt lat="44.79522261746394" lon="9.975558019952805"><ele>212.99999999999997</ele><time>2026-04-25T07:20:47.998Z</time></trkpt><trkpt lat="44.79515770829805" lon="9.975505552530027"><ele>213.0</ele><time>2026-04-25T07:20:48.998Z</time></trkpt><trkpt lat="44.79509000851625" lon="9.975452949612885"><ele>211.16666666666666</ele><time>2026-04-25T07:20:49.998Z</time></trkpt><trkpt lat="44.79502156186619" lon="9.975402821595926"><ele>209.33333333333331</ele><time>2026-04-25T07:20:51Z</time></trkpt><trkpt lat="44.7949505750041" lon="9.975353490399444"><ele>207.5</ele><time>2026-04-25T07:20:52Z</time></trkpt><trkpt lat="44.79487761127468" lon="9.975309297709769"><ele>205.66666666666666</ele><time>2026-04-25T07:20:53Z</time></trkpt><trkpt lat="44.79481716258173" lon="9.975243938333959"><ele>203.83333333333331</ele><time>2026-04-25T07:20:54Z</time></trkpt><trkpt lat="44.79475596165662" lon="9.97517676618385"><ele>202.0</ele><time>2026-04-25T07:20:55Z</time></trkpt><trkpt lat="44.7946987749976" lon="9.975110917335128"><ele>202.0</ele><time>2026-04-25T07:20:56Z</time></trkpt><trkpt lat="44.79464490019272" lon="9.975040066005562"><ele>202.0</ele><time>2026-04-25T07:20:57Z</time></trkpt><trkpt lat="44.79459568578325" lon="9.974964509045156"><ele>202.0</ele><time>2026-04-25T07:20:58Z</time></trkpt><trkpt lat="44.794541200006684" lon="9.974897054836662"><ele>202.0</ele><time>2026-04-25T07:20:59Z</time></trkpt><trkpt lat="44.79448666762934" lon="9.97483637669777"><ele>202.0</ele><time>2026-04-25T07:21:00Z</time></trkpt><trkpt lat="44.7944339146804" lon="9.974768619891915"><ele>202.0</ele><time>2026-04-25T07:21:01Z</time></trkpt><trkpt lat="44.794379401515314" lon="9.974702035637707"><ele>202.0</ele><time>2026-04-25T07:21:02Z</time></trkpt><trkpt lat="44.794327449261296" lon="9.974637647997977"><ele>201.42857142857142</ele><time>2026-04-25T07:21:03Z</time></trkpt><trkpt lat="44.794273226309855" lon="9.974577640151647"><ele>200.85714285714283</ele><time>2026-04-25T07:21:04Z</time></trkpt><trkpt lat="44.79421494855306" lon="9.974526180094573"><ele>200.28571428571428</ele><time>2026-04-25T07:21:05Z</time></trkpt><trkpt lat="44.794151739532786" lon="9.974485737444935"><ele>199.71428571428572</ele><time>2026-04-25T07:21:06Z</time></trkpt><trkpt lat="44.79408661020532" lon="9.974457272767296"><ele>199.14285714285714</ele><time>2026-04-25T07:21:06.999Z</time></trkpt><trkpt lat="44.7940214987853" lon="9.974433230080024"><ele>198.57142857142858</ele><time>2026-04-25T07:21:07.999Z</time></trkpt><trkpt lat="44.793958820695366" lon="9.974411738961619"><ele>198.0</ele><time>2026-04-25T07:21:08.999Z</time></trkpt><trkpt lat="44.79389720383691" lon="9.974391901730508"><ele>198.0</ele><time>2026-04-25T07:21:09.999Z</time></trkpt><trkpt lat="44.793780315384126" lon="9.974358573362938"><ele>198.0</ele><time>2026-04-25T07:21:11.999Z</time></trkpt><trkpt lat="44.79366922474429" lon="9.974321876542511"><ele>198.0</ele><time>2026-04-25T07:21:13.999Z</time></trkpt><trkpt lat="44.79355902914686" lon="9.97427766947069"><ele>198.0</ele><time>2026-04-25T07:21:15.999Z</time></trkpt><trkpt lat="44.79345259697705" lon="9.974241685883168"><ele>198.2</ele><time>2026-04-25T07:21:17.999Z</time></trkpt><trkpt lat="44.79334808304959" lon="9.974193393935943"><ele>198.4</ele><time>2026-04-25T07:21:19.999Z</time></trkpt><trkpt lat="44.79324008744157" lon="9.974154563441914"><ele>198.6</ele><time>2026-04-25T07:21:21.999Z</time></trkpt><trkpt lat="44.79313758786147" lon="9.974106175245419"><ele>198.79999999999998</ele><time>2026-04-25T07:21:23.999Z</time></trkpt><trkpt lat="44.79303580915816" lon="9.974057305713504"><ele>199.0</ele><time>2026-04-25T07:21:25.999Z</time></trkpt><trkpt lat="44.79293382648323" lon="9.973997100832474"><ele>200.79999999999998</ele><time>2026-04-25T07:21:27.999Z</time></trkpt><trkpt lat="44.79283453987458" lon="9.97394565059823"><ele>202.6</ele><time>2026-04-25T07:21:29.999Z</time></trkpt><trkpt lat="44.792734994609745" lon="9.973886784429356"><ele>204.4</ele><time>2026-04-25T07:21:31.999Z</time></trkpt><trkpt lat="44.792641681297056" lon="9.973834807719879"><ele>206.2</ele><time>2026-04-25T07:21:33.999Z</time></trkpt><trkpt lat="44.792561875472565" lon="9.973790360064415"><ele>208.0</ele><time>2026-04-25T07:21:35.999Z</time></trkpt><trkpt lat="44.79246772228733" lon="9.97373621852931"><ele>208.0</ele><time>2026-04-25T07:21:37.999Z</time></trkpt><trkpt lat="44.79237217857728" lon="9.973679421377698"><ele>208.0</ele><time>2026-04-25T07:21:39.999Z</time></trkpt><trkpt lat="44.79230742420213" lon="9.973641209722961"><ele>208.0</ele><time>2026-04-25T07:21:40.999Z</time></trkpt><trkpt lat="44.79220205354747" lon="9.973579624703772"><ele>208.0</ele><time>2026-04-25T07:21:42.999Z</time></trkpt><trkpt lat="44.79210371788959" lon="9.973511715039718"><ele>208.0</ele><time>2026-04-25T07:21:44.999Z</time></trkpt><trkpt lat="44.792002338321964" lon="9.973446336086115"><ele>208.0</ele><time>2026-04-25T07:21:46.999Z</time></trkpt><trkpt lat="44.791901940769336" lon="9.97336339212857"><ele>208.0</ele><time>2026-04-25T07:21:48.999Z</time></trkpt><trkpt lat="44.79180334298815" lon="9.973275084364822"><ele>208.0</ele><time>2026-04-25T07:21:50.999Z</time></trkpt><trkpt lat="44.7917050275813" lon="9.973178985070097"><ele>208.0</ele><time>2026-04-25T07:21:52.999Z</time></trkpt><trkpt lat="44.79164645661153" lon="9.973139602022107"><ele>208.0</ele><time>2026-04-25T07:21:53.999Z</time></trkpt><trkpt lat="44.79154489824345" lon="9.973045106379665"><ele>208.0</ele><time>2026-04-25T07:21:55.999Z</time></trkpt><trkpt lat="44.79148951223836" lon="9.972997016933453"><ele>208.0</ele><time>2026-04-25T07:21:56.999Z</time></trkpt><trkpt lat="44.791431619220766" lon="9.972960026869895"><ele>208.0</ele><time>2026-04-25T07:21:57.999Z</time></trkpt><trkpt lat="44.79137390212622" lon="9.972921018011114"><ele>208.0</ele><time>2026-04-25T07:21:58.999Z</time></trkpt><trkpt lat="44.79130817440145" lon="9.972887451821874"><ele>208.0</ele><time>2026-04-25T07:21:59.999Z</time></trkpt><trkpt lat="44.79124687868962" lon="9.97286388791189"><ele>208.0</ele><time>2026-04-25T07:22:00.999Z</time></trkpt><trkpt lat="44.791177447848874" lon="9.97283933923757"><ele>208.0</ele><time>2026-04-25T07:22:01.998Z</time></trkpt><trkpt lat="44.79111103135546" lon="9.972817022657438"><ele>208.0</ele><time>2026-04-25T07:22:02.998Z</time></trkpt><trkpt lat="44.791043323672085" lon="9.972787237632895"><ele>208.0</ele><time>2026-04-25T07:22:03.998Z</time></trkpt><trkpt lat="44.790977710868944" lon="9.972757243179696"><ele>208.0</ele><time>2026-04-25T07:22:04.998Z</time></trkpt><trkpt lat="44.79091167263009" lon="9.972729549214648"><ele>208.0</ele><time>2026-04-25T07:22:05.998Z</time></trkpt><trkpt lat="44.79084414207551" lon="9.97270382513079"><ele>208.0</ele><time>2026-04-25T07:22:06.998Z</time></trkpt><trkpt lat="44.79077475818927" lon="9.972682558537219"><ele>208.0</ele><time>2026-04-25T07:22:07.998Z</time></trkpt><trkpt lat="44.790705396172456" lon="9.972659044067345"><ele>208.0</ele><time>2026-04-25T07:22:08.998Z</time></trkpt><trkpt lat="44.79063432402797" lon="9.972636357756953"><ele>208.0</ele><time>2026-04-25T07:22:09.998Z</time></trkpt><trkpt lat="44.790568604266326" lon="9.972610929079918"><ele>208.0</ele><time>2026-04-25T07:22:10.998Z</time></trkpt><trkpt lat="44.79049928311205" lon="9.972584078473297"><ele>208.0</ele><time>2026-04-25T07:22:11.998Z</time></trkpt><trkpt lat="44.79042954866367" lon="9.97256015799244"><ele>208.0</ele><time>2026-04-25T07:22:12.998Z</time></trkpt><trkpt lat="44.790361900804655" lon="9.972538065724533"><ele>208.0</ele><time>2026-04-25T07:22:13.998Z</time></trkpt><trkpt lat="44.7902917950623" lon="9.972511457081541"><ele>208.0</ele><time>2026-04-25T07:22:14.998Z</time></trkpt><trkpt lat="44.79022577045452" lon="9.972485326485454"><ele>208.0</ele><time>2026-04-25T07:22:15.998Z</time></trkpt><trkpt lat="44.79015782158636" lon="9.972461660520404"><ele>207.66666666666666</ele><time>2026-04-25T07:22:16.998Z</time></trkpt><trkpt lat="44.79009568132189" lon="9.972434889545697"><ele>207.33333333333331</ele><time>2026-04-25T07:22:17.998Z</time></trkpt><trkpt lat="44.790029006615335" lon="9.97241265952115"><ele>207.0</ele><time>2026-04-25T07:22:18.998Z</time></trkpt><trkpt lat="44.78996629714346" lon="9.972391596697204"><ele>206.66666666666669</ele><time>2026-04-25T07:22:19.998Z</time></trkpt><trkpt lat="44.78990414071962" lon="9.972369212057801"><ele>206.33333333333334</ele><time>2026-04-25T07:22:20.998Z</time></trkpt><trkpt lat="44.789785778006944" lon="9.972327732901093"><ele>206.0</ele><time>2026-04-25T07:22:22.998Z</time></trkpt><trkpt lat="44.78966971184909" lon="9.97228091053077"><ele>206.0</ele><time>2026-04-25T07:22:24.998Z</time></trkpt><trkpt lat="44.78955456696199" lon="9.972242021367133"><ele>206.0</ele><time>2026-04-25T07:22:26.998Z</time></trkpt><trkpt lat="44.78944322623147" lon="9.972195663523502"><ele>206.0</ele><time>2026-04-25T07:22:28.998Z</time></trkpt><trkpt lat="44.789328121181214" lon="9.972144692867204"><ele>206.0</ele><time>2026-04-25T07:22:30.998Z</time></trkpt><trkpt lat="44.789222653547164" lon="9.972092632266122"><ele>205.75</ele><time>2026-04-25T07:22:32.998Z</time></trkpt><trkpt lat="44.789113007237106" lon="9.972033890164095"><ele>205.5</ele><time>2026-04-25T07:22:34.998Z</time></trkpt><trkpt lat="44.789007027973405" lon="9.971976101157743"><ele>205.25</ele><time>2026-04-25T07:22:36.998Z</time></trkpt><trkpt lat="44.78889827960549" lon="9.97191674718065"><ele>205.0</ele><time>2026-04-25T07:22:38.998Z</time></trkpt><trkpt lat="44.78879271012045" lon="9.97185631938891"><ele>205.0</ele><time>2026-04-25T07:22:40.998Z</time></trkpt><trkpt lat="44.78868253486822" lon="9.971800934005456"><ele>205.0</ele><time>2026-04-25T07:22:42.998Z</time></trkpt><trkpt lat="44.78857394405016" lon="9.971748028906458"><ele>205.0</ele><time>2026-04-25T07:22:44.998Z</time></trkpt><trkpt lat="44.78847202038278" lon="9.971685568120318"><ele>205.0</ele><time>2026-04-25T07:22:46.998Z</time></trkpt><trkpt lat="44.78836737419632" lon="9.971629847319607"><ele>207.0</ele><time>2026-04-25T07:22:48.998Z</time></trkpt><trkpt lat="44.78826372027042" lon="9.971575542578767"><ele>209.0</ele><time>2026-04-25T07:22:50.998Z</time></trkpt><trkpt lat="44.7881574053343" lon="9.971515331963108"><ele>211.0</ele><time>2026-04-25T07:22:52.998Z</time></trkpt><trkpt lat="44.78806001189624" lon="9.97144311787692"><ele>213.0</ele><time>2026-04-25T07:22:54.998Z</time></trkpt><trkpt lat="44.787961082200496" lon="9.9713669606034"><ele>215.0</ele><time>2026-04-25T07:22:57Z</time></trkpt><trkpt lat="44.78786679793561" lon="9.971282990555926"><ele>215.0</ele><time>2026-04-25T07:22:59Z</time></trkpt><trkpt lat="44.78776839024267" lon="9.97120455781998"><ele>215.0</ele><time>2026-04-25T07:23:01Z</time></trkpt><trkpt lat="44.787673701592205" lon="9.97111844496105"><ele>215.0</ele><time>2026-04-25T07:23:03Z</time></trkpt><trkpt lat="44.78757911021367" lon="9.971036297617806"><ele>215.0</ele><time>2026-04-25T07:23:05Z</time></trkpt><trkpt lat="44.78748197166351" lon="9.970956611928932"><ele>215.0</ele><time>2026-04-25T07:23:07Z</time></trkpt><trkpt lat="44.787388245187095" lon="9.970869013103792"><ele>216.75</ele><time>2026-04-25T07:23:09Z</time></trkpt><trkpt lat="44.787293872198624" lon="9.970782513165805"><ele>218.5</ele><time>2026-04-25T07:23:10.999Z</time></trkpt><trkpt lat="44.78719533845296" lon="9.970696455649588"><ele>220.25</ele><time>2026-04-25T07:23:12.999Z</time></trkpt><trkpt lat="44.78709838194729" lon="9.970611173322817"><ele>222.0</ele><time>2026-04-25T07:23:14.999Z</time></trkpt><trkpt lat="44.78700552159459" lon="9.970517231831181"><ele>222.0</ele><time>2026-04-25T07:23:16.999Z</time></trkpt><trkpt lat="44.78691603846847" lon="9.970424760121137"><ele>222.0</ele><time>2026-04-25T07:23:18.999Z</time></trkpt><trkpt lat="44.786825821719724" lon="9.970328073207737"><ele>222.0</ele><time>2026-04-25T07:23:20.999Z</time></trkpt><trkpt lat="44.78673582061043" lon="9.970228079323604"><ele>222.0</ele><time>2026-04-25T07:23:22.999Z</time></trkpt><trkpt lat="44.78664843600191" lon="9.970134870502523"><ele>222.0</ele><time>2026-04-25T07:23:24.999Z</time></trkpt><trkpt lat="44.78655403091892" lon="9.970047221501039"><ele>222.5</ele><time>2026-04-25T07:23:26.999Z</time></trkpt><trkpt lat="44.78645628246393" lon="9.96996406097965"><ele>223.0</ele><time>2026-04-25T07:23:28.999Z</time></trkpt><trkpt lat="44.786354666605746" lon="9.969889519337254"><ele>223.5</ele><time>2026-04-25T07:23:30.999Z</time></trkpt><trkpt lat="44.786248380985526" lon="9.969828924651544"><ele>224.0</ele><time>2026-04-25T07:23:32.999Z</time></trkpt><trkpt lat="44.7861425056015" lon="9.969759920870317"><ele>224.0</ele><time>2026-04-25T07:23:34.999Z</time></trkpt><trkpt lat="44.786032831881805" lon="9.969695483502202"><ele>224.0</ele><time>2026-04-25T07:23:36.999Z</time></trkpt><trkpt lat="44.78592723110131" lon="9.969634949876601"><ele>224.0</ele><time>2026-04-25T07:23:38.999Z</time></trkpt><trkpt lat="44.78581965227253" lon="9.969571945420958"><ele>224.0</ele><time>2026-04-25T07:23:40.999Z</time></trkpt><trkpt lat="44.78571156913613" lon="9.969505729000343"><ele>222.25</ele><time>2026-04-25T07:23:42.999Z</time></trkpt><trkpt lat="44.78560356197026" lon="9.969438273803535"><ele>220.5</ele><time>2026-04-25T07:23:44.999Z</time></trkpt><trkpt lat="44.78549862102657" lon="9.969377136840746"><ele>218.75</ele><time>2026-04-25T07:23:46.999Z</time></trkpt><trkpt lat="44.78539078011587" lon="9.969306602533445"><ele>217.0</ele><time>2026-04-25T07:23:48.999Z</time></trkpt><trkpt lat="44.78529538124968" lon="9.969222452871175"><ele>218.25</ele><time>2026-04-25T07:23:50.999Z</time></trkpt><trkpt lat="44.785196613312365" lon="9.969138441626603"><ele>219.5</ele><time>2026-04-25T07:23:52.999Z</time></trkpt><trkpt lat="44.78509975289138" lon="9.969044369424418"><ele>220.75</ele><time>2026-04-25T07:23:54.999Z</time></trkpt><trkpt lat="44.78500206864709" lon="9.96895744669526"><ele>222.0</ele><time>2026-04-25T07:23:56.999Z</time></trkpt><trkpt lat="44.784901082346245" lon="9.968863587709636"><ele>222.0</ele><time>2026-04-25T07:23:58.999Z</time></trkpt><trkpt lat="44.784798897028" lon="9.96876402270026"><ele>222.0</ele><time>2026-04-25T07:24:00.999Z</time></trkpt><trkpt lat="44.7846993560822" lon="9.968664472667376"><ele>222.0</ele><time>2026-04-25T07:24:02.999Z</time></trkpt><trkpt lat="44.78459604003705" lon="9.968570193136486"><ele>222.0</ele><time>2026-04-25T07:24:04.999Z</time></trkpt><trkpt lat="44.78454593103646" lon="9.968515051125202"><ele>222.0</ele><time>2026-04-25T07:24:05.998Z</time></trkpt><trkpt lat="44.78444270501294" lon="9.968417571520423"><ele>222.39999999999998</ele><time>2026-04-25T07:24:07.998Z</time></trkpt><trkpt lat="44.78433846333709" lon="9.968327497363594"><ele>222.79999999999998</ele><time>2026-04-25T07:24:09.998Z</time></trkpt><trkpt lat="44.78423676062202" lon="9.968225747623945"><ele>223.2</ele><time>2026-04-25T07:24:11.998Z</time></trkpt><trkpt lat="44.7841381421551" lon="9.968121368186962"><ele>223.6</ele><time>2026-04-25T07:24:13.998Z</time></trkpt><trkpt lat="44.784089397462715" lon="9.968064055714699"><ele>224.0</ele><time>2026-04-25T07:24:14.998Z</time></trkpt><trkpt lat="44.78400191199418" lon="9.96793551501794"><ele>224.00000000000003</ele><time>2026-04-25T07:24:16.998Z</time></trkpt><trkpt lat="44.78395951328842" lon="9.96786971490418"><ele>224.0</ele><time>2026-04-25T07:24:17.998Z</time></trkpt><trkpt lat="44.783873974091875" lon="9.96773648909871"><ele>224.0</ele><time>2026-04-25T07:24:19.998Z</time></trkpt><trkpt lat="44.78383115387444" lon="9.967670073890242"><ele>224.0</ele><time>2026-04-25T07:24:20.998Z</time></trkpt><trkpt lat="44.78378457573449" lon="9.96760581861051"><ele>224.00000000000003</ele><time>2026-04-25T07:24:21.998Z</time></trkpt><trkpt lat="44.78369902749152" lon="9.967478434132584"><ele>224.0</ele><time>2026-04-25T07:24:23.998Z</time></trkpt><trkpt lat="44.783653875569755" lon="9.967415838934642"><ele>224.5</ele><time>2026-04-25T07:24:24.998Z</time></trkpt><trkpt lat="44.78356882331439" lon="9.967288579065034"><ele>225.0</ele><time>2026-04-25T07:24:26.998Z</time></trkpt><trkpt lat="44.78348225071548" lon="9.967167092223583"><ele>225.5</ele><time>2026-04-25T07:24:28.998Z</time></trkpt><trkpt lat="44.78339560967967" lon="9.967044210275878"><ele>226.0</ele><time>2026-04-25T07:24:30.999Z</time></trkpt><trkpt lat="44.78331234982334" lon="9.966917930609394"><ele>226.0</ele><time>2026-04-25T07:24:32.999Z</time></trkpt><trkpt lat="44.78324000292143" lon="9.966788177689004"><ele>226.0</ele><time>2026-04-25T07:24:34.999Z</time></trkpt><trkpt lat="44.78321784198288" lon="9.966616589721902"><ele>226.0</ele><time>2026-04-25T07:24:36.999Z</time></trkpt><trkpt lat="44.78323911346396" lon="9.966447748203288"><ele>226.0</ele><time>2026-04-25T07:24:38.999Z</time></trkpt><trkpt lat="44.78325709867982" lon="9.966287783939482"><ele>226.4</ele><time>2026-04-25T07:24:40.999Z</time></trkpt><trkpt lat="44.78327493898298" lon="9.966128559623767"><ele>226.8</ele><time>2026-04-25T07:24:42.999Z</time></trkpt><trkpt lat="44.78329359343127" lon="9.965970938393935"><ele>227.20000000000002</ele><time>2026-04-25T07:24:44.999Z</time></trkpt><trkpt lat="44.78329933822485" lon="9.965824931119295"><ele>227.60000000000002</ele><time>2026-04-25T07:24:46.999Z</time></trkpt><trkpt lat="44.78330208162145" lon="9.965665181110637"><ele>228.0</ele><time>2026-04-25T07:24:48.999Z</time></trkpt><trkpt lat="44.783288162024746" lon="9.965512904274581"><ele>229.25</ele><time>2026-04-25T07:24:50.999Z</time></trkpt><trkpt lat="44.78326387883656" lon="9.96537392039314"><ele>230.5</ele><time>2026-04-25T07:24:52.999Z</time></trkpt><trkpt lat="44.783243296699126" lon="9.965209673264718"><ele>231.75</ele><time>2026-04-25T07:24:54.999Z</time></trkpt><trkpt lat="44.78321599052538" lon="9.96505099950695"><ele>233.0</ele><time>2026-04-25T07:24:56.999Z</time></trkpt><trkpt lat="44.78317485453912" lon="9.9648884453768"><ele>233.16666666666669</ele><time>2026-04-25T07:24:58.999Z</time></trkpt><trkpt lat="44.783110110969396" lon="9.964740556435556"><ele>233.33333333333334</ele><time>2026-04-25T07:25:00.999Z</time></trkpt><trkpt lat="44.78306560535935" lon="9.96467567748965"><ele>233.5</ele><time>2026-04-25T07:25:02Z</time></trkpt><trkpt lat="44.78301860371153" lon="9.964609641168408"><ele>233.66666666666669</ele><time>2026-04-25T07:25:03.001Z</time></trkpt><trkpt lat="44.7829722944132" lon="9.964542133013245"><ele>233.83333333333334</ele><time>2026-04-25T07:25:04Z</time></trkpt><trkpt lat="44.78292383438813" lon="9.964477150252806"><ele>234.0</ele><time>2026-04-25T07:25:05Z</time></trkpt><trkpt lat="44.78288101897699" lon="9.964407810683683"><ele>234.0</ele><time>2026-04-25T07:25:06.001Z</time></trkpt><trkpt lat="44.78279354494746" lon="9.964279301173294"><ele>234.0</ele><time>2026-04-25T07:25:08Z</time></trkpt><trkpt lat="44.78275026112533" lon="9.964212600268375"><ele>234.0</ele><time>2026-04-25T07:25:09.001Z</time></trkpt><trkpt lat="44.78270505919111" lon="9.9641477552032"><ele>234.0</ele><time>2026-04-25T07:25:10Z</time></trkpt><trkpt lat="44.78265682183515" lon="9.964083003051144"><ele>234.0</ele><time>2026-04-25T07:25:11.001Z</time></trkpt><trkpt lat="44.78261360071209" lon="9.964017732881793"><ele>234.0</ele><time>2026-04-25T07:25:12.001Z</time></trkpt><trkpt lat="44.78256902685132" lon="9.963950900606148"><ele>233.71428571428572</ele><time>2026-04-25T07:25:13Z</time></trkpt><trkpt lat="44.78252513081226" lon="9.963886344776997"><ele>233.42857142857144</ele><time>2026-04-25T07:25:14Z</time></trkpt><trkpt lat="44.782481468145924" lon="9.963817129514872"><ele>233.14285714285717</ele><time>2026-04-25T07:25:15.001Z</time></trkpt><trkpt lat="44.78243382033385" lon="9.96375190429823"><ele>232.8571428571429</ele><time>2026-04-25T07:25:16Z</time></trkpt><trkpt lat="44.78238655831257" lon="9.963682453902972"><ele>232.57142857142858</ele><time>2026-04-25T07:25:17Z</time></trkpt><trkpt lat="44.78233961037192" lon="9.963612122982708"><ele>232.28571428571433</ele><time>2026-04-25T07:25:18Z</time></trkpt><trkpt lat="44.78229341615681" lon="9.963542151130302"><ele>232.00000000000003</ele><time>2026-04-25T07:25:19Z</time></trkpt><trkpt lat="44.7822452446107" lon="9.963474490056232"><ele>232.00000000000003</ele><time>2026-04-25T07:25:20Z</time></trkpt><trkpt lat="44.7822019000805" lon="9.963401628468466"><ele>232.0</ele><time>2026-04-25T07:25:21Z</time></trkpt><trkpt lat="44.7821501435431" lon="9.963330179768532"><ele>232.00000000000003</ele><time>2026-04-25T07:25:22Z</time></trkpt><trkpt lat="44.78210267691804" lon="9.963261002386227"><ele>232.00000000000003</ele><time>2026-04-25T07:25:23Z</time></trkpt><trkpt lat="44.78205391382143" lon="9.963186101238659"><ele>232.0</ele><time>2026-04-25T07:25:24Z</time></trkpt><trkpt lat="44.78200980009599" lon="9.963105037190894"><ele>232.00000000000003</ele><time>2026-04-25T07:25:25Z</time></trkpt><trkpt lat="44.781968734908" lon="9.963030907883184"><ele>232.00000000000003</ele><time>2026-04-25T07:25:26Z</time></trkpt><trkpt lat="44.78193732977613" lon="9.962935344331346"><ele>232.71428571428575</ele><time>2026-04-25T07:25:27Z</time></trkpt><trkpt lat="44.7819133691328" lon="9.96283942213556"><ele>233.42857142857144</ele><time>2026-04-25T07:25:28Z</time></trkpt><trkpt lat="44.781907884824676" lon="9.962736773860296"><ele>234.14285714285714</ele><time>2026-04-25T07:25:29Z</time></trkpt><trkpt lat="44.781927591113075" lon="9.962630390832988"><ele>234.85714285714286</ele><time>2026-04-25T07:25:30Z</time></trkpt><trkpt lat="44.781951977014316" lon="9.962526991125799"><ele>235.57142857142856</ele><time>2026-04-25T07:25:31Z</time></trkpt><trkpt lat="44.78197432488326" lon="9.962431263459214"><ele>236.28571428571425</ele><time>2026-04-25T07:25:32Z</time></trkpt><trkpt lat="44.78198895430454" lon="9.962332879744071"><ele>236.99999999999997</ele><time>2026-04-25T07:25:33Z</time></trkpt><trkpt lat="44.782001550711485" lon="9.962235279619957"><ele>236.57142857142856</ele><time>2026-04-25T07:25:34Z</time></trkpt><trkpt lat="44.78201434185961" lon="9.962141135076514"><ele>236.14285714285714</ele><time>2026-04-25T07:25:35Z</time></trkpt><trkpt lat="44.78201483847663" lon="9.962046373994335"><ele>235.71428571428572</ele><time>2026-04-25T07:25:36Z</time></trkpt><trkpt lat="44.7819941971152" lon="9.961951489384328"><ele>235.28571428571428</ele><time>2026-04-25T07:25:37Z</time></trkpt><trkpt lat="44.78196326273298" lon="9.961856793164413"><ele>234.8571428571429</ele><time>2026-04-25T07:25:38Z</time></trkpt><trkpt lat="44.78191964198631" lon="9.961776195558699"><ele>234.42857142857144</ele><time>2026-04-25T07:25:39Z</time></trkpt><trkpt lat="44.781867865539944" lon="9.961695368646467"><ele>234.0</ele><time>2026-04-25T07:25:40Z</time></trkpt><trkpt lat="44.78181937195447" lon="9.961621590077668"><ele>234.0</ele><time>2026-04-25T07:25:41Z</time></trkpt><trkpt lat="44.78176677943068" lon="9.961546665119263"><ele>234.00000000000003</ele><time>2026-04-25T07:25:42Z</time></trkpt><trkpt lat="44.781715015926956" lon="9.961474722437979"><ele>234.0</ele><time>2026-04-25T07:25:43Z</time></trkpt><trkpt lat="44.78166146652319" lon="9.96140377028284"><ele>234.0</ele><time>2026-04-25T07:25:44Z</time></trkpt><trkpt lat="44.781603440340525" lon="9.961334420808065"><ele>234.00000000000003</ele><time>2026-04-25T07:25:45Z</time></trkpt><trkpt lat="44.78154702075361" lon="9.961271321996117"><ele>234.0</ele><time>2026-04-25T07:25:46Z</time></trkpt><trkpt lat="44.78148019198094" lon="9.96122172145471"><ele>234.0</ele><time>2026-04-25T07:25:47Z</time></trkpt><trkpt lat="44.78141126804583" lon="9.961190401831033"><ele>234.0</ele><time>2026-04-25T07:25:48Z</time></trkpt><trkpt lat="44.78133701757318" lon="9.961171407652666"><ele>234.00000000000003</ele><time>2026-04-25T07:25:49Z</time></trkpt><trkpt lat="44.78126573073103" lon="9.96115478417026"><ele>234.0</ele><time>2026-04-25T07:25:50Z</time></trkpt><trkpt lat="44.78119517608614" lon="9.961141404125122"><ele>234.0</ele><time>2026-04-25T07:25:51Z</time></trkpt><trkpt lat="44.78112564864638" lon="9.961123408855327"><ele>234.00000000000003</ele><time>2026-04-25T07:25:52Z</time></trkpt><trkpt lat="44.78105704723917" lon="9.961097265722882"><ele>234.0</ele><time>2026-04-25T07:25:53Z</time></trkpt><trkpt lat="44.780995365145024" lon="9.961054534317514"><ele>234.0</ele><time>2026-04-25T07:25:54Z</time></trkpt><trkpt lat="44.780941615371084" lon="9.960992917231614"><ele>233.79999999999998</ele><time>2026-04-25T07:25:55Z</time></trkpt><trkpt lat="44.78089371508855" lon="9.960926456438953"><ele>233.59999999999997</ele><time>2026-04-25T07:25:56Z</time></trkpt><trkpt lat="44.78085100710349" lon="9.960860039875865"><ele>233.4</ele><time>2026-04-25T07:25:57Z</time></trkpt><trkpt lat="44.780769862475" lon="9.960730061040737"><ele>233.2</ele><time>2026-04-25T07:25:59Z</time></trkpt><trkpt lat="44.780691915122496" lon="9.960597945101503"><ele>233.0</ele><time>2026-04-25T07:26:01Z</time></trkpt><trkpt lat="44.78061498824046" lon="9.960467188528284"><ele>234.0</ele><time>2026-04-25T07:26:03Z</time></trkpt><trkpt lat="44.78057360331172" lon="9.960309184924215"><ele>235.0</ele><time>2026-04-25T07:26:05Z</time></trkpt><trkpt lat="44.78058584442185" lon="9.960141073999509"><ele>236.0</ele><time>2026-04-25T07:26:07Z</time></trkpt><trkpt lat="44.7806117883664" lon="9.959991139228636"><ele>237.0</ele><time>2026-04-25T07:26:09Z</time></trkpt><trkpt lat="44.78062537204708" lon="9.959837533293346"><ele>238.0</ele><time>2026-04-25T07:26:10.999Z</time></trkpt><trkpt lat="44.78062918042422" lon="9.959684064719328"><ele>239.0</ele><time>2026-04-25T07:26:12.999Z</time></trkpt><trkpt lat="44.78060737580002" lon="9.959533816621109"><ele>240.0</ele><time>2026-04-25T07:26:14.999Z</time></trkpt><trkpt lat="44.78056506555345" lon="9.95938544044016"><ele>241.0</ele><time>2026-04-25T07:26:16.999Z</time></trkpt><trkpt lat="44.780521727529226" lon="9.959237842106123"><ele>242.0</ele><time>2026-04-25T07:26:18.999Z</time></trkpt><trkpt lat="44.78046572585457" lon="9.959093039966222"><ele>242.75</ele><time>2026-04-25T07:26:20.999Z</time></trkpt><trkpt lat="44.780416398870855" lon="9.958945812556783"><ele>243.5</ele><time>2026-04-25T07:26:22.999Z</time></trkpt><trkpt lat="44.78036518346917" lon="9.958802224082362"><ele>244.25</ele><time>2026-04-25T07:26:24.999Z</time></trkpt><trkpt lat="44.78031290125233" lon="9.95865931352328"><ele>245.0</ele><time>2026-04-25T07:26:26.999Z</time></trkpt><trkpt lat="44.78026792484733" lon="9.958513285089873"><ele>245.0</ele><time>2026-04-25T07:26:28.999Z</time></trkpt><trkpt lat="44.780216444826976" lon="9.958369917351558"><ele>245.0</ele><time>2026-04-25T07:26:30.999Z</time></trkpt><trkpt lat="44.78016694792182" lon="9.958225619559089"><ele>245.0</ele><time>2026-04-25T07:26:32.999Z</time></trkpt><trkpt lat="44.78012845822197" lon="9.95807611484053"><ele>245.0</ele><time>2026-04-25T07:26:34.999Z</time></trkpt><trkpt lat="44.78011684386115" lon="9.95791474137708"><ele>244.8</ele><time>2026-04-25T07:26:36.999Z</time></trkpt><trkpt lat="44.780136582678" lon="9.957764082298386"><ele>244.6</ele><time>2026-04-25T07:26:38.999Z</time></trkpt><trkpt lat="44.78016614765599" lon="9.957618029516572"><ele>244.39999999999998</ele><time>2026-04-25T07:26:40.999Z</time></trkpt><trkpt lat="44.78019536923351" lon="9.95747314769679"><ele>244.2</ele><time>2026-04-25T07:26:42.999Z</time></trkpt><trkpt lat="44.78022895381809" lon="9.957330275923209"><ele>244.0</ele><time>2026-04-25T07:26:44.999Z</time></trkpt><trkpt lat="44.780260659022744" lon="9.957184657574503"><ele>245.6</ele><time>2026-04-25T07:26:46.999Z</time></trkpt><trkpt lat="44.78029015926859" lon="9.957044658460983"><ele>247.2</ele><time>2026-04-25T07:26:48.999Z</time></trkpt><trkpt lat="44.780314576934536" lon="9.956900206097838"><ele>248.79999999999998</ele><time>2026-04-25T07:26:50.999Z</time></trkpt><trkpt lat="44.78031728247826" lon="9.956751064577311"><ele>250.39999999999998</ele><time>2026-04-25T07:26:52.999Z</time></trkpt><trkpt lat="44.780295230560306" lon="9.956601139208122"><ele>252.0</ele><time>2026-04-25T07:26:54.999Z</time></trkpt><trkpt lat="44.78024964178335" lon="9.956461084827886"><ele>252.39999999999998</ele><time>2026-04-25T07:26:56.999Z</time></trkpt><trkpt lat="44.780195451962584" lon="9.956334416785113"><ele>252.79999999999998</ele><time>2026-04-25T07:26:58.999Z</time></trkpt><trkpt lat="44.78014205890593" lon="9.956201565172782"><ele>253.2</ele><time>2026-04-25T07:27:00.999Z</time></trkpt><trkpt lat="44.78008974432521" lon="9.956070595603697"><ele>253.6</ele><time>2026-04-25T07:27:02.999Z</time></trkpt><trkpt lat="44.78003708005313" lon="9.95594483924754"><ele>254.0</ele><time>2026-04-25T07:27:04.999Z</time></trkpt><trkpt lat="44.77998538165851" lon="9.955810984206595"><ele>254.0</ele><time>2026-04-25T07:27:06.998Z</time></trkpt><trkpt lat="44.77993175087751" lon="9.955685332321051"><ele>253.99999999999997</ele><time>2026-04-25T07:27:09.001Z</time></trkpt><trkpt lat="44.77988162958427" lon="9.955554648401638"><ele>253.99999999999997</ele><time>2026-04-25T07:27:11.001Z</time></trkpt><trkpt lat="44.779826837991955" lon="9.955430709212086"><ele>254.0</ele><time>2026-04-25T07:27:13.001Z</time></trkpt><trkpt lat="44.77978260252593" lon="9.95530757223617"><ele>254.0</ele><time>2026-04-25T07:27:15.001Z</time></trkpt><trkpt lat="44.77973389260965" lon="9.955175365199834"><ele>254.0</ele><time>2026-04-25T07:27:17.001Z</time></trkpt><trkpt lat="44.7796948722814" lon="9.955044634267702"><ele>253.99999999999997</ele><time>2026-04-25T07:27:19Z</time></trkpt><trkpt lat="44.77966646314937" lon="9.95491460102603"><ele>253.99999999999997</ele><time>2026-04-25T07:27:21.001Z</time></trkpt><trkpt lat="44.77964889079646" lon="9.954773603141298"><ele>254.0</ele><time>2026-04-25T07:27:23Z</time></trkpt><trkpt lat="44.77965398854193" lon="9.954634697848967"><ele>254.0</ele><time>2026-04-25T07:27:25Z</time></trkpt><trkpt lat="44.779660268181054" lon="9.95450438455077"><ele>256.0</ele><time>2026-04-25T07:27:27Z</time></trkpt><trkpt lat="44.77966734449901" lon="9.954363233267589"><ele>258.0</ele><time>2026-04-25T07:27:29Z</time></trkpt><trkpt lat="44.779674425125165" lon="9.954229927846004"><ele>260.0</ele><time>2026-04-25T07:27:31Z</time></trkpt><trkpt lat="44.77968471915534" lon="9.954095919802098"><ele>262.0</ele><time>2026-04-25T07:27:33Z</time></trkpt><trkpt lat="44.779690742299586" lon="9.953960799355748"><ele>264.0</ele><time>2026-04-25T07:27:35Z</time></trkpt><trkpt lat="44.77969392455909" lon="9.953826434704238"><ele>264.2</ele><time>2026-04-25T07:27:37Z</time></trkpt><trkpt lat="44.77968950032509" lon="9.95369600906681"><ele>264.4</ele><time>2026-04-25T07:27:39Z</time></trkpt><trkpt lat="44.779677336172355" lon="9.95356511732208"><ele>264.6</ele><time>2026-04-25T07:27:41Z</time></trkpt><trkpt lat="44.77966447577859" lon="9.953429548500058"><ele>264.8</ele><time>2026-04-25T07:27:43Z</time></trkpt><trkpt lat="44.77964330034312" lon="9.953298016179872"><ele>265.0</ele><time>2026-04-25T07:27:45Z</time></trkpt><trkpt lat="44.77962265465681" lon="9.953169087627156"><ele>264.4</ele><time>2026-04-25T07:27:47Z</time></trkpt><trkpt lat="44.779603792224975" lon="9.953041499462936"><ele>263.8</ele><time>2026-04-25T07:27:49Z</time></trkpt><trkpt lat="44.779571229369616" lon="9.952917808023484"><ele>263.2</ele><time>2026-04-25T07:27:51Z</time></trkpt><trkpt lat="44.779529136888435" lon="9.952797928523523"><ele>262.6</ele><time>2026-04-25T07:27:53Z</time></trkpt><trkpt lat="44.77948674001875" lon="9.952687753503255"><ele>262.0</ele><time>2026-04-25T07:27:55Z</time></trkpt><trkpt lat="44.779435810715604" lon="9.952587760100709"><ele>262.16666666666663</ele><time>2026-04-25T07:27:57Z</time></trkpt><trkpt lat="44.779392870731215" lon="9.952494601169516"><ele>262.3333333333333</ele><time>2026-04-25T07:27:59Z</time></trkpt><trkpt lat="44.7793469915694" lon="9.952398462414576"><ele>262.5</ele><time>2026-04-25T07:28:01Z</time></trkpt><trkpt lat="44.77930741344802" lon="9.952303419934259"><ele>262.6666666666667</ele><time>2026-04-25T07:28:03Z</time></trkpt><trkpt lat="44.77926381919763" lon="9.952202596894477"><ele>262.83333333333337</ele><time>2026-04-25T07:28:05Z</time></trkpt><trkpt lat="44.779232099976255" lon="9.952098160588667"><ele>263.0</ele><time>2026-04-25T07:28:07Z</time></trkpt><trkpt lat="44.77920916589348" lon="9.951991568377272"><ele>263.0</ele><time>2026-04-25T07:28:09Z</time></trkpt><trkpt lat="44.77920442722451" lon="9.951884560416206"><ele>263.0</ele><time>2026-04-25T07:28:11Z</time></trkpt><trkpt lat="44.77921448980462" lon="9.951770218226601"><ele>263.0</ele><time>2026-04-25T07:28:13Z</time></trkpt><trkpt lat="44.779231861668315" lon="9.951661477897046"><ele>263.0</ele><time>2026-04-25T07:28:15Z</time></trkpt><trkpt lat="44.779253561968765" lon="9.951548385581615"><ele>263.0</ele><time>2026-04-25T07:28:16.999Z</time></trkpt><trkpt lat="44.77927302237327" lon="9.951429570697092"><ele>263.0</ele><time>2026-04-25T07:28:18.999Z</time></trkpt><trkpt lat="44.77929507395753" lon="9.951315786989232"><ele>264.0</ele><time>2026-04-25T07:28:20.999Z</time></trkpt><trkpt lat="44.77931475075186" lon="9.951195670316405"><ele>265.0</ele><time>2026-04-25T07:28:22.999Z</time></trkpt><trkpt lat="44.779333394572916" lon="9.951078887858538"><ele>266.0</ele><time>2026-04-25T07:28:24.999Z</time></trkpt><trkpt lat="44.77935868804347" lon="9.95096688791139"><ele>267.0</ele><time>2026-04-25T07:28:26.999Z</time></trkpt><trkpt lat="44.779377731350614" lon="9.950851697854235"><ele>268.0</ele><time>2026-04-25T07:28:28.999Z</time></trkpt><trkpt lat="44.77940169621224" lon="9.950734480521646"><ele>269.0</ele><time>2026-04-25T07:28:30.999Z</time></trkpt><trkpt lat="44.779417217354606" lon="9.950619519207697"><ele>272.4</ele><time>2026-04-25T07:28:32.999Z</time></trkpt><trkpt lat="44.77943458096209" lon="9.950502433590014"><ele>275.79999999999995</ele><time>2026-04-25T07:28:34.999Z</time></trkpt><trkpt lat="44.779455241803596" lon="9.950379378830696"><ele>279.20000000000005</ele><time>2026-04-25T07:28:36.999Z</time></trkpt><trkpt lat="44.779471276944584" lon="9.95025029057921"><ele>282.6</ele><time>2026-04-25T07:28:38.999Z</time></trkpt><trkpt lat="44.77949363312986" lon="9.950123433910264"><ele>286.0</ele><time>2026-04-25T07:28:40.999Z</time></trkpt><trkpt lat="44.779490336462615" lon="9.949991591044267"><ele>286.2</ele><time>2026-04-25T07:28:42.999Z</time></trkpt><trkpt lat="44.77947578728998" lon="9.949854232327008"><ele>286.40000000000003</ele><time>2026-04-25T07:28:44.999Z</time></trkpt><trkpt lat="44.77943547914011" lon="9.949721672023573"><ele>286.6</ele><time>2026-04-25T07:28:46.999Z</time></trkpt><trkpt lat="44.779379623571" lon="9.9496012206856"><ele>286.8</ele><time>2026-04-25T07:28:48.999Z</time></trkpt><trkpt lat="44.779310730415794" lon="9.949505653434992"><ele>287.0</ele><time>2026-04-25T07:28:50.999Z</time></trkpt><trkpt lat="44.779246525774894" lon="9.949400448388127"><ele>286.6</ele><time>2026-04-25T07:28:52.999Z</time></trkpt><trkpt lat="44.779180402129015" lon="9.949296912121243"><ele>286.2</ele><time>2026-04-25T07:28:54.999Z</time></trkpt><trkpt lat="44.779113427686404" lon="9.949198975947292"><ele>285.8</ele><time>2026-04-25T07:28:56.999Z</time></trkpt><trkpt lat="44.77904681427573" lon="9.949098545640785"><ele>285.4</ele><time>2026-04-25T07:28:58.999Z</time></trkpt><trkpt lat="44.778980856438295" lon="9.94900242567183"><ele>285.0</ele><time>2026-04-25T07:29:00.999Z</time></trkpt><trkpt lat="44.778925452965254" lon="9.948890768338487"><ele>285.0</ele><time>2026-04-25T07:29:02.999Z</time></trkpt><trkpt lat="44.77888409827504" lon="9.948770553366483"><ele>285.0</ele><time>2026-04-25T07:29:04.999Z</time></trkpt><trkpt lat="44.77888018726456" lon="9.948634061613841"><ele>285.0</ele><time>2026-04-25T07:29:06.999Z</time></trkpt><trkpt lat="44.77890222502547" lon="9.948514370784006"><ele>285.0</ele><time>2026-04-25T07:29:08.999Z</time></trkpt><trkpt lat="44.7789368832328" lon="9.948398361651979"><ele>285.0</ele><time>2026-04-25T07:29:10.999Z</time></trkpt><trkpt lat="44.778983122166096" lon="9.948291953150635"><ele>286.6666666666667</ele><time>2026-04-25T07:29:13.001Z</time></trkpt><trkpt lat="44.779024768080085" lon="9.948195300072655"><ele>288.3333333333333</ele><time>2026-04-25T07:29:15Z</time></trkpt><trkpt lat="44.77904965804957" lon="9.948082599391023"><ele>290.0</ele><time>2026-04-25T07:29:17.001Z</time></trkpt><trkpt lat="44.77905000358652" lon="9.947960702540904"><ele>291.66666666666663</ele><time>2026-04-25T07:29:19.001Z</time></trkpt><trkpt lat="44.77903579874596" lon="9.947833662689193"><ele>293.3333333333333</ele><time>2026-04-25T07:29:21Z</time></trkpt><trkpt lat="44.779017076466715" lon="9.947718514983736"><ele>295.0</ele><time>2026-04-25T07:29:23.001Z</time></trkpt><trkpt lat="44.779000251880895" lon="9.947599086420482"><ele>294.16666666666663</ele><time>2026-04-25T07:29:25Z</time></trkpt><trkpt lat="44.77898074760676" lon="9.947483302803777"><ele>293.3333333333333</ele><time>2026-04-25T07:29:27Z</time></trkpt><trkpt lat="44.77896112104654" lon="9.947367830631519"><ele>292.5</ele><time>2026-04-25T07:29:29Z</time></trkpt><trkpt lat="44.778943490502876" lon="9.947251375964969"><ele>291.6666666666667</ele><time>2026-04-25T07:29:31Z</time></trkpt><trkpt lat="44.77892360365023" lon="9.947136044434021"><ele>290.83333333333337</ele><time>2026-04-25T07:29:33Z</time></trkpt><trkpt lat="44.778903151723384" lon="9.947021567523295"><ele>290.0</ele><time>2026-04-25T07:29:35Z</time></trkpt><trkpt lat="44.7788882125882" lon="9.9469031271913"><ele>290.0</ele><time>2026-04-25T07:29:37Z</time></trkpt><trkpt lat="44.778867916326334" lon="9.946783612167827"><ele>290.0</ele><time>2026-04-25T07:29:39Z</time></trkpt><trkpt lat="44.77885031842169" lon="9.946665087676722"><ele>290.0</ele><time>2026-04-25T07:29:41Z</time></trkpt><trkpt lat="44.778836272989764" lon="9.946550509265087"><ele>290.0</ele><time>2026-04-25T07:29:43Z</time></trkpt><trkpt lat="44.77881245437616" lon="9.946432533454265"><ele>290.0</ele><time>2026-04-25T07:29:45Z</time></trkpt><trkpt lat="44.778791755693305" lon="9.946319781669608"><ele>290.0</ele><time>2026-04-25T07:29:47Z</time></trkpt><trkpt lat="44.778769252671864" lon="9.946209832401552"><ele>290.33333333333337</ele><time>2026-04-25T07:29:49Z</time></trkpt><trkpt lat="44.77874361828075" lon="9.946100889654366"><ele>290.6666666666667</ele><time>2026-04-25T07:29:51Z</time></trkpt><trkpt lat="44.778707561050055" lon="9.945989712890139"><ele>291.0</ele><time>2026-04-25T07:29:53Z</time></trkpt><trkpt lat="44.77866493768795" lon="9.945887934842519"><ele>291.3333333333333</ele><time>2026-04-25T07:29:55Z</time></trkpt><trkpt lat="44.77860897997665" lon="9.94579474762402"><ele>291.66666666666663</ele><time>2026-04-25T07:29:57Z</time></trkpt><trkpt lat="44.77854454430241" lon="9.94571514757228"><ele>292.0</ele><time>2026-04-25T07:29:59Z</time></trkpt><trkpt lat="44.77847516452938" lon="9.94564783734139"><ele>292.0</ele><time>2026-04-25T07:30:01Z</time></trkpt><trkpt lat="44.778403269024956" lon="9.945587266963626"><ele>292.0</ele><time>2026-04-25T07:30:03Z</time></trkpt><trkpt lat="44.77833270701692" lon="9.945524046268519"><ele>292.0</ele><time>2026-04-25T07:30:05Z</time></trkpt><trkpt lat="44.77826093295086" lon="9.945462302743728"><ele>292.0</ele><time>2026-04-25T07:30:07Z</time></trkpt><trkpt lat="44.77818767865869" lon="9.945400911859974"><ele>292.0</ele><time>2026-04-25T07:30:09Z</time></trkpt><trkpt lat="44.77811533658998" lon="9.945338545151003"><ele>292.0</ele><time>2026-04-25T07:30:11Z</time></trkpt><trkpt lat="44.77804588760002" lon="9.945278734378475"><ele>292.0</ele><time>2026-04-25T07:30:13Z</time></trkpt><trkpt lat="44.777976451456134" lon="9.945218510832667"><ele>292.0</ele><time>2026-04-25T07:30:15Z</time></trkpt><trkpt lat="44.777911073302434" lon="9.94515369774487"><ele>292.0</ele><time>2026-04-25T07:30:17Z</time></trkpt><trkpt lat="44.777848594689" lon="9.945084195715571"><ele>292.0</ele><time>2026-04-25T07:30:19Z</time></trkpt><trkpt lat="44.77778597757131" lon="9.94500286568753"><ele>292.0</ele><time>2026-04-25T07:30:20.999Z</time></trkpt><trkpt lat="44.77772997083045" lon="9.9449161054657"><ele>292.0</ele><time>2026-04-25T07:30:22.999Z</time></trkpt><trkpt lat="44.777677885223156" lon="9.944830436543224"><ele>293.16666666666663</ele><time>2026-04-25T07:30:24.999Z</time></trkpt><trkpt lat="44.77762564690326" lon="9.944742821848076"><ele>294.3333333333333</ele><time>2026-04-25T07:30:26.999Z</time></trkpt><trkpt lat="44.77758304060847" lon="9.944645436979403"><ele>295.5</ele><time>2026-04-25T07:30:28.999Z</time></trkpt><trkpt lat="44.77754112417681" lon="9.944547009481719"><ele>296.6666666666667</ele><time>2026-04-25T07:30:30.999Z</time></trkpt><trkpt lat="44.77750585636282" lon="9.944445377753189"><ele>297.83333333333337</ele><time>2026-04-25T07:30:32.999Z</time></trkpt><trkpt lat="44.77746735231067" lon="9.94434292231522"><ele>299.0</ele><time>2026-04-25T07:30:34.999Z</time></trkpt><trkpt lat="44.777432581945774" lon="9.944244670247356"><ele>300.6666666666667</ele><time>2026-04-25T07:30:36.999Z</time></trkpt><trkpt lat="44.77738512644087" lon="9.944152175781396"><ele>302.33333333333337</ele><time>2026-04-25T07:30:38.999Z</time></trkpt><trkpt lat="44.777329973952774" lon="9.9440754502453"><ele>304.0</ele><time>2026-04-25T07:30:40.999Z</time></trkpt><trkpt lat="44.77726537464711" lon="9.944007986612082"><ele>305.6666666666667</ele><time>2026-04-25T07:30:42.999Z</time></trkpt><trkpt lat="44.777187346889654" lon="9.943960463394031"><ele>307.3333333333333</ele><time>2026-04-25T07:30:44.999Z</time></trkpt><trkpt lat="44.77710086023515" lon="9.943932504158449"><ele>309.0</ele><time>2026-04-25T07:30:46.999Z</time></trkpt><trkpt lat="44.77701875826257" lon="9.943906167470614"><ele>309.0</ele><time>2026-04-25T07:30:48.999Z</time></trkpt><trkpt lat="44.77694333722701" lon="9.943882822930277"><ele>309.0</ele><time>2026-04-25T07:30:50.999Z</time></trkpt><trkpt lat="44.77685574217273" lon="9.94385455146327"><ele>309.0</ele><time>2026-04-25T07:30:52.999Z</time></trkpt><trkpt lat="44.77675436795387" lon="9.943829512668703"><ele>309.0</ele><time>2026-04-25T07:30:54.999Z</time></trkpt><trkpt lat="44.77666553167706" lon="9.94381541084319"><ele>309.0</ele><time>2026-04-25T07:30:56.999Z</time></trkpt><trkpt lat="44.776561652029784" lon="9.943812846938426"><ele>309.0</ele><time>2026-04-25T07:30:58.999Z</time></trkpt><trkpt lat="44.776458182266616" lon="9.943854895382271"><ele>309.0</ele><time>2026-04-25T07:31:00.999Z</time></trkpt><trkpt lat="44.77633661983575" lon="9.943907886984572"><ele>309.0</ele><time>2026-04-25T07:31:02.999Z</time></trkpt><trkpt lat="44.77622066284294" lon="9.943945090765737"><ele>309.0</ele><time>2026-04-25T07:31:04.999Z</time></trkpt><trkpt lat="44.77610213311072" lon="9.94396116217769"><ele>309.2</ele><time>2026-04-25T07:31:06.999Z</time></trkpt><trkpt lat="44.77598737376883" lon="9.94397614512692"><ele>309.4</ele><time>2026-04-25T07:31:08.999Z</time></trkpt><trkpt lat="44.77588325903992" lon="9.943995873220011"><ele>309.6</ele><time>2026-04-25T07:31:10.999Z</time></trkpt><trkpt lat="44.775775345067544" lon="9.94399419693934"><ele>309.8</ele><time>2026-04-25T07:31:12.999Z</time></trkpt><trkpt lat="44.77566753606131" lon="9.943973203359427"><ele>310.0</ele><time>2026-04-25T07:31:14.998Z</time></trkpt><trkpt lat="44.775562903379075" lon="9.943927532037533"><ele>310.0</ele><time>2026-04-25T07:31:16.998Z</time></trkpt><trkpt lat="44.77547876236272" lon="9.943858154512913"><ele>310.0</ele><time>2026-04-25T07:31:19Z</time></trkpt><trkpt lat="44.77539912802336" lon="9.943802559088684"><ele>310.0</ele><time>2026-04-25T07:31:21Z</time></trkpt><trkpt lat="44.77532239762594" lon="9.943745102415491"><ele>310.0</ele><time>2026-04-25T07:31:23Z</time></trkpt><trkpt lat="44.77524059194144" lon="9.943687837988902"><ele>310.0</ele><time>2026-04-25T07:31:25Z</time></trkpt><trkpt lat="44.775161602753954" lon="9.943634229451195"><ele>310.8333333333333</ele><time>2026-04-25T07:31:27Z</time></trkpt><trkpt lat="44.77508848497251" lon="9.943583389650955"><ele>311.66666666666663</ele><time>2026-04-25T07:31:29Z</time></trkpt><trkpt lat="44.77501698504675" lon="9.943533115197775"><ele>312.5</ele><time>2026-04-25T07:31:31Z</time></trkpt><trkpt lat="44.77494332275018" lon="9.943477361709723"><ele>313.3333333333333</ele><time>2026-04-25T07:31:33Z</time></trkpt><trkpt lat="44.774869359927024" lon="9.943427658902744"><ele>314.1666666666667</ele><time>2026-04-25T07:31:35Z</time></trkpt><trkpt lat="44.77479206639377" lon="9.943368424633208"><ele>315.0</ele><time>2026-04-25T07:31:37Z</time></trkpt><trkpt lat="44.774724128111444" lon="9.943298105803889"><ele>315.8</ele><time>2026-04-25T07:31:39Z</time></trkpt><trkpt lat="44.77465545454852" lon="9.94322578661526"><ele>316.6</ele><time>2026-04-25T07:31:41Z</time></trkpt><trkpt lat="44.77459200355963" lon="9.943140946561073"><ele>317.4</ele><time>2026-04-25T07:31:43Z</time></trkpt><trkpt lat="44.77453047257572" lon="9.943051246831914"><ele>318.2</ele><time>2026-04-25T07:31:45Z</time></trkpt><trkpt lat="44.7744654475417" lon="9.942948733547732"><ele>319.0</ele><time>2026-04-25T07:31:47Z</time></trkpt><trkpt lat="44.774401172155756" lon="9.942845180586637"><ele>319.4</ele><time>2026-04-25T07:31:49Z</time></trkpt><trkpt lat="44.77433653555287" lon="9.942743028899736"><ele>319.79999999999995</ele><time>2026-04-25T07:31:51Z</time></trkpt><trkpt lat="44.77426629885369" lon="9.942632850712593"><ele>320.20000000000005</ele><time>2026-04-25T07:31:53Z</time></trkpt><trkpt lat="44.7741975677424" lon="9.942516220725908"><ele>320.6</ele><time>2026-04-25T07:31:55Z</time></trkpt><trkpt lat="44.77412335143873" lon="9.942401720616477"><ele>321.0</ele><time>2026-04-25T07:31:57Z</time></trkpt><trkpt lat="44.774053942996375" lon="9.9422909519646"><ele>321.0</ele><time>2026-04-25T07:31:59Z</time></trkpt><trkpt lat="44.77398907240251" lon="9.942181105305433"><ele>321.0</ele><time>2026-04-25T07:32:01Z</time></trkpt><trkpt lat="44.7739285999633" lon="9.942062949983248"><ele>321.0</ele><time>2026-04-25T07:32:03Z</time></trkpt><trkpt lat="44.77388313453835" lon="9.941929947832277"><ele>321.0</ele><time>2026-04-25T07:32:05Z</time></trkpt><trkpt lat="44.773855803108084" lon="9.941785552759049"><ele>321.0</ele><time>2026-04-25T07:32:07Z</time></trkpt><trkpt lat="44.77384266564495" lon="9.941642051366852"><ele>321.8</ele><time>2026-04-25T07:32:09Z</time></trkpt><trkpt lat="44.773825908109" lon="9.941497671393721"><ele>322.6</ele><time>2026-04-25T07:32:11Z</time></trkpt><trkpt lat="44.77381242676462" lon="9.941357073351968"><ele>323.4</ele><time>2026-04-25T07:32:13Z</time></trkpt><trkpt lat="44.773804530166984" lon="9.94121954914428"><ele>324.2</ele><time>2026-04-25T07:32:15Z</time></trkpt><trkpt lat="44.77379704272203" lon="9.941084266186255"><ele>325.0</ele><time>2026-04-25T07:32:17Z</time></trkpt><trkpt lat="44.77378972651099" lon="9.940945348372866"><ele>325.2</ele><time>2026-04-25T07:32:19Z</time></trkpt><trkpt lat="44.77377652268781" lon="9.940802977312742"><ele>325.4</ele><time>2026-04-25T07:32:21Z</time></trkpt><trkpt lat="44.77376617462238" lon="9.940664389539124"><ele>325.6</ele><time>2026-04-25T07:32:22.999Z</time></trkpt><trkpt lat="44.77375049389073" lon="9.940532126237638"><ele>325.8</ele><time>2026-04-25T07:32:24.999Z</time></trkpt><trkpt lat="44.77373970026494" lon="9.940400512364711"><ele>326.0</ele><time>2026-04-25T07:32:26.999Z</time></trkpt><trkpt lat="44.77372206083431" lon="9.940270456719094"><ele>326.0</ele><time>2026-04-25T07:32:28.999Z</time></trkpt><trkpt lat="44.77370507589197" lon="9.940133816131741"><ele>326.0</ele><time>2026-04-25T07:32:30.999Z</time></trkpt><trkpt lat="44.77369067037674" lon="9.93999831500627"><ele>326.0</ele><time>2026-04-25T07:32:32.999Z</time></trkpt><trkpt lat="44.77368029005407" lon="9.939861892044496"><ele>326.0</ele><time>2026-04-25T07:32:35.999Z</time></trkpt><trkpt lat="44.77365841233646" lon="9.939663590143265"><ele>326.0</ele><time>2026-04-25T07:32:37.999Z</time></trkpt><trkpt lat="44.77364393140936" lon="9.939527931482152"><ele>326.6</ele><time>2026-04-25T07:32:39.999Z</time></trkpt><trkpt lat="44.77363089689184" lon="9.939389171425859"><ele>327.20000000000005</ele><time>2026-04-25T07:32:41.999Z</time></trkpt><trkpt lat="44.773624417497324" lon="9.93924236804461"><ele>327.79999999999995</ele><time>2026-04-25T07:32:43.999Z</time></trkpt><trkpt lat="44.773632106342234" lon="9.939089247302752"><ele>328.4</ele><time>2026-04-25T07:32:45.999Z</time></trkpt><trkpt lat="44.77365588338185" lon="9.93893893706748"><ele>329.0</ele><time>2026-04-25T07:32:47.999Z</time></trkpt><trkpt lat="44.77368297583632" lon="9.938794560918506"><ele>329.79999999999995</ele><time>2026-04-25T07:32:49.999Z</time></trkpt><trkpt lat="44.77370724773316" lon="9.938652126765334"><ele>330.59999999999997</ele><time>2026-04-25T07:32:51.999Z</time></trkpt><trkpt lat="44.773734337387616" lon="9.93850937112216"><ele>331.4</ele><time>2026-04-25T07:32:53.999Z</time></trkpt><trkpt lat="44.77376158842574" lon="9.938371046246228"><ele>332.2</ele><time>2026-04-25T07:32:55.999Z</time></trkpt><trkpt lat="44.77378244320429" lon="9.938227994550079"><ele>333.0</ele><time>2026-04-25T07:32:57.999Z</time></trkpt><trkpt lat="44.77381401420509" lon="9.938092862494647"><ele>333.4</ele><time>2026-04-25T07:32:59.999Z</time></trkpt><trkpt lat="44.77384018997276" lon="9.937947358872831"><ele>333.79999999999995</ele><time>2026-04-25T07:33:01.999Z</time></trkpt><trkpt lat="44.77385483490846" lon="9.937798453112094"><ele>334.2</ele><time>2026-04-25T07:33:03.999Z</time></trkpt><trkpt lat="44.773818148962036" lon="9.937657798051083"><ele>334.6</ele><time>2026-04-25T07:33:05.999Z</time></trkpt><trkpt lat="44.77373403099465" lon="9.937560840236184"><ele>335.0</ele><time>2026-04-25T07:33:07.999Z</time></trkpt><trkpt lat="44.77364012388239" lon="9.937501852014456"><ele>335.0</ele><time>2026-04-25T07:33:09.999Z</time></trkpt><trkpt lat="44.77354114587925" lon="9.937436385503759"><ele>335.0</ele><time>2026-04-25T07:33:11.999Z</time></trkpt><trkpt lat="44.77343588041693" lon="9.937370026918659"><ele>335.0</ele><time>2026-04-25T07:33:13.999Z</time></trkpt><trkpt lat="44.77333699405094" lon="9.937304432517125"><ele>335.0</ele><time>2026-04-25T07:33:15.999Z</time></trkpt><trkpt lat="44.77324104248042" lon="9.937247061367811"><ele>335.0</ele><time>2026-04-25T07:33:17.998Z</time></trkpt><trkpt lat="44.77315068766378" lon="9.93720329420669"><ele>335.1666666666667</ele><time>2026-04-25T07:33:19.998Z</time></trkpt><trkpt lat="44.773070009401685" lon="9.937155867356731"><ele>335.33333333333337</ele><time>2026-04-25T07:33:21.998Z</time></trkpt><trkpt lat="44.77299316375624" lon="9.93710997217217"><ele>335.5</ele><time>2026-04-25T07:33:24Z</time></trkpt><trkpt lat="44.77291711931568" lon="9.937065371791352"><ele>335.6666666666667</ele><time>2026-04-25T07:33:26Z</time></trkpt><trkpt lat="44.772848622261236" lon="9.937020445807084"><ele>335.8333333333333</ele><time>2026-04-25T07:33:28Z</time></trkpt><trkpt lat="44.7727871985491" lon="9.93697358738975"><ele>336.0</ele><time>2026-04-25T07:33:30Z</time></trkpt><trkpt lat="44.77271972397421" lon="9.936940666357227"><ele>338.14285714285717</ele><time>2026-04-25T07:33:32Z</time></trkpt><trkpt lat="44.77265597579296" lon="9.936916814999353"><ele>340.2857142857143</ele><time>2026-04-25T07:33:34Z</time></trkpt><trkpt lat="44.77259096458529" lon="9.936926801198284"><ele>342.42857142857144</ele><time>2026-04-25T07:33:36Z</time></trkpt><trkpt lat="44.7725430069845" lon="9.936993381769389"><ele>344.57142857142856</ele><time>2026-04-25T07:33:38Z</time></trkpt><trkpt lat="44.77253811316589" lon="9.937093781758035"><ele>346.7142857142857</ele><time>2026-04-25T07:33:40Z</time></trkpt><trkpt lat="44.77256960866138" lon="9.937179945315332"><ele>348.8571428571429</ele><time>2026-04-25T07:33:42Z</time></trkpt><trkpt lat="44.772620295382026" lon="9.93725318367258"><ele>351.0</ele><time>2026-04-25T07:33:44Z</time></trkpt><trkpt lat="44.77268589812651" lon="9.937309218742694"><ele>349.00000000000006</ele><time>2026-04-25T07:33:46Z</time></trkpt><trkpt lat="44.772748863691426" lon="9.937367013756013"><ele>347.0</ele><time>2026-04-25T07:33:48Z</time></trkpt><trkpt lat="44.772805397738075" lon="9.937427434357282"><ele>345.0</ele><time>2026-04-25T07:33:50Z</time></trkpt><trkpt lat="44.77284868941805" lon="9.937509435801148"><ele>343.0</ele><time>2026-04-25T07:33:52Z</time></trkpt><trkpt lat="44.77282985200981" lon="9.937598743727175"><ele>341.0</ele><time>2026-04-25T07:33:54Z</time></trkpt><trkpt lat="44.7727588869189" lon="9.937628550222154"><ele>339.00000000000006</ele><time>2026-04-25T07:33:56Z</time></trkpt><trkpt lat="44.772695952094544" lon="9.937602046447818"><ele>337.0</ele><time>2026-04-25T07:33:58Z</time></trkpt><trkpt lat="44.77260895151514" lon="9.937555817635186"><ele>339.00000000000006</ele><time>2026-04-25T07:34:01Z</time></trkpt><trkpt lat="44.77254792779782" lon="9.937524721483634"><ele>341.0</ele><time>2026-04-25T07:34:03Z</time></trkpt><trkpt lat="44.77248744669301" lon="9.937499607683634"><ele>343.0</ele><time>2026-04-25T07:34:05Z</time></trkpt><trkpt lat="44.77242371283486" lon="9.937465037071474"><ele>345.0</ele><time>2026-04-25T07:34:07Z</time></trkpt><trkpt lat="44.77236058183086" lon="9.9374370788368"><ele>347.0</ele><time>2026-04-25T07:34:09Z</time></trkpt><trkpt lat="44.77229729106837" lon="9.937416042627241"><ele>349.00000000000006</ele><time>2026-04-25T07:34:11Z</time></trkpt><trkpt lat="44.772238160118945" lon="9.937382910548093"><ele>351.0</ele><time>2026-04-25T07:34:13Z</time></trkpt><trkpt lat="44.772151775673606" lon="9.937350687429806"><ele>351.0</ele><time>2026-04-25T07:34:16Z</time></trkpt><trkpt lat="44.77206409468936" lon="9.937319717320399"><ele>351.0</ele><time>2026-04-25T07:34:19Z</time></trkpt><trkpt lat="44.77197433335765" lon="9.937291627640011"><ele>351.0</ele><time>2026-04-25T07:34:22Z</time></trkpt><trkpt lat="44.77188403459409" lon="9.937261486796276"><ele>351.0</ele><time>2026-04-25T07:34:24.999Z</time></trkpt><trkpt lat="44.771795743442134" lon="9.937241617367322"><ele>351.0</ele><time>2026-04-25T07:34:27.999Z</time></trkpt><trkpt lat="44.77171399149554" lon="9.937214753191482"><ele>351.0</ele><time>2026-04-25T07:34:30.999Z</time></trkpt><trkpt lat="44.77162916243557" lon="9.93718856617277"><ele>352.5</ele><time>2026-04-25T07:34:33.999Z</time></trkpt><trkpt lat="44.7715646694636" lon="9.937170677310158"><ele>354.0</ele><time>2026-04-25T07:34:36.999Z</time></trkpt><trkpt lat="44.771482106245344" lon="9.937143095422204"><ele>355.5</ele><time>2026-04-25T07:34:39.999Z</time></trkpt><trkpt lat="44.771392955147824" lon="9.937119228582333"><ele>357.0</ele><time>2026-04-25T07:34:42.999Z</time></trkpt><trkpt lat="44.77131484837416" lon="9.937092480954284"><ele>358.5</ele><time>2026-04-25T07:34:45.999Z</time></trkpt><trkpt lat="44.771240406059775" lon="9.937082078845192"><ele>360.0</ele><time>2026-04-25T07:34:48.999Z</time></trkpt><trkpt lat="44.77117281230785" lon="9.937089729558377"><ele>360.0</ele><time>2026-04-25T07:34:50.999Z</time></trkpt><trkpt lat="44.77112175611719" lon="9.93716013932986"><ele>360.0</ele><time>2026-04-25T07:34:53.999Z</time></trkpt><trkpt lat="44.771128242295894" lon="9.937270530654459"><ele>360.0</ele><time>2026-04-25T07:34:56.999Z</time></trkpt><trkpt lat="44.77119450795758" lon="9.937339523251124"><ele>360.0</ele><time>2026-04-25T07:34:59.999Z</time></trkpt><trkpt lat="44.77126093720094" lon="9.937369709967145"><ele>360.0</ele><time>2026-04-25T07:35:01.999Z</time></trkpt><trkpt lat="44.77133765859078" lon="9.93739619550517"><ele>360.0</ele><time>2026-04-25T07:35:04.999Z</time></trkpt><trkpt lat="44.77141504567685" lon="9.9374232131355"><ele>360.0</ele><time>2026-04-25T07:35:07.999Z</time></trkpt><trkpt lat="44.771487409852845" lon="9.937452678810358"><ele>360.0</ele><time>2026-04-25T07:35:09.999Z</time></trkpt><trkpt lat="44.771567156072564" lon="9.937478871529128"><ele>360.0</ele><time>2026-04-25T07:35:11.999Z</time></trkpt><trkpt lat="44.77163503986889" lon="9.937520903577129"><ele>360.0</ele><time>2026-04-25T07:35:13.999Z</time></trkpt><trkpt lat="44.77166928916197" lon="9.93760798919326"><ele>360.0</ele><time>2026-04-25T07:35:15.999Z</time></trkpt><trkpt lat="44.771620193728175" lon="9.937676493455719"><ele>360.0</ele><time>2026-04-25T07:35:17.999Z</time></trkpt><trkpt lat="44.771550524704786" lon="9.937659455761192"><ele>360.0</ele><time>2026-04-25T07:35:19.998Z</time></trkpt><trkpt lat="44.77148816072508" lon="9.937621379190427"><ele>362.57142857142856</ele><time>2026-04-25T07:35:21.998Z</time></trkpt><trkpt lat="44.77142618521757" lon="9.937594100848365"><ele>365.14285714285717</ele><time>2026-04-25T07:35:23.998Z</time></trkpt><trkpt lat="44.771361919089095" lon="9.937578424426217"><ele>367.7142857142857</ele><time>2026-04-25T07:35:25.998Z</time></trkpt><trkpt lat="44.77129641668219" lon="9.937582696110473"><ele>370.2857142857143</ele><time>2026-04-25T07:35:27.998Z</time></trkpt><trkpt lat="44.77123047069386" lon="9.937602751750676"><ele>372.8571428571429</ele><time>2026-04-25T07:35:30Z</time></trkpt><trkpt lat="44.77115646761296" lon="9.937669789118706"><ele>375.42857142857144</ele><time>2026-04-25T07:35:33Z</time></trkpt><trkpt lat="44.77110624658049" lon="9.937728158023237"><ele>378.0</ele><time>2026-04-25T07:35:35Z</time></trkpt><trkpt lat="44.77105866782981" lon="9.9377888651165"><ele>378.14285714285717</ele><time>2026-04-25T07:35:37Z</time></trkpt><trkpt lat="44.771009688311125" lon="9.937851223275459"><ele>378.2857142857143</ele><time>2026-04-25T07:35:39Z</time></trkpt><trkpt lat="44.770960069763824" lon="9.937912164205187"><ele>378.42857142857144</ele><time>2026-04-25T07:35:41Z</time></trkpt><trkpt lat="44.77090217475535" lon="9.937971235737226"><ele>378.57142857142856</ele><time>2026-04-25T07:35:43Z</time></trkpt><trkpt lat="44.7708215121314" lon="9.938017287804035"><ele>378.7142857142857</ele><time>2026-04-25T07:35:45Z</time></trkpt><trkpt lat="44.7707431332723" lon="9.93800474655025"><ele>378.8571428571429</ele><time>2026-04-25T07:35:47Z</time></trkpt><trkpt lat="44.77067513981907" lon="9.937956346717543"><ele>379.0</ele><time>2026-04-25T07:35:49Z</time></trkpt><trkpt lat="44.77063130747272" lon="9.937882063156444"><ele>379.00000000000006</ele><time>2026-04-25T07:35:51Z</time></trkpt><trkpt lat="44.7705989908725" lon="9.937805153592384"><ele>379.0</ele><time>2026-04-25T07:35:53Z</time></trkpt><trkpt lat="44.77055975374721" lon="9.93773043604142"><ele>379.0</ele><time>2026-04-25T07:35:55Z</time></trkpt><trkpt lat="44.77051969638665" lon="9.9376609079695"><ele>379.0</ele><time>2026-04-25T07:35:57Z</time></trkpt><trkpt lat="44.77046878612968" lon="9.937603117899226"><ele>379.0</ele><time>2026-04-25T07:35:59Z</time></trkpt><trkpt lat="44.770399147334" lon="9.93757015039996"><ele>379.00000000000006</ele><time>2026-04-25T07:36:01Z</time></trkpt><trkpt lat="44.770321735069544" lon="9.937569723813263"><ele>379.0</ele><time>2026-04-25T07:36:03Z</time></trkpt><trkpt lat="44.77024249961476" lon="9.937607392117677"><ele>379.0</ele><time>2026-04-25T07:36:05Z</time></trkpt><trkpt lat="44.770172744115584" lon="9.937681529268398"><ele>379.0</ele><time>2026-04-25T07:36:07Z</time></trkpt><trkpt lat="44.770130195381284" lon="9.937785717600223"><ele>379.0</ele><time>2026-04-25T07:36:09Z</time></trkpt><trkpt lat="44.77011800728022" lon="9.937901368418562"><ele>379.0</ele><time>2026-04-25T07:36:11Z</time></trkpt><trkpt lat="44.77013418516217" lon="9.938020942377435"><ele>379.0</ele><time>2026-04-25T07:36:13Z</time></trkpt><trkpt lat="44.77017849348459" lon="9.938127659351304"><ele>379.0</ele><time>2026-04-25T07:36:15Z</time></trkpt><trkpt lat="44.770238187698205" lon="9.93820979507084"><ele>379.00000000000006</ele><time>2026-04-25T07:36:17Z</time></trkpt><trkpt lat="44.770301296383536" lon="9.93827584094123"><ele>379.0</ele><time>2026-04-25T07:36:19Z</time></trkpt><trkpt lat="44.77036363741083" lon="9.938335606228836"><ele>379.0</ele><time>2026-04-25T07:36:21Z</time></trkpt><trkpt lat="44.77042498803151" lon="9.938391595183719"><ele>379.0</ele><time>2026-04-25T07:36:23Z</time></trkpt><trkpt lat="44.7704823350548" lon="9.938447397880482"><ele>379.0</ele><time>2026-04-25T07:36:25Z</time></trkpt><trkpt lat="44.77054064835562" lon="9.938503256708033"><ele>379.00000000000006</ele><time>2026-04-25T07:36:26.999Z</time></trkpt><trkpt lat="44.77059978059224" lon="9.938558760719241"><ele>379.0</ele><time>2026-04-25T07:36:28.999Z</time></trkpt><trkpt lat="44.770655279394056" lon="9.93860816002159"><ele>380.8333333333333</ele><time>2026-04-25T07:36:30.999Z</time></trkpt><trkpt lat="44.770735874913655" lon="9.938675150305508"><ele>382.66666666666663</ele><time>2026-04-25T07:36:33.999Z</time></trkpt><trkpt lat="44.770798035873845" lon="9.938701339320566"><ele>384.5</ele><time>2026-04-25T07:36:35.999Z</time></trkpt><trkpt lat="44.77089095066062" lon="9.938718372357812"><ele>386.3333333333333</ele><time>2026-04-25T07:36:38.999Z</time></trkpt><trkpt lat="44.770957147200654" lon="9.93871352414986"><ele>388.1666666666667</ele><time>2026-04-25T07:36:40.999Z</time></trkpt><trkpt lat="44.77105061518245" lon="9.938688842216067"><ele>390.0</ele><time>2026-04-25T07:36:43.999Z</time></trkpt><trkpt lat="44.77114269005042" lon="9.938662594470603"><ele>390.1666666666667</ele><time>2026-04-25T07:36:46.999Z</time></trkpt><trkpt lat="44.771232622219685" lon="9.938632834142394"><ele>390.33333333333337</ele><time>2026-04-25T07:36:49.999Z</time></trkpt><trkpt lat="44.771294814518065" lon="9.938607898545163"><ele>390.5</ele><time>2026-04-25T07:36:51.999Z</time></trkpt><trkpt lat="44.77138998994135" lon="9.93859886176354"><ele>390.6666666666667</ele><time>2026-04-25T07:36:54.999Z</time></trkpt><trkpt lat="44.77148384027142" lon="9.93861908536072"><ele>390.83333333333337</ele><time>2026-04-25T07:36:57.999Z</time></trkpt><trkpt lat="44.77155928667428" lon="9.938686235287637"><ele>391.0</ele><time>2026-04-25T07:37:00.999Z</time></trkpt><trkpt lat="44.7716135796077" lon="9.938742423261829"><ele>391.00000000000006</ele><time>2026-04-25T07:37:02.999Z</time></trkpt><trkpt lat="44.77167067584345" lon="9.93884638067176"><ele>391.0</ele><time>2026-04-25T07:37:05.999Z</time></trkpt><trkpt lat="44.771718448178405" lon="9.938956822837012"><ele>391.0</ele><time>2026-04-25T07:37:08.999Z</time></trkpt><trkpt lat="44.77174685315591" lon="9.9390734909102"><ele>391.0</ele><time>2026-04-25T07:37:11.999Z</time></trkpt><trkpt lat="44.771750239873946" lon="9.939197683278383"><ele>391.00000000000006</ele><time>2026-04-25T07:37:14.999Z</time></trkpt><trkpt lat="44.77173866357703" lon="9.939286079945417"><ele>391.0</ele><time>2026-04-25T07:37:16.999Z</time></trkpt><trkpt lat="44.77170645493633" lon="9.939409062018667"><ele>388.83333333333337</ele><time>2026-04-25T07:37:19.999Z</time></trkpt><trkpt lat="44.77166362092447" lon="9.939521162610752"><ele>386.6666666666667</ele><time>2026-04-25T07:37:22.998Z</time></trkpt><trkpt lat="44.77160990031729" lon="9.939614994327371"><ele>384.5</ele><time>2026-04-25T07:37:25.998Z</time></trkpt><trkpt lat="44.77155134392203" lon="9.939665910873135"><ele>382.33333333333337</ele><time>2026-04-25T07:37:28.998Z</time></trkpt><trkpt lat="44.77148694455485" lon="9.939700787560682"><ele>380.1666666666667</ele><time>2026-04-25T07:37:30.998Z</time></trkpt><trkpt lat="44.77140419947915" lon="9.939742177818294"><ele>378.0</ele><time>2026-04-25T07:37:33.998Z</time></trkpt><trkpt lat="44.77132660705204" lon="9.939785610074411"><ele>378.0</ele><time>2026-04-25T07:37:37Z</time></trkpt><trkpt lat="44.77124100136483" lon="9.9398224553799"><ele>378.0</ele><time>2026-04-25T07:37:40Z</time></trkpt><trkpt lat="44.771158066026295" lon="9.939870442953088"><ele>378.0</ele><time>2026-04-25T07:37:43Z</time></trkpt><trkpt lat="44.77108006967571" lon="9.939930869154024"><ele>378.0</ele><time>2026-04-25T07:37:46Z</time></trkpt><trkpt lat="44.77101153714232" lon="9.939978462008321"><ele>378.0</ele><time>2026-04-25T07:37:49Z</time></trkpt><trkpt lat="44.77094160002057" lon="9.940038613221054"><ele>378.0</ele><time>2026-04-25T07:37:52Z</time></trkpt><trkpt lat="44.770879026700264" lon="9.940087055926243"><ele>380.5</ele><time>2026-04-25T07:37:54Z</time></trkpt><trkpt lat="44.770807076527696" lon="9.940142602294786"><ele>383.0</ele><time>2026-04-25T07:37:57Z</time></trkpt><trkpt lat="44.77073019445957" lon="9.940194168343274"><ele>385.5</ele><time>2026-04-25T07:38:00Z</time></trkpt><trkpt lat="44.770657369218945" lon="9.940235047760133"><ele>388.0</ele><time>2026-04-25T07:38:03Z</time></trkpt><trkpt lat="44.77059139452077" lon="9.940265357613095"><ele>390.5</ele><time>2026-04-25T07:38:05Z</time></trkpt><trkpt lat="44.77051869121739" lon="9.94030191231472"><ele>393.0</ele><time>2026-04-25T07:38:08Z</time></trkpt><trkpt lat="44.770451254186504" lon="9.940321660834988"><ele>393.0</ele><time>2026-04-25T07:38:10Z</time></trkpt><trkpt lat="44.770374828061385" lon="9.940371688119589"><ele>393.0</ele><time>2026-04-25T07:38:13Z</time></trkpt><trkpt lat="44.770299426517134" lon="9.94044105562906"><ele>393.0</ele><time>2026-04-25T07:38:16Z</time></trkpt><trkpt lat="44.770252091450885" lon="9.940502292628413"><ele>393.0</ele><time>2026-04-25T07:38:18Z</time></trkpt><trkpt lat="44.77020995786452" lon="9.940572818514145"><ele>393.0</ele><time>2026-04-25T07:38:20Z</time></trkpt><trkpt lat="44.770154145387515" lon="9.940680478415707"><ele>393.0</ele><time>2026-04-25T07:38:22Z</time></trkpt><trkpt lat="44.77012032255717" lon="9.940763743890209"><ele>395.00000000000006</ele><time>2026-04-25T07:38:24Z</time></trkpt><trkpt lat="44.77008856479187" lon="9.940849184860012"><ele>397.0</ele><time>2026-04-25T07:38:26Z</time></trkpt><trkpt lat="44.770054675118246" lon="9.940931341162546"><ele>399.0</ele><time>2026-04-25T07:38:28Z</time></trkpt><trkpt lat="44.7700185536535" lon="9.941022595066313"><ele>401.0</ele><time>2026-04-25T07:38:30Z</time></trkpt><trkpt lat="44.76998805785191" lon="9.941102718288642"><ele>403.0</ele><time>2026-04-25T07:38:32Z</time></trkpt><trkpt lat="44.76994061011702" lon="9.941215045668551"><ele>405.00000000000006</ele><time>2026-04-25T07:38:34.999Z</time></trkpt><trkpt lat="44.76990300462741" lon="9.941292486207344"><ele>407.0</ele><time>2026-04-25T07:38:36.999Z</time></trkpt><trkpt lat="44.76986319007594" lon="9.941365228155647"><ele>407.7142857142857</ele><time>2026-04-25T07:38:38.999Z</time></trkpt><trkpt lat="44.76981885933907" lon="9.941432569656858"><ele>408.42857142857144</ele><time>2026-04-25T07:38:40.999Z</time></trkpt><trkpt lat="44.76976947062614" lon="9.941492982718735"><ele>409.1428571428571</ele><time>2026-04-25T07:38:42.999Z</time></trkpt><trkpt lat="44.769695207352484" lon="9.941574103461559"><ele>409.8571428571429</ele><time>2026-04-25T07:38:45.999Z</time></trkpt><trkpt lat="44.76961440306381" lon="9.941640940660879"><ele>410.57142857142856</ele><time>2026-04-25T07:38:48.999Z</time></trkpt><trkpt lat="44.76955425813756" lon="9.941679729505701"><ele>411.2857142857143</ele><time>2026-04-25T07:38:50.999Z</time></trkpt><trkpt lat="44.76949315293205" lon="9.941708029026211"><ele>412.0</ele><time>2026-04-25T07:38:52.999Z</time></trkpt><trkpt lat="44.76942806250277" lon="9.94172771473382"><ele>411.85714285714283</ele><time>2026-04-25T07:38:54.999Z</time></trkpt><trkpt lat="44.769363416931284" lon="9.94173613381567"><ele>411.7142857142857</ele><time>2026-04-25T07:38:56.999Z</time></trkpt><trkpt lat="44.769298166637775" lon="9.941734870340692"><ele>411.57142857142856</ele><time>2026-04-25T07:38:58.999Z</time></trkpt><trkpt lat="44.769233877265364" lon="9.941727225720637"><ele>411.42857142857144</ele><time>2026-04-25T07:39:00.999Z</time></trkpt><trkpt lat="44.76914137579195" lon="9.941704114617012"><ele>411.2857142857143</ele><time>2026-04-25T07:39:03.999Z</time></trkpt><trkpt lat="44.76905108992213" lon="9.941677043509856"><ele>411.1428571428571</ele><time>2026-04-25T07:39:06.999Z</time></trkpt><trkpt lat="44.76899113792645" lon="9.941648736602671"><ele>411.0</ele><time>2026-04-25T07:39:08.999Z</time></trkpt><trkpt lat="44.768907065578645" lon="9.941602180856165"><ele>411.6666666666667</ele><time>2026-04-25T07:39:11.999Z</time></trkpt><trkpt lat="44.76882374149253" lon="9.941549748381759"><ele>412.33333333333337</ele><time>2026-04-25T07:39:14.999Z</time></trkpt><trkpt lat="44.76874354861589" lon="9.941482756969998"><ele>413.0</ele><time>2026-04-25T07:39:17.999Z</time></trkpt><trkpt lat="44.76869385582381" lon="9.941426553015269"><ele>413.6666666666667</ele><time>2026-04-25T07:39:19.999Z</time></trkpt><trkpt lat="44.76863355359907" lon="9.941324255998746"><ele>414.33333333333337</ele><time>2026-04-25T07:39:22.999Z</time></trkpt><trkpt lat="44.76860871955243" lon="9.941239504294465"><ele>415.0</ele><time>2026-04-25T07:39:24.999Z</time></trkpt><trkpt lat="44.76859322194595" lon="9.94115308567239"><ele>415.0</ele><time>2026-04-25T07:39:26.999Z</time></trkpt><trkpt lat="44.76857102409188" lon="9.9410661536049"><ele>415.0</ele><time>2026-04-25T07:39:28.998Z</time></trkpt><trkpt lat="44.76855303097925" lon="9.940979398260708"><ele>415.0</ele><time>2026-04-25T07:39:30.998Z</time></trkpt><trkpt lat="44.76853602517406" lon="9.940891620063432"><ele>415.0</ele><time>2026-04-25T07:39:32.998Z</time></trkpt><trkpt lat="44.76850882672341" lon="9.940809429662934"><ele>415.0</ele><time>2026-04-25T07:39:34.998Z</time></trkpt><trkpt lat="44.76847449671723" lon="9.940729542068288"><ele>415.0</ele><time>2026-04-25T07:39:36.998Z</time></trkpt><trkpt lat="44.76842981589106" lon="9.940662842567136"><ele>415.0</ele><time>2026-04-25T07:39:38.998Z</time></trkpt><trkpt lat="44.76838771490133" lon="9.940592868321891"><ele>416.42857142857144</ele><time>2026-04-25T07:39:41Z</time></trkpt><trkpt lat="44.768337089053915" lon="9.940536327576007"><ele>417.8571428571429</ele><time>2026-04-25T07:39:43Z</time></trkpt><trkpt lat="44.76825518110735" lon="9.940466192878928"><ele>419.2857142857143</ele><time>2026-04-25T07:39:46Z</time></trkpt><trkpt lat="44.76819573385881" lon="9.940426518820905"><ele>420.7142857142857</ele><time>2026-04-25T07:39:48Z</time></trkpt><trkpt lat="44.76812811843504" lon="9.940386711954813"><ele>422.1428571428571</ele><time>2026-04-25T07:39:50Z</time></trkpt><trkpt lat="44.768060136408145" lon="9.940356953746027"><ele>423.57142857142856</ele><time>2026-04-25T07:39:52Z</time></trkpt><trkpt lat="44.7679899248735" lon="9.940330319795544"><ele>425.0</ele><time>2026-04-25T07:39:54Z</time></trkpt><trkpt lat="44.76792161279218" lon="9.94029870118241"><ele>424.99999999999994</ele><time>2026-04-25T07:39:56Z</time></trkpt><trkpt lat="44.76785026350633" lon="9.940283048596417"><ele>425.0</ele><time>2026-04-25T07:39:58Z</time></trkpt><trkpt lat="44.76777989783641" lon="9.940282709528867"><ele>425.0</ele><time>2026-04-25T07:40:00Z</time></trkpt><trkpt lat="44.76770877039631" lon="9.94029408145902"><ele>425.0</ele><time>2026-04-25T07:40:03Z</time></trkpt><trkpt lat="44.76754701966389" lon="9.940309619137112"><ele>424.99999999999994</ele><time>2026-04-25T07:40:06Z</time></trkpt><trkpt lat="44.767475973321176" lon="9.940324555586502"><ele>425.0</ele><time>2026-04-25T07:40:08Z</time></trkpt><trkpt lat="44.76740621696069" lon="9.940339156318034"><ele>425.66666666666663</ele><time>2026-04-25T07:40:10Z</time></trkpt><trkpt lat="44.76731450854443" lon="9.940358820802851"><ele>426.3333333333333</ele><time>2026-04-25T07:40:13Z</time></trkpt><trkpt lat="44.767244202535935" lon="9.940369387382038"><ele>427.0</ele><time>2026-04-25T07:40:15Z</time></trkpt><trkpt lat="44.767173026371026" lon="9.940382118100448"><ele>427.66666666666663</ele><time>2026-04-25T07:40:17Z</time></trkpt><trkpt lat="44.767106310356915" lon="9.940397098301244"><ele>428.3333333333333</ele><time>2026-04-25T07:40:19Z</time></trkpt><trkpt lat="44.767036068007236" lon="9.94041896106187"><ele>429.0</ele><time>2026-04-25T07:40:21Z</time></trkpt><trkpt lat="44.76694699116308" lon="9.940450240163537"><ele>429.0</ele><time>2026-04-25T07:40:24Z</time></trkpt><trkpt lat="44.76688068917252" lon="9.940460094082688"><ele>429.0</ele><time>2026-04-25T07:40:26Z</time></trkpt><trkpt lat="44.76678299951251" lon="9.940486627701912"><ele>429.0</ele><time>2026-04-25T07:40:29Z</time></trkpt><trkpt lat="44.76671959348464" lon="9.940507561335401"><ele>429.0</ele><time>2026-04-25T07:40:31Z</time></trkpt><trkpt lat="44.766656192118816" lon="9.940524223323004"><ele>429.0</ele><time>2026-04-25T07:40:33Z</time></trkpt><trkpt lat="44.7665932429511" lon="9.940543517240743"><ele>429.0</ele><time>2026-04-25T07:40:35Z</time></trkpt><trkpt lat="44.76653360667019" lon="9.940571948688582"><ele>429.0</ele><time>2026-04-25T07:40:36.999Z</time></trkpt><trkpt lat="44.76644717143857" lon="9.940609573069624"><ele>429.5</ele><time>2026-04-25T07:40:39.999Z</time></trkpt><trkpt lat="44.76637147286473" lon="9.940650309942537"><ele>430.0</ele><time>2026-04-25T07:40:42.999Z</time></trkpt><trkpt lat="44.76628485623286" lon="9.940692308512883"><ele>430.5</ele><time>2026-04-25T07:40:45.999Z</time></trkpt><trkpt lat="44.76619409659486" lon="9.940730528415632"><ele>431.0</ele><time>2026-04-25T07:40:48.999Z</time></trkpt><trkpt lat="44.766131745980225" lon="9.940758358046663"><ele>431.5</ele><time>2026-04-25T07:40:50.999Z</time></trkpt><trkpt lat="44.76606886548624" lon="9.940787062365331"><ele>432.0</ele><time>2026-04-25T07:40:52.999Z</time></trkpt><trkpt lat="44.76600774461411" lon="9.940812951426231"><ele>432.0</ele><time>2026-04-25T07:40:54.999Z</time></trkpt><trkpt lat="44.76594305877285" lon="9.940839844116686"><ele>432.0</ele><time>2026-04-25T07:40:56.999Z</time></trkpt><trkpt lat="44.76587233327307" lon="9.94086574437148"><ele>432.0</ele><time>2026-04-25T07:40:58.999Z</time></trkpt><trkpt lat="44.76579849718122" lon="9.940899308449014"><ele>432.0</ele><time>2026-04-25T07:41:00.999Z</time></trkpt><trkpt lat="44.76573692806333" lon="9.94093099267482"><ele>432.0</ele><time>2026-04-25T07:41:02.999Z</time></trkpt><trkpt lat="44.765673485738176" lon="9.940963749895989"><ele>432.0</ele><time>2026-04-25T07:41:04.999Z</time></trkpt><trkpt lat="44.76561308184004" lon="9.940996956426938"><ele>432.0</ele><time>2026-04-25T07:41:06.999Z</time></trkpt><trkpt lat="44.76555586327743" lon="9.941039057315011"><ele>432.0</ele><time>2026-04-25T07:41:08.999Z</time></trkpt><trkpt lat="44.76547053061644" lon="9.941095298470755"><ele>432.0</ele><time>2026-04-25T07:41:11.999Z</time></trkpt><trkpt lat="44.76541399941848" lon="9.941139091290816"><ele>432.0</ele><time>2026-04-25T07:41:13.999Z</time></trkpt><trkpt lat="44.76535930606925" lon="9.941183187720014"><ele>432.0</ele><time>2026-04-25T07:41:15.999Z</time></trkpt><trkpt lat="44.76530250522863" lon="9.941224567065815"><ele>432.0</ele><time>2026-04-25T07:41:17.999Z</time></trkpt><trkpt lat="44.76521866161357" lon="9.94128068825615"><ele>432.0</ele><time>2026-04-25T07:41:20.999Z</time></trkpt><trkpt lat="44.76513689221315" lon="9.941341369305437"><ele>434.0</ele><time>2026-04-25T07:41:23.999Z</time></trkpt><trkpt lat="44.765058326987905" lon="9.941404625853039"><ele>436.0</ele><time>2026-04-25T07:41:26.999Z</time></trkpt><trkpt lat="44.764992851019315" lon="9.941461853120346"><ele>438.0</ele><time>2026-04-25T07:41:29.999Z</time></trkpt><trkpt lat="44.764920677229405" lon="9.94151498001741"><ele>440.0</ele><time>2026-04-25T07:41:32.998Z</time></trkpt><trkpt lat="44.76486052031917" lon="9.941564080330332"><ele>442.0</ele><time>2026-04-25T07:41:34.998Z</time></trkpt><trkpt lat="44.764797682492365" lon="9.941607710574964"><ele>444.0</ele><time>2026-04-25T07:41:36.998Z</time></trkpt><trkpt lat="44.76471850673974" lon="9.941664333714094"><ele>443.0</ele><time>2026-04-25T07:41:39.998Z</time></trkpt><trkpt lat="44.764638344603654" lon="9.94172366460495"><ele>442.0</ele><time>2026-04-25T07:41:42.998Z</time></trkpt><trkpt lat="44.7645628398313" lon="9.941784127977849"><ele>441.0</ele><time>2026-04-25T07:41:45.998Z</time></trkpt><trkpt lat="44.76448665241812" lon="9.94184021456444"><ele>440.0</ele><time>2026-04-25T07:41:49Z</time></trkpt><trkpt lat="44.76441352491238" lon="9.94189808089321"><ele>439.0</ele><time>2026-04-25T07:41:52Z</time></trkpt><trkpt lat="44.764349971512324" lon="9.941945819041472"><ele>438.0</ele><time>2026-04-25T07:41:55Z</time></trkpt><trkpt lat="44.764285524708185" lon="9.941994946207354"><ele>440.8333333333333</ele><time>2026-04-25T07:41:58Z</time></trkpt><trkpt lat="44.76421649457673" lon="9.942047182448155"><ele>443.66666666666663</ele><time>2026-04-25T07:42:01Z</time></trkpt><trkpt lat="44.764150579078866" lon="9.942102724509681"><ele>446.5</ele><time>2026-04-25T07:42:04Z</time></trkpt><trkpt lat="44.764083987498566" lon="9.942159094196402"><ele>449.3333333333333</ele><time>2026-04-25T07:42:07Z</time></trkpt><trkpt lat="44.76401889386203" lon="9.94221899715638"><ele>452.16666666666663</ele><time>2026-04-25T07:42:10Z</time></trkpt><trkpt lat="44.7639557057877" lon="9.942289212274513"><ele>455.0</ele><time>2026-04-25T07:42:13Z</time></trkpt><trkpt lat="44.763899139379454" lon="9.942359023657735"><ele>454.99999999999994</ele><time>2026-04-25T07:42:16Z</time></trkpt><trkpt lat="44.76383095467546" lon="9.942422433657196"><ele>455.0</ele><time>2026-04-25T07:42:19Z</time></trkpt><trkpt lat="44.76376481131872" lon="9.942485989046482"><ele>455.0</ele><time>2026-04-25T07:42:22Z</time></trkpt><trkpt lat="44.763693307774815" lon="9.942533586509006"><ele>455.0</ele><time>2026-04-25T07:42:25Z</time></trkpt><trkpt lat="44.76361995600793" lon="9.942577170031463"><ele>454.99999999999994</ele><time>2026-04-25T07:42:28Z</time></trkpt><trkpt lat="44.76354773933311" lon="9.94262284621717"><ele>455.0</ele><time>2026-04-25T07:42:31Z</time></trkpt><trkpt lat="44.76347482198396" lon="9.942651453016515"><ele>456.2857142857143</ele><time>2026-04-25T07:42:34Z</time></trkpt><trkpt lat="44.763400268105876" lon="9.942680086198664"><ele>457.57142857142856</ele><time>2026-04-25T07:42:37Z</time></trkpt><trkpt lat="44.76332565749218" lon="9.942705876487983"><ele>458.8571428571429</ele><time>2026-04-25T07:42:40Z</time></trkpt><trkpt lat="44.76325038626355" lon="9.942716255147108"><ele>460.14285714285717</ele><time>2026-04-25T07:42:42.999Z</time></trkpt><trkpt lat="44.7631793605013" lon="9.942679659913674"><ele>461.42857142857144</ele><time>2026-04-25T07:42:45.999Z</time></trkpt><trkpt lat="44.76315127727472" lon="9.942591591653038"><ele>462.7142857142858</ele><time>2026-04-25T07:42:48.999Z</time></trkpt><trkpt lat="44.7631627227205" lon="9.942493439701241"><ele>464.00000000000006</ele><time>2026-04-25T07:42:51.999Z</time></trkpt><trkpt lat="44.763190428869535" lon="9.942394878846452"><ele>464.3333333333333</ele><time>2026-04-25T07:42:54.999Z</time></trkpt><trkpt lat="44.763225677859296" lon="9.942300435923757"><ele>464.66666666666663</ele><time>2026-04-25T07:42:57.999Z</time></trkpt><trkpt lat="44.76326230117238" lon="9.942206310955525"><ele>465.0</ele><time>2026-04-25T07:43:00.999Z</time></trkpt><trkpt lat="44.763300049361185" lon="9.942113307713356"><ele>465.33333333333337</ele><time>2026-04-25T07:43:03.999Z</time></trkpt><trkpt lat="44.763337838224125" lon="9.942020987080394"><ele>465.6666666666667</ele><time>2026-04-25T07:43:06.999Z</time></trkpt><trkpt lat="44.76337619429266" lon="9.941931548554424"><ele>466.0</ele><time>2026-04-25T07:43:09.999Z</time></trkpt><trkpt lat="44.763420250231874" lon="9.941841466781238"><ele>466.00000000000006</ele><time>2026-04-25T07:43:12.999Z</time></trkpt><trkpt lat="44.76346812589812" lon="9.941754770985444"><ele>466.0</ele><time>2026-04-25T07:43:15.999Z</time></trkpt><trkpt lat="44.763514690345275" lon="9.941665208643865"><ele>466.0</ele><time>2026-04-25T07:43:18.999Z</time></trkpt><trkpt lat="44.76356338615025" lon="9.941580092536572"><ele>466.0</ele><time>2026-04-25T07:43:21.999Z</time></trkpt><trkpt lat="44.763614517123045" lon="9.9414868845926"><ele>466.00000000000006</ele><time>2026-04-25T07:43:24.999Z</time></trkpt><trkpt lat="44.76366037582116" lon="9.941386939177798"><ele>466.0</ele><time>2026-04-25T07:43:27.999Z</time></trkpt><trkpt lat="44.76371250812802" lon="9.941300636163005"><ele>465.1666666666667</ele><time>2026-04-25T07:43:30.999Z</time></trkpt><trkpt lat="44.763765573902454" lon="9.941201410382918"><ele>464.33333333333337</ele><time>2026-04-25T07:43:33.999Z</time></trkpt><trkpt lat="44.76380168502076" lon="9.941126183901412"><ele>463.5</ele><time>2026-04-25T07:43:35.999Z</time></trkpt><trkpt lat="44.763840530104744" lon="9.94103555242872"><ele>462.66666666666663</ele><time>2026-04-25T07:43:38.998Z</time></trkpt><trkpt lat="44.763885582823896" lon="9.94093915107437"><ele>461.8333333333333</ele><time>2026-04-25T07:43:41.998Z</time></trkpt><trkpt lat="44.76392355218316" lon="9.940829734037253"><ele>461.0</ele><time>2026-04-25T07:43:44.998Z</time></trkpt><trkpt lat="44.76395160138341" lon="9.940732226526796"><ele>462.66666666666663</ele><time>2026-04-25T07:43:47.998Z</time></trkpt><trkpt lat="44.76397239975247" lon="9.940623394087421"><ele>464.3333333333333</ele><time>2026-04-25T07:43:50.998Z</time></trkpt><trkpt lat="44.763960593173096" lon="9.940519886433316"><ele>466.0</ele><time>2026-04-25T07:43:54Z</time></trkpt><trkpt lat="44.76388687044136" lon="9.940482393440336"><ele>467.66666666666663</ele><time>2026-04-25T07:43:57Z</time></trkpt><trkpt lat="44.76381600645671" lon="9.940524764294116"><ele>469.3333333333333</ele><time>2026-04-25T07:43:59Z</time></trkpt><trkpt lat="44.76376812962003" lon="9.940620295169225"><ele>471.0</ele><time>2026-04-25T07:44:02Z</time></trkpt><trkpt lat="44.76371568928317" lon="9.94071511043176"><ele>471.0</ele><time>2026-04-25T07:44:05Z</time></trkpt><trkpt lat="44.76365721948692" lon="9.940801394615976"><ele>471.0</ele><time>2026-04-25T07:44:08Z</time></trkpt><trkpt lat="44.763586940337" lon="9.940878452838353"><ele>471.0</ele><time>2026-04-25T07:44:11Z</time></trkpt><trkpt lat="44.763514265423694" lon="9.940932752986221"><ele>471.0</ele><time>2026-04-25T07:44:14Z</time></trkpt><trkpt lat="44.76343673948569" lon="9.940981311951528"><ele>471.0</ele><time>2026-04-25T07:44:17Z</time></trkpt><trkpt lat="44.76335911690024" lon="9.941024230133836"><ele>471.0</ele><time>2026-04-25T07:44:20Z</time></trkpt><trkpt lat="44.763279458459124" lon="9.941072305165394"><ele>472.1666666666667</ele><time>2026-04-25T07:44:23Z</time></trkpt><trkpt lat="44.763197250686936" lon="9.941113691705748"><ele>473.33333333333337</ele><time>2026-04-25T07:44:26Z</time></trkpt><trkpt lat="44.763115947633274" lon="9.94114133548196"><ele>474.5</ele><time>2026-04-25T07:44:29Z</time></trkpt><trkpt lat="44.763027120787264" lon="9.941130168248414"><ele>475.6666666666667</ele><time>2026-04-25T07:44:32Z</time></trkpt><trkpt lat="44.76296585982483" lon="9.941101173830234"><ele>476.83333333333337</ele><time>2026-04-25T07:44:34Z</time></trkpt><trkpt lat="44.762902325772004" lon="9.941074319392584"><ele>478.0</ele><time>2026-04-25T07:44:36Z</time></trkpt><trkpt lat="44.76281460189054" lon="9.941028188206474"><ele>478.00000000000006</ele><time>2026-04-25T07:44:39Z</time></trkpt><trkpt lat="44.76272666046359" lon="9.940991382346214"><ele>478.0</ele><time>2026-04-25T07:44:42Z</time></trkpt><trkpt lat="44.76263528404699" lon="9.94099649567254"><ele>478.0</ele><time>2026-04-25T07:44:44.999Z</time></trkpt><trkpt lat="44.762566984281946" lon="9.941049595575217"><ele>478.0</ele><time>2026-04-25T07:44:47.999Z</time></trkpt><trkpt lat="44.762493646716486" lon="9.941130838642616"><ele>478.00000000000006</ele><time>2026-04-25T07:44:49.999Z</time></trkpt><trkpt lat="44.762431460926" lon="9.941229551081726"><ele>478.0</ele><time>2026-04-25T07:44:52.999Z</time></trkpt><trkpt lat="44.76238571314179" lon="9.94129676285762"><ele>480.1666666666667</ele><time>2026-04-25T07:44:54.999Z</time></trkpt><trkpt lat="44.762344849619645" lon="9.941368027570771"><ele>482.33333333333337</ele><time>2026-04-25T07:44:56.999Z</time></trkpt><trkpt lat="44.76227910741946" lon="9.941463359351026"><ele>484.5</ele><time>2026-04-25T07:44:59.999Z</time></trkpt><trkpt lat="44.76221008205437" lon="9.941545430988423"><ele>486.66666666666663</ele><time>2026-04-25T07:45:02.999Z</time></trkpt><trkpt lat="44.76213117370928" lon="9.941603955688803"><ele>488.8333333333333</ele><time>2026-04-25T07:45:05.999Z</time></trkpt><trkpt lat="44.76206169603474" lon="9.941626066648446"><ele>491.0</ele><time>2026-04-25T07:45:07.999Z</time></trkpt><trkpt lat="44.76196414608678" lon="9.941631233361246"><ele>490.99999999999994</ele><time>2026-04-25T07:45:10.999Z</time></trkpt><trkpt lat="44.761896283981606" lon="9.941633321101177"><ele>491.0</ele><time>2026-04-25T07:45:12.999Z</time></trkpt><trkpt lat="44.76180338514242" lon="9.941619195438731"><ele>491.0</ele><time>2026-04-25T07:45:15.999Z</time></trkpt><trkpt lat="44.76173168595917" lon="9.941609588569994"><ele>491.0</ele><time>2026-04-25T07:45:17.999Z</time></trkpt><trkpt lat="44.7616644815515" lon="9.941628108524801"><ele>490.99999999999994</ele><time>2026-04-25T07:45:20.999Z</time></trkpt><trkpt lat="44.76157299911728" lon="9.94166807896356"><ele>491.0</ele><time>2026-04-25T07:45:23.999Z</time></trkpt><trkpt lat="44.76149166787209" lon="9.941725050344916"><ele>491.57142857142856</ele><time>2026-04-25T07:45:26.999Z</time></trkpt><trkpt lat="44.7614263052321" lon="9.941786490327551"><ele>492.1428571428571</ele><time>2026-04-25T07:45:28.999Z</time></trkpt><trkpt lat="44.76136397897181" lon="9.9418518218131"><ele>492.71428571428567</ele><time>2026-04-25T07:45:30.999Z</time></trkpt><trkpt lat="44.761315030569826" lon="9.941916826875834"><ele>493.2857142857142</ele><time>2026-04-25T07:45:32.999Z</time></trkpt><trkpt lat="44.76126954697441" lon="9.941984621336122"><ele>493.85714285714283</ele><time>2026-04-25T07:45:34.999Z</time></trkpt><trkpt lat="44.761219306652464" lon="9.942062156789394"><ele>494.42857142857133</ele><time>2026-04-25T07:45:36.999Z</time></trkpt><trkpt lat="44.76117819488222" lon="9.94213863475097"><ele>494.99999999999994</ele><time>2026-04-25T07:45:38.999Z</time></trkpt><trkpt lat="44.7611244920318" lon="9.94224398546463"><ele>495.0</ele><time>2026-04-25T07:45:41.998Z</time></trkpt><trkpt lat="44.761087957903015" lon="9.942317605862668"><ele>495.0</ele><time>2026-04-25T07:45:43.998Z</time></trkpt><trkpt lat="44.76103267495214" lon="9.94242781496931"><ele>495.0</ele><time>2026-04-25T07:45:46.998Z</time></trkpt><trkpt lat="44.76100067298013" lon="9.942507138984954"><ele>495.0</ele><time>2026-04-25T07:45:48.998Z</time></trkpt><trkpt lat="44.7609590887286" lon="9.942618944055793"><ele>495.0</ele><time>2026-04-25T07:45:51.998Z</time></trkpt><trkpt lat="44.76093542957214" lon="9.942747838681704"><ele>495.0</ele><time>2026-04-25T07:45:54.998Z</time></trkpt><trkpt lat="44.76093210822101" lon="9.94283876877644"><ele>494.8571428571428</ele><time>2026-04-25T07:45:56.998Z</time></trkpt><trkpt lat="44.760937193381494" lon="9.942931827771034"><ele>494.71428571428567</ele><time>2026-04-25T07:45:59Z</time></trkpt><trkpt lat="44.760956677993015" lon="9.943019448294994"><ele>494.57142857142856</ele><time>2026-04-25T07:46:01Z</time></trkpt><trkpt lat="44.76097750900118" lon="9.943109276935981"><ele>494.4285714285714</ele><time>2026-04-25T07:46:03Z</time></trkpt><trkpt lat="44.761000100842885" lon="9.943196343317092"><ele>494.2857142857142</ele><time>2026-04-25T07:46:05Z</time></trkpt><trkpt lat="44.761020793864866" lon="9.943282622641055"><ele>494.14285714285717</ele><time>2026-04-25T07:46:07Z</time></trkpt><trkpt lat="44.76103220393313" lon="9.943370734322468"><ele>494.0</ele><time>2026-04-25T07:46:09Z</time></trkpt><trkpt lat="44.76103352120065" lon="9.943467916517752"><ele>496.28571428571433</ele><time>2026-04-25T07:46:11Z</time></trkpt><trkpt lat="44.7610220727255" lon="9.94355828508874"><ele>498.57142857142856</ele><time>2026-04-25T07:46:13Z</time></trkpt><trkpt lat="44.761011033296704" lon="9.943650566333096"><ele>500.8571428571429</ele><time>2026-04-25T07:46:15Z</time></trkpt><trkpt lat="44.760995225744594" lon="9.943740783037477"><ele>503.14285714285717</ele><time>2026-04-25T07:46:17Z</time></trkpt><trkpt lat="44.76097523820546" lon="9.943830415287394"><ele>505.42857142857144</ele><time>2026-04-25T07:46:19Z</time></trkpt><trkpt lat="44.7609511474803" lon="9.94391964647102"><ele>507.7142857142857</ele><time>2026-04-25T07:46:21Z</time></trkpt><trkpt lat="44.7608905059707" lon="9.944022877835383"><ele>510.0</ele><time>2026-04-25T07:46:24Z</time></trkpt><trkpt lat="44.760797177442264" lon="9.94402194919311"><ele>510.0</ele><time>2026-04-25T07:46:27Z</time></trkpt><trkpt lat="44.76075197763068" lon="9.943956237889225"><ele>510.0</ele><time>2026-04-25T07:46:29Z</time></trkpt><trkpt lat="44.7607077133144" lon="9.943843803870896"><ele>510.0</ele><time>2026-04-25T07:46:32Z</time></trkpt><trkpt lat="44.76067286928572" lon="9.943721474851715"><ele>510.0</ele><time>2026-04-25T07:46:35Z</time></trkpt><trkpt lat="44.760644393476504" lon="9.943597129667697"><ele>510.0</ele><time>2026-04-25T07:46:38Z</time></trkpt><trkpt lat="44.760620903565815" lon="9.943473118653012"><ele>510.0</ele><time>2026-04-25T07:46:41Z</time></trkpt><trkpt lat="44.76059843643368" lon="9.94334608757227"><ele>510.7142857142857</ele><time>2026-04-25T07:46:44Z</time></trkpt><trkpt lat="44.760568943007385" lon="9.943220261586465"><ele>511.42857142857144</ele><time>2026-04-25T07:46:47Z</time></trkpt><trkpt lat="44.76054486728445" lon="9.943136313166276"><ele>512.1428571428571</ele><time>2026-04-25T07:46:49Z</time></trkpt><trkpt lat="44.76051420253401" lon="9.943055295972043"><ele>512.8571428571429</ele><time>2026-04-25T07:46:51Z</time></trkpt><trkpt lat="44.76048167607553" lon="9.942977809119922"><ele>513.5714285714286</ele><time>2026-04-25T07:46:52.999Z</time></trkpt><trkpt lat="44.76044294904644" lon="9.94289870851802"><ele>514.2857142857143</ele><time>2026-04-25T07:46:54.999Z</time></trkpt><trkpt lat="44.76039771830313" lon="9.942823679316604"><ele>515.0</ele><time>2026-04-25T07:46:56.999Z</time></trkpt><trkpt lat="44.76035939456367" lon="9.942746149858529"><ele>515.0</ele><time>2026-04-25T07:46:58.999Z</time></trkpt><trkpt lat="44.760319850810205" lon="9.942667252820913"><ele>515.0</ele><time>2026-04-25T07:47:00.999Z</time></trkpt><trkpt lat="44.760294069951684" lon="9.942579488920634"><ele>515.0</ele><time>2026-04-25T07:47:02.999Z</time></trkpt><trkpt lat="44.760282433695316" lon="9.942481200709116"><ele>515.0</ele><time>2026-04-25T07:47:04.999Z</time></trkpt><trkpt lat="44.76029228449452" lon="9.942379292261903"><ele>515.0</ele><time>2026-04-25T07:47:06.999Z</time></trkpt><trkpt lat="44.76030553714322" lon="9.942277129599091"><ele>515.0</ele><time>2026-04-25T07:47:08.999Z</time></trkpt><trkpt lat="44.76032137800031" lon="9.942170635776034"><ele>515.0</ele><time>2026-04-25T07:47:11.999Z</time></trkpt><trkpt lat="44.76033201779415" lon="9.942082228263661"><ele>515.0</ele><time>2026-04-25T07:47:13.999Z</time></trkpt><trkpt lat="44.76035225753582" lon="9.941988654279765"><ele>515.0</ele><time>2026-04-25T07:47:15.999Z</time></trkpt><trkpt lat="44.76038285459756" lon="9.941838700595076"><ele>515.0</ele><time>2026-04-25T07:47:18.999Z</time></trkpt><trkpt lat="44.760405775198315" lon="9.941722272235587"><ele>515.0</ele><time>2026-04-25T07:47:20.999Z</time></trkpt><trkpt lat="44.760426504163824" lon="9.941615831293683"><ele>515.0</ele><time>2026-04-25T07:47:22.999Z</time></trkpt><trkpt lat="44.760450411788035" lon="9.941519673142242"><ele>515.0</ele><time>2026-04-25T07:47:24.999Z</time></trkpt><trkpt lat="44.760470274713704" lon="9.941421471389026"><ele>515.0</ele><time>2026-04-25T07:47:26.999Z</time></trkpt><trkpt lat="44.76048250035387" lon="9.941327510711034"><ele>515.0</ele><time>2026-04-25T07:47:28.999Z</time></trkpt><trkpt lat="44.76052259997361" lon="9.941202609185877"><ele>515.0</ele><time>2026-04-25T07:47:31.999Z</time></trkpt><trkpt lat="44.760560734544676" lon="9.941090534049316"><ele>515.0</ele><time>2026-04-25T07:47:34.999Z</time></trkpt><trkpt lat="44.76059771263137" lon="9.940988011171026"><ele>515.0</ele><time>2026-04-25T07:47:37.999Z</time></trkpt><trkpt lat="44.76064210707115" lon="9.94088925677907"><ele>515.0</ele><time>2026-04-25T07:47:39.999Z</time></trkpt><trkpt lat="44.760695972261715" lon="9.94081011734384"><ele>516.8333333333333</ele><time>2026-04-25T07:47:41.999Z</time></trkpt><trkpt lat="44.7607417775974" lon="9.940737359823096"><ele>518.6666666666666</ele><time>2026-04-25T07:47:43.999Z</time></trkpt><trkpt lat="44.76078186469991" lon="9.940666955239855"><ele>520.5</ele><time>2026-04-25T07:47:45.999Z</time></trkpt><trkpt lat="44.76082701772347" lon="9.940599599423512"><ele>522.3333333333334</ele><time>2026-04-25T07:47:47.998Z</time></trkpt><trkpt lat="44.76087190760138" lon="9.94052956131149"><ele>524.1666666666667</ele><time>2026-04-25T07:47:49.998Z</time></trkpt><trkpt lat="44.760937788534186" lon="9.940435266121353"><ele>526.0</ele><time>2026-04-25T07:47:52.998Z</time></trkpt><trkpt lat="44.76099735800193" lon="9.940333883667806"><ele>526.0</ele><time>2026-04-25T07:47:55.998Z</time></trkpt><trkpt lat="44.76102162634721" lon="9.940251602603148"><ele>526.0</ele><time>2026-04-25T07:47:57.998Z</time></trkpt><trkpt lat="44.76100731094165" lon="9.940126153250176"><ele>526.0</ele><time>2026-04-25T07:48:00.998Z</time></trkpt><trkpt lat="44.76092991721272" lon="9.940052299610732"><ele>526.0</ele><time>2026-04-25T07:48:04Z</time></trkpt><trkpt lat="44.76083927272332" lon="9.940065489010726"><ele>526.0</ele><time>2026-04-25T07:48:07Z</time></trkpt><trkpt lat="44.760750856752026" lon="9.940094074295285"><ele>526.0</ele><time>2026-04-25T07:48:10Z</time></trkpt><trkpt lat="44.76066582746262" lon="9.940131041624953"><ele>526.0</ele><time>2026-04-25T07:48:13Z</time></trkpt><trkpt lat="44.76057569275791" lon="9.940168638520593"><ele>526.0</ele><time>2026-04-25T07:48:16Z</time></trkpt><trkpt lat="44.760514112463035" lon="9.940190316008037"><ele>526.0</ele><time>2026-04-25T07:48:18Z</time></trkpt><trkpt lat="44.7604234659737" lon="9.940218380937432"><ele>526.0</ele><time>2026-04-25T07:48:21Z</time></trkpt><trkpt lat="44.76033356094224" lon="9.94025514789673"><ele>526.0</ele><time>2026-04-25T07:48:24Z</time></trkpt><trkpt lat="44.76024511042191" lon="9.940292468425968"><ele>526.0</ele><time>2026-04-25T07:48:27Z</time></trkpt><trkpt lat="44.76018678716659" lon="9.940330105949066"><ele>528.0</ele><time>2026-04-25T07:48:29Z</time></trkpt><trkpt lat="44.76012990412342" lon="9.940374797149381"><ele>530.0</ele><time>2026-04-25T07:48:31Z</time></trkpt><trkpt lat="44.760082207783746" lon="9.94043703577958"><ele>532.0</ele><time>2026-04-25T07:48:33Z</time></trkpt><trkpt lat="44.76003554002364" lon="9.940497961864182"><ele>534.0</ele><time>2026-04-25T07:48:35Z</time></trkpt><trkpt lat="44.75999516974419" lon="9.940570091842547"><ele>536.0</ele><time>2026-04-25T07:48:37Z</time></trkpt><trkpt lat="44.75995039612411" lon="9.940635764563165"><ele>538.0</ele><time>2026-04-25T07:48:39Z</time></trkpt><trkpt lat="44.75990574958329" lon="9.940703586457568"><ele>540.0</ele><time>2026-04-25T07:48:41Z</time></trkpt><trkpt lat="44.75987123816625" lon="9.940779935062723"><ele>540.0</ele><time>2026-04-25T07:48:43Z</time></trkpt><trkpt lat="44.75982211090155" lon="9.940840283494904"><ele>540.0</ele><time>2026-04-25T07:48:45Z</time></trkpt><trkpt lat="44.75978422411462" lon="9.940914146436759"><ele>540.0</ele><time>2026-04-25T07:48:47Z</time></trkpt><trkpt lat="44.75973219894201" lon="9.940977285070538"><ele>540.0</ele><time>2026-04-25T07:48:49Z</time></trkpt><trkpt lat="44.75969059427771" lon="9.941048889839601"><ele>540.0</ele><time>2026-04-25T07:48:51Z</time></trkpt><trkpt lat="44.75965197041763" lon="9.941123601194668"><ele>540.0</ele><time>2026-04-25T07:48:53Z</time></trkpt><trkpt lat="44.759610200354636" lon="9.941194302030599"><ele>540.0</ele><time>2026-04-25T07:48:54.999Z</time></trkpt><trkpt lat="44.75957243666155" lon="9.941272438279219"><ele>538.6666666666666</ele><time>2026-04-25T07:48:56.999Z</time></trkpt><trkpt lat="44.75953414258558" lon="9.941346511850947"><ele>537.3333333333334</ele><time>2026-04-25T07:48:58.999Z</time></trkpt><trkpt lat="44.759480534704196" lon="9.941455526769989"><ele>536.0</ele><time>2026-04-25T07:49:01.999Z</time></trkpt><trkpt lat="44.75942402680136" lon="9.941565624053135"><ele>534.6666666666667</ele><time>2026-04-25T07:49:04.999Z</time></trkpt><trkpt lat="44.75937580957818" lon="9.941674076830857"><ele>533.3333333333334</ele><time>2026-04-25T07:49:07.999Z</time></trkpt><trkpt lat="44.75933035741814" lon="9.941746185208595"><ele>532.0</ele><time>2026-04-25T07:49:09.999Z</time></trkpt><trkpt lat="44.759289611503405" lon="9.941849319476686"><ele>534.6666666666667</ele><time>2026-04-25T07:49:12.999Z</time></trkpt><trkpt lat="44.75925177385306" lon="9.941928675278474"><ele>537.3333333333334</ele><time>2026-04-25T07:49:14.999Z</time></trkpt><trkpt lat="44.75920277421562" lon="9.942033300879508"><ele>540.0</ele><time>2026-04-25T07:49:17.999Z</time></trkpt><trkpt lat="44.75915057827837" lon="9.942141141245745"><ele>542.6666666666666</ele><time>2026-04-25T07:49:20.999Z</time></trkpt><trkpt lat="44.75912899684835" lon="9.942224741146717"><ele>545.3333333333333</ele><time>2026-04-25T07:49:22.999Z</time></trkpt><trkpt lat="44.75910142929578" lon="9.942346252384045"><ele>548.0</ele><time>2026-04-25T07:49:25.999Z</time></trkpt><trkpt lat="44.75909206549625" lon="9.942434736228622"><ele>547.5714285714287</ele><time>2026-04-25T07:49:27.999Z</time></trkpt><trkpt lat="44.75907911048419" lon="9.94256704211476"><ele>547.1428571428571</ele><time>2026-04-25T07:49:30.999Z</time></trkpt><trkpt lat="44.75907830241219" lon="9.942697922257624"><ele>546.7142857142858</ele><time>2026-04-25T07:49:33.999Z</time></trkpt><trkpt lat="44.75907972709275" lon="9.942787551000672"><ele>546.2857142857143</ele><time>2026-04-25T07:49:35.999Z</time></trkpt><trkpt lat="44.75908331300142" lon="9.942878559985603"><ele>545.8571428571429</ele><time>2026-04-25T07:49:37.999Z</time></trkpt><trkpt lat="44.759077378274675" lon="9.942967536292949"><ele>545.4285714285714</ele><time>2026-04-25T07:49:39.999Z</time></trkpt><trkpt lat="44.75903302802745" lon="9.943032850649345"><ele>545.0</ele><time>2026-04-25T07:49:41.999Z</time></trkpt><trkpt lat="44.75896891140106" lon="9.943015593926553"><ele>545.0</ele><time>2026-04-25T07:49:43.999Z</time></trkpt><trkpt lat="44.75894068277934" lon="9.94293470671822"><ele>545.0</ele><time>2026-04-25T07:49:45.999Z</time></trkpt><trkpt lat="44.75892863324223" lon="9.942807447299334"><ele>545.0</ele><time>2026-04-25T07:49:48.999Z</time></trkpt><trkpt lat="44.758913723967375" lon="9.942692561764192"><ele>545.0</ele><time>2026-04-25T07:49:51.998Z</time></trkpt><trkpt lat="44.75889744956093" lon="9.942574455110488"><ele>545.0</ele><time>2026-04-25T07:49:54.998Z</time></trkpt><trkpt lat="44.75888852227374" lon="9.942455103409369"><ele>545.0</ele><time>2026-04-25T07:49:57.998Z</time></trkpt><trkpt lat="44.75887346175592" lon="9.942331679729145"><ele>545.5</ele><time>2026-04-25T07:50:00.998Z</time></trkpt><trkpt lat="44.758869754110655" lon="9.942213348562134"><ele>546.0</ele><time>2026-04-25T07:50:03.998Z</time></trkpt><trkpt lat="44.75887329194076" lon="9.942093783144465"><ele>546.5</ele><time>2026-04-25T07:50:06.998Z</time></trkpt><trkpt lat="44.75888836840865" lon="9.941977430317387"><ele>547.0</ele><time>2026-04-25T07:50:10Z</time></trkpt><trkpt lat="44.75890430760426" lon="9.941860577273118"><ele>547.5</ele><time>2026-04-25T07:50:13Z</time></trkpt><trkpt lat="44.75892451626431" lon="9.941744769146187"><ele>548.0</ele><time>2026-04-25T07:50:16Z</time></trkpt><trkpt lat="44.75894963006441" lon="9.941629914840858"><ele>549.3333333333333</ele><time>2026-04-25T07:50:19Z</time></trkpt><trkpt lat="44.758970284660776" lon="9.941517273608852"><ele>550.6666666666666</ele><time>2026-04-25T07:50:22Z</time></trkpt><trkpt lat="44.75899326491848" lon="9.94139974263245"><ele>552.0</ele><time>2026-04-25T07:50:25Z</time></trkpt><trkpt lat="44.759015222052106" lon="9.941281043491182"><ele>553.3333333333334</ele><time>2026-04-25T07:50:28Z</time></trkpt><trkpt lat="44.7590338311329" lon="9.941160574185616"><ele>554.6666666666667</ele><time>2026-04-25T07:50:31Z</time></trkpt><trkpt lat="44.75904769134895" lon="9.941035709907455"><ele>556.0</ele><time>2026-04-25T07:50:34Z</time></trkpt><trkpt lat="44.75906462830411" lon="9.940912537711286"><ele>557.5</ele><time>2026-04-25T07:50:37Z</time></trkpt><trkpt lat="44.759068453572986" lon="9.940794808373647"><ele>559.0</ele><time>2026-04-25T07:50:40Z</time></trkpt><trkpt lat="44.75905656996246" lon="9.940673051167408"><ele>560.5</ele><time>2026-04-25T07:50:43Z</time></trkpt><trkpt lat="44.75903101322256" lon="9.940591824878714"><ele>562.0</ele><time>2026-04-25T07:50:45Z</time></trkpt><trkpt lat="44.7590083039549" lon="9.940476188437987"><ele>563.5</ele><time>2026-04-25T07:50:48Z</time></trkpt><trkpt lat="44.758997148355114" lon="9.940346502837428"><ele>565.0</ele><time>2026-04-25T07:50:51Z</time></trkpt><trkpt lat="44.759013369311035" lon="9.940220261017807"><ele>565.0</ele><time>2026-04-25T07:50:54Z</time></trkpt><trkpt lat="44.75905480407053" lon="9.940106484306007"><ele>565.0</ele><time>2026-04-25T07:50:57Z</time></trkpt><trkpt lat="44.759105562521185" lon="9.940000137002603"><ele>565.0</ele><time>2026-04-25T07:50:59.999Z</time></trkpt><trkpt lat="44.759151230678114" lon="9.939893183975741"><ele>565.0</ele><time>2026-04-25T07:51:02.999Z</time></trkpt><trkpt lat="44.759186217739085" lon="9.939778803579788"><ele>565.0</ele><time>2026-04-25T07:51:05.999Z</time></trkpt><trkpt lat="44.75919141153386" lon="9.939689172750354"><ele>565.0</ele><time>2026-04-25T07:51:07.999Z</time></trkpt><trkpt lat="44.759190143103915" lon="9.939555980192901"><ele>565.8</ele><time>2026-04-25T07:51:10.999Z</time></trkpt><trkpt lat="44.759172973018885" lon="9.939423201988545"><ele>566.6</ele><time>2026-04-25T07:51:13.999Z</time></trkpt><trkpt lat="44.759146585519545" lon="9.939300503884072"><ele>567.4</ele><time>2026-04-25T07:51:16.999Z</time></trkpt><trkpt lat="44.75910631478865" lon="9.939187721832097"><ele>568.2</ele><time>2026-04-25T07:51:19.999Z</time></trkpt><trkpt lat="44.75905952260022" lon="9.939080186983096"><ele>569.0</ele><time>2026-04-25T07:51:22.999Z</time></trkpt><trkpt lat="44.75899855876071" lon="9.938983796481091"><ele>569.0</ele><time>2026-04-25T07:51:25.999Z</time></trkpt><trkpt lat="44.75892600109929" lon="9.938907019758169"><ele>569.0</ele><time>2026-04-25T07:51:28.999Z</time></trkpt><trkpt lat="44.75884090462956" lon="9.938863442519073"><ele>569.0</ele><time>2026-04-25T07:51:31.999Z</time></trkpt><trkpt lat="44.75877362902957" lon="9.938846732969903"><ele>569.0</ele><time>2026-04-25T07:51:34.999Z</time></trkpt><trkpt lat="44.75870627704284" lon="9.93883671472054"><ele>569.0</ele><time>2026-04-25T07:51:36.999Z</time></trkpt><trkpt lat="44.758616716524166" lon="9.938837245872264"><ele>569.0</ele><time>2026-04-25T07:51:39.999Z</time></trkpt><trkpt lat="44.75853933901986" lon="9.938838158239529"><ele>571.6666666666666</ele><time>2026-04-25T07:51:42.999Z</time></trkpt><trkpt lat="44.75845954280147" lon="9.938817115510595"><ele>574.3333333333333</ele><time>2026-04-25T07:51:44.999Z</time></trkpt><trkpt lat="44.75837853658091" lon="9.938748397356868"><ele>577.0</ele><time>2026-04-25T07:51:47.999Z</time></trkpt><trkpt lat="44.75833202285446" lon="9.9386832322531"><ele>579.6666666666666</ele><time>2026-04-25T07:51:49.999Z</time></trkpt><trkpt lat="44.75829617360247" lon="9.938562745040617"><ele>582.3333333333334</ele><time>2026-04-25T07:51:52.999Z</time></trkpt><trkpt lat="44.75827976803005" lon="9.938475282606616"><ele>585.0</ele><time>2026-04-25T07:51:54.998Z</time></trkpt><trkpt lat="44.758271740854276" lon="9.93838452175746"><ele>585.0</ele><time>2026-04-25T07:51:56.998Z</time></trkpt><trkpt lat="44.7582576956241" lon="9.938296372944302"><ele>585.0</ele><time>2026-04-25T07:51:58.998Z</time></trkpt><trkpt lat="44.758247890310464" lon="9.938207033313196"><ele>585.0</ele><time>2026-04-25T07:52:00.998Z</time></trkpt><trkpt lat="44.75821962200725" lon="9.938120338782795"><ele>585.0</ele><time>2026-04-25T07:52:02.998Z</time></trkpt><trkpt lat="44.75818536626928" lon="9.93804414359967"><ele>585.0</ele><time>2026-04-25T07:52:04.998Z</time></trkpt><trkpt lat="44.75814182990583" lon="9.937977067979109"><ele>585.0</ele><time>2026-04-25T07:52:06.998Z</time></trkpt><trkpt lat="44.758092253029" lon="9.937913831188894"><ele>585.0</ele><time>2026-04-25T07:52:08.998Z</time></trkpt><trkpt lat="44.75804777325283" lon="9.937846590707284"><ele>585.0</ele><time>2026-04-25T07:52:10.998Z</time></trkpt><trkpt lat="44.75801028165134" lon="9.93777225061229"><ele>585.0</ele><time>2026-04-25T07:52:12.998Z</time></trkpt><trkpt lat="44.757981566301154" lon="9.937693279498198"><ele>585.0</ele><time>2026-04-25T07:52:15Z</time></trkpt><trkpt lat="44.75796093910431" lon="9.937607260086496"><ele>585.0</ele><time>2026-04-25T07:52:17Z</time></trkpt><trkpt lat="44.757948407739995" lon="9.937518301341603"><ele>585.0</ele><time>2026-04-25T07:52:19Z</time></trkpt><trkpt lat="44.757934638765505" lon="9.937388495344962"><ele>585.0</ele><time>2026-04-25T07:52:22Z</time></trkpt><trkpt lat="44.757935958043994" lon="9.93729812780059"><ele>585.0</ele><time>2026-04-25T07:52:24Z</time></trkpt><trkpt lat="44.75793645054536" lon="9.937208187596"><ele>584.5</ele><time>2026-04-25T07:52:26Z</time></trkpt><trkpt lat="44.757948788186845" lon="9.93707848275665"><ele>584.0</ele><time>2026-04-25T07:52:29Z</time></trkpt><trkpt lat="44.75797251043017" lon="9.936953125494082"><ele>583.5</ele><time>2026-04-25T07:52:32Z</time></trkpt><trkpt lat="44.75799614972902" lon="9.93686944878365"><ele>583.0</ele><time>2026-04-25T07:52:34Z</time></trkpt><trkpt lat="44.75802649947256" lon="9.9367911658975"><ele>582.5</ele><time>2026-04-25T07:52:36Z</time></trkpt><trkpt lat="44.75808108022317" lon="9.936679650834344"><ele>582.0</ele><time>2026-04-25T07:52:39Z</time></trkpt><trkpt lat="44.75812041476606" lon="9.936606326118287"><ele>583.0</ele><time>2026-04-25T07:52:41Z</time></trkpt><trkpt lat="44.758186607316354" lon="9.936523867579188"><ele>584.0</ele><time>2026-04-25T07:52:44Z</time></trkpt><trkpt lat="44.75826180723304" lon="9.936458276078557"><ele>585.0</ele><time>2026-04-25T07:52:47Z</time></trkpt><trkpt lat="44.75833386538208" lon="9.936386103496144"><ele>586.0</ele><time>2026-04-25T07:52:50Z</time></trkpt><trkpt lat="44.75838363466151" lon="9.936278807290524"><ele>587.0</ele><time>2026-04-25T07:52:53Z</time></trkpt><trkpt lat="44.75835911907195" lon="9.936152538864135"><ele>588.0</ele><time>2026-04-25T07:52:56Z</time></trkpt><trkpt lat="44.75828629923931" lon="9.936071379823675"><ele>588.0</ele><time>2026-04-25T07:52:59Z</time></trkpt><trkpt lat="44.75819953228751" lon="9.93602229337154"><ele>588.0</ele><time>2026-04-25T07:53:02Z</time></trkpt><trkpt lat="44.758112070025646" lon="9.935988151446148"><ele>588.0</ele><time>2026-04-25T07:53:04.999Z</time></trkpt><trkpt lat="44.758024042586236" lon="9.935975552693023"><ele>588.0</ele><time>2026-04-25T07:53:07.999Z</time></trkpt><trkpt lat="44.7579330415016" lon="9.935971721166224"><ele>588.0</ele><time>2026-04-25T07:53:10.999Z</time></trkpt><trkpt lat="44.75785137584383" lon="9.93601052850939"><ele>588.0</ele><time>2026-04-25T07:53:13.999Z</time></trkpt><trkpt lat="44.757775453020855" lon="9.936079972014001"><ele>588.0</ele><time>2026-04-25T07:53:16.999Z</time></trkpt><trkpt lat="44.75772835160916" lon="9.936140664563801"><ele>588.0</ele><time>2026-04-25T07:53:18.999Z</time></trkpt><trkpt lat="44.75768480772462" lon="9.93620915797249"><ele>588.0</ele><time>2026-04-25T07:53:20.999Z</time></trkpt><trkpt lat="44.757630279320765" lon="9.936323568154132"><ele>588.0</ele><time>2026-04-25T07:53:23.999Z</time></trkpt><trkpt lat="44.75759399603815" lon="9.936399039798891"><ele>588.0</ele><time>2026-04-25T07:53:25.999Z</time></trkpt><trkpt lat="44.75756178925499" lon="9.93648009853656"><ele>588.0</ele><time>2026-04-25T07:53:27.999Z</time></trkpt><trkpt lat="44.75751864567579" lon="9.93660155943392"><ele>590.7142857142857</ele><time>2026-04-25T07:53:30.999Z</time></trkpt><trkpt lat="44.75748850222051" lon="9.936685995162856"><ele>593.4285714285714</ele><time>2026-04-25T07:53:32.999Z</time></trkpt><trkpt lat="44.75745734828013" lon="9.93677132679726"><ele>596.1428571428571</ele><time>2026-04-25T07:53:34.999Z</time></trkpt><trkpt lat="44.757429455429865" lon="9.936855714607741"><ele>598.8571428571429</ele><time>2026-04-25T07:53:36.999Z</time></trkpt><trkpt lat="44.75739769847845" lon="9.936939298278347"><ele>601.5714285714286</ele><time>2026-04-25T07:53:38.999Z</time></trkpt><trkpt lat="44.757366743807886" lon="9.93702790976316"><ele>604.2857142857142</ele><time>2026-04-25T07:53:40.999Z</time></trkpt><trkpt lat="44.75734007824079" lon="9.937111266442987"><ele>607.0</ele><time>2026-04-25T07:53:42.999Z</time></trkpt><trkpt lat="44.7573010750006" lon="9.937229926467769"><ele>606.9999999999999</ele><time>2026-04-25T07:53:45.999Z</time></trkpt><trkpt lat="44.75727074801545" lon="9.937312052696837"><ele>607.0</ele><time>2026-04-25T07:53:47.999Z</time></trkpt><trkpt lat="44.75724132299725" lon="9.937398737190433"><ele>607.0</ele><time>2026-04-25T07:53:49.999Z</time></trkpt><trkpt lat="44.75721272843272" lon="9.93748727866558"><ele>607.0</ele><time>2026-04-25T07:53:51.999Z</time></trkpt><trkpt lat="44.75718497038983" lon="9.937581378384985"><ele>607.0</ele><time>2026-04-25T07:53:53.999Z</time></trkpt><trkpt lat="44.75716808344667" lon="9.937667617763873"><ele>606.9999999999999</ele><time>2026-04-25T07:53:55.999Z</time></trkpt><trkpt lat="44.75716141347784" lon="9.937764520721526"><ele>607.0</ele><time>2026-04-25T07:53:57.998Z</time></trkpt><trkpt lat="44.757162295186504" lon="9.937859823306074"><ele>607.5714285714286</ele><time>2026-04-25T07:53:59.998Z</time></trkpt><trkpt lat="44.757179995583506" lon="9.937953479416976"><ele>608.1428571428571</ele><time>2026-04-25T07:54:01.998Z</time></trkpt><trkpt lat="44.75720609590334" lon="9.938043036076074"><ele>608.7142857142858</ele><time>2026-04-25T07:54:03.998Z</time></trkpt><trkpt lat="44.75724452272102" lon="9.938134094951234"><ele>609.2857142857142</ele><time>2026-04-25T07:54:05.998Z</time></trkpt><trkpt lat="44.75729873159079" lon="9.938200902158563"><ele>609.8571428571429</ele><time>2026-04-25T07:54:07.998Z</time></trkpt><trkpt lat="44.75735610496609" lon="9.938263897322098"><ele>610.4285714285714</ele><time>2026-04-25T07:54:09.998Z</time></trkpt><trkpt lat="44.75741401925792" lon="9.938334257813002"><ele>611.0</ele><time>2026-04-25T07:54:11.998Z</time></trkpt><trkpt lat="44.75747370579333" lon="9.938398394928782"><ele>611.0</ele><time>2026-04-25T07:54:13.998Z</time></trkpt><trkpt lat="44.7575298483423" lon="9.93846488873875"><ele>611.0</ele><time>2026-04-25T07:54:15.998Z</time></trkpt><trkpt lat="44.75758015485277" lon="9.938542810461994"><ele>611.0</ele><time>2026-04-25T07:54:17.998Z</time></trkpt><trkpt lat="44.757605760029335" lon="9.938647834760843"><ele>611.0</ele><time>2026-04-25T07:54:20Z</time></trkpt><trkpt lat="44.75760686559131" lon="9.938745197683492"><ele>611.0</ele><time>2026-04-25T07:54:22Z</time></trkpt><trkpt lat="44.75757339098871" lon="9.93887237844022"><ele>611.0</ele><time>2026-04-25T07:54:25Z</time></trkpt><trkpt lat="44.757533053136044" lon="9.93894468036941"><ele>611.0000000000001</ele><time>2026-04-25T07:54:27Z</time></trkpt><trkpt lat="44.75748044318938" lon="9.93899717337823"><ele>611.0</ele><time>2026-04-25T07:54:29Z</time></trkpt><trkpt lat="44.757416334943564" lon="9.939022314836315"><ele>611.0</ele><time>2026-04-25T07:54:31Z</time></trkpt><trkpt lat="44.75734925800154" lon="9.939027159751966"><ele>611.0</ele><time>2026-04-25T07:54:33Z</time></trkpt><trkpt lat="44.757285510901994" lon="9.939007685042638"><ele>611.0</ele><time>2026-04-25T07:54:35Z</time></trkpt><trkpt lat="44.75722601085825" lon="9.93896824655605"><ele>611.0000000000001</ele><time>2026-04-25T07:54:37Z</time></trkpt><trkpt lat="44.75716864918256" lon="9.938918803631477"><ele>611.0</ele><time>2026-04-25T07:54:39Z</time></trkpt><trkpt lat="44.75711834021985" lon="9.938859876580263"><ele>611.0000000000001</ele><time>2026-04-25T07:54:41Z</time></trkpt><trkpt lat="44.75707834335785" lon="9.938788723500254"><ele>611.0</ele><time>2026-04-25T07:54:43Z</time></trkpt><trkpt lat="44.75704570911891" lon="9.938711085286041"><ele>611.0</ele><time>2026-04-25T07:54:45Z</time></trkpt><trkpt lat="44.75702457764967" lon="9.938624795744586"><ele>611.0</ele><time>2026-04-25T07:54:47Z</time></trkpt><trkpt lat="44.75701022400325" lon="9.938536783230042"><ele>611.0</ele><time>2026-04-25T07:54:49Z</time></trkpt><trkpt lat="44.75699422761254" lon="9.938449664529314"><ele>611.0000000000001</ele><time>2026-04-25T07:54:51Z</time></trkpt><trkpt lat="44.75698137332549" lon="9.938358010039394"><ele>611.0</ele><time>2026-04-25T07:54:53Z</time></trkpt><trkpt lat="44.756968358872825" lon="9.93826845162216"><ele>611.2857142857143</ele><time>2026-04-25T07:54:55Z</time></trkpt><trkpt lat="44.75696013504511" lon="9.938165966349292"><ele>611.5714285714286</ele><time>2026-04-25T07:54:57Z</time></trkpt><trkpt lat="44.756946799007075" lon="9.938061678308467"><ele>611.8571428571429</ele><time>2026-04-25T07:54:59Z</time></trkpt><trkpt lat="44.75693057739603" lon="9.937963636698234"><ele>612.1428571428571</ele><time>2026-04-25T07:55:01Z</time></trkpt><trkpt lat="44.75691144163474" lon="9.937864696981089"><ele>612.4285714285714</ele><time>2026-04-25T07:55:03Z</time></trkpt><trkpt lat="44.75689575253443" lon="9.93776610791439"><ele>612.7142857142858</ele><time>2026-04-25T07:55:05Z</time></trkpt><trkpt lat="44.75688039792798" lon="9.937663798667874"><ele>613.0</ele><time>2026-04-25T07:55:07Z</time></trkpt><trkpt lat="44.756863105562125" lon="9.93756827524602"><ele>614.0</ele><time>2026-04-25T07:55:08.999Z</time></trkpt><trkpt lat="44.75684773619989" lon="9.937463331944134"><ele>615.0</ele><time>2026-04-25T07:55:10.999Z</time></trkpt><trkpt lat="44.75683802823217" lon="9.937362598377044"><ele>616.0</ele><time>2026-04-25T07:55:12.999Z</time></trkpt><trkpt lat="44.7568355232949" lon="9.937265371483878"><ele>617.0</ele><time>2026-04-25T07:55:14.999Z</time></trkpt><trkpt lat="44.756833345535014" lon="9.937164843686746"><ele>618.0</ele><time>2026-04-25T07:55:16.999Z</time></trkpt><trkpt lat="44.75684178704456" lon="9.937064798278154"><ele>619.0</ele><time>2026-04-25T07:55:18.999Z</time></trkpt><trkpt lat="44.756849453375864" lon="9.93696552817698"><ele>620.0</ele><time>2026-04-25T07:55:20.999Z</time></trkpt><trkpt lat="44.75686072457525" lon="9.936869872024229"><ele>618.8571428571429</ele><time>2026-04-25T07:55:22.999Z</time></trkpt><trkpt lat="44.75687598569761" lon="9.936771849752661"><ele>617.7142857142857</ele><time>2026-04-25T07:55:24.999Z</time></trkpt><trkpt lat="44.75688322037363" lon="9.936675512534086"><ele>616.5714285714286</ele><time>2026-04-25T07:55:26.999Z</time></trkpt><trkpt lat="44.7568914001927" lon="9.936572690261807"><ele>615.4285714285714</ele><time>2026-04-25T07:55:28.999Z</time></trkpt><trkpt lat="44.75689339278436" lon="9.936481445995534"><ele>614.2857142857143</ele><time>2026-04-25T07:55:30.999Z</time></trkpt><trkpt lat="44.75690571773462" lon="9.936386559120969"><ele>613.1428571428571</ele><time>2026-04-25T07:55:32.999Z</time></trkpt><trkpt lat="44.756918293134405" lon="9.936287187600277"><ele>612.0</ele><time>2026-04-25T07:55:34.999Z</time></trkpt><trkpt lat="44.7569197451604" lon="9.936196155695301"><ele>612.0</ele><time>2026-04-25T07:55:36.999Z</time></trkpt><trkpt lat="44.75691932634264" lon="9.936094105237629"><ele>612.0</ele><time>2026-04-25T07:55:38.999Z</time></trkpt><trkpt lat="44.756920205480185" lon="9.93599508716581"><ele>612.0</ele><time>2026-04-25T07:55:40.999Z</time></trkpt><trkpt lat="44.756913282135436" lon="9.935872735208653"><ele>612.0</ele><time>2026-04-25T07:55:43.999Z</time></trkpt><trkpt lat="44.756900971020606" lon="9.935783306687652"><ele>612.0</ele><time>2026-04-25T07:55:45.999Z</time></trkpt><trkpt lat="44.75687740303207" lon="9.935660865010117"><ele>612.0</ele><time>2026-04-25T07:55:48.999Z</time></trkpt><trkpt lat="44.75685205779345" lon="9.935540139378073"><ele>615.4285714285714</ele><time>2026-04-25T07:55:51.999Z</time></trkpt><trkpt lat="44.75682762040067" lon="9.93545245525641"><ele>618.8571428571429</ele><time>2026-04-25T07:55:52.999Z</time></trkpt><trkpt lat="44.75680293940992" lon="9.935365044267495"><ele>622.2857142857142</ele><time>2026-04-25T07:55:54.999Z</time></trkpt><trkpt lat="44.75677815584263" lon="9.935270775909103"><ele>625.7142857142858</ele><time>2026-04-25T07:55:56.999Z</time></trkpt><trkpt lat="44.756757613679625" lon="9.935176553965983"><ele>629.1428571428572</ele><time>2026-04-25T07:55:58.999Z</time></trkpt><trkpt lat="44.756740375102886" lon="9.935078800870254"><ele>632.5714285714286</ele><time>2026-04-25T07:56:00.999Z</time></trkpt><trkpt lat="44.756727018075566" lon="9.934982981233675"><ele>636.0</ele><time>2026-04-25T07:56:02.998Z</time></trkpt><trkpt lat="44.75672068693469" lon="9.934882787898312"><ele>636.0</ele><time>2026-04-25T07:56:04.998Z</time></trkpt><trkpt lat="44.756717686744935" lon="9.934783468832832"><ele>636.0</ele><time>2026-04-25T07:56:06.998Z</time></trkpt><trkpt lat="44.75672133590153" lon="9.934678024015193"><ele>636.0</ele><time>2026-04-25T07:56:08.998Z</time></trkpt><trkpt lat="44.75672869425906" lon="9.934572078760805"><ele>636.0</ele><time>2026-04-25T07:56:10.998Z</time></trkpt><trkpt lat="44.756741284155" lon="9.934456903484675"><ele>636.0</ele><time>2026-04-25T07:56:12.998Z</time></trkpt><trkpt lat="44.75675933267303" lon="9.934338841383108"><ele>636.0</ele><time>2026-04-25T07:56:14.998Z</time></trkpt><trkpt lat="44.756779558432626" lon="9.934213202744054"><ele>636.0</ele><time>2026-04-25T07:56:16.998Z</time></trkpt><trkpt lat="44.75679762971056" lon="9.934090918022187"><ele>636.0</ele><time>2026-04-25T07:56:18.998Z</time></trkpt><trkpt lat="44.75681688438052" lon="9.93396879686447"><ele>636.0</ele><time>2026-04-25T07:56:20.998Z</time></trkpt><trkpt lat="44.75683874786531" lon="9.933839160081998"><ele>636.0</ele><time>2026-04-25T07:56:22.998Z</time></trkpt><trkpt lat="44.756857690876984" lon="9.933710138475579"><ele>636.0</ele><time>2026-04-25T07:56:24.998Z</time></trkpt><trkpt lat="44.756875814374354" lon="9.933583029913773"><ele>635.4</ele><time>2026-04-25T07:56:27Z</time></trkpt><trkpt lat="44.756894706260425" lon="9.933456164529662"><ele>634.8</ele><time>2026-04-25T07:56:29Z</time></trkpt><trkpt lat="44.75691743372448" lon="9.933328576134889"><ele>634.1999999999999</ele><time>2026-04-25T07:56:31Z</time></trkpt><trkpt lat="44.75693836298264" lon="9.933193230790467"><ele>633.6</ele><time>2026-04-25T07:56:33Z</time></trkpt><trkpt lat="44.75695723125464" lon="9.933059021695255"><ele>633.0</ele><time>2026-04-25T07:56:35Z</time></trkpt><trkpt lat="44.7569789171385" lon="9.93293997263941"><ele>633.0</ele><time>2026-04-25T07:56:37Z</time></trkpt><trkpt lat="44.75699749277429" lon="9.93281796608531"><ele>633.0</ele><time>2026-04-25T07:56:39Z</time></trkpt><trkpt lat="44.75701824935713" lon="9.93268734327402"><ele>633.0</ele><time>2026-04-25T07:56:41Z</time></trkpt><trkpt lat="44.75703879273293" lon="9.932562977074712"><ele>633.0</ele><time>2026-04-25T07:56:43Z</time></trkpt><trkpt lat="44.75705521795031" lon="9.932437674413332"><ele>633.0</ele><time>2026-04-25T07:56:45Z</time></trkpt><trkpt lat="44.757076209630156" lon="9.93230686512293"><ele>633.0</ele><time>2026-04-25T07:56:47Z</time></trkpt><trkpt lat="44.757098924988426" lon="9.932182080441983"><ele>633.0</ele><time>2026-04-25T07:56:49Z</time></trkpt><trkpt lat="44.75711714428945" lon="9.932050985575538"><ele>633.0</ele><time>2026-04-25T07:56:51Z</time></trkpt><trkpt lat="44.757127029513846" lon="9.931921852771298"><ele>633.0</ele><time>2026-04-25T07:56:53Z</time></trkpt><trkpt lat="44.7571209782721" lon="9.931790577686677"><ele>633.0</ele><time>2026-04-25T07:56:56Z</time></trkpt><trkpt lat="44.75711148164564" lon="9.931574200002656"><ele>632.4</ele><time>2026-04-25T07:56:58Z</time></trkpt><trkpt lat="44.75709318730271" lon="9.931440519604877"><ele>631.8</ele><time>2026-04-25T07:57:00Z</time></trkpt><trkpt lat="44.75705824770974" lon="9.931318746127618"><ele>631.2</ele><time>2026-04-25T07:57:02Z</time></trkpt><trkpt lat="44.757014990630275" lon="9.93119959317488"><ele>630.6</ele><time>2026-04-25T07:57:04Z</time></trkpt><trkpt lat="44.756966341209825" lon="9.931085036269163"><ele>630.0</ele><time>2026-04-25T07:57:06Z</time></trkpt><trkpt lat="44.756900397903465" lon="9.930986657434508"><ele>630.6</ele><time>2026-04-25T07:57:08Z</time></trkpt><trkpt lat="44.75683164036539" lon="9.930897479800231"><ele>631.2</ele><time>2026-04-25T07:57:10Z</time></trkpt><trkpt lat="44.75675007731435" lon="9.930822965962793"><ele>631.8</ele><time>2026-04-25T07:57:11.999Z</time></trkpt><trkpt lat="44.75666242839919" lon="9.930769163757777"><ele>632.4</ele><time>2026-04-25T07:57:13.999Z</time></trkpt><trkpt lat="44.75657253931367" lon="9.930720439499979"><ele>633.0</ele><time>2026-04-25T07:57:15.999Z</time></trkpt><trkpt lat="44.756481660185855" lon="9.93067758954059"><ele>634.5999999999999</ele><time>2026-04-25T07:57:17.999Z</time></trkpt><trkpt lat="44.75640118301111" lon="9.930636648132893"><ele>636.1999999999999</ele><time>2026-04-25T07:57:19.999Z</time></trkpt><trkpt lat="44.75631590561427" lon="9.930588980517129"><ele>637.8</ele><time>2026-04-25T07:57:21.999Z</time></trkpt><trkpt lat="44.75622753199467" lon="9.930544195260389"><ele>639.4</ele><time>2026-04-25T07:57:23.999Z</time></trkpt><trkpt lat="44.75614435687017" lon="9.930495384421897"><ele>641.0</ele><time>2026-04-25T07:57:25.999Z</time></trkpt><trkpt lat="44.75606773264922" lon="9.930433041908417"><ele>640.3333333333333</ele><time>2026-04-25T07:57:27.999Z</time></trkpt><trkpt lat="44.75599379767059" lon="9.930365115950048"><ele>639.6666666666666</ele><time>2026-04-25T07:57:29.999Z</time></trkpt><trkpt lat="44.7559218348388" lon="9.930298824181667"><ele>639.0</ele><time>2026-04-25T07:57:31.999Z</time></trkpt><trkpt lat="44.75585570898216" lon="9.930220503887034"><ele>638.3333333333334</ele><time>2026-04-25T07:57:33.999Z</time></trkpt><trkpt lat="44.755791374535455" lon="9.930136518482168"><ele>637.6666666666667</ele><time>2026-04-25T07:57:35.999Z</time></trkpt><trkpt lat="44.7557246346955" lon="9.930052698190636"><ele>637.0</ele><time>2026-04-25T07:57:37.999Z</time></trkpt><trkpt lat="44.75565904432011" lon="9.929946264329116"><ele>638.8</ele><time>2026-04-25T07:57:39.999Z</time></trkpt><trkpt lat="44.75561261442727" lon="9.929838812132594"><ele>640.6</ele><time>2026-04-25T07:57:41.999Z</time></trkpt><trkpt lat="44.75556812601024" lon="9.929729751870275"><ele>642.4</ele><time>2026-04-25T07:57:43.999Z</time></trkpt><trkpt lat="44.75552277756854" lon="9.929621185890287"><ele>644.1999999999999</ele><time>2026-04-25T07:57:45.999Z</time></trkpt><trkpt lat="44.755486461286786" lon="9.929496386072723"><ele>646.0</ele><time>2026-04-25T07:57:47.999Z</time></trkpt><trkpt lat="44.75546312625801" lon="9.929375314315967"><ele>646.0</ele><time>2026-04-25T07:57:49.999Z</time></trkpt><trkpt lat="44.75545401032708" lon="9.929272068446293"><ele>646.0</ele><time>2026-04-25T07:57:52.999Z</time></trkpt><trkpt lat="44.75543959818882" lon="9.929163607696463"><ele>646.0</ele><time>2026-04-25T07:57:56.999Z</time></trkpt><trkpt lat="44.75543161220119" lon="9.929054940641342"><ele>646.0</ele><time>2026-04-25T07:57:59.999Z</time></trkpt><trkpt lat="44.75541970194294" lon="9.928934572025176"><ele>646.0</ele><time>2026-04-25T07:58:02.999Z</time></trkpt><trkpt lat="44.75540609565341" lon="9.928842311169433"><ele>646.0</ele><time>2026-04-25T07:58:04.998Z</time></trkpt><trkpt lat="44.755388214930896" lon="9.928745845652088"><ele>645.6666666666667</ele><time>2026-04-25T07:58:06.998Z</time></trkpt><trkpt lat="44.75535771688255" lon="9.928647014565644"><ele>645.3333333333334</ele><time>2026-04-25T07:58:08.998Z</time></trkpt><trkpt lat="44.755308201184775" lon="9.928544656291734"><ele>645.0</ele><time>2026-04-25T07:58:10.998Z</time></trkpt><trkpt lat="44.75524410978799" lon="9.928459988499403"><ele>644.6666666666666</ele><time>2026-04-25T07:58:12.998Z</time></trkpt><trkpt lat="44.755180876444875" lon="9.928378382006196"><ele>644.3333333333333</ele><time>2026-04-25T07:58:14.998Z</time></trkpt><trkpt lat="44.75511298340367" lon="9.92828814783831"><ele>644.0</ele><time>2026-04-25T07:58:16.998Z</time></trkpt><trkpt lat="44.75504279143445" lon="9.92820006594897"><ele>644.0</ele><time>2026-04-25T07:58:18.998Z</time></trkpt><trkpt lat="44.75497237359522" lon="9.928101521649198"><ele>644.0</ele><time>2026-04-25T07:58:20.998Z</time></trkpt><trkpt lat="44.75488715706756" lon="9.92801950296055"><ele>644.0</ele><time>2026-04-25T07:58:22.998Z</time></trkpt><trkpt lat="44.754798778163455" lon="9.927933934094852"><ele>644.0</ele><time>2026-04-25T07:58:24.998Z</time></trkpt><trkpt lat="44.754695071252556" lon="9.92787778916685"><ele>644.0</ele><time>2026-04-25T07:58:26.998Z</time></trkpt><trkpt lat="44.7545820861937" lon="9.927836165706092"><ele>644.0</ele><time>2026-04-25T07:58:28.998Z</time></trkpt><trkpt lat="44.75446242445234" lon="9.927803157378616"><ele>644.0</ele><time>2026-04-25T07:58:30.998Z</time></trkpt><trkpt lat="44.75433728963298" lon="9.927774359594519"><ele>644.0</ele><time>2026-04-25T07:58:33Z</time></trkpt><trkpt lat="44.754273617379106" lon="9.927753553424528"><ele>644.0</ele><time>2026-04-25T07:58:34Z</time></trkpt><trkpt lat="44.754207061130394" lon="9.92773707622392"><ele>644.0</ele><time>2026-04-25T07:58:35Z</time></trkpt><trkpt lat="44.75414280716779" lon="9.927721588580974"><ele>644.0</ele><time>2026-04-25T07:58:36Z</time></trkpt><trkpt lat="44.75407573644412" lon="9.927701084146747"><ele>641.5714285714286</ele><time>2026-04-25T07:58:37Z</time></trkpt><trkpt lat="44.75400904994979" lon="9.927683280311959"><ele>639.1428571428571</ele><time>2026-04-25T07:58:38Z</time></trkpt><trkpt lat="44.753938277970434" lon="9.927663712975267"><ele>636.7142857142858</ele><time>2026-04-25T07:58:39Z</time></trkpt><trkpt lat="44.753866225188666" lon="9.927644893998943"><ele>634.2857142857142</ele><time>2026-04-25T07:58:40Z</time></trkpt><trkpt lat="44.75379270535694" lon="9.927623444662371"><ele>631.8571428571429</ele><time>2026-04-25T07:58:41Z</time></trkpt><trkpt lat="44.75371837477032" lon="9.927600136326173"><ele>629.4285714285714</ele><time>2026-04-25T07:58:42Z</time></trkpt><trkpt lat="44.753642316240025" lon="9.927582062015547"><ele>627.0</ele><time>2026-04-25T07:58:43Z</time></trkpt><trkpt lat="44.75356789837448" lon="9.927563495807117"><ele>628.5</ele><time>2026-04-25T07:58:44Z</time></trkpt><trkpt lat="44.75348976451319" lon="9.927544330091003"><ele>630.0</ele><time>2026-04-25T07:58:45Z</time></trkpt><trkpt lat="44.75341026825831" lon="9.927527862691914"><ele>631.5</ele><time>2026-04-25T07:58:46Z</time></trkpt><trkpt lat="44.75333228698116" lon="9.927524524671007"><ele>633.0</ele><time>2026-04-25T07:58:47Z</time></trkpt><trkpt lat="44.75325406617625" lon="9.92753553072824"><ele>634.5</ele><time>2026-04-25T07:58:48Z</time></trkpt><trkpt lat="44.75317448795799" lon="9.927572905710408"><ele>636.0</ele><time>2026-04-25T07:58:49Z</time></trkpt><trkpt lat="44.75310200707908" lon="9.92762123150026"><ele>634.0</ele><time>2026-04-25T07:58:50Z</time></trkpt><trkpt lat="44.75302604653338" lon="9.92766793775031"><ele>632.0</ele><time>2026-04-25T07:58:51Z</time></trkpt><trkpt lat="44.75295000000811" lon="9.927704777558732"><ele>630.0</ele><time>2026-04-25T07:58:52Z</time></trkpt><trkpt lat="44.75287523361117" lon="9.927723272877762"><ele>628.0</ele><time>2026-04-25T07:58:53Z</time></trkpt><trkpt lat="44.752797682051416" lon="9.927698092601437"><ele>626.0</ele><time>2026-04-25T07:58:54Z</time></trkpt><trkpt lat="44.75273462790524" lon="9.927627362929927"><ele>624.0</ele><time>2026-04-25T07:58:55Z</time></trkpt><trkpt lat="44.75269809144888" lon="9.927520197439799"><ele>624.0</ele><time>2026-04-25T07:58:56Z</time></trkpt><trkpt lat="44.75269776284771" lon="9.927397593022741"><ele>624.0</ele><time>2026-04-25T07:58:57Z</time></trkpt><trkpt lat="44.75272261080867" lon="9.927285782813394"><ele>624.0</ele><time>2026-04-25T07:58:58Z</time></trkpt><trkpt lat="44.75276781995125" lon="9.927189950316118"><ele>624.0</ele><time>2026-04-25T07:58:59Z</time></trkpt><trkpt lat="44.75282324631644" lon="9.927106301189228"><ele>624.0</ele><time>2026-04-25T07:59:00Z</time></trkpt><trkpt lat="44.75287120984414" lon="9.927018954620067"><ele>624.0</ele><time>2026-04-25T07:59:01Z</time></trkpt><trkpt lat="44.75292132984726" lon="9.926939473525154"><ele>626.0</ele><time>2026-04-25T07:59:02Z</time></trkpt><trkpt lat="44.75296770079185" lon="9.926856788873017"><ele>628.0</ele><time>2026-04-25T07:59:03Z</time></trkpt><trkpt lat="44.753011547282824" lon="9.926772666338314"><ele>630.0</ele><time>2026-04-25T07:59:04Z</time></trkpt><trkpt lat="44.75306335140891" lon="9.926686416753537"><ele>632.0</ele><time>2026-04-25T07:59:05Z</time></trkpt><trkpt lat="44.753102319384915" lon="9.926591659838806"><ele>634.0</ele><time>2026-04-25T07:59:06Z</time></trkpt><trkpt lat="44.75313538459934" lon="9.926493983056503"><ele>636.0</ele><time>2026-04-25T07:59:07Z</time></trkpt><trkpt lat="44.753151358206416" lon="9.926394434764479"><ele>635.8333333333334</ele><time>2026-04-25T07:59:08Z</time></trkpt><trkpt lat="44.75316617650462" lon="9.926289596166606"><ele>635.6666666666666</ele><time>2026-04-25T07:59:09Z</time></trkpt><trkpt lat="44.75318327242725" lon="9.926184297561646"><ele>635.5</ele><time>2026-04-25T07:59:10Z</time></trkpt><trkpt lat="44.7531994703962" lon="9.926076447123362"><ele>635.3333333333333</ele><time>2026-04-25T07:59:11Z</time></trkpt><trkpt lat="44.7532020893166" lon="9.92596484925721"><ele>635.1666666666666</ele><time>2026-04-25T07:59:12Z</time></trkpt><trkpt lat="44.75318242600381" lon="9.925857258470927"><ele>635.0</ele><time>2026-04-25T07:59:13Z</time></trkpt><trkpt lat="44.75315104941825" lon="9.92575026770992"><ele>635.0</ele><time>2026-04-25T07:59:14Z</time></trkpt><trkpt lat="44.75311981629329" lon="9.925647567734641"><ele>635.0</ele><time>2026-04-25T07:59:14.999Z</time></trkpt><trkpt lat="44.753076630437704" lon="9.925550153560176"><ele>635.0</ele><time>2026-04-25T07:59:15.999Z</time></trkpt><trkpt lat="44.75303678754228" lon="9.925451274619638"><ele>635.0</ele><time>2026-04-25T07:59:16.999Z</time></trkpt><trkpt lat="44.752992349288625" lon="9.92535325565363"><ele>635.0</ele><time>2026-04-25T07:59:17.999Z</time></trkpt><trkpt lat="44.75294267995631" lon="9.92526054578414"><ele>635.0</ele><time>2026-04-25T07:59:18.999Z</time></trkpt><trkpt lat="44.75288258298657" lon="9.925172912914586"><ele>635.0</ele><time>2026-04-25T07:59:19.999Z</time></trkpt><trkpt lat="44.75280767160924" lon="9.925101016117004"><ele>635.0</ele><time>2026-04-25T07:59:20.999Z</time></trkpt><trkpt lat="44.7527268975699" lon="9.925039317297994"><ele>635.0</ele><time>2026-04-25T07:59:21.999Z</time></trkpt><trkpt lat="44.752638557537466" lon="9.925007462655993"><ele>635.0</ele><time>2026-04-25T07:59:22.999Z</time></trkpt><trkpt lat="44.752551218272295" lon="9.924981909208151"><ele>635.0</ele><time>2026-04-25T07:59:23.999Z</time></trkpt><trkpt lat="44.75246453702715" lon="9.924962578227866"><ele>632.8333333333333</ele><time>2026-04-25T07:59:24.999Z</time></trkpt><trkpt lat="44.75237667303899" lon="9.924950563959715"><ele>630.6666666666666</ele><time>2026-04-25T07:59:25.999Z</time></trkpt><trkpt lat="44.75229076755204" lon="9.924948462597813"><ele>628.5</ele><time>2026-04-25T07:59:26.999Z</time></trkpt><trkpt lat="44.7522050392946" lon="9.924950830396922"><ele>626.3333333333334</ele><time>2026-04-25T07:59:27.999Z</time></trkpt><trkpt lat="44.75211669681104" lon="9.924947083068808"><ele>624.1666666666667</ele><time>2026-04-25T07:59:28.999Z</time></trkpt><trkpt lat="44.75203052391407" lon="9.924941127580666"><ele>622.0</ele><time>2026-04-25T07:59:29.999Z</time></trkpt><trkpt lat="44.75194430590867" lon="9.92493724077191"><ele>622.3333333333334</ele><time>2026-04-25T07:59:30.999Z</time></trkpt><trkpt lat="44.75185702053133" lon="9.924934577915089"><ele>622.6666666666667</ele><time>2026-04-25T07:59:31.999Z</time></trkpt><trkpt lat="44.751769604622844" lon="9.924937818219975"><ele>623.0</ele><time>2026-04-25T07:59:32.999Z</time></trkpt><trkpt lat="44.75168238681748" lon="9.924943837721816"><ele>623.3333333333334</ele><time>2026-04-25T07:59:33.999Z</time></trkpt><trkpt lat="44.751595611493904" lon="9.924967170852877"><ele>623.6666666666666</ele><time>2026-04-25T07:59:34.999Z</time></trkpt><trkpt lat="44.75151238778553" lon="9.925009928211676"><ele>624.0</ele><time>2026-04-25T07:59:35.999Z</time></trkpt><trkpt lat="44.75143098724775" lon="9.925067760806648"><ele>620.2</ele><time>2026-04-25T07:59:36.999Z</time></trkpt><trkpt lat="44.7513490311251" lon="9.92511968070685"><ele>616.4</ele><time>2026-04-25T07:59:37.999Z</time></trkpt><trkpt lat="44.751264447177846" lon="9.925161100217085"><ele>612.6</ele><time>2026-04-25T07:59:38.999Z</time></trkpt><trkpt lat="44.75117344681626" lon="9.925172147585695"><ele>608.8</ele><time>2026-04-25T07:59:39.999Z</time></trkpt><trkpt lat="44.751085652789605" lon="9.92513052827738"><ele>605.0</ele><time>2026-04-25T07:59:40.999Z</time></trkpt><trkpt lat="44.75099448254302" lon="9.925082156583889"><ele>607.2</ele><time>2026-04-25T07:59:41.999Z</time></trkpt><trkpt lat="44.750903128643145" lon="9.925024747852484"><ele>609.4</ele><time>2026-04-25T07:59:42.999Z</time></trkpt><trkpt lat="44.750808941175265" lon="9.925003621406498"><ele>611.6</ele><time>2026-04-25T07:59:43.999Z</time></trkpt><trkpt lat="44.750707952138164" lon="9.924998094220857"><ele>613.8</ele><time>2026-04-25T07:59:44.999Z</time></trkpt><trkpt lat="44.75061034667384" lon="9.924998850871503"><ele>616.0</ele><time>2026-04-25T07:59:45.999Z</time></trkpt><trkpt lat="44.750514975870345" lon="9.924975740153931"><ele>616.0</ele><time>2026-04-25T07:59:46.999Z</time></trkpt><trkpt lat="44.750443634326714" lon="9.924898070325572"><ele>616.0</ele><time>2026-04-25T07:59:47.999Z</time></trkpt><trkpt lat="44.7504177439644" lon="9.924774137257875"><ele>616.0</ele><time>2026-04-25T07:59:48.999Z</time></trkpt><trkpt lat="44.75045279808963" lon="9.92465359953629"><ele>616.0</ele><time>2026-04-25T07:59:49.999Z</time></trkpt><trkpt lat="44.750510571677765" lon="9.92456927643238"><ele>616.0</ele><time>2026-04-25T07:59:50.999Z</time></trkpt><trkpt lat="44.750573832995876" lon="9.92449897323572"><ele>616.0</ele><time>2026-04-25T07:59:51.999Z</time></trkpt><trkpt lat="44.750637695380235" lon="9.924439402802642"><ele>616.0</ele><time>2026-04-25T07:59:52.999Z</time></trkpt><trkpt lat="44.750702397328446" lon="9.924388562161045"><ele>616.0</ele><time>2026-04-25T07:59:53.999Z</time></trkpt><trkpt lat="44.750766029544835" lon="9.924337727770013"><ele>616.0</ele><time>2026-04-25T07:59:54.999Z</time></trkpt><trkpt lat="44.75082117078124" lon="9.92426666789949"><ele>616.0</ele><time>2026-04-25T07:59:55.999Z</time></trkpt><trkpt lat="44.75084247069274" lon="9.924162631083574"><ele>616.0</ele><time>2026-04-25T07:59:56.999Z</time></trkpt><trkpt lat="44.750803286282164" lon="9.924057278099998"><ele>616.0</ele><time>2026-04-25T07:59:57.999Z</time></trkpt><trkpt lat="44.75072838487274" lon="9.923995374057094"><ele>616.0</ele><time>2026-04-25T07:59:58.999Z</time></trkpt><trkpt lat="44.750636925699006" lon="9.924006429868719"><ele>616.0</ele><time>2026-04-25T07:59:59.999Z</time></trkpt><trkpt lat="44.750557269902345" lon="9.924070868993446"><ele>616.0</ele><time>2026-04-25T08:00:00.999Z</time></trkpt><trkpt lat="44.750485376604765" lon="9.92414646626216"><ele>616.0</ele><time>2026-04-25T08:00:01.999Z</time></trkpt><trkpt lat="44.75041006480869" lon="9.92421998236672"><ele>616.0</ele><time>2026-04-25T08:00:02.999Z</time></trkpt><trkpt lat="44.75032991563658" lon="9.924296181308561"><ele>616.0</ele><time>2026-04-25T08:00:03.999Z</time></trkpt><trkpt lat="44.75024995816472" lon="9.924378547308716"><ele>616.0</ele><time>2026-04-25T08:00:04.999Z</time></trkpt><trkpt lat="44.750170244489055" lon="9.924464376103353"><ele>616.0</ele><time>2026-04-25T08:00:05.999Z</time></trkpt><trkpt lat="44.75008110829665" lon="9.924529210250316"><ele>616.0</ele><time>2026-04-25T08:00:06.999Z</time></trkpt><trkpt lat="44.75001017796833" lon="9.924626520509428"><ele>616.0</ele><time>2026-04-25T08:00:07.999Z</time></trkpt><trkpt lat="44.74993281920347" lon="9.92471093734546"><ele>613.2</ele><time>2026-04-25T08:00:08.998Z</time></trkpt><trkpt lat="44.74987091688487" lon="9.924814997997075"><ele>610.4000000000001</ele><time>2026-04-25T08:00:09.998Z</time></trkpt><trkpt lat="44.74983661335664" lon="9.924946911208428"><ele>607.6</ele><time>2026-04-25T08:00:10.998Z</time></trkpt><trkpt lat="44.74983829100958" lon="9.925090135958115"><ele>604.8000000000001</ele><time>2026-04-25T08:00:11.998Z</time></trkpt><trkpt lat="44.74986479295288" lon="9.925229457388012"><ele>602.0</ele><time>2026-04-25T08:00:12.998Z</time></trkpt><trkpt lat="44.749905326035034" lon="9.925363408134304"><ele>601.8000000000001</ele><time>2026-04-25T08:00:13.998Z</time></trkpt><trkpt lat="44.74995072024627" lon="9.925489984619363"><ele>601.6</ele><time>2026-04-25T08:00:14.998Z</time></trkpt><trkpt lat="44.75000231148227" lon="9.92561053529135"><ele>601.4000000000001</ele><time>2026-04-25T08:00:15.998Z</time></trkpt><trkpt lat="44.7500697805205" lon="9.925716621277935"><ele>601.2</ele><time>2026-04-25T08:00:16.998Z</time></trkpt><trkpt lat="44.75015427243975" lon="9.925794190935537"><ele>601.0</ele><time>2026-04-25T08:00:17.998Z</time></trkpt><trkpt lat="44.75025140402514" lon="9.925839361807995"><ele>601.0</ele><time>2026-04-25T08:00:18.998Z</time></trkpt><trkpt lat="44.75035674955977" lon="9.925844295129158"><ele>601.0</ele><time>2026-04-25T08:00:19.998Z</time></trkpt><trkpt lat="44.75046081414037" lon="9.925842054102558"><ele>601.0</ele><time>2026-04-25T08:00:20.998Z</time></trkpt><trkpt lat="44.750565048643786" lon="9.925862517240276"><ele>601.0</ele><time>2026-04-25T08:00:21.998Z</time></trkpt><trkpt lat="44.75067127875044" lon="9.925902711868705"><ele>601.0</ele><time>2026-04-25T08:00:22.998Z</time></trkpt><trkpt lat="44.75077185572323" lon="9.925950357686641"><ele>600.8</ele><time>2026-04-25T08:00:23.998Z</time></trkpt><trkpt lat="44.750873245513205" lon="9.92597442879119"><ele>600.6</ele><time>2026-04-25T08:00:24.998Z</time></trkpt><trkpt lat="44.750973269093734" lon="9.925955433607667"><ele>600.4</ele><time>2026-04-25T08:00:25.998Z</time></trkpt><trkpt lat="44.7510606044361" lon="9.925904987560758"><ele>600.2</ele><time>2026-04-25T08:00:26.998Z</time></trkpt><trkpt lat="44.75113817071257" lon="9.92586972569876"><ele>600.0</ele><time>2026-04-25T08:00:27.998Z</time></trkpt><trkpt lat="44.75121510515253" lon="9.925885219618257"><ele>600.0</ele><time>2026-04-25T08:00:28.998Z</time></trkpt><trkpt lat="44.751267623752845" lon="9.925971580742885"><ele>600.0</ele><time>2026-04-25T08:00:29.998Z</time></trkpt><trkpt lat="44.751264103858794" lon="9.926086489183687"><ele>600.0</ele><time>2026-04-25T08:00:30.998Z</time></trkpt><trkpt lat="44.75120632037653" lon="9.926172194250093"><ele>600.0</ele><time>2026-04-25T08:00:31.998Z</time></trkpt><trkpt lat="44.75112295480583" lon="9.926196138306711"><ele>600.0</ele><time>2026-04-25T08:00:32.998Z</time></trkpt><trkpt lat="44.75103527548466" lon="9.926201034673115"><ele>600.0</ele><time>2026-04-25T08:00:33.998Z</time></trkpt><trkpt lat="44.7509464161132" lon="9.926200132769598"><ele>596.6</ele><time>2026-04-25T08:00:34.998Z</time></trkpt><trkpt lat="44.7508549665851" lon="9.92620743503855"><ele>593.2</ele><time>2026-04-25T08:00:35.998Z</time></trkpt><trkpt lat="44.750761355040765" lon="9.92622562154929"><ele>589.8</ele><time>2026-04-25T08:00:37Z</time></trkpt><trkpt lat="44.75066717488374" lon="9.926244808933228"><ele>586.4</ele><time>2026-04-25T08:00:38Z</time></trkpt><trkpt lat="44.75056779603322" lon="9.926267985020136"><ele>583.0</ele><time>2026-04-25T08:00:39Z</time></trkpt><trkpt lat="44.75046768372524" lon="9.926293750063016"><ele>583.0</ele><time>2026-04-25T08:00:40Z</time></trkpt><trkpt lat="44.75036504663291" lon="9.926326139187884"><ele>583.0</ele><time>2026-04-25T08:00:41Z</time></trkpt><trkpt lat="44.750262262506354" lon="9.926352787262138"><ele>583.0</ele><time>2026-04-25T08:00:42Z</time></trkpt><trkpt lat="44.750161827536175" lon="9.926376171965668"><ele>583.0</ele><time>2026-04-25T08:00:43Z</time></trkpt><trkpt lat="44.7500586432381" lon="9.926380650770328"><ele>583.0</ele><time>2026-04-25T08:00:44Z</time></trkpt><trkpt lat="44.74995470810751" lon="9.92634835588954"><ele>582.0</ele><time>2026-04-25T08:00:45Z</time></trkpt><trkpt lat="44.74985917552374" lon="9.926277113766906"><ele>581.0</ele><time>2026-04-25T08:00:46Z</time></trkpt><trkpt lat="44.749774538016446" lon="9.926185296114577"><ele>580.0</ele><time>2026-04-25T08:00:47Z</time></trkpt><trkpt lat="44.749704598854926" lon="9.92606666559337"><ele>579.0</ele><time>2026-04-25T08:00:48Z</time></trkpt><trkpt lat="44.749645539379856" lon="9.925934672564402"><ele>578.0</ele><time>2026-04-25T08:00:49Z</time></trkpt><trkpt lat="44.74958290715013" lon="9.92580479647223"><ele>576.8</ele><time>2026-04-25T08:00:50Z</time></trkpt><trkpt lat="44.749521003514985" lon="9.925677590548954"><ele>575.5999999999999</ele><time>2026-04-25T08:00:51Z</time></trkpt><trkpt lat="44.749439653042096" lon="9.925573059077967"><ele>574.4000000000001</ele><time>2026-04-25T08:00:52Z</time></trkpt><trkpt lat="44.74933951265206" lon="9.925504473340379"><ele>573.2</ele><time>2026-04-25T08:00:53Z</time></trkpt><trkpt lat="44.74922736607521" lon="9.925463820653077"><ele>572.0</ele><time>2026-04-25T08:00:54Z</time></trkpt><trkpt lat="44.74911269243235" lon="9.925437183420495"><ele>572.0</ele><time>2026-04-25T08:00:55Z</time></trkpt><trkpt lat="44.748995746532934" lon="9.925420104115062"><ele>572.0</ele><time>2026-04-25T08:00:56Z</time></trkpt><trkpt lat="44.74887694074372" lon="9.925399714393047"><ele>572.0</ele><time>2026-04-25T08:00:57Z</time></trkpt><trkpt lat="44.74875997039805" lon="9.925368744543386"><ele>572.0</ele><time>2026-04-25T08:00:58Z</time></trkpt><trkpt lat="44.748646644436036" lon="9.925313911133133"><ele>571.0</ele><time>2026-04-25T08:00:59Z</time></trkpt><trkpt lat="44.74853746209145" lon="9.925245009511215"><ele>570.0</ele><time>2026-04-25T08:01:00Z</time></trkpt><trkpt lat="44.74844222590112" lon="9.925152544869695"><ele>569.0</ele><time>2026-04-25T08:01:01Z</time></trkpt><trkpt lat="44.74835724209599" lon="9.925039946236451"><ele>568.0</ele><time>2026-04-25T08:01:02Z</time></trkpt><trkpt lat="44.748282655464045" lon="9.92491683951644"><ele>568.0</ele><time>2026-04-25T08:01:03Z</time></trkpt><trkpt lat="44.74823329335562" lon="9.924784884103092"><ele>568.0</ele><time>2026-04-25T08:01:04Z</time></trkpt><trkpt lat="44.74822355924512" lon="9.924641033996325"><ele>568.0</ele><time>2026-04-25T08:01:05Z</time></trkpt><trkpt lat="44.74824357440959" lon="9.924490045698986"><ele>568.0</ele><time>2026-04-25T08:01:06Z</time></trkpt><trkpt lat="44.74828339794262" lon="9.924350162520673"><ele>568.0</ele><time>2026-04-25T08:01:07Z</time></trkpt><trkpt lat="44.74833176715696" lon="9.924218060979674"><ele>567.6</ele><time>2026-04-25T08:01:08Z</time></trkpt><trkpt lat="44.74837094014083" lon="9.924079422996819"><ele>567.1999999999999</ele><time>2026-04-25T08:01:09Z</time></trkpt><trkpt lat="44.748408392083135" lon="9.923937885149346"><ele>566.8</ele><time>2026-04-25T08:01:10Z</time></trkpt><trkpt lat="44.748439819987354" lon="9.92379320916877"><ele>566.4</ele><time>2026-04-25T08:01:11Z</time></trkpt><trkpt lat="44.74846324652408" lon="9.923644885025473"><ele>566.0</ele><time>2026-04-25T08:01:12Z</time></trkpt><trkpt lat="44.74849005108532" lon="9.923499041849366"><ele>564.8</ele><time>2026-04-25T08:01:13Z</time></trkpt><trkpt lat="44.74852989857882" lon="9.923359931237718"><ele>563.6</ele><time>2026-04-25T08:01:14Z</time></trkpt><trkpt lat="44.74858434036512" lon="9.923224094568484"><ele>562.4</ele><time>2026-04-25T08:01:15Z</time></trkpt><trkpt lat="44.748626869220445" lon="9.923098702989883"><ele>561.2</ele><time>2026-04-25T08:01:16Z</time></trkpt><trkpt lat="44.74862823733213" lon="9.922975790265602"><ele>560.0</ele><time>2026-04-25T08:01:16.999Z</time></trkpt><trkpt lat="44.74858485585665" lon="9.922871401537831"><ele>560.0</ele><time>2026-04-25T08:01:17.999Z</time></trkpt><trkpt lat="44.748514526242296" lon="9.922791788940046"><ele>560.0</ele><time>2026-04-25T08:01:18.999Z</time></trkpt><trkpt lat="44.74841511092006" lon="9.922786919791344"><ele>560.0</ele><time>2026-04-25T08:01:19.999Z</time></trkpt><trkpt lat="44.748327177420265" lon="9.922862402674715"><ele>560.0</ele><time>2026-04-25T08:01:20.999Z</time></trkpt><trkpt lat="44.74825657349532" lon="9.922952477366344"><ele>560.0</ele><time>2026-04-25T08:01:21.999Z</time></trkpt><trkpt lat="44.74819974259888" lon="9.92306450586544"><ele>560.0</ele><time>2026-04-25T08:01:22.999Z</time></trkpt><trkpt lat="44.74814606570332" lon="9.92318335370579"><ele>560.0</ele><time>2026-04-25T08:01:23.999Z</time></trkpt><trkpt lat="44.74809280046639" lon="9.92330914009753"><ele>560.0</ele><time>2026-04-25T08:01:24.999Z</time></trkpt><trkpt lat="44.748035289234906" lon="9.923437328746271"><ele>560.0</ele><time>2026-04-25T08:01:25.999Z</time></trkpt><trkpt lat="44.747963658836746" lon="9.923553644354882"><ele>560.0</ele><time>2026-04-25T08:01:26.999Z</time></trkpt><trkpt lat="44.747865953330134" lon="9.923635975064554"><ele>558.75</ele><time>2026-04-25T08:01:27.999Z</time></trkpt><trkpt lat="44.74774914181008" lon="9.923669092172629"><ele>557.5</ele><time>2026-04-25T08:01:28.999Z</time></trkpt><trkpt lat="44.747630561659356" lon="9.923670518761796"><ele>556.25</ele><time>2026-04-25T08:01:29.999Z</time></trkpt><trkpt lat="44.74751108748571" lon="9.923660885368268"><ele>555.0</ele><time>2026-04-25T08:01:30.999Z</time></trkpt><trkpt lat="44.74738820828697" lon="9.923648248726987"><ele>555.0</ele><time>2026-04-25T08:01:31.999Z</time></trkpt><trkpt lat="44.74726365738753" lon="9.923634671346742"><ele>555.0</ele><time>2026-04-25T08:01:32.999Z</time></trkpt><trkpt lat="44.74714129079606" lon="9.92362144667973"><ele>555.0</ele><time>2026-04-25T08:01:33.999Z</time></trkpt><trkpt lat="44.747019931618404" lon="9.923626815597544"><ele>555.0</ele><time>2026-04-25T08:01:34.999Z</time></trkpt><trkpt lat="44.746895446282295" lon="9.923637725024028"><ele>551.5</ele><time>2026-04-25T08:01:35.999Z</time></trkpt><trkpt lat="44.746787538529375" lon="9.923719238228268"><ele>548.0</ele><time>2026-04-25T08:01:36.999Z</time></trkpt><trkpt lat="44.746703520983935" lon="9.92384290204007"><ele>544.5</ele><time>2026-04-25T08:01:37.999Z</time></trkpt><trkpt lat="44.746654466337674" lon="9.924004542830058"><ele>541.0</ele><time>2026-04-25T08:01:38.999Z</time></trkpt><trkpt lat="44.74659984045596" lon="9.924157116204825"><ele>541.5</ele><time>2026-04-25T08:01:39.999Z</time></trkpt><trkpt lat="44.74654869353556" lon="9.924312264839923"><ele>542.0</ele><time>2026-04-25T08:01:40.999Z</time></trkpt><trkpt lat="44.74648063595963" lon="9.924455624298353"><ele>542.5</ele><time>2026-04-25T08:01:41.999Z</time></trkpt><trkpt lat="44.746426226868856" lon="9.92461033124986"><ele>543.0</ele><time>2026-04-25T08:01:42.999Z</time></trkpt><trkpt lat="44.74637068437824" lon="9.924766274877838"><ele>543.0</ele><time>2026-04-25T08:01:43.999Z</time></trkpt><trkpt lat="44.74631432005475" lon="9.924924525912294"><ele>543.0</ele><time>2026-04-25T08:01:44.999Z</time></trkpt><trkpt lat="44.74625986080607" lon="9.925086347558599"><ele>543.0</ele><time>2026-04-25T08:01:45.999Z</time></trkpt><trkpt lat="44.746236267742574" lon="9.925267371713039"><ele>543.0</ele><time>2026-04-25T08:01:46.999Z</time></trkpt><trkpt lat="44.74621371331137" lon="9.925449713092355"><ele>541.0</ele><time>2026-04-25T08:01:47.999Z</time></trkpt><trkpt lat="44.74620706683712" lon="9.925632125080934"><ele>539.0</ele><time>2026-04-25T08:01:48.999Z</time></trkpt><trkpt lat="44.746222706420845" lon="9.925812967996343"><ele>537.0</ele><time>2026-04-25T08:01:49.999Z</time></trkpt><trkpt lat="44.746261783372326" lon="9.925986929119855"><ele>535.0</ele><time>2026-04-25T08:01:50.999Z</time></trkpt><trkpt lat="44.74634109493407" lon="9.926126510171937"><ele>532.25</ele><time>2026-04-25T08:01:51.999Z</time></trkpt><trkpt lat="44.74644600025292" lon="9.926220493464283"><ele>529.5</ele><time>2026-04-25T08:01:52.999Z</time></trkpt><trkpt lat="44.74656032870987" lon="9.92628737075947"><ele>526.75</ele><time>2026-04-25T08:01:53.999Z</time></trkpt><trkpt lat="44.74666159319909" lon="9.926375400755447"><ele>524.0</ele><time>2026-04-25T08:01:54.999Z</time></trkpt><trkpt lat="44.746713700294166" lon="9.926528296317407"><ele>524.0</ele><time>2026-04-25T08:01:55.999Z</time></trkpt><trkpt lat="44.74676242807655" lon="9.926686995432753"><ele>524.0</ele><time>2026-04-25T08:01:56.999Z</time></trkpt><trkpt lat="44.746784073600615" lon="9.926857196830237"><ele>524.0</ele><time>2026-04-25T08:01:57.999Z</time></trkpt><trkpt lat="44.746831857226624" lon="9.927015512830504"><ele>524.0</ele><time>2026-04-25T08:01:58.999Z</time></trkpt><trkpt lat="44.74691676700652" lon="9.927150566286775"><ele>521.5</ele><time>2026-04-25T08:01:59.999Z</time></trkpt><trkpt lat="44.747017682437736" lon="9.927259306174696"><ele>519.0</ele><time>2026-04-25T08:02:00.999Z</time></trkpt><trkpt lat="44.74713620684953" lon="9.927315932240823"><ele>516.5</ele><time>2026-04-25T08:02:01.999Z</time></trkpt><trkpt lat="44.74726207040755" lon="9.92732835836084"><ele>514.0</ele><time>2026-04-25T08:02:02.999Z</time></trkpt><trkpt lat="44.74738557947594" lon="9.927300124271202"><ele>514.0</ele><time>2026-04-25T08:02:03.999Z</time></trkpt><trkpt lat="44.74750887489903" lon="9.927278825916348"><ele>514.0</ele><time>2026-04-25T08:02:04.999Z</time></trkpt><trkpt lat="44.747634014888746" lon="9.92729946080012"><ele>514.0</ele><time>2026-04-25T08:02:05.999Z</time></trkpt><trkpt lat="44.74775335442781" lon="9.927368040867059"><ele>514.0</ele><time>2026-04-25T08:02:06.999Z</time></trkpt><trkpt lat="44.74784525961405" lon="9.927491410242245"><ele>515.5</ele><time>2026-04-25T08:02:07.999Z</time></trkpt><trkpt lat="44.74795426661487" lon="9.92759512497019"><ele>517.0</ele><time>2026-04-25T08:02:08.999Z</time></trkpt><trkpt lat="44.74803282890097" lon="9.92773414960347"><ele>518.5</ele><time>2026-04-25T08:02:09.999Z</time></trkpt><trkpt lat="44.748059311772984" lon="9.927910915644453"><ele>520.0</ele><time>2026-04-25T08:02:10.998Z</time></trkpt><trkpt lat="44.74807326806372" lon="9.928093571764606"><ele>520.0</ele><time>2026-04-25T08:02:11.998Z</time></trkpt><trkpt lat="44.74803201781665" lon="9.928271816582818"><ele>520.0</ele><time>2026-04-25T08:02:12.998Z</time></trkpt><trkpt lat="44.747950686062325" lon="9.92842077631506"><ele>520.0</ele><time>2026-04-25T08:02:13.998Z</time></trkpt><trkpt lat="44.74783921199207" lon="9.928523262587394"><ele>520.0</ele><time>2026-04-25T08:02:14.998Z</time></trkpt><trkpt lat="44.74770915697026" lon="9.928542186672647"><ele>516.5</ele><time>2026-04-25T08:02:15.998Z</time></trkpt><trkpt lat="44.747583467049644" lon="9.928526922448183"><ele>513.0</ele><time>2026-04-25T08:02:16.998Z</time></trkpt><trkpt lat="44.747464612790836" lon="9.928463274475094"><ele>509.5</ele><time>2026-04-25T08:02:17.998Z</time></trkpt><trkpt lat="44.747338040560884" lon="9.928415376258167"><ele>506.0</ele><time>2026-04-25T08:02:18.998Z</time></trkpt><trkpt lat="44.74721130981906" lon="9.928374351758514"><ele>505.75</ele><time>2026-04-25T08:02:19.998Z</time></trkpt><trkpt lat="44.74707364936062" lon="9.928356967344632"><ele>505.5</ele><time>2026-04-25T08:02:20.998Z</time></trkpt><trkpt lat="44.74693763786767" lon="9.928330275225608"><ele>505.25</ele><time>2026-04-25T08:02:21.998Z</time></trkpt><trkpt lat="44.746794741842244" lon="9.928351530299977"><ele>505.0</ele><time>2026-04-25T08:02:22.998Z</time></trkpt><trkpt lat="44.746666323781554" lon="9.928434426040628"><ele>502.25</ele><time>2026-04-25T08:02:23.998Z</time></trkpt><trkpt lat="44.74653981378115" lon="9.928519812387764"><ele>499.5</ele><time>2026-04-25T08:02:24.998Z</time></trkpt><trkpt lat="44.74641219785286" lon="9.928579366139918"><ele>496.75</ele><time>2026-04-25T08:02:25.998Z</time></trkpt><trkpt lat="44.74630360944055" lon="9.928654799054852"><ele>494.0</ele><time>2026-04-25T08:02:26.998Z</time></trkpt><trkpt lat="44.74618293256957" lon="9.92864884862144"><ele>494.0</ele><time>2026-04-25T08:02:27.998Z</time></trkpt><trkpt lat="44.74606395032456" lon="9.928606504160149"><ele>494.0</ele><time>2026-04-25T08:02:28.998Z</time></trkpt><trkpt lat="44.74594443375356" lon="9.928561089846927"><ele>494.0</ele><time>2026-04-25T08:02:29.998Z</time></trkpt><trkpt lat="44.74581876659637" lon="9.928532205961732"><ele>494.0</ele><time>2026-04-25T08:02:30.998Z</time></trkpt><trkpt lat="44.74569117524929" lon="9.928518241794338"><ele>491.75</ele><time>2026-04-25T08:02:31.998Z</time></trkpt><trkpt lat="44.74556187990548" lon="9.928510792003685"><ele>489.5</ele><time>2026-04-25T08:02:32.998Z</time></trkpt><trkpt lat="44.745434128591555" lon="9.92847844778362"><ele>487.25</ele><time>2026-04-25T08:02:33.998Z</time></trkpt><trkpt lat="44.745312316930935" lon="9.928408306656973"><ele>485.0</ele><time>2026-04-25T08:02:34.998Z</time></trkpt><trkpt lat="44.74519572618407" lon="9.928321024870668"><ele>484.5</ele><time>2026-04-25T08:02:35.998Z</time></trkpt><trkpt lat="44.74508094743379" lon="9.928224312780856"><ele>484.0</ele><time>2026-04-25T08:02:36.998Z</time></trkpt><trkpt lat="44.74496244155732" lon="9.928133838077512"><ele>483.5</ele><time>2026-04-25T08:02:37.998Z</time></trkpt><trkpt lat="44.74484243041039" lon="9.928043641511234"><ele>483.0</ele><time>2026-04-25T08:02:38.998Z</time></trkpt><trkpt lat="44.7447296302749" lon="9.927935857863632"><ele>483.0</ele><time>2026-04-25T08:02:39.998Z</time></trkpt><trkpt lat="44.74463450728362" lon="9.927794084578872"><ele>483.0</ele><time>2026-04-25T08:02:40.998Z</time></trkpt><trkpt lat="44.74456477550567" lon="9.927634735502021"><ele>483.0</ele><time>2026-04-25T08:02:41.998Z</time></trkpt><trkpt lat="44.744524089446045" lon="9.927452853417723"><ele>483.0</ele><time>2026-04-25T08:02:43Z</time></trkpt><trkpt lat="44.744469380599" lon="9.927285307489926"><ele>484.75</ele><time>2026-04-25T08:02:44Z</time></trkpt><trkpt lat="44.744390140605226" lon="9.927144103103934"><ele>486.5</ele><time>2026-04-25T08:02:45Z</time></trkpt><trkpt lat="44.74427682030821" lon="9.927053465997272"><ele>488.25</ele><time>2026-04-25T08:02:46Z</time></trkpt><trkpt lat="44.7441508142963" lon="9.926996724511092"><ele>490.0</ele><time>2026-04-25T08:02:47Z</time></trkpt><trkpt lat="44.74401304255705" lon="9.927025073399077"><ele>486.25</ele><time>2026-04-25T08:02:48Z</time></trkpt><trkpt lat="44.74388326805164" lon="9.927083825911211"><ele>482.5</ele><time>2026-04-25T08:02:49Z</time></trkpt><trkpt lat="44.74377082548939" lon="9.927199502488584"><ele>478.75</ele><time>2026-04-25T08:02:50Z</time></trkpt><trkpt lat="44.74365934875831" lon="9.92731354835338"><ele>475.0</ele><time>2026-04-25T08:02:51Z</time></trkpt><trkpt lat="44.74354929524339" lon="9.927428841966229"><ele>473.75</ele><time>2026-04-25T08:02:52Z</time></trkpt><trkpt lat="44.743435144985064" lon="9.927541080019703"><ele>472.5</ele><time>2026-04-25T08:02:53Z</time></trkpt><trkpt lat="44.743315812474876" lon="9.927645472040943"><ele>471.25</ele><time>2026-04-25T08:02:54Z</time></trkpt><trkpt lat="44.74317857919986" lon="9.927696369706702"><ele>470.0</ele><time>2026-04-25T08:02:55Z</time></trkpt><trkpt lat="44.74304766336725" lon="9.927775176769705"><ele>467.75</ele><time>2026-04-25T08:02:56Z</time></trkpt><trkpt lat="44.742910470297055" lon="9.927833819041545"><ele>465.5</ele><time>2026-04-25T08:02:57Z</time></trkpt><trkpt lat="44.742770222401134" lon="9.9278886333238"><ele>463.25</ele><time>2026-04-25T08:02:58Z</time></trkpt><trkpt lat="44.74265518481581" lon="9.92802734927248"><ele>461.0</ele><time>2026-04-25T08:02:59Z</time></trkpt><trkpt lat="44.74255306029044" lon="9.928176640935773"><ele>461.0</ele><time>2026-04-25T08:03:00Z</time></trkpt><trkpt lat="44.74244342513502" lon="9.928311984474966"><ele>461.0</ele><time>2026-04-25T08:03:01Z</time></trkpt><trkpt lat="44.74234619606908" lon="9.928444533406651"><ele>461.0</ele><time>2026-04-25T08:03:02Z</time></trkpt><trkpt lat="44.7422158056339" lon="9.928500245264265"><ele>461.0</ele><time>2026-04-25T08:03:03Z</time></trkpt><trkpt lat="44.742076481109095" lon="9.928463638408143"><ele>457.5</ele><time>2026-04-25T08:03:04Z</time></trkpt><trkpt lat="44.74193735789645" lon="9.928452897566403"><ele>454.0</ele><time>2026-04-25T08:03:05Z</time></trkpt><trkpt lat="44.74180094760088" lon="9.928416999017957"><ele>450.5</ele><time>2026-04-25T08:03:06Z</time></trkpt><trkpt lat="44.74166173018008" lon="9.928405027816245"><ele>447.0</ele><time>2026-04-25T08:03:07Z</time></trkpt><trkpt lat="44.741528624457295" lon="9.92843498576187"><ele>445.75</ele><time>2026-04-25T08:03:08Z</time></trkpt><trkpt lat="44.741410781070854" lon="9.928515807696545"><ele>444.5</ele><time>2026-04-25T08:03:09Z</time></trkpt><trkpt lat="44.74131698217225" lon="9.928630305014945"><ele>443.25</ele><time>2026-04-25T08:03:10Z</time></trkpt><trkpt lat="44.741241613182204" lon="9.928742035889869"><ele>442.0</ele><time>2026-04-25T08:03:11Z</time></trkpt><trkpt lat="44.74116598338307" lon="9.928834252169263"><ele>442.0</ele><time>2026-04-25T08:03:12Z</time></trkpt><trkpt lat="44.74107530343733" lon="9.92889791286993"><ele>442.00000000000006</ele><time>2026-04-25T08:03:13Z</time></trkpt><trkpt lat="44.74098171449662" lon="9.928929382681423"><ele>442.00000000000006</ele><time>2026-04-25T08:03:14Z</time></trkpt><trkpt lat="44.740886192346416" lon="9.928918009129161"><ele>442.0</ele><time>2026-04-25T08:03:15Z</time></trkpt><trkpt lat="44.74078861823471" lon="9.928936541760015"><ele>442.0</ele><time>2026-04-25T08:03:16Z</time></trkpt><trkpt lat="44.740694331911264" lon="9.928926299959288"><ele>441.83333333333337</ele><time>2026-04-25T08:03:17Z</time></trkpt><trkpt lat="44.74060345580987" lon="9.928925966495664"><ele>441.6666666666667</ele><time>2026-04-25T08:03:18Z</time></trkpt><trkpt lat="44.740511984157465" lon="9.928932808729945"><ele>441.5</ele><time>2026-04-25T08:03:19Z</time></trkpt><trkpt lat="44.74042528667715" lon="9.928943829896342"><ele>441.33333333333337</ele><time>2026-04-25T08:03:20Z</time></trkpt><trkpt lat="44.740343473262605" lon="9.928966668020712"><ele>441.1666666666667</ele><time>2026-04-25T08:03:21Z</time></trkpt><trkpt lat="44.74025837306857" lon="9.928973864576273"><ele>441.0</ele><time>2026-04-25T08:03:22Z</time></trkpt><trkpt lat="44.740179821943435" lon="9.92900462857749"><ele>441.0</ele><time>2026-04-25T08:03:22.999Z</time></trkpt><trkpt lat="44.740108752719834" lon="9.929032801834273"><ele>441.0</ele><time>2026-04-25T08:03:23.999Z</time></trkpt><trkpt lat="44.74004084572281" lon="9.929061293942333"><ele>441.0</ele><time>2026-04-25T08:03:24.999Z</time></trkpt><trkpt lat="44.73998305091216" lon="9.929107479692204"><ele>441.0</ele><time>2026-04-25T08:03:25.999Z</time></trkpt><trkpt lat="44.73991657418902" lon="9.929133319966951"><ele>441.0</ele><time>2026-04-25T08:03:26.999Z</time></trkpt><trkpt lat="44.739848787993076" lon="9.929165076203347"><ele>441.0</ele><time>2026-04-25T08:03:27.999Z</time></trkpt><trkpt lat="44.739787092172854" lon="9.929203353653497"><ele>441.0</ele><time>2026-04-25T08:03:28.999Z</time></trkpt><trkpt lat="44.739731149723106" lon="9.929248814599923"><ele>439.57142857142856</ele><time>2026-04-25T08:03:29.999Z</time></trkpt><trkpt lat="44.739676921184895" lon="9.929304975499536"><ele>438.1428571428571</ele><time>2026-04-25T08:03:30.999Z</time></trkpt><trkpt lat="44.739628649789374" lon="9.929369412141337"><ele>436.7142857142857</ele><time>2026-04-25T08:03:31.999Z</time></trkpt><trkpt lat="44.739589127342114" lon="9.929454480605974"><ele>435.2857142857143</ele><time>2026-04-25T08:03:32.999Z</time></trkpt><trkpt lat="44.73955344210604" lon="9.92954813390201"><ele>433.85714285714283</ele><time>2026-04-25T08:03:33.999Z</time></trkpt><trkpt lat="44.739528323173964" lon="9.929639000918192"><ele>432.42857142857144</ele><time>2026-04-25T08:03:34.999Z</time></trkpt><trkpt lat="44.73951069782023" lon="9.929734153141345"><ele>431.0</ele><time>2026-04-25T08:03:35.999Z</time></trkpt><trkpt lat="44.73949605048367" lon="9.92982936454649"><ele>431.0</ele><time>2026-04-25T08:03:36.999Z</time></trkpt><trkpt lat="44.73947932526286" lon="9.929932004559046"><ele>431.0</ele><time>2026-04-25T08:03:37.999Z</time></trkpt><trkpt lat="44.73946344589962" lon="9.930029166338615"><ele>431.0</ele><time>2026-04-25T08:03:38.999Z</time></trkpt><trkpt lat="44.739445143136614" lon="9.930125199527446"><ele>431.0</ele><time>2026-04-25T08:03:39.999Z</time></trkpt><trkpt lat="44.73941880403795" lon="9.930218333305934"><ele>431.0</ele><time>2026-04-25T08:03:40.999Z</time></trkpt><trkpt lat="44.7393801494643" lon="9.930306758263425"><ele>431.0</ele><time>2026-04-25T08:03:41.999Z</time></trkpt><trkpt lat="44.73933182452967" lon="9.930376888452601"><ele>431.0</ele><time>2026-04-25T08:03:42.999Z</time></trkpt><trkpt lat="44.73927900890109" lon="9.930433681654769"><ele>430.42857142857144</ele><time>2026-04-25T08:03:43.999Z</time></trkpt><trkpt lat="44.739218369459" lon="9.930477253739895"><ele>429.85714285714283</ele><time>2026-04-25T08:03:44.999Z</time></trkpt><trkpt lat="44.73915179012257" lon="9.930509653939676"><ele>429.2857142857143</ele><time>2026-04-25T08:03:45.999Z</time></trkpt><trkpt lat="44.739080083208954" lon="9.930533859054151"><ele>428.7142857142857</ele><time>2026-04-25T08:03:46.999Z</time></trkpt><trkpt lat="44.73900349402571" lon="9.930545370642504"><ele>428.1428571428571</ele><time>2026-04-25T08:03:47.999Z</time></trkpt><trkpt lat="44.7389277044848" lon="9.93053889250322"><ele>427.57142857142856</ele><time>2026-04-25T08:03:48.999Z</time></trkpt><trkpt lat="44.73885622352358" lon="9.930516748234327"><ele>427.0</ele><time>2026-04-25T08:03:49.999Z</time></trkpt><trkpt lat="44.73878731362024" lon="9.930479925590195"><ele>427.00000000000006</ele><time>2026-04-25T08:03:50.999Z</time></trkpt><trkpt lat="44.738721810992324" lon="9.93042125624922"><ele>427.0</ele><time>2026-04-25T08:03:51.999Z</time></trkpt><trkpt lat="44.738663670630906" lon="9.930347736692898"><ele>427.0</ele><time>2026-04-25T08:03:52.999Z</time></trkpt><trkpt lat="44.73861162852079" lon="9.9302641337166"><ele>427.0</ele><time>2026-04-25T08:03:53.999Z</time></trkpt><trkpt lat="44.73856720910418" lon="9.930170131617103"><ele>427.00000000000006</ele><time>2026-04-25T08:03:54.999Z</time></trkpt><trkpt lat="44.738525626283305" lon="9.93007154091176"><ele>427.0</ele><time>2026-04-25T08:03:55.999Z</time></trkpt><trkpt lat="44.7384843805201" lon="9.92997066089274"><ele>426.33333333333337</ele><time>2026-04-25T08:03:56.999Z</time></trkpt><trkpt lat="44.738439759287154" lon="9.92986735539107"><ele>425.6666666666667</ele><time>2026-04-25T08:03:57.999Z</time></trkpt><trkpt lat="44.738395121396415" lon="9.929765697861598"><ele>425.0</ele><time>2026-04-25T08:03:58.999Z</time></trkpt><trkpt lat="44.738350036798174" lon="9.929659764750806"><ele>424.33333333333337</ele><time>2026-04-25T08:03:59.999Z</time></trkpt><trkpt lat="44.73830548300697" lon="9.929553914186586"><ele>423.6666666666667</ele><time>2026-04-25T08:04:00.999Z</time></trkpt><trkpt lat="44.73826148793524" lon="9.92944875930054"><ele>423.0</ele><time>2026-04-25T08:04:01.999Z</time></trkpt><trkpt lat="44.738217643677686" lon="9.929345931320164"><ele>423.0</ele><time>2026-04-25T08:04:02.999Z</time></trkpt><trkpt lat="44.738173624829365" lon="9.929248250609813"><ele>423.0</ele><time>2026-04-25T08:04:03.999Z</time></trkpt><trkpt lat="44.73813122357967" lon="9.929154166687349"><ele>423.0</ele><time>2026-04-25T08:04:04.999Z</time></trkpt><trkpt lat="44.73808871824266" lon="9.929062053496319"><ele>423.0</ele><time>2026-04-25T08:04:05.999Z</time></trkpt><trkpt lat="44.73804053606921" lon="9.928974973829959"><ele>423.0</ele><time>2026-04-25T08:04:06.999Z</time></trkpt><trkpt lat="44.73798258569255" lon="9.928895545301984"><ele>423.0</ele><time>2026-04-25T08:04:07.999Z</time></trkpt><trkpt lat="44.73791557846745" lon="9.928828515449393"><ele>423.0</ele><time>2026-04-25T08:04:08.999Z</time></trkpt><trkpt lat="44.73784864578012" lon="9.928770869983925"><ele>423.0</ele><time>2026-04-25T08:04:09.999Z</time></trkpt><trkpt lat="44.737784318377095" lon="9.928728215852436"><ele>423.0</ele><time>2026-04-25T08:04:10.999Z</time></trkpt><trkpt lat="44.737715668230784" lon="9.92869561123043"><ele>423.0</ele><time>2026-04-25T08:04:11.999Z</time></trkpt><trkpt lat="44.737648796569566" lon="9.928672315203624"><ele>423.0</ele><time>2026-04-25T08:04:12.999Z</time></trkpt><trkpt lat="44.73753406665495" lon="9.928629165915336"><ele>423.0</ele><time>2026-04-25T08:04:14.999Z</time></trkpt><trkpt lat="44.73744109319455" lon="9.928598455531038"><ele>421.4</ele><time>2026-04-25T08:04:16.998Z</time></trkpt><trkpt lat="44.737358895368665" lon="9.9285528835411"><ele>419.79999999999995</ele><time>2026-04-25T08:04:18.998Z</time></trkpt><trkpt lat="44.737291204233955" lon="9.928527013618476"><ele>418.2</ele><time>2026-04-25T08:04:21.998Z</time></trkpt><trkpt lat="44.73719560324815" lon="9.92870293103127"><ele>416.6</ele><time>2026-04-25T08:04:44.998Z</time></trkpt><trkpt lat="44.73723869382908" lon="9.92877172351303"><ele>415.0</ele><time>2026-04-25T08:07:01Z</time></trkpt><trkpt lat="44.73719742377625" lon="9.928675209840945"><ele>415.00000000000006</ele><time>2026-04-25T08:14:27.999Z</time></trkpt><trkpt lat="44.73718032304272" lon="9.92855389119855"><ele>415.0</ele><time>2026-04-25T08:14:33.999Z</time></trkpt><trkpt lat="44.73711274874692" lon="9.928468292148432"><ele>415.0</ele><time>2026-04-25T08:14:36.999Z</time></trkpt><trkpt lat="44.73706592450841" lon="9.92840055442905"><ele>415.0</ele><time>2026-04-25T08:14:38.998Z</time></trkpt><trkpt lat="44.73702590900933" lon="9.928304437220064"><ele>415.00000000000006</ele><time>2026-04-25T08:14:40.998Z</time></trkpt><trkpt lat="44.736981199601075" lon="9.928202099830681"><ele>415.0</ele><time>2026-04-25T08:14:42.998Z</time></trkpt><trkpt lat="44.7369213608608" lon="9.928106521700713"><ele>415.0</ele><time>2026-04-25T08:14:44.998Z</time></trkpt><trkpt lat="44.736867606401276" lon="9.927999872995821"><ele>415.0</ele><time>2026-04-25T08:14:46.998Z</time></trkpt><trkpt lat="44.736812073688455" lon="9.9278938518664"><ele>415.0</ele><time>2026-04-25T08:14:48.998Z</time></trkpt><trkpt lat="44.73676004813155" lon="9.927784151936091"><ele>415.0</ele><time>2026-04-25T08:14:50.998Z</time></trkpt><trkpt lat="44.73669761917491" lon="9.927672014099679"><ele>415.0</ele><time>2026-04-25T08:14:52.998Z</time></trkpt><trkpt lat="44.73664279045302" lon="9.927555865814812"><ele>415.0</ele><time>2026-04-25T08:14:54.998Z</time></trkpt><trkpt lat="44.73658200133947" lon="9.927439130470148"><ele>415.0</ele><time>2026-04-25T08:14:56.998Z</time></trkpt><trkpt lat="44.73652067921605" lon="9.927324487715099"><ele>415.0</ele><time>2026-04-25T08:14:58.998Z</time></trkpt><trkpt lat="44.73645352358958" lon="9.927207792235377"><ele>415.0</ele><time>2026-04-25T08:15:00.998Z</time></trkpt><trkpt lat="44.73639338189672" lon="9.927084829575874"><ele>415.0</ele><time>2026-04-25T08:15:02.998Z</time></trkpt><trkpt lat="44.73633186591122" lon="9.926970283068659"><ele>415.0</ele><time>2026-04-25T08:15:04.998Z</time></trkpt><trkpt lat="44.7362593305029" lon="9.926866752460189"><ele>415.0</ele><time>2026-04-25T08:15:06.998Z</time></trkpt><trkpt lat="44.73618063562936" lon="9.926767117977798"><ele>415.0</ele><time>2026-04-25T08:15:08.998Z</time></trkpt><trkpt lat="44.736101310107635" lon="9.926669971264419"><ele>415.0</ele><time>2026-04-25T08:15:10.998Z</time></trkpt><trkpt lat="44.736020685434625" lon="9.92659363916789"><ele>415.0</ele><time>2026-04-25T08:15:12.998Z</time></trkpt><trkpt lat="44.73592894568359" lon="9.926528340209451"><ele>414.2</ele><time>2026-04-25T08:15:14.998Z</time></trkpt><trkpt lat="44.73584150645297" lon="9.926465148017922"><ele>413.4</ele><time>2026-04-25T08:15:16.998Z</time></trkpt><trkpt lat="44.73574470631467" lon="9.92640697316274"><ele>412.6</ele><time>2026-04-25T08:15:19Z</time></trkpt><trkpt lat="44.73564028854567" lon="9.926360151310318"><ele>411.8</ele><time>2026-04-25T08:15:21Z</time></trkpt><trkpt lat="44.73552680477316" lon="9.926303432233228"><ele>411.0</ele><time>2026-04-25T08:15:23Z</time></trkpt><trkpt lat="44.735426019251115" lon="9.926246264171274"><ele>411.0</ele><time>2026-04-25T08:15:25Z</time></trkpt><trkpt lat="44.73531576179477" lon="9.926182878518407"><ele>411.0</ele><time>2026-04-25T08:15:27Z</time></trkpt><trkpt lat="44.73520646119607" lon="9.926126802494332"><ele>411.0</ele><time>2026-04-25T08:15:29Z</time></trkpt><trkpt lat="44.73510388211248" lon="9.926073855448216"><ele>411.0</ele><time>2026-04-25T08:15:31Z</time></trkpt><trkpt lat="44.73500411821832" lon="9.92600908457421"><ele>411.6</ele><time>2026-04-25T08:15:33Z</time></trkpt><trkpt lat="44.73490363909657" lon="9.92596474066733"><ele>412.20000000000005</ele><time>2026-04-25T08:15:35Z</time></trkpt><trkpt lat="44.734808760395595" lon="9.925911823661401"><ele>412.79999999999995</ele><time>2026-04-25T08:15:37Z</time></trkpt><trkpt lat="44.73471860810591" lon="9.925865634226975"><ele>413.4</ele><time>2026-04-25T08:15:39Z</time></trkpt><trkpt lat="44.73463834684794" lon="9.925823096398108"><ele>414.0</ele><time>2026-04-25T08:15:41Z</time></trkpt><trkpt lat="44.73456942463724" lon="9.925780966388292"><ele>413.6666666666667</ele><time>2026-04-25T08:15:43Z</time></trkpt><trkpt lat="44.734520164235796" lon="9.925706214826947"><ele>413.33333333333337</ele><time>2026-04-25T08:15:45Z</time></trkpt><trkpt lat="44.734412394842884" lon="9.925749862005977"><ele>413.0</ele><time>2026-04-25T08:15:47Z</time></trkpt><trkpt lat="44.734352133624874" lon="9.925803714235723"><ele>412.6666666666667</ele><time>2026-04-25T08:15:49Z</time></trkpt><trkpt lat="44.7342950103727" lon="9.925846333488096"><ele>412.33333333333337</ele><time>2026-04-25T08:15:50.999Z</time></trkpt><trkpt lat="44.734237634235065" lon="9.925899656466457"><ele>412.0</ele><time>2026-04-25T08:15:52.999Z</time></trkpt><trkpt lat="44.73416858115542" lon="9.925945561013275"><ele>411.99999999999994</ele><time>2026-04-25T08:15:54.999Z</time></trkpt><trkpt lat="44.73414128150518" lon="9.926039818087236"><ele>412.0</ele><time>2026-04-25T08:15:56.999Z</time></trkpt><trkpt lat="44.73409921944765" lon="9.926110896032494"><ele>412.0</ele><time>2026-04-25T08:15:58.999Z</time></trkpt><trkpt lat="44.734067387603105" lon="9.926190071195748"><ele>412.0</ele><time>2026-04-25T08:16:00.999Z</time></trkpt><trkpt lat="44.73401437850376" lon="9.926303751183541"><ele>412.0</ele><time>2026-04-25T08:16:03.999Z</time></trkpt><trkpt lat="44.73397025438425" lon="9.926369165175625"><ele>411.99999999999994</ele><time>2026-04-25T08:16:05.999Z</time></trkpt><trkpt lat="44.733931398041136" lon="9.926451441517006"><ele>412.0</ele><time>2026-04-25T08:16:07.999Z</time></trkpt><trkpt lat="44.73386099991363" lon="9.926537684575543"><ele>411.99999999999994</ele><time>2026-04-25T08:16:10.999Z</time></trkpt><trkpt lat="44.73380051754159" lon="9.926594797121352"><ele>412.0</ele><time>2026-04-25T08:16:12.999Z</time></trkpt><trkpt lat="44.73374421273847" lon="9.926636328084808"><ele>412.0</ele><time>2026-04-25T08:16:14.999Z</time></trkpt><trkpt lat="44.733691292958284" lon="9.926695685574812"><ele>412.0</ele><time>2026-04-25T08:16:16.999Z</time></trkpt><trkpt lat="44.73363910945088" lon="9.926765160134355"><ele>412.0</ele><time>2026-04-25T08:16:18.999Z</time></trkpt><trkpt lat="44.73358194638474" lon="9.926823516379482"><ele>411.99999999999994</ele><time>2026-04-25T08:16:20.999Z</time></trkpt><trkpt lat="44.733507929684876" lon="9.926879212684103"><ele>412.0</ele><time>2026-04-25T08:16:22.999Z</time></trkpt><trkpt lat="44.733451761785474" lon="9.926924270930225"><ele>412.83333333333337</ele><time>2026-04-25T08:16:24.999Z</time></trkpt><trkpt lat="44.73338992958923" lon="9.926957880824617"><ele>413.6666666666667</ele><time>2026-04-25T08:16:26.999Z</time></trkpt><trkpt lat="44.73331036263896" lon="9.926997531546348"><ele>414.5</ele><time>2026-04-25T08:16:28.999Z</time></trkpt><trkpt lat="44.733204138988825" lon="9.92706410995029"><ele>415.33333333333337</ele><time>2026-04-25T08:16:31.999Z</time></trkpt><trkpt lat="44.73313618429387" lon="9.927140588397258"><ele>416.1666666666667</ele><time>2026-04-25T08:16:33.999Z</time></trkpt><trkpt lat="44.73306588403044" lon="9.92721248098017"><ele>417.0</ele><time>2026-04-25T08:16:35.999Z</time></trkpt><trkpt lat="44.732989003603656" lon="9.92727605020064"><ele>417.0</ele><time>2026-04-25T08:16:37.999Z</time></trkpt><trkpt lat="44.73292981888275" lon="9.9273477369239"><ele>417.0</ele><time>2026-04-25T08:16:39.999Z</time></trkpt><trkpt lat="44.732870846460095" lon="9.92740538986026"><ele>417.0</ele><time>2026-04-25T08:16:41.998Z</time></trkpt><trkpt lat="44.73276543408481" lon="9.927453350392524"><ele>417.0</ele><time>2026-04-25T08:16:43.998Z</time></trkpt><trkpt lat="44.73269076468923" lon="9.927512006060237"><ele>417.0</ele><time>2026-04-25T08:16:45.998Z</time></trkpt><trkpt lat="44.732622392713516" lon="9.927582748135437"><ele>417.0</ele><time>2026-04-25T08:16:47.998Z</time></trkpt><trkpt lat="44.73255466796728" lon="9.927629242917158"><ele>417.5</ele><time>2026-04-25T08:16:49.998Z</time></trkpt><trkpt lat="44.732493592122566" lon="9.927674915452434"><ele>418.0</ele><time>2026-04-25T08:16:51.998Z</time></trkpt><trkpt lat="44.73241716265315" lon="9.927747472761428"><ele>418.5</ele><time>2026-04-25T08:16:54.998Z</time></trkpt><trkpt lat="44.732330481890294" lon="9.927806483440161"><ele>419.0</ele><time>2026-04-25T08:16:57.998Z</time></trkpt><trkpt lat="44.73227259984892" lon="9.927858209840199"><ele>419.5</ele><time>2026-04-25T08:16:59.998Z</time></trkpt><trkpt lat="44.732194348960256" lon="9.927932015740573"><ele>420.0</ele><time>2026-04-25T08:17:02.998Z</time></trkpt><trkpt lat="44.73211922661773" lon="9.927984221029893"><ele>420.0</ele><time>2026-04-25T08:17:05.998Z</time></trkpt><trkpt lat="44.73205443272361" lon="9.928032434908289"><ele>420.0</ele><time>2026-04-25T08:17:08.998Z</time></trkpt><trkpt lat="44.73199139581538" lon="9.928073076716254"><ele>420.0</ele><time>2026-04-25T08:17:11.998Z</time></trkpt><trkpt lat="44.73191284591227" lon="9.928096513050525"><ele>420.0</ele><time>2026-04-25T08:17:15.998Z</time></trkpt><trkpt lat="44.731842643885265" lon="9.928116185533572"><ele>420.0</ele><time>2026-04-25T08:17:19.998Z</time></trkpt><trkpt lat="44.73181763882143" lon="9.928220857832583"><ele>420.0</ele><time>2026-04-25T08:17:24Z</time></trkpt><trkpt lat="44.73178266370216" lon="9.928310491439388"><ele>420.0</ele><time>2026-04-25T08:17:37Z</time></trkpt><trkpt lat="44.73179202606967" lon="9.928400129022434"><ele>420.3333333333333</ele><time>2026-04-25T08:17:45Z</time></trkpt><trkpt lat="44.731869159554726" lon="9.928372745475084"><ele>420.66666666666663</ele><time>2026-04-25T08:21:49Z</time></trkpt><trkpt lat="44.731825100332415" lon="9.928262327970131"><ele>421.0</ele><time>2026-04-25T08:22:35.364Z</time></trkpt><trkpt lat="44.73183965940878" lon="9.92839921456045"><ele>421.3333333333333</ele><time>2026-04-25T08:25:07.999Z</time></trkpt><trkpt lat="44.73182064582215" lon="9.928304677744066"><ele>421.66666666666663</ele><time>2026-04-25T08:30:22.998Z</time></trkpt><trkpt lat="44.73183462732809" lon="9.928207295783913"><ele>422.0</ele><time>2026-04-25T08:30:25.998Z</time></trkpt><trkpt lat="44.73179468761759" lon="9.928127638847668"><ele>420.8</ele><time>2026-04-25T08:30:27.998Z</time></trkpt><trkpt lat="44.73173596229869" lon="9.92805704754057"><ele>419.6</ele><time>2026-04-25T08:30:29.997Z</time></trkpt><trkpt lat="44.73168549334681" lon="9.927956883988838"><ele>418.40000000000003</ele><time>2026-04-25T08:30:32Z</time></trkpt><trkpt lat="44.731613840394" lon="9.927851036127562"><ele>417.20000000000005</ele><time>2026-04-25T08:30:34Z</time></trkpt><trkpt lat="44.73155756984414" lon="9.927728276434907"><ele>416.0</ele><time>2026-04-25T08:30:36Z</time></trkpt><trkpt lat="44.731497566725345" lon="9.927618617220398"><ele>415.6</ele><time>2026-04-25T08:30:38Z</time></trkpt><trkpt lat="44.731443292289654" lon="9.927500852921536"><ele>415.20000000000005</ele><time>2026-04-25T08:30:40Z</time></trkpt><trkpt lat="44.73138891577285" lon="9.927385521900693"><ele>414.79999999999995</ele><time>2026-04-25T08:30:42Z</time></trkpt><trkpt lat="44.73136874809075" lon="9.92725569713091"><ele>414.4</ele><time>2026-04-25T08:30:44Z</time></trkpt><trkpt lat="44.73138700684327" lon="9.927122989658876"><ele>414.0</ele><time>2026-04-25T08:30:46Z</time></trkpt><trkpt lat="44.73140558055506" lon="9.927031121016375"><ele>414.0</ele><time>2026-04-25T08:30:47.999Z</time></trkpt><trkpt lat="44.73146509829263" lon="9.926822995074785"><ele>414.0</ele><time>2026-04-25T08:30:50.999Z</time></trkpt><trkpt lat="44.73147566082744" lon="9.926710900504848"><ele>414.0</ele><time>2026-04-25T08:30:52.999Z</time></trkpt><trkpt lat="44.73150389020328" lon="9.92661741231476"><ele>414.0</ele><time>2026-04-25T08:30:54.999Z</time></trkpt><trkpt lat="44.731532913650675" lon="9.926517416957232"><ele>414.0</ele><time>2026-04-25T08:30:56.999Z</time></trkpt><trkpt lat="44.73156042638754" lon="9.926412056686981"><ele>414.5</ele><time>2026-04-25T08:30:58.999Z</time></trkpt><trkpt lat="44.73158252643871" lon="9.926308385931462"><ele>415.0</ele><time>2026-04-25T08:31:00.999Z</time></trkpt><trkpt lat="44.73160606393125" lon="9.926205663794791"><ele>415.5</ele><time>2026-04-25T08:31:02.999Z</time></trkpt><trkpt lat="44.73163052053041" lon="9.926109981472692"><ele>416.0</ele><time>2026-04-25T08:31:04.999Z</time></trkpt><trkpt lat="44.731655552364074" lon="9.926016704133273"><ele>416.5</ele><time>2026-04-25T08:31:06.999Z</time></trkpt><trkpt lat="44.73168670660736" lon="9.92587449540868"><ele>417.0</ele><time>2026-04-25T08:31:09.999Z</time></trkpt><trkpt lat="44.73170509746451" lon="9.925779441540774"><ele>417.6666666666667</ele><time>2026-04-25T08:31:11.999Z</time></trkpt><trkpt lat="44.73172937449036" lon="9.92569278242013"><ele>418.33333333333337</ele><time>2026-04-25T08:31:13.999Z</time></trkpt><trkpt lat="44.731755840238904" lon="9.925579300425422"><ele>419.0</ele><time>2026-04-25T08:31:16.999Z</time></trkpt><trkpt lat="44.73177802882536" lon="9.92549019873221"><ele>419.6666666666667</ele><time>2026-04-25T08:31:18.999Z</time></trkpt><trkpt lat="44.73180730668228" lon="9.925367493301883"><ele>420.33333333333337</ele><time>2026-04-25T08:31:21.999Z</time></trkpt><trkpt lat="44.73182669124657" lon="9.925252039562196"><ele>421.0</ele><time>2026-04-25T08:31:24.999Z</time></trkpt><trkpt lat="44.73184644159392" lon="9.925153429732962"><ele>419.4</ele><time>2026-04-25T08:31:25.999Z</time></trkpt><trkpt lat="44.731891075620645" lon="9.925034630542353"><ele>417.8</ele><time>2026-04-25T08:31:29.999Z</time></trkpt><trkpt lat="44.73194613066575" lon="9.924884150006578"><ele>416.2</ele><time>2026-04-25T08:31:32.999Z</time></trkpt><trkpt lat="44.73198078049325" lon="9.92476955715425"><ele>414.59999999999997</ele><time>2026-04-25T08:31:35.999Z</time></trkpt><trkpt lat="44.73198785465472" lon="9.924594325506893"><ele>413.0</ele><time>2026-04-25T08:31:38.999Z</time></trkpt><trkpt lat="44.73194526286808" lon="9.924512960178944"><ele>412.99999999999994</ele><time>2026-04-25T08:31:40.998Z</time></trkpt><trkpt lat="44.73189153962794" lon="9.924408407354893"><ele>413.0</ele><time>2026-04-25T08:31:43.998Z</time></trkpt><trkpt lat="44.731842468342535" lon="9.924295238455874"><ele>413.0</ele><time>2026-04-25T08:31:46.998Z</time></trkpt><trkpt lat="44.731789797031595" lon="9.92418775985885"><ele>413.0</ele><time>2026-04-25T08:31:49.998Z</time></trkpt><trkpt lat="44.73175509118212" lon="9.924110105499395"><ele>412.99999999999994</ele><time>2026-04-25T08:31:51.998Z</time></trkpt><trkpt lat="44.7317196488617" lon="9.924036671528302"><ele>413.0</ele><time>2026-04-25T08:31:53.998Z</time></trkpt><trkpt lat="44.73167545762926" lon="9.923961569522382"><ele>415.49999999999994</ele><time>2026-04-25T08:31:56.998Z</time></trkpt><trkpt lat="44.73163496793448" lon="9.923886321149675"><ele>418.0</ele><time>2026-04-25T08:31:58.998Z</time></trkpt><trkpt lat="44.731593344309175" lon="9.923802214337696"><ele>420.5</ele><time>2026-04-25T08:32:01.998Z</time></trkpt><trkpt lat="44.73154975059896" lon="9.92371179143005"><ele>423.0</ele><time>2026-04-25T08:32:04.998Z</time></trkpt><trkpt lat="44.73150982761016" lon="9.923630063112894"><ele>425.49999999999994</ele><time>2026-04-25T08:32:06.998Z</time></trkpt><trkpt lat="44.731461183102596" lon="9.923538865135434"><ele>428.0</ele><time>2026-04-25T08:32:09.998Z</time></trkpt><trkpt lat="44.731413247888206" lon="9.923446539300992"><ele>427.8571428571429</ele><time>2026-04-25T08:32:11.998Z</time></trkpt><trkpt lat="44.731377558835824" lon="9.923370238100174"><ele>427.7142857142857</ele><time>2026-04-25T08:32:14.998Z</time></trkpt><trkpt lat="44.73132970432079" lon="9.92328040850385"><ele>427.57142857142856</ele><time>2026-04-25T08:32:16.998Z</time></trkpt><trkpt lat="44.73127566596552" lon="9.92318819390762"><ele>427.42857142857144</ele><time>2026-04-25T08:32:19.998Z</time></trkpt><trkpt lat="44.73122537496455" lon="9.923095644987406"><ele>427.2857142857143</ele><time>2026-04-25T08:32:21.998Z</time></trkpt><trkpt lat="44.73119521297189" lon="9.923016481142584"><ele>427.14285714285717</ele><time>2026-04-25T08:32:24.998Z</time></trkpt><trkpt lat="44.73117177036004" lon="9.922922313447298"><ele>427.0</ele><time>2026-04-25T08:32:26.998Z</time></trkpt><trkpt lat="44.73117248735158" lon="9.922795940488646"><ele>427.0</ele><time>2026-04-25T08:32:29.998Z</time></trkpt><trkpt lat="44.731206596143856" lon="9.922676622320587"><ele>427.00000000000006</ele><time>2026-04-25T08:32:32.998Z</time></trkpt><trkpt lat="44.73124441614004" lon="9.92259751601268"><ele>427.00000000000006</ele><time>2026-04-25T08:32:33.997Z</time></trkpt><trkpt lat="44.731337889298736" lon="9.922514629336767"><ele>427.0</ele><time>2026-04-25T08:32:38Z</time></trkpt><trkpt lat="44.73146813184476" lon="9.92236116582469"><ele>427.0</ele><time>2026-04-25T08:32:40.999Z</time></trkpt><trkpt lat="44.73153057068915" lon="9.922309662354175"><ele>427.7142857142857</ele><time>2026-04-25T08:32:42.999Z</time></trkpt><trkpt lat="44.73158968514006" lon="9.922255550440518"><ele>428.42857142857144</ele><time>2026-04-25T08:32:44.999Z</time></trkpt><trkpt lat="44.73164991899573" lon="9.922194363833254"><ele>429.1428571428571</ele><time>2026-04-25T08:32:46.999Z</time></trkpt><trkpt lat="44.73171248413399" lon="9.922125052134781"><ele>429.8571428571429</ele><time>2026-04-25T08:32:48.999Z</time></trkpt><trkpt lat="44.731759224115166" lon="9.92206066964608"><ele>430.57142857142856</ele><time>2026-04-25T08:32:50.999Z</time></trkpt><trkpt lat="44.731795521319924" lon="9.921952252528541"><ele>431.2857142857143</ele><time>2026-04-25T08:32:53.999Z</time></trkpt><trkpt lat="44.731807056959035" lon="9.921853506609164"><ele>432.0</ele><time>2026-04-25T08:32:55.999Z</time></trkpt><trkpt lat="44.73179958784633" lon="9.92176418415262"><ele>432.0</ele><time>2026-04-25T08:32:57.999Z</time></trkpt><trkpt lat="44.73176075289822" lon="9.921682874276584"><ele>432.0</ele><time>2026-04-25T08:32:59.999Z</time></trkpt><trkpt lat="44.73168882899655" lon="9.921656975069194"><ele>432.0</ele><time>2026-04-25T08:33:02.999Z</time></trkpt><trkpt lat="44.73160425906563" lon="9.921670123510918"><ele>432.0</ele><time>2026-04-25T08:33:05.999Z</time></trkpt><trkpt lat="44.731522359655" lon="9.921692714713686"><ele>432.0</ele><time>2026-04-25T08:33:07.999Z</time></trkpt><trkpt lat="44.731443238930524" lon="9.921737837080544"><ele>432.0</ele><time>2026-04-25T08:33:09.999Z</time></trkpt><trkpt lat="44.7313765851995" lon="9.921777678324805"><ele>432.0</ele><time>2026-04-25T08:33:11.999Z</time></trkpt><trkpt lat="44.73131069716602" lon="9.921809055750463"><ele>432.0</ele><time>2026-04-25T08:33:13.999Z</time></trkpt><trkpt lat="44.73121729950931" lon="9.921827911188341"><ele>432.0</ele><time>2026-04-25T08:33:16.999Z</time></trkpt><trkpt lat="44.73114341362122" lon="9.921831834620988"><ele>432.0</ele><time>2026-04-25T08:33:18.999Z</time></trkpt><trkpt lat="44.73107505114571" lon="9.921819223778831"><ele>432.0</ele><time>2026-04-25T08:33:20.999Z</time></trkpt><trkpt lat="44.73099478050297" lon="9.921802523423588"><ele>432.0</ele><time>2026-04-25T08:33:23.999Z</time></trkpt><trkpt lat="44.73091264774754" lon="9.921791827491793"><ele>434.3333333333333</ele><time>2026-04-25T08:33:26.999Z</time></trkpt><trkpt lat="44.73084965153578" lon="9.921782569960241"><ele>436.66666666666663</ele><time>2026-04-25T08:33:28.999Z</time></trkpt><trkpt lat="44.73076312258198" lon="9.921733809128966"><ele>439.0</ele><time>2026-04-25T08:33:31.999Z</time></trkpt><trkpt lat="44.730739310920285" lon="9.9216106611704"><ele>441.3333333333333</ele><time>2026-04-25T08:33:34.999Z</time></trkpt><trkpt lat="44.7307754136706" lon="9.921525123753849"><ele>443.66666666666663</ele><time>2026-04-25T08:33:36.999Z</time></trkpt><trkpt lat="44.730823290060584" lon="9.921443534187793"><ele>446.0</ele><time>2026-04-25T08:33:39.999Z</time></trkpt><trkpt lat="44.73089491665702" lon="9.921334763385422"><ele>446.49999999999994</ele><time>2026-04-25T08:33:42.999Z</time></trkpt><trkpt lat="44.73095772169855" lon="9.921271082571085"><ele>447.0</ele><time>2026-04-25T08:33:45.998Z</time></trkpt><trkpt lat="44.731034917767495" lon="9.921210582758027"><ele>447.5</ele><time>2026-04-25T08:33:48.998Z</time></trkpt><trkpt lat="44.73110972541733" lon="9.921164883988709"><ele>448.0</ele><time>2026-04-25T08:33:50.998Z</time></trkpt><trkpt lat="44.7311896922963" lon="9.921116910568134"><ele>448.49999999999994</ele><time>2026-04-25T08:33:53.998Z</time></trkpt><trkpt lat="44.73126079271901" lon="9.921067340802098"><ele>449.0</ele><time>2026-04-25T08:33:56.998Z</time></trkpt><trkpt lat="44.73133339381892" lon="9.92099816972129"><ele>448.49999999999994</ele><time>2026-04-25T08:33:59.998Z</time></trkpt><trkpt lat="44.731387892955894" lon="9.92091135376746"><ele>448.0</ele><time>2026-04-25T08:34:01.998Z</time></trkpt><trkpt lat="44.731427944033626" lon="9.920801584501973"><ele>447.5</ele><time>2026-04-25T08:34:04.998Z</time></trkpt><trkpt lat="44.73146126509531" lon="9.920692520023211"><ele>447.0</ele><time>2026-04-25T08:34:06.998Z</time></trkpt><trkpt lat="44.731470005286845" lon="9.920591405513772"><ele>446.49999999999994</ele><time>2026-04-25T08:34:09.998Z</time></trkpt><trkpt lat="44.73147373583995" lon="9.920474408841557"><ele>446.0</ele><time>2026-04-25T08:34:11.998Z</time></trkpt><trkpt lat="44.731463045189" lon="9.920347045657133"><ele>445.99999999999994</ele><time>2026-04-25T08:34:14.998Z</time></trkpt><trkpt lat="44.731440509652586" lon="9.920222287031274"><ele>446.0</ele><time>2026-04-25T08:34:17.998Z</time></trkpt><trkpt lat="44.731407922461194" lon="9.920112073274728"><ele>446.0</ele><time>2026-04-25T08:34:19.998Z</time></trkpt><trkpt lat="44.73137339973766" lon="9.920020376249724"><ele>446.0</ele><time>2026-04-25T08:34:22.998Z</time></trkpt><trkpt lat="44.731312245756655" lon="9.919923108946199"><ele>445.99999999999994</ele><time>2026-04-25T08:34:25.998Z</time></trkpt><trkpt lat="44.73126958167455" lon="9.919851644490649"><ele>446.0</ele><time>2026-04-25T08:34:27.998Z</time></trkpt><trkpt lat="44.731216897896346" lon="9.919775180143665"><ele>447.16666666666663</ele><time>2026-04-25T08:34:29.998Z</time></trkpt><trkpt lat="44.73115190673318" lon="9.919684761339369"><ele>448.3333333333333</ele><time>2026-04-25T08:34:32.998Z</time></trkpt><trkpt lat="44.73109278252031" lon="9.919601706514674"><ele>449.5</ele><time>2026-04-25T08:34:35.998Z</time></trkpt><trkpt lat="44.73104483654353" lon="9.919522583778033"><ele>450.66666666666663</ele><time>2026-04-25T08:34:37.997Z</time></trkpt><trkpt lat="44.73100938253335" lon="9.919422753617878"><ele>451.8333333333333</ele><time>2026-04-25T08:34:40.997Z</time></trkpt><trkpt lat="44.73099330329282" lon="9.919301546996168"><ele>453.0</ele><time>2026-04-25T08:34:43.999Z</time></trkpt><trkpt lat="44.730984034018086" lon="9.919185746890811"><ele>454.6666666666667</ele><time>2026-04-25T08:34:46.999Z</time></trkpt><trkpt lat="44.73097577909244" lon="9.919064871189263"><ele>456.33333333333337</ele><time>2026-04-25T08:34:48.999Z</time></trkpt><trkpt lat="44.73097243043709" lon="9.91895942019572"><ele>458.0</ele><time>2026-04-25T08:34:51.999Z</time></trkpt><trkpt lat="44.73096708727466" lon="9.918861426072784"><ele>459.6666666666667</ele><time>2026-04-25T08:34:53.999Z</time></trkpt><trkpt lat="44.730957204248824" lon="9.918739165758465"><ele>461.33333333333337</ele><time>2026-04-25T08:34:56.999Z</time></trkpt><trkpt lat="44.73094407183541" lon="9.918631527404642"><ele>463.0</ele><time>2026-04-25T08:34:58.999Z</time></trkpt><trkpt lat="44.730928716441525" lon="9.918532048005611"><ele>463.0</ele><time>2026-04-25T08:35:00.999Z</time></trkpt><trkpt lat="44.73090496737814" lon="9.918425682672789"><ele>462.99999999999994</ele><time>2026-04-25T08:35:02.999Z</time></trkpt><trkpt lat="44.73087267414154" lon="9.918338033805059"><ele>463.0</ele><time>2026-04-25T08:35:04.999Z</time></trkpt><trkpt lat="44.730838859597" lon="9.918242233389208"><ele>463.0</ele><time>2026-04-25T08:35:06.999Z</time></trkpt><trkpt lat="44.730808437131614" lon="9.918144794912793"><ele>462.99999999999994</ele><time>2026-04-25T08:35:09.999Z</time></trkpt><trkpt lat="44.730798235602165" lon="9.918054024365583"><ele>463.0</ele><time>2026-04-25T08:35:11.999Z</time></trkpt><trkpt lat="44.73082744236065" lon="9.917951478951503"><ele>463.0</ele><time>2026-04-25T08:35:14.999Z</time></trkpt><trkpt lat="44.730877192194335" lon="9.917852220075215"><ele>463.50000000000006</ele><time>2026-04-25T08:35:16.999Z</time></trkpt><trkpt lat="44.730923281916596" lon="9.917780276475963"><ele>464.0</ele><time>2026-04-25T08:35:19.999Z</time></trkpt><trkpt lat="44.7309711865362" lon="9.917704404954662"><ele>464.5</ele><time>2026-04-25T08:35:21.999Z</time></trkpt><trkpt lat="44.73102873327293" lon="9.91760717478804"><ele>465.0</ele><time>2026-04-25T08:35:24.999Z</time></trkpt><trkpt lat="44.73107529839852" lon="9.917519060734685"><ele>465.50000000000006</ele><time>2026-04-25T08:35:26.999Z</time></trkpt><trkpt lat="44.73108685521607" lon="9.917405567544524"><ele>466.0</ele><time>2026-04-25T08:35:29.999Z</time></trkpt><trkpt lat="44.731035064190486" lon="9.917340898951544"><ele>466.00000000000006</ele><time>2026-04-25T08:35:32.999Z</time></trkpt><trkpt lat="44.73095747881907" lon="9.91735667367186"><ele>466.0</ele><time>2026-04-25T08:35:35.999Z</time></trkpt><trkpt lat="44.730885668952126" lon="9.917399568322853"><ele>466.0</ele><time>2026-04-25T08:35:38.999Z</time></trkpt><trkpt lat="44.7308065492207" lon="9.917447249471314"><ele>466.0</ele><time>2026-04-25T08:35:41.999Z</time></trkpt><trkpt lat="44.73073511395621" lon="9.917496552214873"><ele>466.00000000000006</ele><time>2026-04-25T08:35:43.999Z</time></trkpt><trkpt lat="44.730672340025414" lon="9.9175374747732"><ele>466.0</ele><time>2026-04-25T08:35:47Z</time></trkpt><trkpt lat="44.73060589178969" lon="9.917578499230135"><ele>466.00000000000006</ele><time>2026-04-25T08:35:48.999Z</time></trkpt><trkpt lat="44.73053207372105" lon="9.917610849917276"><ele>466.0</ele><time>2026-04-25T08:35:51.999Z</time></trkpt><trkpt lat="44.73044952765285" lon="9.917633108627273"><ele>466.0</ele><time>2026-04-25T08:35:54.999Z</time></trkpt><trkpt lat="44.73036992587391" lon="9.917643650254337"><ele>466.0</ele><time>2026-04-25T08:35:56.999Z</time></trkpt><trkpt lat="44.73028394755481" lon="9.91765045155016"><ele>466.00000000000006</ele><time>2026-04-25T08:35:59.999Z</time></trkpt><trkpt lat="44.73020109536708" lon="9.917659733161543"><ele>466.0</ele><time>2026-04-25T08:36:02.999Z</time></trkpt><trkpt lat="44.730126723498984" lon="9.917674099093372"><ele>467.6666666666667</ele><time>2026-04-25T08:36:04.999Z</time></trkpt><trkpt lat="44.73004398861951" lon="9.917702534039389"><ele>469.33333333333337</ele><time>2026-04-25T08:36:07.999Z</time></trkpt><trkpt lat="44.72997378022687" lon="9.91773011069899"><ele>471.0</ele><time>2026-04-25T08:36:10.999Z</time></trkpt><trkpt lat="44.72990868626922" lon="9.917764497983068"><ele>472.66666666666663</ele><time>2026-04-25T08:36:12.999Z</time></trkpt><trkpt lat="44.72983336325715" lon="9.91780519220136"><ele>474.3333333333333</ele><time>2026-04-25T08:36:15.999Z</time></trkpt><trkpt lat="44.729766902735854" lon="9.917847477071186"><ele>476.0</ele><time>2026-04-25T08:36:17.999Z</time></trkpt><trkpt lat="44.729693579893386" lon="9.917894280487939"><ele>475.99999999999994</ele><time>2026-04-25T08:36:20.999Z</time></trkpt><trkpt lat="44.72961660887732" lon="9.91794810892996"><ele>476.0</ele><time>2026-04-25T08:36:23.999Z</time></trkpt><trkpt lat="44.72953877013171" lon="9.917971448703444"><ele>476.0</ele><time>2026-04-25T08:36:26.999Z</time></trkpt><trkpt lat="44.72947112302785" lon="9.91793098898956"><ele>476.0</ele><time>2026-04-25T08:36:28.999Z</time></trkpt><trkpt lat="44.729467321617115" lon="9.917816499102882"><ele>475.99999999999994</ele><time>2026-04-25T08:36:31.999Z</time></trkpt><trkpt lat="44.729509637572114" lon="9.917723870364432"><ele>476.0</ele><time>2026-04-25T08:36:34.999Z</time></trkpt><trkpt lat="44.729558994043124" lon="9.917621627316406"><ele>477.6</ele><time>2026-04-25T08:36:37.999Z</time></trkpt><trkpt lat="44.72961182998571" lon="9.917524495155776"><ele>479.20000000000005</ele><time>2026-04-25T08:36:40.998Z</time></trkpt><trkpt lat="44.72966308554704" lon="9.917431973004103"><ele>480.79999999999995</ele><time>2026-04-25T08:36:42.998Z</time></trkpt><trkpt lat="44.72972835751628" lon="9.917330546235462"><ele>482.4</ele><time>2026-04-25T08:36:45.998Z</time></trkpt><trkpt lat="44.72978599454642" lon="9.917249242453513"><ele>484.0</ele><time>2026-04-25T08:36:49Z</time></trkpt><trkpt lat="44.7298759792055" lon="9.917136702105761"><ele>484.00000000000006</ele><time>2026-04-25T08:36:52Z</time></trkpt><trkpt lat="44.729925581768164" lon="9.917078283251547"><ele>484.0</ele><time>2026-04-25T08:36:54Z</time></trkpt><trkpt lat="44.72998419353395" lon="9.917009516554703"><ele>484.0</ele><time>2026-04-25T08:36:57Z</time></trkpt><trkpt lat="44.73003493085118" lon="9.916947989447788"><ele>484.0</ele><time>2026-04-25T08:36:59Z</time></trkpt><trkpt lat="44.73011203301631" lon="9.916838285568744"><ele>484.00000000000006</ele><time>2026-04-25T08:37:02Z</time></trkpt><trkpt lat="44.73015531632426" lon="9.916769412709371"><ele>484.0</ele><time>2026-04-25T08:37:04Z</time></trkpt><trkpt lat="44.73021005666861" lon="9.916679345734146"><ele>483.6666666666667</ele><time>2026-04-25T08:37:06Z</time></trkpt><trkpt lat="44.73026975049286" lon="9.916574528606096"><ele>483.33333333333337</ele><time>2026-04-25T08:37:08Z</time></trkpt><trkpt lat="44.73031120196999" lon="9.916494453557279"><ele>483.0</ele><time>2026-04-25T08:37:10Z</time></trkpt><trkpt lat="44.730356156881534" lon="9.916416923491331"><ele>482.66666666666663</ele><time>2026-04-25T08:37:12Z</time></trkpt><trkpt lat="44.73040670537591" lon="9.916341106547216"><ele>482.3333333333333</ele><time>2026-04-25T08:37:14Z</time></trkpt><trkpt lat="44.730459022010315" lon="9.916271575251846"><ele>482.0</ele><time>2026-04-25T08:37:16Z</time></trkpt><trkpt lat="44.7305114276655" lon="9.916199981400812"><ele>482.0</ele><time>2026-04-25T08:37:18Z</time></trkpt><trkpt lat="44.73056525086935" lon="9.916131697537097"><ele>482.00000000000006</ele><time>2026-04-25T08:37:20Z</time></trkpt><trkpt lat="44.730611917163905" lon="9.916059001922612"><ele>482.0</ele><time>2026-04-25T08:37:22Z</time></trkpt><trkpt lat="44.7306543200663" lon="9.91598358314408"><ele>482.0</ele><time>2026-04-25T08:37:24Z</time></trkpt><trkpt lat="44.730705871885746" lon="9.915910300925425"><ele>482.00000000000006</ele><time>2026-04-25T08:37:26Z</time></trkpt><trkpt lat="44.73075356050815" lon="9.915820148958638"><ele>482.0</ele><time>2026-04-25T08:37:29Z</time></trkpt><trkpt lat="44.73079451103783" lon="9.915745009458213"><ele>482.0</ele><time>2026-04-25T08:37:30Z</time></trkpt><trkpt lat="44.73083639449918" lon="9.915657186053012"><ele>481.0</ele><time>2026-04-25T08:37:32Z</time></trkpt><trkpt lat="44.73087872404214" lon="9.915565620057928"><ele>480.00000000000006</ele><time>2026-04-25T08:37:34Z</time></trkpt><trkpt lat="44.730924764054386" lon="9.915474901346577"><ele>479.0</ele><time>2026-04-25T08:37:36Z</time></trkpt><trkpt lat="44.73096993185091" lon="9.91539105245555"><ele>478.0</ele><time>2026-04-25T08:37:38Z</time></trkpt><trkpt lat="44.73101901732677" lon="9.915320522115595"><ele>477.00000000000006</ele><time>2026-04-25T08:37:40Z</time></trkpt><trkpt lat="44.73106677967227" lon="9.91525798255775"><ele>476.0</ele><time>2026-04-25T08:37:42Z</time></trkpt><trkpt lat="44.731118892041586" lon="9.915203795396126"><ele>475.0</ele><time>2026-04-25T08:37:44Z</time></trkpt><trkpt lat="44.73117419296594" lon="9.915151857977193"><ele>475.0</ele><time>2026-04-25T08:37:46Z</time></trkpt><trkpt lat="44.73122145897642" lon="9.915084544075922"><ele>475.00000000000006</ele><time>2026-04-25T08:37:48Z</time></trkpt><trkpt lat="44.731193840246085" lon="9.914982210024153"><ele>475.0</ele><time>2026-04-25T08:37:51Z</time></trkpt><trkpt lat="44.731117107054516" lon="9.914965390278471"><ele>475.0</ele><time>2026-04-25T08:37:53.999Z</time></trkpt><trkpt lat="44.73105759439313" lon="9.91500162263503"><ele>475.00000000000006</ele><time>2026-04-25T08:37:56.999Z</time></trkpt><trkpt lat="44.73098865592796" lon="9.915049065293436"><ele>475.0</ele><time>2026-04-25T08:37:58.999Z</time></trkpt><trkpt lat="44.73092486547612" lon="9.915118600050821"><ele>475.0</ele><time>2026-04-25T08:38:01.999Z</time></trkpt><trkpt lat="44.730849589288894" lon="9.915201267108749"><ele>478.4</ele><time>2026-04-25T08:38:04.999Z</time></trkpt><trkpt lat="44.73073718951746" lon="9.915341894586376"><ele>481.8</ele><time>2026-04-25T08:38:07.999Z</time></trkpt><trkpt lat="44.73065974285564" lon="9.915399789115899"><ele>485.20000000000005</ele><time>2026-04-25T08:38:11.999Z</time></trkpt><trkpt lat="44.73057350789767" lon="9.915438260815769"><ele>488.6</ele><time>2026-04-25T08:38:14.999Z</time></trkpt><trkpt lat="44.73047596243581" lon="9.915481010671188"><ele>492.0</ele><time>2026-04-25T08:38:17.999Z</time></trkpt><trkpt lat="44.73039979683416" lon="9.915516065477219"><ele>492.0</ele><time>2026-04-25T08:38:20.999Z</time></trkpt><trkpt lat="44.73031573032395" lon="9.915556504317045"><ele>492.0</ele><time>2026-04-25T08:38:22.999Z</time></trkpt><trkpt lat="44.730247502620976" lon="9.91560156121114"><ele>492.0</ele><time>2026-04-25T08:38:25.999Z</time></trkpt><trkpt lat="44.73019477668369" lon="9.91565127638792"><ele>492.0</ele><time>2026-04-25T08:38:27.999Z</time></trkpt><trkpt lat="44.73014544341129" lon="9.915715764006212"><ele>492.0</ele><time>2026-04-25T08:38:29.999Z</time></trkpt><trkpt lat="44.73006687751426" lon="9.91580652011867"><ele>492.0</ele><time>2026-04-25T08:38:32.999Z</time></trkpt><trkpt lat="44.72999655538073" lon="9.915876799094166"><ele>492.3333333333333</ele><time>2026-04-25T08:38:35.999Z</time></trkpt><trkpt lat="44.729917649219715" lon="9.915924168223714"><ele>492.66666666666663</ele><time>2026-04-25T08:38:38.999Z</time></trkpt><trkpt lat="44.72984909664263" lon="9.91593754811086"><ele>493.0</ele><time>2026-04-25T08:38:40.999Z</time></trkpt><trkpt lat="44.729771040718134" lon="9.915929481116226"><ele>493.3333333333333</ele><time>2026-04-25T08:38:43.999Z</time></trkpt><trkpt lat="44.7296788884973" lon="9.91591498201382"><ele>493.66666666666663</ele><time>2026-04-25T08:38:46.998Z</time></trkpt><trkpt lat="44.72959205854961" lon="9.915896345343885"><ele>494.0</ele><time>2026-04-25T08:38:49.998Z</time></trkpt><trkpt lat="44.72951239436973" lon="9.915883684643976"><ele>496.3333333333333</ele><time>2026-04-25T08:38:51.998Z</time></trkpt><trkpt lat="44.72942087607725" lon="9.915875172364242"><ele>498.66666666666663</ele><time>2026-04-25T08:38:55Z</time></trkpt><trkpt lat="44.72934634929549" lon="9.915857200150903"><ele>501.0</ele><time>2026-04-25T08:38:58Z</time></trkpt><trkpt lat="44.72928177060434" lon="9.915802626480762"><ele>503.33333333333337</ele><time>2026-04-25T08:39:01Z</time></trkpt><trkpt lat="44.729284749074125" lon="9.91570674532289"><ele>505.6666666666667</ele><time>2026-04-25T08:39:04Z</time></trkpt><trkpt lat="44.72935381119804" lon="9.91566776738217"><ele>508.0</ele><time>2026-04-25T08:39:07Z</time></trkpt><trkpt lat="44.729430107338146" lon="9.915659931289191"><ele>508.0</ele><time>2026-04-25T08:39:10Z</time></trkpt><trkpt lat="44.729514305441114" lon="9.915649081088265"><ele>507.99999999999994</ele><time>2026-04-25T08:39:13Z</time></trkpt><trkpt lat="44.72960653639348" lon="9.91562413914945"><ele>507.99999999999994</ele><time>2026-04-25T08:39:16Z</time></trkpt><trkpt lat="44.729705504879085" lon="9.915575627587318"><ele>508.0</ele><time>2026-04-25T08:39:19Z</time></trkpt><trkpt lat="44.72977020063153" lon="9.915503465356954"><ele>508.0</ele><time>2026-04-25T08:39:22Z</time></trkpt><trkpt lat="44.72982069247131" lon="9.91540153116098"><ele>508.00000000000006</ele><time>2026-04-25T08:39:25Z</time></trkpt><trkpt lat="44.72986674912149" lon="9.915291645103856"><ele>508.0</ele><time>2026-04-25T08:39:28Z</time></trkpt><trkpt lat="44.72990178200447" lon="9.915188185140757"><ele>508.0</ele><time>2026-04-25T08:39:30Z</time></trkpt><trkpt lat="44.729933768693435" lon="9.91508742997557"><ele>508.0</ele><time>2026-04-25T08:39:33Z</time></trkpt><trkpt lat="44.72997509195011" lon="9.91498900055512"><ele>508.00000000000006</ele><time>2026-04-25T08:39:35Z</time></trkpt><trkpt lat="44.73001584372116" lon="9.914918601808184"><ele>508.0</ele><time>2026-04-25T08:39:37Z</time></trkpt><trkpt lat="44.73007175458658" lon="9.914834496927627"><ele>508.00000000000006</ele><time>2026-04-25T08:39:40Z</time></trkpt><trkpt lat="44.730137639697624" lon="9.914734001304147"><ele>508.0</ele><time>2026-04-25T08:39:43Z</time></trkpt><trkpt lat="44.73020122386573" lon="9.914633449574955"><ele>508.0</ele><time>2026-04-25T08:39:46Z</time></trkpt><trkpt lat="44.73026140271125" lon="9.914541044814017"><ele>508.0</ele><time>2026-04-25T08:39:48Z</time></trkpt><trkpt lat="44.73029823148415" lon="9.914454395769493"><ele>508.00000000000006</ele><time>2026-04-25T08:39:51Z</time></trkpt><trkpt lat="44.730348222237" lon="9.9143609123499"><ele>508.0</ele><time>2026-04-25T08:39:53Z</time></trkpt><trkpt lat="44.73038762002637" lon="9.914255290894648"><ele>509.1666666666667</ele><time>2026-04-25T08:39:56Z</time></trkpt><trkpt lat="44.73041790680729" lon="9.914176452893793"><ele>510.33333333333337</ele><time>2026-04-25T08:39:57.999Z</time></trkpt><trkpt lat="44.730459800419005" lon="9.914054260244189"><ele>511.5</ele><time>2026-04-25T08:39:59.999Z</time></trkpt><trkpt lat="44.730478386795774" lon="9.913954255717904"><ele>512.6666666666666</ele><time>2026-04-25T08:40:02.999Z</time></trkpt><trkpt lat="44.73049382599602" lon="9.913846189954874"><ele>513.8333333333333</ele><time>2026-04-25T08:40:04.999Z</time></trkpt><trkpt lat="44.73048117579909" lon="9.9137081004402"><ele>515.0</ele><time>2026-04-25T08:40:07.999Z</time></trkpt><trkpt lat="44.73045690611073" lon="9.913588411736464"><ele>515.0</ele><time>2026-04-25T08:40:09.999Z</time></trkpt><trkpt lat="44.730430288657026" lon="9.913487700374489"><ele>515.0</ele><time>2026-04-25T08:40:12.999Z</time></trkpt><trkpt lat="44.73040413642127" lon="9.913399236003867"><ele>515.0</ele><time>2026-04-25T08:40:13.999Z</time></trkpt><trkpt lat="44.730383266466546" lon="9.91327421149743"><ele>515.0</ele><time>2026-04-25T08:40:15.999Z</time></trkpt><trkpt lat="44.73036425473877" lon="9.91317972518761"><ele>515.0</ele><time>2026-04-25T08:40:17.999Z</time></trkpt><trkpt lat="44.73035102001358" lon="9.913089039856546"><ele>515.0</ele><time>2026-04-25T08:40:19.999Z</time></trkpt><trkpt lat="44.730348711602154" lon="9.912986051821854"><ele>515.0</ele><time>2026-04-25T08:40:21.999Z</time></trkpt><trkpt lat="44.73035633281217" lon="9.912884644006365"><ele>515.3333333333333</ele><time>2026-04-25T08:40:23.999Z</time></trkpt><trkpt lat="44.73038947470971" lon="9.91278449535048"><ele>515.6666666666666</ele><time>2026-04-25T08:40:25.999Z</time></trkpt><trkpt lat="44.73044564936505" lon="9.912698699746986"><ele>516.0</ele><time>2026-04-25T08:40:27.999Z</time></trkpt><trkpt lat="44.730511944129724" lon="9.912610046355262"><ele>516.3333333333334</ele><time>2026-04-25T08:40:30.999Z</time></trkpt><trkpt lat="44.73056004722782" lon="9.912539646931197"><ele>516.6666666666667</ele><time>2026-04-25T08:40:31.999Z</time></trkpt><trkpt lat="44.73059363734539" lon="9.912430886592096"><ele>517.0</ele><time>2026-04-25T08:40:33.999Z</time></trkpt><trkpt lat="44.73058397015694" lon="9.912296870217316"><ele>517.8000000000001</ele><time>2026-04-25T08:40:35.999Z</time></trkpt><trkpt lat="44.73053616070055" lon="9.912172773546779"><ele>518.6</ele><time>2026-04-25T08:40:37.999Z</time></trkpt><trkpt lat="44.73045938395599" lon="9.912082385115442"><ele>519.4000000000001</ele><time>2026-04-25T08:40:39.999Z</time></trkpt><trkpt lat="44.730366022942825" lon="9.912025312906815"><ele>520.2</ele><time>2026-04-25T08:40:41.999Z</time></trkpt><trkpt lat="44.730270550991634" lon="9.911979353453814"><ele>521.0</ele><time>2026-04-25T08:40:43.999Z</time></trkpt><trkpt lat="44.730178218016434" lon="9.911922707062292"><ele>525.6</ele><time>2026-04-25T08:40:45.999Z</time></trkpt><trkpt lat="44.73009526996507" lon="9.911829904262776"><ele>530.2</ele><time>2026-04-25T08:40:47.999Z</time></trkpt><trkpt lat="44.73003818583719" lon="9.911702605080812"><ele>534.8</ele><time>2026-04-25T08:40:49.998Z</time></trkpt><trkpt lat="44.73000074222724" lon="9.911576329222193"><ele>539.4</ele><time>2026-04-25T08:40:51.998Z</time></trkpt><trkpt lat="44.72997490751586" lon="9.911422066069413"><ele>544.0</ele><time>2026-04-25T08:40:53.998Z</time></trkpt><trkpt lat="44.729964644573805" lon="9.911261962266364"><ele>544.0</ele><time>2026-04-25T08:40:55.998Z</time></trkpt><trkpt lat="44.729944186262536" lon="9.911100830517595"><ele>544.0</ele><time>2026-04-25T08:40:57.998Z</time></trkpt><trkpt lat="44.72991146824762" lon="9.910946118858876"><ele>544.0</ele><time>2026-04-25T08:41:00Z</time></trkpt><trkpt lat="44.72985380082203" lon="9.91080177699224"><ele>544.0</ele><time>2026-04-25T08:41:02Z</time></trkpt><trkpt lat="44.72977094927197" lon="9.910675679469898"><ele>542.0</ele><time>2026-04-25T08:41:04Z</time></trkpt><trkpt lat="44.729695654163955" lon="9.910540099758661"><ele>540.0</ele><time>2026-04-25T08:41:06Z</time></trkpt><trkpt lat="44.729682599292886" lon="9.910449816982027"><ele>538.0</ele><time>2026-04-25T08:41:07Z</time></trkpt><trkpt lat="44.729680938108075" lon="9.910355283555846"><ele>536.0</ele><time>2026-04-25T08:41:08Z</time></trkpt><trkpt lat="44.729691347218065" lon="9.910263240725175"><ele>534.0</ele><time>2026-04-25T08:41:09Z</time></trkpt><trkpt lat="44.72970322235474" lon="9.910169974159437"><ele>532.0</ele><time>2026-04-25T08:41:10Z</time></trkpt><trkpt lat="44.729718450611664" lon="9.910077778703084"><ele>532.0</ele><time>2026-04-25T08:41:11Z</time></trkpt><trkpt lat="44.72973307507986" lon="9.90998421626707"><ele>532.0</ele><time>2026-04-25T08:41:12Z</time></trkpt><trkpt lat="44.729746904378764" lon="9.90988926939331"><ele>532.0</ele><time>2026-04-25T08:41:13Z</time></trkpt><trkpt lat="44.72976080987399" lon="9.909795028562883"><ele>532.0</ele><time>2026-04-25T08:41:14Z</time></trkpt><trkpt lat="44.729773444428865" lon="9.909696948021912"><ele>532.0</ele><time>2026-04-25T08:41:15Z</time></trkpt><trkpt lat="44.729792824162026" lon="9.909603645313275"><ele>532.0</ele><time>2026-04-25T08:41:16Z</time></trkpt><trkpt lat="44.72982425661925" lon="9.909511502133403"><ele>532.0</ele><time>2026-04-25T08:41:17Z</time></trkpt><trkpt lat="44.7298695117368" lon="9.90942930668671"><ele>532.0</ele><time>2026-04-25T08:41:18Z</time></trkpt><trkpt lat="44.729932826992844" lon="9.90936793882749"><ele>532.0</ele><time>2026-04-25T08:41:19Z</time></trkpt><trkpt lat="44.73000787644384" lon="9.909341284987264"><ele>532.0</ele><time>2026-04-25T08:41:20Z</time></trkpt><trkpt lat="44.73008497876348" lon="9.9093520682535"><ele>532.0</ele><time>2026-04-25T08:41:21Z</time></trkpt><trkpt lat="44.730158645001" lon="9.909379588776998"><ele>532.0</ele><time>2026-04-25T08:41:22Z</time></trkpt><trkpt lat="44.73023008447397" lon="9.909408447514789"><ele>532.0</ele><time>2026-04-25T08:41:23Z</time></trkpt><trkpt lat="44.7303044691578" lon="9.909427006557795"><ele>529.0</ele><time>2026-04-25T08:41:24Z</time></trkpt><trkpt lat="44.730377843737216" lon="9.909438598534711"><ele>526.0</ele><time>2026-04-25T08:41:25Z</time></trkpt><trkpt lat="44.730453784837074" lon="9.909440988074396"><ele>523.0</ele><time>2026-04-25T08:41:26Z</time></trkpt><trkpt lat="44.73052661233269" lon="9.909445620533504"><ele>520.0</ele><time>2026-04-25T08:41:27Z</time></trkpt><trkpt lat="44.73059815552384" lon="9.909448611004832"><ele>517.0</ele><time>2026-04-25T08:41:28Z</time></trkpt><trkpt lat="44.73066852083091" lon="9.909438751484627"><ele>514.0</ele><time>2026-04-25T08:41:29Z</time></trkpt><trkpt lat="44.73073914115173" lon="9.909400218019279"><ele>511.0</ele><time>2026-04-25T08:41:30Z</time></trkpt><trkpt lat="44.73080120221336" lon="9.90933671015664"><ele>511.00000000000006</ele><time>2026-04-25T08:41:31Z</time></trkpt><trkpt lat="44.730854396261506" lon="9.909256314313167"><ele>511.0</ele><time>2026-04-25T08:41:32Z</time></trkpt><trkpt lat="44.73090468058038" lon="9.909166472294825"><ele>511.0</ele><time>2026-04-25T08:41:33Z</time></trkpt><trkpt lat="44.730942463657655" lon="9.909076471550936"><ele>511.0</ele><time>2026-04-25T08:41:34Z</time></trkpt><trkpt lat="44.7309777686751" lon="9.908974014425217"><ele>511.00000000000006</ele><time>2026-04-25T08:41:35Z</time></trkpt><trkpt lat="44.73100653726583" lon="9.908869844681895"><ele>511.0</ele><time>2026-04-25T08:41:36Z</time></trkpt><trkpt lat="44.73102473315554" lon="9.908757220135259"><ele>510.7142857142857</ele><time>2026-04-25T08:41:37Z</time></trkpt><trkpt lat="44.73103570031905" lon="9.90864519066561"><ele>510.42857142857144</ele><time>2026-04-25T08:41:38Z</time></trkpt><trkpt lat="44.73107133116709" lon="9.908549591544986"><ele>510.1428571428571</ele><time>2026-04-25T08:41:39Z</time></trkpt><trkpt lat="44.73109439757673" lon="9.908452303802603"><ele>509.85714285714283</ele><time>2026-04-25T08:41:40Z</time></trkpt><trkpt lat="44.731140397652226" lon="9.908388039032957"><ele>509.57142857142856</ele><time>2026-04-25T08:41:41Z</time></trkpt><trkpt lat="44.7311946139637" lon="9.90833279977513"><ele>509.2857142857142</ele><time>2026-04-25T08:41:42Z</time></trkpt><trkpt lat="44.73126667135723" lon="9.90830057652202"><ele>508.99999999999994</ele><time>2026-04-25T08:41:43Z</time></trkpt><trkpt lat="44.731334351624966" lon="9.90827792544206"><ele>513.4</ele><time>2026-04-25T08:41:44Z</time></trkpt><trkpt lat="44.731398207735815" lon="9.908257383517965"><ele>517.8</ele><time>2026-04-25T08:41:45Z</time></trkpt><trkpt lat="44.73151927643373" lon="9.908211113249347"><ele>522.2</ele><time>2026-04-25T08:41:47Z</time></trkpt><trkpt lat="44.73163952572326" lon="9.908169043814084"><ele>526.6</ele><time>2026-04-25T08:41:49Z</time></trkpt><trkpt lat="44.73176003886866" lon="9.908170421684382"><ele>531.0</ele><time>2026-04-25T08:41:51Z</time></trkpt><trkpt lat="44.73182249879887" lon="9.908150093644215"><ele>529.8333333333334</ele><time>2026-04-25T08:41:52Z</time></trkpt><trkpt lat="44.731949011162286" lon="9.908152686521275"><ele>528.6666666666666</ele><time>2026-04-25T08:41:54Z</time></trkpt><trkpt lat="44.73201166333117" lon="9.90813463518647"><ele>527.5</ele><time>2026-04-25T08:41:55Z</time></trkpt><trkpt lat="44.732073348507676" lon="9.908106213262943"><ele>526.3333333333333</ele><time>2026-04-25T08:41:56Z</time></trkpt><trkpt lat="44.73213479624112" lon="9.908075179955748"><ele>525.1666666666666</ele><time>2026-04-25T08:41:57Z</time></trkpt><trkpt lat="44.73219776739253" lon="9.908037158262806"><ele>524.0</ele><time>2026-04-25T08:41:58Z</time></trkpt><trkpt lat="44.73225812199243" lon="9.908000125452475"><ele>524.0</ele><time>2026-04-25T08:41:59Z</time></trkpt><trkpt lat="44.73232196056184" lon="9.907959992414767"><ele>524.0</ele><time>2026-04-25T08:42:00Z</time></trkpt><trkpt lat="44.7324314348518" lon="9.907883043189553"><ele>524.0</ele><time>2026-04-25T08:42:01.999Z</time></trkpt><trkpt lat="44.732529929768965" lon="9.907780552585512"><ele>524.0</ele><time>2026-04-25T08:42:03.999Z</time></trkpt><trkpt lat="44.732592550561414" lon="9.907632745791533"><ele>524.0</ele><time>2026-04-25T08:42:05.999Z</time></trkpt><trkpt lat="44.73260154207557" lon="9.907543262559095"><ele>526.0</ele><time>2026-04-25T08:42:06.999Z</time></trkpt><trkpt lat="44.732580197996995" lon="9.907379980632752"><ele>528.0</ele><time>2026-04-25T08:42:08.999Z</time></trkpt><trkpt lat="44.7325166273768" lon="9.90723582287957"><ele>530.0</ele><time>2026-04-25T08:42:10.999Z</time></trkpt><trkpt lat="44.73247043265878" lon="9.90709964347042"><ele>532.0</ele><time>2026-04-25T08:42:12.999Z</time></trkpt><trkpt lat="44.73239855247722" lon="9.906972063134555"><ele>532.0</ele><time>2026-04-25T08:42:14.999Z</time></trkpt><trkpt lat="44.732319926809275" lon="9.90684611472858"><ele>532.0</ele><time>2026-04-25T08:42:16.999Z</time></trkpt><trkpt lat="44.73224102839333" lon="9.906737034355382"><ele>532.0</ele><time>2026-04-25T08:42:18.999Z</time></trkpt><trkpt lat="44.73215772086602" lon="9.90663570336923"><ele>532.0</ele><time>2026-04-25T08:42:20.999Z</time></trkpt><trkpt lat="44.73206488866804" lon="9.906560992729977"><ele>532.0</ele><time>2026-04-25T08:42:22.999Z</time></trkpt><trkpt lat="44.731968135731194" lon="9.906502937655098"><ele>535.6</ele><time>2026-04-25T08:42:24.999Z</time></trkpt><trkpt lat="44.73184432477286" lon="9.906386171631864"><ele>539.2</ele><time>2026-04-25T08:42:27.999Z</time></trkpt><trkpt lat="44.73175979100268" lon="9.906315046804135"><ele>542.8</ele><time>2026-04-25T08:42:29.999Z</time></trkpt><trkpt lat="44.73168001876627" lon="9.906234155949406"><ele>546.4</ele><time>2026-04-25T08:42:31.999Z</time></trkpt><trkpt lat="44.7316059900478" lon="9.906154323804488"><ele>550.0</ele><time>2026-04-25T08:42:33.999Z</time></trkpt><trkpt lat="44.73153716043521" lon="9.906066783563894"><ele>550.0</ele><time>2026-04-25T08:42:35.999Z</time></trkpt><trkpt lat="44.73147591185947" lon="9.905977560297412"><ele>550.0</ele><time>2026-04-25T08:42:37.999Z</time></trkpt><trkpt lat="44.73142805413013" lon="9.905880502187395"><ele>550.0</ele><time>2026-04-25T08:42:39.999Z</time></trkpt><trkpt lat="44.73138255942104" lon="9.905784287463106"><ele>550.0</ele><time>2026-04-25T08:42:41.999Z</time></trkpt><trkpt lat="44.73134921308937" lon="9.905674374062462"><ele>550.0</ele><time>2026-04-25T08:42:43.999Z</time></trkpt><trkpt lat="44.73131316621591" lon="9.905575227997119"><ele>550.0</ele><time>2026-04-25T08:42:45.999Z</time></trkpt><trkpt lat="44.731293484904846" lon="9.905431465007862"><ele>547.8</ele><time>2026-04-25T08:42:47.999Z</time></trkpt><trkpt lat="44.73128477494761" lon="9.905310447006778"><ele>545.6</ele><time>2026-04-25T08:42:49.999Z</time></trkpt><trkpt lat="44.73127349241322" lon="9.90518693639452"><ele>543.4</ele><time>2026-04-25T08:42:51.999Z</time></trkpt><trkpt lat="44.731259436246226" lon="9.905069839560658"><ele>541.2</ele><time>2026-04-25T08:42:53.998Z</time></trkpt><trkpt lat="44.73122680352815" lon="9.904852144721893"><ele>539.0</ele><time>2026-04-25T08:42:56.998Z</time></trkpt><trkpt lat="44.73120191902615" lon="9.9047307044575"><ele>538.1666666666666</ele><time>2026-04-25T08:42:58.998Z</time></trkpt><trkpt lat="44.73117262906978" lon="9.904617600382135"><ele>537.3333333333333</ele><time>2026-04-25T08:43:00.998Z</time></trkpt><trkpt lat="44.731141711072745" lon="9.904512768160204"><ele>536.5</ele><time>2026-04-25T08:43:02.998Z</time></trkpt><trkpt lat="44.73110324583414" lon="9.904399048503743"><ele>535.6666666666666</ele><time>2026-04-25T08:43:05Z</time></trkpt><trkpt lat="44.73106556107141" lon="9.904298985916865"><ele>534.8333333333334</ele><time>2026-04-25T08:43:07Z</time></trkpt><trkpt lat="44.73102791157849" lon="9.904195093320645"><ele>534.0</ele><time>2026-04-25T08:43:09Z</time></trkpt><trkpt lat="44.73099328939513" lon="9.90409180872802"><ele>540.0</ele><time>2026-04-25T08:43:11Z</time></trkpt><trkpt lat="44.730959001571186" lon="9.903988327588298"><ele>546.0</ele><time>2026-04-25T08:43:13Z</time></trkpt><trkpt lat="44.730935058773746" lon="9.903896444870172"><ele>552.0</ele><time>2026-04-25T08:43:15Z</time></trkpt><trkpt lat="44.73092744501466" lon="9.903779646221215"><ele>558.0</ele><time>2026-04-25T08:43:18Z</time></trkpt><trkpt lat="44.730947004923415" lon="9.90369243513825"><ele>564.0</ele><time>2026-04-25T08:43:20Z</time></trkpt><trkpt lat="44.730982505876945" lon="9.903559613219631"><ele>570.0</ele><time>2026-04-25T08:43:21Z</time></trkpt><trkpt lat="44.73100385319474" lon="9.903460089348048"><ele>570.1428571428571</ele><time>2026-04-25T08:43:23Z</time></trkpt><trkpt lat="44.7310331855109" lon="9.903367336011932"><ele>570.2857142857143</ele><time>2026-04-25T08:43:25Z</time></trkpt><trkpt lat="44.73105669932989" lon="9.90327742115659"><ele>570.4285714285714</ele><time>2026-04-25T08:43:27Z</time></trkpt><trkpt lat="44.73108143372356" lon="9.903188266188495"><ele>570.5714285714286</ele><time>2026-04-25T08:43:29Z</time></trkpt><trkpt lat="44.73110576592473" lon="9.903099581749794"><ele>570.7142857142857</ele><time>2026-04-25T08:43:31Z</time></trkpt><trkpt lat="44.731130408606944" lon="9.903012723977376"><ele>570.8571428571429</ele><time>2026-04-25T08:43:33Z</time></trkpt><trkpt lat="44.7311542960076" lon="9.902921164368022"><ele>571.0</ele><time>2026-04-25T08:43:35Z</time></trkpt><trkpt lat="44.73117615516016" lon="9.902833163890104"><ele>567.1666666666667</ele><time>2026-04-25T08:43:37Z</time></trkpt><trkpt lat="44.731201999520856" lon="9.902743306111942"><ele>563.3333333333334</ele><time>2026-04-25T08:43:39Z</time></trkpt><trkpt lat="44.73122775575021" lon="9.902655603673358"><ele>559.5</ele><time>2026-04-25T08:43:41Z</time></trkpt><trkpt lat="44.73126686356309" lon="9.902528973695489"><ele>555.6666666666666</ele><time>2026-04-25T08:43:44Z</time></trkpt><trkpt lat="44.731292595778186" lon="9.902435266874054"><ele>551.8333333333333</ele><time>2026-04-25T08:43:46Z</time></trkpt><trkpt lat="44.73131804945995" lon="9.902340897305843"><ele>548.0</ele><time>2026-04-25T08:43:48Z</time></trkpt><trkpt lat="44.731352709721826" lon="9.902216116391642"><ele>548.0000000000001</ele><time>2026-04-25T08:43:51Z</time></trkpt><trkpt lat="44.731372559229975" lon="9.902128102300729"><ele>548.0</ele><time>2026-04-25T08:43:53Z</time></trkpt><trkpt lat="44.731395542990875" lon="9.902037697354379"><ele>548.0</ele><time>2026-04-25T08:43:55Z</time></trkpt><trkpt lat="44.731418190098196" lon="9.901945447028458"><ele>548.0</ele><time>2026-04-25T08:43:57Z</time></trkpt><trkpt lat="44.73144400421503" lon="9.901857211426956"><ele>548.0</ele><time>2026-04-25T08:43:59Z</time></trkpt><trkpt lat="44.73147313445204" lon="9.901769057884014"><ele>548.0000000000001</ele><time>2026-04-25T08:44:01Z</time></trkpt><trkpt lat="44.73150587379206" lon="9.901679100728277"><ele>548.0</ele><time>2026-04-25T08:44:03Z</time></trkpt><trkpt lat="44.73154911058601" lon="9.901590322604331"><ele>549.5</ele><time>2026-04-25T08:44:05Z</time></trkpt><trkpt lat="44.73158818874354" lon="9.901505113764808"><ele>551.0</ele><time>2026-04-25T08:44:06.999Z</time></trkpt><trkpt lat="44.73163277881416" lon="9.901415314009748"><ele>552.5</ele><time>2026-04-25T08:44:09.999Z</time></trkpt><trkpt lat="44.73169149316531" lon="9.90130232878826"><ele>554.0</ele><time>2026-04-25T08:44:11.999Z</time></trkpt><trkpt lat="44.731730271789694" lon="9.901208284658528"><ele>555.5</ele><time>2026-04-25T08:44:13.999Z</time></trkpt><trkpt lat="44.73176982508388" lon="9.901130956061824"><ele>557.0</ele><time>2026-04-25T08:44:16.999Z</time></trkpt><trkpt lat="44.731844811888564" lon="9.900990373466115"><ele>558.3333333333333</ele><time>2026-04-25T08:44:17.999Z</time></trkpt><trkpt lat="44.73188780495464" lon="9.90088728430342"><ele>559.6666666666666</ele><time>2026-04-25T08:44:19.999Z</time></trkpt><trkpt lat="44.731925163885556" lon="9.900784433896346"><ele>561.0</ele><time>2026-04-25T08:44:21.999Z</time></trkpt><trkpt lat="44.731950360896796" lon="9.900677107715266"><ele>562.3333333333334</ele><time>2026-04-25T08:44:23.999Z</time></trkpt><trkpt lat="44.73194537455465" lon="9.90055954845916"><ele>563.6666666666667</ele><time>2026-04-25T08:44:25.999Z</time></trkpt><trkpt lat="44.73190587674255" lon="9.900451878552554"><ele>565.0</ele><time>2026-04-25T08:44:27.999Z</time></trkpt><trkpt lat="44.731844220523875" lon="9.900372012931903"><ele>565.0</ele><time>2026-04-25T08:44:29.999Z</time></trkpt><trkpt lat="44.731772008981956" lon="9.900310065350103"><ele>565.0</ele><time>2026-04-25T08:44:31.999Z</time></trkpt><trkpt lat="44.7316953298521" lon="9.90025999095141"><ele>565.0</ele><time>2026-04-25T08:44:33.999Z</time></trkpt><trkpt lat="44.73161389703244" lon="9.900224769013848"><ele>565.0</ele><time>2026-04-25T08:44:35.999Z</time></trkpt><trkpt lat="44.7315361333359" lon="9.900172050962086"><ele>565.0</ele><time>2026-04-25T08:44:37.999Z</time></trkpt><trkpt lat="44.73144823725921" lon="9.900146190754144"><ele>565.0</ele><time>2026-04-25T08:44:39.999Z</time></trkpt><trkpt lat="44.7313794829827" lon="9.900103933982836"><ele>564.5</ele><time>2026-04-25T08:44:41.999Z</time></trkpt><trkpt lat="44.731302708764204" lon="9.900051417538448"><ele>564.0</ele><time>2026-04-25T08:44:43.999Z</time></trkpt><trkpt lat="44.731227139246045" lon="9.90000140720276"><ele>563.5</ele><time>2026-04-25T08:44:45.999Z</time></trkpt><trkpt lat="44.73115483665651" lon="9.899937951899542"><ele>563.0</ele><time>2026-04-25T08:44:47.999Z</time></trkpt><trkpt lat="44.73110334369737" lon="9.899839439801562"><ele>562.5</ele><time>2026-04-25T08:44:49.999Z</time></trkpt><trkpt lat="44.73108937096701" lon="9.899688811625301"><ele>562.0</ele><time>2026-04-25T08:44:52.999Z</time></trkpt><trkpt lat="44.7311186727204" lon="9.899558627072425"><ele>562.0</ele><time>2026-04-25T08:44:54.999Z</time></trkpt><trkpt lat="44.7311657518424" lon="9.89947377564867"><ele>562.0</ele><time>2026-04-25T08:44:56.999Z</time></trkpt><trkpt lat="44.7312250876914" lon="9.899402858884198"><ele>562.0</ele><time>2026-04-25T08:44:58.998Z</time></trkpt><trkpt lat="44.731290046314534" lon="9.899338404708619"><ele>562.0</ele><time>2026-04-25T08:45:00.998Z</time></trkpt><trkpt lat="44.73133136030286" lon="9.89922796971018"><ele>562.0</ele><time>2026-04-25T08:45:02.998Z</time></trkpt><trkpt lat="44.7313317665754" lon="9.899111107134294"><ele>562.0</ele><time>2026-04-25T08:45:04.998Z</time></trkpt><trkpt lat="44.73129229260365" lon="9.899015256272456"><ele>561.6666666666667</ele><time>2026-04-25T08:45:06.998Z</time></trkpt><trkpt lat="44.73123071729953" lon="9.898944901247416"><ele>561.3333333333334</ele><time>2026-04-25T08:45:08.998Z</time></trkpt><trkpt lat="44.7311663639015" lon="9.898894035925009"><ele>561.0</ele><time>2026-04-25T08:45:11Z</time></trkpt><trkpt lat="44.731122014768474" lon="9.898807297397939"><ele>560.6666666666666</ele><time>2026-04-25T08:45:13Z</time></trkpt><trkpt lat="44.73110198249328" lon="9.89870783721076"><ele>560.3333333333333</ele><time>2026-04-25T08:45:15Z</time></trkpt><trkpt lat="44.73111613678853" lon="9.898604903836587"><ele>560.0</ele><time>2026-04-25T08:45:17Z</time></trkpt><trkpt lat="44.731169966749626" lon="9.898493583591836"><ele>560.3333333333333</ele><time>2026-04-25T08:45:20Z</time></trkpt><trkpt lat="44.73122301971987" lon="9.89838348146929"><ele>560.6666666666666</ele><time>2026-04-25T08:45:22Z</time></trkpt><trkpt lat="44.7312546872047" lon="9.898284820315647"><ele>561.0</ele><time>2026-04-25T08:45:25Z</time></trkpt><trkpt lat="44.73128200439367" lon="9.898196699976598"><ele>561.3333333333334</ele><time>2026-04-25T08:45:26Z</time></trkpt><trkpt lat="44.7312813428156" lon="9.89808385924484"><ele>561.6666666666667</ele><time>2026-04-25T08:45:29Z</time></trkpt><trkpt lat="44.7312778946666" lon="9.897987802370542"><ele>562.0</ele><time>2026-04-25T08:45:30Z</time></trkpt><trkpt lat="44.7312502429338" lon="9.897892437108188"><ele>562.0</ele><time>2026-04-25T08:45:32Z</time></trkpt><trkpt lat="44.73121716248787" lon="9.897794075659675"><ele>562.0</ele><time>2026-04-25T08:45:35Z</time></trkpt><trkpt lat="44.73118747030961" lon="9.89770554785051"><ele>562.0</ele><time>2026-04-25T08:45:37Z</time></trkpt><trkpt lat="44.731135568756386" lon="9.897467272285065"><ele>562.0</ele><time>2026-04-25T08:45:40Z</time></trkpt><trkpt lat="44.731133595419955" lon="9.897362716888901"><ele>562.0</ele><time>2026-04-25T08:45:42Z</time></trkpt><trkpt lat="44.73114799104781" lon="9.897254168274559"><ele>562.8333333333334</ele><time>2026-04-25T08:45:44Z</time></trkpt><trkpt lat="44.731164644647556" lon="9.897144614117627"><ele>563.6666666666667</ele><time>2026-04-25T08:45:46Z</time></trkpt><trkpt lat="44.73118764706211" lon="9.897033363452797"><ele>564.5</ele><time>2026-04-25T08:45:48Z</time></trkpt><trkpt lat="44.73121673809363" lon="9.896924305731277"><ele>565.3333333333334</ele><time>2026-04-25T08:45:50Z</time></trkpt><trkpt lat="44.73124025750855" lon="9.896817884688277"><ele>566.1666666666666</ele><time>2026-04-25T08:45:52Z</time></trkpt><trkpt lat="44.73125671232824" lon="9.896708240953751"><ele>567.0</ele><time>2026-04-25T08:45:54Z</time></trkpt><trkpt lat="44.73127243050773" lon="9.89659199950327"><ele>568.2</ele><time>2026-04-25T08:45:57Z</time></trkpt><trkpt lat="44.7312655496359" lon="9.896470930260213"><ele>569.4000000000001</ele><time>2026-04-25T08:46:00Z</time></trkpt><trkpt lat="44.73125011467555" lon="9.896371542227904"><ele>570.5999999999999</ele><time>2026-04-25T08:46:02Z</time></trkpt><trkpt lat="44.73123561102703" lon="9.896274612817132"><ele>571.8</ele><time>2026-04-25T08:46:04Z</time></trkpt><trkpt lat="44.73122025119178" lon="9.896059621506012"><ele>573.0</ele><time>2026-04-25T08:46:06Z</time></trkpt><trkpt lat="44.73119305004049" lon="9.895957042827417"><ele>572.8333333333334</ele><time>2026-04-25T08:46:08Z</time></trkpt><trkpt lat="44.73117218355882" lon="9.895855347253859"><ele>572.6666666666666</ele><time>2026-04-25T08:46:09.999Z</time></trkpt><trkpt lat="44.7311556359379" lon="9.895752005460576"><ele>572.5</ele><time>2026-04-25T08:46:11.999Z</time></trkpt><trkpt lat="44.73114598169327" lon="9.895644753165785"><ele>572.3333333333333</ele><time>2026-04-25T08:46:13.999Z</time></trkpt><trkpt lat="44.731141471303445" lon="9.895537687724449"><ele>572.1666666666666</ele><time>2026-04-25T08:46:15.999Z</time></trkpt><trkpt lat="44.73113968803773" lon="9.89543300649346"><ele>572.0</ele><time>2026-04-25T08:46:17.999Z</time></trkpt><trkpt lat="44.73114049203004" lon="9.895325872089035"><ele>572.0</ele><time>2026-04-25T08:46:19.999Z</time></trkpt><trkpt lat="44.73113743693742" lon="9.895216803499125"><ele>572.0</ele><time>2026-04-25T08:46:21.999Z</time></trkpt><trkpt lat="44.73112599579064" lon="9.895109870694354"><ele>572.0</ele><time>2026-04-25T08:46:23.999Z</time></trkpt><trkpt lat="44.73111373033964" lon="9.89499737135564"><ele>572.0</ele><time>2026-04-25T08:46:25.999Z</time></trkpt><trkpt lat="44.73104811056448" lon="9.89490772771388"><ele>572.0</ele><time>2026-04-25T08:46:28.999Z</time></trkpt><trkpt lat="44.73095316171998" lon="9.894817971075266"><ele>572.0</ele><time>2026-04-25T08:46:30.999Z</time></trkpt><trkpt lat="44.730879731648486" lon="9.89475825973318"><ele>575.0</ele><time>2026-04-25T08:46:32.999Z</time></trkpt><trkpt lat="44.73079575613865" lon="9.894696601797687"><ele>578.0</ele><time>2026-04-25T08:46:34.999Z</time></trkpt><trkpt lat="44.73071405322735" lon="9.894635247194362"><ele>581.0</ele><time>2026-04-25T08:46:36.999Z</time></trkpt><trkpt lat="44.730635216341426" lon="9.89457260139179"><ele>584.0</ele><time>2026-04-25T08:46:38.999Z</time></trkpt><trkpt lat="44.730564330642636" lon="9.894516257160362"><ele>587.0</ele><time>2026-04-25T08:46:40.999Z</time></trkpt><trkpt lat="44.730492193463434" lon="9.894463052596912"><ele>590.0</ele><time>2026-04-25T08:46:42.999Z</time></trkpt><trkpt lat="44.73042248931914" lon="9.894402885141629"><ele>590.0</ele><time>2026-04-25T08:46:44.999Z</time></trkpt><trkpt lat="44.73035755672479" lon="9.894331110362666"><ele>590.0</ele><time>2026-04-25T08:46:46.999Z</time></trkpt><trkpt lat="44.73030113223836" lon="9.894247216855756"><ele>590.0</ele><time>2026-04-25T08:46:48.999Z</time></trkpt><trkpt lat="44.7302421857646" lon="9.894144627239465"><ele>590.0</ele><time>2026-04-25T08:46:51.999Z</time></trkpt><trkpt lat="44.730198433193294" lon="9.894059978765641"><ele>590.0</ele><time>2026-04-25T08:46:52.999Z</time></trkpt><trkpt lat="44.73014687644931" lon="9.893967313361332"><ele>590.0</ele><time>2026-04-25T08:46:54.999Z</time></trkpt><trkpt lat="44.730099424978214" lon="9.893877385690496"><ele>591.3333333333333</ele><time>2026-04-25T08:46:56.999Z</time></trkpt><trkpt lat="44.73004161821752" lon="9.893806125320484"><ele>592.6666666666666</ele><time>2026-04-25T08:46:58.999Z</time></trkpt><trkpt lat="44.729967428025375" lon="9.893758971818253"><ele>594.0</ele><time>2026-04-25T08:47:00.999Z</time></trkpt><trkpt lat="44.72988870320101" lon="9.89372976912893"><ele>595.3333333333334</ele><time>2026-04-25T08:47:02.998Z</time></trkpt><trkpt lat="44.72980820413783" lon="9.89371252827478"><ele>596.6666666666667</ele><time>2026-04-25T08:47:04.998Z</time></trkpt><trkpt lat="44.72973064511528" lon="9.89370348163198"><ele>598.0</ele><time>2026-04-25T08:47:06.998Z</time></trkpt><trkpt lat="44.72965950071633" lon="9.893690205375961"><ele>598.0</ele><time>2026-04-25T08:47:08.998Z</time></trkpt><trkpt lat="44.72958893878558" lon="9.893665427885882"><ele>598.0</ele><time>2026-04-25T08:47:10.998Z</time></trkpt><trkpt lat="44.72952053938225" lon="9.893634650180461"><ele>598.0</ele><time>2026-04-25T08:47:13.998Z</time></trkpt><trkpt lat="44.72944794381691" lon="9.89360229031335"><ele>598.0</ele><time>2026-04-25T08:47:17Z</time></trkpt><trkpt lat="44.7293863483476" lon="9.89357221168856"><ele>598.0</ele><time>2026-04-25T08:47:19Z</time></trkpt><trkpt lat="44.72931810650919" lon="9.893540857080291"><ele>598.0</ele><time>2026-04-25T08:47:22Z</time></trkpt><trkpt lat="44.72925671222365" lon="9.893511401539286"><ele>598.0</ele><time>2026-04-25T08:47:24Z</time></trkpt><trkpt lat="44.729188460088096" lon="9.893465395967995"><ele>598.0</ele><time>2026-04-25T08:47:27Z</time></trkpt><trkpt lat="44.729130387431304" lon="9.893359252824824"><ele>598.0</ele><time>2026-04-25T08:47:30Z</time></trkpt><trkpt lat="44.72901757623694" lon="9.893282577572029"><ele>598.0</ele><time>2026-04-25T08:47:31Z</time></trkpt><trkpt lat="44.72898616091973" lon="9.893196105640847"><ele>598.0</ele><time>2026-04-25T08:47:33Z</time></trkpt><trkpt lat="44.72895538764249" lon="9.893114923848717"><ele>598.0</ele><time>2026-04-25T08:47:35Z</time></trkpt><trkpt lat="44.728915775467215" lon="9.893045730686069"><ele>598.0</ele><time>2026-04-25T08:47:37Z</time></trkpt><trkpt lat="44.72886549354335" lon="9.89297369145709"><ele>598.0</ele><time>2026-04-25T08:47:39Z</time></trkpt><trkpt lat="44.72881049763486" lon="9.89291048768981"><ele>598.0</ele><time>2026-04-25T08:47:41Z</time></trkpt><trkpt lat="44.728752612683444" lon="9.892846235138308"><ele>598.0</ele><time>2026-04-25T08:47:43Z</time></trkpt><trkpt lat="44.72868392710835" lon="9.89278690973537"><ele>598.0</ele><time>2026-04-25T08:47:45Z</time></trkpt><trkpt lat="44.72862464290203" lon="9.892733389722455"><ele>598.0</ele><time>2026-04-25T08:47:47Z</time></trkpt><trkpt lat="44.72856251650828" lon="9.892686473215944"><ele>598.0</ele><time>2026-04-25T08:47:49Z</time></trkpt><trkpt lat="44.72849545949921" lon="9.892634269826866"><ele>598.0</ele><time>2026-04-25T08:47:52Z</time></trkpt><trkpt lat="44.72845831632656" lon="9.89255172837861"><ele>601.1666666666667</ele><time>2026-04-25T08:47:54Z</time></trkpt><trkpt lat="44.72838583835042" lon="9.892424678036365"><ele>604.3333333333334</ele><time>2026-04-25T08:47:56Z</time></trkpt><trkpt lat="44.72836656695158" lon="9.892331608882554"><ele>607.5</ele><time>2026-04-25T08:47:58Z</time></trkpt><trkpt lat="44.72836218778615" lon="9.892232955622848"><ele>610.6666666666666</ele><time>2026-04-25T08:48:00Z</time></trkpt><trkpt lat="44.728367476341354" lon="9.892136395225556"><ele>613.8333333333333</ele><time>2026-04-25T08:48:02Z</time></trkpt><trkpt lat="44.7283699773683" lon="9.89203721286024"><ele>617.0</ele><time>2026-04-25T08:48:04Z</time></trkpt><trkpt lat="44.7283741008874" lon="9.891940013436152"><ele>617.0</ele><time>2026-04-25T08:48:06Z</time></trkpt><trkpt lat="44.72837938059773" lon="9.891844763215564"><ele>617.0</ele><time>2026-04-25T08:48:08Z</time></trkpt><trkpt lat="44.728379625334476" lon="9.891754029697003"><ele>617.0</ele><time>2026-04-25T08:48:10Z</time></trkpt><trkpt lat="44.72835848957527" lon="9.891627440362297"><ele>617.0</ele><time>2026-04-25T08:48:12.999Z</time></trkpt><trkpt lat="44.72833013316583" lon="9.891542108790528"><ele>617.0</ele><time>2026-04-25T08:48:14.999Z</time></trkpt><trkpt lat="44.728263829332306" lon="9.891441073611645"><ele>617.0</ele><time>2026-04-25T08:48:18.999Z</time></trkpt><trkpt lat="44.728184315530505" lon="9.891362916133698"><ele>615.6666666666666</ele><time>2026-04-25T08:48:21.999Z</time></trkpt><trkpt lat="44.72811499302706" lon="9.891301630185637"><ele>614.3333333333333</ele><time>2026-04-25T08:48:23.999Z</time></trkpt><trkpt lat="44.72806061950864" lon="9.891254182005708"><ele>613.0</ele><time>2026-04-25T08:48:25.999Z</time></trkpt><trkpt lat="44.72797149446382" lon="9.891206138679676"><ele>611.6666666666666</ele><time>2026-04-25T08:48:28.999Z</time></trkpt><trkpt lat="44.72788912002519" lon="9.891164659553732"><ele>610.3333333333334</ele><time>2026-04-25T08:48:30.999Z</time></trkpt><trkpt lat="44.727825279236015" lon="9.891147859408518"><ele>609.0</ele><time>2026-04-25T08:48:32.999Z</time></trkpt><trkpt lat="44.72773368873994" lon="9.891140032179768"><ele>612.2</ele><time>2026-04-25T08:48:35.999Z</time></trkpt><trkpt lat="44.727637279221554" lon="9.891125883831911"><ele>615.4</ele><time>2026-04-25T08:48:37.999Z</time></trkpt><trkpt lat="44.72756493706724" lon="9.891106498133238"><ele>618.6</ele><time>2026-04-25T08:48:39.999Z</time></trkpt><trkpt lat="44.72748683944169" lon="9.891112083547172"><ele>621.8</ele><time>2026-04-25T08:48:41.999Z</time></trkpt><trkpt lat="44.727416574828396" lon="9.891119389365054"><ele>625.0</ele><time>2026-04-25T08:48:44.999Z</time></trkpt><trkpt lat="44.72728357081687" lon="9.891078287925911"><ele>625.0000000000001</ele><time>2026-04-25T08:48:45.999Z</time></trkpt><trkpt lat="44.7272091418178" lon="9.891084510566575"><ele>625.0</ele><time>2026-04-25T08:48:47.999Z</time></trkpt><trkpt lat="44.72713690917135" lon="9.891085641190669"><ele>625.0</ele><time>2026-04-25T08:48:49.999Z</time></trkpt><trkpt lat="44.727065550600415" lon="9.891087835658597"><ele>625.0</ele><time>2026-04-25T08:48:51.999Z</time></trkpt><trkpt lat="44.726993418564156" lon="9.891095014697159"><ele>625.0</ele><time>2026-04-25T08:48:53.999Z</time></trkpt><trkpt lat="44.726922018535255" lon="9.891111437198395"><ele>625.0000000000001</ele><time>2026-04-25T08:48:55.999Z</time></trkpt><trkpt lat="44.72684949320504" lon="9.891134151421854"><ele>625.0</ele><time>2026-04-25T08:48:57.999Z</time></trkpt><trkpt lat="44.72677791995601" lon="9.891158116169859"><ele>626.3333333333334</ele><time>2026-04-25T08:48:59.999Z</time></trkpt><trkpt lat="44.72670501880252" lon="9.891186512132228"><ele>627.6666666666667</ele><time>2026-04-25T08:49:01.999Z</time></trkpt><trkpt lat="44.726632771374504" lon="9.891206322606129"><ele>629.0</ele><time>2026-04-25T08:49:03.999Z</time></trkpt><trkpt lat="44.72652874199675" lon="9.891266143431897"><ele>630.3333333333334</ele><time>2026-04-25T08:49:06.998Z</time></trkpt><trkpt lat="44.72645550174761" lon="9.891296508802647"><ele>631.6666666666666</ele><time>2026-04-25T08:49:08.998Z</time></trkpt><trkpt lat="44.72638534644417" lon="9.891331239215212"><ele>633.0</ele><time>2026-04-25T08:49:10.998Z</time></trkpt><trkpt lat="44.7263158185444" lon="9.891362674385825"><ele>633.0</ele><time>2026-04-25T08:49:12.998Z</time></trkpt><trkpt lat="44.72624657089495" lon="9.891396451345436"><ele>633.0</ele><time>2026-04-25T08:49:14.998Z</time></trkpt><trkpt lat="44.7261780189426" lon="9.891430614755963"><ele>633.0</ele><time>2026-04-25T08:49:16.998Z</time></trkpt><trkpt lat="44.7261103590331" lon="9.891463531259223"><ele>633.0</ele><time>2026-04-25T08:49:18.998Z</time></trkpt><trkpt lat="44.72604347578203" lon="9.891493467878481"><ele>633.0</ele><time>2026-04-25T08:49:20.998Z</time></trkpt><trkpt lat="44.72597914692119" lon="9.891520264310952"><ele>633.0</ele><time>2026-04-25T08:49:23Z</time></trkpt><trkpt lat="44.72591681219663" lon="9.891549858909237"><ele>633.0</ele><time>2026-04-25T08:49:25Z</time></trkpt><trkpt lat="44.72584852450289" lon="9.891566210076405"><ele>632.5</ele><time>2026-04-25T08:49:28Z</time></trkpt><trkpt lat="44.72577245385303" lon="9.891597595623956"><ele>632.0</ele><time>2026-04-25T08:49:30Z</time></trkpt><trkpt lat="44.72570652975932" lon="9.89161661473513"><ele>631.5</ele><time>2026-04-25T08:49:32Z</time></trkpt><trkpt lat="44.725634436172044" lon="9.891637469132947"><ele>631.0</ele><time>2026-04-25T08:49:35Z</time></trkpt><trkpt lat="44.72554775292846" lon="9.891650548264113"><ele>630.5</ele><time>2026-04-25T08:49:37Z</time></trkpt><trkpt lat="44.72546172374757" lon="9.891663495772143"><ele>630.0</ele><time>2026-04-25T08:49:39Z</time></trkpt><trkpt lat="44.72538049432605" lon="9.89166568381298"><ele>630.0</ele><time>2026-04-25T08:49:41Z</time></trkpt><trkpt lat="44.72530124618017" lon="9.891646721843363"><ele>630.0</ele><time>2026-04-25T08:49:44Z</time></trkpt><trkpt lat="44.72522619401328" lon="9.891615477036863"><ele>630.0</ele><time>2026-04-25T08:49:47Z</time></trkpt><trkpt lat="44.72506916425915" lon="9.89149790186567"><ele>630.0</ele><time>2026-04-25T08:49:50Z</time></trkpt><trkpt lat="44.725029869850395" lon="9.891413446484327"><ele>630.0</ele><time>2026-04-25T08:49:52Z</time></trkpt><trkpt lat="44.72499387761285" lon="9.891330525947234"><ele>631.3333333333334</ele><time>2026-04-25T08:49:54Z</time></trkpt><trkpt lat="44.72498365103362" lon="9.891230767998337"><ele>632.6666666666666</ele><time>2026-04-25T08:49:56Z</time></trkpt><trkpt lat="44.72499107449135" lon="9.891115640068636"><ele>634.0</ele><time>2026-04-25T08:49:58Z</time></trkpt><trkpt lat="44.724999719573454" lon="9.891005957152702"><ele>635.3333333333333</ele><time>2026-04-25T08:50:00Z</time></trkpt><trkpt lat="44.72501947376739" lon="9.890902326294604"><ele>636.6666666666666</ele><time>2026-04-25T08:50:02Z</time></trkpt><trkpt lat="44.725035713864514" lon="9.890800059164306"><ele>638.0</ele><time>2026-04-25T08:50:04Z</time></trkpt><trkpt lat="44.725050213973695" lon="9.89070020457243"><ele>638.0</ele><time>2026-04-25T08:50:06Z</time></trkpt><trkpt lat="44.725061765544545" lon="9.890564655632742"><ele>638.0</ele><time>2026-04-25T08:50:09Z</time></trkpt><trkpt lat="44.72506556641524" lon="9.89046705690206"><ele>638.0</ele><time>2026-04-25T08:50:11Z</time></trkpt><trkpt lat="44.72506916066406" lon="9.890367330263897"><ele>638.0</ele><time>2026-04-25T08:50:13Z</time></trkpt><trkpt lat="44.725064998965614" lon="9.890265821842862"><ele>638.0</ele><time>2026-04-25T08:50:15Z</time></trkpt><trkpt lat="44.72504463679836" lon="9.890128476111927"><ele>638.0</ele><time>2026-04-25T08:50:17.999Z</time></trkpt><trkpt lat="44.72501612499157" lon="9.89003752406499"><ele>637.2857142857143</ele><time>2026-04-25T08:50:19.999Z</time></trkpt><trkpt lat="44.724975507779945" lon="9.889940517611603"><ele>636.5714285714286</ele><time>2026-04-25T08:50:21.999Z</time></trkpt><trkpt lat="44.72493659346478" lon="9.889854370395259"><ele>635.8571428571429</ele><time>2026-04-25T08:50:24.999Z</time></trkpt><trkpt lat="44.72489730007554" lon="9.889781960533824"><ele>635.1428571428571</ele><time>2026-04-25T08:50:26.999Z</time></trkpt><trkpt lat="44.724854424924146" lon="9.88970540754318"><ele>634.4285714285714</ele><time>2026-04-25T08:50:28.999Z</time></trkpt><trkpt lat="44.72481116892996" lon="9.889633837631923"><ele>633.7142857142857</ele><time>2026-04-25T08:50:30.999Z</time></trkpt><trkpt lat="44.72476173585057" lon="9.889572121206056"><ele>633.0</ele><time>2026-04-25T08:50:32.999Z</time></trkpt><trkpt lat="44.72471058908547" lon="9.889511168677835"><ele>633.0</ele><time>2026-04-25T08:50:34.999Z</time></trkpt><trkpt lat="44.724649289937204" lon="9.889469383462526"><ele>633.0</ele><time>2026-04-25T08:50:36.999Z</time></trkpt><trkpt lat="44.72456614661823" lon="9.889435646160633"><ele>633.0</ele><time>2026-04-25T08:50:39.999Z</time></trkpt><trkpt lat="44.72449463375036" lon="9.88942008554389"><ele>633.0</ele><time>2026-04-25T08:50:41.999Z</time></trkpt><trkpt lat="44.724401539028804" lon="9.889413850809849"><ele>633.0</ele><time>2026-04-25T08:50:44.999Z</time></trkpt><trkpt lat="44.72430262425119" lon="9.889406246693982"><ele>633.0</ele><time>2026-04-25T08:50:47.999Z</time></trkpt><trkpt lat="44.724188958930924" lon="9.88939937526277"><ele>633.0</ele><time>2026-04-25T08:50:49.999Z</time></trkpt><trkpt lat="44.72412274488046" lon="9.889375059924074"><ele>633.0</ele><time>2026-04-25T08:50:51.999Z</time></trkpt><trkpt lat="44.724040287642524" lon="9.88932972302442"><ele>633.0</ele><time>2026-04-25T08:50:54.999Z</time></trkpt><trkpt lat="44.72395175230346" lon="9.889290298913703"><ele>633.0</ele><time>2026-04-25T08:50:56.999Z</time></trkpt><trkpt lat="44.72388139437002" lon="9.889261365223227"><ele>633.0</ele><time>2026-04-25T08:50:59.999Z</time></trkpt><trkpt lat="44.723800327327126" lon="9.889236156867902"><ele>633.0</ele><time>2026-04-25T08:51:01.999Z</time></trkpt><trkpt lat="44.72370800450162" lon="9.889225047144814"><ele>633.0</ele><time>2026-04-25T08:51:03.999Z</time></trkpt><trkpt lat="44.7236335002138" lon="9.889245769120304"><ele>633.0</ele><time>2026-04-25T08:51:06.999Z</time></trkpt><trkpt lat="44.72356754113097" lon="9.88926844014281"><ele>633.0</ele><time>2026-04-25T08:51:07.999Z</time></trkpt><trkpt lat="44.723493052413815" lon="9.889309675683474"><ele>633.0</ele><time>2026-04-25T08:51:10.999Z</time></trkpt><trkpt lat="44.72333559987358" lon="9.889383380807685"><ele>633.0</ele><time>2026-04-25T08:51:13.998Z</time></trkpt><trkpt lat="44.723265961633665" lon="9.889418896430088"><ele>638.8571428571429</ele><time>2026-04-25T08:51:15.998Z</time></trkpt><trkpt lat="44.7231982573185" lon="9.889454232783875"><ele>644.7142857142858</ele><time>2026-04-25T08:51:17.998Z</time></trkpt><trkpt lat="44.72312879061111" lon="9.889485510172905"><ele>650.5714285714287</ele><time>2026-04-25T08:51:19.998Z</time></trkpt><trkpt lat="44.72306255026847" lon="9.889519414341699"><ele>656.4285714285714</ele><time>2026-04-25T08:51:21.998Z</time></trkpt><trkpt lat="44.7230008523771" lon="9.889555671099387"><ele>662.2857142857143</ele><time>2026-04-25T08:51:23.998Z</time></trkpt><trkpt lat="44.72294172626761" lon="9.889600966013942"><ele>668.1428571428572</ele><time>2026-04-25T08:51:25.998Z</time></trkpt><trkpt lat="44.72288208208397" lon="9.889646279424284"><ele>674.0</ele><time>2026-04-25T08:51:28Z</time></trkpt><trkpt lat="44.7228199970121" lon="9.88968480634533"><ele>674.0</ele><time>2026-04-25T08:51:31Z</time></trkpt><trkpt lat="44.722761092020505" lon="9.889735453801514"><ele>674.0</ele><time>2026-04-25T08:51:33Z</time></trkpt><trkpt lat="44.72270148325822" lon="9.889779344683147"><ele>674.0</ele><time>2026-04-25T08:51:36Z</time></trkpt><trkpt lat="44.72262811270581" lon="9.889827641733014"><ele>674.0</ele><time>2026-04-25T08:51:39Z</time></trkpt><trkpt lat="44.72256399691621" lon="9.88986882040634"><ele>674.0</ele><time>2026-04-25T08:51:41Z</time></trkpt><trkpt lat="44.722480936632365" lon="9.889922734526701"><ele>674.0</ele><time>2026-04-25T08:51:44Z</time></trkpt><trkpt lat="44.72240286696975" lon="9.889976707968598"><ele>671.4000000000001</ele><time>2026-04-25T08:51:47Z</time></trkpt><trkpt lat="44.72234274909803" lon="9.890029857697476"><ele>668.8</ele><time>2026-04-25T08:51:50Z</time></trkpt><trkpt lat="44.72225569990412" lon="9.89009237708559"><ele>666.2</ele><time>2026-04-25T08:51:53Z</time></trkpt><trkpt lat="44.722108817128024" lon="9.890203280633227"><ele>663.5999999999999</ele><time>2026-04-25T08:51:55Z</time></trkpt><trkpt lat="44.722049499380496" lon="9.890239730979689"><ele>661.0</ele><time>2026-04-25T08:51:57Z</time></trkpt><trkpt lat="44.72198489234591" lon="9.890272874782001"><ele>661.5</ele><time>2026-04-25T08:51:59Z</time></trkpt><trkpt lat="44.721919749077266" lon="9.890262875930537"><ele>662.0</ele><time>2026-04-25T08:52:03Z</time></trkpt><trkpt lat="44.721830978160824" lon="9.890279723340925"><ele>662.5</ele><time>2026-04-25T08:52:06Z</time></trkpt><trkpt lat="44.721741793838966" lon="9.890287520527806"><ele>663.0</ele><time>2026-04-25T08:52:09Z</time></trkpt><trkpt lat="44.72165226766898" lon="9.890256299846898"><ele>663.5</ele><time>2026-04-25T08:52:12Z</time></trkpt><trkpt lat="44.72158584816541" lon="9.890155032740532"><ele>664.0</ele><time>2026-04-25T08:52:15Z</time></trkpt><trkpt lat="44.72156580778261" lon="9.89005976460414"><ele>664.0</ele><time>2026-04-25T08:52:17Z</time></trkpt><trkpt lat="44.72152512774134" lon="9.889910322481944"><ele>664.0</ele><time>2026-04-25T08:52:19Z</time></trkpt><trkpt lat="44.72153317024589" lon="9.889801665284821"><ele>664.0</ele><time>2026-04-25T08:52:20.999Z</time></trkpt><trkpt lat="44.72153654948461" lon="9.88969417416172"><ele>664.0</ele><time>2026-04-25T08:52:22.999Z</time></trkpt><trkpt lat="44.721529904023875" lon="9.889588743463241"><ele>664.0</ele><time>2026-04-25T08:52:24.999Z</time></trkpt><trkpt lat="44.72151424015043" lon="9.88947971810009"><ele>664.0</ele><time>2026-04-25T08:52:26.999Z</time></trkpt><trkpt lat="44.721491509137245" lon="9.889357293964025"><ele>663.0</ele><time>2026-04-25T08:52:28.999Z</time></trkpt><trkpt lat="44.72147261895894" lon="9.889231698199566"><ele>662.0</ele><time>2026-04-25T08:52:30.999Z</time></trkpt><trkpt lat="44.72145410159102" lon="9.889110030965819"><ele>661.0</ele><time>2026-04-25T08:52:32.999Z</time></trkpt><trkpt lat="44.72142704804266" lon="9.888994566871952"><ele>660.0</ele><time>2026-04-25T08:52:34.999Z</time></trkpt><trkpt lat="44.72139505437119" lon="9.88888627152359"><ele>659.0</ele><time>2026-04-25T08:52:36.999Z</time></trkpt><trkpt lat="44.72135080777994" lon="9.888817018208051"><ele>658.0</ele><time>2026-04-25T08:52:38.999Z</time></trkpt><trkpt lat="44.721273312328606" lon="9.888716191224633"><ele>658.0</ele><time>2026-04-25T08:52:40.999Z</time></trkpt><trkpt lat="44.721194181240534" lon="9.88866452486982"><ele>658.0</ele><time>2026-04-25T08:52:42.999Z</time></trkpt><trkpt lat="44.72111794278491" lon="9.888628219733926"><ele>658.0</ele><time>2026-04-25T08:52:44.999Z</time></trkpt><trkpt lat="44.72104134239768" lon="9.888600703139499"><ele>658.0</ele><time>2026-04-25T08:52:46.999Z</time></trkpt><trkpt lat="44.720964818044244" lon="9.888561220566249"><ele>658.0</ele><time>2026-04-25T08:52:48.999Z</time></trkpt><trkpt lat="44.72088575981001" lon="9.888531434568865"><ele>658.0</ele><time>2026-04-25T08:52:50.999Z</time></trkpt><trkpt lat="44.72081057355165" lon="9.888501926460712"><ele>659.0</ele><time>2026-04-25T08:52:52.999Z</time></trkpt><trkpt lat="44.72073434680641" lon="9.88846736824247"><ele>660.0</ele><time>2026-04-25T08:52:54.999Z</time></trkpt><trkpt lat="44.72065973071466" lon="9.888437699962742"><ele>661.0</ele><time>2026-04-25T08:52:56.999Z</time></trkpt><trkpt lat="44.72059152780364" lon="9.888411372659403"><ele>662.0</ele><time>2026-04-25T08:52:58.999Z</time></trkpt><trkpt lat="44.7205092944853" lon="9.888381129645815"><ele>663.0</ele><time>2026-04-25T08:53:01.999Z</time></trkpt><trkpt lat="44.72042740788142" lon="9.888351952362004"><ele>664.0</ele><time>2026-04-25T08:53:04.999Z</time></trkpt><trkpt lat="44.72035203386066" lon="9.888319179397715"><ele>664.0</ele><time>2026-04-25T08:53:06.999Z</time></trkpt><trkpt lat="44.72028694506968" lon="9.888293740756804"><ele>664.0</ele><time>2026-04-25T08:53:08.999Z</time></trkpt><trkpt lat="44.720186146623476" lon="9.88825673020687"><ele>664.0</ele><time>2026-04-25T08:53:09.999Z</time></trkpt><trkpt lat="44.720112854435385" lon="9.888222687751828"><ele>664.0</ele><time>2026-04-25T08:53:11.999Z</time></trkpt><trkpt lat="44.720037758490996" lon="9.888196430290847"><ele>664.0</ele><time>2026-04-25T08:53:13.999Z</time></trkpt><trkpt lat="44.719964118830354" lon="9.888165921152753"><ele>664.0</ele><time>2026-04-25T08:53:15.998Z</time></trkpt><trkpt lat="44.719891317931726" lon="9.88813404657562"><ele>666.1428571428571</ele><time>2026-04-25T08:53:17.998Z</time></trkpt><trkpt lat="44.71981857575506" lon="9.888100648057504"><ele>668.2857142857143</ele><time>2026-04-25T08:53:19.998Z</time></trkpt><trkpt lat="44.71974775485309" lon="9.88806634027577"><ele>670.4285714285714</ele><time>2026-04-25T08:53:21.998Z</time></trkpt><trkpt lat="44.719681084463375" lon="9.888042879409173"><ele>672.5714285714286</ele><time>2026-04-25T08:53:23.998Z</time></trkpt><trkpt lat="44.719609346188165" lon="9.888019391227875"><ele>674.7142857142858</ele><time>2026-04-25T08:53:25.998Z</time></trkpt><trkpt lat="44.71953675116545" lon="9.887991639062555"><ele>676.8571428571429</ele><time>2026-04-25T08:53:27.998Z</time></trkpt><trkpt lat="44.719478170374224" lon="9.887942446864779"><ele>679.0</ele><time>2026-04-25T08:53:30.998Z</time></trkpt><trkpt lat="44.719407297467995" lon="9.88792663073906"><ele>680.3333333333334</ele><time>2026-04-25T08:53:34Z</time></trkpt><trkpt lat="44.71931877887615" lon="9.88789813853513"><ele>681.6666666666667</ele><time>2026-04-25T08:53:37Z</time></trkpt><trkpt lat="44.71924808507282" lon="9.887877165448698"><ele>683.0</ele><time>2026-04-25T08:53:39Z</time></trkpt><trkpt lat="44.71915649423571" lon="9.887855275178511"><ele>684.3333333333334</ele><time>2026-04-25T08:53:41Z</time></trkpt><trkpt lat="44.719061830954494" lon="9.887849011572063"><ele>685.6666666666666</ele><time>2026-04-25T08:53:43Z</time></trkpt><trkpt lat="44.7189748403616" lon="9.88783337352565"><ele>687.0</ele><time>2026-04-25T08:53:45Z</time></trkpt><trkpt lat="44.71889659921569" lon="9.887817470640421"><ele>687.0</ele><time>2026-04-25T08:53:47Z</time></trkpt><trkpt lat="44.71881948464237" lon="9.887803285526621"><ele>687.0</ele><time>2026-04-25T08:53:49Z</time></trkpt><trkpt lat="44.718711487595144" lon="9.887794334606125"><ele>687.0</ele><time>2026-04-25T08:53:52Z</time></trkpt><trkpt lat="44.71863395099419" lon="9.887790821801936"><ele>687.0</ele><time>2026-04-25T08:53:54Z</time></trkpt><trkpt lat="44.718569430336395" lon="9.887788625462663"><ele>687.0</ele><time>2026-04-25T08:53:56Z</time></trkpt><trkpt lat="44.718485406740655" lon="9.887787711400637"><ele>687.0</ele><time>2026-04-25T08:53:59Z</time></trkpt><trkpt lat="44.718382835555985" lon="9.887787432805816"><ele>688.4000000000001</ele><time>2026-04-25T08:54:02Z</time></trkpt><trkpt lat="44.718282802840605" lon="9.887792007857941"><ele>689.8000000000001</ele><time>2026-04-25T08:54:05Z</time></trkpt><trkpt lat="44.71818663316822" lon="9.887786029236851"><ele>691.2</ele><time>2026-04-25T08:54:07Z</time></trkpt><trkpt lat="44.71812303865817" lon="9.88777627956182"><ele>692.6</ele><time>2026-04-25T08:54:09Z</time></trkpt><trkpt lat="44.71803195115592" lon="9.887752543899609"><ele>694.0</ele><time>2026-04-25T08:54:12Z</time></trkpt><trkpt lat="44.71794661255177" lon="9.887681807794808"><ele>689.75</ele><time>2026-04-25T08:54:14Z</time></trkpt><trkpt lat="44.71790829553615" lon="9.887584278602363"><ele>685.5</ele><time>2026-04-25T08:54:16Z</time></trkpt><trkpt lat="44.71788203742225" lon="9.887476304595975"><ele>681.25</ele><time>2026-04-25T08:54:18Z</time></trkpt><trkpt lat="44.717851516900886" lon="9.887306907063756"><ele>677.0</ele><time>2026-04-25T08:54:20Z</time></trkpt><trkpt lat="44.71782768638498" lon="9.887064327428753"><ele>677.0</ele><time>2026-04-25T08:54:23Z</time></trkpt><trkpt lat="44.717812721160165" lon="9.886919932276934"><ele>677.0</ele><time>2026-04-25T08:54:24.999Z</time></trkpt><trkpt lat="44.71779392918882" lon="9.886769740929061"><ele>677.0</ele><time>2026-04-25T08:54:26.999Z</time></trkpt><trkpt lat="44.7177826109298" lon="9.886615410877159"><ele>677.0</ele><time>2026-04-25T08:54:28.999Z</time></trkpt><trkpt lat="44.717770364072656" lon="9.886455470666522"><ele>677.0</ele><time>2026-04-25T08:54:30.999Z</time></trkpt><trkpt lat="44.717756546791584" lon="9.886283743876506"><ele>674.8</ele><time>2026-04-25T08:54:32.999Z</time></trkpt><trkpt lat="44.717759691022955" lon="9.886111867659158"><ele>672.6</ele><time>2026-04-25T08:54:34.999Z</time></trkpt><trkpt lat="44.71779744182272" lon="9.88595754845501"><ele>670.4</ele><time>2026-04-25T08:54:36.999Z</time></trkpt><trkpt lat="44.71784147380079" lon="9.885811956591"><ele>668.1999999999999</ele><time>2026-04-25T08:54:38.999Z</time></trkpt><trkpt lat="44.71787852426959" lon="9.885687210523438"><ele>666.0</ele><time>2026-04-25T08:54:40.999Z</time></trkpt><trkpt lat="44.71792370259007" lon="9.885550278682775"><ele>666.0</ele><time>2026-04-25T08:54:42.999Z</time></trkpt><trkpt lat="44.717902623369675" lon="9.88539111047783"><ele>666.0</ele><time>2026-04-25T08:54:44.999Z</time></trkpt><trkpt lat="44.71790542890506" lon="9.885235587725969"><ele>666.0</ele><time>2026-04-25T08:54:46.999Z</time></trkpt><trkpt lat="44.71788968321432" lon="9.885071415588367"><ele>666.0</ele><time>2026-04-25T08:54:48.999Z</time></trkpt><trkpt lat="44.71787620555906" lon="9.884912945439973"><ele>667.1999999999999</ele><time>2026-04-25T08:54:50.999Z</time></trkpt><trkpt lat="44.71784732019646" lon="9.884754871667953"><ele>668.4</ele><time>2026-04-25T08:54:52.999Z</time></trkpt><trkpt lat="44.71784868275694" lon="9.884602050211749"><ele>669.6</ele><time>2026-04-25T08:54:54.999Z</time></trkpt><trkpt lat="44.717823581219896" lon="9.884455527820952"><ele>670.8</ele><time>2026-04-25T08:54:56.999Z</time></trkpt><trkpt lat="44.71781550206819" lon="9.88429857327787"><ele>672.0</ele><time>2026-04-25T08:54:58.999Z</time></trkpt><trkpt lat="44.71781805925669" lon="9.884140848754308"><ele>672.0</ele><time>2026-04-25T08:55:00.999Z</time></trkpt><trkpt lat="44.717834459909014" lon="9.88398242671711"><ele>672.0</ele><time>2026-04-25T08:55:02.999Z</time></trkpt><trkpt lat="44.71785814238689" lon="9.883826851845964"><ele>672.0</ele><time>2026-04-25T08:55:04.999Z</time></trkpt><trkpt lat="44.71788905890132" lon="9.883676479073932"><ele>672.0</ele><time>2026-04-25T08:55:06.999Z</time></trkpt><trkpt lat="44.71792659173898" lon="9.883524161755583"><ele>673.3333333333334</ele><time>2026-04-25T08:55:08.999Z</time></trkpt><trkpt lat="44.71797264556252" lon="9.883371277075563"><ele>674.6666666666666</ele><time>2026-04-25T08:55:10.999Z</time></trkpt><trkpt lat="44.718016311759506" lon="9.883204487235055"><ele>676.0</ele><time>2026-04-25T08:55:12.999Z</time></trkpt><trkpt lat="44.7180418150331" lon="9.88311909200347"><ele>677.3333333333333</ele><time>2026-04-25T08:55:13.999Z</time></trkpt><trkpt lat="44.71808130083868" lon="9.883041685977885"><ele>678.6666666666666</ele><time>2026-04-25T08:55:14.999Z</time></trkpt><trkpt lat="44.71808900957944" lon="9.882942476533145"><ele>680.0</ele><time>2026-04-25T08:55:15.999Z</time></trkpt><trkpt lat="44.71811541625422" lon="9.882851850592727"><ele>680.0</ele><time>2026-04-25T08:55:16.999Z</time></trkpt><trkpt lat="44.71814524767617" lon="9.882759057266728"><ele>680.0</ele><time>2026-04-25T08:55:17.999Z</time></trkpt><trkpt lat="44.71817741422776" lon="9.88266677714922"><ele>680.0</ele><time>2026-04-25T08:55:18.998Z</time></trkpt><trkpt lat="44.718208796892604" lon="9.882571966070289"><ele>680.0</ele><time>2026-04-25T08:55:19.998Z</time></trkpt><trkpt lat="44.71823596238754" lon="9.882472599601108"><ele>680.0</ele><time>2026-04-25T08:55:20.998Z</time></trkpt><trkpt lat="44.718263173797354" lon="9.882372824364852"><ele>680.0</ele><time>2026-04-25T08:55:21.998Z</time></trkpt><trkpt lat="44.71828603717964" lon="9.882268329403274"><ele>680.0</ele><time>2026-04-25T08:55:22.998Z</time></trkpt><trkpt lat="44.71832078380763" lon="9.882164172098113"><ele>680.0</ele><time>2026-04-25T08:55:23.998Z</time></trkpt><trkpt lat="44.71836184690169" lon="9.882062377754165"><ele>680.0</ele><time>2026-04-25T08:55:24.998Z</time></trkpt><trkpt lat="44.71840997293988" lon="9.88196877184984"><ele>680.0</ele><time>2026-04-25T08:55:25.998Z</time></trkpt><trkpt lat="44.71848264974396" lon="9.881901709847995"><ele>680.0</ele><time>2026-04-25T08:55:26.998Z</time></trkpt><trkpt lat="44.718542815704595" lon="9.881810522075819"><ele>680.0</ele><time>2026-04-25T08:55:27.998Z</time></trkpt><trkpt lat="44.71861966819417" lon="9.881737681403667"><ele>680.0</ele><time>2026-04-25T08:55:28.998Z</time></trkpt><trkpt lat="44.71869257887769" lon="9.881662425633934"><ele>678.0</ele><time>2026-04-25T08:55:29.998Z</time></trkpt><trkpt lat="44.718763414310054" lon="9.881570411569099"><ele>676.0</ele><time>2026-04-25T08:55:30.998Z</time></trkpt><trkpt lat="44.71882685375249" lon="9.881470007472815"><ele>674.0</ele><time>2026-04-25T08:55:31.998Z</time></trkpt><trkpt lat="44.71888464591532" lon="9.881360034598286"><ele>672.0</ele><time>2026-04-25T08:55:32.998Z</time></trkpt><trkpt lat="44.718936222573895" lon="9.881242116215924"><ele>670.0</ele><time>2026-04-25T08:55:33.998Z</time></trkpt><trkpt lat="44.71898558484943" lon="9.881126281001906"><ele>670.0</ele><time>2026-04-25T08:55:34.998Z</time></trkpt><trkpt lat="44.71902914583138" lon="9.881005053907307"><ele>670.0</ele><time>2026-04-25T08:55:35.998Z</time></trkpt><trkpt lat="44.71907015019788" lon="9.880879334255058"><ele>670.0</ele><time>2026-04-25T08:55:36.998Z</time></trkpt><trkpt lat="44.719100096588114" lon="9.880746703036072"><ele>670.0</ele><time>2026-04-25T08:55:37.998Z</time></trkpt><trkpt lat="44.71912552249019" lon="9.880609374684258"><ele>670.0</ele><time>2026-04-25T08:55:38.998Z</time></trkpt><trkpt lat="44.71915952580203" lon="9.880482108001502"><ele>670.0</ele><time>2026-04-25T08:55:40Z</time></trkpt><trkpt lat="44.719180745894036" lon="9.88034494624746"><ele>670.0</ele><time>2026-04-25T08:55:41Z</time></trkpt><trkpt lat="44.71920102636142" lon="9.880210207940328"><ele>670.0</ele><time>2026-04-25T08:55:42Z</time></trkpt><trkpt lat="44.71922150746585" lon="9.88007166622173"><ele>670.0</ele><time>2026-04-25T08:55:43Z</time></trkpt><trkpt lat="44.71922896343133" lon="9.879932405732688"><ele>670.0</ele><time>2026-04-25T08:55:44Z</time></trkpt><trkpt lat="44.719261867373696" lon="9.879794559781534"><ele>669.6</ele><time>2026-04-25T08:55:45Z</time></trkpt><trkpt lat="44.719264858489524" lon="9.879651251940341"><ele>669.2</ele><time>2026-04-25T08:55:46Z</time></trkpt><trkpt lat="44.71929229886361" lon="9.879510115711177"><ele>668.8</ele><time>2026-04-25T08:55:47Z</time></trkpt><trkpt lat="44.71928970068045" lon="9.879364487425574"><ele>668.4</ele><time>2026-04-25T08:55:48Z</time></trkpt><trkpt lat="44.719259017429046" lon="9.87921922581238"><ele>668.0</ele><time>2026-04-25T08:55:49Z</time></trkpt><trkpt lat="44.71919312376473" lon="9.879101224850684"><ele>667.8</ele><time>2026-04-25T08:55:50Z</time></trkpt><trkpt lat="44.719137471269256" lon="9.878991618007767"><ele>667.5999999999999</ele><time>2026-04-25T08:55:51Z</time></trkpt><trkpt lat="44.719076752551025" lon="9.878889408202346"><ele>667.4000000000001</ele><time>2026-04-25T08:55:52Z</time></trkpt><trkpt lat="44.71901597673295" lon="9.878789709240568"><ele>667.2</ele><time>2026-04-25T08:55:53Z</time></trkpt><trkpt lat="44.71895986689119" lon="9.878686197799654"><ele>667.0</ele><time>2026-04-25T08:55:54Z</time></trkpt><trkpt lat="44.71890930674228" lon="9.878580714182322"><ele>667.0</ele><time>2026-04-25T08:55:55Z</time></trkpt><trkpt lat="44.718872666045634" lon="9.878460816177958"><ele>667.0</ele><time>2026-04-25T08:55:56Z</time></trkpt><trkpt lat="44.71886929464281" lon="9.87833164476837"><ele>667.0</ele><time>2026-04-25T08:55:57Z</time></trkpt><trkpt lat="44.71888560844298" lon="9.87820388905817"><ele>667.0</ele><time>2026-04-25T08:55:58Z</time></trkpt><trkpt lat="44.71890938632022" lon="9.878074982669148"><ele>667.0</ele><time>2026-04-25T08:55:59Z</time></trkpt><trkpt lat="44.71892457758342" lon="9.877938172318467"><ele>667.0</ele><time>2026-04-25T08:56:00Z</time></trkpt><trkpt lat="44.71894512763204" lon="9.877811073498982"><ele>667.0</ele><time>2026-04-25T08:56:01Z</time></trkpt><trkpt lat="44.71896264345589" lon="9.877684307549636"><ele>667.0</ele><time>2026-04-25T08:56:02Z</time></trkpt><trkpt lat="44.71898560340363" lon="9.877557081189202"><ele>667.0</ele><time>2026-04-25T08:56:03Z</time></trkpt><trkpt lat="44.71900657497359" lon="9.877432105287584"><ele>667.0</ele><time>2026-04-25T08:56:04Z</time></trkpt><trkpt lat="44.71902594232078" lon="9.877306753983383"><ele>666.6666666666667</ele><time>2026-04-25T08:56:05Z</time></trkpt><trkpt lat="44.719043194322204" lon="9.877180858533382"><ele>666.3333333333334</ele><time>2026-04-25T08:56:06Z</time></trkpt><trkpt lat="44.71906438729268" lon="9.877058823397954"><ele>666.0</ele><time>2026-04-25T08:56:07Z</time></trkpt><trkpt lat="44.71908737665548" lon="9.87693526866254"><ele>665.6666666666666</ele><time>2026-04-25T08:56:08Z</time></trkpt><trkpt lat="44.71910869805909" lon="9.876814018220308"><ele>665.3333333333333</ele><time>2026-04-25T08:56:09Z</time></trkpt><trkpt lat="44.71913941264361" lon="9.876695859798037"><ele>665.0</ele><time>2026-04-25T08:56:10Z</time></trkpt><trkpt lat="44.71918624866929" lon="9.876590524583321"><ele>665.0</ele><time>2026-04-25T08:56:11Z</time></trkpt><trkpt lat="44.71924623904745" lon="9.876494326018097"><ele>665.0</ele><time>2026-04-25T08:56:12Z</time></trkpt><trkpt lat="44.71931401175209" lon="9.876412120231064"><ele>665.0</ele><time>2026-04-25T08:56:13Z</time></trkpt><trkpt lat="44.719387881594336" lon="9.876338556188918"><ele>665.0</ele><time>2026-04-25T08:56:14Z</time></trkpt><trkpt lat="44.719460125239465" lon="9.876267967158984"><ele>665.0</ele><time>2026-04-25T08:56:15Z</time></trkpt><trkpt lat="44.719530657407454" lon="9.87619532251987"><ele>665.0</ele><time>2026-04-25T08:56:16Z</time></trkpt><trkpt lat="44.719596255763705" lon="9.876117758527174"><ele>665.0</ele><time>2026-04-25T08:56:17Z</time></trkpt><trkpt lat="44.7196615593324" lon="9.876037617743528"><ele>665.0</ele><time>2026-04-25T08:56:18Z</time></trkpt><trkpt lat="44.71971759715096" lon="9.875946365271698"><ele>665.0</ele><time>2026-04-25T08:56:19Z</time></trkpt><trkpt lat="44.719769718216966" lon="9.875852936923275"><ele>665.0</ele><time>2026-04-25T08:56:20Z</time></trkpt><trkpt lat="44.71982072226673" lon="9.875758174954646"><ele>665.0</ele><time>2026-04-25T08:56:21Z</time></trkpt><trkpt lat="44.71986431352474" lon="9.875656463132906"><ele>665.0</ele><time>2026-04-25T08:56:22Z</time></trkpt><trkpt lat="44.71989813137276" lon="9.875547294307374"><ele>665.0</ele><time>2026-04-25T08:56:23Z</time></trkpt><trkpt lat="44.71992187591747" lon="9.875429381568058"><ele>665.0</ele><time>2026-04-25T08:56:24Z</time></trkpt><trkpt lat="44.719938428685495" lon="9.875310920940548"><ele>665.0</ele><time>2026-04-25T08:56:25Z</time></trkpt><trkpt lat="44.719946342248775" lon="9.87519068996215"><ele>665.0</ele><time>2026-04-25T08:56:26Z</time></trkpt><trkpt lat="44.71995525894422" lon="9.875069077461381"><ele>665.0</ele><time>2026-04-25T08:56:27Z</time></trkpt><trkpt lat="44.71997137518895" lon="9.87495075473123"><ele>665.0</ele><time>2026-04-25T08:56:28Z</time></trkpt><trkpt lat="44.72000390794402" lon="9.874832884244015"><ele>664.6</ele><time>2026-04-25T08:56:28.999Z</time></trkpt><trkpt lat="44.720055511519746" lon="9.874729245179404"><ele>664.2</ele><time>2026-04-25T08:56:29.999Z</time></trkpt><trkpt lat="44.720131619723425" lon="9.874647487302358"><ele>663.8</ele><time>2026-04-25T08:56:30.999Z</time></trkpt><trkpt lat="44.72021185627786" lon="9.874577050452961"><ele>663.4</ele><time>2026-04-25T08:56:31.999Z</time></trkpt><trkpt lat="44.720292396699634" lon="9.87450783640783"><ele>663.0</ele><time>2026-04-25T08:56:32.999Z</time></trkpt><trkpt lat="44.720370979276176" lon="9.874434203895596"><ele>662.8</ele><time>2026-04-25T08:56:33.999Z</time></trkpt><trkpt lat="44.72044734368075" lon="9.874354396857788"><ele>662.5999999999999</ele><time>2026-04-25T08:56:34.999Z</time></trkpt><trkpt lat="44.72052423742233" lon="9.874272115736355"><ele>662.4000000000001</ele><time>2026-04-25T08:56:35.999Z</time></trkpt><trkpt lat="44.72059929734093" lon="9.874186305176284"><ele>662.2</ele><time>2026-04-25T08:56:36.999Z</time></trkpt><trkpt lat="44.720665419020015" lon="9.874090456351885"><ele>662.0</ele><time>2026-04-25T08:56:37.999Z</time></trkpt><trkpt lat="44.720716188980894" lon="9.873977922608947"><ele>662.0</ele><time>2026-04-25T08:56:38.999Z</time></trkpt><trkpt lat="44.72075032140429" lon="9.873854099306245"><ele>662.0</ele><time>2026-04-25T08:56:39.999Z</time></trkpt><trkpt lat="44.72076970668398" lon="9.873726801728"><ele>662.0</ele><time>2026-04-25T08:56:40.999Z</time></trkpt><trkpt lat="44.720786504740445" lon="9.873602711748791"><ele>662.0</ele><time>2026-04-25T08:56:41.999Z</time></trkpt><trkpt lat="44.72080272097848" lon="9.873480007104929"><ele>662.0</ele><time>2026-04-25T08:56:42.999Z</time></trkpt><trkpt lat="44.720818969329976" lon="9.873359798324428"><ele>662.0</ele><time>2026-04-25T08:56:43.999Z</time></trkpt><trkpt lat="44.72083457611534" lon="9.87324136189023"><ele>662.0</ele><time>2026-04-25T08:56:44.999Z</time></trkpt><trkpt lat="44.72084604605209" lon="9.87312725073648"><ele>662.0</ele><time>2026-04-25T08:56:45.999Z</time></trkpt><trkpt lat="44.720854706463946" lon="9.873014414831948"><ele>662.0</ele><time>2026-04-25T08:56:46.999Z</time></trkpt><trkpt lat="44.720856450660364" lon="9.872901690200825"><ele>662.0</ele><time>2026-04-25T08:56:47.999Z</time></trkpt><trkpt lat="44.720852467018304" lon="9.87279741071355"><ele>662.0</ele><time>2026-04-25T08:56:48.999Z</time></trkpt><trkpt lat="44.720843403789935" lon="9.872694093028212"><ele>662.2857142857143</ele><time>2026-04-25T08:56:49.999Z</time></trkpt><trkpt lat="44.72084518638365" lon="9.872589182475142"><ele>662.5714285714286</ele><time>2026-04-25T08:56:50.999Z</time></trkpt><trkpt lat="44.72081153652359" lon="9.87249633710764"><ele>662.8571428571429</ele><time>2026-04-25T08:56:51.999Z</time></trkpt><trkpt lat="44.72079089306693" lon="9.872405149343619"><ele>663.1428571428571</ele><time>2026-04-25T08:56:52.999Z</time></trkpt><trkpt lat="44.72076423009613" lon="9.872317566985096"><ele>663.4285714285714</ele><time>2026-04-25T08:56:53.999Z</time></trkpt><trkpt lat="44.720731942768346" lon="9.872232964206246"><ele>663.7142857142857</ele><time>2026-04-25T08:56:54.999Z</time></trkpt><trkpt lat="44.72069781990669" lon="9.872158498683167"><ele>664.0</ele><time>2026-04-25T08:56:55.999Z</time></trkpt><trkpt lat="44.72063141415076" lon="9.87202721420714"><ele>664.0</ele><time>2026-04-25T08:56:57.999Z</time></trkpt><trkpt lat="44.72057539230273" lon="9.871890440881435"><ele>664.0</ele><time>2026-04-25T08:56:59.999Z</time></trkpt><trkpt lat="44.720534195461696" lon="9.871756194743796"><ele>664.0</ele><time>2026-04-25T08:57:01.999Z</time></trkpt><trkpt lat="44.720506452448895" lon="9.87160609706782"><ele>664.0</ele><time>2026-04-25T08:57:03.999Z</time></trkpt><trkpt lat="44.72049353541376" lon="9.87145616571277"><ele>664.0</ele><time>2026-04-25T08:57:05.999Z</time></trkpt><trkpt lat="44.72048071692837" lon="9.871310211648545"><ele>665.2</ele><time>2026-04-25T08:57:07.999Z</time></trkpt><trkpt lat="44.7204648746837" lon="9.871170493497866"><ele>666.4000000000001</ele><time>2026-04-25T08:57:09.999Z</time></trkpt><trkpt lat="44.72046514627384" lon="9.871054879925556"><ele>667.6</ele><time>2026-04-25T08:57:11.999Z</time></trkpt><trkpt lat="44.72047998928618" lon="9.870933920525532"><ele>668.8</ele><time>2026-04-25T08:57:13.999Z</time></trkpt><trkpt lat="44.72050178726838" lon="9.870812001487572"><ele>670.0</ele><time>2026-04-25T08:57:15.999Z</time></trkpt><trkpt lat="44.720524487281764" lon="9.870687782335038"><ele>671.0</ele><time>2026-04-25T08:57:17.999Z</time></trkpt><trkpt lat="44.720543942697105" lon="9.870566951910302"><ele>672.0</ele><time>2026-04-25T08:57:19.999Z</time></trkpt><trkpt lat="44.72055832022936" lon="9.870427139889648"><ele>673.0</ele><time>2026-04-25T08:57:21.999Z</time></trkpt><trkpt lat="44.720563028493274" lon="9.870279859483652"><ele>674.0</ele><time>2026-04-25T08:57:23.998Z</time></trkpt><trkpt lat="44.720549473912286" lon="9.870155144894353"><ele>675.0</ele><time>2026-04-25T08:57:25.998Z</time></trkpt><trkpt lat="44.7205238423958" lon="9.870031750414483"><ele>676.8</ele><time>2026-04-25T08:57:27.998Z</time></trkpt><trkpt lat="44.72047961885112" lon="9.86993633135093"><ele>678.6</ele><time>2026-04-25T08:57:29.998Z</time></trkpt><trkpt lat="44.720420735809235" lon="9.869846051301922"><ele>680.4000000000001</ele><time>2026-04-25T08:57:31.998Z</time></trkpt><trkpt lat="44.72036320003461" lon="9.869754900053405"><ele>682.2</ele><time>2026-04-25T08:57:33.998Z</time></trkpt><trkpt lat="44.72030248282384" lon="9.869655674729591"><ele>684.0</ele><time>2026-04-25T08:57:35.998Z</time></trkpt><trkpt lat="44.72025145516022" lon="9.869503125824087"><ele>682.0</ele><time>2026-04-25T08:57:38.998Z</time></trkpt><trkpt lat="44.72020536271232" lon="9.869387100610709"><ele>680.0</ele><time>2026-04-25T08:57:39.998Z</time></trkpt><trkpt lat="44.720179937919326" lon="9.869265373946726"><ele>678.0</ele><time>2026-04-25T08:57:41.998Z</time></trkpt><trkpt lat="44.720158017591714" lon="9.869143840962536"><ele>676.0</ele><time>2026-04-25T08:57:43.998Z</time></trkpt><trkpt lat="44.720129738875556" lon="9.869021235059545"><ele>674.0</ele><time>2026-04-25T08:57:46Z</time></trkpt><trkpt lat="44.720092578989124" lon="9.86890013740628"><ele>674.0</ele><time>2026-04-25T08:57:48Z</time></trkpt><trkpt lat="44.720049400284566" lon="9.868783168367358"><ele>674.0</ele><time>2026-04-25T08:57:50Z</time></trkpt><trkpt lat="44.720000354389" lon="9.868662566413589"><ele>674.0</ele><time>2026-04-25T08:57:52Z</time></trkpt><trkpt lat="44.71995507336795" lon="9.868539497036926"><ele>674.0</ele><time>2026-04-25T08:57:54Z</time></trkpt><trkpt lat="44.71992491526521" lon="9.868415217415857"><ele>674.0</ele><time>2026-04-25T08:57:56Z</time></trkpt><trkpt lat="44.71990421650612" lon="9.868298369089688"><ele>675.5</ele><time>2026-04-25T08:57:58Z</time></trkpt><trkpt lat="44.71988767314374" lon="9.868188903066416"><ele>677.0</ele><time>2026-04-25T08:58:00Z</time></trkpt><trkpt lat="44.71987134936449" lon="9.868098756710546"><ele>678.5</ele><time>2026-04-25T08:58:02Z</time></trkpt><trkpt lat="44.71986046709837" lon="9.86799253348265"><ele>680.0</ele><time>2026-04-25T08:58:05Z</time></trkpt><trkpt lat="44.71984010232558" lon="9.867794858105464"><ele>681.5</ele><time>2026-04-25T08:58:07Z</time></trkpt><trkpt lat="44.71982823948069" lon="9.867681888629287"><ele>683.0</ele><time>2026-04-25T08:58:09Z</time></trkpt><trkpt lat="44.71981648208623" lon="9.867565359252069"><ele>684.5</ele><time>2026-04-25T08:58:11Z</time></trkpt><trkpt lat="44.71979880893711" lon="9.867447578111332"><ele>686.0</ele><time>2026-04-25T08:58:13Z</time></trkpt><trkpt lat="44.7197788689299" lon="9.867329496148766"><ele>687.5</ele><time>2026-04-25T08:58:15Z</time></trkpt><trkpt lat="44.719751973177374" lon="9.867212266733414"><ele>689.0</ele><time>2026-04-25T08:58:17Z</time></trkpt><trkpt lat="44.71972498672637" lon="9.867097608385489"><ele>690.5</ele><time>2026-04-25T08:58:19Z</time></trkpt><trkpt lat="44.71969863694286" lon="9.866988183607301"><ele>692.0</ele><time>2026-04-25T08:58:21Z</time></trkpt><trkpt lat="44.71967255775736" lon="9.866874127694711"><ele>692.6666666666666</ele><time>2026-04-25T08:58:23Z</time></trkpt><trkpt lat="44.71964936465911" lon="9.866758259876462"><ele>693.3333333333333</ele><time>2026-04-25T08:58:25Z</time></trkpt><trkpt lat="44.71963945395329" lon="9.866649761869413"><ele>694.0</ele><time>2026-04-25T08:58:27Z</time></trkpt><trkpt lat="44.71960786732628" lon="9.866520664859861"><ele>694.6666666666666</ele><time>2026-04-25T08:58:29Z</time></trkpt><trkpt lat="44.719586494523504" lon="9.866401553504904"><ele>695.3333333333334</ele><time>2026-04-25T08:58:31Z</time></trkpt><trkpt lat="44.719554883567206" lon="9.866287367490525"><ele>696.0</ele><time>2026-04-25T08:58:33Z</time></trkpt><trkpt lat="44.7195141688249" lon="9.866180651467536"><ele>696.0</ele><time>2026-04-25T08:58:34.999Z</time></trkpt><trkpt lat="44.71946593373652" lon="9.86607859959468"><ele>696.0</ele><time>2026-04-25T08:58:36.999Z</time></trkpt><trkpt lat="44.7194166843677" lon="9.865976825110518"><ele>696.0</ele><time>2026-04-25T08:58:38.999Z</time></trkpt><trkpt lat="44.719377725046904" lon="9.86585912090308"><ele>696.0</ele><time>2026-04-25T08:58:40.999Z</time></trkpt><trkpt lat="44.7193520554766" lon="9.865739772167311"><ele>696.0</ele><time>2026-04-25T08:58:42.999Z</time></trkpt><trkpt lat="44.71934058740559" lon="9.865615669334991"><ele>696.0</ele><time>2026-04-25T08:58:44.999Z</time></trkpt><trkpt lat="44.71933983017974" lon="9.865493438396777"><ele>695.5</ele><time>2026-04-25T08:58:46.999Z</time></trkpt><trkpt lat="44.71934244775205" lon="9.865394470952827"><ele>695.0</ele><time>2026-04-25T08:58:48.999Z</time></trkpt><trkpt lat="44.71936460531152" lon="9.865250872627632"><ele>694.5</ele><time>2026-04-25T08:58:50.999Z</time></trkpt><trkpt lat="44.71938859387553" lon="9.865132968559628"><ele>694.0</ele><time>2026-04-25T08:58:52.999Z</time></trkpt><trkpt lat="44.71941172956795" lon="9.865017804881798"><ele>693.5</ele><time>2026-04-25T08:58:54.999Z</time></trkpt><trkpt lat="44.71943224853232" lon="9.864904090256125"><ele>693.0</ele><time>2026-04-25T08:58:56.999Z</time></trkpt><trkpt lat="44.71945528276141" lon="9.864790827924633"><ele>693.0</ele><time>2026-04-25T08:58:58.999Z</time></trkpt><trkpt lat="44.719483928463845" lon="9.864668922006144"><ele>693.0</ele><time>2026-04-25T08:59:01.999Z</time></trkpt><trkpt lat="44.71950165142252" lon="9.864570293641675"><ele>693.0</ele><time>2026-04-25T08:59:03.999Z</time></trkpt><trkpt lat="44.71952821559925" lon="9.864436736701345"><ele>693.0</ele><time>2026-04-25T08:59:05.999Z</time></trkpt><trkpt lat="44.719545609155496" lon="9.864299847796023"><ele>693.0</ele><time>2026-04-25T08:59:07.999Z</time></trkpt><trkpt lat="44.719574279708" lon="9.864205933681404"><ele>693.0</ele><time>2026-04-25T08:59:09.999Z</time></trkpt><trkpt lat="44.719599201351805" lon="9.864097478728253"><ele>692.8</ele><time>2026-04-25T08:59:10.999Z</time></trkpt><trkpt lat="44.71961967894176" lon="9.863955680325878"><ele>692.5999999999999</ele><time>2026-04-25T08:59:12.999Z</time></trkpt><trkpt lat="44.71964474976019" lon="9.86383175818179"><ele>692.4000000000001</ele><time>2026-04-25T08:59:14.999Z</time></trkpt><trkpt lat="44.7196673937349" lon="9.863704461429387"><ele>692.2</ele><time>2026-04-25T08:59:16.999Z</time></trkpt><trkpt lat="44.71968838807687" lon="9.863572467035612"><ele>692.0</ele><time>2026-04-25T08:59:18.999Z</time></trkpt><trkpt lat="44.71971645413921" lon="9.86343091070999"><ele>692.0</ele><time>2026-04-25T08:59:20.999Z</time></trkpt><trkpt lat="44.719751083674105" lon="9.863284458671226"><ele>692.0</ele><time>2026-04-25T08:59:22.999Z</time></trkpt><trkpt lat="44.71978879886317" lon="9.863143279356835"><ele>692.0</ele><time>2026-04-25T08:59:24.999Z</time></trkpt><trkpt lat="44.719840548015945" lon="9.863014379293949"><ele>692.0</ele><time>2026-04-25T08:59:26.999Z</time></trkpt><trkpt lat="44.71990037469799" lon="9.86289614143863"><ele>692.0</ele><time>2026-04-25T08:59:28.998Z</time></trkpt><trkpt lat="44.71997013999833" lon="9.862810892312448"><ele>692.0</ele><time>2026-04-25T08:59:30.998Z</time></trkpt><trkpt lat="44.72003706789046" lon="9.862692994712324"><ele>692.0</ele><time>2026-04-25T08:59:32.998Z</time></trkpt><trkpt lat="44.720091853259675" lon="9.862568441478976"><ele>692.0</ele><time>2026-04-25T08:59:34.998Z</time></trkpt><trkpt lat="44.720153271019775" lon="9.86246675070942"><ele>692.0</ele><time>2026-04-25T08:59:36.998Z</time></trkpt><trkpt lat="44.72021702366387" lon="9.862358274996067"><ele>692.0</ele><time>2026-04-25T08:59:38.998Z</time></trkpt><trkpt lat="44.72027994937981" lon="9.862266944515929"><ele>691.75</ele><time>2026-04-25T08:59:40.998Z</time></trkpt><trkpt lat="44.72035718337357" lon="9.862130709334597"><ele>691.5</ele><time>2026-04-25T08:59:43.998Z</time></trkpt><trkpt lat="44.72046047257392" lon="9.861940880104676"><ele>691.25</ele><time>2026-04-25T08:59:46.998Z</time></trkpt><trkpt lat="44.720517790476286" lon="9.861843667255467"><ele>691.0</ele><time>2026-04-25T08:59:48.998Z</time></trkpt><trkpt lat="44.720574080901486" lon="9.861745896665791"><ele>692.1999999999999</ele><time>2026-04-25T08:59:50.998Z</time></trkpt><trkpt lat="44.72063482187749" lon="9.861649879608681"><ele>693.4</ele><time>2026-04-25T08:59:53Z</time></trkpt><trkpt lat="44.720693954648674" lon="9.861554710135882"><ele>694.6</ele><time>2026-04-25T08:59:55Z</time></trkpt><trkpt lat="44.7207518961174" lon="9.86145681407506"><ele>695.8</ele><time>2026-04-25T08:59:57Z</time></trkpt><trkpt lat="44.72081060506756" lon="9.86136011720134"><ele>697.0</ele><time>2026-04-25T08:59:59Z</time></trkpt><trkpt lat="44.7208673161973" lon="9.861260441313538"><ele>697.0</ele><time>2026-04-25T09:00:01Z</time></trkpt><trkpt lat="44.72092641785905" lon="9.861165049690715"><ele>697.0</ele><time>2026-04-25T09:00:03Z</time></trkpt><trkpt lat="44.72098224604366" lon="9.861070092293476"><ele>697.0</ele><time>2026-04-25T09:00:05Z</time></trkpt><trkpt lat="44.721042734793116" lon="9.860977346520082"><ele>697.0</ele><time>2026-04-25T09:00:07Z</time></trkpt><trkpt lat="44.721098251829716" lon="9.860885659275969"><ele>697.0</ele><time>2026-04-25T09:00:09Z</time></trkpt><trkpt lat="44.72115226111342" lon="9.860795185385241"><ele>697.0</ele><time>2026-04-25T09:00:11Z</time></trkpt><trkpt lat="44.72120726890065" lon="9.8607071420658"><ele>698.3333333333334</ele><time>2026-04-25T09:00:13Z</time></trkpt><trkpt lat="44.72126378353236" lon="9.8606189922685"><ele>699.6666666666667</ele><time>2026-04-25T09:00:15Z</time></trkpt><trkpt lat="44.721321905303824" lon="9.86054073198806"><ele>701.0</ele><time>2026-04-25T09:00:17Z</time></trkpt><trkpt lat="44.721388428358324" lon="9.860466334192024"><ele>702.3333333333334</ele><time>2026-04-25T09:00:19Z</time></trkpt><trkpt lat="44.72145286161065" lon="9.860389569560741"><ele>703.6666666666666</ele><time>2026-04-25T09:00:21Z</time></trkpt><trkpt lat="44.72153192755585" lon="9.860328429648202"><ele>705.0</ele><time>2026-04-25T09:00:23Z</time></trkpt><trkpt lat="44.72162697519565" lon="9.860277516222064"><ele>705.0</ele><time>2026-04-25T09:00:26Z</time></trkpt><trkpt lat="44.72170204852118" lon="9.86022634749472"><ele>705.0</ele><time>2026-04-25T09:00:28Z</time></trkpt><trkpt lat="44.72179430726947" lon="9.860162422749596"><ele>705.0</ele><time>2026-04-25T09:00:30Z</time></trkpt><trkpt lat="44.72184646028592" lon="9.860097917930364"><ele>705.0</ele><time>2026-04-25T09:00:31Z</time></trkpt><trkpt lat="44.72192011324514" lon="9.860025650157704"><ele>705.0</ele><time>2026-04-25T09:00:33Z</time></trkpt><trkpt lat="44.72199684128329" lon="9.859954601105823"><ele>705.0</ele><time>2026-04-25T09:00:35Z</time></trkpt><trkpt lat="44.72204720305223" lon="9.859848623119843"><ele>705.3333333333334</ele><time>2026-04-25T09:00:37Z</time></trkpt><trkpt lat="44.722074198731356" lon="9.859724736802745"><ele>705.6666666666666</ele><time>2026-04-25T09:00:38.999Z</time></trkpt><trkpt lat="44.722105469419056" lon="9.85961239323271"><ele>706.0</ele><time>2026-04-25T09:00:40.999Z</time></trkpt><trkpt lat="44.722135046758616" lon="9.859502013487631"><ele>706.3333333333333</ele><time>2026-04-25T09:00:42.999Z</time></trkpt><trkpt lat="44.72216280317058" lon="9.859387233698927"><ele>706.6666666666666</ele><time>2026-04-25T09:00:44.999Z</time></trkpt><trkpt lat="44.722197642830146" lon="9.859275362284631"><ele>707.0</ele><time>2026-04-25T09:00:46.999Z</time></trkpt><trkpt lat="44.72225132322641" lon="9.859177764555922"><ele>707.0</ele><time>2026-04-25T09:00:48.999Z</time></trkpt><trkpt lat="44.72229316720341" lon="9.859080070206216"><ele>707.0</ele><time>2026-04-25T09:00:50.999Z</time></trkpt><trkpt lat="44.72233656049497" lon="9.858960390556536"><ele>707.0</ele><time>2026-04-25T09:00:52.999Z</time></trkpt><trkpt lat="44.722389369533204" lon="9.85884907233828"><ele>707.0</ele><time>2026-04-25T09:00:54.999Z</time></trkpt><trkpt lat="44.72242659821531" lon="9.858728089205878"><ele>707.0</ele><time>2026-04-25T09:00:56.999Z</time></trkpt><trkpt lat="44.72245036068016" lon="9.858599413662663"><ele>707.0</ele><time>2026-04-25T09:00:58.999Z</time></trkpt><trkpt lat="44.72244748209056" lon="9.858462847221308"><ele>707.0</ele><time>2026-04-25T09:01:00.999Z</time></trkpt><trkpt lat="44.722439372543306" lon="9.85833238576004"><ele>707.0</ele><time>2026-04-25T09:01:02.999Z</time></trkpt><trkpt lat="44.72242938934702" lon="9.85819695904235"><ele>707.0</ele><time>2026-04-25T09:01:04.999Z</time></trkpt><trkpt lat="44.72242516138281" lon="9.858059544840502"><ele>707.0</ele><time>2026-04-25T09:01:06.999Z</time></trkpt><trkpt lat="44.722430036025166" lon="9.857921210868318"><ele>707.6666666666666</ele><time>2026-04-25T09:01:08.999Z</time></trkpt><trkpt lat="44.72245307753303" lon="9.857788133445979"><ele>708.3333333333333</ele><time>2026-04-25T09:01:10.999Z</time></trkpt><trkpt lat="44.722480307175616" lon="9.857678658600914"><ele>709.0</ele><time>2026-04-25T09:01:12.999Z</time></trkpt><trkpt lat="44.72250937598677" lon="9.857575885779712"><ele>709.6666666666666</ele><time>2026-04-25T09:01:14.999Z</time></trkpt><trkpt lat="44.72253369424001" lon="9.857481993368856"><ele>710.3333333333334</ele><time>2026-04-25T09:01:15.999Z</time></trkpt><trkpt lat="44.72256570655703" lon="9.857360441959019"><ele>711.0</ele><time>2026-04-25T09:01:17.999Z</time></trkpt><trkpt lat="44.72259802558171" lon="9.857242409764156"><ele>711.1666666666666</ele><time>2026-04-25T09:01:19.999Z</time></trkpt><trkpt lat="44.72262848231383" lon="9.857123153522325"><ele>711.3333333333334</ele><time>2026-04-25T09:01:21.999Z</time></trkpt><trkpt lat="44.72265701413911" lon="9.857006758868927"><ele>711.5</ele><time>2026-04-25T09:01:23.999Z</time></trkpt><trkpt lat="44.722696110031514" lon="9.856900685796948"><ele>711.6666666666667</ele><time>2026-04-25T09:01:25.999Z</time></trkpt><trkpt lat="44.722740463617725" lon="9.856794728497555"><ele>711.8333333333334</ele><time>2026-04-25T09:01:27.999Z</time></trkpt><trkpt lat="44.72278284107435" lon="9.856687100794817"><ele>712.0</ele><time>2026-04-25T09:01:29.999Z</time></trkpt><trkpt lat="44.7228250781067" lon="9.856589556192393"><ele>713.0</ele><time>2026-04-25T09:01:31.999Z</time></trkpt><trkpt lat="44.72286784196129" lon="9.856498493553591"><ele>714.0</ele><time>2026-04-25T09:01:33.998Z</time></trkpt><trkpt lat="44.72291996719651" lon="9.856404873072997"><ele>715.0</ele><time>2026-04-25T09:01:36.998Z</time></trkpt><trkpt lat="44.72295189790234" lon="9.85632354962917"><ele>716.0</ele><time>2026-04-25T09:01:37.998Z</time></trkpt><trkpt lat="44.722998637732566" lon="9.856240347736934"><ele>717.0</ele><time>2026-04-25T09:01:39.998Z</time></trkpt><trkpt lat="44.72304113503673" lon="9.856155381345788"><ele>718.0</ele><time>2026-04-25T09:01:41.998Z</time></trkpt><trkpt lat="44.72308246046912" lon="9.856070185189719"><ele>718.0</ele><time>2026-04-25T09:01:43.998Z</time></trkpt><trkpt lat="44.72312319965909" lon="9.85598636268732"><ele>718.0</ele><time>2026-04-25T09:01:45.998Z</time></trkpt><trkpt lat="44.723166369128734" lon="9.855905405972132"><ele>718.0</ele><time>2026-04-25T09:01:47.998Z</time></trkpt><trkpt lat="44.72320991113962" lon="9.855823982964194"><ele>718.0</ele><time>2026-04-25T09:01:49.998Z</time></trkpt><trkpt lat="44.723250754590474" lon="9.855739728967556"><ele>718.0</ele><time>2026-04-25T09:01:51.998Z</time></trkpt><trkpt lat="44.723295860452474" lon="9.855658217548006"><ele>718.0</ele><time>2026-04-25T09:01:53.998Z</time></trkpt><trkpt lat="44.72333853546751" lon="9.855572982915843"><ele>718.0</ele><time>2026-04-25T09:01:55.998Z</time></trkpt><trkpt lat="44.72338466474478" lon="9.855496628886383"><ele>719.0</ele><time>2026-04-25T09:01:58Z</time></trkpt><trkpt lat="44.72342667205709" lon="9.855426218903144"><ele>720.0</ele><time>2026-04-25T09:02:00Z</time></trkpt><trkpt lat="44.723470768552176" lon="9.855344430579274"><ele>721.0</ele><time>2026-04-25T09:02:02Z</time></trkpt><trkpt lat="44.72351066145549" lon="9.855265040908828"><ele>722.0</ele><time>2026-04-25T09:02:04Z</time></trkpt><trkpt lat="44.72355325823137" lon="9.855182280538573"><ele>723.0</ele><time>2026-04-25T09:02:06Z</time></trkpt><trkpt lat="44.72359419410623" lon="9.855100924793707"><ele>724.0</ele><time>2026-04-25T09:02:08Z</time></trkpt><trkpt lat="44.72363611673337" lon="9.85502146084314"><ele>725.0</ele><time>2026-04-25T09:02:10Z</time></trkpt><trkpt lat="44.723676459153005" lon="9.854935663401033"><ele>726.1428571428571</ele><time>2026-04-25T09:02:12Z</time></trkpt><trkpt lat="44.72371683034581" lon="9.854853150813224"><ele>727.2857142857143</ele><time>2026-04-25T09:02:14Z</time></trkpt><trkpt lat="44.723759409083335" lon="9.854768005402052"><ele>728.4285714285713</ele><time>2026-04-25T09:02:16Z</time></trkpt><trkpt lat="44.72381226796129" lon="9.854670018627605"><ele>729.5714285714286</ele><time>2026-04-25T09:02:19Z</time></trkpt><trkpt lat="44.72385121977821" lon="9.854588634423616"><ele>730.7142857142857</ele><time>2026-04-25T09:02:21Z</time></trkpt><trkpt lat="44.72389673796048" lon="9.854497950525516"><ele>731.8571428571428</ele><time>2026-04-25T09:02:22Z</time></trkpt><trkpt lat="44.723933052374" lon="9.854421713422234"><ele>733.0</ele><time>2026-04-25T09:02:25Z</time></trkpt><trkpt lat="44.72401132154141" lon="9.854225935704768"><ele>733.8333333333334</ele><time>2026-04-25T09:02:28Z</time></trkpt><trkpt lat="44.72404898615139" lon="9.854134539603345"><ele>734.6666666666667</ele><time>2026-04-25T09:02:30Z</time></trkpt><trkpt lat="44.72408671128803" lon="9.854041924356654"><ele>735.5</ele><time>2026-04-25T09:02:32Z</time></trkpt><trkpt lat="44.72412257121243" lon="9.853947582305189"><ele>736.3333333333334</ele><time>2026-04-25T09:02:34Z</time></trkpt><trkpt lat="44.724154141335774" lon="9.853848601836436"><ele>737.1666666666666</ele><time>2026-04-25T09:02:36Z</time></trkpt><trkpt lat="44.724189953840224" lon="9.85374619021312"><ele>738.0</ele><time>2026-04-25T09:02:38Z</time></trkpt><trkpt lat="44.72422222864931" lon="9.853641568786301"><ele>738.0</ele><time>2026-04-25T09:02:40Z</time></trkpt><trkpt lat="44.72425370028097" lon="9.853537534212853"><ele>738.0</ele><time>2026-04-25T09:02:42Z</time></trkpt><trkpt lat="44.72428176178879" lon="9.853445796740576"><ele>738.0</ele><time>2026-04-25T09:02:43.999Z</time></trkpt><trkpt lat="44.72431653397875" lon="9.853349077412924"><ele>738.0</ele><time>2026-04-25T09:02:45.999Z</time></trkpt><trkpt lat="44.72434306925882" lon="9.853250072794182"><ele>738.0</ele><time>2026-04-25T09:02:47.999Z</time></trkpt><trkpt lat="44.72438433272924" lon="9.853153967166973"><ele>738.0</ele><time>2026-04-25T09:02:49.999Z</time></trkpt><trkpt lat="44.72441994622453" lon="9.853043521218801"><ele>739.5</ele><time>2026-04-25T09:02:51.999Z</time></trkpt><trkpt lat="44.72444818949693" lon="9.852942546993194"><ele>741.0</ele><time>2026-04-25T09:02:53.999Z</time></trkpt><trkpt lat="44.724484675588556" lon="9.852834251761388"><ele>742.5</ele><time>2026-04-25T09:02:55.999Z</time></trkpt><trkpt lat="44.72452103710084" lon="9.85270547756603"><ele>744.0</ele><time>2026-04-25T09:02:57.999Z</time></trkpt><trkpt lat="44.72455270488416" lon="9.852597357242448"><ele>745.5</ele><time>2026-04-25T09:02:59.999Z</time></trkpt><trkpt lat="44.724585194582474" lon="9.852491668035256"><ele>747.0</ele><time>2026-04-25T09:03:01.999Z</time></trkpt><trkpt lat="44.72462092327896" lon="9.852386389499792"><ele>747.0</ele><time>2026-04-25T09:03:03.999Z</time></trkpt><trkpt lat="44.72465500077966" lon="9.852282191587713"><ele>747.0</ele><time>2026-04-25T09:03:05.999Z</time></trkpt><trkpt lat="44.724686682952054" lon="9.852168122854689"><ele>747.0</ele><time>2026-04-25T09:03:07.999Z</time></trkpt><trkpt lat="44.724722856297305" lon="9.852056911268532"><ele>747.0</ele><time>2026-04-25T09:03:09.999Z</time></trkpt><trkpt lat="44.72476247754556" lon="9.851949103710673"><ele>747.0</ele><time>2026-04-25T09:03:11.999Z</time></trkpt><trkpt lat="44.72480247881683" lon="9.851842868593964"><ele>747.0</ele><time>2026-04-25T09:03:13.999Z</time></trkpt><trkpt lat="44.72484285346391" lon="9.85174864101071"><ele>746.8333333333334</ele><time>2026-04-25T09:03:15.999Z</time></trkpt><trkpt lat="44.724879902440435" lon="9.851650139143235"><ele>746.6666666666666</ele><time>2026-04-25T09:03:17.999Z</time></trkpt><trkpt lat="44.72492785535561" lon="9.851539626833658"><ele>746.5</ele><time>2026-04-25T09:03:19.999Z</time></trkpt><trkpt lat="44.724972381805856" lon="9.851439244377161"><ele>746.3333333333333</ele><time>2026-04-25T09:03:21.999Z</time></trkpt><trkpt lat="44.72502278653192" lon="9.85133335908966"><ele>746.1666666666666</ele><time>2026-04-25T09:03:23.999Z</time></trkpt><trkpt lat="44.72507407820004" lon="9.851224918176815"><ele>746.0</ele><time>2026-04-25T09:03:25.999Z</time></trkpt><trkpt lat="44.72512413330448" lon="9.851100031895227"><ele>746.0</ele><time>2026-04-25T09:03:27.999Z</time></trkpt><trkpt lat="44.72518903179428" lon="9.850968337713564"><ele>746.0</ele><time>2026-04-25T09:03:29.999Z</time></trkpt><trkpt lat="44.7252522455038" lon="9.850830647174536"><ele>746.0</ele><time>2026-04-25T09:03:31.999Z</time></trkpt><trkpt lat="44.72531702047062" lon="9.850686152767237"><ele>746.0</ele><time>2026-04-25T09:03:33.999Z</time></trkpt><trkpt lat="44.72534535034591" lon="9.850605283383658"><ele>746.0</ele><time>2026-04-25T09:03:34.999Z</time></trkpt><trkpt lat="44.72537157939147" lon="9.850521224061675"><ele>746.0</ele><time>2026-04-25T09:03:35.999Z</time></trkpt><trkpt lat="44.72540070185706" lon="9.850433816741386"><ele>746.0</ele><time>2026-04-25T09:03:36.998Z</time></trkpt><trkpt lat="44.72542979202998" lon="9.85034327375286"><ele>746.0</ele><time>2026-04-25T09:03:37.998Z</time></trkpt><trkpt lat="44.725457199012155" lon="9.850247730176735"><ele>746.0</ele><time>2026-04-25T09:03:38.998Z</time></trkpt><trkpt lat="44.72548199164299" lon="9.850139841136892"><ele>746.0</ele><time>2026-04-25T09:03:39.998Z</time></trkpt><trkpt lat="44.72550008100291" lon="9.85002694200767"><ele>746.0</ele><time>2026-04-25T09:03:40.998Z</time></trkpt><trkpt lat="44.7255176891455" lon="9.849910957038759"><ele>744.6666666666666</ele><time>2026-04-25T09:03:41.998Z</time></trkpt><trkpt lat="44.725531494476684" lon="9.849791165469007"><ele>743.3333333333333</ele><time>2026-04-25T09:03:42.998Z</time></trkpt><trkpt lat="44.72554315479436" lon="9.849669232648296"><ele>742.0</ele><time>2026-04-25T09:03:43.998Z</time></trkpt><trkpt lat="44.725552201278056" lon="9.849543907742849"><ele>740.6666666666666</ele><time>2026-04-25T09:03:44.998Z</time></trkpt><trkpt lat="44.725559677987675" lon="9.849418321421073"><ele>739.3333333333334</ele><time>2026-04-25T09:03:45.998Z</time></trkpt><trkpt lat="44.72556959992849" lon="9.849291569253383"><ele>738.0</ele><time>2026-04-25T09:03:46.998Z</time></trkpt><trkpt lat="44.725581388609754" lon="9.849162597112114"><ele>737.0</ele><time>2026-04-25T09:03:47.998Z</time></trkpt><trkpt lat="44.72558852397341" lon="9.84903354286193"><ele>736.0</ele><time>2026-04-25T09:03:48.998Z</time></trkpt><trkpt lat="44.72559554188705" lon="9.848904357237885"><ele>735.0</ele><time>2026-04-25T09:03:49.998Z</time></trkpt><trkpt lat="44.72560701816563" lon="9.84877179983117"><ele>734.0</ele><time>2026-04-25T09:03:50.998Z</time></trkpt><trkpt lat="44.72561938265291" lon="9.848640453791479"><ele>733.0</ele><time>2026-04-25T09:03:51.998Z</time></trkpt><trkpt lat="44.72563303262964" lon="9.848509596984373"><ele>732.4</ele><time>2026-04-25T09:03:52.998Z</time></trkpt><trkpt lat="44.725650159202516" lon="9.848377777446087"><ele>731.8</ele><time>2026-04-25T09:03:53.998Z</time></trkpt><trkpt lat="44.725671835604814" lon="9.848248249257615"><ele>731.2</ele><time>2026-04-25T09:03:54.998Z</time></trkpt><trkpt lat="44.72569601232386" lon="9.848122217640473"><ele>730.6</ele><time>2026-04-25T09:03:55.998Z</time></trkpt><trkpt lat="44.72572529049866" lon="9.847997590804965"><ele>730.0</ele><time>2026-04-25T09:03:56.998Z</time></trkpt><trkpt lat="44.725758675118705" lon="9.847876205124644"><ele>730.0</ele><time>2026-04-25T09:03:57.998Z</time></trkpt><trkpt lat="44.725792823348094" lon="9.84775285093082"><ele>730.0</ele><time>2026-04-25T09:03:58.998Z</time></trkpt><trkpt lat="44.72582158705502" lon="9.847626326405107"><ele>730.0</ele><time>2026-04-25T09:03:59.998Z</time></trkpt><trkpt lat="44.725854600610035" lon="9.847501459786207"><ele>730.0</ele><time>2026-04-25T09:04:00.998Z</time></trkpt><trkpt lat="44.72589009123735" lon="9.847377150199058"><ele>730.0</ele><time>2026-04-25T09:04:01.998Z</time></trkpt><trkpt lat="44.72592510892894" lon="9.847249445921967"><ele>729.0</ele><time>2026-04-25T09:04:02.998Z</time></trkpt><trkpt lat="44.725960186150196" lon="9.84712078599687"><ele>728.0</ele><time>2026-04-25T09:04:04Z</time></trkpt><trkpt lat="44.725992416324424" lon="9.846989073544185"><ele>727.0</ele><time>2026-04-25T09:04:05Z</time></trkpt><trkpt lat="44.726023887830344" lon="9.846852190726795"><ele>726.0</ele><time>2026-04-25T09:04:06Z</time></trkpt><trkpt lat="44.72605141370169" lon="9.846717211559694"><ele>725.0</ele><time>2026-04-25T09:04:07Z</time></trkpt><trkpt lat="44.726073316791485" lon="9.846581458972596"><ele>724.2</ele><time>2026-04-25T09:04:08Z</time></trkpt><trkpt lat="44.7260869272073" lon="9.84644477749223"><ele>723.4</ele><time>2026-04-25T09:04:09Z</time></trkpt><trkpt lat="44.726093063317045" lon="9.846312200907793"><ele>722.5999999999999</ele><time>2026-04-25T09:04:10Z</time></trkpt><trkpt lat="44.7260980172611" lon="9.846181628293142"><ele>721.8</ele><time>2026-04-25T09:04:11Z</time></trkpt><trkpt lat="44.72609969054262" lon="9.846054824294253"><ele>721.0</ele><time>2026-04-25T09:04:12Z</time></trkpt><trkpt lat="44.7260975194342" lon="9.845929720441642"><ele>721.0</ele><time>2026-04-25T09:04:13Z</time></trkpt><trkpt lat="44.72608746146318" lon="9.84581129570817"><ele>721.0</ele><time>2026-04-25T09:04:14Z</time></trkpt><trkpt lat="44.72608437199838" lon="9.845691134447678"><ele>721.0</ele><time>2026-04-25T09:04:15Z</time></trkpt><trkpt lat="44.72604186313462" lon="9.845582166043304"><ele>721.0</ele><time>2026-04-25T09:04:16Z</time></trkpt><trkpt lat="44.7260204947817" lon="9.845469039089245"><ele>721.0</ele><time>2026-04-25T09:04:17Z</time></trkpt><trkpt lat="44.72596247569229" lon="9.84538562746305"><ele>721.0</ele><time>2026-04-25T09:04:18Z</time></trkpt><trkpt lat="44.72591749842581" lon="9.845293422205723"><ele>721.6666666666667</ele><time>2026-04-25T09:04:19Z</time></trkpt><trkpt lat="44.725873971652206" lon="9.845199369341518"><ele>722.3333333333334</ele><time>2026-04-25T09:04:20Z</time></trkpt><trkpt lat="44.72583862097004" lon="9.845101754587331"><ele>723.0</ele><time>2026-04-25T09:04:21Z</time></trkpt><trkpt lat="44.72581516195066" lon="9.844996453036082"><ele>723.6666666666666</ele><time>2026-04-25T09:04:22Z</time></trkpt><trkpt lat="44.72580419479619" lon="9.844884489677346"><ele>724.3333333333333</ele><time>2026-04-25T09:04:23Z</time></trkpt><trkpt lat="44.72580159560866" lon="9.844773461968929"><ele>725.0</ele><time>2026-04-25T09:04:24Z</time></trkpt><trkpt lat="44.72580129367159" lon="9.844661413733634"><ele>725.5</ele><time>2026-04-25T09:04:25Z</time></trkpt><trkpt lat="44.72580943607527" lon="9.84455249074063"><ele>726.0</ele><time>2026-04-25T09:04:26Z</time></trkpt><trkpt lat="44.725821612439944" lon="9.844445089416059"><ele>726.5</ele><time>2026-04-25T09:04:27Z</time></trkpt><trkpt lat="44.725832242783035" lon="9.844340370450412"><ele>727.0</ele><time>2026-04-25T09:04:28Z</time></trkpt><trkpt lat="44.72584224161655" lon="9.84423449843166"><ele>727.5</ele><time>2026-04-25T09:04:29Z</time></trkpt><trkpt lat="44.72585511911015" lon="9.84412874630197"><ele>728.0</ele><time>2026-04-25T09:04:30Z</time></trkpt><trkpt lat="44.72586912056761" lon="9.84402264061552"><ele>728.0</ele><time>2026-04-25T09:04:31Z</time></trkpt><trkpt lat="44.72588177363777" lon="9.843918024662894"><ele>728.0</ele><time>2026-04-25T09:04:32Z</time></trkpt><trkpt lat="44.72589228887281" lon="9.843809851225565"><ele>728.0</ele><time>2026-04-25T09:04:33Z</time></trkpt><trkpt lat="44.72589970521575" lon="9.843700761972645"><ele>728.0</ele><time>2026-04-25T09:04:34Z</time></trkpt><trkpt lat="44.725901163748674" lon="9.843590495022038"><ele>728.0</ele><time>2026-04-25T09:04:35Z</time></trkpt><trkpt lat="44.72589177733093" lon="9.843479196211439"><ele>728.0</ele><time>2026-04-25T09:04:36Z</time></trkpt><trkpt lat="44.725871292013615" lon="9.843369810248845"><ele>727.8333333333333</ele><time>2026-04-25T09:04:37Z</time></trkpt><trkpt lat="44.72583828555135" lon="9.843266108298298"><ele>727.6666666666666</ele><time>2026-04-25T09:04:38Z</time></trkpt><trkpt lat="44.72580232247017" lon="9.84316653149018"><ele>727.5</ele><time>2026-04-25T09:04:39Z</time></trkpt><trkpt lat="44.72576497984333" lon="9.843069246249344"><ele>727.3333333333334</ele><time>2026-04-25T09:04:40Z</time></trkpt><trkpt lat="44.72573094521742" lon="9.842967635698933"><ele>727.1666666666667</ele><time>2026-04-25T09:04:41Z</time></trkpt><trkpt lat="44.72569880502004" lon="9.84286340764404"><ele>727.0</ele><time>2026-04-25T09:04:42Z</time></trkpt><trkpt lat="44.725665073259144" lon="9.842760234652774"><ele>727.0</ele><time>2026-04-25T09:04:43Z</time></trkpt><trkpt lat="44.72563060465947" lon="9.842660163749322"><ele>727.0</ele><time>2026-04-25T09:04:44Z</time></trkpt><trkpt lat="44.72559573541453" lon="9.842557906537552"><ele>727.0</ele><time>2026-04-25T09:04:45Z</time></trkpt><trkpt lat="44.725561811025905" lon="9.84245533144742"><ele>727.0</ele><time>2026-04-25T09:04:45.999Z</time></trkpt><trkpt lat="44.7255286232863" lon="9.842354687750108"><ele>727.0</ele><time>2026-04-25T09:04:46.999Z</time></trkpt><trkpt lat="44.72549497434915" lon="9.842254962734938"><ele>727.0</ele><time>2026-04-25T09:04:47.999Z</time></trkpt><trkpt lat="44.725463306672246" lon="9.842152422084315"><ele>727.1666666666667</ele><time>2026-04-25T09:04:48.999Z</time></trkpt><trkpt lat="44.72543220979469" lon="9.842051473624187"><ele>727.3333333333334</ele><time>2026-04-25T09:04:49.999Z</time></trkpt><trkpt lat="44.72540086589232" lon="9.841951527560113"><ele>727.5</ele><time>2026-04-25T09:04:50.999Z</time></trkpt><trkpt lat="44.72536918726496" lon="9.841849239252996"><ele>727.6666666666666</ele><time>2026-04-25T09:04:51.999Z</time></trkpt><trkpt lat="44.7253373077393" lon="9.841745738624581"><ele>727.8333333333333</ele><time>2026-04-25T09:04:52.999Z</time></trkpt><trkpt lat="44.72530484207665" lon="9.84164368448471"><ele>728.0</ele><time>2026-04-25T09:04:53.999Z</time></trkpt><trkpt lat="44.725271418460096" lon="9.841539025592109"><ele>728.0</ele><time>2026-04-25T09:04:54.999Z</time></trkpt><trkpt lat="44.725236561737674" lon="9.841434798853493"><ele>728.0</ele><time>2026-04-25T09:04:55.999Z</time></trkpt><trkpt lat="44.72520757679174" lon="9.841329104516326"><ele>728.0</ele><time>2026-04-25T09:04:56.999Z</time></trkpt><trkpt lat="44.725187323566075" lon="9.841220033607174"><ele>728.0</ele><time>2026-04-25T09:04:57.999Z</time></trkpt><trkpt lat="44.72517883496045" lon="9.8411017233668"><ele>728.0</ele><time>2026-04-25T09:04:58.999Z</time></trkpt><trkpt lat="44.72518273458164" lon="9.840980808176237"><ele>728.0</ele><time>2026-04-25T09:04:59.999Z</time></trkpt><trkpt lat="44.7251980965074" lon="9.84085816943272"><ele>727.5</ele><time>2026-04-25T09:05:00.999Z</time></trkpt><trkpt lat="44.72521521754861" lon="9.840738464784575"><ele>727.0</ele><time>2026-04-25T09:05:01.999Z</time></trkpt><trkpt lat="44.7252324405527" lon="9.840620313668351"><ele>726.5</ele><time>2026-04-25T09:05:02.999Z</time></trkpt><trkpt lat="44.725246913824165" lon="9.840503747777488"><ele>726.0</ele><time>2026-04-25T09:05:03.999Z</time></trkpt><trkpt lat="44.725260589414184" lon="9.840382793540845"><ele>725.5</ele><time>2026-04-25T09:05:04.999Z</time></trkpt><trkpt lat="44.72527444168346" lon="9.840265304280797"><ele>725.0</ele><time>2026-04-25T09:05:05.999Z</time></trkpt><trkpt lat="44.72528686469287" lon="9.840144349469888"><ele>724.3333333333333</ele><time>2026-04-25T09:05:06.999Z</time></trkpt><trkpt lat="44.725295378653925" lon="9.840022233856011"><ele>723.6666666666666</ele><time>2026-04-25T09:05:07.999Z</time></trkpt><trkpt lat="44.725297289521535" lon="9.839901146594656"><ele>723.0</ele><time>2026-04-25T09:05:08.999Z</time></trkpt><trkpt lat="44.72529590938078" lon="9.839781101944638"><ele>722.3333333333334</ele><time>2026-04-25T09:05:09.999Z</time></trkpt><trkpt lat="44.72528531445437" lon="9.839658460959647"><ele>721.6666666666667</ele><time>2026-04-25T09:05:10.999Z</time></trkpt><trkpt lat="44.72526574185636" lon="9.839536351100767"><ele>721.0</ele><time>2026-04-25T09:05:11.999Z</time></trkpt><trkpt lat="44.72523347727803" lon="9.83941755018906"><ele>720.4</ele><time>2026-04-25T09:05:12.999Z</time></trkpt><trkpt lat="44.72520260332916" lon="9.839294724194508"><ele>719.8</ele><time>2026-04-25T09:05:13.999Z</time></trkpt><trkpt lat="44.725167130516525" lon="9.839171995718303"><ele>719.1999999999999</ele><time>2026-04-25T09:05:14.999Z</time></trkpt><trkpt lat="44.72513656370997" lon="9.839045194589158"><ele>718.5999999999999</ele><time>2026-04-25T09:05:15.999Z</time></trkpt><trkpt lat="44.72510959312868" lon="9.83890820435562"><ele>718.0</ele><time>2026-04-25T09:05:16.999Z</time></trkpt><trkpt lat="44.7250903774068" lon="9.838767703403743"><ele>718.0</ele><time>2026-04-25T09:05:17.999Z</time></trkpt><trkpt lat="44.72507608238777" lon="9.838621849572371"><ele>718.0</ele><time>2026-04-25T09:05:18.999Z</time></trkpt><trkpt lat="44.72506216329454" lon="9.8384749547202"><ele>718.0</ele><time>2026-04-25T09:05:19.999Z</time></trkpt><trkpt lat="44.725042745028865" lon="9.838334754987894"><ele>718.0</ele><time>2026-04-25T09:05:20.999Z</time></trkpt><trkpt lat="44.7250251766551" lon="9.838193759105534"><ele>718.0</ele><time>2026-04-25T09:05:21.999Z</time></trkpt><trkpt lat="44.7249895080381" lon="9.838054354937444"><ele>718.0</ele><time>2026-04-25T09:05:22.999Z</time></trkpt><trkpt lat="44.7249505189262" lon="9.83792776216186"><ele>718.0</ele><time>2026-04-25T09:05:23.999Z</time></trkpt><trkpt lat="44.7249137925697" lon="9.837799666984804"><ele>718.0</ele><time>2026-04-25T09:05:24.999Z</time></trkpt><trkpt lat="44.72487743842995" lon="9.83767811537694"><ele>718.0</ele><time>2026-04-25T09:05:25.999Z</time></trkpt><trkpt lat="44.72484403606588" lon="9.837559879700573"><ele>718.0</ele><time>2026-04-25T09:05:26.999Z</time></trkpt><trkpt lat="44.724807485548254" lon="9.837444993423881"><ele>718.0</ele><time>2026-04-25T09:05:27.999Z</time></trkpt><trkpt lat="44.724772883203926" lon="9.83733200268019"><ele>718.0</ele><time>2026-04-25T09:05:28.999Z</time></trkpt><trkpt lat="44.724740325113686" lon="9.83721875326789"><ele>718.0</ele><time>2026-04-25T09:05:29.999Z</time></trkpt><trkpt lat="44.72470640849395" lon="9.83710570536217"><ele>718.0</ele><time>2026-04-25T09:05:30.999Z</time></trkpt><trkpt lat="44.72467837622518" lon="9.836991602969263"><ele>718.0</ele><time>2026-04-25T09:05:31.999Z</time></trkpt><trkpt lat="44.7246468071156" lon="9.836876793438163"><ele>718.0</ele><time>2026-04-25T09:05:32.999Z</time></trkpt><trkpt lat="44.72462725030938" lon="9.83676238104798"><ele>718.0</ele><time>2026-04-25T09:05:33.999Z</time></trkpt><trkpt lat="44.72462588764906" lon="9.836640598585754"><ele>718.0</ele><time>2026-04-25T09:05:34.999Z</time></trkpt><trkpt lat="44.72464141610908" lon="9.836525595530556"><ele>718.0</ele><time>2026-04-25T09:05:35.999Z</time></trkpt><trkpt lat="44.72467713180143" lon="9.83641885684431"><ele>718.0</ele><time>2026-04-25T09:05:36.999Z</time></trkpt><trkpt lat="44.724727129422796" lon="9.836319956912181"><ele>718.0</ele><time>2026-04-25T09:05:37.999Z</time></trkpt><trkpt lat="44.72476911867765" lon="9.836215824386915"><ele>718.0</ele><time>2026-04-25T09:05:38.999Z</time></trkpt><trkpt lat="44.72480190689422" lon="9.836106749478118"><ele>718.0</ele><time>2026-04-25T09:05:39.998Z</time></trkpt><trkpt lat="44.72483000175712" lon="9.835990409681767"><ele>718.0</ele><time>2026-04-25T09:05:40.998Z</time></trkpt><trkpt lat="44.724851533502715" lon="9.835874593307876"><ele>718.0</ele><time>2026-04-25T09:05:41.998Z</time></trkpt><trkpt lat="44.72487031489898" lon="9.835755976562377"><ele>718.0</ele><time>2026-04-25T09:05:42.998Z</time></trkpt><trkpt lat="44.72488078530437" lon="9.835635025939784"><ele>718.0</ele><time>2026-04-25T09:05:43.998Z</time></trkpt><trkpt lat="44.7248802139902" lon="9.835510255166614"><ele>718.0</ele><time>2026-04-25T09:05:44.998Z</time></trkpt><trkpt lat="44.72486844274516" lon="9.835388032256473"><ele>717.5999999999999</ele><time>2026-04-25T09:05:45.998Z</time></trkpt><trkpt lat="44.724829334993686" lon="9.835273854378377"><ele>717.1999999999999</ele><time>2026-04-25T09:05:46.998Z</time></trkpt><trkpt lat="44.72476831981812" lon="9.835181086713291"><ele>716.8</ele><time>2026-04-25T09:05:47.998Z</time></trkpt><trkpt lat="44.724686104192266" lon="9.83511106890743"><ele>716.4</ele><time>2026-04-25T09:05:48.998Z</time></trkpt><trkpt lat="44.724601035701674" lon="9.835055857164345"><ele>716.0</ele><time>2026-04-25T09:05:49.998Z</time></trkpt><trkpt lat="44.72452144320487" lon="9.835009088268025"><ele>716.1666666666666</ele><time>2026-04-25T09:05:50.998Z</time></trkpt><trkpt lat="44.72444037075055" lon="9.834954807283335"><ele>716.3333333333333</ele><time>2026-04-25T09:05:51.998Z</time></trkpt><trkpt lat="44.72435827085702" lon="9.834905228105738"><ele>716.5</ele><time>2026-04-25T09:05:52.998Z</time></trkpt><trkpt lat="44.724274552994856" lon="9.834862634599734"><ele>716.6666666666666</ele><time>2026-04-25T09:05:53.998Z</time></trkpt><trkpt lat="44.72418685517967" lon="9.834830778305026"><ele>716.8333333333334</ele><time>2026-04-25T09:05:54.998Z</time></trkpt><trkpt lat="44.72409837437336" lon="9.834813742018035"><ele>717.0</ele><time>2026-04-25T09:05:55.998Z</time></trkpt><trkpt lat="44.72401283088479" lon="9.83479747344303"><ele>717.0</ele><time>2026-04-25T09:05:56.998Z</time></trkpt><trkpt lat="44.72393220525937" lon="9.834752322591227"><ele>717.0</ele><time>2026-04-25T09:05:57.998Z</time></trkpt><trkpt lat="44.723877653886284" lon="9.83464981585764"><ele>717.0</ele><time>2026-04-25T09:05:58.998Z</time></trkpt><trkpt lat="44.72386162729886" lon="9.834514025324395"><ele>717.0</ele><time>2026-04-25T09:05:59.998Z</time></trkpt><trkpt lat="44.7238753331429" lon="9.834375240277792"><ele>717.0</ele><time>2026-04-25T09:06:00.998Z</time></trkpt><trkpt lat="44.72392511660646" lon="9.834255715748167"><ele>717.6</ele><time>2026-04-25T09:06:01.998Z</time></trkpt><trkpt lat="44.72395374421201" lon="9.834126350560993"><ele>718.2</ele><time>2026-04-25T09:06:02.998Z</time></trkpt><trkpt lat="44.724001302127384" lon="9.834009891452116"><ele>718.8</ele><time>2026-04-25T09:06:03.998Z</time></trkpt><trkpt lat="44.72404528856103" lon="9.833897744243968"><ele>719.4</ele><time>2026-04-25T09:06:04.998Z</time></trkpt><trkpt lat="44.72408926036108" lon="9.83378846959641"><ele>720.0</ele><time>2026-04-25T09:06:05.998Z</time></trkpt><trkpt lat="44.724129281138715" lon="9.83367597819448"><ele>720.0</ele><time>2026-04-25T09:06:06.998Z</time></trkpt><trkpt lat="44.7241595958532" lon="9.833556691063697"><ele>720.0</ele><time>2026-04-25T09:06:07.998Z</time></trkpt><trkpt lat="44.72417514572061" lon="9.833430752772943"><ele>720.0</ele><time>2026-04-25T09:06:09Z</time></trkpt><trkpt lat="44.72418757897845" lon="9.833310043903792"><ele>720.0</ele><time>2026-04-25T09:06:10Z</time></trkpt><trkpt lat="44.72419190363606" lon="9.833186691894966"><ele>720.0</ele><time>2026-04-25T09:06:11Z</time></trkpt><trkpt lat="44.7241919929837" lon="9.833066364020208"><ele>720.0</ele><time>2026-04-25T09:06:12Z</time></trkpt><trkpt lat="44.72418626768897" lon="9.832952252117959"><ele>719.3333333333334</ele><time>2026-04-25T09:06:13Z</time></trkpt><trkpt lat="44.72417765499444" lon="9.83283143002603"><ele>718.6666666666666</ele><time>2026-04-25T09:06:14Z</time></trkpt><trkpt lat="44.72417062791344" lon="9.83271679739717"><ele>718.0</ele><time>2026-04-25T09:06:15Z</time></trkpt><trkpt lat="44.7241671049674" lon="9.83260285386515"><ele>717.3333333333333</ele><time>2026-04-25T09:06:16Z</time></trkpt><trkpt lat="44.72417185056219" lon="9.832484208705067"><ele>716.6666666666666</ele><time>2026-04-25T09:06:17Z</time></trkpt><trkpt lat="44.724181484337755" lon="9.832366570710844"><ele>716.0</ele><time>2026-04-25T09:06:18Z</time></trkpt><trkpt lat="44.7241987584259" lon="9.832248280816176"><ele>715.3333333333333</ele><time>2026-04-25T09:06:19Z</time></trkpt><trkpt lat="44.72422320277521" lon="9.832129793025922"><ele>714.6666666666666</ele><time>2026-04-25T09:06:20Z</time></trkpt><trkpt lat="44.72425955676804" lon="9.832016044408991"><ele>714.0</ele><time>2026-04-25T09:06:21Z</time></trkpt><trkpt lat="44.724308096036474" lon="9.831915366154245"><ele>713.3333333333334</ele><time>2026-04-25T09:06:22Z</time></trkpt><trkpt lat="44.724369181799545" lon="9.831824478211013"><ele>712.6666666666667</ele><time>2026-04-25T09:06:23Z</time></trkpt><trkpt lat="44.724436431563575" lon="9.831739527356545"><ele>712.0</ele><time>2026-04-25T09:06:24Z</time></trkpt><trkpt lat="44.72450437263316" lon="9.831655971223865"><ele>711.2</ele><time>2026-04-25T09:06:25Z</time></trkpt><trkpt lat="44.72457503191361" lon="9.83157080984545"><ele>710.4000000000001</ele><time>2026-04-25T09:06:26Z</time></trkpt><trkpt lat="44.72463800356718" lon="9.831480921063838"><ele>709.5999999999999</ele><time>2026-04-25T09:06:27Z</time></trkpt><trkpt lat="44.72469947451044" lon="9.831380207431147"><ele>708.8</ele><time>2026-04-25T09:06:28Z</time></trkpt><trkpt lat="44.72475063720562" lon="9.831271186164672"><ele>708.0</ele><time>2026-04-25T09:06:29Z</time></trkpt><trkpt lat="44.724794411572404" lon="9.831153588802328"><ele>708.0</ele><time>2026-04-25T09:06:30Z</time></trkpt><trkpt lat="44.724825530103544" lon="9.831028091234744"><ele>708.0</ele><time>2026-04-25T09:06:31Z</time></trkpt><trkpt lat="44.72484820366807" lon="9.830895612360456"><ele>708.0</ele><time>2026-04-25T09:06:32Z</time></trkpt><trkpt lat="44.724854207544745" lon="9.830756615739267"><ele>708.0</ele><time>2026-04-25T09:06:33Z</time></trkpt><trkpt lat="44.72485730124261" lon="9.830621679298664"><ele>708.0</ele><time>2026-04-25T09:06:34Z</time></trkpt><trkpt lat="44.724848934415014" lon="9.830487271203582"><ele>708.0</ele><time>2026-04-25T09:06:35Z</time></trkpt><trkpt lat="44.724830218358775" lon="9.830350021982154"><ele>708.0</ele><time>2026-04-25T09:06:36Z</time></trkpt><trkpt lat="44.72480876900288" lon="9.830212446234807"><ele>708.0</ele><time>2026-04-25T09:06:37Z</time></trkpt><trkpt lat="44.72478719260193" lon="9.83007439509927"><ele>708.0</ele><time>2026-04-25T09:06:38Z</time></trkpt><trkpt lat="44.72476814268761" lon="9.829938493601272"><ele>708.0</ele><time>2026-04-25T09:06:39Z</time></trkpt><trkpt lat="44.72474751383206" lon="9.829803950489778"><ele>708.0</ele><time>2026-04-25T09:06:40Z</time></trkpt><trkpt lat="44.724725178565535" lon="9.829669947930325"><ele>708.0</ele><time>2026-04-25T09:06:41Z</time></trkpt><trkpt lat="44.72470390967847" lon="9.829536305823071"><ele>708.0</ele><time>2026-04-25T09:06:42Z</time></trkpt><trkpt lat="44.72468216937024" lon="9.829403696869893"><ele>708.0</ele><time>2026-04-25T09:06:43Z</time></trkpt><trkpt lat="44.72465901516354" lon="9.829276041681396"><ele>708.0</ele><time>2026-04-25T09:06:44Z</time></trkpt><trkpt lat="44.72463553538936" lon="9.829149555071819"><ele>707.5999999999999</ele><time>2026-04-25T09:06:45Z</time></trkpt><trkpt lat="44.7246118553126" lon="9.829020606587285"><ele>707.1999999999999</ele><time>2026-04-25T09:06:46Z</time></trkpt><trkpt lat="44.72458758912671" lon="9.828896094870515"><ele>706.8</ele><time>2026-04-25T09:06:47Z</time></trkpt><trkpt lat="44.72455889945288" lon="9.828775988921349"><ele>706.4</ele><time>2026-04-25T09:06:48Z</time></trkpt><trkpt lat="44.72453256480764" lon="9.828656745679416"><ele>706.0</ele><time>2026-04-25T09:06:48.999Z</time></trkpt><trkpt lat="44.72450840452023" lon="9.828541257763277"><ele>706.0</ele><time>2026-04-25T09:06:49.999Z</time></trkpt><trkpt lat="44.7244840826874" lon="9.828428064876984"><ele>706.0</ele><time>2026-04-25T09:06:50.999Z</time></trkpt><trkpt lat="44.724457904182756" lon="9.828316718167468"><ele>706.0</ele><time>2026-04-25T09:06:51.999Z</time></trkpt><trkpt lat="44.72443125075978" lon="9.828210810574689"><ele>706.0</ele><time>2026-04-25T09:06:52.999Z</time></trkpt><trkpt lat="44.72440464499068" lon="9.828110062484749"><ele>706.0</ele><time>2026-04-25T09:06:53.999Z</time></trkpt><trkpt lat="44.724374531809545" lon="9.828012623343685"><ele>706.0</ele><time>2026-04-25T09:06:54.999Z</time></trkpt><trkpt lat="44.72434433808611" lon="9.827917253954183"><ele>705.4285714285714</ele><time>2026-04-25T09:06:55.999Z</time></trkpt><trkpt lat="44.72431438519339" lon="9.827824180385305"><ele>704.8571428571429</ele><time>2026-04-25T09:06:56.999Z</time></trkpt><trkpt lat="44.72428699419464" lon="9.82773568416827"><ele>704.2857142857143</ele><time>2026-04-25T09:06:57.999Z</time></trkpt><trkpt lat="44.724264238484665" lon="9.827642401164574"><ele>703.7142857142858</ele><time>2026-04-25T09:06:58.999Z</time></trkpt><trkpt lat="44.72424281369331" lon="9.827548343603134"><ele>703.1428571428571</ele><time>2026-04-25T09:06:59.999Z</time></trkpt><trkpt lat="44.72422413254792" lon="9.82745282583107"><ele>702.5714285714287</ele><time>2026-04-25T09:07:00.999Z</time></trkpt><trkpt lat="44.724205938469986" lon="9.827352968209222"><ele>702.0</ele><time>2026-04-25T09:07:01.999Z</time></trkpt><trkpt lat="44.72418628737984" lon="9.827254181342475"><ele>703.5</ele><time>2026-04-25T09:07:02.999Z</time></trkpt><trkpt lat="44.72415350714113" lon="9.827156719465439"><ele>705.0</ele><time>2026-04-25T09:07:03.999Z</time></trkpt><trkpt lat="44.724106046681385" lon="9.82706868688086"><ele>706.5</ele><time>2026-04-25T09:07:04.999Z</time></trkpt><trkpt lat="44.72405035230375" lon="9.826989737680805"><ele>708.0</ele><time>2026-04-25T09:07:05.999Z</time></trkpt><trkpt lat="44.72398476569527" lon="9.826926562681702"><ele>709.5</ele><time>2026-04-25T09:07:06.999Z</time></trkpt><trkpt lat="44.72391351550404" lon="9.826880573939574"><ele>711.0</ele><time>2026-04-25T09:07:07.999Z</time></trkpt><trkpt lat="44.723839725663076" lon="9.826841266995391"><ele>711.6666666666666</ele><time>2026-04-25T09:07:08.999Z</time></trkpt><trkpt lat="44.72376621542294" lon="9.826803644717039"><ele>712.3333333333334</ele><time>2026-04-25T09:07:09.999Z</time></trkpt><trkpt lat="44.72369532062868" lon="9.826765604455682"><ele>713.0</ele><time>2026-04-25T09:07:10.999Z</time></trkpt><trkpt lat="44.72361848113876" lon="9.826734873360902"><ele>713.6666666666667</ele><time>2026-04-25T09:07:11.999Z</time></trkpt><trkpt lat="44.723541420716934" lon="9.826706835899623"><ele>714.3333333333334</ele><time>2026-04-25T09:07:12.999Z</time></trkpt><trkpt lat="44.72346485110626" lon="9.826674064471627"><ele>715.0</ele><time>2026-04-25T09:07:13.999Z</time></trkpt><trkpt lat="44.723389387875976" lon="9.826639937051269"><ele>715.0</ele><time>2026-04-25T09:07:14.999Z</time></trkpt><trkpt lat="44.72331748775262" lon="9.826605166629435"><ele>715.0</ele><time>2026-04-25T09:07:15.999Z</time></trkpt><trkpt lat="44.723248526951075" lon="9.826572850671832"><ele>715.0</ele><time>2026-04-25T09:07:16.999Z</time></trkpt><trkpt lat="44.72318472325504" lon="9.826541329033368"><ele>715.0</ele><time>2026-04-25T09:07:17.999Z</time></trkpt><trkpt lat="44.72306752144377" lon="9.826477595971275"><ele>715.0</ele><time>2026-04-25T09:07:19.999Z</time></trkpt><trkpt lat="44.72296074142863" lon="9.826387954649002"><ele>715.0</ele><time>2026-04-25T09:07:21.999Z</time></trkpt><trkpt lat="44.722924319434746" lon="9.826314457241056"><ele>715.0</ele><time>2026-04-25T09:07:22.999Z</time></trkpt><trkpt lat="44.72290499135439" lon="9.826229834372516"><ele>715.0</ele><time>2026-04-25T09:07:23.999Z</time></trkpt><trkpt lat="44.7229010352677" lon="9.826140610659017"><ele>715.0</ele><time>2026-04-25T09:07:24.999Z</time></trkpt><trkpt lat="44.72291132208635" lon="9.826046771068082"><ele>715.0</ele><time>2026-04-25T09:07:25.999Z</time></trkpt><trkpt lat="44.72292640793457" lon="9.825957981996384"><ele>715.0</ele><time>2026-04-25T09:07:26.999Z</time></trkpt><trkpt lat="44.72294769046736" lon="9.82587428736916"><ele>715.0</ele><time>2026-04-25T09:07:27.999Z</time></trkpt><trkpt lat="44.722980546225706" lon="9.825795133067476"><ele>715.5714285714286</ele><time>2026-04-25T09:07:28.999Z</time></trkpt><trkpt lat="44.72302153218322" lon="9.825722976934296"><ele>716.1428571428571</ele><time>2026-04-25T09:07:29.999Z</time></trkpt><trkpt lat="44.72306879365456" lon="9.825657810113347"><ele>716.7142857142857</ele><time>2026-04-25T09:07:30.999Z</time></trkpt><trkpt lat="44.72312034905988" lon="9.82559875692321"><ele>717.2857142857142</ele><time>2026-04-25T09:07:31.999Z</time></trkpt><trkpt lat="44.72317195901752" lon="9.825541128487876"><ele>717.8571428571429</ele><time>2026-04-25T09:07:32.999Z</time></trkpt><trkpt lat="44.72322544682896" lon="9.825483898210916"><ele>718.4285714285713</ele><time>2026-04-25T09:07:33.999Z</time></trkpt><trkpt lat="44.72327720403773" lon="9.825428544113638"><ele>719.0</ele><time>2026-04-25T09:07:34.999Z</time></trkpt><trkpt lat="44.723329859749036" lon="9.825370067756495"><ele>718.9999999999999</ele><time>2026-04-25T09:07:35.999Z</time></trkpt><trkpt lat="44.72338000012437" lon="9.825309504589237"><ele>719.0</ele><time>2026-04-25T09:07:36.999Z</time></trkpt><trkpt lat="44.72342907025045" lon="9.82524400252992"><ele>719.0</ele><time>2026-04-25T09:07:37.999Z</time></trkpt><trkpt lat="44.72347428972186" lon="9.825176245294886"><ele>719.0</ele><time>2026-04-25T09:07:38.999Z</time></trkpt><trkpt lat="44.723520167381224" lon="9.82510688137865"><ele>719.0</ele><time>2026-04-25T09:07:39.999Z</time></trkpt><trkpt lat="44.72356501125482" lon="9.82503887059775"><ele>718.9999999999999</ele><time>2026-04-25T09:07:40.999Z</time></trkpt><trkpt lat="44.72360877556696" lon="9.824967381280745"><ele>719.0</ele><time>2026-04-25T09:07:41.999Z</time></trkpt><trkpt lat="44.72364939778514" lon="9.824897283696648"><ele>719.1428571428571</ele><time>2026-04-25T09:07:42.998Z</time></trkpt><trkpt lat="44.72368918320054" lon="9.824825013146805"><ele>719.2857142857142</ele><time>2026-04-25T09:07:43.998Z</time></trkpt><trkpt lat="44.72373002443615" lon="9.824751327426053"><ele>719.4285714285713</ele><time>2026-04-25T09:07:44.998Z</time></trkpt><trkpt lat="44.723768242561114" lon="9.82467647144107"><ele>719.5714285714286</ele><time>2026-04-25T09:07:45.998Z</time></trkpt><trkpt lat="44.723806486479404" lon="9.824602227862721"><ele>719.7142857142858</ele><time>2026-04-25T09:07:46.998Z</time></trkpt><trkpt lat="44.723843292466604" lon="9.824528410194104"><ele>719.8571428571428</ele><time>2026-04-25T09:07:47.998Z</time></trkpt><trkpt lat="44.723881624779686" lon="9.82445603436164"><ele>720.0</ele><time>2026-04-25T09:07:48.998Z</time></trkpt><trkpt lat="44.72392175017214" lon="9.824384773045907"><ele>720.0</ele><time>2026-04-25T09:07:49.998Z</time></trkpt><trkpt lat="44.72396180878086" lon="9.824314333784242"><ele>720.0</ele><time>2026-04-25T09:07:50.998Z</time></trkpt><trkpt lat="44.72400124479349" lon="9.824241394067448"><ele>720.0</ele><time>2026-04-25T09:07:51.998Z</time></trkpt><trkpt lat="44.72403963416827" lon="9.8241684289366"><ele>720.0</ele><time>2026-04-25T09:07:52.998Z</time></trkpt><trkpt lat="44.72407700516373" lon="9.82409361653261"><ele>720.0</ele><time>2026-04-25T09:07:53.998Z</time></trkpt><trkpt lat="44.72411326222753" lon="9.82402017111131"><ele>720.0</ele><time>2026-04-25T09:07:54.998Z</time></trkpt><trkpt lat="44.724151825374165" lon="9.82394688648685"><ele>720.0</ele><time>2026-04-25T09:07:55.998Z</time></trkpt><trkpt lat="44.72418922152912" lon="9.823873482360852"><ele>719.4285714285714</ele><time>2026-04-25T09:07:56.998Z</time></trkpt><trkpt lat="44.72422574321322" lon="9.823799436345645"><ele>718.8571428571429</ele><time>2026-04-25T09:07:57.998Z</time></trkpt><trkpt lat="44.724300551449595" lon="9.823657847819538"><ele>718.2857142857143</ele><time>2026-04-25T09:07:59.998Z</time></trkpt><trkpt lat="44.72434111736558" lon="9.823586927039493"><ele>717.7142857142858</ele><time>2026-04-25T09:08:00.998Z</time></trkpt><trkpt lat="44.72438011389747" lon="9.823515553365208"><ele>717.1428571428571</ele><time>2026-04-25T09:08:01.998Z</time></trkpt><trkpt lat="44.72441951542103" lon="9.82344425225231"><ele>716.5714285714287</ele><time>2026-04-25T09:08:02.998Z</time></trkpt><trkpt lat="44.72446053379302" lon="9.823373053287991"><ele>716.0</ele><time>2026-04-25T09:08:03.998Z</time></trkpt><trkpt lat="44.72450541941246" lon="9.823305987419925"><ele>715.5714285714287</ele><time>2026-04-25T09:08:04.998Z</time></trkpt><trkpt lat="44.72455224989662" lon="9.823236654620981"><ele>715.1428571428571</ele><time>2026-04-25T09:08:05.998Z</time></trkpt><trkpt lat="44.7246022549079" lon="9.823169773291726"><ele>714.7142857142858</ele><time>2026-04-25T09:08:06.998Z</time></trkpt><trkpt lat="44.72465387579993" lon="9.823105428020689"><ele>714.2857142857143</ele><time>2026-04-25T09:08:07.998Z</time></trkpt><trkpt lat="44.72470516388244" lon="9.823039680669662"><ele>713.8571428571429</ele><time>2026-04-25T09:08:08.998Z</time></trkpt><trkpt lat="44.724755175307855" lon="9.822971451750494"><ele>713.4285714285714</ele><time>2026-04-25T09:08:09.998Z</time></trkpt><trkpt lat="44.72480248376158" lon="9.822903659101755"><ele>713.0</ele><time>2026-04-25T09:08:10.998Z</time></trkpt><trkpt lat="44.72484952118588" lon="9.822831058721208"><ele>713.0</ele><time>2026-04-25T09:08:11.998Z</time></trkpt><trkpt lat="44.724895569860266" lon="9.822754891409142"><ele>713.0</ele><time>2026-04-25T09:08:12.998Z</time></trkpt><trkpt lat="44.7249380775548" lon="9.822677833329138"><ele>713.0</ele><time>2026-04-25T09:08:14Z</time></trkpt><trkpt lat="44.7249811101016" lon="9.822599094257065"><ele>713.0</ele><time>2026-04-25T09:08:15Z</time></trkpt><trkpt lat="44.72502466437125" lon="9.82252074512287"><ele>713.0</ele><time>2026-04-25T09:08:16Z</time></trkpt><trkpt lat="44.72506834755834" lon="9.822442137441188"><ele>713.0</ele><time>2026-04-25T09:08:17Z</time></trkpt><trkpt lat="44.72511056293214" lon="9.822364033673376"><ele>713.0</ele><time>2026-04-25T09:08:18Z</time></trkpt><trkpt lat="44.725149584259576" lon="9.822282856686968"><ele>713.1428571428571</ele><time>2026-04-25T09:08:19Z</time></trkpt><trkpt lat="44.725181139663945" lon="9.822197707734036"><ele>713.2857142857143</ele><time>2026-04-25T09:08:20Z</time></trkpt><trkpt lat="44.72520101263608" lon="9.822107623947241"><ele>713.4285714285714</ele><time>2026-04-25T09:08:21Z</time></trkpt><trkpt lat="44.72520587017645" lon="9.822010197191815"><ele>713.5714285714286</ele><time>2026-04-25T09:08:22Z</time></trkpt><trkpt lat="44.72519047811936" lon="9.821914263315906"><ele>713.7142857142858</ele><time>2026-04-25T09:08:23Z</time></trkpt><trkpt lat="44.72515726406293" lon="9.821827809138329"><ele>713.8571428571429</ele><time>2026-04-25T09:08:24Z</time></trkpt><trkpt lat="44.725134435734226" lon="9.82173804859626"><ele>714.0</ele><time>2026-04-25T09:08:25Z</time></trkpt><trkpt lat="44.72507164269836" lon="9.82167906358139"><ele>714.1428571428571</ele><time>2026-04-25T09:08:26Z</time></trkpt><trkpt lat="44.725025877309704" lon="9.821608293511702"><ele>714.2857142857142</ele><time>2026-04-25T09:08:27Z</time></trkpt><trkpt lat="44.72498635729815" lon="9.82153478941626"><ele>714.4285714285714</ele><time>2026-04-25T09:08:28Z</time></trkpt><trkpt lat="44.724945690611705" lon="9.821456105935766"><ele>714.5714285714286</ele><time>2026-04-25T09:08:29Z</time></trkpt><trkpt lat="44.72490544046426" lon="9.821377899013884"><ele>714.7142857142857</ele><time>2026-04-25T09:08:30Z</time></trkpt><trkpt lat="44.72487473715964" lon="9.82129295711979"><ele>714.8571428571429</ele><time>2026-04-25T09:08:31Z</time></trkpt><trkpt lat="44.72485416309636" lon="9.821201219249247"><ele>715.0</ele><time>2026-04-25T09:08:32Z</time></trkpt><trkpt lat="44.72484610558809" lon="9.821104079317927"><ele>715.0</ele><time>2026-04-25T09:08:33Z</time></trkpt><trkpt lat="44.72484508089296" lon="9.82100641837114"><ele>715.0</ele><time>2026-04-25T09:08:34Z</time></trkpt><trkpt lat="44.72485377463278" lon="9.820908834631805"><ele>715.0</ele><time>2026-04-25T09:08:35Z</time></trkpt><trkpt lat="44.72486458177036" lon="9.820808782200295"><ele>715.0</ele><time>2026-04-25T09:08:36Z</time></trkpt><trkpt lat="44.72487330880289" lon="9.820708900917017"><ele>715.0</ele><time>2026-04-25T09:08:37Z</time></trkpt><trkpt lat="44.724880967292464" lon="9.820605257534199"><ele>715.0</ele><time>2026-04-25T09:08:38Z</time></trkpt><trkpt lat="44.72488621371537" lon="9.82050279571582"><ele>715.0</ele><time>2026-04-25T09:08:39Z</time></trkpt><trkpt lat="44.724891311543566" lon="9.820400822177538"><ele>715.0</ele><time>2026-04-25T09:08:40Z</time></trkpt><trkpt lat="44.72490113271474" lon="9.820294107383567"><ele>715.0</ele><time>2026-04-25T09:08:41Z</time></trkpt><trkpt lat="44.7249083118384" lon="9.820186273796057"><ele>715.0</ele><time>2026-04-25T09:08:42Z</time></trkpt><trkpt lat="44.72491640996342" lon="9.820080341966602"><ele>715.0</ele><time>2026-04-25T09:08:43Z</time></trkpt><trkpt lat="44.724924876433406" lon="9.819975064430876"><ele>715.0</ele><time>2026-04-25T09:08:44Z</time></trkpt><trkpt lat="44.72494068873873" lon="9.819870921022188"><ele>715.0</ele><time>2026-04-25T09:08:45Z</time></trkpt><trkpt lat="44.72496771957011" lon="9.819770030219"><ele>715.0</ele><time>2026-04-25T09:08:46Z</time></trkpt><trkpt lat="44.72500391974896" lon="9.81967135174501"><ele>715.0</ele><time>2026-04-25T09:08:47Z</time></trkpt><trkpt lat="44.725048676836565" lon="9.81958264374645"><ele>715.0</ele><time>2026-04-25T09:08:48Z</time></trkpt><trkpt lat="44.72509710903277" lon="9.819499799736827"><ele>715.0</ele><time>2026-04-25T09:08:49Z</time></trkpt><trkpt lat="44.72514742538309" lon="9.819422914491579"><ele>715.0</ele><time>2026-04-25T09:08:50Z</time></trkpt><trkpt lat="44.72519973947461" lon="9.81934892776986"><ele>715.0</ele><time>2026-04-25T09:08:51Z</time></trkpt><trkpt lat="44.72525173068472" lon="9.819276394765192"><ele>714.7142857142858</ele><time>2026-04-25T09:08:52Z</time></trkpt><trkpt lat="44.72530439266684" lon="9.819208306121924"><ele>714.4285714285713</ele><time>2026-04-25T09:08:53Z</time></trkpt><trkpt lat="44.72535841051898" lon="9.819146522968152"><ele>714.1428571428571</ele><time>2026-04-25T09:08:54Z</time></trkpt><trkpt lat="44.72541390049019" lon="9.819086708547388"><ele>713.8571428571429</ele><time>2026-04-25T09:08:54.999Z</time></trkpt><trkpt lat="44.72546680026031" lon="9.819028037592963"><ele>713.5714285714287</ele><time>2026-04-25T09:08:55.999Z</time></trkpt><trkpt lat="44.72551410911642" lon="9.818962256938379"><ele>713.2857142857142</ele><time>2026-04-25T09:08:56.999Z</time></trkpt><trkpt lat="44.72555768051206" lon="9.818892858001089"><ele>713.0</ele><time>2026-04-25T09:08:57.999Z</time></trkpt><trkpt lat="44.725597679401275" lon="9.818821187273457"><ele>713.0</ele><time>2026-04-25T09:08:58.999Z</time></trkpt><trkpt lat="44.72562944411248" lon="9.81874197636344"><ele>713.0</ele><time>2026-04-25T09:08:59.999Z</time></trkpt><trkpt lat="44.72565771470867" lon="9.818659242158816"><ele>713.0</ele><time>2026-04-25T09:09:00.999Z</time></trkpt><trkpt lat="44.72570603681198" lon="9.818494900381268"><ele>713.0</ele><time>2026-04-25T09:09:02.999Z</time></trkpt><trkpt lat="44.72575207228463" lon="9.818330531154928"><ele>713.0</ele><time>2026-04-25T09:09:04.999Z</time></trkpt><trkpt lat="44.72579161936823" lon="9.81816480265938"><ele>714.25</ele><time>2026-04-25T09:09:06.999Z</time></trkpt><trkpt lat="44.72582178661357" lon="9.817999661040563"><ele>715.5</ele><time>2026-04-25T09:09:08.999Z</time></trkpt><trkpt lat="44.72583996315944" lon="9.817829078003639"><ele>716.75</ele><time>2026-04-25T09:09:10.999Z</time></trkpt><trkpt lat="44.72584800229102" lon="9.817654692151654"><ele>718.0</ele><time>2026-04-25T09:09:12.999Z</time></trkpt><trkpt lat="44.72585754185424" lon="9.817482782300374"><ele>718.0</ele><time>2026-04-25T09:09:14.999Z</time></trkpt><trkpt lat="44.725866488070125" lon="9.817313208128311"><ele>718.0</ele><time>2026-04-25T09:09:16.999Z</time></trkpt><trkpt lat="44.72587340128783" lon="9.817147403859018"><ele>718.0</ele><time>2026-04-25T09:09:18.999Z</time></trkpt><trkpt lat="44.72588709061426" lon="9.816977177589932"><ele>718.0</ele><time>2026-04-25T09:09:20.999Z</time></trkpt><trkpt lat="44.7259100904843" lon="9.816806837990661"><ele>718.5</ele><time>2026-04-25T09:09:22.999Z</time></trkpt><trkpt lat="44.725950770305786" lon="9.81664625789848"><ele>719.0</ele><time>2026-04-25T09:09:24.999Z</time></trkpt><trkpt lat="44.72600080132397" lon="9.816486530230348"><ele>719.5</ele><time>2026-04-25T09:09:26.999Z</time></trkpt><trkpt lat="44.72604476607387" lon="9.816324226618546"><ele>720.0</ele><time>2026-04-25T09:09:28.999Z</time></trkpt><trkpt lat="44.726094326761896" lon="9.816162077153184"><ele>719.75</ele><time>2026-04-25T09:09:30.999Z</time></trkpt><trkpt lat="44.72615440235121" lon="9.816008628297693"><ele>719.5</ele><time>2026-04-25T09:09:32.999Z</time></trkpt><trkpt lat="44.72621381654744" lon="9.815859277614813"><ele>719.25</ele><time>2026-04-25T09:09:34.999Z</time></trkpt><trkpt lat="44.72627881175044" lon="9.815722132129652"><ele>719.0</ele><time>2026-04-25T09:09:36.999Z</time></trkpt><trkpt lat="44.726344731882705" lon="9.8155914953386"><ele>719.0</ele><time>2026-04-25T09:09:38.999Z</time></trkpt><trkpt lat="44.72640665786716" lon="9.815462743788183"><ele>719.0</ele><time>2026-04-25T09:09:40.999Z</time></trkpt><trkpt lat="44.72646838388956" lon="9.815335185490287"><ele>719.0</ele><time>2026-04-25T09:09:42.999Z</time></trkpt><trkpt lat="44.7265297977476" lon="9.815210467531148"><ele>719.0</ele><time>2026-04-25T09:09:44.999Z</time></trkpt><trkpt lat="44.72659034694706" lon="9.815095635390689"><ele>719.0</ele><time>2026-04-25T09:09:46.999Z</time></trkpt><trkpt lat="44.7266540547595" lon="9.814980915363902"><ele>718.6666666666666</ele><time>2026-04-25T09:09:48.998Z</time></trkpt><trkpt lat="44.726703606964286" lon="9.814893276885766"><ele>718.3333333333333</ele><time>2026-04-25T09:09:50.998Z</time></trkpt><trkpt lat="44.72675906813872" lon="9.814799514757144"><ele>718.0</ele><time>2026-04-25T09:09:52.998Z</time></trkpt><trkpt lat="44.726823541629265" lon="9.81470520584627"><ele>717.6666666666666</ele><time>2026-04-25T09:09:54.998Z</time></trkpt><trkpt lat="44.726903288961736" lon="9.814630683021388"><ele>717.3333333333334</ele><time>2026-04-25T09:09:56.998Z</time></trkpt><trkpt lat="44.726961954372385" lon="9.814529573920339"><ele>717.0</ele><time>2026-04-25T09:09:58.998Z</time></trkpt><trkpt lat="44.726992368587325" lon="9.814379820024058"><ele>718.0</ele><time>2026-04-25T09:10:00.998Z</time></trkpt><trkpt lat="44.72698703347083" lon="9.8142782882017"><ele>719.0</ele><time>2026-04-25T09:10:01.998Z</time></trkpt><trkpt lat="44.72695075134963" lon="9.814155622184908"><ele>720.0</ele><time>2026-04-25T09:10:03.998Z</time></trkpt><trkpt lat="44.726932360658324" lon="9.814023044808156"><ele>721.0</ele><time>2026-04-25T09:10:05.998Z</time></trkpt><trkpt lat="44.726923769182875" lon="9.813893523652442"><ele>722.0</ele><time>2026-04-25T09:10:07.998Z</time></trkpt><trkpt lat="44.72692748247855" lon="9.813762576355083"><ele>723.0</ele><time>2026-04-25T09:10:09.998Z</time></trkpt><trkpt lat="44.726949794095" lon="9.813637149967162"><ele>723.0</ele><time>2026-04-25T09:10:11.998Z</time></trkpt><trkpt lat="44.72697118962244" lon="9.813515234306555"><ele>723.0</ele><time>2026-04-25T09:10:13.998Z</time></trkpt><trkpt lat="44.72700451332213" lon="9.81339620323009"><ele>723.0</ele><time>2026-04-25T09:10:15.998Z</time></trkpt><trkpt lat="44.727038860343015" lon="9.813278948769389"><ele>723.0</ele><time>2026-04-25T09:10:17.998Z</time></trkpt><trkpt lat="44.727068519961556" lon="9.813161086574183"><ele>723.0</ele><time>2026-04-25T09:10:20Z</time></trkpt><trkpt lat="44.72710179100076" lon="9.813048399368029"><ele>723.0</ele><time>2026-04-25T09:10:22Z</time></trkpt><trkpt lat="44.72714507267531" lon="9.812940630185714"><ele>724.0000000000001</ele><time>2026-04-25T09:10:24Z</time></trkpt><trkpt lat="44.72719700651929" lon="9.812850345517013"><ele>725.0</ele><time>2026-04-25T09:10:26Z</time></trkpt><trkpt lat="44.72726170713292" lon="9.81278286513562"><ele>726.0</ele><time>2026-04-25T09:10:28Z</time></trkpt><trkpt lat="44.72732656839731" lon="9.81273393173064"><ele>727.0</ele><time>2026-04-25T09:10:30Z</time></trkpt><trkpt lat="44.72738730251432" lon="9.812685148532426"><ele>728.0</ele><time>2026-04-25T09:10:32Z</time></trkpt><trkpt lat="44.72744616860866" lon="9.812643810180855"><ele>729.0000000000001</ele><time>2026-04-25T09:10:34Z</time></trkpt><trkpt lat="44.72750534031222" lon="9.812601823836095"><ele>730.0</ele><time>2026-04-25T09:10:36Z</time></trkpt><trkpt lat="44.7275630990347" lon="9.812559368581802"><ele>732.1428571428572</ele><time>2026-04-25T09:10:38Z</time></trkpt><trkpt lat="44.72762076397198" lon="9.812510492136123"><ele>734.2857142857143</ele><time>2026-04-25T09:10:40Z</time></trkpt><trkpt lat="44.72768112978927" lon="9.812469415872801"><ele>736.4285714285714</ele><time>2026-04-25T09:10:42Z</time></trkpt><trkpt lat="44.72774116534806" lon="9.812437643980074"><ele>738.5714285714287</ele><time>2026-04-25T09:10:44Z</time></trkpt><trkpt lat="44.72781113453721" lon="9.81241261629633"><ele>740.7142857142857</ele><time>2026-04-25T09:10:47Z</time></trkpt><trkpt lat="44.7278906598442" lon="9.812386939230661"><ele>742.8571428571429</ele><time>2026-04-25T09:10:50Z</time></trkpt><trkpt lat="44.72797835142232" lon="9.812366959569617"><ele>745.0</ele><time>2026-04-25T09:10:53Z</time></trkpt><trkpt lat="44.72806869701502" lon="9.81233744419891"><ele>745.0</ele><time>2026-04-25T09:10:56Z</time></trkpt><trkpt lat="44.728153635880034" lon="9.812299135793893"><ele>745.0</ele><time>2026-04-25T09:10:59Z</time></trkpt><trkpt lat="44.72823174103272" lon="9.812249184824802"><ele>745.0</ele><time>2026-04-25T09:11:01.999Z</time></trkpt><trkpt lat="44.7283098040179" lon="9.812198978213566"><ele>745.0</ele><time>2026-04-25T09:11:04.999Z</time></trkpt><trkpt lat="44.728393411856224" lon="9.812141075937824"><ele>745.0</ele><time>2026-04-25T09:11:07.999Z</time></trkpt><trkpt lat="44.728469509195726" lon="9.812095782167926"><ele>745.0</ele><time>2026-04-25T09:11:10.999Z</time></trkpt><trkpt lat="44.72853981679796" lon="9.812051880293215"><ele>744.5</ele><time>2026-04-25T09:11:13.999Z</time></trkpt><trkpt lat="44.72860801396512" lon="9.811998927568451"><ele>744.0</ele><time>2026-04-25T09:11:16.999Z</time></trkpt><trkpt lat="44.72866828780223" lon="9.811920437541133"><ele>743.5</ele><time>2026-04-25T09:11:19.999Z</time></trkpt><trkpt lat="44.7287092185614" lon="9.811820389584303"><ele>743.0</ele><time>2026-04-25T09:11:22.999Z</time></trkpt><trkpt lat="44.72873739542943" lon="9.811704260836835"><ele>742.5</ele><time>2026-04-25T09:11:25.999Z</time></trkpt><trkpt lat="44.72875556584606" lon="9.811608831078324"><ele>742.0</ele><time>2026-04-25T09:11:28.999Z</time></trkpt><trkpt lat="44.72879341178644" lon="9.811500435675912"><ele>743.8333333333334</ele><time>2026-04-25T09:11:31.999Z</time></trkpt><trkpt lat="44.72884966363461" lon="9.811410209389125"><ele>745.6666666666667</ele><time>2026-04-25T09:11:34.999Z</time></trkpt><trkpt lat="44.728897786373466" lon="9.81133927247234"><ele>747.5</ele><time>2026-04-25T09:11:37.999Z</time></trkpt><trkpt lat="44.72895181463808" lon="9.811243672123538"><ele>749.3333333333334</ele><time>2026-04-25T09:11:40.999Z</time></trkpt><trkpt lat="44.72896170495495" lon="9.811128795180766"><ele>751.1666666666666</ele><time>2026-04-25T09:11:43.999Z</time></trkpt><trkpt lat="44.728904083500076" lon="9.811075937984157"><ele>753.0</ele><time>2026-04-25T09:11:46.999Z</time></trkpt><trkpt lat="44.72883328465704" lon="9.811110948161984"><ele>753.0</ele><time>2026-04-25T09:11:49.999Z</time></trkpt><trkpt lat="44.72877575346561" lon="9.811157584722206"><ele>753.0</ele><time>2026-04-25T09:11:51.999Z</time></trkpt><trkpt lat="44.72870835955562" lon="9.81122385583961"><ele>753.0</ele><time>2026-04-25T09:11:54.998Z</time></trkpt><trkpt lat="44.72865346707553" lon="9.811283978477915"><ele>753.0</ele><time>2026-04-25T09:11:57.998Z</time></trkpt><trkpt lat="44.7285998384372" lon="9.811345787523255"><ele>753.0</ele><time>2026-04-25T09:11:59.998Z</time></trkpt><trkpt lat="44.72854013560343" lon="9.811409201470829"><ele>753.0</ele><time>2026-04-25T09:12:02.998Z</time></trkpt><trkpt lat="44.728470111605404" lon="9.811469294814787"><ele>753.0</ele><time>2026-04-25T09:12:05.998Z</time></trkpt><trkpt lat="44.72838684132486" lon="9.81150285157696"><ele>754.6666666666666</ele><time>2026-04-25T09:12:08.998Z</time></trkpt><trkpt lat="44.728308099537585" lon="9.81150978262599"><ele>756.3333333333334</ele><time>2026-04-25T09:12:10.998Z</time></trkpt><trkpt lat="44.72821614358578" lon="9.81150408190737"><ele>758.0</ele><time>2026-04-25T09:12:13.998Z</time></trkpt><trkpt lat="44.72813364692087" lon="9.811501451728661"><ele>759.6666666666667</ele><time>2026-04-25T09:12:15.998Z</time></trkpt><trkpt lat="44.72807005931738" lon="9.811496976028202"><ele>761.3333333333334</ele><time>2026-04-25T09:12:17.998Z</time></trkpt><trkpt lat="44.72797617334899" lon="9.811492148915757"><ele>763.0</ele><time>2026-04-25T09:12:20.998Z</time></trkpt><trkpt lat="44.72791291052073" lon="9.811491862038045"><ele>763.0</ele><time>2026-04-25T09:12:22.998Z</time></trkpt><trkpt lat="44.727837178895136" lon="9.811478647257747"><ele>763.0</ele><time>2026-04-25T09:12:26Z</time></trkpt><trkpt lat="44.727755530044995" lon="9.811400259885156"><ele>763.0</ele><time>2026-04-25T09:12:29Z</time></trkpt><trkpt lat="44.72778858050598" lon="9.811299240439185"><ele>763.0</ele><time>2026-04-25T09:12:32Z</time></trkpt><trkpt lat="44.72786871867577" lon="9.811314027008278"><ele>763.0</ele><time>2026-04-25T09:12:35Z</time></trkpt><trkpt lat="44.72793847308824" lon="9.811329091061404"><ele>763.0</ele><time>2026-04-25T09:12:37Z</time></trkpt><trkpt lat="44.728007004077625" lon="9.81133764043024"><ele>763.0</ele><time>2026-04-25T09:12:40Z</time></trkpt><trkpt lat="44.728092660128006" lon="9.811338115864167"><ele>763.0</ele><time>2026-04-25T09:12:42Z</time></trkpt><trkpt lat="44.728194233604185" lon="9.811304163586517"><ele>763.0</ele><time>2026-04-25T09:12:45Z</time></trkpt><trkpt lat="44.72827076501202" lon="9.811227676311965"><ele>763.0</ele><time>2026-04-25T09:12:48Z</time></trkpt><trkpt lat="44.7283115459758" lon="9.811158326296365"><ele>763.0</ele><time>2026-04-25T09:12:50Z</time></trkpt><trkpt lat="44.72834715632376" lon="9.811077021822848"><ele>763.0</ele><time>2026-04-25T09:12:52Z</time></trkpt><trkpt lat="44.72837312214993" lon="9.810971852108777"><ele>763.1428571428571</ele><time>2026-04-25T09:12:55Z</time></trkpt><trkpt lat="44.72838954056603" lon="9.810860931473197"><ele>763.2857142857142</ele><time>2026-04-25T09:12:58Z</time></trkpt><trkpt lat="44.72840246262987" lon="9.810767293700412"><ele>763.4285714285714</ele><time>2026-04-25T09:12:59Z</time></trkpt><trkpt lat="44.72841848191222" lon="9.810678620869895"><ele>763.5714285714286</ele><time>2026-04-25T09:13:01Z</time></trkpt><trkpt lat="44.728445531110495" lon="9.810587128930615"><ele>763.7142857142857</ele><time>2026-04-25T09:13:02.999Z</time></trkpt><trkpt lat="44.728477907655694" lon="9.810507853667072"><ele>763.8571428571429</ele><time>2026-04-25T09:13:04.999Z</time></trkpt><trkpt lat="44.7285264337512" lon="9.810410881244493"><ele>764.0</ele><time>2026-04-25T09:13:07.999Z</time></trkpt><trkpt lat="44.72857067072621" lon="9.810320176124126"><ele>764.0</ele><time>2026-04-25T09:13:10.999Z</time></trkpt><trkpt lat="44.72862855616495" lon="9.810226468936106"><ele>764.0</ele><time>2026-04-25T09:13:13.999Z</time></trkpt><trkpt lat="44.72868490599621" lon="9.810150570420749"><ele>764.0</ele><time>2026-04-25T09:13:16.999Z</time></trkpt><trkpt lat="44.72875530508362" lon="9.810039349440785"><ele>764.0</ele><time>2026-04-25T09:13:17.999Z</time></trkpt><trkpt lat="44.728825028918216" lon="9.809949959184495"><ele>764.0</ele><time>2026-04-25T09:13:22.999Z</time></trkpt><trkpt lat="44.728884180764474" lon="9.80986901631394"><ele>764.0</ele><time>2026-04-25T09:13:24.999Z</time></trkpt><trkpt lat="44.72893928472456" lon="9.809783487027776"><ele>765.4285714285714</ele><time>2026-04-25T09:13:26.999Z</time></trkpt><trkpt lat="44.72899238851661" lon="9.809702035909726"><ele>766.8571428571428</ele><time>2026-04-25T09:13:28.999Z</time></trkpt><trkpt lat="44.72902687806455" lon="9.80960715779008"><ele>768.2857142857142</ele><time>2026-04-25T09:13:30.999Z</time></trkpt><trkpt lat="44.72904496267015" lon="9.809508972332178"><ele>769.7142857142858</ele><time>2026-04-25T09:13:32.999Z</time></trkpt><trkpt lat="44.72905124674909" lon="9.809409974363765"><ele>771.1428571428571</ele><time>2026-04-25T09:13:34.999Z</time></trkpt><trkpt lat="44.729047746343035" lon="9.809315752005922"><ele>772.5714285714286</ele><time>2026-04-25T09:13:36.999Z</time></trkpt><trkpt lat="44.72904981677944" lon="9.80921709486187"><ele>774.0</ele><time>2026-04-25T09:13:38.999Z</time></trkpt><trkpt lat="44.72902847189594" lon="9.809117924388122"><ele>775.1666666666666</ele><time>2026-04-25T09:13:41.999Z</time></trkpt><trkpt lat="44.729042641508634" lon="9.809029893533102"><ele>776.3333333333333</ele><time>2026-04-25T09:13:42.999Z</time></trkpt><trkpt lat="44.72907839641488" lon="9.808932994025325"><ele>777.5</ele><time>2026-04-25T09:13:44.999Z</time></trkpt><trkpt lat="44.72912788177483" lon="9.808868025866225"><ele>778.6666666666666</ele><time>2026-04-25T09:13:46.999Z</time></trkpt><trkpt lat="44.72918888464748" lon="9.80881195121342"><ele>779.8333333333333</ele><time>2026-04-25T09:13:48.999Z</time></trkpt><trkpt lat="44.72926970243182" lon="9.80874574032347"><ele>781.0</ele><time>2026-04-25T09:13:51.999Z</time></trkpt><trkpt lat="44.729346346420385" lon="9.80868731336566"><ele>781.6666666666666</ele><time>2026-04-25T09:13:53.999Z</time></trkpt><trkpt lat="44.72940270518834" lon="9.80864395191775"><ele>782.3333333333333</ele><time>2026-04-25T09:13:55.998Z</time></trkpt><trkpt lat="44.72947163502952" lon="9.808580350967054"><ele>783.0</ele><time>2026-04-25T09:13:58.998Z</time></trkpt><trkpt lat="44.729540762894594" lon="9.808518397296861"><ele>783.6666666666667</ele><time>2026-04-25T09:14:00.998Z</time></trkpt><trkpt lat="44.72960120812305" lon="9.808460209910832"><ele>784.3333333333334</ele><time>2026-04-25T09:14:03.998Z</time></trkpt><trkpt lat="44.729702210859344" lon="9.80835793096246"><ele>785.0</ele><time>2026-04-25T09:14:06.998Z</time></trkpt><trkpt lat="44.72975484480642" lon="9.80830153325675"><ele>786.1666666666667</ele><time>2026-04-25T09:14:08.998Z</time></trkpt><trkpt lat="44.72981435528364" lon="9.808236152580546"><ele>787.3333333333334</ele><time>2026-04-25T09:14:11.998Z</time></trkpt><trkpt lat="44.72991532658539" lon="9.80809612498245"><ele>788.5</ele><time>2026-04-25T09:14:14.998Z</time></trkpt><trkpt lat="44.72996449661779" lon="9.808030943586353"><ele>789.6666666666667</ele><time>2026-04-25T09:14:16.998Z</time></trkpt><trkpt lat="44.73000399334258" lon="9.807956746219045"><ele>790.8333333333334</ele><time>2026-04-25T09:14:18.998Z</time></trkpt><trkpt lat="44.730049949394" lon="9.807887474225456"><ele>792.0</ele><time>2026-04-25T09:14:20.998Z</time></trkpt><trkpt lat="44.73008830241926" lon="9.807809318740906"><ele>792.0</ele><time>2026-04-25T09:14:22.998Z</time></trkpt><trkpt lat="44.73012181627776" lon="9.807728658229038"><ele>792.0</ele><time>2026-04-25T09:14:24.998Z</time></trkpt><trkpt lat="44.73019136819677" lon="9.807633978046765"><ele>792.0</ele><time>2026-04-25T09:14:27.998Z</time></trkpt><trkpt lat="44.730221245814924" lon="9.807530761173483"><ele>792.0</ele><time>2026-04-25T09:14:31Z</time></trkpt><trkpt lat="44.73026087293379" lon="9.807424897663454"><ele>792.0</ele><time>2026-04-25T09:14:33Z</time></trkpt><trkpt lat="44.73029102624736" lon="9.807311756217054"><ele>792.0</ele><time>2026-04-25T09:14:35Z</time></trkpt><trkpt lat="44.73032922323327" lon="9.807226152039458"><ele>793.8571428571429</ele><time>2026-04-25T09:14:37Z</time></trkpt><trkpt lat="44.730359219690584" lon="9.807138512029445"><ele>795.7142857142857</ele><time>2026-04-25T09:14:39Z</time></trkpt><trkpt lat="44.73038840572939" lon="9.807053317628593"><ele>797.5714285714286</ele><time>2026-04-25T09:14:41Z</time></trkpt><trkpt lat="44.730423129678066" lon="9.80696844456595"><ele>799.4285714285714</ele><time>2026-04-25T09:14:43Z</time></trkpt><trkpt lat="44.730448831402505" lon="9.806885607711203"><ele>801.2857142857142</ele><time>2026-04-25T09:14:45Z</time></trkpt><trkpt lat="44.7304763737986" lon="9.80680209593097"><ele>803.1428571428571</ele><time>2026-04-25T09:14:47Z</time></trkpt><trkpt lat="44.7305085431162" lon="9.806721794614559"><ele>805.0</ele><time>2026-04-25T09:14:49Z</time></trkpt><trkpt lat="44.730550293161876" lon="9.80660707313426"><ele>806.4</ele><time>2026-04-25T09:14:52Z</time></trkpt><trkpt lat="44.73058451908738" lon="9.80650247166973"><ele>807.8</ele><time>2026-04-25T09:14:55Z</time></trkpt><trkpt lat="44.7306236902173" lon="9.806383607840043"><ele>809.2</ele><time>2026-04-25T09:14:58Z</time></trkpt><trkpt lat="44.73066057348557" lon="9.806268903774544"><ele>810.6</ele><time>2026-04-25T09:15:01Z</time></trkpt><trkpt lat="44.73068690246347" lon="9.806142725376365"><ele>812.0</ele><time>2026-04-25T09:15:04Z</time></trkpt><trkpt lat="44.73070152251795" lon="9.806012538148664"><ele>811.8571428571429</ele><time>2026-04-25T09:15:06.999Z</time></trkpt><trkpt lat="44.73070739248654" lon="9.80591970604405"><ele>811.7142857142858</ele><time>2026-04-25T09:15:08.999Z</time></trkpt><trkpt lat="44.73070559089402" lon="9.805794619895952"><ele>811.5714285714286</ele><time>2026-04-25T09:15:10.999Z</time></trkpt><trkpt lat="44.730705085882654" lon="9.805696178256671"><ele>811.4285714285714</ele><time>2026-04-25T09:15:12.999Z</time></trkpt><trkpt lat="44.730701310812684" lon="9.805597851535104"><ele>811.2857142857143</ele><time>2026-04-25T09:15:14.999Z</time></trkpt><trkpt lat="44.73069856618526" lon="9.805503394566161"><ele>811.1428571428571</ele><time>2026-04-25T09:15:16.999Z</time></trkpt><trkpt lat="44.73069570646598" lon="9.805405233893467"><ele>811.0</ele><time>2026-04-25T09:15:18.999Z</time></trkpt><trkpt lat="44.730690304559516" lon="9.805308862549307"><ele>810.9999999999999</ele><time>2026-04-25T09:15:20.999Z</time></trkpt><trkpt lat="44.730682400096704" lon="9.805212837647732"><ele>811.0</ele><time>2026-04-25T09:15:22.999Z</time></trkpt><trkpt lat="44.73067660303357" lon="9.805117903664778"><ele>811.0</ele><time>2026-04-25T09:15:24.999Z</time></trkpt><trkpt lat="44.73067969588585" lon="9.804985543720463"><ele>811.0</ele><time>2026-04-25T09:15:27.999Z</time></trkpt><trkpt lat="44.73071030487929" lon="9.804876041796904"><ele>810.9999999999999</ele><time>2026-04-25T09:15:30.999Z</time></trkpt><trkpt lat="44.73074944175814" lon="9.804775124442454"><ele>811.0</ele><time>2026-04-25T09:15:32.999Z</time></trkpt><trkpt lat="44.730798478558974" lon="9.804677690967424"><ele>811.1666666666666</ele><time>2026-04-25T09:15:35.999Z</time></trkpt><trkpt lat="44.7308518797533" lon="9.804567260390291"><ele>811.3333333333333</ele><time>2026-04-25T09:15:38.999Z</time></trkpt><trkpt lat="44.730894915164534" lon="9.804483066952374"><ele>811.5</ele><time>2026-04-25T09:15:40.999Z</time></trkpt><trkpt lat="44.73093940438087" lon="9.804390396173153"><ele>811.6666666666667</ele><time>2026-04-25T09:15:42.999Z</time></trkpt><trkpt lat="44.73098572919133" lon="9.80426516506363"><ele>811.8333333333334</ele><time>2026-04-25T09:15:45.999Z</time></trkpt><trkpt lat="44.731017606888265" lon="9.804187569899602"><ele>812.0</ele><time>2026-04-25T09:15:47.999Z</time></trkpt><trkpt lat="44.73104820958474" lon="9.804106442548193"><ele>813.4285714285714</ele><time>2026-04-25T09:15:49.999Z</time></trkpt><trkpt lat="44.731079253499814" lon="9.804025822198982"><ele>814.8571428571429</ele><time>2026-04-25T09:15:51.999Z</time></trkpt><trkpt lat="44.731113106744964" lon="9.803948305748907"><ele>816.2857142857142</ele><time>2026-04-25T09:15:53.999Z</time></trkpt><trkpt lat="44.73114800690407" lon="9.803865116168973"><ele>817.7142857142858</ele><time>2026-04-25T09:15:55.999Z</time></trkpt><trkpt lat="44.73118335568027" lon="9.80378692716116"><ele>819.1428571428571</ele><time>2026-04-25T09:15:57.999Z</time></trkpt><trkpt lat="44.731217994665386" lon="9.803705059290198"><ele>820.5714285714286</ele><time>2026-04-25T09:15:59.999Z</time></trkpt><trkpt lat="44.731253857079295" lon="9.803628504369081"><ele>822.0</ele><time>2026-04-25T09:16:01.998Z</time></trkpt><trkpt lat="44.73130478165027" lon="9.803567171480694"><ele>822.0</ele><time>2026-04-25T09:16:03.998Z</time></trkpt><trkpt lat="44.731370034737566" lon="9.803550996639556"><ele>822.0</ele><time>2026-04-25T09:16:05.998Z</time></trkpt><trkpt lat="44.731424227094344" lon="9.803609310551264"><ele>822.0</ele><time>2026-04-25T09:16:07.998Z</time></trkpt><trkpt lat="44.73145216271604" lon="9.803692633674707"><ele>822.0</ele><time>2026-04-25T09:16:09.998Z</time></trkpt><trkpt lat="44.731466956493215" lon="9.803780484260137"><ele>822.0</ele><time>2026-04-25T09:16:11.998Z</time></trkpt><trkpt lat="44.73147389987837" lon="9.80386945575678"><ele>822.0</ele><time>2026-04-25T09:16:13.998Z</time></trkpt><trkpt lat="44.73148286622769" lon="9.80397502416134"><ele>822.0</ele><time>2026-04-25T09:16:16.998Z</time></trkpt><trkpt lat="44.73149216963626" lon="9.804097564300031"><ele>822.0</ele><time>2026-04-25T09:16:19.998Z</time></trkpt><trkpt lat="44.731505668628486" lon="9.80419896870627"><ele>822.0</ele><time>2026-04-25T09:16:21.998Z</time></trkpt><trkpt lat="44.731538674424186" lon="9.80429645822616"><ele>822.0</ele><time>2026-04-25T09:16:23.998Z</time></trkpt><trkpt lat="44.7315973722455" lon="9.80434642712794"><ele>822.0</ele><time>2026-04-25T09:16:25.998Z</time></trkpt><trkpt lat="44.73166503356401" lon="9.804335562589033"><ele>822.0</ele><time>2026-04-25T09:16:27.998Z</time></trkpt><trkpt lat="44.73171885766946" lon="9.804289154573759"><ele>822.0</ele><time>2026-04-25T09:16:29.998Z</time></trkpt><trkpt lat="44.73178874903672" lon="9.804191831092982"><ele>822.0</ele><time>2026-04-25T09:16:32.998Z</time></trkpt><trkpt lat="44.73183378183954" lon="9.80412028645219"><ele>822.0</ele><time>2026-04-25T09:16:34.998Z</time></trkpt><trkpt lat="44.73187556467357" lon="9.804047821432343"><ele>822.0</ele><time>2026-04-25T09:16:37Z</time></trkpt><trkpt lat="44.73191141345262" lon="9.803970277155004"><ele>822.0</ele><time>2026-04-25T09:16:39Z</time></trkpt><trkpt lat="44.731943699917686" lon="9.803888097627645"><ele>822.0</ele><time>2026-04-25T09:16:41Z</time></trkpt><trkpt lat="44.731977517973824" lon="9.8038034752867"><ele>822.0</ele><time>2026-04-25T09:16:43Z</time></trkpt><trkpt lat="44.73201266323961" lon="9.803721366198749"><ele>822.0</ele><time>2026-04-25T09:16:45Z</time></trkpt><trkpt lat="44.732048063655974" lon="9.803625079284004"><ele>822.0</ele><time>2026-04-25T09:16:48Z</time></trkpt><trkpt lat="44.73208925408348" lon="9.803506409787012"><ele>823.8333333333334</ele><time>2026-04-25T09:16:51Z</time></trkpt><trkpt lat="44.73211721686214" lon="9.803421322198128"><ele>825.6666666666667</ele><time>2026-04-25T09:16:53Z</time></trkpt><trkpt lat="44.73214514055034" lon="9.803329916421323"><ele>827.5</ele><time>2026-04-25T09:16:55Z</time></trkpt><trkpt lat="44.73218133489195" lon="9.803156719464324"><ele>829.3333333333334</ele><time>2026-04-25T09:16:58Z</time></trkpt><trkpt lat="44.732178494019585" lon="9.8030537091145"><ele>831.1666666666667</ele><time>2026-04-25T09:17:01Z</time></trkpt><trkpt lat="44.732166269539256" lon="9.8029568346983"><ele>833.0</ele><time>2026-04-25T09:17:03Z</time></trkpt><trkpt lat="44.73212706329604" lon="9.802783635126572"><ele>833.0000000000001</ele><time>2026-04-25T09:17:06Z</time></trkpt><trkpt lat="44.73209905834227" lon="9.802694096628096"><ele>833.0</ele><time>2026-04-25T09:17:08Z</time></trkpt><trkpt lat="44.73213608554251" lon="9.80257674110285"><ele>833.0</ele><time>2026-04-25T09:17:11.999Z</time></trkpt><trkpt lat="44.732229023035785" lon="9.802594661716675"><ele>833.0</ele><time>2026-04-25T09:17:14.999Z</time></trkpt><trkpt lat="44.73229592392686" lon="9.80266341677202"><ele>833.0000000000001</ele><time>2026-04-25T09:17:17.999Z</time></trkpt><trkpt lat="44.73236096505515" lon="9.80271086712977"><ele>833.0</ele><time>2026-04-25T09:17:19.999Z</time></trkpt><trkpt lat="44.73244610621222" lon="9.802689290743215"><ele>832.8333333333334</ele><time>2026-04-25T09:17:22.999Z</time></trkpt><trkpt lat="44.73249839130989" lon="9.802584664408272"><ele>832.6666666666667</ele><time>2026-04-25T09:17:25.999Z</time></trkpt><trkpt lat="44.7325194643618" lon="9.802489854084559"><ele>832.5</ele><time>2026-04-25T09:17:28.999Z</time></trkpt><trkpt lat="44.73254025569344" lon="9.802391459678043"><ele>832.3333333333333</ele><time>2026-04-25T09:17:30.999Z</time></trkpt><trkpt lat="44.73256628532558" lon="9.802286399923593"><ele>832.1666666666666</ele><time>2026-04-25T09:17:33.999Z</time></trkpt><trkpt lat="44.73258951963115" lon="9.8021702222399"><ele>832.0</ele><time>2026-04-25T09:17:36.999Z</time></trkpt><trkpt lat="44.7326036654747" lon="9.802073130415463"><ele>831.9999999999999</ele><time>2026-04-25T09:17:38.999Z</time></trkpt><trkpt lat="44.73262092281617" lon="9.801962558883565"><ele>832.0</ele><time>2026-04-25T09:17:41.999Z</time></trkpt><trkpt lat="44.73263495200538" lon="9.801861335522004"><ele>832.0</ele><time>2026-04-25T09:17:44.999Z</time></trkpt><trkpt lat="44.732614870665834" lon="9.80174882155914"><ele>832.0</ele><time>2026-04-25T09:17:49.999Z</time></trkpt><trkpt lat="44.73255051771372" lon="9.801722452601483"><ele>831.9999999999999</ele><time>2026-04-25T09:17:52.999Z</time></trkpt><trkpt lat="44.7324632119599" lon="9.801692234819434"><ele>832.0</ele><time>2026-04-25T09:17:55.999Z</time></trkpt><trkpt lat="44.73238693485573" lon="9.801668395738696"><ele>832.9999999999999</ele><time>2026-04-25T09:17:58.999Z</time></trkpt><trkpt lat="44.73230322597783" lon="9.801634699221047"><ele>834.0</ele><time>2026-04-25T09:18:01.999Z</time></trkpt><trkpt lat="44.73223327300477" lon="9.801613352033979"><ele>835.0</ele><time>2026-04-25T09:18:04.998Z</time></trkpt><trkpt lat="44.73215084050024" lon="9.801592048258348"><ele>836.0</ele><time>2026-04-25T09:18:07.998Z</time></trkpt><trkpt lat="44.73208130502592" lon="9.80156327135457"><ele>836.9999999999999</ele><time>2026-04-25T09:18:10.998Z</time></trkpt><trkpt lat="44.732016907617876" lon="9.801542623141323"><ele>838.0</ele><time>2026-04-25T09:18:12.998Z</time></trkpt><trkpt lat="44.73193607365461" lon="9.80151673391613"><ele>839.1666666666666</ele><time>2026-04-25T09:18:15.998Z</time></trkpt><trkpt lat="44.73186632171745" lon="9.801489694766595"><ele>840.3333333333333</ele><time>2026-04-25T09:18:17.998Z</time></trkpt><trkpt lat="44.731780005666366" lon="9.801509169893505"><ele>841.5</ele><time>2026-04-25T09:18:19.998Z</time></trkpt><trkpt lat="44.731693263924754" lon="9.801547298671037"><ele>842.6666666666667</ele><time>2026-04-25T09:18:21.998Z</time></trkpt><trkpt lat="44.73161801502467" lon="9.80158089760327"><ele>843.8333333333334</ele><time>2026-04-25T09:18:23.998Z</time></trkpt><trkpt lat="44.73154426941528" lon="9.801615789971251"><ele>845.0</ele><time>2026-04-25T09:18:25.998Z</time></trkpt><trkpt lat="44.73147192849869" lon="9.801649800371825"><ele>845.0000000000001</ele><time>2026-04-25T09:18:27.998Z</time></trkpt><trkpt lat="44.73140393589609" lon="9.80168907952264"><ele>845.0</ele><time>2026-04-25T09:18:29.998Z</time></trkpt><trkpt lat="44.731330197466846" lon="9.80170327850304"><ele>845.0</ele><time>2026-04-25T09:18:31.998Z</time></trkpt><trkpt lat="44.73126475055115" lon="9.801696760184774"><ele>845.0</ele><time>2026-04-25T09:18:33.998Z</time></trkpt><trkpt lat="44.73118628067224" lon="9.801664154542369"><ele>845.0000000000001</ele><time>2026-04-25T09:18:36.998Z</time></trkpt><trkpt lat="44.731112102960395" lon="9.801619758118347"><ele>845.0</ele><time>2026-04-25T09:18:39.998Z</time></trkpt><trkpt lat="44.73100478042415" lon="9.801582697728621"><ele>845.1666666666667</ele><time>2026-04-25T09:18:40.998Z</time></trkpt><trkpt lat="44.73093720862771" lon="9.801530629518261"><ele>845.3333333333334</ele><time>2026-04-25T09:18:43Z</time></trkpt><trkpt lat="44.730867649283496" lon="9.80148385344845"><ele>845.5</ele><time>2026-04-25T09:18:45Z</time></trkpt><trkpt lat="44.730795102782835" lon="9.801445180433918"><ele>845.6666666666667</ele><time>2026-04-25T09:18:47Z</time></trkpt><trkpt lat="44.73072059210706" lon="9.801417737116111"><ele>845.8333333333334</ele><time>2026-04-25T09:18:49Z</time></trkpt><trkpt lat="44.73064389497967" lon="9.801403327083305"><ele>846.0</ele><time>2026-04-25T09:18:51Z</time></trkpt><trkpt lat="44.73056958039845" lon="9.80139880847976"><ele>846.0</ele><time>2026-04-25T09:18:53Z</time></trkpt><trkpt lat="44.730493706282964" lon="9.801389682623068"><ele>846.0</ele><time>2026-04-25T09:18:55Z</time></trkpt><trkpt lat="44.73042421101967" lon="9.801358074923108"><ele>846.0</ele><time>2026-04-25T09:18:57Z</time></trkpt><trkpt lat="44.730362156295094" lon="9.801265638693065"><ele>846.0</ele><time>2026-04-25T09:19:00Z</time></trkpt><trkpt lat="44.730313961663505" lon="9.8011931688826"><ele>846.0</ele><time>2026-04-25T09:19:02Z</time></trkpt><trkpt lat="44.73025659375649" lon="9.801096399006662"><ele>846.0</ele><time>2026-04-25T09:19:04Z</time></trkpt><trkpt lat="44.73022181223633" lon="9.801010755553937"><ele>846.5714285714286</ele><time>2026-04-25T09:19:06Z</time></trkpt><trkpt lat="44.73021433615648" lon="9.800909497627352"><ele>847.1428571428572</ele><time>2026-04-25T09:19:08Z</time></trkpt><trkpt lat="44.73021183670016" lon="9.800807891904153"><ele>847.7142857142858</ele><time>2026-04-25T09:19:10Z</time></trkpt><trkpt lat="44.730211400416785" lon="9.800706849537576"><ele>848.2857142857142</ele><time>2026-04-25T09:19:11.999Z</time></trkpt><trkpt lat="44.73020728053036" lon="9.800597957121644"><ele>848.8571428571429</ele><time>2026-04-25T09:19:13.999Z</time></trkpt><trkpt lat="44.73019642055364" lon="9.800492267604575"><ele>849.4285714285714</ele><time>2026-04-25T09:19:15.999Z</time></trkpt><trkpt lat="44.73016300899096" lon="9.800395160643887"><ele>850.0</ele><time>2026-04-25T09:19:17.999Z</time></trkpt><trkpt lat="44.730127226902475" lon="9.80030538374252"><ele>849.9999999999999</ele><time>2026-04-25T09:19:19.999Z</time></trkpt><trkpt lat="44.73010098082304" lon="9.800221785792221"><ele>850.0</ele><time>2026-04-25T09:19:21.999Z</time></trkpt><trkpt lat="44.73003539165807" lon="9.800147617931282"><ele>850.0</ele><time>2026-04-25T09:19:24.999Z</time></trkpt><trkpt lat="44.72997155183791" lon="9.800069530603531"><ele>850.0</ele><time>2026-04-25T09:19:26.999Z</time></trkpt><trkpt lat="44.72990598767365" lon="9.800002042669917"><ele>849.9999999999999</ele><time>2026-04-25T09:19:28.999Z</time></trkpt><trkpt lat="44.72983849201625" lon="9.799943368334947"><ele>850.0</ele><time>2026-04-25T09:19:30.999Z</time></trkpt><trkpt lat="44.72976950816099" lon="9.799905921099203"><ele>851.4285714285714</ele><time>2026-04-25T09:19:32.999Z</time></trkpt><trkpt lat="44.72969782624699" lon="9.799887215551145"><ele>852.8571428571429</ele><time>2026-04-25T09:19:34.999Z</time></trkpt><trkpt lat="44.72962730390298" lon="9.799889538704688"><ele>854.2857142857142</ele><time>2026-04-25T09:19:36.999Z</time></trkpt><trkpt lat="44.72955619605392" lon="9.79990883330071"><ele>855.7142857142858</ele><time>2026-04-25T09:19:38.999Z</time></trkpt><trkpt lat="44.72948787194533" lon="9.799934611441335"><ele>857.1428571428572</ele><time>2026-04-25T09:19:40.999Z</time></trkpt><trkpt lat="44.729415883512964" lon="9.799964824832605"><ele>858.5714285714286</ele><time>2026-04-25T09:19:42.999Z</time></trkpt><trkpt lat="44.72933015832426" lon="9.799972102666702"><ele>860.0</ele><time>2026-04-25T09:19:45.999Z</time></trkpt><trkpt lat="44.72917347934911" lon="9.799939182797726"><ele>860.0</ele><time>2026-04-25T09:19:48.999Z</time></trkpt><trkpt lat="44.72911887519709" lon="9.799875676505888"><ele>860.0</ele><time>2026-04-25T09:19:50.999Z</time></trkpt><trkpt lat="44.7290711546303" lon="9.799800754349878"><ele>860.0</ele><time>2026-04-25T09:19:52.999Z</time></trkpt><trkpt lat="44.72902417452166" lon="9.799725579772202"><ele>860.0</ele><time>2026-04-25T09:19:54.999Z</time></trkpt><trkpt lat="44.728974647711226" lon="9.799652305287683"><ele>860.0</ele><time>2026-04-25T09:19:56.999Z</time></trkpt><trkpt lat="44.72890606762508" lon="9.799613263576502"><ele>860.0</ele><time>2026-04-25T09:19:58.999Z</time></trkpt><trkpt lat="44.728831483559034" lon="9.799602101953305"><ele>860.0</ele><time>2026-04-25T09:20:00.999Z</time></trkpt><trkpt lat="44.72875276314189" lon="9.799610166516217"><ele>860.0000000000001</ele><time>2026-04-25T09:20:02.999Z</time></trkpt><trkpt lat="44.728669917709766" lon="9.799643808267724"><ele>860.0</ele><time>2026-04-25T09:20:04.999Z</time></trkpt><trkpt lat="44.72859782106086" lon="9.799701334276763"><ele>860.0</ele><time>2026-04-25T09:20:06.998Z</time></trkpt><trkpt lat="44.72853615682334" lon="9.79979420786568"><ele>860.0</ele><time>2026-04-25T09:20:09.998Z</time></trkpt><trkpt lat="44.72848088198387" lon="9.799884840306783"><ele>860.0000000000001</ele><time>2026-04-25T09:20:11.998Z</time></trkpt><trkpt lat="44.728436582224894" lon="9.799959977100912"><ele>860.0</ele><time>2026-04-25T09:20:12.998Z</time></trkpt><trkpt lat="44.72838930994312" lon="9.800044718773156"><ele>860.5000000000001</ele><time>2026-04-25T09:20:14.998Z</time></trkpt><trkpt lat="44.72833817393072" lon="9.800117064105802"><ele>861.0</ele><time>2026-04-25T09:20:16.998Z</time></trkpt><trkpt lat="44.72828366172086" lon="9.800208012652496"><ele>861.5</ele><time>2026-04-25T09:20:18.998Z</time></trkpt><trkpt lat="44.72822481207929" lon="9.800288439246593"><ele>862.0</ele><time>2026-04-25T09:20:20.998Z</time></trkpt><trkpt lat="44.72816386930541" lon="9.800368668330659"><ele>862.5000000000001</ele><time>2026-04-25T09:20:22.998Z</time></trkpt><trkpt lat="44.72809809371993" lon="9.800444936036369"><ele>863.0</ele><time>2026-04-25T09:20:24.998Z</time></trkpt><trkpt lat="44.7280307356321" lon="9.800518379273004"><ele>864.0000000000001</ele><time>2026-04-25T09:20:26.998Z</time></trkpt><trkpt lat="44.72795911061145" lon="9.800579085848716"><ele>865.0</ele><time>2026-04-25T09:20:28.998Z</time></trkpt><trkpt lat="44.72788374211767" lon="9.80063517336988"><ele>866.0</ele><time>2026-04-25T09:20:30.998Z</time></trkpt><trkpt lat="44.727815921812415" lon="9.800676696969646"><ele>867.0</ele><time>2026-04-25T09:20:32.998Z</time></trkpt><trkpt lat="44.72772715745122" lon="9.800731035931301"><ele>868.0000000000001</ele><time>2026-04-25T09:20:34.998Z</time></trkpt><trkpt lat="44.727646747931345" lon="9.800779689536286"><ele>869.0</ele><time>2026-04-25T09:20:36.998Z</time></trkpt><trkpt lat="44.72756004655488" lon="9.800820374738993"><ele>869.0000000000001</ele><time>2026-04-25T09:20:38.998Z</time></trkpt><trkpt lat="44.72747775083756" lon="9.800869696633146"><ele>869.0</ele><time>2026-04-25T09:20:40.998Z</time></trkpt><trkpt lat="44.72739375613307" lon="9.800909705822002"><ele>869.0</ele><time>2026-04-25T09:20:42.998Z</time></trkpt><trkpt lat="44.72730466880912" lon="9.800929160801454"><ele>869.0</ele><time>2026-04-25T09:20:44.998Z</time></trkpt><trkpt lat="44.727218535578636" lon="9.800935619861894"><ele>869.0000000000001</ele><time>2026-04-25T09:20:46.998Z</time></trkpt><trkpt lat="44.727133554824135" lon="9.800934842626246"><ele>869.0</ele><time>2026-04-25T09:20:49Z</time></trkpt><trkpt lat="44.72705056689715" lon="9.800937852309056"><ele>869.0000000000001</ele><time>2026-04-25T09:20:51Z</time></trkpt><trkpt lat="44.72696506973676" lon="9.800927410733186"><ele>869.0</ele><time>2026-04-25T09:20:53Z</time></trkpt><trkpt lat="44.726881991591995" lon="9.80089751066794"><ele>869.0</ele><time>2026-04-25T09:20:55Z</time></trkpt><trkpt lat="44.726801623369184" lon="9.800849615970153"><ele>869.0</ele><time>2026-04-25T09:20:57Z</time></trkpt><trkpt lat="44.726735290298265" lon="9.800779158325458"><ele>869.0000000000001</ele><time>2026-04-25T09:20:59Z</time></trkpt><trkpt lat="44.72667876267848" lon="9.800684093649615"><ele>869.0</ele><time>2026-04-25T09:21:01Z</time></trkpt><trkpt lat="44.72664130397385" lon="9.80056796282183"><ele>868.0000000000001</ele><time>2026-04-25T09:21:03Z</time></trkpt><trkpt lat="44.726612220554706" lon="9.800481472399122"><ele>867.0</ele><time>2026-04-25T09:21:05Z</time></trkpt><trkpt lat="44.72658617819059" lon="9.80039808424903"><ele>866.0</ele><time>2026-04-25T09:21:06Z</time></trkpt><trkpt lat="44.72657241486493" lon="9.800297601189747"><ele>865.0</ele><time>2026-04-25T09:21:08Z</time></trkpt><trkpt lat="44.726559237141394" lon="9.800176359351857"><ele>864.0000000000001</ele><time>2026-04-25T09:21:10Z</time></trkpt><trkpt lat="44.72654658594198" lon="9.800056526051195"><ele>863.0</ele><time>2026-04-25T09:21:12Z</time></trkpt><trkpt lat="44.72654037588137" lon="9.7999360457928"><ele>865.0000000000001</ele><time>2026-04-25T09:21:14Z</time></trkpt><trkpt lat="44.72653751977638" lon="9.799811585579112"><ele>867.0</ele><time>2026-04-25T09:21:15.999Z</time></trkpt><trkpt lat="44.72653176224913" lon="9.799695289924133"><ele>869.0</ele><time>2026-04-25T09:21:17.999Z</time></trkpt><trkpt lat="44.726533840968756" lon="9.799574645394989"><ele>871.0</ele><time>2026-04-25T09:21:19.999Z</time></trkpt><trkpt lat="44.726525846627055" lon="9.799449674361401"><ele>873.0000000000001</ele><time>2026-04-25T09:21:21.999Z</time></trkpt><trkpt lat="44.7265213551884" lon="9.7993191690874"><ele>875.0</ele><time>2026-04-25T09:21:23.999Z</time></trkpt><trkpt lat="44.72650522237558" lon="9.799188050052777"><ele>876.75</ele><time>2026-04-25T09:21:25.999Z</time></trkpt><trkpt lat="44.72650782294717" lon="9.799079400529969"><ele>878.5</ele><time>2026-04-25T09:21:27.999Z</time></trkpt><trkpt lat="44.726461486435205" lon="9.798997297119262"><ele>880.25</ele><time>2026-04-25T09:21:30.999Z</time></trkpt><trkpt lat="44.72630895529888" lon="9.798781707883922"><ele>882.0</ele><time>2026-04-25T09:21:33.999Z</time></trkpt><trkpt lat="44.72622525429011" lon="9.798727687262446"><ele>882.0</ele><time>2026-04-25T09:21:35.999Z</time></trkpt><trkpt lat="44.726141437565914" lon="9.798679371599313"><ele>882.0</ele><time>2026-04-25T09:21:37.999Z</time></trkpt><trkpt lat="44.72605276892982" lon="9.798642515101115"><ele>882.0</ele><time>2026-04-25T09:21:39.999Z</time></trkpt><trkpt lat="44.725965938153685" lon="9.79860404759593"><ele>882.0</ele><time>2026-04-25T09:21:41.999Z</time></trkpt><trkpt lat="44.725878475026704" lon="9.798559295232408"><ele>882.0</ele><time>2026-04-25T09:21:43.999Z</time></trkpt><trkpt lat="44.72579565125656" lon="9.798496358619303"><ele>882.4000000000001</ele><time>2026-04-25T09:21:45.999Z</time></trkpt><trkpt lat="44.725716732904814" lon="9.798420662888928"><ele>882.8000000000001</ele><time>2026-04-25T09:21:47.999Z</time></trkpt><trkpt lat="44.72564202596261" lon="9.798345311065605"><ele>883.2</ele><time>2026-04-25T09:21:49.999Z</time></trkpt><trkpt lat="44.72556694705417" lon="9.798266988484215"><ele>883.6</ele><time>2026-04-25T09:21:51.999Z</time></trkpt><trkpt lat="44.725493805118404" lon="9.7981783203675"><ele>884.0</ele><time>2026-04-25T09:21:53.999Z</time></trkpt><trkpt lat="44.7254204304195" lon="9.798098663224296"><ele>884.0</ele><time>2026-04-25T09:21:55.999Z</time></trkpt><trkpt lat="44.72535019963087" lon="9.798000129873461"><ele>884.0000000000001</ele><time>2026-04-25T09:21:57.999Z</time></trkpt><trkpt lat="44.72528081351501" lon="9.797903329290573"><ele>884.0000000000001</ele><time>2026-04-25T09:21:59.999Z</time></trkpt><trkpt lat="44.72520491756158" lon="9.79780208359087"><ele>884.0</ele><time>2026-04-25T09:22:01.999Z</time></trkpt><trkpt lat="44.72513433100369" lon="9.79768761424464"><ele>884.0</ele><time>2026-04-25T09:22:03.999Z</time></trkpt><trkpt lat="44.725069490496075" lon="9.79756284409874"><ele>882.25</ele><time>2026-04-25T09:22:05.999Z</time></trkpt><trkpt lat="44.725006458705906" lon="9.797434811720597"><ele>880.5</ele><time>2026-04-25T09:22:07.999Z</time></trkpt><trkpt lat="44.72494706502717" lon="9.797303029418407"><ele>878.75</ele><time>2026-04-25T09:22:09.999Z</time></trkpt><trkpt lat="44.72489711612012" lon="9.797152717860948"><ele>877.0</ele><time>2026-04-25T09:22:11.998Z</time></trkpt><trkpt lat="44.72485357449772" lon="9.796989156579349"><ele>879.6666666666666</ele><time>2026-04-25T09:22:13.998Z</time></trkpt><trkpt lat="44.72480494642787" lon="9.79682882071336"><ele>882.3333333333333</ele><time>2026-04-25T09:22:15.998Z</time></trkpt><trkpt lat="44.72477569415661" lon="9.79674794820751"><ele>885.0</ele><time>2026-04-25T09:22:16.998Z</time></trkpt><trkpt lat="44.72474210034153" lon="9.796668066760102"><ele>887.6666666666667</ele><time>2026-04-25T09:22:17.998Z</time></trkpt><trkpt lat="44.72470087869876" lon="9.796587881240216"><ele>890.3333333333334</ele><time>2026-04-25T09:22:18.998Z</time></trkpt><trkpt lat="44.72465261304941" lon="9.796515333198547"><ele>893.0</ele><time>2026-04-25T09:22:19.998Z</time></trkpt><trkpt lat="44.7246043918695" lon="9.796440631731052"><ele>893.0</ele><time>2026-04-25T09:22:20.998Z</time></trkpt><trkpt lat="44.72455391572742" lon="9.79637337112963"><ele>893.0</ele><time>2026-04-25T09:22:21.998Z</time></trkpt><trkpt lat="44.72449829268161" lon="9.796316496623046"><ele>893.0</ele><time>2026-04-25T09:22:22.998Z</time></trkpt><trkpt lat="44.72443796721643" lon="9.796259729191204"><ele>893.0</ele><time>2026-04-25T09:22:23.998Z</time></trkpt><trkpt lat="44.724376614457064" lon="9.796206568889396"><ele>893.0</ele><time>2026-04-25T09:22:24.998Z</time></trkpt><trkpt lat="44.724316340324044" lon="9.796145572889692"><ele>893.0</ele><time>2026-04-25T09:22:25.998Z</time></trkpt><trkpt lat="44.72426019971368" lon="9.79607829018337"><ele>893.0</ele><time>2026-04-25T09:22:26.998Z</time></trkpt><trkpt lat="44.72421106471481" lon="9.7959950496835"><ele>890.5000000000001</ele><time>2026-04-25T09:22:27.998Z</time></trkpt><trkpt lat="44.724167861201664" lon="9.79590725564937"><ele>888.0</ele><time>2026-04-25T09:22:28.998Z</time></trkpt><trkpt lat="44.72412800693077" lon="9.795812655729513"><ele>885.5</ele><time>2026-04-25T09:22:29.998Z</time></trkpt><trkpt lat="44.72408869915383" lon="9.795718672097651"><ele>883.0</ele><time>2026-04-25T09:22:30.998Z</time></trkpt><trkpt lat="44.72404927614735" lon="9.795624145313639"><ele>880.5000000000001</ele><time>2026-04-25T09:22:31.998Z</time></trkpt><trkpt lat="44.72400895594171" lon="9.795531142253925"><ele>878.0</ele><time>2026-04-25T09:22:32.998Z</time></trkpt><trkpt lat="44.7239680312672" lon="9.795439300036248"><ele>878.0000000000001</ele><time>2026-04-25T09:22:33.998Z</time></trkpt><trkpt lat="44.72392131803121" lon="9.795353341382551"><ele>878.0</ele><time>2026-04-25T09:22:34.998Z</time></trkpt><trkpt lat="44.723874698676404" lon="9.795267590961997"><ele>878.0</ele><time>2026-04-25T09:22:35.998Z</time></trkpt><trkpt lat="44.72382359651239" lon="9.795187383542507"><ele>878.0</ele><time>2026-04-25T09:22:36.998Z</time></trkpt><trkpt lat="44.72376697517591" lon="9.795114619377788"><ele>878.0000000000001</ele><time>2026-04-25T09:22:37.998Z</time></trkpt><trkpt lat="44.72371042113167" lon="9.795042797991602"><ele>878.0</ele><time>2026-04-25T09:22:38.998Z</time></trkpt><trkpt lat="44.72365144490077" lon="9.794972348574083"><ele>876.3333333333334</ele><time>2026-04-25T09:22:39.998Z</time></trkpt><trkpt lat="44.7235936677654" lon="9.794904732950984"><ele>874.6666666666667</ele><time>2026-04-25T09:22:40.998Z</time></trkpt><trkpt lat="44.72353362361414" lon="9.794841762717885"><ele>873.0</ele><time>2026-04-25T09:22:41.998Z</time></trkpt><trkpt lat="44.72347190640188" lon="9.794776981105294"><ele>871.3333333333333</ele><time>2026-04-25T09:22:42.998Z</time></trkpt><trkpt lat="44.72341270031641" lon="9.794711826046198"><ele>869.6666666666666</ele><time>2026-04-25T09:22:43.998Z</time></trkpt><trkpt lat="44.7233501920796" lon="9.79464767627789"><ele>868.0</ele><time>2026-04-25T09:22:44.998Z</time></trkpt><trkpt lat="44.72328784838054" lon="9.794588660288115"><ele>867.9999999999999</ele><time>2026-04-25T09:22:45.998Z</time></trkpt><trkpt lat="44.72322527367549" lon="9.794531648526267"><ele>868.0</ele><time>2026-04-25T09:22:46.998Z</time></trkpt><trkpt lat="44.72315643739071" lon="9.794483489196265"><ele>868.0</ele><time>2026-04-25T09:22:47.998Z</time></trkpt><trkpt lat="44.723081169689564" lon="9.794456835588987"><ele>868.0</ele><time>2026-04-25T09:22:48.998Z</time></trkpt><trkpt lat="44.7230017092413" lon="9.794453251473024"><ele>867.9999999999999</ele><time>2026-04-25T09:22:49.998Z</time></trkpt><trkpt lat="44.72292251437719" lon="9.794478126725085"><ele>868.0</ele><time>2026-04-25T09:22:50.998Z</time></trkpt><trkpt lat="44.72284779796646" lon="9.794522723873596"><ele>867.9999999999999</ele><time>2026-04-25T09:22:51.998Z</time></trkpt><trkpt lat="44.72277345806789" lon="9.79456304485387"><ele>868.0</ele><time>2026-04-25T09:22:52.998Z</time></trkpt><trkpt lat="44.72269447896606" lon="9.794589560786608"><ele>868.0</ele><time>2026-04-25T09:22:54Z</time></trkpt><trkpt lat="44.7226123463979" lon="9.79459219458506"><ele>868.0</ele><time>2026-04-25T09:22:55Z</time></trkpt><trkpt lat="44.72252856881759" lon="9.794564668789048"><ele>867.9999999999999</ele><time>2026-04-25T09:22:56Z</time></trkpt><trkpt lat="44.72244739753823" lon="9.794525716781195"><ele>868.0</ele><time>2026-04-25T09:22:57Z</time></trkpt><trkpt lat="44.722363457521965" lon="9.794493206275844"><ele>867.4999999999999</ele><time>2026-04-25T09:22:58Z</time></trkpt><trkpt lat="44.7222776107885" lon="9.794465857628824"><ele>867.0</ele><time>2026-04-25T09:22:59Z</time></trkpt><trkpt lat="44.72219141592265" lon="9.794451363297044"><ele>866.5</ele><time>2026-04-25T09:23:00Z</time></trkpt><trkpt lat="44.72210002223888" lon="9.79446568629893"><ele>866.0</ele><time>2026-04-25T09:23:01Z</time></trkpt><trkpt lat="44.722016148569224" lon="9.794509101671665"><ele>865.4999999999999</ele><time>2026-04-25T09:23:02Z</time></trkpt><trkpt lat="44.72194007166084" lon="9.794567055822242"><ele>865.0</ele><time>2026-04-25T09:23:03Z</time></trkpt><trkpt lat="44.72187485004107" lon="9.794662406071685"><ele>864.9999999999999</ele><time>2026-04-25T09:23:04Z</time></trkpt><trkpt lat="44.721806251855135" lon="9.794742921927966"><ele>865.0</ele><time>2026-04-25T09:23:05Z</time></trkpt><trkpt lat="44.72174657749263" lon="9.794824059810715"><ele>865.0</ele><time>2026-04-25T09:23:06Z</time></trkpt><trkpt lat="44.72168619251142" lon="9.794907626547179"><ele>865.0</ele><time>2026-04-25T09:23:07Z</time></trkpt><trkpt lat="44.72162493821023" lon="9.794991585640288"><ele>864.9999999999999</ele><time>2026-04-25T09:23:08Z</time></trkpt><trkpt lat="44.72156611427281" lon="9.795078082897728"><ele>865.0</ele><time>2026-04-25T09:23:09Z</time></trkpt><trkpt lat="44.721511656704195" lon="9.795169193284819"><ele>862.9999999999999</ele><time>2026-04-25T09:23:10Z</time></trkpt><trkpt lat="44.7214633444795" lon="9.795263698999618"><ele>861.0</ele><time>2026-04-25T09:23:11Z</time></trkpt><trkpt lat="44.721417018209245" lon="9.795360839495036"><ele>859.0</ele><time>2026-04-25T09:23:12Z</time></trkpt><trkpt lat="44.721376088913416" lon="9.795459540741417"><ele>857.0</ele><time>2026-04-25T09:23:13Z</time></trkpt><trkpt lat="44.721339766166196" lon="9.79556235685044"><ele>854.9999999999999</ele><time>2026-04-25T09:23:14Z</time></trkpt><trkpt lat="44.721321087542414" lon="9.79567654182534"><ele>853.0</ele><time>2026-04-25T09:23:15Z</time></trkpt><trkpt lat="44.72132598790113" lon="9.795793861772628"><ele>852.9999999999999</ele><time>2026-04-25T09:23:16Z</time></trkpt><trkpt lat="44.72135285326204" lon="9.7959086219242"><ele>853.0</ele><time>2026-04-25T09:23:17Z</time></trkpt><trkpt lat="44.721394830703694" lon="9.796012003475692"><ele>853.0</ele><time>2026-04-25T09:23:18Z</time></trkpt><trkpt lat="44.721439550120955" lon="9.796112119258517"><ele>853.0</ele><time>2026-04-25T09:23:18.999Z</time></trkpt><trkpt lat="44.721463775935135" lon="9.796221339229525"><ele>852.9999999999999</ele><time>2026-04-25T09:23:19.999Z</time></trkpt><trkpt lat="44.72143942887969" lon="9.796335294346857"><ele>853.0</ele><time>2026-04-25T09:23:20.999Z</time></trkpt><trkpt lat="44.721369699660606" lon="9.796422643900451"><ele>851.9999999999999</ele><time>2026-04-25T09:23:21.999Z</time></trkpt><trkpt lat="44.721280632550716" lon="9.79645673646941"><ele>851.0</ele><time>2026-04-25T09:23:22.999Z</time></trkpt><trkpt lat="44.721193474039595" lon="9.79642446366543"><ele>850.0</ele><time>2026-04-25T09:23:23.999Z</time></trkpt><trkpt lat="44.72112080802295" lon="9.796356173910905"><ele>849.0</ele><time>2026-04-25T09:23:24.999Z</time></trkpt><trkpt lat="44.721059458097706" lon="9.796282476487137"><ele>847.9999999999999</ele><time>2026-04-25T09:23:25.999Z</time></trkpt><trkpt lat="44.72100103747398" lon="9.796214935464976"><ele>847.0</ele><time>2026-04-25T09:23:26.999Z</time></trkpt><trkpt lat="44.720940369668924" lon="9.796154760258004"><ele>846.4285714285714</ele><time>2026-04-25T09:23:27.999Z</time></trkpt><trkpt lat="44.72087646213352" lon="9.796097213378307"><ele>845.8571428571429</ele><time>2026-04-25T09:23:28.999Z</time></trkpt><trkpt lat="44.720811729571615" lon="9.796044823975384"><ele>845.2857142857142</ele><time>2026-04-25T09:23:29.999Z</time></trkpt><trkpt lat="44.72074135934199" lon="9.796006328660681"><ele>844.7142857142858</ele><time>2026-04-25T09:23:30.999Z</time></trkpt><trkpt lat="44.72066900591946" lon="9.795979285576818"><ele>844.1428571428571</ele><time>2026-04-25T09:23:31.999Z</time></trkpt><trkpt lat="44.72060191390677" lon="9.79596359355159"><ele>843.5714285714286</ele><time>2026-04-25T09:23:32.999Z</time></trkpt><trkpt lat="44.720533911681564" lon="9.795948103506396"><ele>843.0</ele><time>2026-04-25T09:23:33.999Z</time></trkpt><trkpt lat="44.72046574883306" lon="9.795949456935412"><ele>844.4285714285714</ele><time>2026-04-25T09:23:34.999Z</time></trkpt><trkpt lat="44.72040047531" lon="9.795948423928156"><ele>845.8571428571429</ele><time>2026-04-25T09:23:35.999Z</time></trkpt><trkpt lat="44.720335957293536" lon="9.79594743307134"><ele>847.2857142857142</ele><time>2026-04-25T09:23:36.999Z</time></trkpt><trkpt lat="44.720267733547615" lon="9.795952138708586"><ele>848.7142857142858</ele><time>2026-04-25T09:23:37.999Z</time></trkpt><trkpt lat="44.72019904915552" lon="9.795960649482524"><ele>850.1428571428572</ele><time>2026-04-25T09:23:38.999Z</time></trkpt><trkpt lat="44.72012996964951" lon="9.7959732300973"><ele>851.5714285714286</ele><time>2026-04-25T09:23:39.999Z</time></trkpt><trkpt lat="44.72006034297097" lon="9.795985199482882"><ele>853.0</ele><time>2026-04-25T09:23:40.999Z</time></trkpt><trkpt lat="44.719990010877794" lon="9.795993586288027"><ele>852.9999999999999</ele><time>2026-04-25T09:23:41.999Z</time></trkpt><trkpt lat="44.71991831861625" lon="9.796002211040795"><ele>853.0</ele><time>2026-04-25T09:23:42.999Z</time></trkpt><trkpt lat="44.719846368054135" lon="9.796008030153137"><ele>853.0</ele><time>2026-04-25T09:23:43.999Z</time></trkpt><trkpt lat="44.719777549315495" lon="9.795980451321919"><ele>853.0</ele><time>2026-04-25T09:23:44.999Z</time></trkpt><trkpt lat="44.7197308553629" lon="9.795900126496669"><ele>852.9999999999999</ele><time>2026-04-25T09:23:45.999Z</time></trkpt><trkpt lat="44.71973664350348" lon="9.79577829322249"><ele>853.0</ele><time>2026-04-25T09:23:46.999Z</time></trkpt><trkpt lat="44.71971691481286" lon="9.79567626869876"><ele>852.9999999999999</ele><time>2026-04-25T09:23:47.999Z</time></trkpt><trkpt lat="44.71971190803103" lon="9.79556991284426"><ele>853.0</ele><time>2026-04-25T09:23:48.999Z</time></trkpt><trkpt lat="44.71968706911696" lon="9.795467726683867"><ele>853.0</ele><time>2026-04-25T09:23:49.999Z</time></trkpt><trkpt lat="44.71964550196964" lon="9.795373275330936"><ele>853.0</ele><time>2026-04-25T09:23:50.999Z</time></trkpt><trkpt lat="44.71959250828618" lon="9.795285971225052"><ele>852.9999999999999</ele><time>2026-04-25T09:23:51.999Z</time></trkpt><trkpt lat="44.71953321734284" lon="9.79520379870859"><ele>853.0</ele><time>2026-04-25T09:23:52.999Z</time></trkpt><trkpt lat="44.71948283515165" lon="9.795109480779468"><ele>853.9999999999999</ele><time>2026-04-25T09:23:53.999Z</time></trkpt><trkpt lat="44.71944578575565" lon="9.794998710241588"><ele>855.0</ele><time>2026-04-25T09:23:54.999Z</time></trkpt><trkpt lat="44.71941009133413" lon="9.794891935386714"><ele>856.0</ele><time>2026-04-25T09:23:55.999Z</time></trkpt><trkpt lat="44.7193690498368" lon="9.794785334168893"><ele>857.0</ele><time>2026-04-25T09:23:56.999Z</time></trkpt><trkpt lat="44.71932257053651" lon="9.794682697338695"><ele>857.9999999999999</ele><time>2026-04-25T09:23:57.999Z</time></trkpt><trkpt lat="44.71927108068703" lon="9.794586027657854"><ele>859.0</ele><time>2026-04-25T09:23:58.999Z</time></trkpt><trkpt lat="44.719220029314975" lon="9.794486447457896"><ele>857.1666666666666</ele><time>2026-04-25T09:23:59.999Z</time></trkpt><trkpt lat="44.719171535522975" lon="9.794388550507222"><ele>855.3333333333333</ele><time>2026-04-25T09:24:00.999Z</time></trkpt><trkpt lat="44.71913997985096" lon="9.79427833928627"><ele>853.5</ele><time>2026-04-25T09:24:01.999Z</time></trkpt><trkpt lat="44.71912335602137" lon="9.794160617020106"><ele>851.6666666666667</ele><time>2026-04-25T09:24:02.999Z</time></trkpt><trkpt lat="44.71911230298055" lon="9.794046323308354"><ele>849.8333333333334</ele><time>2026-04-25T09:24:03.999Z</time></trkpt><trkpt lat="44.719096005947954" lon="9.793932616366419"><ele>848.0</ele><time>2026-04-25T09:24:04.999Z</time></trkpt><trkpt lat="44.719075552973486" lon="9.79381754743057"><ele>848.0000000000001</ele><time>2026-04-25T09:24:05.999Z</time></trkpt><trkpt lat="44.71904542684539" lon="9.793701846200348"><ele>848.0</ele><time>2026-04-25T09:24:06.999Z</time></trkpt><trkpt lat="44.71901635000498" lon="9.793586655736583"><ele>848.0</ele><time>2026-04-25T09:24:07.999Z</time></trkpt><trkpt lat="44.71898531925359" lon="9.793471205745742"><ele>848.0</ele><time>2026-04-25T09:24:08.999Z</time></trkpt><trkpt lat="44.71894625797289" lon="9.793362391140736"><ele>848.0000000000001</ele><time>2026-04-25T09:24:09.999Z</time></trkpt><trkpt lat="44.71889786847792" lon="9.79325710381937"><ele>848.0</ele><time>2026-04-25T09:24:10.999Z</time></trkpt><trkpt lat="44.718841758953" lon="9.793162823365128"><ele>846.6666666666667</ele><time>2026-04-25T09:24:11.999Z</time></trkpt><trkpt lat="44.71877930443639" lon="9.793076092723451"><ele>845.3333333333334</ele><time>2026-04-25T09:24:12.999Z</time></trkpt><trkpt lat="44.71871547781404" lon="9.792996810413772"><ele>844.0</ele><time>2026-04-25T09:24:13.998Z</time></trkpt><trkpt lat="44.71865694142322" lon="9.79292499054755"><ele>842.6666666666667</ele><time>2026-04-25T09:24:14.998Z</time></trkpt><trkpt lat="44.71859663134998" lon="9.792848896094721"><ele>841.3333333333334</ele><time>2026-04-25T09:24:15.998Z</time></trkpt><trkpt lat="44.718540446785134" lon="9.792779584737268"><ele>840.0</ele><time>2026-04-25T09:24:16.998Z</time></trkpt><trkpt lat="44.71848162822527" lon="9.792714425487915"><ele>840.7142857142857</ele><time>2026-04-25T09:24:17.998Z</time></trkpt><trkpt lat="44.7184201633145" lon="9.79265409095144"><ele>841.4285714285714</ele><time>2026-04-25T09:24:18.998Z</time></trkpt><trkpt lat="44.71835824931654" lon="9.792599997458558"><ele>842.1428571428571</ele><time>2026-04-25T09:24:19.998Z</time></trkpt><trkpt lat="44.71829595713983" lon="9.792546409885594"><ele>842.8571428571429</ele><time>2026-04-25T09:24:20.998Z</time></trkpt><trkpt lat="44.71823424578318" lon="9.792487424208879"><ele>843.5714285714286</ele><time>2026-04-25T09:24:21.998Z</time></trkpt><trkpt lat="44.71817881814365" lon="9.792412284777285"><ele>844.2857142857142</ele><time>2026-04-25T09:24:22.998Z</time></trkpt><trkpt lat="44.7181255864667" lon="9.79233521891295"><ele>845.0</ele><time>2026-04-25T09:24:23.998Z</time></trkpt><trkpt lat="44.7180772572573" lon="9.792253841677477"><ele>845.0000000000001</ele><time>2026-04-25T09:24:24.998Z</time></trkpt><trkpt lat="44.71803087029555" lon="9.792168371626573"><ele>845.0</ele><time>2026-04-25T09:24:25.998Z</time></trkpt><trkpt lat="44.717984026033584" lon="9.792079895963036"><ele>845.0</ele><time>2026-04-25T09:24:26.998Z</time></trkpt><trkpt lat="44.71793869643687" lon="9.7919882296974"><ele>845.0</ele><time>2026-04-25T09:24:27.998Z</time></trkpt><trkpt lat="44.71789002038482" lon="9.79189902783533"><ele>845.0000000000001</ele><time>2026-04-25T09:24:28.998Z</time></trkpt><trkpt lat="44.71783406273795" lon="9.791816415397522"><ele>845.0</ele><time>2026-04-25T09:24:29.998Z</time></trkpt><trkpt lat="44.717772555169894" lon="9.791747059360796"><ele>843.8333333333334</ele><time>2026-04-25T09:24:30.998Z</time></trkpt><trkpt lat="44.71770445489504" lon="9.791689550349567"><ele>842.6666666666667</ele><time>2026-04-25T09:24:31.998Z</time></trkpt><trkpt lat="44.717635514908466" lon="9.791645136067087"><ele>841.5</ele><time>2026-04-25T09:24:32.998Z</time></trkpt><trkpt lat="44.717562611480325" lon="9.791610088449689"><ele>840.3333333333333</ele><time>2026-04-25T09:24:33.998Z</time></trkpt><trkpt lat="44.71748687005533" lon="9.791570304777784"><ele>839.1666666666666</ele><time>2026-04-25T09:24:34.998Z</time></trkpt><trkpt lat="44.717414154687454" lon="9.791525588240903"><ele>838.0</ele><time>2026-04-25T09:24:35.998Z</time></trkpt><trkpt lat="44.71734196837118" lon="9.791485383578767"><ele>837.9999999999999</ele><time>2026-04-25T09:24:36.998Z</time></trkpt><trkpt lat="44.717273960642295" lon="9.79144320878228"><ele>838.0</ele><time>2026-04-25T09:24:37.998Z</time></trkpt><trkpt lat="44.71721270205267" lon="9.791403021586781"><ele>838.0</ele><time>2026-04-25T09:24:38.998Z</time></trkpt><trkpt lat="44.71715432332336" lon="9.791369378389934"><ele>838.0</ele><time>2026-04-25T09:24:39.998Z</time></trkpt><trkpt lat="44.717045380401" lon="9.79132216107794"><ele>837.9999999999999</ele><time>2026-04-25T09:24:41.998Z</time></trkpt><trkpt lat="44.71694506695794" lon="9.791298389066764"><ele>838.0</ele><time>2026-04-25T09:24:43.998Z</time></trkpt><trkpt lat="44.71685364883715" lon="9.791276265072208"><ele>836.9999999999999</ele><time>2026-04-25T09:24:45.998Z</time></trkpt><trkpt lat="44.716798478372844" lon="9.791454796829408"><ele>836.0</ele><time>2026-04-25T09:24:46.998Z</time></trkpt><trkpt lat="44.716757655277796" lon="9.791529533970083"><ele>835.0</ele><time>2026-04-25T09:24:47.998Z</time></trkpt><trkpt lat="44.71670453310036" lon="9.791600596597611"><ele>834.0</ele><time>2026-04-25T09:24:48.998Z</time></trkpt><trkpt lat="44.71662724832863" lon="9.79164911396736"><ele>832.9999999999999</ele><time>2026-04-25T09:24:49.998Z</time></trkpt><trkpt lat="44.71655778995061" lon="9.791682563007491"><ele>832.0</ele><time>2026-04-25T09:24:50.998Z</time></trkpt><trkpt lat="44.71648303056329" lon="9.791733635896737"><ele>831.9999999999999</ele><time>2026-04-25T09:24:51.998Z</time></trkpt><trkpt lat="44.71640093585136" lon="9.791752015539275"><ele>832.0</ele><time>2026-04-25T09:24:52.998Z</time></trkpt><trkpt lat="44.71631998729749" lon="9.791773434199358"><ele>832.0</ele><time>2026-04-25T09:24:53.998Z</time></trkpt><trkpt lat="44.716244902272955" lon="9.791792464985997"><ele>832.0</ele><time>2026-04-25T09:24:54.998Z</time></trkpt><trkpt lat="44.71617202588463" lon="9.791815279550553"><ele>831.9999999999999</ele><time>2026-04-25T09:24:55.998Z</time></trkpt><trkpt lat="44.71610131774071" lon="9.791811089101998"><ele>832.0</ele><time>2026-04-25T09:24:56.998Z</time></trkpt><trkpt lat="44.71603833692896" lon="9.791818809078249"><ele>831.1666666666666</ele><time>2026-04-25T09:24:57.998Z</time></trkpt><trkpt lat="44.71591550635229" lon="9.791834799944082"><ele>830.3333333333333</ele><time>2026-04-25T09:25:00Z</time></trkpt><trkpt lat="44.71584911431672" lon="9.791822936221754"><ele>829.5</ele><time>2026-04-25T09:25:01Z</time></trkpt><trkpt lat="44.71577903773255" lon="9.791802605800116"><ele>828.6666666666667</ele><time>2026-04-25T09:25:02Z</time></trkpt><trkpt lat="44.715716836526155" lon="9.791785290230523"><ele>827.8333333333334</ele><time>2026-04-25T09:25:03Z</time></trkpt><trkpt lat="44.71561391180039" lon="9.791753941684505"><ele>827.0</ele><time>2026-04-25T09:25:05Z</time></trkpt><trkpt lat="44.71554235466411" lon="9.791709427181027"><ele>827.0</ele><time>2026-04-25T09:25:08Z</time></trkpt><trkpt lat="44.71547326528181" lon="9.79171015384028"><ele>827.0</ele><time>2026-04-25T09:29:43.999Z</time></trkpt><trkpt lat="44.715391319600506" lon="9.791657705152886"><ele>827.0</ele><time>2026-04-25T09:29:46.999Z</time></trkpt><trkpt lat="44.71531958695031" lon="9.791592016539148"><ele>827.0</ele><time>2026-04-25T09:29:48.999Z</time></trkpt><trkpt lat="44.7152322030328" lon="9.791525685691584"><ele>827.0</ele><time>2026-04-25T09:29:50.999Z</time></trkpt><trkpt lat="44.715133540072486" lon="9.791437385822896"><ele>826.0</ele><time>2026-04-25T09:29:52.999Z</time></trkpt><trkpt lat="44.71507828779289" lon="9.79138807611041"><ele>825.0</ele><time>2026-04-25T09:29:53.999Z</time></trkpt><trkpt lat="44.715021038328885" lon="9.791335399615798"><ele>824.0</ele><time>2026-04-25T09:29:54.999Z</time></trkpt><trkpt lat="44.71496176936692" lon="9.79127900521561"><ele>823.0</ele><time>2026-04-25T09:29:55.999Z</time></trkpt><trkpt lat="44.71490286790698" lon="9.791211740247807"><ele>822.0</ele><time>2026-04-25T09:29:56.999Z</time></trkpt><trkpt lat="44.714852387814126" lon="9.791128224530787"><ele>821.0</ele><time>2026-04-25T09:29:57.999Z</time></trkpt><trkpt lat="44.714810392326555" lon="9.791027080003436"><ele>820.0</ele><time>2026-04-25T09:29:58.999Z</time></trkpt><trkpt lat="44.71477422437982" lon="9.790918943872745"><ele>819.9999999999999</ele><time>2026-04-25T09:29:59.999Z</time></trkpt><trkpt lat="44.71475036070769" lon="9.790802996881087"><ele>820.0</ele><time>2026-04-25T09:30:00.999Z</time></trkpt><trkpt lat="44.71474853686602" lon="9.790680540197002"><ele>820.0</ele><time>2026-04-25T09:30:01.999Z</time></trkpt><trkpt lat="44.71476582291493" lon="9.790557140637935"><ele>820.0</ele><time>2026-04-25T09:30:02.999Z</time></trkpt><trkpt lat="44.7148007253504" lon="9.790436105891043"><ele>819.9999999999999</ele><time>2026-04-25T09:30:03.999Z</time></trkpt><trkpt lat="44.71483231430532" lon="9.79031455659619"><ele>820.0</ele><time>2026-04-25T09:30:04.999Z</time></trkpt><trkpt lat="44.71485763568841" lon="9.790191948435831"><ele>819.4</ele><time>2026-04-25T09:30:05.999Z</time></trkpt><trkpt lat="44.714890365855624" lon="9.790071132156058"><ele>818.8</ele><time>2026-04-25T09:30:06.999Z</time></trkpt><trkpt lat="44.714923778965066" lon="9.789949416849636"><ele>818.2</ele><time>2026-04-25T09:30:07.999Z</time></trkpt><trkpt lat="44.71496302882863" lon="9.789827961975105"><ele>817.6</ele><time>2026-04-25T09:30:08.999Z</time></trkpt><trkpt lat="44.71500408261995" lon="9.78970737301182"><ele>817.0</ele><time>2026-04-25T09:30:09.999Z</time></trkpt><trkpt lat="44.715034976826644" lon="9.789581347891438"><ele>817.0</ele><time>2026-04-25T09:30:10.999Z</time></trkpt><trkpt lat="44.715057449462975" lon="9.789450027324818"><ele>817.0</ele><time>2026-04-25T09:30:11.999Z</time></trkpt><trkpt lat="44.715064153517176" lon="9.789311472188498"><ele>817.0</ele><time>2026-04-25T09:30:12.999Z</time></trkpt><trkpt lat="44.71505400404076" lon="9.789168503689305"><ele>817.0</ele><time>2026-04-25T09:30:13.999Z</time></trkpt><trkpt lat="44.715027695243734" lon="9.78902844608021"><ele>817.0</ele><time>2026-04-25T09:30:14.999Z</time></trkpt><trkpt lat="44.71498164329514" lon="9.788894721359032"><ele>817.4000000000001</ele><time>2026-04-25T09:30:15.999Z</time></trkpt><trkpt lat="44.714921797181084" lon="9.788775550046092"><ele>817.8000000000001</ele><time>2026-04-25T09:30:16.999Z</time></trkpt><trkpt lat="44.71485357697686" lon="9.788677032888803"><ele>818.2</ele><time>2026-04-25T09:30:17.999Z</time></trkpt><trkpt lat="44.71477920955896" lon="9.788592097264681"><ele>818.6</ele><time>2026-04-25T09:30:18.999Z</time></trkpt><trkpt lat="44.71469450947926" lon="9.788529143696154"><ele>819.0</ele><time>2026-04-25T09:30:19.999Z</time></trkpt><trkpt lat="44.71461265131058" lon="9.78846532857306"><ele>821.2</ele><time>2026-04-25T09:30:20.999Z</time></trkpt><trkpt lat="44.714539001360066" lon="9.788380529323108"><ele>823.4000000000001</ele><time>2026-04-25T09:30:21.999Z</time></trkpt><trkpt lat="44.71448927396502" lon="9.788262247321123"><ele>825.6</ele><time>2026-04-25T09:30:22.999Z</time></trkpt><trkpt lat="44.714473919280934" lon="9.78812676372245"><ele>827.8</ele><time>2026-04-25T09:30:23.999Z</time></trkpt><trkpt lat="44.71449146628861" lon="9.787993811702517"><ele>830.0</ele><time>2026-04-25T09:30:24.999Z</time></trkpt><trkpt lat="44.714539815671365" lon="9.787889582652289"><ele>830.0000000000001</ele><time>2026-04-25T09:30:25.999Z</time></trkpt><trkpt lat="44.714583519653075" lon="9.78778543519633"><ele>830.0</ele><time>2026-04-25T09:30:26.999Z</time></trkpt><trkpt lat="44.7146039299879" lon="9.787667325142628"><ele>830.0</ele><time>2026-04-25T09:30:27.999Z</time></trkpt><trkpt lat="44.71461398631351" lon="9.787554368548546"><ele>830.0</ele><time>2026-04-25T09:30:28.999Z</time></trkpt><trkpt lat="44.71461670268549" lon="9.78744535991745"><ele>830.0000000000001</ele><time>2026-04-25T09:30:29.999Z</time></trkpt><trkpt lat="44.71461969895243" lon="9.787344465291348"><ele>830.0</ele><time>2026-04-25T09:30:30.999Z</time></trkpt><trkpt lat="44.71461047733666" lon="9.787244454541764"><ele>830.7142857142858</ele><time>2026-04-25T09:30:31.999Z</time></trkpt><trkpt lat="44.714598459419186" lon="9.787147787108257"><ele>831.4285714285714</ele><time>2026-04-25T09:30:32.998Z</time></trkpt><trkpt lat="44.71458525553431" lon="9.787055878206685"><ele>832.1428571428571</ele><time>2026-04-25T09:30:33.998Z</time></trkpt><trkpt lat="44.71457275437936" lon="9.786963955419544"><ele>832.8571428571429</ele><time>2026-04-25T09:30:34.998Z</time></trkpt><trkpt lat="44.714557818006625" lon="9.786876354712215"><ele>833.5714285714286</ele><time>2026-04-25T09:30:35.998Z</time></trkpt><trkpt lat="44.71454121579461" lon="9.786789656510768"><ele>834.2857142857143</ele><time>2026-04-25T09:30:36.998Z</time></trkpt><trkpt lat="44.71452405937167" lon="9.786703425746664"><ele>835.0</ele><time>2026-04-25T09:30:37.998Z</time></trkpt><trkpt lat="44.71449340026332" lon="9.786531822993672"><ele>835.0</ele><time>2026-04-25T09:30:39.998Z</time></trkpt><trkpt lat="44.71446805355563" lon="9.786365514048178"><ele>835.0</ele><time>2026-04-25T09:30:41.998Z</time></trkpt><trkpt lat="44.71448396298179" lon="9.786198173319015"><ele>835.0</ele><time>2026-04-25T09:30:43.998Z</time></trkpt><trkpt lat="44.71456261426705" lon="9.78606731846183"><ele>835.0</ele><time>2026-04-25T09:30:45.998Z</time></trkpt><trkpt lat="44.71466872567152" lon="9.785982926858368"><ele>831.0</ele><time>2026-04-25T09:30:47.998Z</time></trkpt><trkpt lat="44.71476393737263" lon="9.785869089730372"><ele>827.0</ele><time>2026-04-25T09:30:49.998Z</time></trkpt><trkpt lat="44.714837236343804" lon="9.785730601762864"><ele>823.0</ele><time>2026-04-25T09:30:51.998Z</time></trkpt><trkpt lat="44.71489281531402" lon="9.785583019514686"><ele>819.0</ele><time>2026-04-25T09:30:53.998Z</time></trkpt><trkpt lat="44.71493607162308" lon="9.785428065215836"><ele>819.0</ele><time>2026-04-25T09:30:55.998Z</time></trkpt><trkpt lat="44.714957164668284" lon="9.785263705696533"><ele>819.0</ele><time>2026-04-25T09:30:57.998Z</time></trkpt><trkpt lat="44.71494836427263" lon="9.785100729229136"><ele>819.0</ele><time>2026-04-25T09:30:59.998Z</time></trkpt><trkpt lat="44.71490815623354" lon="9.78495032360844"><ele>819.0</ele><time>2026-04-25T09:31:01.998Z</time></trkpt><trkpt lat="44.71485585125633" lon="9.784806718005543"><ele>818.25</ele><time>2026-04-25T09:31:03.998Z</time></trkpt><trkpt lat="44.7148028416824" lon="9.784661506211641"><ele>817.5</ele><time>2026-04-25T09:31:05.998Z</time></trkpt><trkpt lat="44.71475484532767" lon="9.784510349651152"><ele>816.75</ele><time>2026-04-25T09:31:07.998Z</time></trkpt><trkpt lat="44.71471989402804" lon="9.784361640917592"><ele>816.0</ele><time>2026-04-25T09:31:09.998Z</time></trkpt><trkpt lat="44.714709621420575" lon="9.78420664786729"><ele>816.0</ele><time>2026-04-25T09:31:11.998Z</time></trkpt><trkpt lat="44.714715898606045" lon="9.784051645948916"><ele>816.0</ele><time>2026-04-25T09:31:13.998Z</time></trkpt><trkpt lat="44.7147182976652" lon="9.783906687987617"><ele>816.0</ele><time>2026-04-25T09:31:15.998Z</time></trkpt><trkpt lat="44.71471954695996" lon="9.783759443593215"><ele>816.0</ele><time>2026-04-25T09:31:18Z</time></trkpt><trkpt lat="44.71471460636938" lon="9.783619690717833"><ele>816.0</ele><time>2026-04-25T09:31:20Z</time></trkpt><trkpt lat="44.714704465151385" lon="9.783484795163895"><ele>817.4</ele><time>2026-04-25T09:31:22Z</time></trkpt><trkpt lat="44.71469295391487" lon="9.783349133810837"><ele>818.8</ele><time>2026-04-25T09:31:24Z</time></trkpt><trkpt lat="44.71468037463067" lon="9.783221548695607"><ele>820.1999999999999</ele><time>2026-04-25T09:31:26Z</time></trkpt><trkpt lat="44.71466614802986" lon="9.783089046270558"><ele>821.5999999999999</ele><time>2026-04-25T09:31:29Z</time></trkpt><trkpt lat="44.7146407847612" lon="9.782967826492"><ele>823.0</ele><time>2026-04-25T09:31:30Z</time></trkpt><trkpt lat="44.71461603491329" lon="9.782839335073438"><ele>823.0</ele><time>2026-04-25T09:31:32Z</time></trkpt><trkpt lat="44.714587293288474" lon="9.782719261121459"><ele>823.0</ele><time>2026-04-25T09:31:34Z</time></trkpt><trkpt lat="44.71454856599897" lon="9.782605446790926"><ele>823.0</ele><time>2026-04-25T09:31:36Z</time></trkpt><trkpt lat="44.71450074092769" lon="9.782494701194315"><ele>823.0</ele><time>2026-04-25T09:31:38Z</time></trkpt><trkpt lat="44.714452271039036" lon="9.782386929952763"><ele>823.0</ele><time>2026-04-25T09:31:40Z</time></trkpt><trkpt lat="44.71439550552431" lon="9.782282224435933"><ele>821.3333333333333</ele><time>2026-04-25T09:31:41.999Z</time></trkpt><trkpt lat="44.714325628441394" lon="9.782195473537902"><ele>819.6666666666666</ele><time>2026-04-25T09:31:43.999Z</time></trkpt><trkpt lat="44.71424255917585" lon="9.782136021304975"><ele>818.0</ele><time>2026-04-25T09:31:45.999Z</time></trkpt><trkpt lat="44.714155459960715" lon="9.782089739918332"><ele>816.3333333333333</ele><time>2026-04-25T09:31:47.999Z</time></trkpt><trkpt lat="44.714081798877324" lon="9.782008601283891"><ele>814.6666666666666</ele><time>2026-04-25T09:31:49.999Z</time></trkpt><trkpt lat="44.714041056189465" lon="9.781930983724358"><ele>813.0</ele><time>2026-04-25T09:31:52.999Z</time></trkpt><trkpt lat="44.71402858380711" lon="9.781824191689562"><ele>813.0</ele><time>2026-04-25T09:31:54.999Z</time></trkpt><trkpt lat="44.713959880303115" lon="9.781689089996357"><ele>813.0</ele><time>2026-04-25T09:31:55.999Z</time></trkpt><trkpt lat="44.71395440904862" lon="9.781558571725887"><ele>813.0</ele><time>2026-04-25T09:31:57.999Z</time></trkpt><trkpt lat="44.71393880904787" lon="9.781425619864224"><ele>813.0</ele><time>2026-04-25T09:31:59.999Z</time></trkpt><trkpt lat="44.71390293942505" lon="9.781297067567126"><ele>813.0</ele><time>2026-04-25T09:32:01.999Z</time></trkpt><trkpt lat="44.71384571696428" lon="9.781192704200352"><ele>813.0</ele><time>2026-04-25T09:32:03.999Z</time></trkpt><trkpt lat="44.71376906342435" lon="9.781113734959392"><ele>813.0</ele><time>2026-04-25T09:32:05.999Z</time></trkpt><trkpt lat="44.71368369951608" lon="9.78105817489203"><ele>813.0</ele><time>2026-04-25T09:32:07.999Z</time></trkpt><trkpt lat="44.713598696540785" lon="9.781013072343104"><ele>813.0</ele><time>2026-04-25T09:32:09.999Z</time></trkpt><trkpt lat="44.713516895663346" lon="9.780958577754246"><ele>813.0</ele><time>2026-04-25T09:32:11.999Z</time></trkpt><trkpt lat="44.71343865307433" lon="9.780899146285794"><ele>812.8</ele><time>2026-04-25T09:32:13.999Z</time></trkpt><trkpt lat="44.713365718275654" lon="9.780806973611478"><ele>812.5999999999999</ele><time>2026-04-25T09:32:16.999Z</time></trkpt><trkpt lat="44.71331750975595" lon="9.78070776365072"><ele>812.4000000000001</ele><time>2026-04-25T09:32:18.999Z</time></trkpt><trkpt lat="44.71328027493519" lon="9.780516115818914"><ele>812.2</ele><time>2026-04-25T09:32:21.999Z</time></trkpt><trkpt lat="44.713260072696116" lon="9.78039994152967"><ele>812.0</ele><time>2026-04-25T09:32:23.999Z</time></trkpt><trkpt lat="44.71324206356302" lon="9.780283253137465"><ele>812.5000000000001</ele><time>2026-04-25T09:32:26.999Z</time></trkpt><trkpt lat="44.71319043954368" lon="9.780128411595799"><ele>813.0</ele><time>2026-04-25T09:32:28.999Z</time></trkpt><trkpt lat="44.71312240127819" lon="9.78001245687131"><ele>813.5</ele><time>2026-04-25T09:32:31.999Z</time></trkpt><trkpt lat="44.713081049186876" lon="9.779928740042777"><ele>814.0</ele><time>2026-04-25T09:32:33.999Z</time></trkpt><trkpt lat="44.713041187725544" lon="9.779842700417396"><ele>814.5000000000001</ele><time>2026-04-25T09:32:35.998Z</time></trkpt><trkpt lat="44.712997409895706" lon="9.77975744694928"><ele>815.0</ele><time>2026-04-25T09:32:37.998Z</time></trkpt><trkpt lat="44.71297435537522" lon="9.779655118873341"><ele>815.0000000000001</ele><time>2026-04-25T09:32:40.998Z</time></trkpt><trkpt lat="44.71297483115979" lon="9.779530864773593"><ele>815.0</ele><time>2026-04-25T09:32:43.998Z</time></trkpt><trkpt lat="44.712996265323326" lon="9.779390524234127"><ele>815.0</ele><time>2026-04-25T09:32:45.998Z</time></trkpt><trkpt lat="44.71301918503079" lon="9.779302856844057"><ele>815.0</ele><time>2026-04-25T09:32:47.998Z</time></trkpt><trkpt lat="44.71303739329976" lon="9.77920849588234"><ele>815.0000000000001</ele><time>2026-04-25T09:32:49.998Z</time></trkpt><trkpt lat="44.713044842455346" lon="9.779107196223695"><ele>815.0</ele><time>2026-04-25T09:32:51.998Z</time></trkpt><trkpt lat="44.71303484149737" lon="9.779009592675143"><ele>815.3333333333334</ele><time>2026-04-25T09:32:53.998Z</time></trkpt><trkpt lat="44.713011703843996" lon="9.778917414731337"><ele>815.6666666666667</ele><time>2026-04-25T09:32:55.998Z</time></trkpt><trkpt lat="44.71298489787469" lon="9.778824814092667"><ele>816.0</ele><time>2026-04-25T09:32:57.998Z</time></trkpt><trkpt lat="44.71294389527348" lon="9.778697663576592"><ele>816.3333333333333</ele><time>2026-04-25T09:33:00.998Z</time></trkpt><trkpt lat="44.71290240246125" lon="9.778597792009613"><ele>816.6666666666666</ele><time>2026-04-25T09:33:02.998Z</time></trkpt><trkpt lat="44.71286774651868" lon="9.778517174633915"><ele>817.0</ele><time>2026-04-25T09:33:04.998Z</time></trkpt><trkpt lat="44.71282625035053" lon="9.778433199597227"><ele>817.2857142857142</ele><time>2026-04-25T09:33:06.998Z</time></trkpt><trkpt lat="44.71278790091955" lon="9.778358217544609"><ele>817.5714285714286</ele><time>2026-04-25T09:33:08.998Z</time></trkpt><trkpt lat="44.712749667009334" lon="9.778284143483484"><ele>817.8571428571429</ele><time>2026-04-25T09:33:10.998Z</time></trkpt><trkpt lat="44.7127144383457" lon="9.778205490837935"><ele>818.1428571428571</ele><time>2026-04-25T09:33:12.998Z</time></trkpt><trkpt lat="44.71267478012601" lon="9.77812747436968"><ele>818.4285714285714</ele><time>2026-04-25T09:33:14.998Z</time></trkpt><trkpt lat="44.71263941107008" lon="9.778045721179655"><ele>818.7142857142857</ele><time>2026-04-25T09:33:16.998Z</time></trkpt><trkpt lat="44.71260928646033" lon="9.777962349571624"><ele>819.0</ele><time>2026-04-25T09:33:18.998Z</time></trkpt><trkpt lat="44.71259055477641" lon="9.777865373416454"><ele>821.6666666666666</ele><time>2026-04-25T09:33:20.998Z</time></trkpt><trkpt lat="44.712563081257095" lon="9.777771874046543"><ele>824.3333333333333</ele><time>2026-04-25T09:33:22.998Z</time></trkpt><trkpt lat="44.712564361160304" lon="9.777653263351775"><ele>827.0</ele><time>2026-04-25T09:33:26Z</time></trkpt><trkpt lat="44.712596381017825" lon="9.777514441654167"><ele>829.6666666666666</ele><time>2026-04-25T09:33:28Z</time></trkpt><trkpt lat="44.71261889875493" lon="9.77741955495262"><ele>832.3333333333333</ele><time>2026-04-25T09:33:30Z</time></trkpt><trkpt lat="44.712655322677904" lon="9.777329798466088"><ele>835.0</ele><time>2026-04-25T09:33:32Z</time></trkpt><trkpt lat="44.712689783116616" lon="9.77724240356256"><ele>835.1428571428572</ele><time>2026-04-25T09:33:34Z</time></trkpt><trkpt lat="44.71272387117447" lon="9.777159663807245"><ele>835.2857142857143</ele><time>2026-04-25T09:33:36Z</time></trkpt><trkpt lat="44.712760991097134" lon="9.77707879052494"><ele>835.4285714285714</ele><time>2026-04-25T09:33:38Z</time></trkpt><trkpt lat="44.712795525009376" lon="9.776996149078997"><ele>835.5714285714287</ele><time>2026-04-25T09:33:40Z</time></trkpt><trkpt lat="44.71282639076616" lon="9.776909132957785"><ele>835.7142857142857</ele><time>2026-04-25T09:33:42Z</time></trkpt><trkpt lat="44.71284788728437" lon="9.776815447471881"><ele>835.8571428571429</ele><time>2026-04-25T09:33:43.999Z</time></trkpt><trkpt lat="44.71284882910672" lon="9.77671662867774"><ele>836.0</ele><time>2026-04-25T09:33:45.999Z</time></trkpt><trkpt lat="44.71282218312652" lon="9.776576959747425"><ele>836.6666666666667</ele><time>2026-04-25T09:33:48.999Z</time></trkpt><trkpt lat="44.712775782016294" lon="9.776437207377091"><ele>837.3333333333334</ele><time>2026-04-25T09:33:51.999Z</time></trkpt><trkpt lat="44.71273127935211" lon="9.77635859842738"><ele>838.0</ele><time>2026-04-25T09:33:53.999Z</time></trkpt><trkpt lat="44.71268323194258" lon="9.776287974295988"><ele>838.6666666666667</ele><time>2026-04-25T09:33:55.999Z</time></trkpt><trkpt lat="44.71263246611613" lon="9.77621132129581"><ele>839.3333333333334</ele><time>2026-04-25T09:33:57.999Z</time></trkpt><trkpt lat="44.712574277838755" lon="9.776149058500843"><ele>840.0</ele><time>2026-04-25T09:33:59.999Z</time></trkpt><trkpt lat="44.712517227390805" lon="9.776091513703522"><ele>840.0</ele><time>2026-04-25T09:34:01.999Z</time></trkpt><trkpt lat="44.712462435108854" lon="9.776031090143645"><ele>840.0</ele><time>2026-04-25T09:34:03.999Z</time></trkpt><trkpt lat="44.71241776739754" lon="9.77595787635176"><ele>840.0</ele><time>2026-04-25T09:34:05.999Z</time></trkpt><trkpt lat="44.71237420177518" lon="9.775888682720893"><ele>840.0</ele><time>2026-04-25T09:34:07.999Z</time></trkpt><trkpt lat="44.71234011089897" lon="9.775803633165689"><ele>840.0</ele><time>2026-04-25T09:34:09.999Z</time></trkpt><trkpt lat="44.712282036180284" lon="9.775688954765602"><ele>840.0</ele><time>2026-04-25T09:34:12.999Z</time></trkpt><trkpt lat="44.71224526745744" lon="9.775581894372628"><ele>839.5</ele><time>2026-04-25T09:34:16.999Z</time></trkpt><trkpt lat="44.712206326690925" lon="9.775495159366875"><ele>839.0</ele><time>2026-04-25T09:34:18.999Z</time></trkpt><trkpt lat="44.71216815424926" lon="9.775385644818602"><ele>838.5</ele><time>2026-04-25T09:34:21.999Z</time></trkpt><trkpt lat="44.71213117559438" lon="9.775308258356525"><ele>838.0</ele><time>2026-04-25T09:34:23.999Z</time></trkpt><trkpt lat="44.71206884115079" lon="9.775218270364583"><ele>837.5</ele><time>2026-04-25T09:34:24.999Z</time></trkpt><trkpt lat="44.71203066709528" lon="9.77513954994758"><ele>837.0</ele><time>2026-04-25T09:34:26.999Z</time></trkpt><trkpt lat="44.71198747418364" lon="9.775065741351947"><ele>836.5714285714286</ele><time>2026-04-25T09:34:28.999Z</time></trkpt><trkpt lat="44.71194596065455" lon="9.774995402778675"><ele>836.1428571428571</ele><time>2026-04-25T09:34:30.999Z</time></trkpt><trkpt lat="44.71190390694589" lon="9.774920975458404"><ele>835.7142857142858</ele><time>2026-04-25T09:34:32.999Z</time></trkpt><trkpt lat="44.71186341180031" lon="9.774843260788549"><ele>835.2857142857142</ele><time>2026-04-25T09:34:34.999Z</time></trkpt><trkpt lat="44.71182519681727" lon="9.774767143895948"><ele>834.8571428571428</ele><time>2026-04-25T09:34:36.998Z</time></trkpt><trkpt lat="44.711785330506544" lon="9.774695506047662"><ele>834.4285714285714</ele><time>2026-04-25T09:34:38.998Z</time></trkpt><trkpt lat="44.71173556502372" lon="9.774580203485383"><ele>834.0</ele><time>2026-04-25T09:34:41.998Z</time></trkpt><trkpt lat="44.71169543666129" lon="9.77444714960175"><ele>836.8333333333334</ele><time>2026-04-25T09:34:45.998Z</time></trkpt><trkpt lat="44.711659856628025" lon="9.774326397154507"><ele>839.6666666666667</ele><time>2026-04-25T09:34:48.998Z</time></trkpt><trkpt lat="44.711625995471245" lon="9.774214817060003"><ele>842.5</ele><time>2026-04-25T09:34:51.998Z</time></trkpt><trkpt lat="44.711588544670015" lon="9.774088575334853"><ele>845.3333333333334</ele><time>2026-04-25T09:34:54.998Z</time></trkpt><trkpt lat="44.711535493740016" lon="9.773992327290484"><ele>848.1666666666667</ele><time>2026-04-25T09:34:55.998Z</time></trkpt><trkpt lat="44.71150228483159" lon="9.773909870020907"><ele>851.0</ele><time>2026-04-25T09:34:57.998Z</time></trkpt><trkpt lat="44.71146891971862" lon="9.773826539062975"><ele>851.0</ele><time>2026-04-25T09:34:59.998Z</time></trkpt><trkpt lat="44.711435404074315" lon="9.773741587292436"><ele>851.0</ele><time>2026-04-25T09:35:01.998Z</time></trkpt><trkpt lat="44.71140842381064" lon="9.773652164617559"><ele>851.0</ele><time>2026-04-25T09:35:03.998Z</time></trkpt><trkpt lat="44.71138612347866" lon="9.773567986397737"><ele>851.0</ele><time>2026-04-25T09:35:05.998Z</time></trkpt><trkpt lat="44.71136679049072" lon="9.77347561645719"><ele>851.0</ele><time>2026-04-25T09:35:07.998Z</time></trkpt><trkpt lat="44.711349313627586" lon="9.773383613600553"><ele>851.0</ele><time>2026-04-25T09:35:09.998Z</time></trkpt><trkpt lat="44.711336328408755" lon="9.773289959803929"><ele>851.0</ele><time>2026-04-25T09:35:11.998Z</time></trkpt><trkpt lat="44.71132949591854" lon="9.773192756296504"><ele>851.2857142857143</ele><time>2026-04-25T09:35:13.998Z</time></trkpt><trkpt lat="44.71133444932342" lon="9.77310177505693"><ele>851.5714285714287</ele><time>2026-04-25T09:35:15.998Z</time></trkpt><trkpt lat="44.711363034355976" lon="9.773001017084633"><ele>851.8571428571429</ele><time>2026-04-25T09:35:18.998Z</time></trkpt><trkpt lat="44.71139975886305" lon="9.772894488674194"><ele>852.1428571428571</ele><time>2026-04-25T09:35:21.998Z</time></trkpt><trkpt lat="44.711438428108295" lon="9.77278842702394"><ele>852.4285714285714</ele><time>2026-04-25T09:35:24.998Z</time></trkpt><trkpt lat="44.71147231238826" lon="9.772708163004754"><ele>852.7142857142857</ele><time>2026-04-25T09:35:25.998Z</time></trkpt><trkpt lat="44.71150474909106" lon="9.772627308899173"><ele>853.0</ele><time>2026-04-25T09:35:28.998Z</time></trkpt><trkpt lat="44.71156360136163" lon="9.772492320961316"><ele>854.1666666666666</ele><time>2026-04-25T09:35:32Z</time></trkpt><trkpt lat="44.71161287253121" lon="9.772376849865712"><ele>855.3333333333333</ele><time>2026-04-25T09:35:35Z</time></trkpt><trkpt lat="44.71164997225966" lon="9.7722999042661"><ele>856.5</ele><time>2026-04-25T09:35:37Z</time></trkpt><trkpt lat="44.71169110795842" lon="9.772231137090317"><ele>857.6666666666667</ele><time>2026-04-25T09:35:39Z</time></trkpt><trkpt lat="44.711755188627315" lon="9.772132703780361"><ele>858.8333333333334</ele><time>2026-04-25T09:35:42Z</time></trkpt><trkpt lat="44.71183087644696" lon="9.772056749763685"><ele>860.0</ele><time>2026-04-25T09:35:45Z</time></trkpt><trkpt lat="44.711885116394775" lon="9.772011597367566"><ele>860.1428571428571</ele><time>2026-04-25T09:35:47Z</time></trkpt><trkpt lat="44.71194263711624" lon="9.771969976340742"><ele>860.2857142857143</ele><time>2026-04-25T09:35:48.999Z</time></trkpt><trkpt lat="44.71199909539492" lon="9.771927611323713"><ele>860.4285714285714</ele><time>2026-04-25T09:35:50.999Z</time></trkpt><trkpt lat="44.71208032159939" lon="9.77186208564136"><ele>860.5714285714286</ele><time>2026-04-25T09:35:53.999Z</time></trkpt><trkpt lat="44.71212973812142" lon="9.771806846403319"><ele>860.7142857142858</ele><time>2026-04-25T09:35:55.999Z</time></trkpt><trkpt lat="44.71217390043733" lon="9.771690577051086"><ele>860.8571428571429</ele><time>2026-04-25T09:35:58.999Z</time></trkpt><trkpt lat="44.71219909779444" lon="9.77160733869735"><ele>861.0</ele><time>2026-04-25T09:36:00.999Z</time></trkpt><trkpt lat="44.71220410638457" lon="9.771499586819056"><ele>861.0</ele><time>2026-04-25T09:36:03.999Z</time></trkpt><trkpt lat="44.71221261622737" lon="9.771403837356356"><ele>861.0</ele><time>2026-04-25T09:36:05.999Z</time></trkpt><trkpt lat="44.71221858905551" lon="9.771286880847748"><ele>861.0</ele><time>2026-04-25T09:36:08.999Z</time></trkpt><trkpt lat="44.7122424571856" lon="9.771187271910911"><ele>861.0</ele><time>2026-04-25T09:36:10.999Z</time></trkpt><trkpt lat="44.7122613144705" lon="9.771080439874051"><ele>861.0</ele><time>2026-04-25T09:36:12.999Z</time></trkpt><trkpt lat="44.712275015820836" lon="9.77098910370677"><ele>861.0</ele><time>2026-04-25T09:36:14.999Z</time></trkpt><trkpt lat="44.71228690525054" lon="9.77089297323303"><ele>861.0</ele><time>2026-04-25T09:36:16.999Z</time></trkpt><trkpt lat="44.712286430913565" lon="9.770795087472587"><ele>861.3333333333334</ele><time>2026-04-25T09:36:18.999Z</time></trkpt><trkpt lat="44.71226157261972" lon="9.770696544159545"><ele>861.6666666666667</ele><time>2026-04-25T09:36:20.999Z</time></trkpt><trkpt lat="44.71223435680373" lon="9.770600962031473"><ele>862.0</ele><time>2026-04-25T09:36:22.999Z</time></trkpt><trkpt lat="44.71218241770751" lon="9.770525706579935"><ele>862.3333333333334</ele><time>2026-04-25T09:36:24.999Z</time></trkpt><trkpt lat="44.712144663712564" lon="9.770436107762231"><ele>862.6666666666667</ele><time>2026-04-25T09:36:26.999Z</time></trkpt><trkpt lat="44.71210862939453" lon="9.77032196618023"><ele>863.0</ele><time>2026-04-25T09:36:29.999Z</time></trkpt><trkpt lat="44.71209698873465" lon="9.77020707232503"><ele>863.8</ele><time>2026-04-25T09:36:31.999Z</time></trkpt><trkpt lat="44.7121192776533" lon="9.770114951601416"><ele>864.5999999999999</ele><time>2026-04-25T09:36:33.999Z</time></trkpt><trkpt lat="44.712172988922525" lon="9.769997520117435"><ele>865.4000000000001</ele><time>2026-04-25T09:36:36.999Z</time></trkpt><trkpt lat="44.71222438674441" lon="9.769936770850409"><ele>866.2</ele><time>2026-04-25T09:36:38.999Z</time></trkpt><trkpt lat="44.71228330628851" lon="9.769841940766742"><ele>867.0</ele><time>2026-04-25T09:36:41.998Z</time></trkpt><trkpt lat="44.71237828896248" lon="9.769659460540488"><ele>867.0</ele><time>2026-04-25T09:36:44.998Z</time></trkpt><trkpt lat="44.71238764446517" lon="9.769558608850152"><ele>867.0</ele><time>2026-04-25T09:36:46.998Z</time></trkpt><trkpt lat="44.71237963984856" lon="9.769453376481914"><ele>867.0</ele><time>2026-04-25T09:36:48.998Z</time></trkpt><trkpt lat="44.71235390125969" lon="9.76934997012509"><ele>867.0</ele><time>2026-04-25T09:36:50.998Z</time></trkpt><trkpt lat="44.71232657473845" lon="9.769246480104368"><ele>867.0</ele><time>2026-04-25T09:36:52.998Z</time></trkpt><trkpt lat="44.71227092931203" lon="9.769157873632036"><ele>867.0</ele><time>2026-04-25T09:36:54.998Z</time></trkpt><trkpt lat="44.712204939262854" lon="9.769076024323164"><ele>866.8333333333334</ele><time>2026-04-25T09:36:56.998Z</time></trkpt><trkpt lat="44.71213157370466" lon="9.769008386452244"><ele>866.6666666666667</ele><time>2026-04-25T09:36:58.998Z</time></trkpt><trkpt lat="44.71205626765228" lon="9.768948741279985"><ele>866.5</ele><time>2026-04-25T09:37:00.998Z</time></trkpt><trkpt lat="44.71197843356667" lon="9.768899829695227"><ele>866.3333333333334</ele><time>2026-04-25T09:37:02.998Z</time></trkpt><trkpt lat="44.711915819034445" lon="9.768841185364714"><ele>866.1666666666667</ele><time>2026-04-25T09:37:04.998Z</time></trkpt><trkpt lat="44.71182959862127" lon="9.76877816260438"><ele>866.0</ele><time>2026-04-25T09:37:06.998Z</time></trkpt><trkpt lat="44.71175502655551" lon="9.768718724544916"><ele>867.4</ele><time>2026-04-25T09:37:08.998Z</time></trkpt><trkpt lat="44.71167622346996" lon="9.768669328017758"><ele>868.8</ele><time>2026-04-25T09:37:10.998Z</time></trkpt><trkpt lat="44.71159411834681" lon="9.768627514701427"><ele>870.1999999999999</ele><time>2026-04-25T09:37:12.998Z</time></trkpt><trkpt lat="44.71151505896719" lon="9.768588604117515"><ele>871.5999999999999</ele><time>2026-04-25T09:37:14.998Z</time></trkpt><trkpt lat="44.71142872558063" lon="9.768560386368707"><ele>873.0</ele><time>2026-04-25T09:37:16.998Z</time></trkpt><trkpt lat="44.71132200541493" lon="9.768514322345972"><ele>873.0</ele><time>2026-04-25T09:37:19.998Z</time></trkpt><trkpt lat="44.71123019459593" lon="9.768488195508716"><ele>873.0</ele><time>2026-04-25T09:37:21.998Z</time></trkpt><trkpt lat="44.71115409985796" lon="9.768453800101003"><ele>873.0</ele><time>2026-04-25T09:37:23.998Z</time></trkpt><trkpt lat="44.711078768636625" lon="9.768414109788102"><ele>873.0</ele><time>2026-04-25T09:37:25.998Z</time></trkpt><trkpt lat="44.71100349047382" lon="9.768367858371173"><ele>873.0</ele><time>2026-04-25T09:37:27.998Z</time></trkpt><trkpt lat="44.710955287312196" lon="9.768273455680255"><ele>873.0</ele><time>2026-04-25T09:37:29.998Z</time></trkpt><trkpt lat="44.71092661751787" lon="9.768157645185783"><ele>877.1666666666666</ele><time>2026-04-25T09:37:31.998Z</time></trkpt><trkpt lat="44.710928025581104" lon="9.768003740873768"><ele>881.3333333333333</ele><time>2026-04-25T09:37:34.998Z</time></trkpt><trkpt lat="44.710940588702584" lon="9.767909941048687"><ele>885.5</ele><time>2026-04-25T09:37:37Z</time></trkpt><trkpt lat="44.71095235151027" lon="9.767811796864992"><ele>889.6666666666666</ele><time>2026-04-25T09:37:38Z</time></trkpt><trkpt lat="44.71097681605187" lon="9.767712370880723"><ele>893.8333333333333</ele><time>2026-04-25T09:37:40Z</time></trkpt><trkpt lat="44.71098865725062" lon="9.767588155035346"><ele>898.0</ele><time>2026-04-25T09:37:42Z</time></trkpt><trkpt lat="44.71099331677804" lon="9.767473120026033"><ele>898.4999999999999</ele><time>2026-04-25T09:37:44Z</time></trkpt><trkpt lat="44.71099546147538" lon="9.76735422514743"><ele>899.0</ele><time>2026-04-25T09:37:46Z</time></trkpt><trkpt lat="44.71098658049177" lon="9.76723789810246"><ele>899.5</ele><time>2026-04-25T09:37:48Z</time></trkpt><trkpt lat="44.71098235100586" lon="9.767123124619161"><ele>900.0</ele><time>2026-04-25T09:37:50Z</time></trkpt><trkpt lat="44.710978233232225" lon="9.767008719861979"><ele>900.4999999999999</ele><time>2026-04-25T09:37:51.999Z</time></trkpt><trkpt lat="44.710984519433325" lon="9.766893665628178"><ele>901.0</ele><time>2026-04-25T09:37:53.999Z</time></trkpt><trkpt lat="44.71098315464423" lon="9.76677813663781"><ele>901.3333333333333</ele><time>2026-04-25T09:37:55.999Z</time></trkpt><trkpt lat="44.71096766263776" lon="9.766655589072505"><ele>901.6666666666666</ele><time>2026-04-25T09:37:57.999Z</time></trkpt><trkpt lat="44.71094268578853" lon="9.766534598692154"><ele>902.0</ele><time>2026-04-25T09:37:59.999Z</time></trkpt><trkpt lat="44.71090960724915" lon="9.766417441637413"><ele>902.3333333333333</ele><time>2026-04-25T09:38:01.999Z</time></trkpt><trkpt lat="44.710875515934724" lon="9.766303074855621"><ele>902.6666666666666</ele><time>2026-04-25T09:38:03.999Z</time></trkpt><trkpt lat="44.71085113513339" lon="9.766190908470392"><ele>903.0</ele><time>2026-04-25T09:38:05.999Z</time></trkpt><trkpt lat="44.71084013659383" lon="9.766075868088482"><ele>902.8333333333334</ele><time>2026-04-25T09:38:07.999Z</time></trkpt><trkpt lat="44.71083349925093" lon="9.765954067427609"><ele>902.6666666666667</ele><time>2026-04-25T09:38:09.999Z</time></trkpt><trkpt lat="44.710830665532384" lon="9.765836648029634"><ele>902.5</ele><time>2026-04-25T09:38:11.999Z</time></trkpt><trkpt lat="44.710836220866874" lon="9.765713475049967"><ele>902.3333333333334</ele><time>2026-04-25T09:38:13.999Z</time></trkpt><trkpt lat="44.71084660884137" lon="9.765590754321128"><ele>902.1666666666667</ele><time>2026-04-25T09:38:15.999Z</time></trkpt><trkpt lat="44.710853876633266" lon="9.765468483583556"><ele>902.0</ele><time>2026-04-25T09:38:17.999Z</time></trkpt><trkpt lat="44.710865974044815" lon="9.765346718098757"><ele>902.0000000000001</ele><time>2026-04-25T09:38:19.999Z</time></trkpt><trkpt lat="44.710870842257876" lon="9.765227520624522"><ele>902.0</ele><time>2026-04-25T09:38:21.999Z</time></trkpt><trkpt lat="44.71086889264615" lon="9.765103052236448"><ele>902.0</ele><time>2026-04-25T09:38:23.999Z</time></trkpt><trkpt lat="44.710859832611426" lon="9.764981428106015"><ele>902.0</ele><time>2026-04-25T09:38:25.999Z</time></trkpt><trkpt lat="44.710832073380665" lon="9.764866628195032"><ele>902.0000000000001</ele><time>2026-04-25T09:38:27.999Z</time></trkpt><trkpt lat="44.71081166877084" lon="9.764754260145766"><ele>902.0</ele><time>2026-04-25T09:38:29.999Z</time></trkpt><trkpt lat="44.71078792159312" lon="9.764634626159184"><ele>901.0000000000001</ele><time>2026-04-25T09:38:31.999Z</time></trkpt><trkpt lat="44.710751015140154" lon="9.76452064939817"><ele>900.0</ele><time>2026-04-25T09:38:33.999Z</time></trkpt><trkpt lat="44.710720707546265" lon="9.764413971460916"><ele>899.0</ele><time>2026-04-25T09:38:35.999Z</time></trkpt><trkpt lat="44.71069713112377" lon="9.764310792162716"><ele>898.0</ele><time>2026-04-25T09:38:37.999Z</time></trkpt><trkpt lat="44.71067214360042" lon="9.764203089151039"><ele>897.0000000000001</ele><time>2026-04-25T09:38:39.999Z</time></trkpt><trkpt lat="44.71064138011199" lon="9.764105778768869"><ele>896.0</ele><time>2026-04-25T09:38:41.999Z</time></trkpt><trkpt lat="44.710593822951196" lon="9.764022101805855"><ele>896.8</ele><time>2026-04-25T09:38:43.999Z</time></trkpt><trkpt lat="44.71054490353677" lon="9.763946927377654"><ele>897.5999999999999</ele><time>2026-04-25T09:38:45.998Z</time></trkpt><trkpt lat="44.71043765120999" lon="9.763912371579353"><ele>898.4</ele><time>2026-04-25T09:38:48.998Z</time></trkpt><trkpt lat="44.710329338512445" lon="9.763959863439828"><ele>899.2</ele><time>2026-04-25T09:38:51.998Z</time></trkpt><trkpt lat="44.710261541011114" lon="9.763999417899385"><ele>900.0</ele><time>2026-04-25T09:38:54.998Z</time></trkpt><trkpt lat="44.71018323558572" lon="9.764064907004165"><ele>900.0000000000001</ele><time>2026-04-25T09:38:55.998Z</time></trkpt><trkpt lat="44.71011957457726" lon="9.764117066228085"><ele>900.0</ele><time>2026-04-25T09:38:57.998Z</time></trkpt><trkpt lat="44.71006202506669" lon="9.764174331571104"><ele>900.0000000000001</ele><time>2026-04-25T09:38:59.998Z</time></trkpt><trkpt lat="44.71000729436793" lon="9.764238696793003"><ele>900.0000000000001</ele><time>2026-04-25T09:39:01.998Z</time></trkpt><trkpt lat="44.709963176451" lon="9.76431772155852"><ele>900.0</ele><time>2026-04-25T09:39:03.998Z</time></trkpt><trkpt lat="44.709923700499644" lon="9.764393870955848"><ele>900.0000000000001</ele><time>2026-04-25T09:39:05.998Z</time></trkpt><trkpt lat="44.70988382272218" lon="9.764469065988902"><ele>900.0000000000001</ele><time>2026-04-25T09:39:07.998Z</time></trkpt><trkpt lat="44.70984827166811" lon="9.764545706059447"><ele>904.4</ele><time>2026-04-25T09:39:09.998Z</time></trkpt><trkpt lat="44.709792579784114" lon="9.764647785127988"><ele>908.8</ele><time>2026-04-25T09:39:12.998Z</time></trkpt><trkpt lat="44.70972264031933" lon="9.764718438525486"><ele>913.2</ele><time>2026-04-25T09:39:15.998Z</time></trkpt><trkpt lat="44.70964348171417" lon="9.764790635125381"><ele>917.6</ele><time>2026-04-25T09:39:19.998Z</time></trkpt><trkpt lat="44.70952346779143" lon="9.764803425304061"><ele>922.0</ele><time>2026-04-25T09:39:22.998Z</time></trkpt><trkpt lat="44.70946229733474" lon="9.764731069298204"><ele>922.4000000000001</ele><time>2026-04-25T09:39:25.998Z</time></trkpt><trkpt lat="44.709405914406986" lon="9.76466172755674"><ele>922.8000000000001</ele><time>2026-04-25T09:39:26.998Z</time></trkpt><trkpt lat="44.70935255754628" lon="9.76458685408952"><ele>923.2</ele><time>2026-04-25T09:39:29.998Z</time></trkpt><trkpt lat="44.7092406341997" lon="9.764417140186588"><ele>923.6</ele><time>2026-04-25T09:39:32.998Z</time></trkpt><trkpt lat="44.70919255169005" lon="9.764315877745195"><ele>924.0</ele><time>2026-04-25T09:39:34.998Z</time></trkpt><trkpt lat="44.70914905360844" lon="9.764212711378242"><ele>920.8000000000001</ele><time>2026-04-25T09:39:36.998Z</time></trkpt><trkpt lat="44.70910855187107" lon="9.764106810013434"><ele>917.6000000000001</ele><time>2026-04-25T09:39:38.998Z</time></trkpt><trkpt lat="44.70907409558458" lon="9.763993467958846"><ele>914.4</ele><time>2026-04-25T09:39:40.997Z</time></trkpt><trkpt lat="44.70901786197155" lon="9.763872575436173"><ele>911.2</ele><time>2026-04-25T09:39:42.999Z</time></trkpt><trkpt lat="44.70895077335773" lon="9.763763668239099"><ele>908.0</ele><time>2026-04-25T09:39:44.999Z</time></trkpt><trkpt lat="44.70888153135666" lon="9.763657762739282"><ele>908.0</ele><time>2026-04-25T09:39:46.999Z</time></trkpt><trkpt lat="44.708812468675916" lon="9.76355341814474"><ele>908.0</ele><time>2026-04-25T09:39:48.999Z</time></trkpt><trkpt lat="44.70874678341431" lon="9.763442862644967"><ele>908.0</ele><time>2026-04-25T09:39:50.999Z</time></trkpt><trkpt lat="44.708697423222894" lon="9.763317382796428"><ele>908.0</ele><time>2026-04-25T09:39:52.999Z</time></trkpt><trkpt lat="44.70864038113084" lon="9.763189420184114"><ele>908.0</ele><time>2026-04-25T09:39:55Z</time></trkpt><trkpt lat="44.70859825887615" lon="9.763063212612678"><ele>908.5999999999999</ele><time>2026-04-25T09:39:56.999Z</time></trkpt><trkpt lat="44.7085573874595" lon="9.762922408640927"><ele>909.1999999999999</ele><time>2026-04-25T09:39:58.999Z</time></trkpt><trkpt lat="44.70851260029928" lon="9.762798366236561"><ele>909.8</ele><time>2026-04-25T09:40:00.999Z</time></trkpt><trkpt lat="44.70848181635915" lon="9.762658693003061"><ele>910.4</ele><time>2026-04-25T09:40:02.999Z</time></trkpt><trkpt lat="44.708453547984114" lon="9.762516744979804"><ele>911.0</ele><time>2026-04-25T09:40:04.999Z</time></trkpt><trkpt lat="44.708438469630984" lon="9.762369705382813"><ele>911.0</ele><time>2026-04-25T09:40:06.999Z</time></trkpt><trkpt lat="44.708423965067006" lon="9.76221881125982"><ele>910.9999999999999</ele><time>2026-04-25T09:40:08.999Z</time></trkpt><trkpt lat="44.70839812654372" lon="9.76207726649483"><ele>910.9999999999999</ele><time>2026-04-25T09:40:10.999Z</time></trkpt><trkpt lat="44.70834193013267" lon="9.76194672496174"><ele>911.0</ele><time>2026-04-25T09:40:12.999Z</time></trkpt><trkpt lat="44.70826557513651" lon="9.761844016034528"><ele>911.0</ele><time>2026-04-25T09:40:14.999Z</time></trkpt><trkpt lat="44.708169513637905" lon="9.761776867919513"><ele>911.25</ele><time>2026-04-25T09:40:16.999Z</time></trkpt><trkpt lat="44.7080665271712" lon="9.761735696259748"><ele>911.5</ele><time>2026-04-25T09:40:18.999Z</time></trkpt><trkpt lat="44.707951578546144" lon="9.761696997941696"><ele>911.75</ele><time>2026-04-25T09:40:20.999Z</time></trkpt><trkpt lat="44.70783988446997" lon="9.761649822334652"><ele>912.0</ele><time>2026-04-25T09:40:22.999Z</time></trkpt><trkpt lat="44.707741046531545" lon="9.7615558589137"><ele>912.0</ele><time>2026-04-25T09:40:24.999Z</time></trkpt><trkpt lat="44.70771205392712" lon="9.761476108181437"><ele>911.9999999999999</ele><time>2026-04-25T09:40:25.999Z</time></trkpt><trkpt lat="44.707696813393916" lon="9.761387347900111"><ele>912.0</ele><time>2026-04-25T09:40:27Z</time></trkpt><trkpt lat="44.7076891402109" lon="9.761298705555697"><ele>912.0</ele><time>2026-04-25T09:40:28Z</time></trkpt><trkpt lat="44.707675141958006" lon="9.761126291328072"><ele>911.9999999999999</ele><time>2026-04-25T09:40:30Z</time></trkpt><trkpt lat="44.70766027276328" lon="9.761039320324457"><ele>912.0</ele><time>2026-04-25T09:40:31Z</time></trkpt><trkpt lat="44.70763036593786" lon="9.760957699879725"><ele>912.0</ele><time>2026-04-25T09:40:32Z</time></trkpt><trkpt lat="44.70758520052429" lon="9.760887390004466"><ele>911.4285714285713</ele><time>2026-04-25T09:40:33Z</time></trkpt><trkpt lat="44.70753365491182" lon="9.760830986135849"><ele>910.8571428571428</ele><time>2026-04-25T09:40:34Z</time></trkpt><trkpt lat="44.707474975235954" lon="9.760784614372461"><ele>910.2857142857142</ele><time>2026-04-25T09:40:35Z</time></trkpt><trkpt lat="44.70741541243035" lon="9.760742246516921"><ele>909.7142857142858</ele><time>2026-04-25T09:40:36Z</time></trkpt><trkpt lat="44.7073562624552" lon="9.760700082074745"><ele>909.1428571428572</ele><time>2026-04-25T09:40:37Z</time></trkpt><trkpt lat="44.70730616768202" lon="9.760642021720418"><ele>908.5714285714287</ele><time>2026-04-25T09:40:38Z</time></trkpt><trkpt lat="44.70727251310761" lon="9.760565008374153"><ele>908.0</ele><time>2026-04-25T09:40:39Z</time></trkpt><trkpt lat="44.70725794769791" lon="9.760476206944203"><ele>908.0</ele><time>2026-04-25T09:40:40Z</time></trkpt><trkpt lat="44.707259254149356" lon="9.760384232870614"><ele>908.0</ele><time>2026-04-25T09:40:41Z</time></trkpt><trkpt lat="44.707272107845576" lon="9.760209922339522"><ele>908.0</ele><time>2026-04-25T09:40:43Z</time></trkpt><trkpt lat="44.70727953158271" lon="9.76003110504042"><ele>908.0</ele><time>2026-04-25T09:40:45Z</time></trkpt><trkpt lat="44.70729140289351" lon="9.759856199192875"><ele>908.0</ele><time>2026-04-25T09:40:47Z</time></trkpt><trkpt lat="44.70727325227907" lon="9.759683428655269"><ele>907.3333333333334</ele><time>2026-04-25T09:40:49Z</time></trkpt><trkpt lat="44.7072539350201" lon="9.759597784149426"><ele>906.6666666666667</ele><time>2026-04-25T09:40:50Z</time></trkpt><trkpt lat="44.70722853283381" lon="9.759514234978084"><ele>906.0</ele><time>2026-04-25T09:40:50.999Z</time></trkpt><trkpt lat="44.70716478838596" lon="9.75935547559736"><ele>905.3333333333333</ele><time>2026-04-25T09:40:52.999Z</time></trkpt><trkpt lat="44.70712704794046" lon="9.759276383251834"><ele>904.6666666666666</ele><time>2026-04-25T09:40:53.999Z</time></trkpt><trkpt lat="44.70709025438147" lon="9.759197732801784"><ele>904.0</ele><time>2026-04-25T09:40:54.999Z</time></trkpt><trkpt lat="44.70705572828562" lon="9.759114037695285"><ele>902.8571428571429</ele><time>2026-04-25T09:40:55.999Z</time></trkpt><trkpt lat="44.70702783304097" lon="9.75902416429104"><ele>901.7142857142857</ele><time>2026-04-25T09:40:56.999Z</time></trkpt><trkpt lat="44.70700832734134" lon="9.758932765682319"><ele>900.5714285714286</ele><time>2026-04-25T09:40:57.999Z</time></trkpt><trkpt lat="44.706987984240726" lon="9.758839782820939"><ele>899.4285714285714</ele><time>2026-04-25T09:40:58.999Z</time></trkpt><trkpt lat="44.70696754065122" lon="9.758745908565743"><ele>898.2857142857142</ele><time>2026-04-25T09:40:59.999Z</time></trkpt><trkpt lat="44.70694314723783" lon="9.758657337815608"><ele>897.1428571428571</ele><time>2026-04-25T09:41:00.999Z</time></trkpt><trkpt lat="44.70691762578473" lon="9.758565247302577"><ele>896.0</ele><time>2026-04-25T09:41:01.999Z</time></trkpt><trkpt lat="44.70688468540699" lon="9.758481254684979"><ele>898.6666666666667</ele><time>2026-04-25T09:41:02.999Z</time></trkpt><trkpt lat="44.706846006991555" lon="9.758402036265757"><ele>901.3333333333334</ele><time>2026-04-25T09:41:03.999Z</time></trkpt><trkpt lat="44.70680213108182" lon="9.758335787260263"><ele>904.0</ele><time>2026-04-25T09:41:04.999Z</time></trkpt><trkpt lat="44.70674780092649" lon="9.758276233368335"><ele>906.6666666666667</ele><time>2026-04-25T09:41:05.999Z</time></trkpt><trkpt lat="44.70669071641989" lon="9.75822592490149"><ele>909.3333333333334</ele><time>2026-04-25T09:41:06.999Z</time></trkpt><trkpt lat="44.70663784103659" lon="9.758174401322897"><ele>912.0</ele><time>2026-04-25T09:41:07.999Z</time></trkpt><trkpt lat="44.706536629105415" lon="9.75806773437656"><ele>912.0</ele><time>2026-04-25T09:41:09.999Z</time></trkpt><trkpt lat="44.70644853665026" lon="9.757940086020298"><ele>912.0</ele><time>2026-04-25T09:41:11.999Z</time></trkpt><trkpt lat="44.70642870925895" lon="9.757847821545557"><ele>912.0</ele><time>2026-04-25T09:41:12.999Z</time></trkpt><trkpt lat="44.706389238591804" lon="9.75777580465308"><ele>912.0</ele><time>2026-04-25T09:41:13.999Z</time></trkpt><trkpt lat="44.70633531720641" lon="9.757721595616523"><ele>912.0</ele><time>2026-04-25T09:41:14.999Z</time></trkpt><trkpt lat="44.7062952151576" lon="9.75765006568832"><ele>912.0</ele><time>2026-04-25T09:41:15.999Z</time></trkpt><trkpt lat="44.70624532246376" lon="9.757587287626299"><ele>913.5714285714286</ele><time>2026-04-25T09:41:16.999Z</time></trkpt><trkpt lat="44.70619270500586" lon="9.757530200492175"><ele>915.1428571428571</ele><time>2026-04-25T09:41:17.999Z</time></trkpt><trkpt lat="44.70612982706994" lon="9.757481227526386"><ele>916.7142857142857</ele><time>2026-04-25T09:41:18.999Z</time></trkpt><trkpt lat="44.70607419984785" lon="9.75742298786845"><ele>918.2857142857142</ele><time>2026-04-25T09:41:19.999Z</time></trkpt><trkpt lat="44.706025081208296" lon="9.75735542128178"><ele>919.8571428571429</ele><time>2026-04-25T09:41:20.999Z</time></trkpt><trkpt lat="44.70598205798256" lon="9.757277094029542"><ele>921.4285714285713</ele><time>2026-04-25T09:41:21.999Z</time></trkpt><trkpt lat="44.705945777827125" lon="9.75719302589302"><ele>923.0</ele><time>2026-04-25T09:41:22.999Z</time></trkpt><trkpt lat="44.705906921703246" lon="9.757111705339176"><ele>923.0000000000001</ele><time>2026-04-25T09:41:23.999Z</time></trkpt><trkpt lat="44.70586922583446" lon="9.757029233020885"><ele>923.0</ele><time>2026-04-25T09:41:24.999Z</time></trkpt><trkpt lat="44.705827945369734" lon="9.756951800766625"><ele>923.0</ele><time>2026-04-25T09:41:25.999Z</time></trkpt><trkpt lat="44.70579210974247" lon="9.756876081105899"><ele>923.0</ele><time>2026-04-25T09:41:26.999Z</time></trkpt><trkpt lat="44.70575975365492" lon="9.756794818105485"><ele>923.0000000000001</ele><time>2026-04-25T09:41:27.999Z</time></trkpt><trkpt lat="44.70569781351255" lon="9.756639089908601"><ele>923.0</ele><time>2026-04-25T09:41:29.999Z</time></trkpt><trkpt lat="44.705666285236894" lon="9.75655610814859"><ele>920.5714285714286</ele><time>2026-04-25T09:41:30.999Z</time></trkpt><trkpt lat="44.705639185467554" lon="9.756461370154998"><ele>918.1428571428571</ele><time>2026-04-25T09:41:31.999Z</time></trkpt><trkpt lat="44.70562318498095" lon="9.756363237044939"><ele>915.7142857142857</ele><time>2026-04-25T09:41:32.999Z</time></trkpt><trkpt lat="44.70560765659263" lon="9.756264937571194"><ele>913.2857142857142</ele><time>2026-04-25T09:41:33.999Z</time></trkpt><trkpt lat="44.70561767758689" lon="9.756164057024932"><ele>910.8571428571429</ele><time>2026-04-25T09:41:34.999Z</time></trkpt><trkpt lat="44.70560737268399" lon="9.75607164227643"><ele>908.4285714285713</ele><time>2026-04-25T09:41:35.999Z</time></trkpt><trkpt lat="44.70558434313089" lon="9.755980365499019"><ele>905.9999999999999</ele><time>2026-04-25T09:41:36.999Z</time></trkpt><trkpt lat="44.70553861730503" lon="9.755902601149788"><ele>905.4285714285713</ele><time>2026-04-25T09:41:37.999Z</time></trkpt><trkpt lat="44.70547489230104" lon="9.755851035936358"><ele>904.8571428571429</ele><time>2026-04-25T09:41:38.999Z</time></trkpt><trkpt lat="44.70540354360162" lon="9.755831312652312"><ele>904.2857142857142</ele><time>2026-04-25T09:41:39.999Z</time></trkpt><trkpt lat="44.705332475939" lon="9.755834025114678"><ele>903.7142857142857</ele><time>2026-04-25T09:41:40.999Z</time></trkpt><trkpt lat="44.70526481598333" lon="9.75584557189214"><ele>903.1428571428571</ele><time>2026-04-25T09:41:41.999Z</time></trkpt><trkpt lat="44.7052000072353" lon="9.755856762534663"><ele>902.5714285714286</ele><time>2026-04-25T09:41:42.999Z</time></trkpt><trkpt lat="44.70513585714853" lon="9.755873016662127"><ele>902.0</ele><time>2026-04-25T09:41:43.999Z</time></trkpt><trkpt lat="44.705071228013374" lon="9.755894150790395"><ele>902.0</ele><time>2026-04-25T09:41:44.998Z</time></trkpt><trkpt lat="44.70500821536583" lon="9.75591891976235"><ele>902.0</ele><time>2026-04-25T09:41:45.998Z</time></trkpt><trkpt lat="44.70494595785988" lon="9.75594790113111"><ele>902.0</ele><time>2026-04-25T09:41:46.998Z</time></trkpt><trkpt lat="44.70488528068899" lon="9.755980005762323"><ele>902.0</ele><time>2026-04-25T09:41:48Z</time></trkpt><trkpt lat="44.70482454999733" lon="9.756012326687278"><ele>902.0</ele><time>2026-04-25T09:41:49Z</time></trkpt><trkpt lat="44.70476384030252" lon="9.756047272205354"><ele>902.0</ele><time>2026-04-25T09:41:50Z</time></trkpt><trkpt lat="44.70470344759275" lon="9.756081476869683"><ele>902.0</ele><time>2026-04-25T09:41:51Z</time></trkpt><trkpt lat="44.7046420883863" lon="9.75611114071808"><ele>905.0</ele><time>2026-04-25T09:41:52Z</time></trkpt><trkpt lat="44.704582216583496" lon="9.756140475917386"><ele>908.0</ele><time>2026-04-25T09:41:53Z</time></trkpt><trkpt lat="44.70446801079099" lon="9.756197628206312"><ele>911.0</ele><time>2026-04-25T09:41:55Z</time></trkpt><trkpt lat="44.704356708155025" lon="9.756243845838842"><ele>914.0</ele><time>2026-04-25T09:41:57Z</time></trkpt><trkpt lat="44.70425414904333" lon="9.756298648905693"><ele>917.0</ele><time>2026-04-25T09:41:59Z</time></trkpt><trkpt lat="44.704150113834416" lon="9.756345661455208"><ele>917.0</ele><time>2026-04-25T09:42:01Z</time></trkpt><trkpt lat="44.70406992142725" lon="9.756374067021685"><ele>917.0</ele><time>2026-04-25T09:42:03Z</time></trkpt><trkpt lat="44.70403174853047" lon="9.756240581281432"><ele>917.0</ele><time>2026-04-25T09:42:21Z</time></trkpt><trkpt lat="44.704049026446484" lon="9.756099169349671"><ele>917.0</ele><time>2026-04-25T09:42:24Z</time></trkpt><trkpt lat="44.704089491263716" lon="9.755973298484909"><ele>917.0</ele><time>2026-04-25T09:42:26Z</time></trkpt><trkpt lat="44.704156091336515" lon="9.755851642179085"><ele>914.0</ele><time>2026-04-25T09:42:28Z</time></trkpt><trkpt lat="44.704233638933545" lon="9.755782673596624"><ele>911.0</ele><time>2026-04-25T09:42:30Z</time></trkpt><trkpt lat="44.70431220328467" lon="9.75568169218953"><ele>908.0</ele><time>2026-04-25T09:42:32Z</time></trkpt><trkpt lat="44.7044114754885" lon="9.755587095373729"><ele>905.0</ele><time>2026-04-25T09:42:34Z</time></trkpt><trkpt lat="44.70452172265449" lon="9.755500161712433"><ele>902.0</ele><time>2026-04-25T09:42:36Z</time></trkpt><trkpt lat="44.704583672398456" lon="9.7554683258931"><ele>902.0000000000001</ele><time>2026-04-25T09:42:37Z</time></trkpt><trkpt lat="44.70465303554774" lon="9.755458710173647"><ele>902.0</ele><time>2026-04-25T09:42:38Z</time></trkpt><trkpt lat="44.704733206525326" lon="9.7554523600466"><ele>902.0</ele><time>2026-04-25T09:42:39Z</time></trkpt><trkpt lat="44.70481677898877" lon="9.755449951886817"><ele>902.0</ele><time>2026-04-25T09:42:40Z</time></trkpt><trkpt lat="44.704907880177785" lon="9.755449634506864"><ele>902.0000000000001</ele><time>2026-04-25T09:42:41Z</time></trkpt><trkpt lat="44.70499791608029" lon="9.755442896457337"><ele>902.0</ele><time>2026-04-25T09:42:42Z</time></trkpt><trkpt lat="44.705094022922054" lon="9.755429832924236"><ele>902.0</ele><time>2026-04-25T09:42:43Z</time></trkpt><trkpt lat="44.70518864308957" lon="9.755423990376958"><ele>902.0</ele><time>2026-04-25T09:42:44Z</time></trkpt><trkpt lat="44.70528221641395" lon="9.755419909346804"><ele>902.0</ele><time>2026-04-25T09:42:45Z</time></trkpt><trkpt lat="44.70537883631155" lon="9.755411201188748"><ele>902.0</ele><time>2026-04-25T09:42:46Z</time></trkpt><trkpt lat="44.705475610810026" lon="9.755411650808425"><ele>902.0</ele><time>2026-04-25T09:42:47Z</time></trkpt><trkpt lat="44.705572932219546" lon="9.755433679349682"><ele>900.2</ele><time>2026-04-25T09:42:48Z</time></trkpt><trkpt lat="44.70567220303074" lon="9.75547088205979"><ele>898.4000000000001</ele><time>2026-04-25T09:42:49Z</time></trkpt><trkpt lat="44.70577144340865" lon="9.755524187794661"><ele>896.5999999999999</ele><time>2026-04-25T09:42:50Z</time></trkpt><trkpt lat="44.705869820451916" lon="9.755577753396738"><ele>894.8</ele><time>2026-04-25T09:42:51Z</time></trkpt><trkpt lat="44.70597889360901" lon="9.755610351893896"><ele>893.0</ele><time>2026-04-25T09:42:52Z</time></trkpt><trkpt lat="44.7060938297446" lon="9.75562942196677"><ele>890.2</ele><time>2026-04-25T09:42:52.999Z</time></trkpt><trkpt lat="44.70620691273005" lon="9.75564660661378"><ele>887.4</ele><time>2026-04-25T09:42:53.999Z</time></trkpt><trkpt lat="44.706316826683334" lon="9.755667147831648"><ele>884.6000000000001</ele><time>2026-04-25T09:42:54.999Z</time></trkpt><trkpt lat="44.70642749348834" lon="9.755679267293432"><ele>881.8000000000001</ele><time>2026-04-25T09:42:55.999Z</time></trkpt><trkpt lat="44.7065293620916" lon="9.755683745014654"><ele>879.0</ele><time>2026-04-25T09:42:56.999Z</time></trkpt><trkpt lat="44.70662211388544" lon="9.755682627008868"><ele>879.0</ele><time>2026-04-25T09:42:57.999Z</time></trkpt><trkpt lat="44.70670883597056" lon="9.755658373683568"><ele>879.0000000000001</ele><time>2026-04-25T09:42:58.999Z</time></trkpt><trkpt lat="44.706787290742035" lon="9.75560824748052"><ele>879.0000000000001</ele><time>2026-04-25T09:42:59.999Z</time></trkpt><trkpt lat="44.706847068077536" lon="9.755517799818868"><ele>879.0</ele><time>2026-04-25T09:43:00.999Z</time></trkpt><trkpt lat="44.706881696936186" lon="9.755393744011457"><ele>879.0</ele><time>2026-04-25T09:43:01.999Z</time></trkpt><trkpt lat="44.70688201590956" lon="9.755254550090298"><ele>877.0</ele><time>2026-04-25T09:43:02.999Z</time></trkpt><trkpt lat="44.706852314766905" lon="9.755119182213546"><ele>875.0000000000001</ele><time>2026-04-25T09:43:03.999Z</time></trkpt><trkpt lat="44.70679329005024" lon="9.75499698245427"><ele>873.0000000000001</ele><time>2026-04-25T09:43:04.999Z</time></trkpt><trkpt lat="44.70671972813586" lon="9.754896309142703"><ele>871.0</ele><time>2026-04-25T09:43:05.999Z</time></trkpt><trkpt lat="44.706637313180245" lon="9.754804751913671"><ele>869.0</ele><time>2026-04-25T09:43:06.999Z</time></trkpt><trkpt lat="44.706552968585015" lon="9.754720585868581"><ele>869.0</ele><time>2026-04-25T09:43:07.999Z</time></trkpt><trkpt lat="44.70646481753785" lon="9.75463257906541"><ele>869.0</ele><time>2026-04-25T09:43:08.999Z</time></trkpt><trkpt lat="44.7063698769043" lon="9.754543042779638"><ele>869.0</ele><time>2026-04-25T09:43:09.999Z</time></trkpt><trkpt lat="44.70627561583941" lon="9.754444164649032"><ele>869.0</ele><time>2026-04-25T09:43:10.999Z</time></trkpt><trkpt lat="44.706185880225554" lon="9.754345834711412"><ele>868.75</ele><time>2026-04-25T09:43:11.999Z</time></trkpt><trkpt lat="44.70609395382016" lon="9.754245456386313"><ele>868.5</ele><time>2026-04-25T09:43:12.999Z</time></trkpt><trkpt lat="44.706019674906756" lon="9.754112611558632"><ele>868.25</ele><time>2026-04-25T09:43:13.999Z</time></trkpt><trkpt lat="44.705929241977174" lon="9.75399790991555"><ele>868.0</ele><time>2026-04-25T09:43:14.999Z</time></trkpt><trkpt lat="44.70583843490358" lon="9.753888548951696"><ele>868.0</ele><time>2026-04-25T09:43:15.999Z</time></trkpt><trkpt lat="44.70574313682771" lon="9.753779298660183"><ele>868.0</ele><time>2026-04-25T09:43:16.999Z</time></trkpt><trkpt lat="44.7056461051944" lon="9.753679360335438"><ele>868.0</ele><time>2026-04-25T09:43:17.999Z</time></trkpt><trkpt lat="44.70555152989115" lon="9.753584053216931"><ele>868.0</ele><time>2026-04-25T09:43:18.999Z</time></trkpt><trkpt lat="44.705459364711075" lon="9.753491094095779"><ele>868.0</ele><time>2026-04-25T09:43:19.999Z</time></trkpt><trkpt lat="44.70537556764467" lon="9.753396972694654"><ele>868.0</ele><time>2026-04-25T09:43:20.999Z</time></trkpt><trkpt lat="44.705298327371835" lon="9.753295381002514"><ele>868.0</ele><time>2026-04-25T09:43:21.999Z</time></trkpt><trkpt lat="44.70522385616751" lon="9.753179203436394"><ele>868.0</ele><time>2026-04-25T09:43:22.999Z</time></trkpt><trkpt lat="44.70515970628274" lon="9.753047876113806"><ele>868.0</ele><time>2026-04-25T09:43:23.999Z</time></trkpt><trkpt lat="44.70508230882496" lon="9.752926256524402"><ele>868.0</ele><time>2026-04-25T09:43:24.999Z</time></trkpt><trkpt lat="44.70501704898471" lon="9.7527984986368"><ele>868.0</ele><time>2026-04-25T09:43:25.999Z</time></trkpt><trkpt lat="44.70493841830096" lon="9.75269289765876"><ele>868.0</ele><time>2026-04-25T09:43:26.999Z</time></trkpt><trkpt lat="44.704845935048006" lon="9.752624648804423"><ele>868.0</ele><time>2026-04-25T09:43:27.999Z</time></trkpt><trkpt lat="44.70474419224792" lon="9.75258584976121"><ele>868.0</ele><time>2026-04-25T09:43:28.999Z</time></trkpt><trkpt lat="44.70464124247314" lon="9.75253948465414"><ele>862.25</ele><time>2026-04-25T09:43:29.999Z</time></trkpt><trkpt lat="44.7045253997859" lon="9.752523308871101"><ele>856.5</ele><time>2026-04-25T09:43:30.999Z</time></trkpt><trkpt lat="44.70440200536387" lon="9.752538753753054"><ele>850.75</ele><time>2026-04-25T09:43:31.999Z</time></trkpt><trkpt lat="44.70427809987372" lon="9.75258122774364"><ele>845.0</ele><time>2026-04-25T09:43:32.999Z</time></trkpt><trkpt lat="44.70416093784808" lon="9.75263752802934"><ele>845.0</ele><time>2026-04-25T09:43:33.999Z</time></trkpt><trkpt lat="44.70404000950368" lon="9.75264109844287"><ele>845.0</ele><time>2026-04-25T09:43:34.999Z</time></trkpt><trkpt lat="44.703921939800686" lon="9.75263119438551"><ele>845.0</ele><time>2026-04-25T09:43:35.999Z</time></trkpt><trkpt lat="44.70380446990459" lon="9.752610610473505"><ele>845.0</ele><time>2026-04-25T09:43:36.999Z</time></trkpt><trkpt lat="44.70368953961621" lon="9.752580973783388"><ele>844.8</ele><time>2026-04-25T09:43:37.999Z</time></trkpt><trkpt lat="44.703579912916716" lon="9.752546568583554"><ele>844.6</ele><time>2026-04-25T09:43:38.999Z</time></trkpt><trkpt lat="44.70347665406896" lon="9.752517028644554"><ele>844.4000000000001</ele><time>2026-04-25T09:43:39.999Z</time></trkpt><trkpt lat="44.70338241614726" lon="9.752461336930214"><ele>844.2</ele><time>2026-04-25T09:43:40.999Z</time></trkpt><trkpt lat="44.70329148208774" lon="9.7524326572308"><ele>844.0</ele><time>2026-04-25T09:43:41.999Z</time></trkpt><trkpt lat="44.70320513024894" lon="9.752400895227005"><ele>844.0</ele><time>2026-04-25T09:43:42.999Z</time></trkpt><trkpt lat="44.70312296203191" lon="9.752358771743163"><ele>844.0</ele><time>2026-04-25T09:43:43.999Z</time></trkpt><trkpt lat="44.70304394433791" lon="9.75230758516412"><ele>844.0</ele><time>2026-04-25T09:43:44.999Z</time></trkpt><trkpt lat="44.70299271528684" lon="9.752200040781098"><ele>844.0</ele><time>2026-04-25T09:43:45.999Z</time></trkpt><trkpt lat="44.70296552225907" lon="9.75206251342234"><ele>844.0</ele><time>2026-04-25T09:43:46.999Z</time></trkpt><trkpt lat="44.70286510803189" lon="9.751983628981328"><ele>844.0</ele><time>2026-04-25T09:43:47.998Z</time></trkpt><trkpt lat="44.70278215012851" lon="9.751897594937807"><ele>844.0</ele><time>2026-04-25T09:43:48.998Z</time></trkpt><trkpt lat="44.702699738543636" lon="9.751806353228572"><ele>844.0</ele><time>2026-04-25T09:43:49.998Z</time></trkpt><trkpt lat="44.70262787847539" lon="9.75170416736521"><ele>844.0</ele><time>2026-04-25T09:43:50.998Z</time></trkpt><trkpt lat="44.70256564442446" lon="9.751594596970435"><ele>844.0</ele><time>2026-04-25T09:43:51.998Z</time></trkpt><trkpt lat="44.702505706131625" lon="9.751489586356369"><ele>841.6666666666666</ele><time>2026-04-25T09:43:52.998Z</time></trkpt><trkpt lat="44.70244884234984" lon="9.75139542360492"><ele>839.3333333333333</ele><time>2026-04-25T09:43:54Z</time></trkpt><trkpt lat="44.702386890142314" lon="9.751317788192676"><ele>837.0</ele><time>2026-04-25T09:43:55Z</time></trkpt><trkpt lat="44.702309566728914" lon="9.751262976056443"><ele>834.6666666666667</ele><time>2026-04-25T09:43:56Z</time></trkpt><trkpt lat="44.70221548798189" lon="9.751284440142658"><ele>832.3333333333334</ele><time>2026-04-25T09:43:57Z</time></trkpt><trkpt lat="44.702145526439864" lon="9.7513756030399"><ele>830.0</ele><time>2026-04-25T09:43:58Z</time></trkpt><trkpt lat="44.70206957308974" lon="9.751438799155089"><ele>830.0</ele><time>2026-04-25T09:43:59Z</time></trkpt><trkpt lat="44.702001206238606" lon="9.751521748683718"><ele>830.0</ele><time>2026-04-25T09:44:00Z</time></trkpt><trkpt lat="44.70193613476845" lon="9.751608589343665"><ele>830.0</ele><time>2026-04-25T09:44:01Z</time></trkpt><trkpt lat="44.70187207237021" lon="9.75170747304121"><ele>830.0</ele><time>2026-04-25T09:44:02Z</time></trkpt><trkpt lat="44.701823842580566" lon="9.751817780558296"><ele>830.0</ele><time>2026-04-25T09:44:03Z</time></trkpt><trkpt lat="44.70176281904744" lon="9.751903300228832"><ele>831.3333333333334</ele><time>2026-04-25T09:44:04Z</time></trkpt><trkpt lat="44.70169679219414" lon="9.751980541992204"><ele>832.6666666666667</ele><time>2026-04-25T09:44:05Z</time></trkpt><trkpt lat="44.70162575008977" lon="9.752052875187891"><ele>834.0</ele><time>2026-04-25T09:44:06Z</time></trkpt><trkpt lat="44.70155732120415" lon="9.752130452188407"><ele>835.3333333333333</ele><time>2026-04-25T09:44:07Z</time></trkpt><trkpt lat="44.70148789289504" lon="9.75221240302504"><ele>836.6666666666666</ele><time>2026-04-25T09:44:08Z</time></trkpt><trkpt lat="44.701416727126094" lon="9.752294052068828"><ele>838.0</ele><time>2026-04-25T09:44:09Z</time></trkpt><trkpt lat="44.70133321418898" lon="9.752346851711101"><ele>837.9999999999999</ele><time>2026-04-25T09:44:10Z</time></trkpt><trkpt lat="44.70126683617556" lon="9.752403229393988"><ele>838.0</ele><time>2026-04-25T09:44:11Z</time></trkpt><trkpt lat="44.70120062844874" lon="9.752454792795898"><ele>838.0</ele><time>2026-04-25T09:44:12Z</time></trkpt><trkpt lat="44.70112905064762" lon="9.75241896130523"><ele>838.0</ele><time>2026-04-25T09:44:13Z</time></trkpt><trkpt lat="44.70104721278521" lon="9.752407438495954"><ele>837.9999999999999</ele><time>2026-04-25T09:44:14Z</time></trkpt><trkpt lat="44.70097502342232" lon="9.752353651566802"><ele>838.0</ele><time>2026-04-25T09:44:15Z</time></trkpt><trkpt lat="44.70089231362364" lon="9.75232142994698"><ele>835.3333333333333</ele><time>2026-04-25T09:44:16Z</time></trkpt><trkpt lat="44.700801089676396" lon="9.7523279843805"><ele>832.6666666666666</ele><time>2026-04-25T09:44:17Z</time></trkpt><trkpt lat="44.70070969202855" lon="9.752329639827986"><ele>830.0</ele><time>2026-04-25T09:44:18Z</time></trkpt><trkpt lat="44.70064193204295" lon="9.7524331645242"><ele>827.3333333333333</ele><time>2026-04-25T09:44:19Z</time></trkpt><trkpt lat="44.700576803635045" lon="9.752492750642162"><ele>824.6666666666666</ele><time>2026-04-25T09:44:20Z</time></trkpt><trkpt lat="44.7005086343682" lon="9.75255513947282"><ele>822.0</ele><time>2026-04-25T09:44:21Z</time></trkpt><trkpt lat="44.700431491422584" lon="9.752589981079446"><ele>822.0</ele><time>2026-04-25T09:44:22Z</time></trkpt><trkpt lat="44.7003605720547" lon="9.752631891932921"><ele>822.0</ele><time>2026-04-25T09:44:23Z</time></trkpt><trkpt lat="44.700290014107836" lon="9.75266549974609"><ele>822.0</ele><time>2026-04-25T09:44:24Z</time></trkpt><trkpt lat="44.700219692453" lon="9.7526690483822"><ele>822.0</ele><time>2026-04-25T09:44:25Z</time></trkpt><trkpt lat="44.70014286924767" lon="9.752675864328856"><ele>822.0</ele><time>2026-04-25T09:44:26Z</time></trkpt><trkpt lat="44.700067452367975" lon="9.752662571255662"><ele>822.0</ele><time>2026-04-25T09:44:27Z</time></trkpt><trkpt lat="44.6999961183918" lon="9.75263691167676"><ele>822.0</ele><time>2026-04-25T09:44:28Z</time></trkpt><trkpt lat="44.69992256731522" lon="9.752643344558042"><ele>822.3333333333334</ele><time>2026-04-25T09:44:29Z</time></trkpt><trkpt lat="44.69985309601378" lon="9.75267358477224"><ele>822.6666666666667</ele><time>2026-04-25T09:44:30Z</time></trkpt><trkpt lat="44.69979047109482" lon="9.752726217597077"><ele>823.0</ele><time>2026-04-25T09:44:31Z</time></trkpt><trkpt lat="44.69974023280639" lon="9.752793148959894"><ele>823.3333333333334</ele><time>2026-04-25T09:44:32Z</time></trkpt><trkpt lat="44.69969771236712" lon="9.75286492451958"><ele>823.6666666666667</ele><time>2026-04-25T09:44:33Z</time></trkpt><trkpt lat="44.69966311259327" lon="9.752941581122146"><ele>824.0</ele><time>2026-04-25T09:44:34Z</time></trkpt><trkpt lat="44.69960898903895" lon="9.753095156922212"><ele>824.0</ele><time>2026-04-25T09:44:36Z</time></trkpt><trkpt lat="44.69955874533783" lon="9.753238920334356"><ele>824.0</ele><time>2026-04-25T09:44:38Z</time></trkpt><trkpt lat="44.699483960874765" lon="9.753370747088457"><ele>824.0</ele><time>2026-04-25T09:44:40Z</time></trkpt><trkpt lat="44.69943077604756" lon="9.753418725225584"><ele>824.0</ele><time>2026-04-25T09:44:41Z</time></trkpt><trkpt lat="44.6993135272237" lon="9.753460176262072"><ele>824.0</ele><time>2026-04-25T09:44:43Z</time></trkpt><trkpt lat="44.69921530819962" lon="9.753534723072233"><ele>824.3333333333334</ele><time>2026-04-25T09:44:45Z</time></trkpt><trkpt lat="44.69910976213498" lon="9.753581381295879"><ele>824.6666666666667</ele><time>2026-04-25T09:44:47Z</time></trkpt><trkpt lat="44.69901492963829" lon="9.753692975976922"><ele>825.0</ele><time>2026-04-25T09:44:49Z</time></trkpt><trkpt lat="44.69896029164066" lon="9.753742445964875"><ele>825.3333333333333</ele><time>2026-04-25T09:44:50Z</time></trkpt><trkpt lat="44.698906908164936" lon="9.753799076122641"><ele>825.6666666666666</ele><time>2026-04-25T09:44:51Z</time></trkpt><trkpt lat="44.698855506668274" lon="9.753863059418899"><ele>826.0</ele><time>2026-04-25T09:44:52Z</time></trkpt><trkpt lat="44.69880532796707" lon="9.753927259229423"><ele>826.0</ele><time>2026-04-25T09:44:53Z</time></trkpt><trkpt lat="44.698743841848184" lon="9.753971221409502"><ele>826.0</ele><time>2026-04-25T09:44:54Z</time></trkpt><trkpt lat="44.69869144431383" lon="9.754026391795096"><ele>826.0</ele><time>2026-04-25T09:44:55Z</time></trkpt><trkpt lat="44.69864158818665" lon="9.754089016832694"><ele>826.0</ele><time>2026-04-25T09:44:56Z</time></trkpt><trkpt lat="44.69857874873103" lon="9.754124946779738"><ele>826.0</ele><time>2026-04-25T09:44:57Z</time></trkpt><trkpt lat="44.69851526162209" lon="9.754153360253651"><ele>826.0</ele><time>2026-04-25T09:44:58Z</time></trkpt><trkpt lat="44.698451514892824" lon="9.754172104247463"><ele>826.0</ele><time>2026-04-25T09:44:58.999Z</time></trkpt><trkpt lat="44.698383549684294" lon="9.754172881458983"><ele>825.2857142857143</ele><time>2026-04-25T09:44:59.999Z</time></trkpt><trkpt lat="44.69832060859336" lon="9.754156825282355"><ele>824.5714285714286</ele><time>2026-04-25T09:45:00.999Z</time></trkpt><trkpt lat="44.69825812278922" lon="9.754141855192621"><ele>823.8571428571429</ele><time>2026-04-25T09:45:01.999Z</time></trkpt><trkpt lat="44.69819490839065" lon="9.754127966228813"><ele>823.1428571428571</ele><time>2026-04-25T09:45:02.999Z</time></trkpt><trkpt lat="44.69807194390583" lon="9.754106356467876"><ele>822.4285714285714</ele><time>2026-04-25T09:45:04.999Z</time></trkpt><trkpt lat="44.69801047151808" lon="9.75407647110291"><ele>821.7142857142858</ele><time>2026-04-25T09:45:05.999Z</time></trkpt><trkpt lat="44.697945157979085" lon="9.75406475938361"><ele>821.0</ele><time>2026-04-25T09:45:06.999Z</time></trkpt><trkpt lat="44.697876923268005" lon="9.754076547912431"><ele>821.0000000000001</ele><time>2026-04-25T09:45:07.999Z</time></trkpt><trkpt lat="44.69781017347957" lon="9.754060943426634"><ele>821.0</ele><time>2026-04-25T09:45:08.999Z</time></trkpt><trkpt lat="44.69774331555536" lon="9.754048781027185"><ele>821.0</ele><time>2026-04-25T09:45:09.999Z</time></trkpt><trkpt lat="44.69767766748588" lon="9.754034940780196"><ele>821.0</ele><time>2026-04-25T09:45:10.999Z</time></trkpt><trkpt lat="44.69761512250059" lon="9.754020379536934"><ele>821.0000000000001</ele><time>2026-04-25T09:45:11.999Z</time></trkpt><trkpt lat="44.69749639689487" lon="9.753997038004286"><ele>821.0</ele><time>2026-04-25T09:45:13.999Z</time></trkpt><trkpt lat="44.69738608263737" lon="9.753966972918782"><ele>822.4</ele><time>2026-04-25T09:45:15.999Z</time></trkpt><trkpt lat="44.697280044896814" lon="9.753947853488622"><ele>823.8</ele><time>2026-04-25T09:45:17.999Z</time></trkpt><trkpt lat="44.69718434973888" lon="9.753925682162741"><ele>825.1999999999999</ele><time>2026-04-25T09:45:19.999Z</time></trkpt><trkpt lat="44.69708899078505" lon="9.753898867635817"><ele>826.5999999999999</ele><time>2026-04-25T09:45:21.999Z</time></trkpt><trkpt lat="44.69699615153211" lon="9.753880212154316"><ele>828.0</ele><time>2026-04-25T09:45:23.999Z</time></trkpt><trkpt lat="44.69690622040966" lon="9.753867018799497"><ele>829.0</ele><time>2026-04-25T09:45:25.999Z</time></trkpt><trkpt lat="44.69682436882157" lon="9.753864573880142"><ele>830.0</ele><time>2026-04-25T09:45:27.999Z</time></trkpt><trkpt lat="44.69673907859004" lon="9.753863756230796"><ele>831.0</ele><time>2026-04-25T09:45:29.999Z</time></trkpt><trkpt lat="44.69665192258579" lon="9.753877339909057"><ele>832.0</ele><time>2026-04-25T09:45:31.999Z</time></trkpt><trkpt lat="44.69656042872342" lon="9.753885868198937"><ele>833.0</ele><time>2026-04-25T09:45:33.999Z</time></trkpt><trkpt lat="44.6964703938381" lon="9.75390122048707"><ele>834.0</ele><time>2026-04-25T09:45:35.999Z</time></trkpt><trkpt lat="44.69637934358136" lon="9.753909954868625"><ele>834.0</ele><time>2026-04-25T09:45:37.999Z</time></trkpt><trkpt lat="44.69628870736124" lon="9.753922478141028"><ele>834.0</ele><time>2026-04-25T09:45:39.999Z</time></trkpt><trkpt lat="44.69619663202248" lon="9.753939850474"><ele>834.0</ele><time>2026-04-25T09:45:41.999Z</time></trkpt><trkpt lat="44.696105357650524" lon="9.753950292354423"><ele>834.0</ele><time>2026-04-25T09:45:43.999Z</time></trkpt><trkpt lat="44.696008137094694" lon="9.753968313484226"><ele>834.0</ele><time>2026-04-25T09:45:45.999Z</time></trkpt><trkpt lat="44.69591495121796" lon="9.753949896226665"><ele>834.0</ele><time>2026-04-25T09:45:47.999Z</time></trkpt><trkpt lat="44.695816530175506" lon="9.753948269190817"><ele>834.0</ele><time>2026-04-25T09:45:49.999Z</time></trkpt><trkpt lat="44.69571971216588" lon="9.753932584213675"><ele>834.0</ele><time>2026-04-25T09:45:51.999Z</time></trkpt><trkpt lat="44.69562316381835" lon="9.753912900393072"><ele>834.0</ele><time>2026-04-25T09:45:53.998Z</time></trkpt><trkpt lat="44.695524150462646" lon="9.75389879627346"><ele>834.0</ele><time>2026-04-25T09:45:55.998Z</time></trkpt><trkpt lat="44.69542643321444" lon="9.75388006739014"><ele>834.0</ele><time>2026-04-25T09:45:57.998Z</time></trkpt><trkpt lat="44.695328286764365" lon="9.753862728709905"><ele>834.0</ele><time>2026-04-25T09:46:00Z</time></trkpt><trkpt lat="44.69522969094047" lon="9.753842407901438"><ele>834.0</ele><time>2026-04-25T09:46:02Z</time></trkpt><trkpt lat="44.69513837939393" lon="9.753819267100527"><ele>834.0</ele><time>2026-04-25T09:46:04Z</time></trkpt><trkpt lat="44.6950472412724" lon="9.753803351821622"><ele>834.0</ele><time>2026-04-25T09:46:06Z</time></trkpt><trkpt lat="44.69495497147745" lon="9.753784859621835"><ele>834.3333333333334</ele><time>2026-04-25T09:46:08Z</time></trkpt><trkpt lat="44.6948684805892" lon="9.753752239905605"><ele>834.6666666666667</ele><time>2026-04-25T09:46:10Z</time></trkpt><trkpt lat="44.69478288515324" lon="9.75372354995391"><ele>835.0</ele><time>2026-04-25T09:46:12Z</time></trkpt><trkpt lat="44.69470356501724" lon="9.753692717829502"><ele>835.3333333333334</ele><time>2026-04-25T09:46:14Z</time></trkpt><trkpt lat="44.69462162802677" lon="9.753662472197524"><ele>835.6666666666667</ele><time>2026-04-25T09:46:16Z</time></trkpt><trkpt lat="44.69453959942345" lon="9.753630173701453"><ele>836.0</ele><time>2026-04-25T09:46:18Z</time></trkpt><trkpt lat="44.69445100443295" lon="9.753601943097982"><ele>836.8</ele><time>2026-04-25T09:46:20Z</time></trkpt><trkpt lat="44.69432797987053" lon="9.753579337481668"><ele>837.5999999999999</ele><time>2026-04-25T09:46:23Z</time></trkpt><trkpt lat="44.69421639933909" lon="9.7535437635103"><ele>838.4</ele><time>2026-04-25T09:46:26Z</time></trkpt><trkpt lat="44.6941502964584" lon="9.753570842734666"><ele>839.2</ele><time>2026-04-25T09:46:27Z</time></trkpt><trkpt lat="44.69405964484529" lon="9.753574987085875"><ele>840.0</ele><time>2026-04-25T09:46:29Z</time></trkpt><trkpt lat="44.69396327582758" lon="9.753583297478484"><ele>840.0</ele><time>2026-04-25T09:46:31Z</time></trkpt><trkpt lat="44.69386507188339" lon="9.753588969802738"><ele>840.0</ele><time>2026-04-25T09:46:33Z</time></trkpt><trkpt lat="44.69376550384869" lon="9.75359482725676"><ele>840.0</ele><time>2026-04-25T09:46:35Z</time></trkpt><trkpt lat="44.69366133539693" lon="9.753606807964951"><ele>840.0</ele><time>2026-04-25T09:46:37Z</time></trkpt><trkpt lat="44.69356417778783" lon="9.75361181821026"><ele>840.0</ele><time>2026-04-25T09:46:39Z</time></trkpt><trkpt lat="44.69346644284629" lon="9.753615571057573"><ele>839.0</ele><time>2026-04-25T09:46:41Z</time></trkpt><trkpt lat="44.69336915352212" lon="9.753625528645674"><ele>838.0</ele><time>2026-04-25T09:46:43Z</time></trkpt><trkpt lat="44.69326797131031" lon="9.75363132193832"><ele>837.0</ele><time>2026-04-25T09:46:45Z</time></trkpt><trkpt lat="44.69316425148305" lon="9.753626143572324"><ele>836.0</ele><time>2026-04-25T09:46:47Z</time></trkpt><trkpt lat="44.69306870072914" lon="9.753573261211098"><ele>835.0</ele><time>2026-04-25T09:46:49Z</time></trkpt><trkpt lat="44.69298787437381" lon="9.753509240844174"><ele>834.9999999999999</ele><time>2026-04-25T09:46:51Z</time></trkpt><trkpt lat="44.692925677198595" lon="9.753432012494374"><ele>835.0</ele><time>2026-04-25T09:46:53Z</time></trkpt><trkpt lat="44.692868718434895" lon="9.753351782369496"><ele>835.0</ele><time>2026-04-25T09:46:55Z</time></trkpt><trkpt lat="44.69282209598334" lon="9.753276961894404"><ele>835.0</ele><time>2026-04-25T09:46:57Z</time></trkpt><trkpt lat="44.692776709570175" lon="9.753201605591535"><ele>834.9999999999999</ele><time>2026-04-25T09:46:59Z</time></trkpt><trkpt lat="44.69273581377759" lon="9.753126489248245"><ele>835.0</ele><time>2026-04-25T09:47:01Z</time></trkpt><trkpt lat="44.69267912272698" lon="9.753020163813177"><ele>836.1666666666666</ele><time>2026-04-25T09:47:03.999Z</time></trkpt><trkpt lat="44.6926257394497" lon="9.752922151141004"><ele>837.3333333333333</ele><time>2026-04-25T09:47:06.999Z</time></trkpt><trkpt lat="44.69256293207465" lon="9.75282937823011"><ele>838.5</ele><time>2026-04-25T09:47:09.999Z</time></trkpt><trkpt lat="44.69251276905576" lon="9.752770365312285"><ele>839.6666666666667</ele><time>2026-04-25T09:47:11.999Z</time></trkpt><trkpt lat="44.69243383110398" lon="9.752704772881916"><ele>840.8333333333334</ele><time>2026-04-25T09:47:14.999Z</time></trkpt><trkpt lat="44.69234725395595" lon="9.752676872568609"><ele>842.0</ele><time>2026-04-25T09:47:17.999Z</time></trkpt><trkpt lat="44.692262026175314" lon="9.752631764661897"><ele>842.0</ele><time>2026-04-25T09:47:20.999Z</time></trkpt><trkpt lat="44.69217754225976" lon="9.752589830035292"><ele>842.0</ele><time>2026-04-25T09:47:23.999Z</time></trkpt><trkpt lat="44.69209279059243" lon="9.752545375411893"><ele>842.0</ele><time>2026-04-25T09:47:26.999Z</time></trkpt><trkpt lat="44.692010038766306" lon="9.752499752585877"><ele>842.0</ele><time>2026-04-25T09:47:29.999Z</time></trkpt><trkpt lat="44.69192521140185" lon="9.752448345375214"><ele>842.0</ele><time>2026-04-25T09:47:32.999Z</time></trkpt><trkpt lat="44.691844810874194" lon="9.752396469436134"><ele>844.1666666666667</ele><time>2026-04-25T09:47:35.999Z</time></trkpt><trkpt lat="44.69175964091439" lon="9.752344023044813"><ele>846.3333333333334</ele><time>2026-04-25T09:47:38.999Z</time></trkpt><trkpt lat="44.69166869672577" lon="9.752291370811593"><ele>848.5</ele><time>2026-04-25T09:47:41.999Z</time></trkpt><trkpt lat="44.69160201299135" lon="9.752252391023605"><ele>850.6666666666667</ele><time>2026-04-25T09:47:43.999Z</time></trkpt><trkpt lat="44.69153820663072" lon="9.752205002459833"><ele>852.8333333333334</ele><time>2026-04-25T09:47:45.999Z</time></trkpt><trkpt lat="44.69148088476202" lon="9.752155477787014"><ele>855.0</ele><time>2026-04-25T09:47:47.999Z</time></trkpt><trkpt lat="44.69142163772771" lon="9.75210068757518"><ele>855.0</ele><time>2026-04-25T09:47:49.999Z</time></trkpt><trkpt lat="44.69136486828623" lon="9.752043684674446"><ele>855.0</ele><time>2026-04-25T09:47:51.999Z</time></trkpt><trkpt lat="44.69130682435988" lon="9.751983594205182"><ele>855.0</ele><time>2026-04-25T09:47:54.999Z</time></trkpt><trkpt lat="44.6912532121847" lon="9.751929031934088"><ele>855.0</ele><time>2026-04-25T09:47:55.999Z</time></trkpt><trkpt lat="44.69119653479195" lon="9.751879614242428"><ele>855.0</ele><time>2026-04-25T09:47:58.998Z</time></trkpt><trkpt lat="44.69114333022826" lon="9.751829584257004"><ele>855.0</ele><time>2026-04-25T09:47:59.998Z</time></trkpt><trkpt lat="44.69108053652856" lon="9.751781121561908"><ele>855.0</ele><time>2026-04-25T09:48:01.998Z</time></trkpt><trkpt lat="44.691011421271924" lon="9.751726587648339"><ele>855.3333333333334</ele><time>2026-04-25T09:48:03.998Z</time></trkpt><trkpt lat="44.69095126626605" lon="9.751692743561117"><ele>855.6666666666667</ele><time>2026-04-25T09:48:04.998Z</time></trkpt><trkpt lat="44.69087328506481" lon="9.751631500871762"><ele>856.0</ele><time>2026-04-25T09:48:07Z</time></trkpt><trkpt lat="44.69079507625563" lon="9.751564036466554"><ele>856.3333333333334</ele><time>2026-04-25T09:48:09Z</time></trkpt><trkpt lat="44.69072059763038" lon="9.751484875804003"><ele>856.6666666666667</ele><time>2026-04-25T09:48:11Z</time></trkpt><trkpt lat="44.69064806073714" lon="9.75139796693515"><ele>857.0</ele><time>2026-04-25T09:48:13Z</time></trkpt><trkpt lat="44.69057664596547" lon="9.751310018874626"><ele>857.0</ele><time>2026-04-25T09:48:15Z</time></trkpt><trkpt lat="44.6905042454886" lon="9.751218211673676"><ele>857.0</ele><time>2026-04-25T09:48:17Z</time></trkpt><trkpt lat="44.69042568666673" lon="9.75113495170173"><ele>857.0</ele><time>2026-04-25T09:48:19Z</time></trkpt><trkpt lat="44.69034431277349" lon="9.751058395176154"><ele>857.0</ele><time>2026-04-25T09:48:21Z</time></trkpt><trkpt lat="44.6902580962654" lon="9.750991717948283"><ele>857.0</ele><time>2026-04-25T09:48:23Z</time></trkpt><trkpt lat="44.69016984889356" lon="9.750915866711646"><ele>857.8</ele><time>2026-04-25T09:48:25Z</time></trkpt><trkpt lat="44.6901000703574" lon="9.750853139401608"><ele>858.6</ele><time>2026-04-25T09:48:27Z</time></trkpt><trkpt lat="44.69003022379658" lon="9.750749783893745"><ele>859.3999999999999</ele><time>2026-04-25T09:48:29Z</time></trkpt><trkpt lat="44.68998291678212" lon="9.750629169804785"><ele>860.1999999999999</ele><time>2026-04-25T09:48:31Z</time></trkpt><trkpt lat="44.68994090070606" lon="9.750510544276962"><ele>861.0</ele><time>2026-04-25T09:48:33Z</time></trkpt><trkpt lat="44.68990003598809" lon="9.750409657711598"><ele>861.0</ele><time>2026-04-25T09:48:35Z</time></trkpt><trkpt lat="44.68985320955589" lon="9.750311602648011"><ele>861.0</ele><time>2026-04-25T09:48:37Z</time></trkpt><trkpt lat="44.689803273802966" lon="9.750226606352584"><ele>861.0</ele><time>2026-04-25T09:48:39Z</time></trkpt><trkpt lat="44.68974216098439" lon="9.750152298761641"><ele>861.0</ele><time>2026-04-25T09:48:41Z</time></trkpt><trkpt lat="44.689675036747865" lon="9.750095844597904"><ele>861.0</ele><time>2026-04-25T09:48:43Z</time></trkpt><trkpt lat="44.68960024676407" lon="9.750073925174945"><ele>861.0</ele><time>2026-04-25T09:48:45Z</time></trkpt><trkpt lat="44.68953066773773" lon="9.750077300815905"><ele>861.6666666666666</ele><time>2026-04-25T09:48:47Z</time></trkpt><trkpt lat="44.689441593607874" lon="9.750087434780117"><ele>862.3333333333333</ele><time>2026-04-25T09:48:50Z</time></trkpt><trkpt lat="44.68934887849886" lon="9.750096133404734"><ele>863.0</ele><time>2026-04-25T09:48:53Z</time></trkpt><trkpt lat="44.68926260713785" lon="9.750106936798375"><ele>863.6666666666666</ele><time>2026-04-25T09:48:56Z</time></trkpt><trkpt lat="44.68917273511996" lon="9.750124937326593"><ele>864.3333333333333</ele><time>2026-04-25T09:48:59Z</time></trkpt><trkpt lat="44.689105920909945" lon="9.750134573521477"><ele>865.0</ele><time>2026-04-25T09:49:01Z</time></trkpt><trkpt lat="44.68903330356733" lon="9.750111562135915"><ele>865.0</ele><time>2026-04-25T09:49:03Z</time></trkpt><trkpt lat="44.688927812076756" lon="9.749975877319395"><ele>865.0</ele><time>2026-04-25T09:49:06Z</time></trkpt><trkpt lat="44.68887967997017" lon="9.749867553848361"><ele>865.0</ele><time>2026-04-25T09:49:08Z</time></trkpt><trkpt lat="44.6888296181796" lon="9.749730705514999"><ele>865.0</ele><time>2026-04-25T09:49:09.999Z</time></trkpt><trkpt lat="44.68877674808398" lon="9.749592385218786"><ele>864.9999999999999</ele><time>2026-04-25T09:49:11.999Z</time></trkpt><trkpt lat="44.688767920224244" lon="9.749502497408644"><ele>865.0</ele><time>2026-04-25T09:49:12.999Z</time></trkpt><trkpt lat="44.68877263058511" lon="9.749397450178769"><ele>865.0</ele><time>2026-04-25T09:49:13.999Z</time></trkpt><trkpt lat="44.68878284373047" lon="9.749266177558797"><ele>865.0</ele><time>2026-04-25T09:49:14.999Z</time></trkpt><trkpt lat="44.688795921385505" lon="9.749143307525053"><ele>864.9999999999999</ele><time>2026-04-25T09:49:15.999Z</time></trkpt><trkpt lat="44.6888206220975" lon="9.749025626644537"><ele>865.0</ele><time>2026-04-25T09:49:16.999Z</time></trkpt><trkpt lat="44.688845507524185" lon="9.748898584787199"><ele>863.8333333333333</ele><time>2026-04-25T09:49:17.999Z</time></trkpt><trkpt lat="44.68886957508942" lon="9.748771340203298"><ele>862.6666666666666</ele><time>2026-04-25T09:49:18.999Z</time></trkpt><trkpt lat="44.68888710310284" lon="9.74864602450231"><ele>861.5</ele><time>2026-04-25T09:49:19.999Z</time></trkpt><trkpt lat="44.688886579603675" lon="9.748520859534365"><ele>860.3333333333333</ele><time>2026-04-25T09:49:20.999Z</time></trkpt><trkpt lat="44.6888809176756" lon="9.748401716759801"><ele>859.1666666666666</ele><time>2026-04-25T09:49:21.999Z</time></trkpt><trkpt lat="44.688860509175086" lon="9.748284321997224"><ele>858.0</ele><time>2026-04-25T09:49:22.999Z</time></trkpt><trkpt lat="44.68883993776931" lon="9.748165331609217"><ele>857.5999999999999</ele><time>2026-04-25T09:49:23.999Z</time></trkpt><trkpt lat="44.688814502851436" lon="9.748040698109417"><ele>857.1999999999999</ele><time>2026-04-25T09:49:24.999Z</time></trkpt><trkpt lat="44.68878653654882" lon="9.747913456492684"><ele>856.8</ele><time>2026-04-25T09:49:25.999Z</time></trkpt><trkpt lat="44.68876236617469" lon="9.747785976411476"><ele>856.4</ele><time>2026-04-25T09:49:26.999Z</time></trkpt><trkpt lat="44.68875975120812" lon="9.747648053611174"><ele>856.0</ele><time>2026-04-25T09:49:27.999Z</time></trkpt><trkpt lat="44.688786485880286" lon="9.747516463376096"><ele>856.0</ele><time>2026-04-25T09:49:28.999Z</time></trkpt><trkpt lat="44.688841362197536" lon="9.747407882145382"><ele>855.9999999999999</ele><time>2026-04-25T09:49:29.999Z</time></trkpt><trkpt lat="44.688877445523815" lon="9.747303623211103"><ele>855.9999999999999</ele><time>2026-04-25T09:49:30.999Z</time></trkpt><trkpt lat="44.68889659990705" lon="9.747179054729713"><ele>856.0</ele><time>2026-04-25T09:49:31.999Z</time></trkpt><trkpt lat="44.688886655638086" lon="9.747052940598289"><ele>856.0</ele><time>2026-04-25T09:49:32.999Z</time></trkpt><trkpt lat="44.68887377664343" lon="9.7469245515617"><ele>855.8333333333333</ele><time>2026-04-25T09:49:33.999Z</time></trkpt><trkpt lat="44.688864576123365" lon="9.746800389297292"><ele>855.6666666666666</ele><time>2026-04-25T09:49:34.999Z</time></trkpt><trkpt lat="44.68887302167294" lon="9.746676117536484"><ele>855.5</ele><time>2026-04-25T09:49:35.999Z</time></trkpt><trkpt lat="44.68889956954816" lon="9.746559282063028"><ele>855.3333333333333</ele><time>2026-04-25T09:49:36.999Z</time></trkpt><trkpt lat="44.688932924806544" lon="9.746445658663403"><ele>855.1666666666666</ele><time>2026-04-25T09:49:37.999Z</time></trkpt><trkpt lat="44.68896277853984" lon="9.74633043159598"><ele>855.0</ele><time>2026-04-25T09:49:38.999Z</time></trkpt><trkpt lat="44.68898759615715" lon="9.74621613041937"><ele>855.0</ele><time>2026-04-25T09:49:39.999Z</time></trkpt><trkpt lat="44.68900134056304" lon="9.746098051262747"><ele>855.0</ele><time>2026-04-25T09:49:40.999Z</time></trkpt><trkpt lat="44.6890066479227" lon="9.745979696507204"><ele>855.0</ele><time>2026-04-25T09:49:41.999Z</time></trkpt><trkpt lat="44.68901309928088" lon="9.745862945185756"><ele>855.0</ele><time>2026-04-25T09:49:42.999Z</time></trkpt><trkpt lat="44.68902073356561" lon="9.745746608661728"><ele>855.0</ele><time>2026-04-25T09:49:43.999Z</time></trkpt><trkpt lat="44.689027689853575" lon="9.745630812979778"><ele>855.0</ele><time>2026-04-25T09:49:44.999Z</time></trkpt><trkpt lat="44.68904792555669" lon="9.745522743631792"><ele>855.6666666666666</ele><time>2026-04-25T09:49:45.999Z</time></trkpt><trkpt lat="44.68908788859544" lon="9.745422589044994"><ele>856.3333333333333</ele><time>2026-04-25T09:49:46.999Z</time></trkpt><trkpt lat="44.689136860795905" lon="9.745328081171545"><ele>857.0</ele><time>2026-04-25T09:49:47.999Z</time></trkpt><trkpt lat="44.689176713703546" lon="9.745222927752003"><ele>857.6666666666666</ele><time>2026-04-25T09:49:48.999Z</time></trkpt><trkpt lat="44.68919756013714" lon="9.74510377644903"><ele>858.3333333333333</ele><time>2026-04-25T09:49:49.999Z</time></trkpt><trkpt lat="44.68919285213126" lon="9.744976007359638"><ele>859.0</ele><time>2026-04-25T09:49:50.999Z</time></trkpt><trkpt lat="44.689175723173186" lon="9.744847203611668"><ele>859.0</ele><time>2026-04-25T09:49:51.999Z</time></trkpt><trkpt lat="44.68915689289275" lon="9.744715833400525"><ele>859.0000000000001</ele><time>2026-04-25T09:49:52.999Z</time></trkpt><trkpt lat="44.68917035064215" lon="9.744579684465444"><ele>859.0000000000001</ele><time>2026-04-25T09:49:53.999Z</time></trkpt><trkpt lat="44.68915297140133" lon="9.74444167080716"><ele>859.0</ele><time>2026-04-25T09:49:54.999Z</time></trkpt><trkpt lat="44.689152816732374" lon="9.744300700678426"><ele>859.0</ele><time>2026-04-25T09:49:55.999Z</time></trkpt><trkpt lat="44.68913507466038" lon="9.744163658191388"><ele>858.0</ele><time>2026-04-25T09:49:56.999Z</time></trkpt><trkpt lat="44.68910527719447" lon="9.744029452009933"><ele>857.0000000000001</ele><time>2026-04-25T09:49:57.999Z</time></trkpt><trkpt lat="44.6890609834746" lon="9.743901657540595"><ele>856.0000000000001</ele><time>2026-04-25T09:49:58.999Z</time></trkpt><trkpt lat="44.68900990662952" lon="9.74377860294493"><ele>855.0</ele><time>2026-04-25T09:49:59.999Z</time></trkpt><trkpt lat="44.68896840150721" lon="9.74365686155312"><ele>854.0</ele><time>2026-04-25T09:50:00.999Z</time></trkpt><trkpt lat="44.68894248115007" lon="9.743533113692765"><ele>853.4000000000001</ele><time>2026-04-25T09:50:01.999Z</time></trkpt><trkpt lat="44.68894829922071" lon="9.74339958126693"><ele>852.8000000000001</ele><time>2026-04-25T09:50:02.998Z</time></trkpt><trkpt lat="44.68901084608269" lon="9.743286507483495"><ele>852.2</ele><time>2026-04-25T09:50:03.998Z</time></trkpt><trkpt lat="44.68906646247822" lon="9.74317091993578"><ele>851.5999999999999</ele><time>2026-04-25T09:50:04.998Z</time></trkpt><trkpt lat="44.689139164847944" lon="9.743072202464186"><ele>851.0</ele><time>2026-04-25T09:50:05.998Z</time></trkpt><trkpt lat="44.68920291063062" lon="9.74296498846608"><ele>851.0</ele><time>2026-04-25T09:50:06.998Z</time></trkpt><trkpt lat="44.689265857870275" lon="9.74285766984264"><ele>851.0</ele><time>2026-04-25T09:50:07.998Z</time></trkpt><trkpt lat="44.68933433806445" lon="9.742758524630366"><ele>851.0</ele><time>2026-04-25T09:50:08.998Z</time></trkpt><trkpt lat="44.6894249216307" lon="9.74268797367674"><ele>851.0</ele><time>2026-04-25T09:50:09.998Z</time></trkpt><trkpt lat="44.68952813544497" lon="9.742650031336314"><ele>851.0</ele><time>2026-04-25T09:50:11Z</time></trkpt><trkpt lat="44.68962988334682" lon="9.742629312968937"><ele>850.0</ele><time>2026-04-25T09:50:12Z</time></trkpt><trkpt lat="44.68972980126186" lon="9.742614658631027"><ele>849.0</ele><time>2026-04-25T09:50:13Z</time></trkpt><trkpt lat="44.68982680054991" lon="9.742602897432581"><ele>848.0</ele><time>2026-04-25T09:50:14Z</time></trkpt><trkpt lat="44.68992450534362" lon="9.742590873743158"><ele>847.0</ele><time>2026-04-25T09:50:15Z</time></trkpt><trkpt lat="44.690022558568046" lon="9.742577265485178"><ele>846.0</ele><time>2026-04-25T09:50:16Z</time></trkpt><trkpt lat="44.69012025651481" lon="9.742553020335773"><ele>846.0</ele><time>2026-04-25T09:50:17Z</time></trkpt><trkpt lat="44.690214279593725" lon="9.742502357055253"><ele>846.0</ele><time>2026-04-25T09:50:18Z</time></trkpt><trkpt lat="44.690296498247434" lon="9.742415073252756"><ele>846.0</ele><time>2026-04-25T09:50:19Z</time></trkpt><trkpt lat="44.69036558986169" lon="9.74230634356943"><ele>846.0</ele><time>2026-04-25T09:50:20Z</time></trkpt><trkpt lat="44.690427799520094" lon="9.742194550456837"><ele>846.0</ele><time>2026-04-25T09:50:21Z</time></trkpt><trkpt lat="44.69048799938443" lon="9.742080034389723"><ele>845.8</ele><time>2026-04-25T09:50:22Z</time></trkpt><trkpt lat="44.690556845345284" lon="9.741982315304243"><ele>845.5999999999999</ele><time>2026-04-25T09:50:23Z</time></trkpt><trkpt lat="44.6906429617074" lon="9.741907519365299"><ele>845.4</ele><time>2026-04-25T09:50:24Z</time></trkpt><trkpt lat="44.690742746708004" lon="9.741862912428306"><ele>845.2</ele><time>2026-04-25T09:50:25Z</time></trkpt><trkpt lat="44.69084660120374" lon="9.741855057144036"><ele>845.0</ele><time>2026-04-25T09:50:26Z</time></trkpt><trkpt lat="44.69095125429796" lon="9.741856902861668"><ele>845.0</ele><time>2026-04-25T09:50:27Z</time></trkpt><trkpt lat="44.69105242114339" lon="9.74185459369743"><ele>845.0</ele><time>2026-04-25T09:50:28Z</time></trkpt><trkpt lat="44.69115624392771" lon="9.741842993786982"><ele>845.0</ele><time>2026-04-25T09:50:29Z</time></trkpt><trkpt lat="44.691257655700035" lon="9.74181141646033"><ele>845.0</ele><time>2026-04-25T09:50:30Z</time></trkpt><trkpt lat="44.69135547141823" lon="9.741754185404401"><ele>845.0</ele><time>2026-04-25T09:50:31Z</time></trkpt><trkpt lat="44.69144843396225" lon="9.74167618218941"><ele>843.5</ele><time>2026-04-25T09:50:32Z</time></trkpt><trkpt lat="44.691548094096284" lon="9.741602892157243"><ele>842.0</ele><time>2026-04-25T09:50:33Z</time></trkpt><trkpt lat="44.69165770804411" lon="9.741552040687994"><ele>840.5</ele><time>2026-04-25T09:50:34Z</time></trkpt><trkpt lat="44.6917690634262" lon="9.74150850509001"><ele>839.0</ele><time>2026-04-25T09:50:35Z</time></trkpt><trkpt lat="44.691881658444245" lon="9.741472749785363"><ele>835.8000000000001</ele><time>2026-04-25T09:50:36Z</time></trkpt><trkpt lat="44.691985501353095" lon="9.74143964887608"><ele>832.6</ele><time>2026-04-25T09:50:37Z</time></trkpt><trkpt lat="44.692078793112834" lon="9.741393542227453"><ele>829.4</ele><time>2026-04-25T09:50:38Z</time></trkpt><trkpt lat="44.6921578403669" lon="9.741317580733265"><ele>826.2</ele><time>2026-04-25T09:50:39Z</time></trkpt><trkpt lat="44.69221324290202" lon="9.741193952555763"><ele>823.0</ele><time>2026-04-25T09:50:40Z</time></trkpt><trkpt lat="44.692235693261075" lon="9.741042547626114"><ele>823.0</ele><time>2026-04-25T09:50:41Z</time></trkpt><trkpt lat="44.69223796040276" lon="9.740888491235618"><ele>823.0</ele><time>2026-04-25T09:50:42Z</time></trkpt><trkpt lat="44.69224117917393" lon="9.740741594149616"><ele>823.0</ele><time>2026-04-25T09:50:43Z</time></trkpt><trkpt lat="44.69226416115304" lon="9.740600813437469"><ele>823.0</ele><time>2026-04-25T09:50:44Z</time></trkpt><trkpt lat="44.69230357414229" lon="9.740472230662991"><ele>823.0</ele><time>2026-04-25T09:50:45Z</time></trkpt><trkpt lat="44.69236475980356" lon="9.740362994440101"><ele>823.0</ele><time>2026-04-25T09:50:46Z</time></trkpt><trkpt lat="44.69243988415986" lon="9.740268074968684"><ele>823.0</ele><time>2026-04-25T09:50:47Z</time></trkpt><trkpt lat="44.69250947588541" lon="9.740168578484548"><ele>823.0</ele><time>2026-04-25T09:50:48Z</time></trkpt><trkpt lat="44.69256250714296" lon="9.740052978467208"><ele>823.0</ele><time>2026-04-25T09:50:49Z</time></trkpt><trkpt lat="44.692590902064694" lon="9.739921362082859"><ele>823.0</ele><time>2026-04-25T09:50:50Z</time></trkpt><trkpt lat="44.69260103675997" lon="9.739782558834419"><ele>823.0</ele><time>2026-04-25T09:50:51Z</time></trkpt><trkpt lat="44.692608368275" lon="9.739645010341052"><ele>823.0</ele><time>2026-04-25T09:50:52Z</time></trkpt><trkpt lat="44.6925954054291" lon="9.739507691650322"><ele>823.0</ele><time>2026-04-25T09:50:53Z</time></trkpt><trkpt lat="44.69254421072545" lon="9.739385381722876"><ele>823.0</ele><time>2026-04-25T09:50:54Z</time></trkpt><trkpt lat="44.69247024757735" lon="9.739288439975684"><ele>823.0</ele><time>2026-04-25T09:50:55Z</time></trkpt><trkpt lat="44.692381785856746" lon="9.739217804540628"><ele>823.0</ele><time>2026-04-25T09:50:56Z</time></trkpt><trkpt lat="44.6922881691097" lon="9.739172821223976"><ele>823.0</ele><time>2026-04-25T09:50:57Z</time></trkpt><trkpt lat="44.69219116234174" lon="9.73915895432883"><ele>823.0</ele><time>2026-04-25T09:50:58Z</time></trkpt><trkpt lat="44.69210745361473" lon="9.739143680804581"><ele>823.0</ele><time>2026-04-25T09:50:59Z</time></trkpt><trkpt lat="44.692043199729895" lon="9.739075895490595"><ele>823.0</ele><time>2026-04-25T09:51:00Z</time></trkpt><trkpt lat="44.692011569635476" lon="9.738954434258508"><ele>823.0</ele><time>2026-04-25T09:51:01Z</time></trkpt><trkpt lat="44.6920160314211" lon="9.738815174094706"><ele>823.0</ele><time>2026-04-25T09:51:02Z</time></trkpt><trkpt lat="44.6920493661683" lon="9.738691079496654"><ele>823.0</ele><time>2026-04-25T09:51:03Z</time></trkpt><trkpt lat="44.692085396808864" lon="9.738574164557493"><ele>823.0</ele><time>2026-04-25T09:51:04Z</time></trkpt><trkpt lat="44.69211623990941" lon="9.73846281282471"><ele>823.0</ele><time>2026-04-25T09:51:05Z</time></trkpt><trkpt lat="44.692144839173174" lon="9.738351403111732"><ele>822.8333333333333</ele><time>2026-04-25T09:51:06Z</time></trkpt><trkpt lat="44.6921711850574" lon="9.73824057371203"><ele>822.6666666666666</ele><time>2026-04-25T09:51:07Z</time></trkpt><trkpt lat="44.6921989266107" lon="9.738131438251886"><ele>822.5</ele><time>2026-04-25T09:51:08Z</time></trkpt><trkpt lat="44.69222562164522" lon="9.738016556009509"><ele>822.3333333333333</ele><time>2026-04-25T09:51:09Z</time></trkpt><trkpt lat="44.692257945305926" lon="9.737901208515732"><ele>822.1666666666666</ele><time>2026-04-25T09:51:10Z</time></trkpt><trkpt lat="44.69229490249765" lon="9.737783929693254"><ele>822.0</ele><time>2026-04-25T09:51:11Z</time></trkpt><trkpt lat="44.692332760513544" lon="9.737672642708842"><ele>822.8</ele><time>2026-04-25T09:51:11.999Z</time></trkpt><trkpt lat="44.69237356402692" lon="9.73756074624435"><ele>823.6</ele><time>2026-04-25T09:51:12.999Z</time></trkpt><trkpt lat="44.69241501036351" lon="9.737449385969231"><ele>824.4</ele><time>2026-04-25T09:51:13.999Z</time></trkpt><trkpt lat="44.6924547320294" lon="9.737333120442221"><ele>825.1999999999999</ele><time>2026-04-25T09:51:14.999Z</time></trkpt><trkpt lat="44.69250364993672" lon="9.73721590056942"><ele>826.0</ele><time>2026-04-25T09:51:15.999Z</time></trkpt><trkpt lat="44.692566860528125" lon="9.737113176307608"><ele>826.0</ele><time>2026-04-25T09:51:16.999Z</time></trkpt><trkpt lat="44.69264688109261" lon="9.73703150631176"><ele>826.0</ele><time>2026-04-25T09:51:17.999Z</time></trkpt><trkpt lat="44.692738689116545" lon="9.736970659665397"><ele>826.0</ele><time>2026-04-25T09:51:18.999Z</time></trkpt><trkpt lat="44.69283850795333" lon="9.736932764080715"><ele>826.0</ele><time>2026-04-25T09:51:19.999Z</time></trkpt><trkpt lat="44.69294117381274" lon="9.736946807745632"><ele>826.0</ele><time>2026-04-25T09:51:20.999Z</time></trkpt><trkpt lat="44.69304475423441" lon="9.736922403173695"><ele>823.4</ele><time>2026-04-25T09:51:21.999Z</time></trkpt><trkpt lat="44.693146403047685" lon="9.736918363460678"><ele>820.8</ele><time>2026-04-25T09:51:22.999Z</time></trkpt><trkpt lat="44.6932440817639" lon="9.73687459646955"><ele>818.1999999999999</ele><time>2026-04-25T09:51:23.999Z</time></trkpt><trkpt lat="44.693328398795565" lon="9.736782035435732"><ele>815.5999999999999</ele><time>2026-04-25T09:51:24.999Z</time></trkpt><trkpt lat="44.693386513292175" lon="9.736651194290028"><ele>813.0</ele><time>2026-04-25T09:51:25.999Z</time></trkpt><trkpt lat="44.693421274165345" lon="9.736505596008643"><ele>813.0</ele><time>2026-04-25T09:51:26.999Z</time></trkpt><trkpt lat="44.69344948264811" lon="9.736362792227832"><ele>813.0</ele><time>2026-04-25T09:51:27.999Z</time></trkpt><trkpt lat="44.69348435509822" lon="9.73622279673157"><ele>813.0</ele><time>2026-04-25T09:51:28.999Z</time></trkpt><trkpt lat="44.69352141344323" lon="9.736082036499806"><ele>813.0</ele><time>2026-04-25T09:51:29.999Z</time></trkpt><trkpt lat="44.69355632772129" lon="9.735942686738223"><ele>813.0</ele><time>2026-04-25T09:51:30.999Z</time></trkpt><trkpt lat="44.693601122437066" lon="9.735808941774238"><ele>810.5999999999999</ele><time>2026-04-25T09:51:31.999Z</time></trkpt><trkpt lat="44.69367697552167" lon="9.735695262309001"><ele>808.1999999999999</ele><time>2026-04-25T09:51:32.999Z</time></trkpt><trkpt lat="44.69377875214208" lon="9.735629051688617"><ele>805.8</ele><time>2026-04-25T09:51:33.999Z</time></trkpt><trkpt lat="44.69386964930785" lon="9.735542358570974"><ele>803.4</ele><time>2026-04-25T09:51:34.999Z</time></trkpt><trkpt lat="44.69397212528997" lon="9.735479994867601"><ele>801.0</ele><time>2026-04-25T09:51:35.999Z</time></trkpt><trkpt lat="44.694075770743154" lon="9.735425719094032"><ele>801.0</ele><time>2026-04-25T09:51:36.999Z</time></trkpt><trkpt lat="44.69418066135271" lon="9.735376413019658"><ele>801.0</ele><time>2026-04-25T09:51:37.999Z</time></trkpt><trkpt lat="44.69427769679193" lon="9.73529819435047"><ele>801.0</ele><time>2026-04-25T09:51:38.999Z</time></trkpt><trkpt lat="44.69436092413684" lon="9.735189231492031"><ele>801.0</ele><time>2026-04-25T09:51:39.999Z</time></trkpt><trkpt lat="44.69443661520863" lon="9.735066655238903"><ele>799.4</ele><time>2026-04-25T09:51:40.999Z</time></trkpt><trkpt lat="44.694508884861044" lon="9.734947437521601"><ele>797.8</ele><time>2026-04-25T09:51:41.999Z</time></trkpt><trkpt lat="44.694558968326994" lon="9.73481823865487"><ele>796.1999999999999</ele><time>2026-04-25T09:51:42.999Z</time></trkpt><trkpt lat="44.69457359433081" lon="9.734680802471864"><ele>794.5999999999999</ele><time>2026-04-25T09:51:43.999Z</time></trkpt><trkpt lat="44.69455684274824" lon="9.734544193441366"><ele>793.0</ele><time>2026-04-25T09:51:44.999Z</time></trkpt><trkpt lat="44.69450812454048" lon="9.734422586396882"><ele>792.3333333333333</ele><time>2026-04-25T09:51:45.999Z</time></trkpt><trkpt lat="44.69444732522591" lon="9.734325862212751"><ele>791.6666666666666</ele><time>2026-04-25T09:51:46.999Z</time></trkpt><trkpt lat="44.69438910355366" lon="9.734235932146232"><ele>791.0</ele><time>2026-04-25T09:51:47.999Z</time></trkpt><trkpt lat="44.694338483747" lon="9.734146582043888"><ele>790.3333333333333</ele><time>2026-04-25T09:51:48.999Z</time></trkpt><trkpt lat="44.6942961371005" lon="9.734046815591507"><ele>789.6666666666666</ele><time>2026-04-25T09:51:49.999Z</time></trkpt><trkpt lat="44.69425388857025" lon="9.733942565380099"><ele>789.0</ele><time>2026-04-25T09:51:50.999Z</time></trkpt><trkpt lat="44.694210849196715" lon="9.733855197943752"><ele>792.0</ele><time>2026-04-25T09:51:51.999Z</time></trkpt><trkpt lat="44.694164463871005" lon="9.73378716395725"><ele>795.0</ele><time>2026-04-25T09:51:52.999Z</time></trkpt><trkpt lat="44.69412210662409" lon="9.733702542981128"><ele>798.0</ele><time>2026-04-25T09:51:53.999Z</time></trkpt><trkpt lat="44.694051708962306" lon="9.733655659011106"><ele>801.0</ele><time>2026-04-25T09:51:54.999Z</time></trkpt><trkpt lat="44.69396532951218" lon="9.733644879616062"><ele>804.0</ele><time>2026-04-25T09:51:55.999Z</time></trkpt><trkpt lat="44.69388759891878" lon="9.733687899099976"><ele>807.0</ele><time>2026-04-25T09:51:56.999Z</time></trkpt><trkpt lat="44.6938106644273" lon="9.733703366951836"><ele>807.0</ele><time>2026-04-25T09:51:57.999Z</time></trkpt><trkpt lat="44.693733332820784" lon="9.733718054326848"><ele>807.0</ele><time>2026-04-25T09:51:58.999Z</time></trkpt><trkpt lat="44.693650668516796" lon="9.733730300822296"><ele>807.0</ele><time>2026-04-25T09:51:59.999Z</time></trkpt><trkpt lat="44.69356808838224" lon="9.733745192661964"><ele>807.0</ele><time>2026-04-25T09:52:00.999Z</time></trkpt><trkpt lat="44.69349037622871" lon="9.733753521513876"><ele>807.0</ele><time>2026-04-25T09:52:01.999Z</time></trkpt><trkpt lat="44.69341474132915" lon="9.733745228927646"><ele>807.0</ele><time>2026-04-25T09:52:02.999Z</time></trkpt><trkpt lat="44.69333702000552" lon="9.733722746808489"><ele>807.8333333333334</ele><time>2026-04-25T09:52:03.999Z</time></trkpt><trkpt lat="44.69326317463888" lon="9.73368614177144"><ele>808.6666666666667</ele><time>2026-04-25T09:52:04.999Z</time></trkpt><trkpt lat="44.693192362186" lon="9.73363646559688"><ele>809.5</ele><time>2026-04-25T09:52:05.998Z</time></trkpt><trkpt lat="44.69312101033065" lon="9.733582870082794"><ele>810.3333333333334</ele><time>2026-04-25T09:52:06.998Z</time></trkpt><trkpt lat="44.69305450666457" lon="9.733518747059442"><ele>811.1666666666667</ele><time>2026-04-25T09:52:07.998Z</time></trkpt><trkpt lat="44.69299148854732" lon="9.73344807892677"><ele>812.0</ele><time>2026-04-25T09:52:08.998Z</time></trkpt><trkpt lat="44.692927305038175" lon="9.733370238443209"><ele>811.1666666666667</ele><time>2026-04-25T09:52:09.998Z</time></trkpt><trkpt lat="44.692861525437856" lon="9.733293884086759"><ele>810.3333333333334</ele><time>2026-04-25T09:52:10.998Z</time></trkpt><trkpt lat="44.69279368052366" lon="9.733217362626423"><ele>809.5</ele><time>2026-04-25T09:52:11.998Z</time></trkpt><trkpt lat="44.69272714699185" lon="9.733144224089852"><ele>808.6666666666667</ele><time>2026-04-25T09:52:12.998Z</time></trkpt><trkpt lat="44.692661118458254" lon="9.733061592937124"><ele>807.8333333333334</ele><time>2026-04-25T09:52:13.998Z</time></trkpt><trkpt lat="44.69260195947015" lon="9.732964972560008"><ele>807.0</ele><time>2026-04-25T09:52:14.998Z</time></trkpt><trkpt lat="44.692554371878074" lon="9.73285548865937"><ele>807.0</ele><time>2026-04-25T09:52:16Z</time></trkpt><trkpt lat="44.692507344447144" lon="9.732743351393117"><ele>807.0</ele><time>2026-04-25T09:52:17Z</time></trkpt><trkpt lat="44.69245959255841" lon="9.732633766794182"><ele>807.0</ele><time>2026-04-25T09:52:18Z</time></trkpt><trkpt lat="44.69241393748476" lon="9.73252506911639"><ele>807.0</ele><time>2026-04-25T09:52:19Z</time></trkpt><trkpt lat="44.69237094715048" lon="9.73241957549831"><ele>807.0</ele><time>2026-04-25T09:52:20Z</time></trkpt><trkpt lat="44.69233231319979" lon="9.732311202299629"><ele>807.0</ele><time>2026-04-25T09:52:21Z</time></trkpt><trkpt lat="44.692289114156964" lon="9.732203165915303"><ele>805.1666666666666</ele><time>2026-04-25T09:52:22Z</time></trkpt><trkpt lat="44.69225005814411" lon="9.73209308815017"><ele>803.3333333333333</ele><time>2026-04-25T09:52:23Z</time></trkpt><trkpt lat="44.6922241164087" lon="9.731979700113458"><ele>801.5</ele><time>2026-04-25T09:52:24Z</time></trkpt><trkpt lat="44.69221909096025" lon="9.731863513078428"><ele>799.6666666666666</ele><time>2026-04-25T09:52:25Z</time></trkpt><trkpt lat="44.69223994379365" lon="9.731745296035387"><ele>797.8333333333333</ele><time>2026-04-25T09:52:26Z</time></trkpt><trkpt lat="44.69228157520734" lon="9.731633675539777"><ele>796.0</ele><time>2026-04-25T09:52:27Z</time></trkpt><trkpt lat="44.69232329341173" lon="9.731531071213537"><ele>795.4999999999999</ele><time>2026-04-25T09:52:28Z</time></trkpt><trkpt lat="44.692360300371995" lon="9.731429005606147"><ele>795.0</ele><time>2026-04-25T09:52:29Z</time></trkpt><trkpt lat="44.69239619683836" lon="9.731325326282233"><ele>794.5</ele><time>2026-04-25T09:52:30Z</time></trkpt><trkpt lat="44.692430740427326" lon="9.731218547215713"><ele>794.0</ele><time>2026-04-25T09:52:31Z</time></trkpt><trkpt lat="44.692469357656506" lon="9.731111196394266"><ele>793.4999999999999</ele><time>2026-04-25T09:52:32Z</time></trkpt><trkpt lat="44.692505426022855" lon="9.731003549661263"><ele>793.0</ele><time>2026-04-25T09:52:33Z</time></trkpt><trkpt lat="44.692548562950044" lon="9.730898183873935"><ele>792.9999999999999</ele><time>2026-04-25T09:52:34Z</time></trkpt><trkpt lat="44.69261206796584" lon="9.73081960668005"><ele>793.0</ele><time>2026-04-25T09:52:35Z</time></trkpt><trkpt lat="44.692669002652536" lon="9.730728718589896"><ele>793.0</ele><time>2026-04-25T09:52:36Z</time></trkpt><trkpt lat="44.692712259341164" lon="9.730624437470112"><ele>793.0</ele><time>2026-04-25T09:52:37Z</time></trkpt><trkpt lat="44.69276953113121" lon="9.730537148604373"><ele>792.9999999999999</ele><time>2026-04-25T09:52:38Z</time></trkpt><trkpt lat="44.69283019825741" lon="9.730455771810412"><ele>793.0</ele><time>2026-04-25T09:52:39Z</time></trkpt><trkpt lat="44.69288594166121" lon="9.730367997493751"><ele>791.4999999999999</ele><time>2026-04-25T09:52:40Z</time></trkpt><trkpt lat="44.69294577884473" lon="9.730286199173575"><ele>790.0</ele><time>2026-04-25T09:52:41Z</time></trkpt><trkpt lat="44.69300052057691" lon="9.73020108201906"><ele>788.5</ele><time>2026-04-25T09:52:42Z</time></trkpt><trkpt lat="44.693054137624245" lon="9.730113896480981"><ele>787.0</ele><time>2026-04-25T09:52:43Z</time></trkpt><trkpt lat="44.693098034030506" lon="9.730018933639373"><ele>785.4999999999999</ele><time>2026-04-25T09:52:44Z</time></trkpt><trkpt lat="44.69312113280477" lon="9.729915459763845"><ele>784.0</ele><time>2026-04-25T09:52:45Z</time></trkpt><trkpt lat="44.69311943403549" lon="9.729807852068095"><ele>784.0</ele><time>2026-04-25T09:52:46Z</time></trkpt><trkpt lat="44.69308399638163" lon="9.729711261597572"><ele>784.0</ele><time>2026-04-25T09:52:47Z</time></trkpt><trkpt lat="44.69304376402887" lon="9.729625744251445"><ele>784.0</ele><time>2026-04-25T09:52:48Z</time></trkpt><trkpt lat="44.69300538122703" lon="9.729539568964796"><ele>784.0</ele><time>2026-04-25T09:52:49Z</time></trkpt><trkpt lat="44.692972832704335" lon="9.72944808773892"><ele>784.0</ele><time>2026-04-25T09:52:50Z</time></trkpt><trkpt lat="44.69294884993606" lon="9.729347451614588"><ele>784.0</ele><time>2026-04-25T09:52:51Z</time></trkpt><trkpt lat="44.69293325406041" lon="9.729245124140409"><ele>784.0</ele><time>2026-04-25T09:52:52Z</time></trkpt><trkpt lat="44.692924551739154" lon="9.72914372565119"><ele>784.0</ele><time>2026-04-25T09:52:53Z</time></trkpt><trkpt lat="44.692925131646334" lon="9.729044026208008"><ele>784.0</ele><time>2026-04-25T09:52:54Z</time></trkpt><trkpt lat="44.69294696874808" lon="9.728952862491948"><ele>784.0</ele><time>2026-04-25T09:52:55Z</time></trkpt><trkpt lat="44.69298285445714" lon="9.728868849483941"><ele>784.0</ele><time>2026-04-25T09:52:56Z</time></trkpt><trkpt lat="44.69304837414409" lon="9.728826374377697"><ele>784.0</ele><time>2026-04-25T09:52:57Z</time></trkpt><trkpt lat="44.69310852300753" lon="9.728777847790447"><ele>784.0</ele><time>2026-04-25T09:52:58Z</time></trkpt><trkpt lat="44.693168163102925" lon="9.72872714543223"><ele>784.0</ele><time>2026-04-25T09:52:59Z</time></trkpt><trkpt lat="44.6932261495287" lon="9.728678785898778"><ele>784.0</ele><time>2026-04-25T09:53:00Z</time></trkpt><trkpt lat="44.69328829815292" lon="9.728621881002791"><ele>784.0</ele><time>2026-04-25T09:53:01Z</time></trkpt><trkpt lat="44.69334631063054" lon="9.728566598879018"><ele>784.0</ele><time>2026-04-25T09:53:02Z</time></trkpt><trkpt lat="44.69340647306938" lon="9.72850860737714"><ele>784.0</ele><time>2026-04-25T09:53:03Z</time></trkpt><trkpt lat="44.69347690941636" lon="9.728485857763095"><ele>784.0</ele><time>2026-04-25T09:53:04Z</time></trkpt><trkpt lat="44.69354508342884" lon="9.728530790545534"><ele>784.0</ele><time>2026-04-25T09:53:05Z</time></trkpt><trkpt lat="44.693598592167916" lon="9.728586377856974"><ele>784.0</ele><time>2026-04-25T09:53:06Z</time></trkpt><trkpt lat="44.69365954496304" lon="9.72863710081732"><ele>783.8333333333333</ele><time>2026-04-25T09:53:07Z</time></trkpt><trkpt lat="44.69372595351225" lon="9.72868150802792"><ele>783.6666666666666</ele><time>2026-04-25T09:53:08Z</time></trkpt><trkpt lat="44.69380556704002" lon="9.728696957160416"><ele>783.5</ele><time>2026-04-25T09:53:09Z</time></trkpt><trkpt lat="44.69387900496718" lon="9.728639215637116"><ele>783.3333333333333</ele><time>2026-04-25T09:53:10Z</time></trkpt><trkpt lat="44.69393027192909" lon="9.728560895221815"><ele>783.1666666666666</ele><time>2026-04-25T09:53:11Z</time></trkpt><trkpt lat="44.693965601756226" lon="9.728471151837926"><ele>783.0</ele><time>2026-04-25T09:53:12Z</time></trkpt><trkpt lat="44.69400925999348" lon="9.728390902121927"><ele>783.0</ele><time>2026-04-25T09:53:13Z</time></trkpt><trkpt lat="44.69406258193474" lon="9.72831946391886"><ele>783.0</ele><time>2026-04-25T09:53:13.999Z</time></trkpt><trkpt lat="44.694123936951925" lon="9.728259699083452"><ele>783.0</ele><time>2026-04-25T09:53:14.999Z</time></trkpt><trkpt lat="44.69418733384058" lon="9.728202138678055"><ele>783.0</ele><time>2026-04-25T09:53:15.999Z</time></trkpt><trkpt lat="44.694234870409296" lon="9.728125105201375"><ele>783.0</ele><time>2026-04-25T09:53:16.999Z</time></trkpt><trkpt lat="44.69424827392636" lon="9.7280215657236"><ele>783.0</ele><time>2026-04-25T09:53:17.999Z</time></trkpt><trkpt lat="44.69420669785977" lon="9.727920689788265"><ele>783.0</ele><time>2026-04-25T09:53:18.999Z</time></trkpt><trkpt lat="44.69413417589077" lon="9.727860286274186"><ele>783.0</ele><time>2026-04-25T09:53:19.999Z</time></trkpt><trkpt lat="44.69405683302476" lon="9.727840278063123"><ele>783.0</ele><time>2026-04-25T09:53:20.999Z</time></trkpt><trkpt lat="44.69398751162134" lon="9.727820382002587"><ele>783.0</ele><time>2026-04-25T09:53:21.999Z</time></trkpt><trkpt lat="44.69392408946317" lon="9.727781182775217"><ele>783.0</ele><time>2026-04-25T09:53:22.999Z</time></trkpt><trkpt lat="44.69386639834236" lon="9.72771947529089"><ele>783.0</ele><time>2026-04-25T09:53:23.999Z</time></trkpt><trkpt lat="44.69382625770606" lon="9.727628989597891"><ele>782.8333333333334</ele><time>2026-04-25T09:53:24.999Z</time></trkpt><trkpt lat="44.693807003039446" lon="9.727521964371784"><ele>782.6666666666667</ele><time>2026-04-25T09:53:25.999Z</time></trkpt><trkpt lat="44.693810863547746" lon="9.727410293550014"><ele>782.5</ele><time>2026-04-25T09:53:26.999Z</time></trkpt><trkpt lat="44.693820887214706" lon="9.727300781416883"><ele>782.3333333333334</ele><time>2026-04-25T09:53:27.999Z</time></trkpt><trkpt lat="44.69385806340558" lon="9.727203235575448"><ele>782.1666666666667</ele><time>2026-04-25T09:53:28.999Z</time></trkpt><trkpt lat="44.69389403227871" lon="9.727103637797303"><ele>782.0</ele><time>2026-04-25T09:53:29.999Z</time></trkpt><trkpt lat="44.69391076872" lon="9.726995474984665"><ele>781.3333333333334</ele><time>2026-04-25T09:53:30.999Z</time></trkpt><trkpt lat="44.69393393072274" lon="9.726890859098148"><ele>780.6666666666667</ele><time>2026-04-25T09:53:31.999Z</time></trkpt><trkpt lat="44.69394557597568" lon="9.72678389548109"><ele>780.0</ele><time>2026-04-25T09:53:32.999Z</time></trkpt><trkpt lat="44.69395201168667" lon="9.726675813197142"><ele>779.3333333333333</ele><time>2026-04-25T09:53:33.999Z</time></trkpt><trkpt lat="44.693950660647644" lon="9.726568378018863"><ele>778.6666666666666</ele><time>2026-04-25T09:53:34.999Z</time></trkpt><trkpt lat="44.693950148602866" lon="9.726459749927706"><ele>778.0</ele><time>2026-04-25T09:53:35.999Z</time></trkpt><trkpt lat="44.6939497647258" lon="9.72635509658002"><ele>777.9999999999999</ele><time>2026-04-25T09:53:36.999Z</time></trkpt><trkpt lat="44.69395819724811" lon="9.726251669376508"><ele>778.0</ele><time>2026-04-25T09:53:37.999Z</time></trkpt><trkpt lat="44.69396595713066" lon="9.72614153385235"><ele>778.0</ele><time>2026-04-25T09:53:38.999Z</time></trkpt><trkpt lat="44.69397391367333" lon="9.726032795324706"><ele>778.0</ele><time>2026-04-25T09:53:39.999Z</time></trkpt><trkpt lat="44.69398493788435" lon="9.725925856686375"><ele>777.9999999999999</ele><time>2026-04-25T09:53:40.999Z</time></trkpt><trkpt lat="44.69398822716716" lon="9.725819418172115"><ele>778.0</ele><time>2026-04-25T09:53:41.999Z</time></trkpt><trkpt lat="44.693980894760536" lon="9.72571530979201"><ele>778.1666666666666</ele><time>2026-04-25T09:53:42.999Z</time></trkpt><trkpt lat="44.69397166677144" lon="9.725608633540277"><ele>778.3333333333333</ele><time>2026-04-25T09:53:43.999Z</time></trkpt><trkpt lat="44.693963696664284" lon="9.7255020801221"><ele>778.5</ele><time>2026-04-25T09:53:44.999Z</time></trkpt><trkpt lat="44.69396436717181" lon="9.725395295727482"><ele>778.6666666666667</ele><time>2026-04-25T09:53:45.999Z</time></trkpt><trkpt lat="44.693963472546834" lon="9.725284690565747"><ele>778.8333333333334</ele><time>2026-04-25T09:53:46.999Z</time></trkpt><trkpt lat="44.69397223163432" lon="9.725171531811057"><ele>779.0</ele><time>2026-04-25T09:53:47.999Z</time></trkpt><trkpt lat="44.693989416647305" lon="9.72505994653481"><ele>779.0000000000001</ele><time>2026-04-25T09:53:48.999Z</time></trkpt><trkpt lat="44.694010129941276" lon="9.724950635116931"><ele>779.0</ele><time>2026-04-25T09:53:49.999Z</time></trkpt><trkpt lat="44.69402244404199" lon="9.724840015311303"><ele>779.0</ele><time>2026-04-25T09:53:50.999Z</time></trkpt><trkpt lat="44.69402432974533" lon="9.724725458464283"><ele>779.0</ele><time>2026-04-25T09:53:51.999Z</time></trkpt><trkpt lat="44.69402509614501" lon="9.724608908295668"><ele>779.0000000000001</ele><time>2026-04-25T09:53:52.999Z</time></trkpt><trkpt lat="44.69403000500114" lon="9.724492888066997"><ele>779.0</ele><time>2026-04-25T09:53:53.999Z</time></trkpt><trkpt lat="44.69403740878069" lon="9.724374108369322"><ele>778.8333333333334</ele><time>2026-04-25T09:53:54.999Z</time></trkpt><trkpt lat="44.69404932585804" lon="9.724263595348289"><ele>778.6666666666667</ele><time>2026-04-25T09:53:55.999Z</time></trkpt><trkpt lat="44.694062769971744" lon="9.72415563224792"><ele>778.5</ele><time>2026-04-25T09:53:56.999Z</time></trkpt><trkpt lat="44.69407278266282" lon="9.72404428331576"><ele>778.3333333333333</ele><time>2026-04-25T09:53:57.999Z</time></trkpt><trkpt lat="44.69408181308491" lon="9.723930504067855"><ele>778.1666666666666</ele><time>2026-04-25T09:53:58.999Z</time></trkpt><trkpt lat="44.69407382441233" lon="9.723818917148748"><ele>778.0</ele><time>2026-04-25T09:53:59.999Z</time></trkpt><trkpt lat="44.694033486272005" lon="9.723718574407101"><ele>777.9999999999999</ele><time>2026-04-25T09:54:00.999Z</time></trkpt><trkpt lat="44.69397413771819" lon="9.723639826923533"><ele>778.0</ele><time>2026-04-25T09:54:01.999Z</time></trkpt><trkpt lat="44.69390746419942" lon="9.723573260821198"><ele>778.0</ele><time>2026-04-25T09:54:02.999Z</time></trkpt><trkpt lat="44.693846733876406" lon="9.723507601548567"><ele>778.0</ele><time>2026-04-25T09:54:03.999Z</time></trkpt><trkpt lat="44.69379075325243" lon="9.723436498621778"><ele>777.9999999999999</ele><time>2026-04-25T09:54:04.999Z</time></trkpt><trkpt lat="44.69374159228853" lon="9.7233556938791"><ele>778.0</ele><time>2026-04-25T09:54:05.999Z</time></trkpt><trkpt lat="44.69370538603301" lon="9.72326430902381"><ele>777.4999999999999</ele><time>2026-04-25T09:54:06.999Z</time></trkpt><trkpt lat="44.693685464059" lon="9.723159456272482"><ele>777.0</ele><time>2026-04-25T09:54:07.998Z</time></trkpt><trkpt lat="44.693688563552385" lon="9.723047052948772"><ele>776.5</ele><time>2026-04-25T09:54:08.998Z</time></trkpt><trkpt lat="44.69371705902272" lon="9.722945234900772"><ele>776.0</ele><time>2026-04-25T09:54:09.998Z</time></trkpt><trkpt lat="44.693756809430134" lon="9.722849359477626"><ele>775.4999999999999</ele><time>2026-04-25T09:54:10.998Z</time></trkpt><trkpt lat="44.69379015696985" lon="9.722759536512605"><ele>775.0</ele><time>2026-04-25T09:54:11.998Z</time></trkpt><trkpt lat="44.69382337504209" lon="9.722673115971556"><ele>774.9999999999999</ele><time>2026-04-25T09:54:12.998Z</time></trkpt><trkpt lat="44.693866619433514" lon="9.722593540276772"><ele>775.0</ele><time>2026-04-25T09:54:13.998Z</time></trkpt><trkpt lat="44.69390142509672" lon="9.722507305719471"><ele>775.0</ele><time>2026-04-25T09:54:14.998Z</time></trkpt><trkpt lat="44.69393401068224" lon="9.722424411116414"><ele>775.0</ele><time>2026-04-25T09:54:15.998Z</time></trkpt><trkpt lat="44.69396821272949" lon="9.722342010016158"><ele>774.9999999999999</ele><time>2026-04-25T09:54:16.998Z</time></trkpt><trkpt lat="44.69404566825519" lon="9.72220509594976"><ele>775.0</ele><time>2026-04-25T09:54:18.998Z</time></trkpt><trkpt lat="44.69409713245889" lon="9.7221486260928"><ele>774.9999999999999</ele><time>2026-04-25T09:54:19.998Z</time></trkpt><trkpt lat="44.69415426979281" lon="9.722105293628601"><ele>775.0</ele><time>2026-04-25T09:54:20.998Z</time></trkpt><trkpt lat="44.69421818821524" lon="9.722070128738334"><ele>775.0</ele><time>2026-04-25T09:54:22Z</time></trkpt><trkpt lat="44.694284044858215" lon="9.722030990226461"><ele>775.0</ele><time>2026-04-25T09:54:23Z</time></trkpt><trkpt lat="44.69434888354721" lon="9.721992236062116"><ele>775.0</ele><time>2026-04-25T09:54:24Z</time></trkpt><trkpt lat="44.69441393262833" lon="9.72195393116995"><ele>774.9999999999999</ele><time>2026-04-25T09:54:25Z</time></trkpt><trkpt lat="44.69448005233778" lon="9.721915348487775"><ele>775.0</ele><time>2026-04-25T09:54:26Z</time></trkpt><trkpt lat="44.69454551530166" lon="9.72187846753646"><ele>774.8571428571428</ele><time>2026-04-25T09:54:27Z</time></trkpt><trkpt lat="44.69460757401966" lon="9.721821289505682"><ele>774.7142857142857</ele><time>2026-04-25T09:54:28Z</time></trkpt><trkpt lat="44.694674037064964" lon="9.721787611290898"><ele>774.5714285714286</ele><time>2026-04-25T09:54:29Z</time></trkpt><trkpt lat="44.6947401715661" lon="9.721750923154199"><ele>774.4285714285713</ele><time>2026-04-25T09:54:30Z</time></trkpt><trkpt lat="44.69480657363618" lon="9.72171313863884"><ele>774.2857142857143</ele><time>2026-04-25T09:54:31Z</time></trkpt><trkpt lat="44.69486960401014" lon="9.721668586438092"><ele>774.1428571428571</ele><time>2026-04-25T09:54:32Z</time></trkpt><trkpt lat="44.69492955384755" lon="9.721614813602054"><ele>774.0</ele><time>2026-04-25T09:54:33Z</time></trkpt><trkpt lat="44.69498638177403" lon="9.721549968270894"><ele>774.0</ele><time>2026-04-25T09:54:34Z</time></trkpt><trkpt lat="44.69504186971022" lon="9.721477664148756"><ele>774.0</ele><time>2026-04-25T09:54:35Z</time></trkpt><trkpt lat="44.695094314906804" lon="9.721400076357057"><ele>774.0</ele><time>2026-04-25T09:54:36Z</time></trkpt><trkpt lat="44.695146485568806" lon="9.721321827844335"><ele>774.0</ele><time>2026-04-25T09:54:37Z</time></trkpt><trkpt lat="44.69519551580166" lon="9.72123572524202"><ele>774.0</ele><time>2026-04-25T09:54:38Z</time></trkpt><trkpt lat="44.695238008322725" lon="9.721142357008489"><ele>774.0</ele><time>2026-04-25T09:54:39Z</time></trkpt><trkpt lat="44.695267613361985" lon="9.7210410385203"><ele>775.1666666666666</ele><time>2026-04-25T09:54:40Z</time></trkpt><trkpt lat="44.695282254122716" lon="9.72093204786607"><ele>776.3333333333333</ele><time>2026-04-25T09:54:41Z</time></trkpt><trkpt lat="44.69528510431056" lon="9.720817471267917"><ele>777.5</ele><time>2026-04-25T09:54:42Z</time></trkpt><trkpt lat="44.695283203533215" lon="9.720704850830158"><ele>778.6666666666666</ele><time>2026-04-25T09:54:43Z</time></trkpt><trkpt lat="44.69527642527559" lon="9.720592298311814"><ele>779.8333333333333</ele><time>2026-04-25T09:54:44Z</time></trkpt><trkpt lat="44.69526513856496" lon="9.720479380483747"><ele>781.0</ele><time>2026-04-25T09:54:45Z</time></trkpt><trkpt lat="44.69525181036114" lon="9.720368490265118"><ele>780.9999999999999</ele><time>2026-04-25T09:54:46Z</time></trkpt><trkpt lat="44.69524159328078" lon="9.720256578298809"><ele>781.0</ele><time>2026-04-25T09:54:47Z</time></trkpt><trkpt lat="44.69522824624635" lon="9.720147564484149"><ele>781.0</ele><time>2026-04-25T09:54:48Z</time></trkpt><trkpt lat="44.695211843045776" lon="9.720039634587751"><ele>781.0</ele><time>2026-04-25T09:54:49Z</time></trkpt><trkpt lat="44.6951837834121" lon="9.719936290872297"><ele>780.9999999999999</ele><time>2026-04-25T09:54:50Z</time></trkpt><trkpt lat="44.69514439817552" lon="9.71984153924964"><ele>781.0</ele><time>2026-04-25T09:54:51Z</time></trkpt><trkpt lat="44.69510010252992" lon="9.7197524107142"><ele>780.8571428571429</ele><time>2026-04-25T09:54:52Z</time></trkpt><trkpt lat="44.69505462682585" lon="9.719663773020045"><ele>780.7142857142858</ele><time>2026-04-25T09:54:53Z</time></trkpt><trkpt lat="44.695008059276354" lon="9.719578579396858"><ele>780.5714285714286</ele><time>2026-04-25T09:54:54Z</time></trkpt><trkpt lat="44.69495878998294" lon="9.719497757991027"><ele>780.4285714285714</ele><time>2026-04-25T09:54:55Z</time></trkpt><trkpt lat="44.69491545074814" lon="9.719417587045609"><ele>780.2857142857142</ele><time>2026-04-25T09:54:56Z</time></trkpt><trkpt lat="44.69486995341378" lon="9.719336048895132"><ele>780.1428571428571</ele><time>2026-04-25T09:54:57Z</time></trkpt><trkpt lat="44.694829357255614" lon="9.71925028931805"><ele>780.0</ele><time>2026-04-25T09:54:58Z</time></trkpt><trkpt lat="44.694800582209396" lon="9.719155665190089"><ele>780.0</ele><time>2026-04-25T09:54:59Z</time></trkpt><trkpt lat="44.694792388970725" lon="9.71905047000844"><ele>780.0</ele><time>2026-04-25T09:55:00Z</time></trkpt><trkpt lat="44.69480555088531" lon="9.718936860570777"><ele>780.0</ele><time>2026-04-25T09:55:01Z</time></trkpt><trkpt lat="44.694833148630266" lon="9.718826672239794"><ele>780.0</ele><time>2026-04-25T09:55:02Z</time></trkpt><trkpt lat="44.694860343934536" lon="9.718721279319738"><ele>780.0</ele><time>2026-04-25T09:55:03Z</time></trkpt><trkpt lat="44.694893656426174" lon="9.718620696748799"><ele>780.0</ele><time>2026-04-25T09:55:04Z</time></trkpt><trkpt lat="44.69496236352022" lon="9.71856420824856"><ele>780.0</ele><time>2026-04-25T09:55:05Z</time></trkpt><trkpt lat="44.695036428664224" lon="9.718560481146511"><ele>780.0</ele><time>2026-04-25T09:55:06Z</time></trkpt><trkpt lat="44.69509968768767" lon="9.718606167677805"><ele>780.0</ele><time>2026-04-25T09:55:07Z</time></trkpt><trkpt lat="44.695176751470996" lon="9.718627388218433"><ele>780.0</ele><time>2026-04-25T09:55:08Z</time></trkpt><trkpt lat="44.695256485494234" lon="9.718659691812302"><ele>780.0</ele><time>2026-04-25T09:55:09Z</time></trkpt><trkpt lat="44.69534389016304" lon="9.71868384073304"><ele>780.0</ele><time>2026-04-25T09:55:10Z</time></trkpt><trkpt lat="44.69543360534464" lon="9.718699117359373"><ele>777.6666666666666</ele><time>2026-04-25T09:55:11Z</time></trkpt><trkpt lat="44.69552336923152" lon="9.718705842481809"><ele>775.3333333333334</ele><time>2026-04-25T09:55:12Z</time></trkpt><trkpt lat="44.69561215444846" lon="9.718698721028861"><ele>773.0</ele><time>2026-04-25T09:55:13Z</time></trkpt><trkpt lat="44.69569775589098" lon="9.718691817362622"><ele>770.6666666666667</ele><time>2026-04-25T09:55:14Z</time></trkpt><trkpt lat="44.69578288815844" lon="9.718688871148986"><ele>768.3333333333334</ele><time>2026-04-25T09:55:15Z</time></trkpt><trkpt lat="44.695867970603025" lon="9.71868592666334"><ele>766.0</ele><time>2026-04-25T09:55:16Z</time></trkpt><trkpt lat="44.69595239934398" lon="9.718657272848061"><ele>766.0</ele><time>2026-04-25T09:55:17Z</time></trkpt><trkpt lat="44.69603725698636" lon="9.718653496854166"><ele>766.0</ele><time>2026-04-25T09:55:18Z</time></trkpt><trkpt lat="44.696121914975414" lon="9.718647145789815"><ele>766.0</ele><time>2026-04-25T09:55:18.999Z</time></trkpt><trkpt lat="44.69620720534393" lon="9.718632290802345"><ele>766.0</ele><time>2026-04-25T09:55:19.999Z</time></trkpt><trkpt lat="44.6962925412708" lon="9.718609184483146"><ele>766.0</ele><time>2026-04-25T09:55:20.999Z</time></trkpt><trkpt lat="44.69637563637625" lon="9.718575692385086"><ele>766.0</ele><time>2026-04-25T09:55:21.999Z</time></trkpt><trkpt lat="44.69645600870754" lon="9.71852964026323"><ele>766.0</ele><time>2026-04-25T09:55:22.999Z</time></trkpt><trkpt lat="44.696534343560856" lon="9.718468453572461"><ele>766.0</ele><time>2026-04-25T09:55:23.999Z</time></trkpt><trkpt lat="44.69661023874671" lon="9.718412601205141"><ele>766.0</ele><time>2026-04-25T09:55:24.999Z</time></trkpt><trkpt lat="44.69668232584906" lon="9.718345305039893"><ele>766.0</ele><time>2026-04-25T09:55:25.999Z</time></trkpt><trkpt lat="44.69673327224672" lon="9.718244840187145"><ele>766.0</ele><time>2026-04-25T09:55:26.999Z</time></trkpt><trkpt lat="44.696746596100944" lon="9.718116370863878"><ele>766.0</ele><time>2026-04-25T09:55:27.999Z</time></trkpt><trkpt lat="44.69672738600593" lon="9.717984318512652"><ele>766.0</ele><time>2026-04-25T09:55:28.999Z</time></trkpt><trkpt lat="44.69670418773199" lon="9.717873616368305"><ele>766.0</ele><time>2026-04-25T09:55:29.999Z</time></trkpt><trkpt lat="44.696685859219166" lon="9.717767471638933"><ele>766.0</ele><time>2026-04-25T09:55:30.999Z</time></trkpt><trkpt lat="44.69667298471283" lon="9.717667251043249"><ele>766.0</ele><time>2026-04-25T09:55:31.999Z</time></trkpt><trkpt lat="44.69665715063072" lon="9.717574074028805"><ele>766.0</ele><time>2026-04-25T09:55:32.999Z</time></trkpt><trkpt lat="44.69666929105634" lon="9.717476926214838"><ele>766.0</ele><time>2026-04-25T09:55:33.999Z</time></trkpt><trkpt lat="44.69670844565629" lon="9.717382580032263"><ele>766.0</ele><time>2026-04-25T09:55:34.999Z</time></trkpt><trkpt lat="44.69674813746042" lon="9.717288670293845"><ele>766.1666666666667</ele><time>2026-04-25T09:55:35.999Z</time></trkpt><trkpt lat="44.69677820126131" lon="9.717184707683387"><ele>766.3333333333334</ele><time>2026-04-25T09:55:36.999Z</time></trkpt><trkpt lat="44.69680712703028" lon="9.717080135013134"><ele>766.5</ele><time>2026-04-25T09:55:37.999Z</time></trkpt><trkpt lat="44.696834902545916" lon="9.716979030758088"><ele>766.6666666666666</ele><time>2026-04-25T09:55:38.999Z</time></trkpt><trkpt lat="44.69686294022091" lon="9.716877342790383"><ele>766.8333333333333</ele><time>2026-04-25T09:55:39.999Z</time></trkpt><trkpt lat="44.69689556924619" lon="9.716780564471504"><ele>767.0</ele><time>2026-04-25T09:55:40.999Z</time></trkpt><trkpt lat="44.696928441595894" lon="9.71668437256872"><ele>765.0</ele><time>2026-04-25T09:55:41.999Z</time></trkpt><trkpt lat="44.69697252099628" lon="9.716595711285922"><ele>763.0</ele><time>2026-04-25T09:55:42.999Z</time></trkpt><trkpt lat="44.6969888012689" lon="9.716490941389166"><ele>761.0</ele><time>2026-04-25T09:55:43.999Z</time></trkpt><trkpt lat="44.69702293429493" lon="9.71639165518378"><ele>759.0</ele><time>2026-04-25T09:55:44.999Z</time></trkpt><trkpt lat="44.69705923570094" lon="9.71628749826321"><ele>757.0</ele><time>2026-04-25T09:55:45.999Z</time></trkpt><trkpt lat="44.69710147307435" lon="9.716194030762088"><ele>755.0</ele><time>2026-04-25T09:55:46.999Z</time></trkpt><trkpt lat="44.697158928085706" lon="9.716109768785488"><ele>755.5</ele><time>2026-04-25T09:55:47.999Z</time></trkpt><trkpt lat="44.697224135866186" lon="9.716038546368859"><ele>756.0</ele><time>2026-04-25T09:55:48.999Z</time></trkpt><trkpt lat="44.69729345745017" lon="9.715973854936399"><ele>756.5</ele><time>2026-04-25T09:55:49.999Z</time></trkpt><trkpt lat="44.697358509697686" lon="9.71589751736012"><ele>757.0</ele><time>2026-04-25T09:55:50.999Z</time></trkpt><trkpt lat="44.6974151646646" lon="9.715811919763778"><ele>757.5</ele><time>2026-04-25T09:55:51.999Z</time></trkpt><trkpt lat="44.69746748633153" lon="9.715718358299593"><ele>758.0</ele><time>2026-04-25T09:55:52.999Z</time></trkpt><trkpt lat="44.697516273540174" lon="9.715632443905617"><ele>758.0</ele><time>2026-04-25T09:55:53.999Z</time></trkpt><trkpt lat="44.69756203860935" lon="9.715540401794035"><ele>758.0</ele><time>2026-04-25T09:55:54.999Z</time></trkpt><trkpt lat="44.69759830044361" lon="9.715425791194209"><ele>758.0</ele><time>2026-04-25T09:55:55.999Z</time></trkpt><trkpt lat="44.6976267980469" lon="9.71530343975297"><ele>758.0</ele><time>2026-04-25T09:55:56.999Z</time></trkpt><trkpt lat="44.697657603412466" lon="9.715180165432253"><ele>758.0</ele><time>2026-04-25T09:55:57.999Z</time></trkpt><trkpt lat="44.69768943937898" lon="9.715055985375727"><ele>758.0</ele><time>2026-04-25T09:55:58.999Z</time></trkpt><trkpt lat="44.69771931793466" lon="9.71493082373452"><ele>758.6666666666666</ele><time>2026-04-25T09:55:59.999Z</time></trkpt><trkpt lat="44.69775014663689" lon="9.714809372522115"><ele>759.3333333333333</ele><time>2026-04-25T09:56:00.999Z</time></trkpt><trkpt lat="44.69778179291782" lon="9.714691330114851"><ele>760.0</ele><time>2026-04-25T09:56:01.999Z</time></trkpt><trkpt lat="44.69781259469374" lon="9.714572218659073"><ele>760.6666666666666</ele><time>2026-04-25T09:56:02.999Z</time></trkpt><trkpt lat="44.697839219480024" lon="9.71445431901812"><ele>761.3333333333334</ele><time>2026-04-25T09:56:03.999Z</time></trkpt><trkpt lat="44.69786460445928" lon="9.714342810121254"><ele>762.0</ele><time>2026-04-25T09:56:04.999Z</time></trkpt><trkpt lat="44.69789078051935" lon="9.714226374419164"><ele>760.5</ele><time>2026-04-25T09:56:05.999Z</time></trkpt><trkpt lat="44.697925932481645" lon="9.714109519306657"><ele>759.0</ele><time>2026-04-25T09:56:06.999Z</time></trkpt><trkpt lat="44.69797499188425" lon="9.714005272916985"><ele>757.5</ele><time>2026-04-25T09:56:07.999Z</time></trkpt><trkpt lat="44.698037933608234" lon="9.7139231922294"><ele>756.0</ele><time>2026-04-25T09:56:08.999Z</time></trkpt><trkpt lat="44.69811989971693" lon="9.713903536788623"><ele>754.5</ele><time>2026-04-25T09:56:09.999Z</time></trkpt><trkpt lat="44.69820410877868" lon="9.713879643493922"><ele>753.0</ele><time>2026-04-25T09:56:10.999Z</time></trkpt><trkpt lat="44.69828578098933" lon="9.713851658133365"><ele>753.0</ele><time>2026-04-25T09:56:11.999Z</time></trkpt><trkpt lat="44.698370990766335" lon="9.713849554123483"><ele>753.0</ele><time>2026-04-25T09:56:12.998Z</time></trkpt><trkpt lat="44.698452841401036" lon="9.713854596902841"><ele>753.0</ele><time>2026-04-25T09:56:13.998Z</time></trkpt><trkpt lat="44.69853307563114" lon="9.713860926871218"><ele>753.0</ele><time>2026-04-25T09:56:14.998Z</time></trkpt><trkpt lat="44.698609649195426" lon="9.713884763461888"><ele>753.0</ele><time>2026-04-25T09:56:15.998Z</time></trkpt><trkpt lat="44.69867579984915" lon="9.7139423254964"><ele>753.0</ele><time>2026-04-25T09:56:16.998Z</time></trkpt><trkpt lat="44.69871523174527" lon="9.714034354080335"><ele>753.2857142857143</ele><time>2026-04-25T09:56:17.998Z</time></trkpt><trkpt lat="44.69875830799288" lon="9.71411723763368"><ele>753.5714285714287</ele><time>2026-04-25T09:56:18.998Z</time></trkpt><trkpt lat="44.6987965980201" lon="9.714202186310935"><ele>753.8571428571429</ele><time>2026-04-25T09:56:19.998Z</time></trkpt><trkpt lat="44.69883212245061" lon="9.714285441774978"><ele>754.1428571428571</ele><time>2026-04-25T09:56:20.998Z</time></trkpt><trkpt lat="44.69887244471527" lon="9.714368354861374"><ele>754.4285714285714</ele><time>2026-04-25T09:56:21.998Z</time></trkpt><trkpt lat="44.69892962589208" lon="9.714437869306245"><ele>754.7142857142857</ele><time>2026-04-25T09:56:22.998Z</time></trkpt><trkpt lat="44.69897525747065" lon="9.71451524288146"><ele>755.0</ele><time>2026-04-25T09:56:23.998Z</time></trkpt><trkpt lat="44.69902106964902" lon="9.71459158279781"><ele>754.0</ele><time>2026-04-25T09:56:24.998Z</time></trkpt><trkpt lat="44.699069826835405" lon="9.714664146804953"><ele>753.0</ele><time>2026-04-25T09:56:25.998Z</time></trkpt><trkpt lat="44.699121598843824" lon="9.714731651314777"><ele>752.0</ele><time>2026-04-25T09:56:26.998Z</time></trkpt><trkpt lat="44.6991681152214" lon="9.714804711791052"><ele>751.0</ele><time>2026-04-25T09:56:28Z</time></trkpt><trkpt lat="44.69921711225173" lon="9.714876399446997"><ele>750.0</ele><time>2026-04-25T09:56:29Z</time></trkpt><trkpt lat="44.69926973177097" lon="9.71493284832385"><ele>749.0</ele><time>2026-04-25T09:56:30Z</time></trkpt><trkpt lat="44.6993351971949" lon="9.714975074087176"><ele>748.0</ele><time>2026-04-25T09:56:31Z</time></trkpt><trkpt lat="44.69939993191746" lon="9.715013774495564"><ele>748.0</ele><time>2026-04-25T09:56:32Z</time></trkpt><trkpt lat="44.69946527803899" lon="9.715054557539892"><ele>748.0</ele><time>2026-04-25T09:56:33Z</time></trkpt><trkpt lat="44.69953552726477" lon="9.715083992059878"><ele>748.0</ele><time>2026-04-25T09:56:34Z</time></trkpt><trkpt lat="44.699609932518904" lon="9.715080231042807"><ele>748.0</ele><time>2026-04-25T09:56:35Z</time></trkpt><trkpt lat="44.699682546984555" lon="9.715042664031587"><ele>748.0</ele><time>2026-04-25T09:56:36Z</time></trkpt><trkpt lat="44.69974907822142" lon="9.714984397744614"><ele>748.0</ele><time>2026-04-25T09:56:37Z</time></trkpt><trkpt lat="44.699810152870725" lon="9.714918553020109"><ele>748.0</ele><time>2026-04-25T09:56:38Z</time></trkpt><trkpt lat="44.699870378063736" lon="9.714850826287389"><ele>748.0</ele><time>2026-04-25T09:56:39Z</time></trkpt><trkpt lat="44.69993120365542" lon="9.714782099677874"><ele>748.0</ele><time>2026-04-25T09:56:40Z</time></trkpt><trkpt lat="44.69999037118876" lon="9.714715629417158"><ele>748.0</ele><time>2026-04-25T09:56:41Z</time></trkpt><trkpt lat="44.70005728340543" lon="9.714660253338257"><ele>748.0</ele><time>2026-04-25T09:56:42Z</time></trkpt><trkpt lat="44.700142234736916" lon="9.714663831871013"><ele>748.0</ele><time>2026-04-25T09:56:43Z</time></trkpt><trkpt lat="44.70022359674987" lon="9.714675359486732"><ele>748.5</ele><time>2026-04-25T09:56:44Z</time></trkpt><trkpt lat="44.700306451433185" lon="9.714698646432382"><ele>749.0</ele><time>2026-04-25T09:56:45Z</time></trkpt><trkpt lat="44.70039627285234" lon="9.714706397679494"><ele>749.5</ele><time>2026-04-25T09:56:46Z</time></trkpt><trkpt lat="44.70047732146381" lon="9.71474477796177"><ele>750.0</ele><time>2026-04-25T09:56:47Z</time></trkpt><trkpt lat="44.700548737814856" lon="9.714817135140695"><ele>750.5</ele><time>2026-04-25T09:56:48Z</time></trkpt><trkpt lat="44.70062102012483" lon="9.714878207144576"><ele>751.0</ele><time>2026-04-25T09:56:49Z</time></trkpt><trkpt lat="44.70069898229077" lon="9.714938084750745"><ele>751.0</ele><time>2026-04-25T09:56:50Z</time></trkpt><trkpt lat="44.700773463679056" lon="9.714999018875966"><ele>751.0</ele><time>2026-04-25T09:56:51Z</time></trkpt><trkpt lat="44.700839072918676" lon="9.715076438265108"><ele>751.0</ele><time>2026-04-25T09:56:52Z</time></trkpt><trkpt lat="44.70089298848363" lon="9.715171958644644"><ele>751.0</ele><time>2026-04-25T09:56:53Z</time></trkpt><trkpt lat="44.700923723483584" lon="9.715289174058821"><ele>751.0</ele><time>2026-04-25T09:56:54Z</time></trkpt><trkpt lat="44.70093688903673" lon="9.715420395387792"><ele>751.0</ele><time>2026-04-25T09:56:55Z</time></trkpt><trkpt lat="44.70094804041631" lon="9.71554673306672"><ele>750.8333333333334</ele><time>2026-04-25T09:56:56Z</time></trkpt><trkpt lat="44.70095718203781" lon="9.71566343720373"><ele>750.6666666666667</ele><time>2026-04-25T09:56:57Z</time></trkpt><trkpt lat="44.700978644679374" lon="9.71577789163118"><ele>750.5</ele><time>2026-04-25T09:56:58Z</time></trkpt><trkpt lat="44.70101115662379" lon="9.715884019150215"><ele>750.3333333333334</ele><time>2026-04-25T09:56:59Z</time></trkpt><trkpt lat="44.70106893348341" lon="9.71597711409888"><ele>750.1666666666666</ele><time>2026-04-25T09:57:00Z</time></trkpt><trkpt lat="44.70116095316016" lon="9.716014638763655"><ele>750.0</ele><time>2026-04-25T09:57:01Z</time></trkpt><trkpt lat="44.701243388187805" lon="9.716033700099825"><ele>750.0</ele><time>2026-04-25T09:57:02Z</time></trkpt><trkpt lat="44.70132600529541" lon="9.716053380137746"><ele>750.0</ele><time>2026-04-25T09:57:03Z</time></trkpt><trkpt lat="44.70140593932138" lon="9.716092083431182"><ele>750.0</ele><time>2026-04-25T09:57:04Z</time></trkpt><trkpt lat="44.70148171999771" lon="9.716137323611067"><ele>750.0</ele><time>2026-04-25T09:57:05Z</time></trkpt><trkpt lat="44.7015492633713" lon="9.716187241589298"><ele>750.0</ele><time>2026-04-25T09:57:06Z</time></trkpt><trkpt lat="44.701596340942054" lon="9.716271043888282"><ele>750.0</ele><time>2026-04-25T09:57:07Z</time></trkpt><trkpt lat="44.701639223353325" lon="9.716349361822381"><ele>749.4285714285714</ele><time>2026-04-25T09:57:08Z</time></trkpt><trkpt lat="44.7016669534331" lon="9.716436003548543"><ele>748.8571428571428</ele><time>2026-04-25T09:57:09Z</time></trkpt><trkpt lat="44.701678744004006" lon="9.716526856457858"><ele>748.2857142857142</ele><time>2026-04-25T09:57:10Z</time></trkpt><trkpt lat="44.701693247908" lon="9.716620569413436"><ele>747.7142857142858</ele><time>2026-04-25T09:57:11Z</time></trkpt><trkpt lat="44.70170401098573" lon="9.716717482212347"><ele>747.1428571428571</ele><time>2026-04-25T09:57:12Z</time></trkpt><trkpt lat="44.701713014890856" lon="9.716813260227953"><ele>746.5714285714286</ele><time>2026-04-25T09:57:13Z</time></trkpt><trkpt lat="44.70172236020188" lon="9.716916824220437"><ele>746.0</ele><time>2026-04-25T09:57:14Z</time></trkpt><trkpt lat="44.701731473700576" lon="9.717017819830359"><ele>745.4285714285714</ele><time>2026-04-25T09:57:15Z</time></trkpt><trkpt lat="44.70173992320467" lon="9.717118908133875"><ele>744.8571428571429</ele><time>2026-04-25T09:57:16Z</time></trkpt><trkpt lat="44.70174593162395" lon="9.717219337369837"><ele>744.2857142857142</ele><time>2026-04-25T09:57:17Z</time></trkpt><trkpt lat="44.70175124630099" lon="9.717324130356719"><ele>743.7142857142858</ele><time>2026-04-25T09:57:18Z</time></trkpt><trkpt lat="44.70175528816422" lon="9.717427890029816"><ele>743.1428571428571</ele><time>2026-04-25T09:57:19Z</time></trkpt><trkpt lat="44.701759256634745" lon="9.717531254969963"><ele>742.5714285714286</ele><time>2026-04-25T09:57:20Z</time></trkpt><trkpt lat="44.70177963226133" lon="9.717634804963422"><ele>742.0</ele><time>2026-04-25T09:57:21Z</time></trkpt><trkpt lat="44.70178611484921" lon="9.717742465803578"><ele>741.6666666666667</ele><time>2026-04-25T09:57:21.999Z</time></trkpt><trkpt lat="44.70179068361542" lon="9.717846328497354"><ele>741.3333333333334</ele><time>2026-04-25T09:57:22.999Z</time></trkpt><trkpt lat="44.70180257031549" lon="9.717950142078072"><ele>741.0</ele><time>2026-04-25T09:57:23.999Z</time></trkpt><trkpt lat="44.70181758645938" lon="9.718055376548412"><ele>740.6666666666666</ele><time>2026-04-25T09:57:24.999Z</time></trkpt><trkpt lat="44.701832570183605" lon="9.71815933665759"><ele>740.3333333333333</ele><time>2026-04-25T09:57:25.999Z</time></trkpt><trkpt lat="44.70184507942319" lon="9.71826267716786"><ele>740.0</ele><time>2026-04-25T09:57:26.999Z</time></trkpt><trkpt lat="44.70185889145032" lon="9.718366072085885"><ele>739.9999999999999</ele><time>2026-04-25T09:57:27.999Z</time></trkpt><trkpt lat="44.701865319434184" lon="9.718468569324124"><ele>740.0</ele><time>2026-04-25T09:57:28.999Z</time></trkpt><trkpt lat="44.70188260624057" lon="9.718563533379205"><ele>740.0</ele><time>2026-04-25T09:57:29.999Z</time></trkpt><trkpt lat="44.70189837394651" lon="9.718660792108492"><ele>740.0</ele><time>2026-04-25T09:57:30.999Z</time></trkpt><trkpt lat="44.70191072211231" lon="9.718755138675245"><ele>740.0</ele><time>2026-04-25T09:57:31.999Z</time></trkpt><trkpt lat="44.70192211921686" lon="9.71885284480418"><ele>739.9999999999999</ele><time>2026-04-25T09:57:32.999Z</time></trkpt><trkpt lat="44.70193304677445" lon="9.718951078189527"><ele>740.0</ele><time>2026-04-25T09:57:33.999Z</time></trkpt><trkpt lat="44.70195745301059" lon="9.719043657309696"><ele>739.5714285714286</ele><time>2026-04-25T09:57:34.999Z</time></trkpt><trkpt lat="44.70193760095205" lon="9.719138007587762"><ele>739.1428571428571</ele><time>2026-04-25T09:57:35.999Z</time></trkpt><trkpt lat="44.70192065991868" lon="9.71922999953909"><ele>738.7142857142858</ele><time>2026-04-25T09:57:36.999Z</time></trkpt><trkpt lat="44.70187075057298" lon="9.719292537006933"><ele>738.2857142857142</ele><time>2026-04-25T09:57:37.999Z</time></trkpt><trkpt lat="44.70182494084973" lon="9.719370328514794"><ele>737.8571428571429</ele><time>2026-04-25T09:57:38.999Z</time></trkpt><trkpt lat="44.70178289648219" lon="9.719448579469045"><ele>737.4285714285714</ele><time>2026-04-25T09:57:39.999Z</time></trkpt><trkpt lat="44.701753245588634" lon="9.719535344616489"><ele>737.0</ele><time>2026-04-25T09:57:40.999Z</time></trkpt><trkpt lat="44.70171725642467" lon="9.719613743558597"><ele>736.8571428571429</ele><time>2026-04-25T09:57:41.999Z</time></trkpt><trkpt lat="44.70167456101964" lon="9.71968849060087"><ele>736.7142857142858</ele><time>2026-04-25T09:57:42.999Z</time></trkpt><trkpt lat="44.7016706314159" lon="9.71979879688422"><ele>736.5714285714287</ele><time>2026-04-25T09:57:43.999Z</time></trkpt><trkpt lat="44.701673800540995" lon="9.719903112484726"><ele>736.4285714285714</ele><time>2026-04-25T09:57:44.999Z</time></trkpt><trkpt lat="44.701681879406166" lon="9.720009250624477"><ele>736.2857142857142</ele><time>2026-04-25T09:57:45.999Z</time></trkpt><trkpt lat="44.701690893977435" lon="9.720114484941613"><ele>736.1428571428572</ele><time>2026-04-25T09:57:46.999Z</time></trkpt><trkpt lat="44.7016997869815" lon="9.720220042894955"><ele>736.0</ele><time>2026-04-25T09:57:47.999Z</time></trkpt><trkpt lat="44.70170551165243" lon="9.720324173979312"><ele>736.0</ele><time>2026-04-25T09:57:48.999Z</time></trkpt><trkpt lat="44.70171048734657" lon="9.72042665726844"><ele>736.0</ele><time>2026-04-25T09:57:49.999Z</time></trkpt><trkpt lat="44.70171314532085" lon="9.72052617561599"><ele>736.0</ele><time>2026-04-25T09:57:50.999Z</time></trkpt><trkpt lat="44.701712492065084" lon="9.72062165008798"><ele>736.0</ele><time>2026-04-25T09:57:51.999Z</time></trkpt><trkpt lat="44.70172331016325" lon="9.720718989170642"><ele>736.0</ele><time>2026-04-25T09:57:52.999Z</time></trkpt><trkpt lat="44.70171487259136" lon="9.720815249496416"><ele>736.0</ele><time>2026-04-25T09:57:53.999Z</time></trkpt><trkpt lat="44.70171650510016" lon="9.720908152841503"><ele>736.0</ele><time>2026-04-25T09:57:54.999Z</time></trkpt><trkpt lat="44.701715518509594" lon="9.721007249759037"><ele>735.5</ele><time>2026-04-25T09:57:55.999Z</time></trkpt><trkpt lat="44.70175690736376" lon="9.721095962426466"><ele>735.0</ele><time>2026-04-25T09:57:56.999Z</time></trkpt><trkpt lat="44.70179965279414" lon="9.721181113272722"><ele>734.5</ele><time>2026-04-25T09:57:57.999Z</time></trkpt><trkpt lat="44.7018582514192" lon="9.721256727280318"><ele>734.0</ele><time>2026-04-25T09:57:58.999Z</time></trkpt><trkpt lat="44.701917536422" lon="9.72132530711279"><ele>733.5</ele><time>2026-04-25T09:57:59.999Z</time></trkpt><trkpt lat="44.70196921666966" lon="9.721406044239242"><ele>733.0</ele><time>2026-04-25T09:58:00.999Z</time></trkpt><trkpt lat="44.702004948910286" lon="9.721504920075196"><ele>734.2857142857142</ele><time>2026-04-25T09:58:01.999Z</time></trkpt><trkpt lat="44.70201154971132" lon="9.72161778106831"><ele>735.5714285714286</ele><time>2026-04-25T09:58:02.999Z</time></trkpt><trkpt lat="44.702013589647585" lon="9.721721487525071"><ele>736.8571428571429</ele><time>2026-04-25T09:58:03.999Z</time></trkpt><trkpt lat="44.70201764140026" lon="9.721824704690986"><ele>738.1428571428571</ele><time>2026-04-25T09:58:04.999Z</time></trkpt><trkpt lat="44.70203530856595" lon="9.72192527106656"><ele>739.4285714285714</ele><time>2026-04-25T09:58:05.999Z</time></trkpt><trkpt lat="44.70204575922918" lon="9.722025206203952"><ele>740.7142857142857</ele><time>2026-04-25T09:58:06.999Z</time></trkpt><trkpt lat="44.70206923662709" lon="9.72212453944178"><ele>742.0</ele><time>2026-04-25T09:58:07.999Z</time></trkpt><trkpt lat="44.70210454602963" lon="9.722217056741334"><ele>742.0</ele><time>2026-04-25T09:58:08.999Z</time></trkpt><trkpt lat="44.7021481318104" lon="9.72230438928984"><ele>742.0</ele><time>2026-04-25T09:58:09.999Z</time></trkpt><trkpt lat="44.70219232565645" lon="9.72239135810644"><ele>742.0</ele><time>2026-04-25T09:58:10.999Z</time></trkpt><trkpt lat="44.70224413901137" lon="9.722469211606732"><ele>742.0</ele><time>2026-04-25T09:58:11.999Z</time></trkpt><trkpt lat="44.702301108086026" lon="9.722539999758737"><ele>742.0</ele><time>2026-04-25T09:58:12.999Z</time></trkpt><trkpt lat="44.70236266820855" lon="9.722600570760104"><ele>742.0</ele><time>2026-04-25T09:58:13.999Z</time></trkpt><trkpt lat="44.702430320514424" lon="9.722650987637373"><ele>742.0</ele><time>2026-04-25T09:58:14.999Z</time></trkpt><trkpt lat="44.70249220727741" lon="9.722721861908505"><ele>742.0</ele><time>2026-04-25T09:58:15.998Z</time></trkpt><trkpt lat="44.70256332394222" lon="9.72277067380973"><ele>742.0</ele><time>2026-04-25T09:58:16.998Z</time></trkpt><trkpt lat="44.702640019048566" lon="9.722796276772073"><ele>742.0</ele><time>2026-04-25T09:58:17.998Z</time></trkpt><trkpt lat="44.70271468455601" lon="9.722834557455998"><ele>742.0</ele><time>2026-04-25T09:58:18.998Z</time></trkpt><trkpt lat="44.70278876085424" lon="9.722865206368358"><ele>742.0</ele><time>2026-04-25T09:58:19.998Z</time></trkpt><trkpt lat="44.70286456774177" lon="9.72289775607545"><ele>742.1666666666667</ele><time>2026-04-25T09:58:20.998Z</time></trkpt><trkpt lat="44.70294248817599" lon="9.722929653059694"><ele>742.3333333333334</ele><time>2026-04-25T09:58:21.998Z</time></trkpt><trkpt lat="44.70301911019372" lon="9.722977270175152"><ele>742.5</ele><time>2026-04-25T09:58:22.998Z</time></trkpt><trkpt lat="44.70308524873019" lon="9.72305670861816"><ele>742.6666666666666</ele><time>2026-04-25T09:58:23.998Z</time></trkpt><trkpt lat="44.70312680371682" lon="9.723168026977216"><ele>742.8333333333333</ele><time>2026-04-25T09:58:24.998Z</time></trkpt><trkpt lat="44.70311708091233" lon="9.723300005203884"><ele>743.0</ele><time>2026-04-25T09:58:25.998Z</time></trkpt><trkpt lat="44.70313031378243" lon="9.723420944428316"><ele>743.0</ele><time>2026-04-25T09:58:26.998Z</time></trkpt><trkpt lat="44.703161339272114" lon="9.72353127559699"><ele>743.0</ele><time>2026-04-25T09:58:27.998Z</time></trkpt><trkpt lat="44.70318917038156" lon="9.72364336459669"><ele>743.0</ele><time>2026-04-25T09:58:28.998Z</time></trkpt><trkpt lat="44.703233405881804" lon="9.723748003455992"><ele>743.0</ele><time>2026-04-25T09:58:29.998Z</time></trkpt><trkpt lat="44.70328569765841" lon="9.723843508181309"><ele>743.0</ele><time>2026-04-25T09:58:30.998Z</time></trkpt><trkpt lat="44.70333997945589" lon="9.723936877375456"><ele>743.0</ele><time>2026-04-25T09:58:31.998Z</time></trkpt><trkpt lat="44.70339257123342" lon="9.72403468160481"><ele>741.1666666666666</ele><time>2026-04-25T09:58:32.998Z</time></trkpt><trkpt lat="44.70341029196767" lon="9.724158229208163"><ele>739.3333333333333</ele><time>2026-04-25T09:58:34Z</time></trkpt><trkpt lat="44.70343990397595" lon="9.724276080613"><ele>737.5</ele><time>2026-04-25T09:58:35Z</time></trkpt><trkpt lat="44.70346859581212" lon="9.724394366724399"><ele>735.6666666666666</ele><time>2026-04-25T09:58:36Z</time></trkpt><trkpt lat="44.70350800066065" lon="9.724507845619645"><ele>733.8333333333334</ele><time>2026-04-25T09:58:37Z</time></trkpt><trkpt lat="44.7035371824123" lon="9.724622400543186"><ele>732.0</ele><time>2026-04-25T09:58:38Z</time></trkpt><trkpt lat="44.70355970442075" lon="9.724734719764742"><ele>732.1666666666666</ele><time>2026-04-25T09:58:39Z</time></trkpt><trkpt lat="44.703627791264005" lon="9.724817390164946"><ele>732.3333333333334</ele><time>2026-04-25T09:58:40Z</time></trkpt><trkpt lat="44.70369989411558" lon="9.724877258522238"><ele>732.5</ele><time>2026-04-25T09:58:41Z</time></trkpt><trkpt lat="44.70378560447635" lon="9.724904074924282"><ele>732.6666666666667</ele><time>2026-04-25T09:58:42Z</time></trkpt><trkpt lat="44.70387232411125" lon="9.724906523473193"><ele>732.8333333333334</ele><time>2026-04-25T09:58:43Z</time></trkpt><trkpt lat="44.70395489002573" lon="9.724936403454782"><ele>733.0</ele><time>2026-04-25T09:58:44Z</time></trkpt><trkpt lat="44.704036301683196" lon="9.724954926044802"><ele>733.0</ele><time>2026-04-25T09:58:45Z</time></trkpt><trkpt lat="44.704112046341" lon="9.724988900186876"><ele>733.0</ele><time>2026-04-25T09:58:46Z</time></trkpt><trkpt lat="44.70418448007016" lon="9.725040281114447"><ele>733.0</ele><time>2026-04-25T09:58:47Z</time></trkpt><trkpt lat="44.70424631871122" lon="9.725111863538572"><ele>733.0</ele><time>2026-04-25T09:58:48Z</time></trkpt><trkpt lat="44.704294606813036" lon="9.725197733830859"><ele>733.0</ele><time>2026-04-25T09:58:49Z</time></trkpt><trkpt lat="44.70432424771177" lon="9.72528862187274"><ele>733.0</ele><time>2026-04-25T09:58:50Z</time></trkpt><trkpt lat="44.704345255302385" lon="9.72539025181137"><ele>732.8333333333334</ele><time>2026-04-25T09:58:51Z</time></trkpt><trkpt lat="44.70436237961159" lon="9.725489036415588"><ele>732.6666666666667</ele><time>2026-04-25T09:58:52Z</time></trkpt><trkpt lat="44.704385744303664" lon="9.725603771784378"><ele>732.5</ele><time>2026-04-25T09:58:53Z</time></trkpt><trkpt lat="44.70442795010594" lon="9.72570501064993"><ele>732.3333333333334</ele><time>2026-04-25T09:58:54Z</time></trkpt><trkpt lat="44.70447171993209" lon="9.725802995329895"><ele>732.1666666666666</ele><time>2026-04-25T09:58:55Z</time></trkpt><trkpt lat="44.704516022378556" lon="9.725899605183429"><ele>732.0</ele><time>2026-04-25T09:58:56Z</time></trkpt><trkpt lat="44.70456115394751" lon="9.725997081805088"><ele>730.8333333333334</ele><time>2026-04-25T09:58:57Z</time></trkpt><trkpt lat="44.70460635846851" lon="9.72609471591896"><ele>729.6666666666666</ele><time>2026-04-25T09:58:58Z</time></trkpt><trkpt lat="44.70465167548568" lon="9.726192593036496"><ele>728.5</ele><time>2026-04-25T09:58:59Z</time></trkpt><trkpt lat="44.704709566154804" lon="9.7262776684335"><ele>727.3333333333333</ele><time>2026-04-25T09:59:00Z</time></trkpt><trkpt lat="44.70475081158606" lon="9.726377384607884"><ele>726.1666666666666</ele><time>2026-04-25T09:59:01Z</time></trkpt><trkpt lat="44.704796296912626" lon="9.72647673073346"><ele>725.0</ele><time>2026-04-25T09:59:02Z</time></trkpt><trkpt lat="44.70485003043524" lon="9.726564482246118"><ele>725.0</ele><time>2026-04-25T09:59:03Z</time></trkpt><trkpt lat="44.70489746776332" lon="9.726658073161147"><ele>725.0</ele><time>2026-04-25T09:59:04Z</time></trkpt><trkpt lat="44.704942438262606" lon="9.726753783347581"><ele>725.0</ele><time>2026-04-25T09:59:05Z</time></trkpt><trkpt lat="44.70499252485386" lon="9.726847444225243"><ele>725.0</ele><time>2026-04-25T09:59:06Z</time></trkpt><trkpt lat="44.70504939174868" lon="9.72693155708426"><ele>725.0</ele><time>2026-04-25T09:59:07Z</time></trkpt><trkpt lat="44.70510494764266" lon="9.727013935035925"><ele>725.0</ele><time>2026-04-25T09:59:08Z</time></trkpt><trkpt lat="44.705159004769385" lon="9.727098914371528"><ele>725.8333333333333</ele><time>2026-04-25T09:59:09Z</time></trkpt><trkpt lat="44.70520962871075" lon="9.727187864953722"><ele>726.6666666666666</ele><time>2026-04-25T09:59:10Z</time></trkpt><trkpt lat="44.70525933437232" lon="9.727278306549719"><ele>727.5</ele><time>2026-04-25T09:59:11Z</time></trkpt><trkpt lat="44.70531201820856" lon="9.727366514371782"><ele>728.3333333333334</ele><time>2026-04-25T09:59:12Z</time></trkpt><trkpt lat="44.70536876618975" lon="9.727449069316247"><ele>729.1666666666667</ele><time>2026-04-25T09:59:13Z</time></trkpt><trkpt lat="44.7054366331574" lon="9.727517315552479"><ele>730.0</ele><time>2026-04-25T09:59:14Z</time></trkpt><trkpt lat="44.70551135912029" lon="9.727574384380588"><ele>730.0</ele><time>2026-04-25T09:59:15Z</time></trkpt><trkpt lat="44.70558929423599" lon="9.727629460631116"><ele>730.0</ele><time>2026-04-25T09:59:16Z</time></trkpt><trkpt lat="44.70565238327612" lon="9.727719834410056"><ele>730.0</ele><time>2026-04-25T09:59:17Z</time></trkpt><trkpt lat="44.705723694734445" lon="9.727799035252321"><ele>730.0</ele><time>2026-04-25T09:59:18Z</time></trkpt><trkpt lat="44.70577043554483" lon="9.727909772228026"><ele>730.0</ele><time>2026-04-25T09:59:19Z</time></trkpt><trkpt lat="44.70580941117026" lon="9.728025688879777"><ele>729.0</ele><time>2026-04-25T09:59:20Z</time></trkpt><trkpt lat="44.70583361935075" lon="9.728151745956744"><ele>728.0</ele><time>2026-04-25T09:59:21Z</time></trkpt><trkpt lat="44.705808121218084" lon="9.728281936672234"><ele>727.0</ele><time>2026-04-25T09:59:22Z</time></trkpt><trkpt lat="44.70580447654901" lon="9.72840913640598"><ele>726.0</ele><time>2026-04-25T09:59:23Z</time></trkpt><trkpt lat="44.70576347693842" lon="9.72853004195763"><ele>725.0</ele><time>2026-04-25T09:59:24Z</time></trkpt><trkpt lat="44.70573924096564" lon="9.728652201154965"><ele>724.6</ele><time>2026-04-25T09:59:24.999Z</time></trkpt><trkpt lat="44.70572992100431" lon="9.728785489837252"><ele>724.2</ele><time>2026-04-25T09:59:25.999Z</time></trkpt><trkpt lat="44.705703375627834" lon="9.728911133002322"><ele>723.8</ele><time>2026-04-25T09:59:26.999Z</time></trkpt><trkpt lat="44.70568102122652" lon="9.7290326228177"><ele>723.4</ele><time>2026-04-25T09:59:27.999Z</time></trkpt><trkpt lat="44.70565702691622" lon="9.729149266505134"><ele>723.0</ele><time>2026-04-25T09:59:28.999Z</time></trkpt><trkpt lat="44.705643369073165" lon="9.729271137986613"><ele>723.0</ele><time>2026-04-25T09:59:29.999Z</time></trkpt><trkpt lat="44.705626104636075" lon="9.72939195922492"><ele>723.0</ele><time>2026-04-25T09:59:30.999Z</time></trkpt><trkpt lat="44.70562378191337" lon="9.72951628647902"><ele>723.0</ele><time>2026-04-25T09:59:31.999Z</time></trkpt><trkpt lat="44.70564342505389" lon="9.729641834143692"><ele>723.0</ele><time>2026-04-25T09:59:32.999Z</time></trkpt><trkpt lat="44.70566931843266" lon="9.729764216469446"><ele>723.0</ele><time>2026-04-25T09:59:33.999Z</time></trkpt><trkpt lat="44.705699874141345" lon="9.729883193203742"><ele>723.0</ele><time>2026-04-25T09:59:34.999Z</time></trkpt><trkpt lat="44.70573402106254" lon="9.72999915629812"><ele>721.6666666666666</ele><time>2026-04-25T09:59:35.999Z</time></trkpt><trkpt lat="44.705775741289955" lon="9.730109239055423"><ele>720.3333333333334</ele><time>2026-04-25T09:59:36.999Z</time></trkpt><trkpt lat="44.70582752078521" lon="9.730209267343568"><ele>719.0</ele><time>2026-04-25T09:59:37.999Z</time></trkpt><trkpt lat="44.70588638766511" lon="9.730296605831366"><ele>717.6666666666667</ele><time>2026-04-25T09:59:38.999Z</time></trkpt><trkpt lat="44.70594116396918" lon="9.730383428838667"><ele>716.3333333333334</ele><time>2026-04-25T09:59:39.999Z</time></trkpt><trkpt lat="44.70599361006745" lon="9.730471043375854"><ele>715.0</ele><time>2026-04-25T09:59:40.999Z</time></trkpt><trkpt lat="44.70604985767713" lon="9.730551217086044"><ele>715.8333333333334</ele><time>2026-04-25T09:59:41.999Z</time></trkpt><trkpt lat="44.706105723263185" lon="9.7306262578495"><ele>716.6666666666667</ele><time>2026-04-25T09:59:42.999Z</time></trkpt><trkpt lat="44.706158459550984" lon="9.730700816958125"><ele>717.5</ele><time>2026-04-25T09:59:43.999Z</time></trkpt><trkpt lat="44.70621247053277" lon="9.730773427867645"><ele>718.3333333333334</ele><time>2026-04-25T09:59:44.999Z</time></trkpt><trkpt lat="44.70627387619028" lon="9.730834173136955"><ele>719.1666666666666</ele><time>2026-04-25T09:59:45.999Z</time></trkpt><trkpt lat="44.70633711888665" lon="9.730889330460839"><ele>720.0</ele><time>2026-04-25T09:59:46.999Z</time></trkpt><trkpt lat="44.70640101471108" lon="9.730945878686041"><ele>720.0</ele><time>2026-04-25T09:59:47.999Z</time></trkpt><trkpt lat="44.706465672163084" lon="9.730996162859748"><ele>720.0</ele><time>2026-04-25T09:59:48.999Z</time></trkpt><trkpt lat="44.70653320407625" lon="9.731033923296165"><ele>720.0</ele><time>2026-04-25T09:59:49.999Z</time></trkpt><trkpt lat="44.70660028645553" lon="9.73106321780573"><ele>720.0</ele><time>2026-04-25T09:59:50.999Z</time></trkpt><trkpt lat="44.70666914380549" lon="9.7310860569932"><ele>720.0</ele><time>2026-04-25T09:59:51.999Z</time></trkpt><trkpt lat="44.70673753191899" lon="9.731101731983571"><ele>720.0</ele><time>2026-04-25T09:59:52.999Z</time></trkpt><trkpt lat="44.706804874946585" lon="9.731110984727884"><ele>720.0</ele><time>2026-04-25T09:59:53.999Z</time></trkpt><trkpt lat="44.7068700581505" lon="9.731113334813807"><ele>718.8571428571428</ele><time>2026-04-25T09:59:54.999Z</time></trkpt><trkpt lat="44.70693629518149" lon="9.731114193003362"><ele>717.7142857142858</ele><time>2026-04-25T09:59:55.999Z</time></trkpt><trkpt lat="44.70700237207925" lon="9.731109248862474"><ele>716.5714285714286</ele><time>2026-04-25T09:59:56.999Z</time></trkpt><trkpt lat="44.70706672463469" lon="9.7311034497755"><ele>715.4285714285713</ele><time>2026-04-25T09:59:57.999Z</time></trkpt><trkpt lat="44.70713389726529" lon="9.73109337712713"><ele>714.2857142857142</ele><time>2026-04-25T09:59:58.999Z</time></trkpt><trkpt lat="44.707197851208306" lon="9.73108734170943"><ele>713.1428571428571</ele><time>2026-04-25T09:59:59.999Z</time></trkpt><trkpt lat="44.70731642312965" lon="9.731089170777604"><ele>712.0</ele><time>2026-04-25T10:00:01.999Z</time></trkpt><trkpt lat="44.707440016955765" lon="9.731102939509734"><ele>712.0</ele><time>2026-04-25T10:00:03.999Z</time></trkpt><trkpt lat="44.70755147471335" lon="9.731158375091592"><ele>712.0</ele><time>2026-04-25T10:00:05.999Z</time></trkpt><trkpt lat="44.70765836090391" lon="9.731233492591784"><ele>712.0</ele><time>2026-04-25T10:00:07.999Z</time></trkpt><trkpt lat="44.707754985436075" lon="9.731311659290176"><ele>712.0</ele><time>2026-04-25T10:00:09.999Z</time></trkpt><trkpt lat="44.707854725867755" lon="9.731378290755828"><ele>711.6</ele><time>2026-04-25T10:00:11.999Z</time></trkpt><trkpt lat="44.70794619708858" lon="9.731461282725588"><ele>711.2</ele><time>2026-04-25T10:00:13.999Z</time></trkpt><trkpt lat="44.708029389165986" lon="9.731556819507759"><ele>710.8</ele><time>2026-04-25T10:00:15.999Z</time></trkpt><trkpt lat="44.70809704672407" lon="9.731678496213059"><ele>710.4</ele><time>2026-04-25T10:00:17.999Z</time></trkpt><trkpt lat="44.70816709412904" lon="9.731797209390374"><ele>710.0</ele><time>2026-04-25T10:00:19.998Z</time></trkpt><trkpt lat="44.70824210014036" lon="9.731908225836184"><ele>710.0</ele><time>2026-04-25T10:00:21.998Z</time></trkpt><trkpt lat="44.70835803100865" lon="9.731933103450677"><ele>710.0</ele><time>2026-04-25T10:00:23.998Z</time></trkpt><trkpt lat="44.70846695892813" lon="9.731947857336777"><ele>710.0</ele><time>2026-04-25T10:00:25.998Z</time></trkpt><trkpt lat="44.708564216064914" lon="9.731924393434022"><ele>710.0</ele><time>2026-04-25T10:00:27.998Z</time></trkpt><trkpt lat="44.708656277261476" lon="9.731880691955507"><ele>710.0</ele><time>2026-04-25T10:00:29.998Z</time></trkpt><trkpt lat="44.70875380047597" lon="9.731862794826283"><ele>711.8</ele><time>2026-04-25T10:00:31.998Z</time></trkpt><trkpt lat="44.70884941494216" lon="9.73183827942185"><ele>713.6</ele><time>2026-04-25T10:00:33.998Z</time></trkpt><trkpt lat="44.70894042763738" lon="9.731818114699095"><ele>715.4000000000001</ele><time>2026-04-25T10:00:35.998Z</time></trkpt><trkpt lat="44.70903242528355" lon="9.731818099756572"><ele>717.2</ele><time>2026-04-25T10:00:37.998Z</time></trkpt><trkpt lat="44.709151876042895" lon="9.731881803317869"><ele>719.0</ele><time>2026-04-25T10:00:41Z</time></trkpt><trkpt lat="44.7092341119424" lon="9.731979756209375"><ele>719.0</ele><time>2026-04-25T10:00:43Z</time></trkpt><trkpt lat="44.70929919556852" lon="9.732067875711731"><ele>719.0</ele><time>2026-04-25T10:00:45Z</time></trkpt><trkpt lat="44.70936250242863" lon="9.732169045982642"><ele>719.0</ele><time>2026-04-25T10:00:47Z</time></trkpt><trkpt lat="44.70943502377342" lon="9.732248223200635"><ele>719.0</ele><time>2026-04-25T10:00:49Z</time></trkpt><trkpt lat="44.709522962862714" lon="9.732289739054618"><ele>719.0</ele><time>2026-04-25T10:00:51Z</time></trkpt><trkpt lat="44.70961954439808" lon="9.732283382830808"><ele>720.1666666666666</ele><time>2026-04-25T10:00:53Z</time></trkpt><trkpt lat="44.70970891954912" lon="9.732234211215921"><ele>721.3333333333333</ele><time>2026-04-25T10:00:55Z</time></trkpt><trkpt lat="44.709795800706885" lon="9.73219528264042"><ele>722.5</ele><time>2026-04-25T10:00:57Z</time></trkpt><trkpt lat="44.70988215212382" lon="9.73215387326347"><ele>723.6666666666666</ele><time>2026-04-25T10:00:59Z</time></trkpt><trkpt lat="44.70996863530867" lon="9.732139150533575"><ele>724.8333333333334</ele><time>2026-04-25T10:01:01Z</time></trkpt><trkpt lat="44.710034408296174" lon="9.732134472029543"><ele>726.0</ele><time>2026-04-25T10:01:03Z</time></trkpt><trkpt lat="44.7101069713968" lon="9.732159993272008"><ele>726.0</ele><time>2026-04-25T10:01:05Z</time></trkpt><trkpt lat="44.710200288570135" lon="9.732194798680684"><ele>726.0</ele><time>2026-04-25T10:01:07Z</time></trkpt><trkpt lat="44.71028085833847" lon="9.732233937337014"><ele>726.0</ele><time>2026-04-25T10:01:09Z</time></trkpt><trkpt lat="44.71036029398452" lon="9.732273757541643"><ele>726.0</ele><time>2026-04-25T10:01:11Z</time></trkpt><trkpt lat="44.71044518243681" lon="9.732297016382804"><ele>726.0</ele><time>2026-04-25T10:01:13Z</time></trkpt><trkpt lat="44.71053324775763" lon="9.732296706866155"><ele>726.0</ele><time>2026-04-25T10:01:15Z</time></trkpt><trkpt lat="44.71062241182384" lon="9.732287050360394"><ele>727.5</ele><time>2026-04-25T10:01:17Z</time></trkpt><trkpt lat="44.71070718496647" lon="9.732290407064365"><ele>729.0</ele><time>2026-04-25T10:01:19Z</time></trkpt><trkpt lat="44.71077479981753" lon="9.732313393687436"><ele>730.5</ele><time>2026-04-25T10:01:21Z</time></trkpt><trkpt lat="44.71085001449414" lon="9.732333767072745"><ele>732.0</ele><time>2026-04-25T10:01:22Z</time></trkpt><trkpt lat="44.710930887203084" lon="9.732381112052703"><ele>733.5</ele><time>2026-04-25T10:01:24Z</time></trkpt><trkpt lat="44.71102066686534" lon="9.732424446619715"><ele>735.0</ele><time>2026-04-25T10:01:26Z</time></trkpt><trkpt lat="44.7111096386912" lon="9.732462297084862"><ele>736.0</ele><time>2026-04-25T10:01:27.999Z</time></trkpt><trkpt lat="44.71120148175424" lon="9.732489091659613"><ele>737.0</ele><time>2026-04-25T10:01:29.999Z</time></trkpt><trkpt lat="44.71129366498232" lon="9.732503212933828"><ele>738.0</ele><time>2026-04-25T10:01:31.999Z</time></trkpt><trkpt lat="44.71138490770991" lon="9.732513060218972"><ele>739.0</ele><time>2026-04-25T10:01:33.999Z</time></trkpt><trkpt lat="44.71147841933043" lon="9.732509869742481"><ele>740.0</ele><time>2026-04-25T10:01:35.999Z</time></trkpt><trkpt lat="44.711570893692866" lon="9.732510203549902"><ele>740.0</ele><time>2026-04-25T10:01:37.999Z</time></trkpt><trkpt lat="44.71166298657299" lon="9.732501299147863"><ele>740.0</ele><time>2026-04-25T10:01:39.999Z</time></trkpt><trkpt lat="44.71175197948888" lon="9.732479917847348"><ele>740.0</ele><time>2026-04-25T10:01:41.999Z</time></trkpt><trkpt lat="44.71181729767345" lon="9.732434227279459"><ele>740.0</ele><time>2026-04-25T10:01:43.999Z</time></trkpt><trkpt lat="44.7118915897838" lon="9.732379313320443"><ele>740.0</ele><time>2026-04-25T10:01:45.999Z</time></trkpt><trkpt lat="44.71194210512333" lon="9.732323303605224"><ele>740.0</ele><time>2026-04-25T10:01:46.999Z</time></trkpt><trkpt lat="44.712021668754815" lon="9.732241139486126"><ele>739.0</ele><time>2026-04-25T10:01:48.999Z</time></trkpt><trkpt lat="44.71210479128111" lon="9.732169746150202"><ele>738.0</ele><time>2026-04-25T10:01:50.999Z</time></trkpt><trkpt lat="44.71218819401006" lon="9.73209056380031"><ele>737.0</ele><time>2026-04-25T10:01:52.999Z</time></trkpt><trkpt lat="44.71227518623165" lon="9.732015926863308"><ele>736.0</ele><time>2026-04-25T10:01:54.999Z</time></trkpt><trkpt lat="44.7123607055362" lon="9.73193664999976"><ele>735.0</ele><time>2026-04-25T10:01:56.999Z</time></trkpt><trkpt lat="44.71244919999968" lon="9.731872513823166"><ele>736.4</ele><time>2026-04-25T10:01:58.999Z</time></trkpt><trkpt lat="44.712549438530274" lon="9.73182609488371"><ele>737.8</ele><time>2026-04-25T10:02:00.999Z</time></trkpt><trkpt lat="44.71264634266726" lon="9.731791952072063"><ele>739.2</ele><time>2026-04-25T10:02:02.999Z</time></trkpt><trkpt lat="44.71274772470875" lon="9.731764772590198"><ele>740.6</ele><time>2026-04-25T10:02:04.999Z</time></trkpt><trkpt lat="44.71286215307964" lon="9.731742481487313"><ele>742.0</ele><time>2026-04-25T10:02:06.999Z</time></trkpt><trkpt lat="44.71295461145496" lon="9.731715950864341"><ele>742.0</ele><time>2026-04-25T10:02:08.999Z</time></trkpt><trkpt lat="44.71304051925858" lon="9.7316566893894"><ele>742.0</ele><time>2026-04-25T10:02:10.999Z</time></trkpt><trkpt lat="44.71310361235903" lon="9.731562869689768"><ele>742.0</ele><time>2026-04-25T10:02:12.999Z</time></trkpt><trkpt lat="44.71313188726909" lon="9.731445382460278"><ele>742.0</ele><time>2026-04-25T10:02:14.999Z</time></trkpt><trkpt lat="44.71314373287335" lon="9.731327186183231"><ele>742.0</ele><time>2026-04-25T10:02:16.999Z</time></trkpt><trkpt lat="44.713150685813574" lon="9.731228511337294"><ele>742.0</ele><time>2026-04-25T10:02:18.999Z</time></trkpt><trkpt lat="44.71316389936746" lon="9.731123345819581"><ele>743.1428571428571</ele><time>2026-04-25T10:02:20.999Z</time></trkpt><trkpt lat="44.713172324468765" lon="9.731021779905538"><ele>744.2857142857142</ele><time>2026-04-25T10:02:22.998Z</time></trkpt><trkpt lat="44.71319155847741" lon="9.730922050644736"><ele>745.4285714285714</ele><time>2026-04-25T10:02:24.998Z</time></trkpt><trkpt lat="44.7132146934976" lon="9.730824169161794"><ele>746.5714285714286</ele><time>2026-04-25T10:02:26.998Z</time></trkpt><trkpt lat="44.71324689432078" lon="9.730734098505827"><ele>747.7142857142857</ele><time>2026-04-25T10:02:28.998Z</time></trkpt><trkpt lat="44.7132830503765" lon="9.730646273735575"><ele>748.8571428571429</ele><time>2026-04-25T10:02:30.998Z</time></trkpt><trkpt lat="44.71332627699602" lon="9.730561580499925"><ele>750.0</ele><time>2026-04-25T10:02:32.998Z</time></trkpt><trkpt lat="44.71338354126287" lon="9.730482169853385"><ele>750.0</ele><time>2026-04-25T10:02:34.998Z</time></trkpt><trkpt lat="44.71345645488168" lon="9.730449031609965"><ele>750.0</ele><time>2026-04-25T10:02:36.998Z</time></trkpt><trkpt lat="44.713539311160694" lon="9.730490379695846"><ele>750.0</ele><time>2026-04-25T10:02:38.998Z</time></trkpt><trkpt lat="44.713617924405" lon="9.730562239036702"><ele>750.0</ele><time>2026-04-25T10:02:40.998Z</time></trkpt><trkpt lat="44.71369990604678" lon="9.730648440727137"><ele>750.0</ele><time>2026-04-25T10:02:42.998Z</time></trkpt><trkpt lat="44.71375887189041" lon="9.73070290384745"><ele>750.0</ele><time>2026-04-25T10:02:43.998Z</time></trkpt><trkpt lat="44.71381591596493" lon="9.73075732158358"><ele>748.8333333333334</ele><time>2026-04-25T10:02:44.998Z</time></trkpt><trkpt lat="44.71391518782891" lon="9.730846065179493"><ele>747.6666666666666</ele><time>2026-04-25T10:02:47Z</time></trkpt><trkpt lat="44.713975897595205" lon="9.730875093637785"><ele>746.5</ele><time>2026-04-25T10:02:48Z</time></trkpt><trkpt lat="44.71404199334714" lon="9.730866167513492"><ele>745.3333333333333</ele><time>2026-04-25T10:02:49Z</time></trkpt><trkpt lat="44.71409817790829" lon="9.730795836732275"><ele>744.1666666666666</ele><time>2026-04-25T10:02:50Z</time></trkpt><trkpt lat="44.71413342546161" lon="9.730698362301275"><ele>743.0</ele><time>2026-04-25T10:02:51Z</time></trkpt><trkpt lat="44.71411404322997" lon="9.730582126107938"><ele>743.0</ele><time>2026-04-25T10:02:52Z</time></trkpt><trkpt lat="44.71411211731536" lon="9.730489772020132"><ele>743.0</ele><time>2026-04-25T10:02:53Z</time></trkpt><trkpt lat="44.714117807372084" lon="9.730398315063475"><ele>743.0</ele><time>2026-04-25T10:02:54Z</time></trkpt><trkpt lat="44.7141293934373" lon="9.73030817037113"><ele>743.0</ele><time>2026-04-25T10:02:55Z</time></trkpt><trkpt lat="44.71414019359948" lon="9.730215466408735"><ele>743.0</ele><time>2026-04-25T10:02:56Z</time></trkpt><trkpt lat="44.71415165386564" lon="9.730123674632257"><ele>743.0</ele><time>2026-04-25T10:02:57Z</time></trkpt><trkpt lat="44.71416216905139" lon="9.730026546885892"><ele>743.0</ele><time>2026-04-25T10:02:58Z</time></trkpt><trkpt lat="44.71417262460342" lon="9.729930617402543"><ele>744.7142857142858</ele><time>2026-04-25T10:02:59Z</time></trkpt><trkpt lat="44.71419200586026" lon="9.729837377365632"><ele>746.4285714285713</ele><time>2026-04-25T10:03:00Z</time></trkpt><trkpt lat="44.71423059041685" lon="9.729750524280842"><ele>748.1428571428571</ele><time>2026-04-25T10:03:01Z</time></trkpt><trkpt lat="44.71427914990203" lon="9.729668201464511"><ele>749.8571428571429</ele><time>2026-04-25T10:03:02Z</time></trkpt><trkpt lat="44.714326789233375" lon="9.729586630215742"><ele>751.5714285714287</ele><time>2026-04-25T10:03:03Z</time></trkpt><trkpt lat="44.714365350075326" lon="9.729497628132561"><ele>753.2857142857142</ele><time>2026-04-25T10:03:04Z</time></trkpt><trkpt lat="44.71438929044619" lon="9.729401124147786"><ele>755.0</ele><time>2026-04-25T10:03:05Z</time></trkpt><trkpt lat="44.71439385847351" lon="9.729300739164994"><ele>756.0</ele><time>2026-04-25T10:03:06Z</time></trkpt><trkpt lat="44.7143966003477" lon="9.7292024036601"><ele>757.0</ele><time>2026-04-25T10:03:07Z</time></trkpt><trkpt lat="44.714418687103354" lon="9.729115974431071"><ele>758.0</ele><time>2026-04-25T10:03:08Z</time></trkpt><trkpt lat="44.71446221843596" lon="9.72905145383195"><ele>759.0</ele><time>2026-04-25T10:03:09Z</time></trkpt><trkpt lat="44.714523950852104" lon="9.72901358904358"><ele>760.0</ele><time>2026-04-25T10:03:10Z</time></trkpt><trkpt lat="44.71459383021788" lon="9.729004066065075"><ele>761.0</ele><time>2026-04-25T10:03:11Z</time></trkpt><trkpt lat="44.714657273033254" lon="9.729001508382392"><ele>762.0</ele><time>2026-04-25T10:03:12Z</time></trkpt><trkpt lat="44.714720388883364" lon="9.72899569564723"><ele>760.0</ele><time>2026-04-25T10:03:13Z</time></trkpt><trkpt lat="44.71478502191308" lon="9.728985449142247"><ele>758.0</ele><time>2026-04-25T10:03:14Z</time></trkpt><trkpt lat="44.71485363023928" lon="9.728962191551476"><ele>756.0</ele><time>2026-04-25T10:03:15Z</time></trkpt><trkpt lat="44.71492348591744" lon="9.72896370363967"><ele>754.0</ele><time>2026-04-25T10:03:16Z</time></trkpt><trkpt lat="44.71499534256724" lon="9.728977905833009"><ele>752.0</ele><time>2026-04-25T10:03:17Z</time></trkpt><trkpt lat="44.715064648754804" lon="9.729004908086196"><ele>750.0</ele><time>2026-04-25T10:03:18Z</time></trkpt><trkpt lat="44.71513507485648" lon="9.72903195193718"><ele>748.0</ele><time>2026-04-25T10:03:19Z</time></trkpt><trkpt lat="44.71521058578185" lon="9.729029279109346"><ele>746.0</ele><time>2026-04-25T10:03:20Z</time></trkpt><trkpt lat="44.715281092655516" lon="9.728992463711647"><ele>744.0</ele><time>2026-04-25T10:03:21Z</time></trkpt><trkpt lat="44.7153459818004" lon="9.72892916431957"><ele>742.0</ele><time>2026-04-25T10:03:22Z</time></trkpt><trkpt lat="44.71539883738938" lon="9.728845543548536"><ele>740.0</ele><time>2026-04-25T10:03:23Z</time></trkpt><trkpt lat="44.71544098779226" lon="9.728758112396568"><ele>738.0</ele><time>2026-04-25T10:03:24Z</time></trkpt><trkpt lat="44.715481756670435" lon="9.728667671022935"><ele>736.0</ele><time>2026-04-25T10:03:25Z</time></trkpt><trkpt lat="44.71552521061543" lon="9.728586917276674"><ele>738.5714285714286</ele><time>2026-04-25T10:03:26Z</time></trkpt><trkpt lat="44.715577126793534" lon="9.728515954380896"><ele>741.1428571428571</ele><time>2026-04-25T10:03:27Z</time></trkpt><trkpt lat="44.71563235714815" lon="9.728455874718794"><ele>743.7142857142857</ele><time>2026-04-25T10:03:28Z</time></trkpt><trkpt lat="44.71569187546503" lon="9.728401833830109"><ele>746.2857142857142</ele><time>2026-04-25T10:03:29Z</time></trkpt><trkpt lat="44.715752326815064" lon="9.728354146278944"><ele>748.8571428571429</ele><time>2026-04-25T10:03:30Z</time></trkpt><trkpt lat="44.71581607091032" lon="9.728311193346022"><ele>751.4285714285713</ele><time>2026-04-25T10:03:31Z</time></trkpt><trkpt lat="44.715878899285556" lon="9.728269644317917"><ele>754.0</ele><time>2026-04-25T10:03:32Z</time></trkpt><trkpt lat="44.71594321341822" lon="9.728232087125326"><ele>753.9999999999999</ele><time>2026-04-25T10:03:33Z</time></trkpt><trkpt lat="44.71600973255585" lon="9.72820223922359"><ele>754.0</ele><time>2026-04-25T10:03:33.999Z</time></trkpt><trkpt lat="44.71607858215234" lon="9.728178745711286"><ele>754.0</ele><time>2026-04-25T10:03:34.999Z</time></trkpt><trkpt lat="44.716149823810575" lon="9.72816382371051"><ele>754.0</ele><time>2026-04-25T10:03:35.999Z</time></trkpt><trkpt lat="44.716220281049324" lon="9.728158178244719"><ele>754.0</ele><time>2026-04-25T10:03:36.999Z</time></trkpt><trkpt lat="44.71629384606077" lon="9.728154472685814"><ele>753.9999999999999</ele><time>2026-04-25T10:03:37.999Z</time></trkpt><trkpt lat="44.71636280671541" lon="9.72815825376867"><ele>754.0</ele><time>2026-04-25T10:03:38.999Z</time></trkpt><trkpt lat="44.716434296754606" lon="9.728157390327995"><ele>752.8571428571428</ele><time>2026-04-25T10:03:39.999Z</time></trkpt><trkpt lat="44.71650511815501" lon="9.728144197230485"><ele>751.7142857142857</ele><time>2026-04-25T10:03:40.999Z</time></trkpt><trkpt lat="44.71657260671058" lon="9.72811112155365"><ele>750.5714285714286</ele><time>2026-04-25T10:03:41.999Z</time></trkpt><trkpt lat="44.71663793310916" lon="9.728064839717472"><ele>749.4285714285713</ele><time>2026-04-25T10:03:42.999Z</time></trkpt><trkpt lat="44.71669290806697" lon="9.7280031936315"><ele>748.2857142857143</ele><time>2026-04-25T10:03:43.999Z</time></trkpt><trkpt lat="44.71674126269672" lon="9.727933775156108"><ele>747.1428571428571</ele><time>2026-04-25T10:03:44.999Z</time></trkpt><trkpt lat="44.716787997664426" lon="9.727862749409168"><ele>746.0</ele><time>2026-04-25T10:03:45.999Z</time></trkpt><trkpt lat="44.71683295304734" lon="9.72779816445099"><ele>746.0</ele><time>2026-04-25T10:03:46.999Z</time></trkpt><trkpt lat="44.7168771473774" lon="9.727729172905564"><ele>746.0</ele><time>2026-04-25T10:03:47.999Z</time></trkpt><trkpt lat="44.71695672027421" lon="9.727593654396726"><ele>746.0</ele><time>2026-04-25T10:03:49.999Z</time></trkpt><trkpt lat="44.717031459607824" lon="9.727466508901808"><ele>746.0</ele><time>2026-04-25T10:03:51.999Z</time></trkpt><trkpt lat="44.71710676278193" lon="9.727347886191334"><ele>746.0</ele><time>2026-04-25T10:03:53.999Z</time></trkpt><trkpt lat="44.71717130346041" lon="9.727219554374216"><ele>745.8333333333333</ele><time>2026-04-25T10:03:55.999Z</time></trkpt><trkpt lat="44.71725037305782" lon="9.727095052810492"><ele>745.6666666666666</ele><time>2026-04-25T10:03:57.999Z</time></trkpt><trkpt lat="44.71732314825046" lon="9.726949990752386"><ele>745.5</ele><time>2026-04-25T10:03:59.999Z</time></trkpt><trkpt lat="44.71735467388778" lon="9.726869300292385"><ele>745.3333333333334</ele><time>2026-04-25T10:04:00.999Z</time></trkpt><trkpt lat="44.71738172654543" lon="9.72678505134263"><ele>745.1666666666667</ele><time>2026-04-25T10:04:01.999Z</time></trkpt><trkpt lat="44.71739566975547" lon="9.726696027626518"><ele>745.0</ele><time>2026-04-25T10:04:02.999Z</time></trkpt><trkpt lat="44.7173826711562" lon="9.72660158676418"><ele>745.5</ele><time>2026-04-25T10:04:03.999Z</time></trkpt><trkpt lat="44.71733447728563" lon="9.726520320229955"><ele>746.0</ele><time>2026-04-25T10:04:04.999Z</time></trkpt><trkpt lat="44.71725672314825" lon="9.726477163213016"><ele>746.5</ele><time>2026-04-25T10:04:05.999Z</time></trkpt><trkpt lat="44.717173474725946" lon="9.726465605191073"><ele>747.0</ele><time>2026-04-25T10:04:06.999Z</time></trkpt><trkpt lat="44.71709443191304" lon="9.726455485261809"><ele>747.5</ele><time>2026-04-25T10:04:07.999Z</time></trkpt><trkpt lat="44.71701783446377" lon="9.726433230297395"><ele>748.0</ele><time>2026-04-25T10:04:08.999Z</time></trkpt><trkpt lat="44.7169440620723" lon="9.726387618297828"><ele>748.6666666666667</ele><time>2026-04-25T10:04:09.999Z</time></trkpt><trkpt lat="44.71687161698497" lon="9.726335669294725"><ele>749.3333333333334</ele><time>2026-04-25T10:04:10.999Z</time></trkpt><trkpt lat="44.71679907461723" lon="9.726270458293977"><ele>750.0</ele><time>2026-04-25T10:04:11.999Z</time></trkpt><trkpt lat="44.716742584642994" lon="9.726180450280165"><ele>750.6666666666666</ele><time>2026-04-25T10:04:12.999Z</time></trkpt><trkpt lat="44.71666535528781" lon="9.726124833812882"><ele>751.3333333333333</ele><time>2026-04-25T10:04:13.999Z</time></trkpt><trkpt lat="44.716594828828036" lon="9.726052641727675"><ele>752.0</ele><time>2026-04-25T10:04:14.999Z</time></trkpt><trkpt lat="44.716532776030014" lon="9.725958395030494"><ele>752.0</ele><time>2026-04-25T10:04:15.999Z</time></trkpt><trkpt lat="44.71646532837001" lon="9.725876854305403"><ele>752.0</ele><time>2026-04-25T10:04:16.999Z</time></trkpt><trkpt lat="44.71640299673539" lon="9.725784885143016"><ele>752.0</ele><time>2026-04-25T10:04:17.999Z</time></trkpt><trkpt lat="44.71634838943511" lon="9.72569551027568"><ele>752.0</ele><time>2026-04-25T10:04:18.999Z</time></trkpt><trkpt lat="44.71628124666132" lon="9.725588981108343"><ele>752.0</ele><time>2026-04-25T10:04:19.999Z</time></trkpt><trkpt lat="44.716203957901264" lon="9.72551032572448"><ele>752.0</ele><time>2026-04-25T10:04:20.999Z</time></trkpt><trkpt lat="44.71613716721534" lon="9.725418136125157"><ele>752.0</ele><time>2026-04-25T10:04:21.999Z</time></trkpt><trkpt lat="44.7160688887176" lon="9.725327418672304"><ele>752.0</ele><time>2026-04-25T10:04:22.999Z</time></trkpt><trkpt lat="44.716002980738516" lon="9.72523627335509"><ele>752.0</ele><time>2026-04-25T10:04:23.999Z</time></trkpt><trkpt lat="44.71594199686142" lon="9.725139422130002"><ele>752.0</ele><time>2026-04-25T10:04:24.999Z</time></trkpt><trkpt lat="44.71588330688279" lon="9.72504344598909"><ele>752.0</ele><time>2026-04-25T10:04:25.999Z</time></trkpt><trkpt lat="44.715829718522826" lon="9.72495069468639"><ele>752.0</ele><time>2026-04-25T10:04:26.999Z</time></trkpt><trkpt lat="44.715778591884614" lon="9.724851154596127"><ele>752.0</ele><time>2026-04-25T10:04:27.998Z</time></trkpt><trkpt lat="44.71572102323487" lon="9.724764872299149"><ele>752.0</ele><time>2026-04-25T10:04:28.998Z</time></trkpt><trkpt lat="44.71565185607961" lon="9.724700893066041"><ele>752.0</ele><time>2026-04-25T10:04:29.998Z</time></trkpt><trkpt lat="44.715592580755484" lon="9.724613468799085"><ele>752.0</ele><time>2026-04-25T10:04:30.998Z</time></trkpt><trkpt lat="44.715530629572235" lon="9.724530163445186"><ele>752.0</ele><time>2026-04-25T10:04:31.998Z</time></trkpt><trkpt lat="44.71546918660486" lon="9.724441682615893"><ele>752.0</ele><time>2026-04-25T10:04:32.998Z</time></trkpt><trkpt lat="44.715407349814775" lon="9.724347458174966"><ele>752.0</ele><time>2026-04-25T10:04:33.998Z</time></trkpt><trkpt lat="44.71534408504553" lon="9.724249103330079"><ele>752.0</ele><time>2026-04-25T10:04:34.998Z</time></trkpt><trkpt lat="44.7152792792092" lon="9.724150436860628"><ele>752.0</ele><time>2026-04-25T10:04:35.998Z</time></trkpt><trkpt lat="44.71521002116239" lon="9.724053660980392"><ele>751.4000000000001</ele><time>2026-04-25T10:04:36.998Z</time></trkpt><trkpt lat="44.715140855403554" lon="9.723956835582374"><ele>750.8000000000001</ele><time>2026-04-25T10:04:37.998Z</time></trkpt><trkpt lat="44.715072391467025" lon="9.72385699735976"><ele>750.2</ele><time>2026-04-25T10:04:38.998Z</time></trkpt><trkpt lat="44.71500809019305" lon="9.723751539982626"><ele>749.6</ele><time>2026-04-25T10:04:39.998Z</time></trkpt><trkpt lat="44.71495530812729" lon="9.723633197660595"><ele>749.0</ele><time>2026-04-25T10:04:40.998Z</time></trkpt><trkpt lat="44.71491595633984" lon="9.723502150993937"><ele>747.2</ele><time>2026-04-25T10:04:41.998Z</time></trkpt><trkpt lat="44.71488632819912" lon="9.72336828832521"><ele>745.4000000000001</ele><time>2026-04-25T10:04:42.998Z</time></trkpt><trkpt lat="44.71486425411833" lon="9.723233914343952"><ele>743.6</ele><time>2026-04-25T10:04:43.998Z</time></trkpt><trkpt lat="44.714846067419195" lon="9.723095954221058"><ele>741.8</ele><time>2026-04-25T10:04:44.998Z</time></trkpt><trkpt lat="44.71482274408875" lon="9.722958443902714"><ele>740.0</ele><time>2026-04-25T10:04:45.998Z</time></trkpt><trkpt lat="44.71479884489137" lon="9.722820540065744"><ele>738.6</ele><time>2026-04-25T10:04:46.998Z</time></trkpt><trkpt lat="44.71477006760416" lon="9.722681302512884"><ele>737.2</ele><time>2026-04-25T10:04:47.998Z</time></trkpt><trkpt lat="44.71473692023165" lon="9.72254119314719"><ele>735.8</ele><time>2026-04-25T10:04:48.998Z</time></trkpt><trkpt lat="44.714699355204814" lon="9.722402951159358"><ele>734.4</ele><time>2026-04-25T10:04:49.998Z</time></trkpt><trkpt lat="44.71465482917543" lon="9.722272149847168"><ele>733.0</ele><time>2026-04-25T10:04:50.998Z</time></trkpt><trkpt lat="44.7146162920037" lon="9.722132776062626"><ele>733.0</ele><time>2026-04-25T10:04:52Z</time></trkpt><trkpt lat="44.714587087886834" lon="9.721986946481133"><ele>733.0</ele><time>2026-04-25T10:04:53Z</time></trkpt><trkpt lat="44.71456599793061" lon="9.721839041587712"><ele>733.0</ele><time>2026-04-25T10:04:54Z</time></trkpt><trkpt lat="44.71455132010078" lon="9.721695148484654"><ele>733.0</ele><time>2026-04-25T10:04:55Z</time></trkpt><trkpt lat="44.71455036295127" lon="9.721555281112867"><ele>733.0</ele><time>2026-04-25T10:04:56Z</time></trkpt><trkpt lat="44.71456097526589" lon="9.721416534307993"><ele>733.2</ele><time>2026-04-25T10:04:57Z</time></trkpt><trkpt lat="44.71457336688741" lon="9.721281536155976"><ele>733.4</ele><time>2026-04-25T10:04:58Z</time></trkpt><trkpt lat="44.714597249044644" lon="9.72114677937805"><ele>733.6</ele><time>2026-04-25T10:04:59Z</time></trkpt><trkpt lat="44.714645318028694" lon="9.721020215913054"><ele>733.8000000000001</ele><time>2026-04-25T10:05:00Z</time></trkpt><trkpt lat="44.7147147375859" lon="9.720914296909635"><ele>734.0</ele><time>2026-04-25T10:05:01Z</time></trkpt><trkpt lat="44.714806131351864" lon="9.720862385059018"><ele>734.0</ele><time>2026-04-25T10:05:02Z</time></trkpt><trkpt lat="44.714894947163685" lon="9.720811646099211"><ele>734.0</ele><time>2026-04-25T10:05:03Z</time></trkpt><trkpt lat="44.714978900895936" lon="9.720741113386374"><ele>734.0</ele><time>2026-04-25T10:05:04Z</time></trkpt><trkpt lat="44.715063150597636" lon="9.720685066282156"><ele>734.0</ele><time>2026-04-25T10:05:05Z</time></trkpt><trkpt lat="44.71512871579633" lon="9.720595072499458"><ele>734.0</ele><time>2026-04-25T10:05:06Z</time></trkpt><trkpt lat="44.71516555540381" lon="9.720478226361323"><ele>734.0</ele><time>2026-04-25T10:05:07Z</time></trkpt><trkpt lat="44.715180078689784" lon="9.720358090311866"><ele>734.0</ele><time>2026-04-25T10:05:08Z</time></trkpt><trkpt lat="44.715188006770376" lon="9.720236731074209"><ele>734.0</ele><time>2026-04-25T10:05:09Z</time></trkpt><trkpt lat="44.715199876451706" lon="9.720118318585659"><ele>734.0</ele><time>2026-04-25T10:05:10Z</time></trkpt><trkpt lat="44.71524107480159" lon="9.720007737816534"><ele>734.0</ele><time>2026-04-25T10:05:11Z</time></trkpt><trkpt lat="44.71526268327081" lon="9.719885784694231"><ele>734.0</ele><time>2026-04-25T10:05:12Z</time></trkpt><trkpt lat="44.71530643811953" lon="9.719772843365448"><ele>730.4000000000001</ele><time>2026-04-25T10:05:13Z</time></trkpt><trkpt lat="44.71533922270353" lon="9.71964974182255"><ele>726.8</ele><time>2026-04-25T10:05:14Z</time></trkpt><trkpt lat="44.715345977304075" lon="9.719519375389694"><ele>723.2</ele><time>2026-04-25T10:05:15Z</time></trkpt><trkpt lat="44.715331574097384" lon="9.719390667713908"><ele>719.5999999999999</ele><time>2026-04-25T10:05:16Z</time></trkpt><trkpt lat="44.71530359508509" lon="9.719264403670465"><ele>716.0</ele><time>2026-04-25T10:05:17Z</time></trkpt><trkpt lat="44.715270910589254" lon="9.719139924951357"><ele>720.4</ele><time>2026-04-25T10:05:18Z</time></trkpt><trkpt lat="44.715233541423835" lon="9.719015328871484"><ele>724.8</ele><time>2026-04-25T10:05:19Z</time></trkpt><trkpt lat="44.715198307385165" lon="9.718885651316986"><ele>729.1999999999999</ele><time>2026-04-25T10:05:20Z</time></trkpt><trkpt lat="44.7151707369905" lon="9.718749135693011"><ele>733.5999999999999</ele><time>2026-04-25T10:05:21Z</time></trkpt><trkpt lat="44.71515477803716" lon="9.718607046619349"><ele>738.0</ele><time>2026-04-25T10:05:22Z</time></trkpt><trkpt lat="44.71515082943911" lon="9.718461285822587"><ele>738.0</ele><time>2026-04-25T10:05:23Z</time></trkpt><trkpt lat="44.715149542162344" lon="9.718313772124144"><ele>738.0</ele><time>2026-04-25T10:05:24Z</time></trkpt><trkpt lat="44.71514943411408" lon="9.718166679176894"><ele>738.0</ele><time>2026-04-25T10:05:25Z</time></trkpt><trkpt lat="44.715157414510045" lon="9.718019585183587"><ele>738.0</ele><time>2026-04-25T10:05:26Z</time></trkpt><trkpt lat="44.71517191590966" lon="9.717870976885923"><ele>738.0</ele><time>2026-04-25T10:05:27Z</time></trkpt><trkpt lat="44.71520048042734" lon="9.717734624879203"><ele>733.0</ele><time>2026-04-25T10:05:28Z</time></trkpt><trkpt lat="44.71524579752888" lon="9.717606737989891"><ele>728.0</ele><time>2026-04-25T10:05:29Z</time></trkpt><trkpt lat="44.71530715181224" lon="9.717492756441173"><ele>723.0</ele><time>2026-04-25T10:05:30Z</time></trkpt><trkpt lat="44.71537713799876" lon="9.717385197371964"><ele>718.0</ele><time>2026-04-25T10:05:31Z</time></trkpt><trkpt lat="44.71545457619856" lon="9.717286809632789"><ele>713.0</ele><time>2026-04-25T10:05:32Z</time></trkpt><trkpt lat="44.71554200423561" lon="9.717202609539587"><ele>713.0</ele><time>2026-04-25T10:05:33Z</time></trkpt><trkpt lat="44.715626667064555" lon="9.717121512697874"><ele>713.0</ele><time>2026-04-25T10:05:34Z</time></trkpt><trkpt lat="44.715684631113234" lon="9.717023234117216"><ele>713.0</ele><time>2026-04-25T10:05:35Z</time></trkpt><trkpt lat="44.71571374851264" lon="9.716899247561274"><ele>713.0</ele><time>2026-04-25T10:05:36Z</time></trkpt><trkpt lat="44.71573587428563" lon="9.716779069804376"><ele>713.0</ele><time>2026-04-25T10:05:37Z</time></trkpt><trkpt lat="44.715758828473625" lon="9.716659487672858"><ele>714.6666666666666</ele><time>2026-04-25T10:05:38Z</time></trkpt><trkpt lat="44.71578000086313" lon="9.716540324696092"><ele>716.3333333333333</ele><time>2026-04-25T10:05:38.999Z</time></trkpt><trkpt lat="44.71580978022578" lon="9.716433176837445"><ele>718.0</ele><time>2026-04-25T10:05:39.999Z</time></trkpt><trkpt lat="44.71586113731334" lon="9.71634422908363"><ele>719.6666666666666</ele><time>2026-04-25T10:05:40.999Z</time></trkpt><trkpt lat="44.71592594689757" lon="9.716290734490428"><ele>721.3333333333334</ele><time>2026-04-25T10:05:41.999Z</time></trkpt><trkpt lat="44.716001206485416" lon="9.716300489215943"><ele>723.0</ele><time>2026-04-25T10:05:42.999Z</time></trkpt><trkpt lat="44.71606596437313" lon="9.716331838026543"><ele>719.4285714285714</ele><time>2026-04-25T10:05:43.999Z</time></trkpt><trkpt lat="44.71613342097602" lon="9.716353563364683"><ele>715.8571428571429</ele><time>2026-04-25T10:05:44.999Z</time></trkpt><trkpt lat="44.71619692126654" lon="9.716375691035381"><ele>712.2857142857142</ele><time>2026-04-25T10:05:45.999Z</time></trkpt><trkpt lat="44.71626092231267" lon="9.716368223119659"><ele>708.7142857142858</ele><time>2026-04-25T10:05:46.999Z</time></trkpt><trkpt lat="44.716310873961625" lon="9.716313638496262"><ele>705.1428571428571</ele><time>2026-04-25T10:05:47.999Z</time></trkpt><trkpt lat="44.716323983514314" lon="9.71621058699213"><ele>701.5714285714286</ele><time>2026-04-25T10:05:48.999Z</time></trkpt><trkpt lat="44.71629716213022" lon="9.716110571194383"><ele>698.0</ele><time>2026-04-25T10:05:49.999Z</time></trkpt><trkpt lat="44.71624919981311" lon="9.716031770606062"><ele>698.0</ele><time>2026-04-25T10:05:50.999Z</time></trkpt><trkpt lat="44.71620696577186" lon="9.715944398006966"><ele>698.0</ele><time>2026-04-25T10:05:51.999Z</time></trkpt><trkpt lat="44.716162163818886" lon="9.715855999391335"><ele>698.0</ele><time>2026-04-25T10:05:52.999Z</time></trkpt><trkpt lat="44.71611551656197" lon="9.71576282363787"><ele>698.0</ele><time>2026-04-25T10:05:53.999Z</time></trkpt><trkpt lat="44.71607019447717" lon="9.71566588140461"><ele>698.0</ele><time>2026-04-25T10:05:54.999Z</time></trkpt><trkpt lat="44.7160294066062" lon="9.715561990667608"><ele>698.0</ele><time>2026-04-25T10:05:55.999Z</time></trkpt><trkpt lat="44.71599773685436" lon="9.715452661509609"><ele>698.5</ele><time>2026-04-25T10:05:56.999Z</time></trkpt><trkpt lat="44.715975612396726" lon="9.715334577236204"><ele>699.0</ele><time>2026-04-25T10:05:57.999Z</time></trkpt><trkpt lat="44.71595400830855" lon="9.715216585928962"><ele>699.5</ele><time>2026-04-25T10:05:58.999Z</time></trkpt><trkpt lat="44.71598271346105" lon="9.715096776082861"><ele>700.0</ele><time>2026-04-25T10:05:59.999Z</time></trkpt><trkpt lat="44.71601542143541" lon="9.714989112967409"><ele>700.5</ele><time>2026-04-25T10:06:00.999Z</time></trkpt><trkpt lat="44.71606464219507" lon="9.714893081999119"><ele>701.0</ele><time>2026-04-25T10:06:01.999Z</time></trkpt><trkpt lat="44.71610613357974" lon="9.714781103235447"><ele>701.0</ele><time>2026-04-25T10:06:02.999Z</time></trkpt><trkpt lat="44.716177981643284" lon="9.714700561470904"><ele>701.0</ele><time>2026-04-25T10:06:03.999Z</time></trkpt><trkpt lat="44.716268662284" lon="9.714666119431826"><ele>701.0</ele><time>2026-04-25T10:06:04.999Z</time></trkpt><trkpt lat="44.71634943100575" lon="9.714602043297917"><ele>701.0</ele><time>2026-04-25T10:06:05.999Z</time></trkpt><trkpt lat="44.7164354976151" lon="9.714549715038393"><ele>701.0</ele><time>2026-04-25T10:06:06.999Z</time></trkpt><trkpt lat="44.71651449649955" lon="9.714472233376254"><ele>701.8</ele><time>2026-04-25T10:06:07.999Z</time></trkpt><trkpt lat="44.71658718320869" lon="9.714373509611214"><ele>702.5999999999999</ele><time>2026-04-25T10:06:08.999Z</time></trkpt><trkpt lat="44.71664529744212" lon="9.714254255631976"><ele>703.4</ele><time>2026-04-25T10:06:09.999Z</time></trkpt><trkpt lat="44.71669023227148" lon="9.714112213133326"><ele>704.2</ele><time>2026-04-25T10:06:10.999Z</time></trkpt><trkpt lat="44.716729181416085" lon="9.713974944605983"><ele>705.0</ele><time>2026-04-25T10:06:11.999Z</time></trkpt><trkpt lat="44.7167681106485" lon="9.713833330294323"><ele>705.0</ele><time>2026-04-25T10:06:12.999Z</time></trkpt><trkpt lat="44.71681544980707" lon="9.713699885274893"><ele>705.0</ele><time>2026-04-25T10:06:13.999Z</time></trkpt><trkpt lat="44.71685935815296" lon="9.713577735724181"><ele>705.0</ele><time>2026-04-25T10:06:14.999Z</time></trkpt><trkpt lat="44.716916606282204" lon="9.713460783581564"><ele>705.0</ele><time>2026-04-25T10:06:15.999Z</time></trkpt><trkpt lat="44.71697768005497" lon="9.71333888373006"><ele>705.0</ele><time>2026-04-25T10:06:16.999Z</time></trkpt><trkpt lat="44.71703893818284" lon="9.713214630962746"><ele>702.6</ele><time>2026-04-25T10:06:17.999Z</time></trkpt><trkpt lat="44.71709558748293" lon="9.713094075866616"><ele>700.2</ele><time>2026-04-25T10:06:18.999Z</time></trkpt><trkpt lat="44.71713578789516" lon="9.712959345059494"><ele>697.8</ele><time>2026-04-25T10:06:19.999Z</time></trkpt><trkpt lat="44.71713345556615" lon="9.712803887949729"><ele>695.4</ele><time>2026-04-25T10:06:20.999Z</time></trkpt><trkpt lat="44.71712195066787" lon="9.712659415773288"><ele>693.0</ele><time>2026-04-25T10:06:21.999Z</time></trkpt><trkpt lat="44.717061857644055" lon="9.712532523455273"><ele>693.0</ele><time>2026-04-25T10:06:22.999Z</time></trkpt><trkpt lat="44.717019002567824" lon="9.712402534193409"><ele>693.0</ele><time>2026-04-25T10:06:23.999Z</time></trkpt><trkpt lat="44.7169995889065" lon="9.71226208681564"><ele>693.0</ele><time>2026-04-25T10:06:24.999Z</time></trkpt><trkpt lat="44.717001383794575" lon="9.712120478118166"><ele>693.0</ele><time>2026-04-25T10:06:25.999Z</time></trkpt><trkpt lat="44.71701257934837" lon="9.711976624824187"><ele>693.0</ele><time>2026-04-25T10:06:26.999Z</time></trkpt><trkpt lat="44.717021908997935" lon="9.711836011311842"><ele>692.8</ele><time>2026-04-25T10:06:27.999Z</time></trkpt><trkpt lat="44.71703681552421" lon="9.711697362965033"><ele>692.5999999999999</ele><time>2026-04-25T10:06:28.999Z</time></trkpt><trkpt lat="44.71706620930501" lon="9.711562726352415"><ele>692.4000000000001</ele><time>2026-04-25T10:06:29.999Z</time></trkpt><trkpt lat="44.717119404136504" lon="9.711442334149563"><ele>692.2</ele><time>2026-04-25T10:06:30.999Z</time></trkpt><trkpt lat="44.71718757938828" lon="9.711335039444961"><ele>692.0</ele><time>2026-04-25T10:06:31.999Z</time></trkpt><trkpt lat="44.71726489942643" lon="9.711239398281469"><ele>692.0</ele><time>2026-04-25T10:06:32.998Z</time></trkpt><trkpt lat="44.71734744190667" lon="9.711150933086108"><ele>692.0</ele><time>2026-04-25T10:06:33.998Z</time></trkpt><trkpt lat="44.717435324162054" lon="9.711070247192387"><ele>692.0</ele><time>2026-04-25T10:06:34.998Z</time></trkpt><trkpt lat="44.717523343678714" lon="9.710991178949376"><ele>692.0</ele><time>2026-04-25T10:06:35.998Z</time></trkpt><trkpt lat="44.71761724907448" lon="9.710929841454158"><ele>692.0</ele><time>2026-04-25T10:06:36.998Z</time></trkpt><trkpt lat="44.71771337281521" lon="9.710875324920478"><ele>691.2</ele><time>2026-04-25T10:06:37.998Z</time></trkpt><trkpt lat="44.71780954748963" lon="9.710820300960977"><ele>690.4000000000001</ele><time>2026-04-25T10:06:38.998Z</time></trkpt><trkpt lat="44.7179016889946" lon="9.710769645526423"><ele>689.5999999999999</ele><time>2026-04-25T10:06:39.998Z</time></trkpt><trkpt lat="44.71798956244939" lon="9.71071441430816"><ele>688.8</ele><time>2026-04-25T10:06:40.998Z</time></trkpt><trkpt lat="44.71808152137758" lon="9.710655100681667"><ele>688.0</ele><time>2026-04-25T10:06:41.998Z</time></trkpt><trkpt lat="44.71817693140755" lon="9.710610151853693"><ele>688.0</ele><time>2026-04-25T10:06:42.998Z</time></trkpt><trkpt lat="44.71827617096547" lon="9.710577332183323"><ele>688.0</ele><time>2026-04-25T10:06:43.998Z</time></trkpt><trkpt lat="44.71837282481282" lon="9.710540674165875"><ele>688.0</ele><time>2026-04-25T10:06:44.998Z</time></trkpt><trkpt lat="44.718466957795" lon="9.710503037134004"><ele>688.0</ele><time>2026-04-25T10:06:45.998Z</time></trkpt><trkpt lat="44.718564906746934" lon="9.7104693250368"><ele>688.0</ele><time>2026-04-25T10:06:46.998Z</time></trkpt><trkpt lat="44.71865241780884" lon="9.71042107881138"><ele>687.3333333333334</ele><time>2026-04-25T10:06:47.998Z</time></trkpt><trkpt lat="44.71873403497368" lon="9.710368443363874"><ele>686.6666666666667</ele><time>2026-04-25T10:06:48.998Z</time></trkpt><trkpt lat="44.71881013103094" lon="9.710309660363322"><ele>686.0</ele><time>2026-04-25T10:06:49.998Z</time></trkpt><trkpt lat="44.71888044607107" lon="9.710243479046028"><ele>685.3333333333334</ele><time>2026-04-25T10:06:50.998Z</time></trkpt><trkpt lat="44.71893945236231" lon="9.710168334986115"><ele>684.6666666666666</ele><time>2026-04-25T10:06:51.998Z</time></trkpt><trkpt lat="44.71897293360549" lon="9.710070134680974"><ele>684.0</ele><time>2026-04-25T10:06:52.998Z</time></trkpt><trkpt lat="44.71897275704159" lon="9.709956409086876"><ele>684.0</ele><time>2026-04-25T10:06:53.998Z</time></trkpt><trkpt lat="44.71894579707731" lon="9.709852522700363"><ele>684.0</ele><time>2026-04-25T10:06:54.998Z</time></trkpt><trkpt lat="44.718901779055294" lon="9.70976313462782"><ele>684.0</ele><time>2026-04-25T10:06:55.998Z</time></trkpt><trkpt lat="44.71885332539429" lon="9.709677687432162"><ele>684.0</ele><time>2026-04-25T10:06:56.998Z</time></trkpt><trkpt lat="44.71880728769045" lon="9.709591081968478"><ele>684.0</ele><time>2026-04-25T10:06:58Z</time></trkpt><trkpt lat="44.71875614027383" lon="9.709511287254582"><ele>684.0</ele><time>2026-04-25T10:06:59Z</time></trkpt><trkpt lat="44.71870469088141" lon="9.709426684981446"><ele>682.9999999999999</ele><time>2026-04-25T10:07:00Z</time></trkpt><trkpt lat="44.7186533122075" lon="9.709345991143374"><ele>682.0</ele><time>2026-04-25T10:07:01Z</time></trkpt><trkpt lat="44.71861556184066" lon="9.709259219362643"><ele>681.0</ele><time>2026-04-25T10:07:02Z</time></trkpt><trkpt lat="44.71858662510658" lon="9.70917338541127"><ele>680.0</ele><time>2026-04-25T10:07:03Z</time></trkpt><trkpt lat="44.71855761083479" lon="9.709078976254037"><ele>679.0</ele><time>2026-04-25T10:07:04Z</time></trkpt><trkpt lat="44.718532300134505" lon="9.708980354506483"><ele>677.9999999999999</ele><time>2026-04-25T10:07:05Z</time></trkpt><trkpt lat="44.71850805306378" lon="9.708879986944577"><ele>677.0</ele><time>2026-04-25T10:07:06Z</time></trkpt><trkpt lat="44.71847969069968" lon="9.708779090251246"><ele>678.0</ele><time>2026-04-25T10:07:07Z</time></trkpt><trkpt lat="44.71845634679963" lon="9.708675405927512"><ele>679.0</ele><time>2026-04-25T10:07:08Z</time></trkpt><trkpt lat="44.71843407407838" lon="9.70856999772817"><ele>680.0</ele><time>2026-04-25T10:07:09Z</time></trkpt><trkpt lat="44.71841067495328" lon="9.708465566577077"><ele>681.0</ele><time>2026-04-25T10:07:10Z</time></trkpt><trkpt lat="44.71838723859616" lon="9.708359676622658"><ele>682.0</ele><time>2026-04-25T10:07:11Z</time></trkpt><trkpt lat="44.71836432761921" lon="9.708256684149978"><ele>683.0</ele><time>2026-04-25T10:07:12Z</time></trkpt><trkpt lat="44.71834629473448" lon="9.708149090040365"><ele>683.0</ele><time>2026-04-25T10:07:13Z</time></trkpt><trkpt lat="44.718339280095364" lon="9.708034418201176"><ele>683.0</ele><time>2026-04-25T10:07:14Z</time></trkpt><trkpt lat="44.71833622261329" lon="9.70791276329927"><ele>683.0</ele><time>2026-04-25T10:07:15Z</time></trkpt><trkpt lat="44.718331602837566" lon="9.707789749957325"><ele>683.0</ele><time>2026-04-25T10:07:16Z</time></trkpt><trkpt lat="44.718324647370856" lon="9.707667185741265"><ele>683.0</ele><time>2026-04-25T10:07:17Z</time></trkpt><trkpt lat="44.71831826300746" lon="9.707542208441271"><ele>683.0</ele><time>2026-04-25T10:07:18Z</time></trkpt><trkpt lat="44.71830754030114" lon="9.70741665429393"><ele>682.2</ele><time>2026-04-25T10:07:19Z</time></trkpt><trkpt lat="44.718282103757" lon="9.70729379618712"><ele>681.4</ele><time>2026-04-25T10:07:20Z</time></trkpt><trkpt lat="44.718244851200076" lon="9.707171808784555"><ele>680.6</ele><time>2026-04-25T10:07:21Z</time></trkpt><trkpt lat="44.71820233029011" lon="9.707050259730451"><ele>679.8000000000001</ele><time>2026-04-25T10:07:22Z</time></trkpt><trkpt lat="44.718158781909544" lon="9.70692946343289"><ele>679.0</ele><time>2026-04-25T10:07:23Z</time></trkpt><trkpt lat="44.71810913155543" lon="9.706811928931689"><ele>678.1666666666667</ele><time>2026-04-25T10:07:24Z</time></trkpt><trkpt lat="44.71805768611369" lon="9.706700002786146"><ele>677.3333333333334</ele><time>2026-04-25T10:07:25Z</time></trkpt><trkpt lat="44.718006068718985" lon="9.706584772163701"><ele>676.5</ele><time>2026-04-25T10:07:26Z</time></trkpt><trkpt lat="44.71796271395852" lon="9.706478891496559"><ele>675.6666666666666</ele><time>2026-04-25T10:07:27Z</time></trkpt><trkpt lat="44.71792828557067" lon="9.706383462887523"><ele>674.8333333333333</ele><time>2026-04-25T10:07:28Z</time></trkpt><trkpt lat="44.71791121715666" lon="9.706284704435674"><ele>674.0</ele><time>2026-04-25T10:07:29Z</time></trkpt><trkpt lat="44.71790759697248" lon="9.706183030843313"><ele>674.0000000000001</ele><time>2026-04-25T10:07:30Z</time></trkpt><trkpt lat="44.717911796048725" lon="9.706079253586724"><ele>674.0</ele><time>2026-04-25T10:07:31Z</time></trkpt><trkpt lat="44.717915601846975" lon="9.70597402365869"><ele>674.0</ele><time>2026-04-25T10:07:32Z</time></trkpt><trkpt lat="44.71792703092541" lon="9.705868791716426"><ele>674.0</ele><time>2026-04-25T10:07:33Z</time></trkpt><trkpt lat="44.71795708977546" lon="9.705771930260488"><ele>674.0</ele><time>2026-04-25T10:07:34Z</time></trkpt><trkpt lat="44.71800458195011" lon="9.705697029102097"><ele>674.0000000000001</ele><time>2026-04-25T10:07:35Z</time></trkpt><trkpt lat="44.718073384528715" lon="9.705669892138536"><ele>674.0</ele><time>2026-04-25T10:07:36Z</time></trkpt><trkpt lat="44.718141117396485" lon="9.705656387070384"><ele>674.0000000000001</ele><time>2026-04-25T10:07:37Z</time></trkpt><trkpt lat="44.71821270742735" lon="9.705659015499696"><ele>674.0</ele><time>2026-04-25T10:07:38Z</time></trkpt><trkpt lat="44.71828349536235" lon="9.705665025177597"><ele>674.0</ele><time>2026-04-25T10:07:39Z</time></trkpt><trkpt lat="44.71836011276829" lon="9.705650030959545"><ele>674.0</ele><time>2026-04-25T10:07:40Z</time></trkpt><trkpt lat="44.718431744458535" lon="9.705658280456083"><ele>674.0</ele><time>2026-04-25T10:07:41Z</time></trkpt><trkpt lat="44.71850586628916" lon="9.705655406577835"><ele>674.0000000000001</ele><time>2026-04-25T10:07:42Z</time></trkpt><trkpt lat="44.71858829282831" lon="9.7056677933286"><ele>674.0</ele><time>2026-04-25T10:07:43Z</time></trkpt><trkpt lat="44.71867097735154" lon="9.705636339517591"><ele>672.8000000000001</ele><time>2026-04-25T10:07:43.999Z</time></trkpt><trkpt lat="44.71875112425256" lon="9.705588997509123"><ele>671.6</ele><time>2026-04-25T10:07:44.999Z</time></trkpt><trkpt lat="44.71882074949224" lon="9.705505712572974"><ele>670.4</ele><time>2026-04-25T10:07:45.999Z</time></trkpt><trkpt lat="44.718891540875546" lon="9.705425835982473"><ele>669.2</ele><time>2026-04-25T10:07:46.999Z</time></trkpt><trkpt lat="44.718966113947566" lon="9.705346892409633"><ele>668.0</ele><time>2026-04-25T10:07:47.999Z</time></trkpt><trkpt lat="44.719022460115426" lon="9.705236798811029"><ele>668.0</ele><time>2026-04-25T10:07:48.999Z</time></trkpt><trkpt lat="44.71906455089268" lon="9.705132392618642"><ele>668.0</ele><time>2026-04-25T10:07:49.999Z</time></trkpt><trkpt lat="44.71908980969542" lon="9.705025020869964"><ele>668.0</ele><time>2026-04-25T10:07:50.999Z</time></trkpt><trkpt lat="44.719061767525396" lon="9.704903810951235"><ele>668.0</ele><time>2026-04-25T10:07:51.999Z</time></trkpt><trkpt lat="44.71903102560786" lon="9.704792304887032"><ele>668.0</ele><time>2026-04-25T10:07:52.999Z</time></trkpt><trkpt lat="44.719000506696055" lon="9.704680596279042"><ele>668.0</ele><time>2026-04-25T10:07:53.999Z</time></trkpt><trkpt lat="44.71898840401406" lon="9.704554829734134"><ele>668.0</ele><time>2026-04-25T10:07:54.999Z</time></trkpt><trkpt lat="44.71900795942468" lon="9.704433497625606"><ele>668.0</ele><time>2026-04-25T10:07:55.999Z</time></trkpt><trkpt lat="44.71905991695746" lon="9.704346855371448"><ele>668.0</ele><time>2026-04-25T10:07:56.999Z</time></trkpt><trkpt lat="44.719138269586274" lon="9.704322718390765"><ele>668.0</ele><time>2026-04-25T10:07:57.999Z</time></trkpt><trkpt lat="44.71921719983365" lon="9.704297042878485"><ele>668.0</ele><time>2026-04-25T10:07:58.999Z</time></trkpt><trkpt lat="44.71928909577348" lon="9.704262030483813"><ele>668.0</ele><time>2026-04-25T10:07:59.999Z</time></trkpt><trkpt lat="44.719352584567474" lon="9.704185591593497"><ele>668.0</ele><time>2026-04-25T10:08:00.999Z</time></trkpt><trkpt lat="44.719387951746" lon="9.704061793775114"><ele>668.0</ele><time>2026-04-25T10:08:01.999Z</time></trkpt><trkpt lat="44.719371822036024" lon="9.70392629311843"><ele>668.0</ele><time>2026-04-25T10:08:02.999Z</time></trkpt><trkpt lat="44.71936775943297" lon="9.703801445445167"><ele>668.0</ele><time>2026-04-25T10:08:03.999Z</time></trkpt><trkpt lat="44.7193678028035" lon="9.703675509089601"><ele>668.0</ele><time>2026-04-25T10:08:04.999Z</time></trkpt><trkpt lat="44.71936704643587" lon="9.703557770168514"><ele>668.0</ele><time>2026-04-25T10:08:05.999Z</time></trkpt><trkpt lat="44.71936342898953" lon="9.703451635371232"><ele>668.0</ele><time>2026-04-25T10:08:06.999Z</time></trkpt><trkpt lat="44.71936449918535" lon="9.703353685803839"><ele>668.0</ele><time>2026-04-25T10:08:07.999Z</time></trkpt><trkpt lat="44.719391473535886" lon="9.70325843497046"><ele>668.0</ele><time>2026-04-25T10:08:08.999Z</time></trkpt><trkpt lat="44.71944744613913" lon="9.703182966886848"><ele>668.0</ele><time>2026-04-25T10:08:09.999Z</time></trkpt><trkpt lat="44.71951862857033" lon="9.703137614696264"><ele>668.0</ele><time>2026-04-25T10:08:10.999Z</time></trkpt><trkpt lat="44.71959994530239" lon="9.703144379884106"><ele>666.6666666666666</ele><time>2026-04-25T10:08:11.999Z</time></trkpt><trkpt lat="44.719682161062394" lon="9.703156727797158"><ele>665.3333333333333</ele><time>2026-04-25T10:08:12.999Z</time></trkpt><trkpt lat="44.7197699081902" lon="9.703148271281261"><ele>664.0</ele><time>2026-04-25T10:08:13.999Z</time></trkpt><trkpt lat="44.71985878611906" lon="9.703162629473676"><ele>662.6666666666666</ele><time>2026-04-25T10:08:14.999Z</time></trkpt><trkpt lat="44.719946701446304" lon="9.703175235562481"><ele>661.3333333333334</ele><time>2026-04-25T10:08:15.999Z</time></trkpt><trkpt lat="44.72003102835754" lon="9.703189641645345"><ele>660.0</ele><time>2026-04-25T10:08:16.999Z</time></trkpt><trkpt lat="44.72011402925627" lon="9.703197441933124"><ele>660.0000000000001</ele><time>2026-04-25T10:08:17.999Z</time></trkpt><trkpt lat="44.72019219288388" lon="9.70321250043661"><ele>660.0</ele><time>2026-04-25T10:08:18.999Z</time></trkpt><trkpt lat="44.72025916073163" lon="9.70323571758828"><ele>660.0</ele><time>2026-04-25T10:08:19.999Z</time></trkpt><trkpt lat="44.72032002587663" lon="9.703285638955478"><ele>660.0</ele><time>2026-04-25T10:08:20.999Z</time></trkpt><trkpt lat="44.72037980925343" lon="9.703339670338211"><ele>660.0</ele><time>2026-04-25T10:08:21.999Z</time></trkpt><trkpt lat="44.7204331909073" lon="9.703404020782816"><ele>660.0000000000001</ele><time>2026-04-25T10:08:22.999Z</time></trkpt><trkpt lat="44.72049306483636" lon="9.703460986863565"><ele>660.0</ele><time>2026-04-25T10:08:23.999Z</time></trkpt><trkpt lat="44.720553411422486" lon="9.70351543057768"><ele>659.7142857142858</ele><time>2026-04-25T10:08:24.999Z</time></trkpt><trkpt lat="44.7206201765441" lon="9.70354071222484"><ele>659.4285714285714</ele><time>2026-04-25T10:08:25.999Z</time></trkpt><trkpt lat="44.72068478276239" lon="9.70355202226873"><ele>659.1428571428571</ele><time>2026-04-25T10:08:26.999Z</time></trkpt><trkpt lat="44.720754455197564" lon="9.703557012176988"><ele>658.8571428571429</ele><time>2026-04-25T10:08:27.999Z</time></trkpt><trkpt lat="44.72080174500809" lon="9.703460613057096"><ele>658.5714285714286</ele><time>2026-04-25T10:08:28.999Z</time></trkpt><trkpt lat="44.720840843062504" lon="9.70336985782208"><ele>658.2857142857143</ele><time>2026-04-25T10:08:29.999Z</time></trkpt><trkpt lat="44.72088354789102" lon="9.70328499144863"><ele>658.0</ele><time>2026-04-25T10:08:30.999Z</time></trkpt><trkpt lat="44.72092809663347" lon="9.703194643415587"><ele>658.0</ele><time>2026-04-25T10:08:31.999Z</time></trkpt><trkpt lat="44.720974016954536" lon="9.703098627389757"><ele>658.0</ele><time>2026-04-25T10:08:32.999Z</time></trkpt><trkpt lat="44.72101894354579" lon="9.702997236847729"><ele>658.0</ele><time>2026-04-25T10:08:33.999Z</time></trkpt><trkpt lat="44.7210624653817" lon="9.702897448873726"><ele>658.0</ele><time>2026-04-25T10:08:34.999Z</time></trkpt><trkpt lat="44.72111169170755" lon="9.702797539919343"><ele>658.0</ele><time>2026-04-25T10:08:35.999Z</time></trkpt><trkpt lat="44.72116722698057" lon="9.702708461000599"><ele>658.0</ele><time>2026-04-25T10:08:36.998Z</time></trkpt><trkpt lat="44.72123973849977" lon="9.702641529110176"><ele>655.8</ele><time>2026-04-25T10:08:37.998Z</time></trkpt><trkpt lat="44.72132020870932" lon="9.702580498926787"><ele>653.5999999999999</ele><time>2026-04-25T10:08:38.998Z</time></trkpt><trkpt lat="44.72139497460735" lon="9.702509236863477"><ele>651.4000000000001</ele><time>2026-04-25T10:08:39.998Z</time></trkpt><trkpt lat="44.7214564009469" lon="9.702415077564718"><ele>649.2</ele><time>2026-04-25T10:08:40.998Z</time></trkpt><trkpt lat="44.72150296613708" lon="9.702305965581397"><ele>647.0</ele><time>2026-04-25T10:08:41.998Z</time></trkpt><trkpt lat="44.72154687233563" lon="9.702192062971907"><ele>647.0</ele><time>2026-04-25T10:08:42.998Z</time></trkpt><trkpt lat="44.721585926187444" lon="9.702073054445213"><ele>647.0</ele><time>2026-04-25T10:08:43.998Z</time></trkpt><trkpt lat="44.72163543664593" lon="9.701958219478104"><ele>647.0</ele><time>2026-04-25T10:08:44.998Z</time></trkpt><trkpt lat="44.72170839879135" lon="9.701866808087754"><ele>647.0</ele><time>2026-04-25T10:08:45.998Z</time></trkpt><trkpt lat="44.7217945111455" lon="9.701799606395808"><ele>647.0</ele><time>2026-04-25T10:08:46.998Z</time></trkpt><trkpt lat="44.721885924605274" lon="9.70175198538412"><ele>646.5714285714286</ele><time>2026-04-25T10:08:47.998Z</time></trkpt><trkpt lat="44.72196751292633" lon="9.701713147152137"><ele>646.1428571428571</ele><time>2026-04-25T10:08:48.998Z</time></trkpt><trkpt lat="44.722036067129615" lon="9.701685240556214"><ele>645.7142857142858</ele><time>2026-04-25T10:08:49.998Z</time></trkpt><trkpt lat="44.72210628391873" lon="9.701666968120907"><ele>645.2857142857142</ele><time>2026-04-25T10:08:50.998Z</time></trkpt><trkpt lat="44.72217327290776" lon="9.701687447706437"><ele>644.8571428571429</ele><time>2026-04-25T10:08:51.998Z</time></trkpt><trkpt lat="44.722237541600514" lon="9.701680354362477"><ele>644.4285714285714</ele><time>2026-04-25T10:08:52.998Z</time></trkpt><trkpt lat="44.7223020894492" lon="9.701700362541112"><ele>644.0</ele><time>2026-04-25T10:08:53.998Z</time></trkpt><trkpt lat="44.722372048805006" lon="9.701713423995674"><ele>644.0</ele><time>2026-04-25T10:08:54.998Z</time></trkpt><trkpt lat="44.72244606446583" lon="9.701716555152812"><ele>644.0</ele><time>2026-04-25T10:08:55.998Z</time></trkpt><trkpt lat="44.72252109177873" lon="9.701710742371224"><ele>644.0</ele><time>2026-04-25T10:08:56.998Z</time></trkpt><trkpt lat="44.7225912821532" lon="9.701704544274245"><ele>644.0</ele><time>2026-04-25T10:08:57.998Z</time></trkpt><trkpt lat="44.7226551026107" lon="9.701700008388196"><ele>644.0</ele><time>2026-04-25T10:08:58.998Z</time></trkpt><trkpt lat="44.7227579633939" lon="9.701688109686541"><ele>644.0</ele><time>2026-04-25T10:09:00.998Z</time></trkpt><trkpt lat="44.72283872839534" lon="9.701670051095805"><ele>642.8333333333333</ele><time>2026-04-25T10:09:02.998Z</time></trkpt><trkpt lat="44.72291193710683" lon="9.701657114455744"><ele>641.6666666666666</ele><time>2026-04-25T10:09:06Z</time></trkpt><trkpt lat="44.7230015870348" lon="9.701633454278134"><ele>640.5</ele><time>2026-04-25T10:09:09Z</time></trkpt><trkpt lat="44.72302053591326" lon="9.70154559728459"><ele>639.3333333333334</ele><time>2026-04-25T10:09:10Z</time></trkpt><trkpt lat="44.72307269635664" lon="9.701460839211514"><ele>638.1666666666667</ele><time>2026-04-25T10:09:12Z</time></trkpt><trkpt lat="44.72311509267247" lon="9.701367771091096"><ele>637.0</ele><time>2026-04-25T10:09:14Z</time></trkpt><trkpt lat="44.72315030725502" lon="9.70126960648542"><ele>637.0</ele><time>2026-04-25T10:09:16Z</time></trkpt><trkpt lat="44.723191966317394" lon="9.701172613579283"><ele>637.0</ele><time>2026-04-25T10:09:18Z</time></trkpt><trkpt lat="44.72324123095285" lon="9.701085627719618"><ele>637.0</ele><time>2026-04-25T10:09:20Z</time></trkpt><trkpt lat="44.72328532632801" lon="9.700992922928084"><ele>637.0</ele><time>2026-04-25T10:09:22Z</time></trkpt><trkpt lat="44.72333384694111" lon="9.700913108610049"><ele>637.0</ele><time>2026-04-25T10:09:24Z</time></trkpt><trkpt lat="44.723378857701434" lon="9.700840663221324"><ele>637.0</ele><time>2026-04-25T10:09:26Z</time></trkpt><trkpt lat="44.72343241418995" lon="9.700749778535187"><ele>637.2857142857143</ele><time>2026-04-25T10:09:29Z</time></trkpt><trkpt lat="44.723487005487" lon="9.700685405891345"><ele>637.5714285714286</ele><time>2026-04-25T10:13:18Z</time></trkpt><trkpt lat="44.723521060534054" lon="9.700595692095547"><ele>637.8571428571429</ele><time>2026-04-25T10:13:23Z</time></trkpt><trkpt lat="44.72356965546485" lon="9.700512212105908"><ele>638.1428571428571</ele><time>2026-04-25T10:13:26Z</time></trkpt><trkpt lat="44.7236116703968" lon="9.700437869588878"><ele>638.4285714285714</ele><time>2026-04-25T10:13:28Z</time></trkpt><trkpt lat="44.72366483737568" lon="9.700353324560986"><ele>638.7142857142858</ele><time>2026-04-25T10:13:30Z</time></trkpt><trkpt lat="44.723720900553786" lon="9.700270119734359"><ele>639.0</ele><time>2026-04-25T10:13:32Z</time></trkpt><trkpt lat="44.723769253342425" lon="9.700197911504395"><ele>639.7142857142858</ele><time>2026-04-25T10:13:34Z</time></trkpt><trkpt lat="44.72381711150067" lon="9.700132448818728"><ele>640.4285714285714</ele><time>2026-04-25T10:13:36Z</time></trkpt><trkpt lat="44.72387376563842" lon="9.700066949725256"><ele>641.1428571428571</ele><time>2026-04-25T10:13:39Z</time></trkpt><trkpt lat="44.72391779996933" lon="9.699982398867958"><ele>641.8571428571429</ele><time>2026-04-25T10:18:11.999Z</time></trkpt><trkpt lat="44.72397571592087" lon="9.699947648793776"><ele>642.5714285714286</ele><time>2026-04-25T10:18:13.999Z</time></trkpt><trkpt lat="44.72404866563194" lon="9.69992899308736"><ele>643.2857142857143</ele><time>2026-04-25T10:18:15.999Z</time></trkpt><trkpt lat="44.72413775945277" lon="9.699949307392522"><ele>644.0</ele><time>2026-04-25T10:18:17.999Z</time></trkpt><trkpt lat="44.72423243196719" lon="9.70000452890144"><ele>644.0</ele><time>2026-04-25T10:18:19.999Z</time></trkpt><trkpt lat="44.72429358110598" lon="9.700125441718615"><ele>644.0</ele><time>2026-04-25T10:18:21.999Z</time></trkpt><trkpt lat="44.72431224875918" lon="9.700264341177547"><ele>644.0</ele><time>2026-04-25T10:18:23.999Z</time></trkpt><trkpt lat="44.7243510752964" lon="9.700384486154865"><ele>644.0</ele><time>2026-04-25T10:18:25.999Z</time></trkpt><trkpt lat="44.72437107242569" lon="9.700507701855464"><ele>644.0</ele><time>2026-04-25T10:18:27.999Z</time></trkpt><trkpt lat="44.72439357026786" lon="9.700619637793189"><ele>644.5</ele><time>2026-04-25T10:18:29.999Z</time></trkpt><trkpt lat="44.724419310372255" lon="9.700727119206896"><ele>645.0</ele><time>2026-04-25T10:18:31.999Z</time></trkpt><trkpt lat="44.7244637474308" lon="9.700831997577433"><ele>645.5</ele><time>2026-04-25T10:18:33.999Z</time></trkpt><trkpt lat="44.72451558012625" lon="9.700924192480661"><ele>646.0</ele><time>2026-04-25T10:18:35.999Z</time></trkpt><trkpt lat="44.72458500762077" lon="9.700939829018077"><ele>646.5</ele><time>2026-04-25T10:18:37.999Z</time></trkpt><trkpt lat="44.72466731391025" lon="9.700977720659566"><ele>647.0</ele><time>2026-04-25T10:18:40.999Z</time></trkpt><trkpt lat="44.724732207159136" lon="9.700998615809198"><ele>647.0</ele><time>2026-04-25T10:18:42.999Z</time></trkpt><trkpt lat="44.7248017455067" lon="9.7010168476938"><ele>647.0</ele><time>2026-04-25T10:18:44.999Z</time></trkpt><trkpt lat="44.724872181332465" lon="9.701010299876188"><ele>647.0</ele><time>2026-04-25T10:18:46.999Z</time></trkpt><trkpt lat="44.7249433366795" lon="9.700989891197658"><ele>647.0</ele><time>2026-04-25T10:18:48.999Z</time></trkpt><trkpt lat="44.72501106615731" lon="9.700970117768138"><ele>647.0</ele><time>2026-04-25T10:18:50.999Z</time></trkpt><trkpt lat="44.725074767342235" lon="9.700920398593805"><ele>647.0</ele><time>2026-04-25T10:18:52.999Z</time></trkpt><trkpt lat="44.725141150348286" lon="9.700906053009083"><ele>647.0</ele><time>2026-04-25T10:18:54.999Z</time></trkpt><trkpt lat="44.725206841705976" lon="9.700906275063598"><ele>647.1666666666666</ele><time>2026-04-25T10:18:56.999Z</time></trkpt><trkpt lat="44.72527364876425" lon="9.70090106003165"><ele>647.3333333333333</ele><time>2026-04-25T10:18:58.998Z</time></trkpt><trkpt lat="44.72536676575186" lon="9.700871817195303"><ele>647.5</ele><time>2026-04-25T10:19:01.998Z</time></trkpt><trkpt lat="44.72543724481703" lon="9.700827982015317"><ele>647.6666666666666</ele><time>2026-04-25T10:19:04.998Z</time></trkpt><trkpt lat="44.72550217579864" lon="9.70074364818025"><ele>647.8333333333334</ele><time>2026-04-25T10:19:07.998Z</time></trkpt><trkpt lat="44.72553111295333" lon="9.700646049608816"><ele>648.0</ele><time>2026-04-25T10:19:09.998Z</time></trkpt><trkpt lat="44.7255060256853" lon="9.700533648498782"><ele>648.0</ele><time>2026-04-25T10:19:12.998Z</time></trkpt><trkpt lat="44.72545467099308" lon="9.700440203499852"><ele>648.0</ele><time>2026-04-25T10:19:15.998Z</time></trkpt><trkpt lat="44.72540218879171" lon="9.700382379508783"><ele>648.0</ele><time>2026-04-25T10:19:17.998Z</time></trkpt><trkpt lat="44.72534292469073" lon="9.700332107618502"><ele>648.0</ele><time>2026-04-25T10:19:19.998Z</time></trkpt><trkpt lat="44.725283237218136" lon="9.700286744319627"><ele>648.0</ele><time>2026-04-25T10:19:21.998Z</time></trkpt><trkpt lat="44.725223455967075" lon="9.700247607520533"><ele>648.0</ele><time>2026-04-25T10:19:23.998Z</time></trkpt><trkpt lat="44.725134879492295" lon="9.700195258231078"><ele>649.4285714285714</ele><time>2026-04-25T10:19:26.998Z</time></trkpt><trkpt lat="44.72507379391547" lon="9.700165863180011"><ele>650.8571428571429</ele><time>2026-04-25T10:19:28.998Z</time></trkpt><trkpt lat="44.725009379297106" lon="9.70014381125368"><ele>652.2857142857142</ele><time>2026-04-25T10:19:30.998Z</time></trkpt><trkpt lat="44.72494782868865" lon="9.700116974322807"><ele>653.7142857142858</ele><time>2026-04-25T10:19:32.998Z</time></trkpt><trkpt lat="44.72486103866617" lon="9.70006491799576"><ele>655.1428571428571</ele><time>2026-04-25T10:19:36Z</time></trkpt><trkpt lat="44.72480930844532" lon="9.700012794544326"><ele>656.5714285714286</ele><time>2026-04-25T10:19:38Z</time></trkpt><trkpt lat="44.72476541651833" lon="9.699911423798985"><ele>658.0</ele><time>2026-04-25T10:19:41Z</time></trkpt><trkpt lat="44.724778779464835" lon="9.699809101377449"><ele>658.0</ele><time>2026-04-25T10:19:44Z</time></trkpt><trkpt lat="44.72483226637797" lon="9.699745219851087"><ele>658.0</ele><time>2026-04-25T10:19:47Z</time></trkpt><trkpt lat="44.72490891688717" lon="9.69970663765705"><ele>658.0</ele><time>2026-04-25T10:19:50Z</time></trkpt><trkpt lat="44.72496977782795" lon="9.699676566381598"><ele>658.0</ele><time>2026-04-25T10:19:52Z</time></trkpt><trkpt lat="44.72504030524827" lon="9.699645595140838"><ele>658.0</ele><time>2026-04-25T10:19:54Z</time></trkpt><trkpt lat="44.725119003518294" lon="9.699608353216759"><ele>658.0</ele><time>2026-04-25T10:19:57Z</time></trkpt><trkpt lat="44.72520655164005" lon="9.699588751236524"><ele>659.0</ele><time>2026-04-25T10:20:00Z</time></trkpt><trkpt lat="44.72528716319127" lon="9.699596455480219"><ele>660.0</ele><time>2026-04-25T10:20:02Z</time></trkpt><trkpt lat="44.72534769095516" lon="9.699622153916255"><ele>661.0</ele><time>2026-04-25T10:20:04Z</time></trkpt><trkpt lat="44.72540887801876" lon="9.699658752029766"><ele>662.0</ele><time>2026-04-25T10:20:06Z</time></trkpt><trkpt lat="44.725485659130754" lon="9.699715627116422"><ele>663.0</ele><time>2026-04-25T10:20:08.999Z</time></trkpt><trkpt lat="44.7255650318162" lon="9.699772317348177"><ele>664.0</ele><time>2026-04-25T10:20:10.999Z</time></trkpt><trkpt lat="44.72562781627627" lon="9.699819042362282"><ele>664.0</ele><time>2026-04-25T10:20:13.999Z</time></trkpt><trkpt lat="44.72569074393587" lon="9.699861202498463"><ele>664.0</ele><time>2026-04-25T10:20:14.999Z</time></trkpt><trkpt lat="44.72577160237392" lon="9.699904922404462"><ele>664.0</ele><time>2026-04-25T10:20:16.999Z</time></trkpt><trkpt lat="44.725846705744054" lon="9.699944116137408"><ele>664.0</ele><time>2026-04-25T10:20:18.999Z</time></trkpt><trkpt lat="44.726013638870526" lon="9.700046373174127"><ele>664.0</ele><time>2026-04-25T10:20:21.999Z</time></trkpt><trkpt lat="44.72609851279795" lon="9.700105080084633"><ele>664.4000000000001</ele><time>2026-04-25T10:20:23.999Z</time></trkpt><trkpt lat="44.72618088678397" lon="9.70015323307019"><ele>664.8</ele><time>2026-04-25T10:20:25.999Z</time></trkpt><trkpt lat="44.72627115072554" lon="9.700183455423145"><ele>665.2</ele><time>2026-04-25T10:20:27.999Z</time></trkpt><trkpt lat="44.72637046231692" lon="9.700163383989079"><ele>665.5999999999999</ele><time>2026-04-25T10:20:29.999Z</time></trkpt><trkpt lat="44.726461609135754" lon="9.700120034183378"><ele>666.0</ele><time>2026-04-25T10:20:31.999Z</time></trkpt><trkpt lat="44.72655396444019" lon="9.700080897479399"><ele>666.0</ele><time>2026-04-25T10:20:33.999Z</time></trkpt><trkpt lat="44.726651076252494" lon="9.700042026466322"><ele>666.0</ele><time>2026-04-25T10:20:35.999Z</time></trkpt><trkpt lat="44.72674319389794" lon="9.699997053971721"><ele>666.0</ele><time>2026-04-25T10:20:37.999Z</time></trkpt><trkpt lat="44.726834086595304" lon="9.699936177767613"><ele>666.0</ele><time>2026-04-25T10:20:39.999Z</time></trkpt><trkpt lat="44.726920287645434" lon="9.699890253017008"><ele>666.0</ele><time>2026-04-25T10:20:41.999Z</time></trkpt><trkpt lat="44.72701218224609" lon="9.699841501894337"><ele>665.75</ele><time>2026-04-25T10:20:43.999Z</time></trkpt><trkpt lat="44.72712332837163" lon="9.699857612325818"><ele>665.5</ele><time>2026-04-25T10:20:45.999Z</time></trkpt><trkpt lat="44.72720142447498" lon="9.699989505567446"><ele>665.25</ele><time>2026-04-25T10:20:47.999Z</time></trkpt><trkpt lat="44.727303341801225" lon="9.70005795925057"><ele>665.0</ele><time>2026-04-25T10:20:49.999Z</time></trkpt><trkpt lat="44.727419516549034" lon="9.700050195058065"><ele>665.0</ele><time>2026-04-25T10:20:51.999Z</time></trkpt><trkpt lat="44.727525887533325" lon="9.699995664082303"><ele>665.0</ele><time>2026-04-25T10:20:53.999Z</time></trkpt><trkpt lat="44.727632399991585" lon="9.699940529095603"><ele>665.0</ele><time>2026-04-25T10:20:55.999Z</time></trkpt><trkpt lat="44.727735797113816" lon="9.699892444767418"><ele>665.0</ele><time>2026-04-25T10:20:57.999Z</time></trkpt><trkpt lat="44.72783267773757" lon="9.699844086512346"><ele>665.0</ele><time>2026-04-25T10:20:59.999Z</time></trkpt><trkpt lat="44.727937602649476" lon="9.699835916262723"><ele>665.3333333333333</ele><time>2026-04-25T10:21:01.998Z</time></trkpt><trkpt lat="44.72804993917692" lon="9.699904535100805"><ele>665.6666666666666</ele><time>2026-04-25T10:21:03.998Z</time></trkpt><trkpt lat="44.72810756681655" lon="9.699974394082604"><ele>666.0</ele><time>2026-04-25T10:21:04.998Z</time></trkpt><trkpt lat="44.728166273074685" lon="9.700044514194596"><ele>666.3333333333334</ele><time>2026-04-25T10:21:05.998Z</time></trkpt><trkpt lat="44.728226413728585" lon="9.700088807360434"><ele>666.6666666666667</ele><time>2026-04-25T10:21:06.998Z</time></trkpt><trkpt lat="44.72829223888266" lon="9.700114421203898"><ele>667.0</ele><time>2026-04-25T10:21:07.998Z</time></trkpt><trkpt lat="44.72835660794134" lon="9.700105909534527"><ele>667.0</ele><time>2026-04-25T10:21:08.998Z</time></trkpt><trkpt lat="44.7284633118152" lon="9.70003029627488"><ele>667.0</ele><time>2026-04-25T10:21:10.998Z</time></trkpt><trkpt lat="44.72855884514338" lon="9.69993766285281"><ele>667.0</ele><time>2026-04-25T10:21:12.998Z</time></trkpt><trkpt lat="44.728651803447676" lon="9.699847664608477"><ele>667.0</ele><time>2026-04-25T10:21:14.998Z</time></trkpt><trkpt lat="44.728743150514596" lon="9.699748096535341"><ele>666.4000000000001</ele><time>2026-04-25T10:21:16.998Z</time></trkpt><trkpt lat="44.72882778495378" lon="9.69965747784022"><ele>665.8000000000001</ele><time>2026-04-25T10:21:18.998Z</time></trkpt><trkpt lat="44.72891922006559" lon="9.699580454066714"><ele>665.2</ele><time>2026-04-25T10:21:20.998Z</time></trkpt><trkpt lat="44.72900917719265" lon="9.699496804846689"><ele>664.6</ele><time>2026-04-25T10:21:22.998Z</time></trkpt><trkpt lat="44.729094011388085" lon="9.699411317065012"><ele>664.0</ele><time>2026-04-25T10:21:24.998Z</time></trkpt><trkpt lat="44.72918758149446" lon="9.699318496359243"><ele>665.75</ele><time>2026-04-25T10:21:26.998Z</time></trkpt><trkpt lat="44.7292850763135" lon="9.699221881404954"><ele>667.5</ele><time>2026-04-25T10:21:28.998Z</time></trkpt><trkpt lat="44.72940146703274" lon="9.699175179180065"><ele>669.25</ele><time>2026-04-25T10:21:30.998Z</time></trkpt><trkpt lat="44.729510272488774" lon="9.69924533478499"><ele>671.0</ele><time>2026-04-25T10:21:32.998Z</time></trkpt><trkpt lat="44.72960016753196" lon="9.699345812024104"><ele>671.4</ele><time>2026-04-25T10:21:34.998Z</time></trkpt><trkpt lat="44.7296542103696" lon="9.699476935613253"><ele>671.8</ele><time>2026-04-25T10:21:36.998Z</time></trkpt><trkpt lat="44.7296969299146" lon="9.699604896017284"><ele>672.1999999999999</ele><time>2026-04-25T10:21:38.998Z</time></trkpt><trkpt lat="44.72973912009637" lon="9.699720002285641"><ele>672.5999999999999</ele><time>2026-04-25T10:21:41Z</time></trkpt><trkpt lat="44.72978625174125" lon="9.699815481776051"><ele>673.0</ele><time>2026-04-25T10:21:43Z</time></trkpt><trkpt lat="44.72984234908215" lon="9.699906425251918"><ele>673.0</ele><time>2026-04-25T10:21:45Z</time></trkpt><trkpt lat="44.729899630585436" lon="9.699998051617461"><ele>673.0</ele><time>2026-04-25T10:21:47Z</time></trkpt><trkpt lat="44.72995481948313" lon="9.700098555356217"><ele>673.0</ele><time>2026-04-25T10:21:49Z</time></trkpt><trkpt lat="44.730004300900205" lon="9.700189606427218"><ele>673.0</ele><time>2026-04-25T10:21:51Z</time></trkpt><trkpt lat="44.73004584518529" lon="9.700279612702348"><ele>673.0</ele><time>2026-04-25T10:21:53Z</time></trkpt><trkpt lat="44.730083578723665" lon="9.700374942949042"><ele>673.0</ele><time>2026-04-25T10:21:55Z</time></trkpt><trkpt lat="44.73011839672171" lon="9.700469693054606"><ele>673.0</ele><time>2026-04-25T10:21:57Z</time></trkpt><trkpt lat="44.73015134991017" lon="9.700559879571015"><ele>673.0</ele><time>2026-04-25T10:21:59Z</time></trkpt><trkpt lat="44.730183326087655" lon="9.700651964204958"><ele>673.0</ele><time>2026-04-25T10:22:01Z</time></trkpt><trkpt lat="44.730237664189026" lon="9.700779035902244"><ele>673.0</ele><time>2026-04-25T10:22:04Z</time></trkpt><trkpt lat="44.73026823872689" lon="9.700858105593705"><ele>673.0</ele><time>2026-04-25T10:22:06Z</time></trkpt><trkpt lat="44.73031557881908" lon="9.700964844838323"><ele>673.0</ele><time>2026-04-25T10:22:09Z</time></trkpt><trkpt lat="44.730357061409826" lon="9.701069981874314"><ele>674.5</ele><time>2026-04-25T10:22:11.999Z</time></trkpt><trkpt lat="44.7303969911358" lon="9.701185900323019"><ele>676.0</ele><time>2026-04-25T10:22:14.999Z</time></trkpt><trkpt lat="44.73043517385751" lon="9.701312352954252"><ele>677.5</ele><time>2026-04-25T10:22:17.999Z</time></trkpt><trkpt lat="44.730469060343545" lon="9.70141865350662"><ele>679.0</ele><time>2026-04-25T10:22:19.999Z</time></trkpt><trkpt lat="44.73053697084037" lon="9.701510524839158"><ele>680.5</ele><time>2026-04-25T10:22:22.999Z</time></trkpt><trkpt lat="44.73060348240585" lon="9.701532628304017"><ele>682.0</ele><time>2026-04-25T10:22:24.999Z</time></trkpt><trkpt lat="44.73066563374157" lon="9.701511700662618"><ele>682.0</ele><time>2026-04-25T10:22:26.999Z</time></trkpt><trkpt lat="44.730721765129154" lon="9.701446862152709"><ele>682.0</ele><time>2026-04-25T10:22:29.999Z</time></trkpt><trkpt lat="44.73078763440305" lon="9.701364845113293"><ele>682.0</ele><time>2026-04-25T10:22:32.999Z</time></trkpt><trkpt lat="44.73084658994799" lon="9.701313773125406"><ele>682.0</ele><time>2026-04-25T10:22:34.999Z</time></trkpt><trkpt lat="44.73091816797096" lon="9.701282208364653"><ele>682.0</ele><time>2026-04-25T10:22:36.999Z</time></trkpt><trkpt lat="44.73100961803345" lon="9.701271563415347"><ele>682.0</ele><time>2026-04-25T10:22:39.999Z</time></trkpt><trkpt lat="44.731098228679336" lon="9.70125971859876"><ele>683.5</ele><time>2026-04-25T10:22:42.999Z</time></trkpt><trkpt lat="44.7311808106505" lon="9.701254647189069"><ele>685.0</ele><time>2026-04-25T10:22:45.999Z</time></trkpt><trkpt lat="44.731254999836445" lon="9.70124822955052"><ele>686.5</ele><time>2026-04-25T10:22:48.999Z</time></trkpt><trkpt lat="44.731330900143725" lon="9.701213767975515"><ele>688.0</ele><time>2026-04-25T10:22:51.999Z</time></trkpt><trkpt lat="44.73139639139225" lon="9.701156878456361"><ele>689.5</ele><time>2026-04-25T10:22:54.999Z</time></trkpt><trkpt lat="44.731446624789896" lon="9.70107525285718"><ele>691.0</ele><time>2026-04-25T10:22:57.999Z</time></trkpt><trkpt lat="44.73148064864885" lon="9.700977886255155"><ele>691.5714285714286</ele><time>2026-04-25T10:23:00.999Z</time></trkpt><trkpt lat="44.73150083037864" lon="9.700875205117207"><ele>692.1428571428571</ele><time>2026-04-25T10:23:03.999Z</time></trkpt><trkpt lat="44.731504747654135" lon="9.700768422034564"><ele>692.7142857142858</ele><time>2026-04-25T10:23:06.998Z</time></trkpt><trkpt lat="44.73150450714365" lon="9.700663105987847"><ele>693.2857142857142</ele><time>2026-04-25T10:23:09.998Z</time></trkpt><trkpt lat="44.73150145712216" lon="9.70055849420657"><ele>693.8571428571429</ele><time>2026-04-25T10:23:12.998Z</time></trkpt><trkpt lat="44.73149985873527" lon="9.700456754857814"><ele>694.4285714285714</ele><time>2026-04-25T10:23:15.998Z</time></trkpt><trkpt lat="44.731501687219506" lon="9.700365926639458"><ele>695.0</ele><time>2026-04-25T10:23:18.998Z</time></trkpt><trkpt lat="44.731505127881654" lon="9.700272880136023"><ele>695.5714285714287</ele><time>2026-04-25T10:23:21.998Z</time></trkpt><trkpt lat="44.73151717695081" lon="9.700171309361894"><ele>696.1428571428571</ele><time>2026-04-25T10:23:24.998Z</time></trkpt><trkpt lat="44.731532645189304" lon="9.700075980454468"><ele>696.7142857142858</ele><time>2026-04-25T10:23:27.998Z</time></trkpt><trkpt lat="44.731559314178206" lon="9.699980562156828"><ele>697.2857142857143</ele><time>2026-04-25T10:23:30.998Z</time></trkpt><trkpt lat="44.73158956374905" lon="9.699879913246264"><ele>697.8571428571429</ele><time>2026-04-25T10:23:33.998Z</time></trkpt><trkpt lat="44.73160661478773" lon="9.699781483996311"><ele>698.4285714285714</ele><time>2026-04-25T10:23:36.998Z</time></trkpt><trkpt lat="44.73162744221183" lon="9.699669508146254"><ele>699.0</ele><time>2026-04-25T10:23:39.998Z</time></trkpt><trkpt lat="44.73164210539082" lon="9.69957331073311"><ele>699.0</ele><time>2026-04-25T10:23:42.998Z</time></trkpt><trkpt lat="44.73165235694336" lon="9.699465485971428"><ele>699.0</ele><time>2026-04-25T10:23:46Z</time></trkpt><trkpt lat="44.73166075039558" lon="9.699367624265937"><ele>699.0</ele><time>2026-04-25T10:23:49Z</time></trkpt><trkpt lat="44.731667803598846" lon="9.699277124589637"><ele>699.0</ele><time>2026-04-25T10:23:52Z</time></trkpt><trkpt lat="44.731665546555554" lon="9.699184320470055"><ele>699.0</ele><time>2026-04-25T10:23:55Z</time></trkpt><trkpt lat="44.73166047875658" lon="9.699078861602201"><ele>699.0</ele><time>2026-04-25T10:23:58Z</time></trkpt><trkpt lat="44.73165182991022" lon="9.698965619374672"><ele>699.0</ele><time>2026-04-25T10:24:01Z</time></trkpt><trkpt lat="44.731645126499735" lon="9.698845813637933"><ele>699.6666666666666</ele><time>2026-04-25T10:24:04Z</time></trkpt><trkpt lat="44.73163724006024" lon="9.698715533018099"><ele>700.3333333333334</ele><time>2026-04-25T10:24:07Z</time></trkpt><trkpt lat="44.731626383975346" lon="9.698593865766785"><ele>701.0</ele><time>2026-04-25T10:24:10Z</time></trkpt><trkpt lat="44.73161402161777" lon="9.698455590795657"><ele>701.6666666666667</ele><time>2026-04-25T10:24:13Z</time></trkpt><trkpt lat="44.73160482438139" lon="9.698342251787214"><ele>702.3333333333334</ele><time>2026-04-25T10:24:15.999Z</time></trkpt><trkpt lat="44.73159606815406" lon="9.698221975808421"><ele>703.0</ele><time>2026-04-25T10:24:18.999Z</time></trkpt><trkpt lat="44.73158748192401" lon="9.698103161571327"><ele>703.1666666666667</ele><time>2026-04-25T10:24:21.999Z</time></trkpt><trkpt lat="44.731584280218044" lon="9.698006728051876"><ele>703.3333333333334</ele><time>2026-04-25T10:24:23.999Z</time></trkpt><trkpt lat="44.73157666414467" lon="9.697874547757683"><ele>703.5</ele><time>2026-04-25T10:24:26.999Z</time></trkpt><trkpt lat="44.73156960155172" lon="9.697786219443985"><ele>703.6666666666666</ele><time>2026-04-25T10:24:28.999Z</time></trkpt><trkpt lat="44.73156527249376" lon="9.697675825542047"><ele>703.8333333333333</ele><time>2026-04-25T10:24:31.999Z</time></trkpt><trkpt lat="44.73155780275037" lon="9.6975734840268"><ele>704.0</ele><time>2026-04-25T10:24:33.999Z</time></trkpt><trkpt lat="44.73154994437884" lon="9.697440219243928"><ele>705.1666666666666</ele><time>2026-04-25T10:24:36.999Z</time></trkpt><trkpt lat="44.73154421458167" lon="9.697327215315088"><ele>706.3333333333333</ele><time>2026-04-25T10:24:39.999Z</time></trkpt><trkpt lat="44.73153292827038" lon="9.697206557304572"><ele>707.5</ele><time>2026-04-25T10:24:42.999Z</time></trkpt><trkpt lat="44.731535193005534" lon="9.697113290163669"><ele>708.6666666666666</ele><time>2026-04-25T10:24:44.999Z</time></trkpt><trkpt lat="44.731549078697114" lon="9.696997622384496"><ele>709.8333333333334</ele><time>2026-04-25T10:24:47.999Z</time></trkpt><trkpt lat="44.73157310309183" lon="9.696901290012477"><ele>711.0</ele><time>2026-04-25T10:24:50.999Z</time></trkpt><trkpt lat="44.73165315288115" lon="9.696856233794882"><ele>711.0</ele><time>2026-04-25T10:24:53.999Z</time></trkpt><trkpt lat="44.731716614767755" lon="9.696876228456155"><ele>711.0</ele><time>2026-04-25T10:24:56.999Z</time></trkpt><trkpt lat="44.73176808000828" lon="9.696938599557893"><ele>711.0</ele><time>2026-04-25T10:24:59.999Z</time></trkpt><trkpt lat="44.73181397366439" lon="9.697018848573347"><ele>711.0</ele><time>2026-04-25T10:25:02.999Z</time></trkpt><trkpt lat="44.73185165593973" lon="9.697116080157619"><ele>711.0</ele><time>2026-04-25T10:25:05.999Z</time></trkpt><trkpt lat="44.73189193833666" lon="9.69720903124764"><ele>711.0</ele><time>2026-04-25T10:25:08.999Z</time></trkpt><trkpt lat="44.73193471045205" lon="9.697300870395265"><ele>711.0</ele><time>2026-04-25T10:25:11.998Z</time></trkpt><trkpt lat="44.73198061241817" lon="9.697393451973737"><ele>713.0</ele><time>2026-04-25T10:25:14.998Z</time></trkpt><trkpt lat="44.73202440179256" lon="9.697487141997343"><ele>715.0</ele><time>2026-04-25T10:25:17.998Z</time></trkpt><trkpt lat="44.73207849050143" lon="9.697571258006148"><ele>717.0</ele><time>2026-04-25T10:25:20.998Z</time></trkpt><trkpt lat="44.73213157707825" lon="9.697654766298234"><ele>719.0</ele><time>2026-04-25T10:25:23.998Z</time></trkpt><trkpt lat="44.732188211479865" lon="9.697733627646203"><ele>721.0</ele><time>2026-04-25T10:25:26.998Z</time></trkpt><trkpt lat="44.73224934756916" lon="9.69780949780274"><ele>723.0</ele><time>2026-04-25T10:25:29.998Z</time></trkpt><trkpt lat="44.73230302740442" lon="9.697895053954852"><ele>723.0</ele><time>2026-04-25T10:25:32.998Z</time></trkpt><trkpt lat="44.73235499618226" lon="9.69797977757621"><ele>723.0</ele><time>2026-04-25T10:25:35.998Z</time></trkpt><trkpt lat="44.73240167439257" lon="9.698075672185576"><ele>723.0</ele><time>2026-04-25T10:25:38.998Z</time></trkpt><trkpt lat="44.732444239823366" lon="9.698186379633466"><ele>723.0</ele><time>2026-04-25T10:25:41.998Z</time></trkpt><trkpt lat="44.732487794838164" lon="9.698288780110886"><ele>723.0</ele><time>2026-04-25T10:25:44.998Z</time></trkpt><trkpt lat="44.732528769039305" lon="9.698394868501238"><ele>723.0</ele><time>2026-04-25T10:25:47.998Z</time></trkpt><trkpt lat="44.73256411446095" lon="9.698499000280767"><ele>723.0</ele><time>2026-04-25T10:25:50.998Z</time></trkpt><trkpt lat="44.73252895054168" lon="9.69841693186096"><ele>723.0</ele><time>2026-04-25T10:25:52Z</time></trkpt><trkpt lat="44.7325634753868" lon="9.698513902692229"><ele>723.0</ele><time>2026-04-25T10:25:54Z</time></trkpt><trkpt lat="44.7327043959387" lon="9.698786285075906"><ele>723.0</ele><time>2026-04-25T10:25:56Z</time></trkpt><trkpt lat="44.732745280350606" lon="9.698864537173689"><ele>723.7142857142858</ele><time>2026-04-25T10:25:58Z</time></trkpt><trkpt lat="44.732794987276485" lon="9.698942939293525"><ele>724.4285714285714</ele><time>2026-04-25T10:26:00Z</time></trkpt><trkpt lat="44.73284865598914" lon="9.699018205071313"><ele>725.1428571428571</ele><time>2026-04-25T10:26:02Z</time></trkpt><trkpt lat="44.73289878558418" lon="9.699091045693313"><ele>725.8571428571429</ele><time>2026-04-25T10:26:04Z</time></trkpt><trkpt lat="44.73294613950923" lon="9.699170012430256"><ele>726.5714285714286</ele><time>2026-04-25T10:26:06Z</time></trkpt><trkpt lat="44.732976587985064" lon="9.69926503439453"><ele>727.2857142857143</ele><time>2026-04-25T10:26:08Z</time></trkpt><trkpt lat="44.73298876862248" lon="9.699370958098083"><ele>728.0</ele><time>2026-04-25T10:26:10Z</time></trkpt><trkpt lat="44.73299407043233" lon="9.699481621165313"><ele>728.0</ele><time>2026-04-25T10:26:12Z</time></trkpt><trkpt lat="44.73299322075164" lon="9.69958465093464"><ele>728.0</ele><time>2026-04-25T10:26:14Z</time></trkpt><trkpt lat="44.73300804050425" lon="9.69968379809415"><ele>728.0</ele><time>2026-04-25T10:26:16Z</time></trkpt><trkpt lat="44.73306757173883" lon="9.699753761103416"><ele>728.0</ele><time>2026-04-25T10:26:18Z</time></trkpt><trkpt lat="44.733148990387335" lon="9.699757783605765"><ele>728.0</ele><time>2026-04-25T10:26:19.999Z</time></trkpt><trkpt lat="44.733210978064136" lon="9.699687291059803"><ele>728.0</ele><time>2026-04-25T10:26:21.999Z</time></trkpt><trkpt lat="44.7332265314966" lon="9.699576949915198"><ele>728.0</ele><time>2026-04-25T10:26:23.999Z</time></trkpt><trkpt lat="44.73321821511992" lon="9.699478793742927"><ele>728.0</ele><time>2026-04-25T10:26:25.999Z</time></trkpt><trkpt lat="44.73320660991496" lon="9.69937358259603"><ele>728.0</ele><time>2026-04-25T10:26:28.999Z</time></trkpt><trkpt lat="44.73319215314336" lon="9.69928276851747"><ele>728.0</ele><time>2026-04-25T10:26:30.999Z</time></trkpt><trkpt lat="44.73316444860804" lon="9.699079091376738"><ele>728.0</ele><time>2026-04-25T10:26:33.999Z</time></trkpt><trkpt lat="44.73314416387345" lon="9.698985349258617"><ele>728.0</ele><time>2026-04-25T10:26:35.999Z</time></trkpt><trkpt lat="44.73312317474325" lon="9.698893455781118"><ele>728.8571428571429</ele><time>2026-04-25T10:26:37.999Z</time></trkpt><trkpt lat="44.73310643702725" lon="9.698805527597619"><ele>729.7142857142858</ele><time>2026-04-25T10:26:39.999Z</time></trkpt><trkpt lat="44.73308846382861" lon="9.698720323447862"><ele>730.5714285714286</ele><time>2026-04-25T10:26:41.999Z</time></trkpt><trkpt lat="44.73306513081082" lon="9.698595347789894"><ele>731.4285714285714</ele><time>2026-04-25T10:26:44.999Z</time></trkpt><trkpt lat="44.73303845043785" lon="9.698472711938791"><ele>732.2857142857143</ele><time>2026-04-25T10:26:47.999Z</time></trkpt><trkpt lat="44.733023881679436" lon="9.69837871125918"><ele>733.1428571428571</ele><time>2026-04-25T10:26:49.999Z</time></trkpt><trkpt lat="44.73301113931287" lon="9.698290591930117"><ele>734.0</ele><time>2026-04-25T10:26:51.999Z</time></trkpt><trkpt lat="44.73299530844683" lon="9.698179345833204"><ele>735.1666666666666</ele><time>2026-04-25T10:26:54.999Z</time></trkpt><trkpt lat="44.73298780828406" lon="9.698086223770595"><ele>736.3333333333333</ele><time>2026-04-25T10:26:57.999Z</time></trkpt><trkpt lat="44.73298824708729" lon="9.697975524529106"><ele>737.5</ele><time>2026-04-25T10:26:59.999Z</time></trkpt><trkpt lat="44.732992496370166" lon="9.697882334288105"><ele>738.6666666666666</ele><time>2026-04-25T10:27:01.999Z</time></trkpt><trkpt lat="44.73300737898537" lon="9.697759195136657"><ele>739.8333333333334</ele><time>2026-04-25T10:27:04.999Z</time></trkpt><trkpt lat="44.73303193322651" lon="9.697639312308128"><ele>741.0</ele><time>2026-04-25T10:27:07.999Z</time></trkpt><trkpt lat="44.73307896973762" lon="9.697530831769585"><ele>741.5</ele><time>2026-04-25T10:27:10.999Z</time></trkpt><trkpt lat="44.733119493732424" lon="9.697435247049066"><ele>742.0</ele><time>2026-04-25T10:27:13.999Z</time></trkpt><trkpt lat="44.73316564618979" lon="9.697340180920582"><ele>742.5</ele><time>2026-04-25T10:27:16.998Z</time></trkpt><trkpt lat="44.7332199040907" lon="9.69724583371278"><ele>743.0</ele><time>2026-04-25T10:27:19.998Z</time></trkpt><trkpt lat="44.73326086032181" lon="9.697152471398043"><ele>743.5</ele><time>2026-04-25T10:27:22.998Z</time></trkpt><trkpt lat="44.73330587342845" lon="9.697069831202974"><ele>744.0</ele><time>2026-04-25T10:27:25.998Z</time></trkpt><trkpt lat="44.733351681704335" lon="9.696983762274776"><ele>743.5</ele><time>2026-04-25T10:27:27.998Z</time></trkpt><trkpt lat="44.73340684928841" lon="9.69687575169413"><ele>743.0</ele><time>2026-04-25T10:27:30.998Z</time></trkpt><trkpt lat="44.73346033188242" lon="9.696781435661979"><ele>742.5</ele><time>2026-04-25T10:27:33.998Z</time></trkpt><trkpt lat="44.733511663600005" lon="9.696689060566067"><ele>742.0</ele><time>2026-04-25T10:27:36.998Z</time></trkpt><trkpt lat="44.733558639719064" lon="9.696622757176263"><ele>741.5</ele><time>2026-04-25T10:27:38.998Z</time></trkpt><trkpt lat="44.733617797891945" lon="9.696537334074025"><ele>741.0</ele><time>2026-04-25T10:27:41.998Z</time></trkpt><trkpt lat="44.73368582640762" lon="9.69644866826578"><ele>742.8333333333334</ele><time>2026-04-25T10:27:44.998Z</time></trkpt><trkpt lat="44.733753139921824" lon="9.69636546572076"><ele>744.6666666666666</ele><time>2026-04-25T10:27:47.998Z</time></trkpt><trkpt lat="44.73381411758739" lon="9.696316992843636"><ele>746.5</ele><time>2026-04-25T10:27:49.998Z</time></trkpt><trkpt lat="44.73389100703978" lon="9.696337461871446"><ele>748.3333333333333</ele><time>2026-04-25T10:27:52.998Z</time></trkpt><trkpt lat="44.733932408603444" lon="9.696427253499852"><ele>750.1666666666666</ele><time>2026-04-25T10:27:55.998Z</time></trkpt><trkpt lat="44.73393641700296" lon="9.696522388325224"><ele>752.0</ele><time>2026-04-25T10:27:58Z</time></trkpt><trkpt lat="44.73392750316155" lon="9.69663368414733"><ele>752.0</ele><time>2026-04-25T10:28:01Z</time></trkpt><trkpt lat="44.733918442876416" lon="9.696744493882319"><ele>752.0</ele><time>2026-04-25T10:28:04Z</time></trkpt><trkpt lat="44.7339142467864" lon="9.69685694674218"><ele>752.0</ele><time>2026-04-25T10:28:07Z</time></trkpt><trkpt lat="44.73391250952002" lon="9.696949540462947"><ele>752.0</ele><time>2026-04-25T10:28:09Z</time></trkpt><trkpt lat="44.73391287667924" lon="9.697061794508055"><ele>752.0</ele><time>2026-04-25T10:28:12Z</time></trkpt><trkpt lat="44.733914211204066" lon="9.69717542881113"><ele>752.0</ele><time>2026-04-25T10:28:15Z</time></trkpt><trkpt lat="44.73391700336801" lon="9.697286110443194"><ele>751.8333333333333</ele><time>2026-04-25T10:28:18Z</time></trkpt><trkpt lat="44.73392599183325" lon="9.697399134146293"><ele>751.6666666666666</ele><time>2026-04-25T10:28:21Z</time></trkpt><trkpt lat="44.73394650215294" lon="9.697500178010463"><ele>751.5</ele><time>2026-04-25T10:28:23.999Z</time></trkpt><trkpt lat="44.733978725615344" lon="9.697607629770031"><ele>751.3333333333334</ele><time>2026-04-25T10:28:26.999Z</time></trkpt><trkpt lat="44.73402388546262" lon="9.697702958922717"><ele>751.1666666666667</ele><time>2026-04-25T10:28:29.999Z</time></trkpt><trkpt lat="44.734078063050205" lon="9.697789306200528"><ele>751.0</ele><time>2026-04-25T10:28:32.999Z</time></trkpt><trkpt lat="44.734142825472475" lon="9.697865266178006"><ele>751.0</ele><time>2026-04-25T10:28:35.999Z</time></trkpt><trkpt lat="44.73422507107362" lon="9.697942430777896"><ele>751.0</ele><time>2026-04-25T10:28:38.999Z</time></trkpt><trkpt lat="44.734289509600195" lon="9.697987804748161"><ele>751.0</ele><time>2026-04-25T10:28:41.999Z</time></trkpt><trkpt lat="44.734354841253655" lon="9.69803352325185"><ele>751.0</ele><time>2026-04-25T10:28:44.999Z</time></trkpt><trkpt lat="44.734419286167814" lon="9.698065817719295"><ele>751.0</ele><time>2026-04-25T10:28:46.999Z</time></trkpt><trkpt lat="44.73449121257488" lon="9.698072364960305"><ele>751.0</ele><time>2026-04-25T10:28:49.999Z</time></trkpt><trkpt lat="44.7345626740528" lon="9.698039018604659"><ele>753.8333333333334</ele><time>2026-04-25T10:28:52.999Z</time></trkpt><trkpt lat="44.73461960660042" lon="9.697970457885225"><ele>756.6666666666667</ele><time>2026-04-25T10:28:55.999Z</time></trkpt><trkpt lat="44.73465557560973" lon="9.697875412273776"><ele>759.5</ele><time>2026-04-25T10:28:58.999Z</time></trkpt><trkpt lat="44.734675839022565" lon="9.69778917319819"><ele>762.3333333333334</ele><time>2026-04-25T10:29:00.999Z</time></trkpt><trkpt lat="44.73469262953365" lon="9.697674439860014"><ele>765.1666666666666</ele><time>2026-04-25T10:29:03.999Z</time></trkpt><trkpt lat="44.734708818836516" lon="9.697539527044341"><ele>768.0</ele><time>2026-04-25T10:29:06.999Z</time></trkpt><trkpt lat="44.7347324481965" lon="9.69741517307132"><ele>768.3333333333334</ele><time>2026-04-25T10:29:09.999Z</time></trkpt><trkpt lat="44.734771720202986" lon="9.697315712874563"><ele>768.6666666666667</ele><time>2026-04-25T10:29:12.999Z</time></trkpt><trkpt lat="44.734821617447004" lon="9.697240047483696"><ele>769.0</ele><time>2026-04-25T10:29:14.999Z</time></trkpt><trkpt lat="44.73488263274247" lon="9.69715498215471"><ele>769.3333333333334</ele><time>2026-04-25T10:29:17.999Z</time></trkpt><trkpt lat="44.734940163837045" lon="9.697072004150474"><ele>769.6666666666667</ele><time>2026-04-25T10:29:20.998Z</time></trkpt><trkpt lat="44.734998829644965" lon="9.69698486756254"><ele>770.0</ele><time>2026-04-25T10:29:23.998Z</time></trkpt><trkpt lat="44.735049060167434" lon="9.69690144530063"><ele>769.3333333333334</ele><time>2026-04-25T10:29:25.998Z</time></trkpt><trkpt lat="44.73509701186105" lon="9.696810401030966"><ele>768.6666666666667</ele><time>2026-04-25T10:29:28.998Z</time></trkpt><trkpt lat="44.735130943226906" lon="9.69673433239694"><ele>768.0</ele><time>2026-04-25T10:29:30.998Z</time></trkpt><trkpt lat="44.735181109211176" lon="9.696623667423664"><ele>767.3333333333334</ele><time>2026-04-25T10:29:33.998Z</time></trkpt><trkpt lat="44.73524696712105" lon="9.69653346202462"><ele>766.6666666666667</ele><time>2026-04-25T10:29:36.998Z</time></trkpt><trkpt lat="44.73533588378027" lon="9.696510542723942"><ele>766.0</ele><time>2026-04-25T10:29:39.998Z</time></trkpt><trkpt lat="44.735404852263976" lon="9.696578924947572"><ele>768.1666666666667</ele><time>2026-04-25T10:29:42.998Z</time></trkpt><trkpt lat="44.73542404654675" lon="9.696689976748946"><ele>770.3333333333334</ele><time>2026-04-25T10:29:45.998Z</time></trkpt><trkpt lat="44.73541460607651" lon="9.696809156029078"><ele>772.5</ele><time>2026-04-25T10:29:48.998Z</time></trkpt><trkpt lat="44.735384445649785" lon="9.69693281937999"><ele>774.6666666666667</ele><time>2026-04-25T10:29:51.998Z</time></trkpt><trkpt lat="44.735349599485446" lon="9.697052634049308"><ele>776.8333333333334</ele><time>2026-04-25T10:29:54.998Z</time></trkpt><trkpt lat="44.73532490332715" lon="9.69713604636402"><ele>779.0</ele><time>2026-04-25T10:29:56.998Z</time></trkpt><trkpt lat="44.735292413467825" lon="9.697260592548615"><ele>779.5000000000001</ele><time>2026-04-25T10:29:59.998Z</time></trkpt><trkpt lat="44.735269573742904" lon="9.697372594458814"><ele>780.0</ele><time>2026-04-25T10:30:02.998Z</time></trkpt><trkpt lat="44.73525510683548" lon="9.697479719547113"><ele>780.5</ele><time>2026-04-25T10:30:06Z</time></trkpt><trkpt lat="44.73527245785682" lon="9.697610744341796"><ele>781.0</ele><time>2026-04-25T10:30:09Z</time></trkpt><trkpt lat="44.73530605134154" lon="9.697696270322002"><ele>781.5000000000001</ele><time>2026-04-25T10:30:11Z</time></trkpt><trkpt lat="44.73538327430548" lon="9.697758616777366"><ele>782.0</ele><time>2026-04-25T10:30:14Z</time></trkpt><trkpt lat="44.73546855404748" lon="9.697729526249661"><ele>782.3333333333334</ele><time>2026-04-25T10:30:17Z</time></trkpt><trkpt lat="44.73551758900791" lon="9.69766789990387"><ele>782.6666666666667</ele><time>2026-04-25T10:30:19Z</time></trkpt><trkpt lat="44.73557362551457" lon="9.697561612036521"><ele>783.0</ele><time>2026-04-25T10:30:22Z</time></trkpt><trkpt lat="44.73562531625694" lon="9.697447591794976"><ele>783.3333333333333</ele><time>2026-04-25T10:30:25Z</time></trkpt><trkpt lat="44.73568139241703" lon="9.697345232713092"><ele>783.6666666666666</ele><time>2026-04-25T10:30:27.999Z</time></trkpt><trkpt lat="44.73572698073351" lon="9.697258798465532"><ele>784.0</ele><time>2026-04-25T10:30:29.999Z</time></trkpt><trkpt lat="44.73577186156961" lon="9.697189879761773"><ele>783.9999999999999</ele><time>2026-04-25T10:30:31.999Z</time></trkpt><trkpt lat="44.735820043449465" lon="9.69712723152636"><ele>784.0</ele><time>2026-04-25T10:30:33.999Z</time></trkpt><trkpt lat="44.735888648657976" lon="9.697044815021059"><ele>784.0</ele><time>2026-04-25T10:30:36.999Z</time></trkpt><trkpt lat="44.735966580375006" lon="9.696984704894467"><ele>784.0</ele><time>2026-04-25T10:30:39.999Z</time></trkpt><trkpt lat="44.73604767977696" lon="9.696934310973532"><ele>783.9999999999999</ele><time>2026-04-25T10:30:42.999Z</time></trkpt><trkpt lat="44.73612974324182" lon="9.69689270621576"><ele>784.0</ele><time>2026-04-25T10:30:45.999Z</time></trkpt><trkpt lat="44.73620886798935" lon="9.696849429283123"><ele>785.4999999999999</ele><time>2026-04-25T10:30:48.999Z</time></trkpt><trkpt lat="44.736271558011836" lon="9.696816727079073"><ele>787.0</ele><time>2026-04-25T10:30:51.999Z</time></trkpt><trkpt lat="44.73634665086352" lon="9.696770410012304"><ele>788.5</ele><time>2026-04-25T10:30:54.999Z</time></trkpt><trkpt lat="44.73642447896117" lon="9.696723211635877"><ele>790.0</ele><time>2026-04-25T10:30:57.999Z</time></trkpt><trkpt lat="44.73650061997283" lon="9.69667446935058"><ele>791.4999999999999</ele><time>2026-04-25T10:31:00.999Z</time></trkpt><trkpt lat="44.73657577985499" lon="9.696628582824978"><ele>793.0</ele><time>2026-04-25T10:31:03.999Z</time></trkpt><trkpt lat="44.73665347616183" lon="9.696583782968544"><ele>792.9999999999999</ele><time>2026-04-25T10:31:06.999Z</time></trkpt><trkpt lat="44.73673066653108" lon="9.69652687269537"><ele>793.0</ele><time>2026-04-25T10:31:09.999Z</time></trkpt><trkpt lat="44.736810199608776" lon="9.69647194954527"><ele>793.0</ele><time>2026-04-25T10:31:12.999Z</time></trkpt><trkpt lat="44.73688825671655" lon="9.696414411095613"><ele>793.0</ele><time>2026-04-25T10:31:15.999Z</time></trkpt><trkpt lat="44.7369601801711" lon="9.696356157391724"><ele>792.9999999999999</ele><time>2026-04-25T10:31:18.999Z</time></trkpt><trkpt lat="44.73702673574044" lon="9.696282245806355"><ele>793.0</ele><time>2026-04-25T10:31:21.999Z</time></trkpt><trkpt lat="44.73708909422743" lon="9.696193710988107"><ele>793.9999999999999</ele><time>2026-04-25T10:31:24.998Z</time></trkpt><trkpt lat="44.73714716055646" lon="9.69609887104377"><ele>795.0</ele><time>2026-04-25T10:31:27.998Z</time></trkpt><trkpt lat="44.73720214165657" lon="9.696000613149312"><ele>796.0</ele><time>2026-04-25T10:31:30.998Z</time></trkpt><trkpt lat="44.73725777419128" lon="9.695906398937385"><ele>797.0</ele><time>2026-04-25T10:31:33.998Z</time></trkpt><trkpt lat="44.7373115666417" lon="9.695806609378758"><ele>797.9999999999999</ele><time>2026-04-25T10:31:36.998Z</time></trkpt><trkpt lat="44.73736497076179" lon="9.695710323138417"><ele>799.0</ele><time>2026-04-25T10:31:39.998Z</time></trkpt><trkpt lat="44.73742031483136" lon="9.695606940996576"><ele>798.9999999999999</ele><time>2026-04-25T10:31:42.998Z</time></trkpt><trkpt lat="44.73747132784429" lon="9.695517662337602"><ele>799.0</ele><time>2026-04-25T10:31:45.998Z</time></trkpt><trkpt lat="44.73752484977108" lon="9.695413130040627"><ele>799.0</ele><time>2026-04-25T10:31:48.998Z</time></trkpt><trkpt lat="44.73757849368265" lon="9.695309487062495"><ele>799.0</ele><time>2026-04-25T10:31:51.998Z</time></trkpt><trkpt lat="44.73763280419121" lon="9.695205992202053"><ele>798.9999999999999</ele><time>2026-04-25T10:31:54.998Z</time></trkpt><trkpt lat="44.73767343666737" lon="9.695106015021853"><ele>799.0</ele><time>2026-04-25T10:31:57.998Z</time></trkpt><trkpt lat="44.73770904393214" lon="9.695020653385473"><ele>800.9999999999999</ele><time>2026-04-25T10:31:59.998Z</time></trkpt><trkpt lat="44.73775163014004" lon="9.69492185833926"><ele>803.0</ele><time>2026-04-25T10:32:02.998Z</time></trkpt><trkpt lat="44.737791453562416" lon="9.69481493370314"><ele>805.0</ele><time>2026-04-25T10:32:05.998Z</time></trkpt><trkpt lat="44.737835857887305" lon="9.694713455104608"><ele>807.0</ele><time>2026-04-25T10:32:09Z</time></trkpt><trkpt lat="44.737893949296186" lon="9.694648207147463"><ele>808.9999999999999</ele><time>2026-04-25T10:32:11Z</time></trkpt><trkpt lat="44.737966809552304" lon="9.694687516203418"><ele>811.0</ele><time>2026-04-25T10:32:14Z</time></trkpt><trkpt lat="44.73797181058629" lon="9.694791540419454"><ele>810.9999999999999</ele><time>2026-04-25T10:32:17Z</time></trkpt><trkpt lat="44.737952164813564" lon="9.694899670307985"><ele>811.0</ele><time>2026-04-25T10:32:20Z</time></trkpt><trkpt lat="44.73793088842512" lon="9.694998629855382"><ele>811.0</ele><time>2026-04-25T10:32:22Z</time></trkpt><trkpt lat="44.73790164937292" lon="9.695115978842768"><ele>811.0</ele><time>2026-04-25T10:32:25Z</time></trkpt><trkpt lat="44.73787608491502" lon="9.695233153697181"><ele>810.9999999999999</ele><time>2026-04-25T10:32:27Z</time></trkpt><trkpt lat="44.7378535183282" lon="9.69533460778151"><ele>811.0</ele><time>2026-04-25T10:32:29.999Z</time></trkpt><trkpt lat="44.737834699740965" lon="9.695420240283196"><ele>811.1666666666666</ele><time>2026-04-25T10:32:30.999Z</time></trkpt><trkpt lat="44.737819753320956" lon="9.695541953258935"><ele>811.3333333333333</ele><time>2026-04-25T10:32:32.999Z</time></trkpt><trkpt lat="44.737825664226825" lon="9.695642541524832"><ele>811.5</ele><time>2026-04-25T10:32:34.999Z</time></trkpt><trkpt lat="44.737831216206466" lon="9.6957403730992"><ele>811.6666666666667</ele><time>2026-04-25T10:32:36.999Z</time></trkpt><trkpt lat="44.73784202195147" lon="9.695831962164947"><ele>811.8333333333334</ele><time>2026-04-25T10:32:38.999Z</time></trkpt><trkpt lat="44.73785125945653" lon="9.695960495877058"><ele>812.0</ele><time>2026-04-25T10:32:41.999Z</time></trkpt><trkpt lat="44.73786594290649" lon="9.696085253102888"><ele>812.6666666666667</ele><time>2026-04-25T10:32:44.999Z</time></trkpt><trkpt lat="44.73787701489353" lon="9.696209552008009"><ele>813.3333333333334</ele><time>2026-04-25T10:32:47.999Z</time></trkpt><trkpt lat="44.73789231470695" lon="9.696331948650474"><ele>814.0</ele><time>2026-04-25T10:32:50.999Z</time></trkpt><trkpt lat="44.73789560708223" lon="9.696453150561906"><ele>814.6666666666667</ele><time>2026-04-25T10:32:54.999Z</time></trkpt><trkpt lat="44.737906806031916" lon="9.696544192611452"><ele>815.3333333333334</ele><time>2026-04-25T10:32:56.999Z</time></trkpt><trkpt lat="44.737918382479165" lon="9.696660299755393"><ele>816.0</ele><time>2026-04-25T10:32:59.999Z</time></trkpt><trkpt lat="44.73792625036002" lon="9.696782509484832"><ele>816.0</ele><time>2026-04-25T10:33:02.999Z</time></trkpt><trkpt lat="44.737933314881495" lon="9.696902190366492"><ele>816.0</ele><time>2026-04-25T10:33:05.999Z</time></trkpt><trkpt lat="44.737930609160045" lon="9.697018840260126"><ele>816.0</ele><time>2026-04-25T10:33:08.999Z</time></trkpt><trkpt lat="44.737914350141835" lon="9.697139599958883"><ele>816.0</ele><time>2026-04-25T10:33:11.999Z</time></trkpt><trkpt lat="44.73787085869442" lon="9.69726481864509"><ele>816.0</ele><time>2026-04-25T10:33:15.999Z</time></trkpt><trkpt lat="44.737808973507846" lon="9.69737014074104"><ele>815.5</ele><time>2026-04-25T10:33:18.999Z</time></trkpt><trkpt lat="44.737750894982945" lon="9.697477276602429"><ele>815.0</ele><time>2026-04-25T10:33:21.999Z</time></trkpt><trkpt lat="44.73771272278438" lon="9.697552231353187"><ele>814.5</ele><time>2026-04-25T10:33:23.999Z</time></trkpt><trkpt lat="44.737675939976846" lon="9.697648092722957"><ele>814.0</ele><time>2026-04-25T10:33:26.999Z</time></trkpt><trkpt lat="44.73763088589118" lon="9.697749510093228"><ele>813.5</ele><time>2026-04-25T10:33:29.998Z</time></trkpt><trkpt lat="44.7376018372531" lon="9.697861798416184"><ele>813.0</ele><time>2026-04-25T10:33:32.998Z</time></trkpt><trkpt lat="44.737626815413634" lon="9.697960748812546"><ele>814.3333333333334</ele><time>2026-04-25T10:33:35.998Z</time></trkpt><trkpt lat="44.737698223363935" lon="9.698023036122716"><ele>815.6666666666667</ele><time>2026-04-25T10:33:38.998Z</time></trkpt><trkpt lat="44.73776801981249" lon="9.697959415156838"><ele>817.0</ele><time>2026-04-25T10:33:41.998Z</time></trkpt><trkpt lat="44.737820287168205" lon="9.697860829707672"><ele>818.3333333333334</ele><time>2026-04-25T10:33:44.998Z</time></trkpt><trkpt lat="44.737870789838354" lon="9.697749812007729"><ele>819.6666666666667</ele><time>2026-04-25T10:33:47.998Z</time></trkpt><trkpt lat="44.737913111811736" lon="9.697659161390396"><ele>821.0</ele><time>2026-04-25T10:33:49.998Z</time></trkpt><trkpt lat="44.73797298351224" lon="9.697597809824751"><ele>821.5714285714287</ele><time>2026-04-25T10:33:52.998Z</time></trkpt><trkpt lat="44.73803786332827" lon="9.697557874893896"><ele>822.1428571428571</ele><time>2026-04-25T10:33:55.998Z</time></trkpt><trkpt lat="44.73811235097351" lon="9.697537581007056"><ele>822.7142857142858</ele><time>2026-04-25T10:33:58.998Z</time></trkpt><trkpt lat="44.738187021625166" lon="9.697538246325017"><ele>823.2857142857143</ele><time>2026-04-25T10:34:01.998Z</time></trkpt><trkpt lat="44.73826373411036" lon="9.697552850115558"><ele>823.8571428571429</ele><time>2026-04-25T10:34:04.998Z</time></trkpt><trkpt lat="44.73833820339307" lon="9.697565934052216"><ele>824.4285714285714</ele><time>2026-04-25T10:34:07.998Z</time></trkpt><trkpt lat="44.73840240337276" lon="9.697573500606866"><ele>825.0</ele><time>2026-04-25T10:34:09.998Z</time></trkpt><trkpt lat="44.73846653938593" lon="9.697563204878236"><ele>825.0</ele><time>2026-04-25T10:34:12.998Z</time></trkpt><trkpt lat="44.73854148869966" lon="9.69753464066302"><ele>825.0</ele><time>2026-04-25T10:34:16Z</time></trkpt><trkpt lat="44.73859823579298" lon="9.697495474472728"><ele>825.0</ele><time>2026-04-25T10:34:18Z</time></trkpt><trkpt lat="44.73865062880784" lon="9.697443870490966"><ele>825.0</ele><time>2026-04-25T10:34:20Z</time></trkpt><trkpt lat="44.73871166731421" lon="9.69736137326227"><ele>825.0</ele><time>2026-04-25T10:34:23Z</time></trkpt><trkpt lat="44.738772300332975" lon="9.697257537732337"><ele>825.0</ele><time>2026-04-25T10:34:26Z</time></trkpt><trkpt lat="44.738819461740704" lon="9.697170429786526"><ele>826.6666666666666</ele><time>2026-04-25T10:34:29Z</time></trkpt><trkpt lat="44.738870470955824" lon="9.69706802176748"><ele>828.3333333333333</ele><time>2026-04-25T10:34:31.999Z</time></trkpt><trkpt lat="44.7389118097484" lon="9.696979437812486"><ele>830.0</ele><time>2026-04-25T10:34:33.999Z</time></trkpt><trkpt lat="44.73896369105765" lon="9.696881168391874"><ele>831.6666666666666</ele><time>2026-04-25T10:34:36.999Z</time></trkpt><trkpt lat="44.73901266688118" lon="9.696788674799357"><ele>833.3333333333333</ele><time>2026-04-25T10:34:39.999Z</time></trkpt><trkpt lat="44.73906265972712" lon="9.696680797893942"><ele>835.0</ele><time>2026-04-25T10:34:42.999Z</time></trkpt><trkpt lat="44.739106923474516" lon="9.696572810295988"><ele>834.9999999999999</ele><time>2026-04-25T10:34:45.999Z</time></trkpt><trkpt lat="44.73915005980278" lon="9.69648872167322"><ele>835.0</ele><time>2026-04-25T10:34:47.999Z</time></trkpt><trkpt lat="44.73920590657296" lon="9.696397356781114"><ele>835.0</ele><time>2026-04-25T10:34:50.999Z</time></trkpt><trkpt lat="44.73926544180227" lon="9.696312868202279"><ele>835.0</ele><time>2026-04-25T10:34:53.999Z</time></trkpt><trkpt lat="44.73932775983314" lon="9.696225297943892"><ele>834.9999999999999</ele><time>2026-04-25T10:34:56.999Z</time></trkpt><trkpt lat="44.739389647138516" lon="9.696134981408765"><ele>835.0</ele><time>2026-04-25T10:34:59.999Z</time></trkpt><trkpt lat="44.739446903275955" lon="9.696039473116812"><ele>837.3333333333333</ele><time>2026-04-25T10:35:02.999Z</time></trkpt><trkpt lat="44.73950375795012" lon="9.695940520956304"><ele>839.6666666666666</ele><time>2026-04-25T10:35:05.999Z</time></trkpt><trkpt lat="44.73955454354653" lon="9.69583765021057"><ele>842.0</ele><time>2026-04-25T10:35:08.999Z</time></trkpt><trkpt lat="44.73959954430181" lon="9.695737361030409"><ele>844.3333333333333</ele><time>2026-04-25T10:35:11.999Z</time></trkpt><trkpt lat="44.739642335315565" lon="9.695623899978909"><ele>846.6666666666666</ele><time>2026-04-25T10:35:14.999Z</time></trkpt><trkpt lat="44.7396810249048" lon="9.69550430600943"><ele>849.0</ele><time>2026-04-25T10:35:17.999Z</time></trkpt><trkpt lat="44.73972960078137" lon="9.6953698418376"><ele>849.0</ele><time>2026-04-25T10:35:20.999Z</time></trkpt><trkpt lat="44.73977053605812" lon="9.695265369896386"><ele>849.0</ele><time>2026-04-25T10:35:23.999Z</time></trkpt><trkpt lat="44.73981349476722" lon="9.695163859932437"><ele>849.0</ele><time>2026-04-25T10:35:26.999Z</time></trkpt><trkpt lat="44.7398588920826" lon="9.695063146019498"><ele>849.0</ele><time>2026-04-25T10:35:29.999Z</time></trkpt><trkpt lat="44.73992003521741" lon="9.69497653243449"><ele>849.0</ele><time>2026-04-25T10:35:32.998Z</time></trkpt><trkpt lat="44.73999685694827" lon="9.694911953385322"><ele>849.0</ele><time>2026-04-25T10:35:35.998Z</time></trkpt><trkpt lat="44.740075662430364" lon="9.694856712904784"><ele>848.3333333333334</ele><time>2026-04-25T10:35:38.998Z</time></trkpt><trkpt lat="44.74014800288102" lon="9.69479587690225"><ele>847.6666666666667</ele><time>2026-04-25T10:35:41.998Z</time></trkpt><trkpt lat="44.74021859710507" lon="9.694714049417918"><ele>847.0</ele><time>2026-04-25T10:35:44.998Z</time></trkpt><trkpt lat="44.74029388667123" lon="9.69461400410238"><ele>846.3333333333334</ele><time>2026-04-25T10:35:47.998Z</time></trkpt><trkpt lat="44.740330116860676" lon="9.694511230539028"><ele>845.6666666666667</ele><time>2026-04-25T10:35:50.998Z</time></trkpt><trkpt lat="44.7403550035222" lon="9.69441049396093"><ele>845.0</ele><time>2026-04-25T10:35:53.998Z</time></trkpt><trkpt lat="44.74037021955496" lon="9.694298278558737"><ele>847.1666666666667</ele><time>2026-04-25T10:35:56.998Z</time></trkpt><trkpt lat="44.74037844012446" lon="9.694183016279986"><ele>849.3333333333334</ele><time>2026-04-25T10:35:59.998Z</time></trkpt><trkpt lat="44.7403728693597" lon="9.694094214060652"><ele>851.5</ele><time>2026-04-25T10:36:01.998Z</time></trkpt><trkpt lat="44.74035377407636" lon="9.69396558114766"><ele>853.6666666666667</ele><time>2026-04-25T10:36:04.998Z</time></trkpt><trkpt lat="44.740348224356005" lon="9.693843880670192"><ele>855.8333333333334</ele><time>2026-04-25T10:36:07.998Z</time></trkpt><trkpt lat="44.740364914846815" lon="9.693742579896265"><ele>858.0</ele><time>2026-04-25T10:36:09.998Z</time></trkpt><trkpt lat="44.74040236267202" lon="9.693657610509476"><ele>858.0</ele><time>2026-04-25T10:36:12.998Z</time></trkpt><trkpt lat="44.74045608595768" lon="9.693589110530668"><ele>858.0</ele><time>2026-04-25T10:36:15.998Z</time></trkpt><trkpt lat="44.74051192785707" lon="9.69353328942404"><ele>858.0</ele><time>2026-04-25T10:36:18.998Z</time></trkpt><trkpt lat="44.74057007716658" lon="9.693483617470793"><ele>858.0</ele><time>2026-04-25T10:36:21.999Z</time></trkpt><trkpt lat="44.740642963515874" lon="9.693413915244095"><ele>858.0</ele><time>2026-04-25T10:36:25.999Z</time></trkpt><trkpt lat="44.74069561754405" lon="9.693348295559264"><ele>858.0</ele><time>2026-04-25T10:36:29.999Z</time></trkpt><trkpt lat="44.74076434511078" lon="9.693305717649551"><ele>858.0</ele><time>2026-04-25T10:36:33.999Z</time></trkpt><trkpt lat="44.74073617355614" lon="9.693222623456904"><ele>858.0</ele><time>2026-04-25T10:39:11.999Z</time></trkpt><trkpt lat="44.74076107206135" lon="9.693134157763142"><ele>858.0</ele><time>2026-04-25T10:39:14.999Z</time></trkpt><trkpt lat="44.7407675526766" lon="9.693023615202014"><ele>858.0</ele><time>2026-04-25T10:39:17.999Z</time></trkpt><trkpt lat="44.740767606230015" lon="9.692916555534337"><ele>858.0</ele><time>2026-04-25T10:39:20.999Z</time></trkpt><trkpt lat="44.740766979892314" lon="9.692806315694702"><ele>858.0</ele><time>2026-04-25T10:39:23.999Z</time></trkpt><trkpt lat="44.740754474867806" lon="9.69268892455205"><ele>858.0</ele><time>2026-04-25T10:39:26.999Z</time></trkpt><trkpt lat="44.740743305939404" lon="9.692568066127983"><ele>858.0</ele><time>2026-04-25T10:39:29.999Z</time></trkpt><trkpt lat="44.740738806955605" lon="9.692444396526415"><ele>858.0</ele><time>2026-04-25T10:39:32.999Z</time></trkpt><trkpt lat="44.74072724097463" lon="9.692311826163214"><ele>858.0</ele><time>2026-04-25T10:39:36.999Z</time></trkpt><trkpt lat="44.74072216028891" lon="9.692211101003183"><ele>858.0</ele><time>2026-04-25T10:39:39.998Z</time></trkpt><trkpt lat="44.740716365025484" lon="9.692111855682628"><ele>858.0</ele><time>2026-04-25T10:39:41.998Z</time></trkpt><trkpt lat="44.7407095086227" lon="9.692012925801723"><ele>858.0</ele><time>2026-04-25T10:39:44.998Z</time></trkpt><trkpt lat="44.740702262396" lon="9.691910456801462"><ele>859.1666666666666</ele><time>2026-04-25T10:39:47.998Z</time></trkpt><trkpt lat="44.74069033410854" lon="9.691807812941212"><ele>860.3333333333333</ele><time>2026-04-25T10:39:50.998Z</time></trkpt><trkpt lat="44.74068448164418" lon="9.69169641561967"><ele>861.5</ele><time>2026-04-25T10:39:53.998Z</time></trkpt><trkpt lat="44.74067381196935" lon="9.69158718127244"><ele>862.6666666666666</ele><time>2026-04-25T10:39:56.998Z</time></trkpt><trkpt lat="44.74065161037906" lon="9.691480536218236"><ele>863.8333333333333</ele><time>2026-04-25T10:39:59.998Z</time></trkpt><trkpt lat="44.740618133798876" lon="9.691355762956995"><ele>865.0</ele><time>2026-04-25T10:40:02.998Z</time></trkpt><trkpt lat="44.74058143376978" lon="9.69124853742058"><ele>865.0</ele><time>2026-04-25T10:40:05.998Z</time></trkpt><trkpt lat="44.74055001721988" lon="9.691166460174605"><ele>865.0</ele><time>2026-04-25T10:40:08.998Z</time></trkpt><trkpt lat="44.740521443798805" lon="9.691067877801943"><ele>865.0</ele><time>2026-04-25T10:40:10.998Z</time></trkpt><trkpt lat="44.7405157009489" lon="9.690956645110075"><ele>865.0</ele><time>2026-04-25T10:40:13.998Z</time></trkpt><trkpt lat="44.74054148283843" lon="9.690858884689032"><ele>865.0</ele><time>2026-04-25T10:40:16.998Z</time></trkpt><trkpt lat="44.740587690094046" lon="9.690780430376282"><ele>865.0</ele><time>2026-04-25T10:40:18.998Z</time></trkpt><trkpt lat="44.740648181446154" lon="9.690718147738522"><ele>865.0</ele><time>2026-04-25T10:40:21.998Z</time></trkpt><trkpt lat="44.74071086795183" lon="9.690642166519394"><ele>865.4285714285714</ele><time>2026-04-25T10:40:24.998Z</time></trkpt><trkpt lat="44.74077107697901" lon="9.690567129587327"><ele>865.8571428571429</ele><time>2026-04-25T10:40:27.998Z</time></trkpt><trkpt lat="44.74081742027925" lon="9.690491866763013"><ele>866.2857142857142</ele><time>2026-04-25T10:40:29.999Z</time></trkpt><trkpt lat="44.74085431629104" lon="9.690401245498029"><ele>866.7142857142858</ele><time>2026-04-25T10:40:32.999Z</time></trkpt><trkpt lat="44.740880419912465" lon="9.690286367599974"><ele>867.1428571428571</ele><time>2026-04-25T10:40:35.999Z</time></trkpt><trkpt lat="44.740891992690734" lon="9.690193914606336"><ele>867.5714285714286</ele><time>2026-04-25T10:40:37.999Z</time></trkpt><trkpt lat="44.740890696133654" lon="9.690094587383422"><ele>868.0</ele><time>2026-04-25T10:40:40.999Z</time></trkpt><trkpt lat="44.740885832618545" lon="9.689973828052695"><ele>867.9999999999999</ele><time>2026-04-25T10:40:43.999Z</time></trkpt><trkpt lat="44.74088464486199" lon="9.689847824329586"><ele>868.0</ele><time>2026-04-25T10:40:46.999Z</time></trkpt><trkpt lat="44.740887594556725" lon="9.689743563984521"><ele>868.0</ele><time>2026-04-25T10:40:48.999Z</time></trkpt><trkpt lat="44.74091040912244" lon="9.689628522057435"><ele>868.0</ele><time>2026-04-25T10:40:51.999Z</time></trkpt><trkpt lat="44.740956018620544" lon="9.689532912189993"><ele>867.9999999999999</ele><time>2026-04-25T10:40:54.999Z</time></trkpt><trkpt lat="44.74101282818807" lon="9.6894609550402"><ele>868.0</ele><time>2026-04-25T10:40:56.999Z</time></trkpt><trkpt lat="44.74108685546187" lon="9.689399983366295"><ele>870.1666666666666</ele><time>2026-04-25T10:40:59.999Z</time></trkpt><trkpt lat="44.741164918587664" lon="9.689342637617434"><ele>872.3333333333333</ele><time>2026-04-25T10:41:02.999Z</time></trkpt><trkpt lat="44.74126250222422" lon="9.689239812724521"><ele>874.5</ele><time>2026-04-25T10:41:04.999Z</time></trkpt><trkpt lat="44.74131550856936" lon="9.689173577901474"><ele>876.6666666666667</ele><time>2026-04-25T10:41:06.999Z</time></trkpt><trkpt lat="44.74136058220556" lon="9.689104619799826"><ele>878.8333333333334</ele><time>2026-04-25T10:41:08.999Z</time></trkpt><trkpt lat="44.74140474855642" lon="9.689019288032895"><ele>881.0</ele><time>2026-04-25T10:41:10.999Z</time></trkpt><trkpt lat="44.741429292920984" lon="9.688919785277895"><ele>881.0000000000001</ele><time>2026-04-25T10:41:12.999Z</time></trkpt><trkpt lat="44.74144673615719" lon="9.688803049043232"><ele>881.0</ele><time>2026-04-25T10:41:15.999Z</time></trkpt><trkpt lat="44.741447441417336" lon="9.68868059485741"><ele>881.0</ele><time>2026-04-25T10:41:18.999Z</time></trkpt><trkpt lat="44.74143272672978" lon="9.688575487923183"><ele>881.0</ele><time>2026-04-25T10:41:21.999Z</time></trkpt><trkpt lat="44.741423988048844" lon="9.688477173619576"><ele>881.0000000000001</ele><time>2026-04-25T10:41:24.999Z</time></trkpt><trkpt lat="44.74141037073584" lon="9.688374482770717"><ele>881.0</ele><time>2026-04-25T10:41:27.999Z</time></trkpt><trkpt lat="44.741398037633886" lon="9.688270014721894"><ele>881.8333333333334</ele><time>2026-04-25T10:41:30.999Z</time></trkpt><trkpt lat="44.74138976573256" lon="9.688153025957355"><ele>882.6666666666667</ele><time>2026-04-25T10:41:33.999Z</time></trkpt><trkpt lat="44.7413982936576" lon="9.688026386967836"><ele>883.5</ele><time>2026-04-25T10:41:36.999Z</time></trkpt><trkpt lat="44.74141848181865" lon="9.687908812771505"><ele>884.3333333333333</ele><time>2026-04-25T10:41:39.999Z</time></trkpt><trkpt lat="44.741439624837696" lon="9.687781417327537"><ele>885.1666666666666</ele><time>2026-04-25T10:41:42.999Z</time></trkpt><trkpt lat="44.741452293617044" lon="9.687647125348187"><ele>886.0</ele><time>2026-04-25T10:41:45.998Z</time></trkpt><trkpt lat="44.74146066886806" lon="9.687534979490977"><ele>886.4999999999999</ele><time>2026-04-25T10:41:48.998Z</time></trkpt><trkpt lat="44.741454371538275" lon="9.687417607121596"><ele>887.0</ele><time>2026-04-25T10:41:51.998Z</time></trkpt><trkpt lat="44.74144278427799" lon="9.687308441990679"><ele>887.5</ele><time>2026-04-25T10:41:54.998Z</time></trkpt><trkpt lat="44.74143547554162" lon="9.687195836054618"><ele>888.0</ele><time>2026-04-25T10:41:57.998Z</time></trkpt><trkpt lat="44.74145278778955" lon="9.687076034971323"><ele>888.4999999999999</ele><time>2026-04-25T10:42:00.998Z</time></trkpt><trkpt lat="44.741510753138535" lon="9.686982645363729"><ele>889.0</ele><time>2026-04-25T10:42:03.998Z</time></trkpt><trkpt lat="44.741583150851596" lon="9.686920130787852"><ele>888.9999999999999</ele><time>2026-04-25T10:42:06.998Z</time></trkpt><trkpt lat="44.74165652750949" lon="9.686860238307293"><ele>889.0</ele><time>2026-04-25T10:42:09.998Z</time></trkpt><trkpt lat="44.7417244904298" lon="9.686782248316604"><ele>889.0</ele><time>2026-04-25T10:42:12.998Z</time></trkpt><trkpt lat="44.74178477315847" lon="9.68669427213482"><ele>889.0</ele><time>2026-04-25T10:42:15.998Z</time></trkpt><trkpt lat="44.74183829435197" lon="9.686599426612288"><ele>888.9999999999999</ele><time>2026-04-25T10:42:18.998Z</time></trkpt><trkpt lat="44.74188350985333" lon="9.686496450516398"><ele>889.0</ele><time>2026-04-25T10:42:21.998Z</time></trkpt><trkpt lat="44.74192308824954" lon="9.686388153100868"><ele>891.8333333333333</ele><time>2026-04-25T10:42:24.998Z</time></trkpt><trkpt lat="44.741959671495785" lon="9.686277639380082"><ele>894.6666666666666</ele><time>2026-04-25T10:42:27.998Z</time></trkpt><trkpt lat="44.74199173356474" lon="9.68616304970915"><ele>897.5</ele><time>2026-04-25T10:42:30.998Z</time></trkpt><trkpt lat="44.74202471362414" lon="9.686048512092544"><ele>900.3333333333333</ele><time>2026-04-25T10:42:33.998Z</time></trkpt><trkpt lat="44.7420523928819" lon="9.68593080131121"><ele>903.1666666666666</ele><time>2026-04-25T10:42:36.999Z</time></trkpt><trkpt lat="44.74206941732842" lon="9.685813932944237"><ele>906.0</ele><time>2026-04-25T10:42:39.999Z</time></trkpt><trkpt lat="44.74207028494432" lon="9.685718675615098"><ele>906.0</ele><time>2026-04-25T10:42:41.999Z</time></trkpt><trkpt lat="44.742061962054805" lon="9.68559676536784"><ele>906.0</ele><time>2026-04-25T10:42:44.999Z</time></trkpt><trkpt lat="44.74204518549489" lon="9.685481802521686"><ele>906.0</ele><time>2026-04-25T10:42:47.999Z</time></trkpt><trkpt lat="44.742024383530875" lon="9.6853587184043"><ele>906.0</ele><time>2026-04-25T10:42:50.999Z</time></trkpt><trkpt lat="44.74200359443136" lon="9.685254609217118"><ele>906.0</ele><time>2026-04-25T10:42:53.999Z</time></trkpt><trkpt lat="44.74198181310456" lon="9.685157916508253"><ele>906.0</ele><time>2026-04-25T10:42:55.999Z</time></trkpt><trkpt lat="44.741955288188315" lon="9.685048711665255"><ele>907.1666666666666</ele><time>2026-04-25T10:42:58.999Z</time></trkpt><trkpt lat="44.74193649117249" lon="9.684937846602379"><ele>908.3333333333333</ele><time>2026-04-25T10:43:01.999Z</time></trkpt><trkpt lat="44.741921066800444" lon="9.684827273495362"><ele>909.5</ele><time>2026-04-25T10:43:04.999Z</time></trkpt><trkpt lat="44.74190865483777" lon="9.684734272300739"><ele>910.6666666666666</ele><time>2026-04-25T10:43:06.999Z</time></trkpt><trkpt lat="44.74190500948538" lon="9.684628249456672"><ele>911.8333333333333</ele><time>2026-04-25T10:43:09.999Z</time></trkpt><trkpt lat="44.74189672720809" lon="9.684493781557581"><ele>913.0</ele><time>2026-04-25T10:43:12.999Z</time></trkpt><trkpt lat="44.74189041710578" lon="9.684381992318983"><ele>911.8333333333333</ele><time>2026-04-25T10:43:15.999Z</time></trkpt><trkpt lat="44.74188123807865" lon="9.684281769646175"><ele>910.6666666666666</ele><time>2026-04-25T10:43:17.999Z</time></trkpt><trkpt lat="44.74186587066649" lon="9.68416924958672"><ele>909.5</ele><time>2026-04-25T10:43:20.999Z</time></trkpt><trkpt lat="44.7418496717881" lon="9.684059268268035"><ele>908.3333333333333</ele><time>2026-04-25T10:43:23.999Z</time></trkpt><trkpt lat="44.7418340295945" lon="9.683959378019148"><ele>907.1666666666666</ele><time>2026-04-25T10:43:25.999Z</time></trkpt><trkpt lat="44.74180665111934" lon="9.683853889429061"><ele>906.0</ele><time>2026-04-25T10:43:28.999Z</time></trkpt><trkpt lat="44.74177141782858" lon="9.683753863003982"><ele>906.0</ele><time>2026-04-25T10:43:31.999Z</time></trkpt><trkpt lat="44.74173147613062" lon="9.68365048796471"><ele>906.0</ele><time>2026-04-25T10:43:34.999Z</time></trkpt><trkpt lat="44.74169751605886" lon="9.683558741882747"><ele>906.0</ele><time>2026-04-25T10:43:36.999Z</time></trkpt><trkpt lat="44.74166491713729" lon="9.683457334381348"><ele>906.0</ele><time>2026-04-25T10:43:39.999Z</time></trkpt><trkpt lat="44.74163404331298" lon="9.683348105094826"><ele>906.0</ele><time>2026-04-25T10:43:42.999Z</time></trkpt><trkpt lat="44.74161219424029" lon="9.683228150117694"><ele>906.0</ele><time>2026-04-25T10:43:45.999Z</time></trkpt><trkpt lat="44.741592841751626" lon="9.683108788663931"><ele>906.8333333333334</ele><time>2026-04-25T10:43:48.999Z</time></trkpt><trkpt lat="44.74157550701067" lon="9.682996290326285"><ele>907.6666666666667</ele><time>2026-04-25T10:43:51.998Z</time></trkpt><trkpt lat="44.74156286931102" lon="9.682882897146312"><ele>908.5</ele><time>2026-04-25T10:43:54.998Z</time></trkpt><trkpt lat="44.74154590740267" lon="9.682771635925082"><ele>909.3333333333334</ele><time>2026-04-25T10:43:57.998Z</time></trkpt><trkpt lat="44.741529655100194" lon="9.68267818448196"><ele>910.1666666666667</ele><time>2026-04-25T10:43:59.998Z</time></trkpt><trkpt lat="44.74150464931449" lon="9.682567882590899"><ele>911.0</ele><time>2026-04-25T10:44:02.998Z</time></trkpt><trkpt lat="44.741490253154524" lon="9.682462535041319"><ele>911.0000000000001</ele><time>2026-04-25T10:44:04.998Z</time></trkpt><trkpt lat="44.74146503636651" lon="9.682377134195464"><ele>911.0</ele><time>2026-04-25T10:44:06.998Z</time></trkpt><trkpt lat="44.74142741045239" lon="9.682300834382039"><ele>911.0</ele><time>2026-04-25T10:44:08.998Z</time></trkpt><trkpt lat="44.741386794942315" lon="9.682225316449028"><ele>911.0</ele><time>2026-04-25T10:44:10.998Z</time></trkpt><trkpt lat="44.741343531905194" lon="9.682145539335115"><ele>911.0000000000001</ele><time>2026-04-25T10:44:12.998Z</time></trkpt><trkpt lat="44.74127587728251" lon="9.682012229986304"><ele>911.0</ele><time>2026-04-25T10:44:14.998Z</time></trkpt><trkpt lat="44.7412206465134" lon="9.68193449888812"><ele>910.6666666666667</ele><time>2026-04-25T10:44:16.998Z</time></trkpt><trkpt lat="44.741161364601574" lon="9.681862261280543"><ele>910.3333333333334</ele><time>2026-04-25T10:44:18.998Z</time></trkpt><trkpt lat="44.74109686771197" lon="9.681792774730859"><ele>910.0</ele><time>2026-04-25T10:44:20.998Z</time></trkpt><trkpt lat="44.74103895536093" lon="9.681699351337874"><ele>909.6666666666667</ele><time>2026-04-25T10:44:22.998Z</time></trkpt><trkpt lat="44.74099037416406" lon="9.681602311603587"><ele>909.3333333333334</ele><time>2026-04-25T10:44:24.998Z</time></trkpt><trkpt lat="44.74095306161759" lon="9.681495834477916"><ele>909.0</ele><time>2026-04-25T10:44:26.998Z</time></trkpt><trkpt lat="44.7409223645665" lon="9.681384224914513"><ele>909.0</ele><time>2026-04-25T10:44:28.998Z</time></trkpt><trkpt lat="44.74089355410897" lon="9.68126626886164"><ele>909.0</ele><time>2026-04-25T10:44:30.998Z</time></trkpt><trkpt lat="44.74086650316207" lon="9.681146263993941"><ele>909.0</ele><time>2026-04-25T10:44:32.998Z</time></trkpt><trkpt lat="44.74085066477479" lon="9.681028245772424"><ele>909.0</ele><time>2026-04-25T10:44:34.998Z</time></trkpt><trkpt lat="44.740824055943484" lon="9.680898630548116"><ele>909.0</ele><time>2026-04-25T10:44:36.998Z</time></trkpt><trkpt lat="44.74081464961166" lon="9.6807787792936"><ele>909.0</ele><time>2026-04-25T10:44:38.998Z</time></trkpt><trkpt lat="44.740802459743044" lon="9.680662031169096"><ele>909.6666666666666</ele><time>2026-04-25T10:44:40.999Z</time></trkpt><trkpt lat="44.740789716108594" lon="9.68054573500678"><ele>910.3333333333333</ele><time>2026-04-25T10:44:42.999Z</time></trkpt><trkpt lat="44.74077758916634" lon="9.680431368156745"><ele>911.0</ele><time>2026-04-25T10:44:44.999Z</time></trkpt><trkpt lat="44.74076588557734" lon="9.680317355635784"><ele>911.6666666666666</ele><time>2026-04-25T10:44:46.999Z</time></trkpt><trkpt lat="44.740757284172915" lon="9.68019094078229"><ele>912.3333333333333</ele><time>2026-04-25T10:44:48.999Z</time></trkpt><trkpt lat="44.74074256148805" lon="9.680063252337971"><ele>913.0</ele><time>2026-04-25T10:44:50.999Z</time></trkpt><trkpt lat="44.740722712902254" lon="9.67993816796796"><ele>912.5999999999999</ele><time>2026-04-25T10:44:52.999Z</time></trkpt><trkpt lat="44.740690002229854" lon="9.679813471779468"><ele>912.1999999999999</ele><time>2026-04-25T10:44:54.999Z</time></trkpt><trkpt lat="44.74063725436622" lon="9.679701180689317"><ele>911.8</ele><time>2026-04-25T10:44:56.999Z</time></trkpt><trkpt lat="44.740550250425024" lon="9.679619657404084"><ele>911.4</ele><time>2026-04-25T10:44:58.999Z</time></trkpt><trkpt lat="44.74046861635205" lon="9.679522608737388"><ele>911.0</ele><time>2026-04-25T10:45:00.999Z</time></trkpt><trkpt lat="44.740382597220446" lon="9.679432306057773"><ele>911.0</ele><time>2026-04-25T10:45:02.999Z</time></trkpt><trkpt lat="44.74030242776782" lon="9.679344129988381"><ele>910.9999999999999</ele><time>2026-04-25T10:45:04.999Z</time></trkpt><trkpt lat="44.740226628807115" lon="9.679245497820649"><ele>910.9999999999999</ele><time>2026-04-25T10:45:06.999Z</time></trkpt><trkpt lat="44.74015091835527" lon="9.679147778752423"><ele>911.0</ele><time>2026-04-25T10:45:08.999Z</time></trkpt><trkpt lat="44.74008323575777" lon="9.679047083580544"><ele>911.0</ele><time>2026-04-25T10:45:10.999Z</time></trkpt><trkpt lat="44.740002273082496" lon="9.678953733809802"><ele>912.1999999999999</ele><time>2026-04-25T10:45:12.999Z</time></trkpt><trkpt lat="44.73991339602109" lon="9.678878957096378"><ele>913.3999999999999</ele><time>2026-04-25T10:45:14.999Z</time></trkpt><trkpt lat="44.73982386348676" lon="9.67880240517609"><ele>914.6</ele><time>2026-04-25T10:45:16.999Z</time></trkpt><trkpt lat="44.73972066268878" lon="9.678776977479307"><ele>915.8</ele><time>2026-04-25T10:45:18.999Z</time></trkpt><trkpt lat="44.739619241669466" lon="9.678735357233707"><ele>917.0</ele><time>2026-04-25T10:45:21Z</time></trkpt><trkpt lat="44.73951495251571" lon="9.678684535681205"><ele>917.0</ele><time>2026-04-25T10:45:23Z</time></trkpt><trkpt lat="44.73942185861093" lon="9.678601046262923"><ele>917.0</ele><time>2026-04-25T10:45:25Z</time></trkpt><trkpt lat="44.7393412724762" lon="9.678489464827523"><ele>917.0</ele><time>2026-04-25T10:45:27Z</time></trkpt><trkpt lat="44.73926954743425" lon="9.678357917650015"><ele>917.0</ele><time>2026-04-25T10:45:29Z</time></trkpt><trkpt lat="44.73920403028023" lon="9.678211338680827"><ele>917.2857142857142</ele><time>2026-04-25T10:45:31Z</time></trkpt><trkpt lat="44.73917220243098" lon="9.678132221323425"><ele>917.5714285714286</ele><time>2026-04-25T10:45:32Z</time></trkpt><trkpt lat="44.739139807035045" lon="9.67805521113811"><ele>917.8571428571429</ele><time>2026-04-25T10:45:33Z</time></trkpt><trkpt lat="44.739106735905054" lon="9.677977369137986"><ele>918.1428571428571</ele><time>2026-04-25T10:45:34Z</time></trkpt><trkpt lat="44.739075550172636" lon="9.677898473368643"><ele>918.4285714285713</ele><time>2026-04-25T10:45:35Z</time></trkpt><trkpt lat="44.7390426931092" lon="9.677817795525023"><ele>918.7142857142857</ele><time>2026-04-25T10:45:36Z</time></trkpt><trkpt lat="44.73901108055835" lon="9.677733666450148"><ele>919.0</ele><time>2026-04-25T10:45:37Z</time></trkpt><trkpt lat="44.73897856121661" lon="9.677648423170758"><ele>919.0</ele><time>2026-04-25T10:45:38Z</time></trkpt><trkpt lat="44.73894310621617" lon="9.67756269768565"><ele>918.9999999999999</ele><time>2026-04-25T10:45:39Z</time></trkpt><trkpt lat="44.73890978225449" lon="9.677475424322349"><ele>919.0</ele><time>2026-04-25T10:45:40Z</time></trkpt><trkpt lat="44.73887405577594" lon="9.677388017159194"><ele>919.0</ele><time>2026-04-25T10:45:41Z</time></trkpt><trkpt lat="44.73883099485895" lon="9.677307786060574"><ele>918.9999999999999</ele><time>2026-04-25T10:45:42Z</time></trkpt><trkpt lat="44.738779356433206" lon="9.67723825003"><ele>919.0</ele><time>2026-04-25T10:45:43Z</time></trkpt><trkpt lat="44.738717257756676" lon="9.677182617403933"><ele>919.0</ele><time>2026-04-25T10:45:44Z</time></trkpt><trkpt lat="44.73865612557383" lon="9.677127708097307"><ele>919.0</ele><time>2026-04-25T10:45:45Z</time></trkpt><trkpt lat="44.73859067137855" lon="9.677085377864534"><ele>918.9999999999999</ele><time>2026-04-25T10:45:46Z</time></trkpt><trkpt lat="44.73852582512593" lon="9.677046311634992"><ele>919.0</ele><time>2026-04-25T10:45:47Z</time></trkpt><trkpt lat="44.7384640844537" lon="9.677003774213585"><ele>919.0</ele><time>2026-04-25T10:45:48Z</time></trkpt><trkpt lat="44.73840346607639" lon="9.676960662232503"><ele>918.9999999999999</ele><time>2026-04-25T10:45:49Z</time></trkpt><trkpt lat="44.73834484678915" lon="9.67692070089076"><ele>919.0</ele><time>2026-04-25T10:45:50Z</time></trkpt><trkpt lat="44.7382880028528" lon="9.676879458712897"><ele>919.0</ele><time>2026-04-25T10:45:51Z</time></trkpt><trkpt lat="44.73818206515398" lon="9.676792524244052"><ele>918.6</ele><time>2026-04-25T10:45:53Z</time></trkpt><trkpt lat="44.73808947351459" lon="9.67667886989002"><ele>918.2</ele><time>2026-04-25T10:45:54.999Z</time></trkpt><trkpt lat="44.73804255960283" lon="9.676609552725756"><ele>917.8000000000001</ele><time>2026-04-25T10:45:55.999Z</time></trkpt><trkpt lat="44.737969263784386" lon="9.676486133318718"><ele>917.4000000000001</ele><time>2026-04-25T10:45:57.999Z</time></trkpt><trkpt lat="44.73792565647175" lon="9.676328106578994"><ele>917.0</ele><time>2026-04-25T10:45:59.999Z</time></trkpt><trkpt lat="44.73788602315878" lon="9.67616869312697"><ele>916.75</ele><time>2026-04-25T10:46:01.999Z</time></trkpt><trkpt lat="44.73786578955906" lon="9.676001410786245"><ele>916.5</ele><time>2026-04-25T10:46:03.999Z</time></trkpt><trkpt lat="44.737815466316924" lon="9.675847931145332"><ele>916.25</ele><time>2026-04-25T10:46:05.999Z</time></trkpt><trkpt lat="44.73773714256743" lon="9.675720332613283"><ele>916.0</ele><time>2026-04-25T10:46:07.999Z</time></trkpt><trkpt lat="44.737637876450066" lon="9.675626835999072"><ele>917.8</ele><time>2026-04-25T10:46:09.999Z</time></trkpt><trkpt lat="44.737543693277786" lon="9.675533796633637"><ele>919.5999999999999</ele><time>2026-04-25T10:46:11.999Z</time></trkpt><trkpt lat="44.73745271499845" lon="9.675438524952451"><ele>921.4</ele><time>2026-04-25T10:46:13.999Z</time></trkpt><trkpt lat="44.73737869247929" lon="9.675332775169423"><ele>923.2</ele><time>2026-04-25T10:46:15.999Z</time></trkpt><trkpt lat="44.7373278380355" lon="9.675193024070834"><ele>925.0</ele><time>2026-04-25T10:46:17.999Z</time></trkpt><trkpt lat="44.73729688830194" lon="9.675041750081094"><ele>925.4</ele><time>2026-04-25T10:46:19.999Z</time></trkpt><trkpt lat="44.73728455873137" lon="9.674887568400216"><ele>925.8</ele><time>2026-04-25T10:46:21.999Z</time></trkpt><trkpt lat="44.73730650581856" lon="9.674747355038207"><ele>926.2</ele><time>2026-04-25T10:46:23.999Z</time></trkpt><trkpt lat="44.737352878284725" lon="9.674620416980574"><ele>926.6</ele><time>2026-04-25T10:46:25.999Z</time></trkpt><trkpt lat="44.73741267302482" lon="9.674507844312027"><ele>927.0</ele><time>2026-04-25T10:46:27.999Z</time></trkpt><trkpt lat="44.73748588545706" lon="9.674390591329287"><ele>927.2</ele><time>2026-04-25T10:46:29.999Z</time></trkpt><trkpt lat="44.73755825220162" lon="9.674283841508018"><ele>927.4000000000001</ele><time>2026-04-25T10:46:31.999Z</time></trkpt><trkpt lat="44.737626230884494" lon="9.674162829419899"><ele>927.5999999999999</ele><time>2026-04-25T10:46:33.999Z</time></trkpt><trkpt lat="44.73770009866249" lon="9.674038646288196"><ele>927.8</ele><time>2026-04-25T10:46:35.999Z</time></trkpt><trkpt lat="44.73773932743114" lon="9.673883585521288"><ele>928.0</ele><time>2026-04-25T10:46:37.999Z</time></trkpt><trkpt lat="44.73771945051406" lon="9.673711365076903"><ele>928.0</ele><time>2026-04-25T10:46:39.999Z</time></trkpt><trkpt lat="44.73770181707323" lon="9.673625149527654"><ele>928.0</ele><time>2026-04-25T10:46:40.999Z</time></trkpt><trkpt lat="44.73767387133841" lon="9.673459189007968"><ele>928.0</ele><time>2026-04-25T10:46:42.999Z</time></trkpt><trkpt lat="44.737642558519134" lon="9.673296890751852"><ele>928.0</ele><time>2026-04-25T10:46:44.999Z</time></trkpt><trkpt lat="44.7376297477747" lon="9.673138189696028"><ele>928.0</ele><time>2026-04-25T10:46:47Z</time></trkpt><trkpt lat="44.73763386920181" lon="9.67297703562535"><ele>928.4</ele><time>2026-04-25T10:46:49Z</time></trkpt><trkpt lat="44.73765220120089" lon="9.672814826992575"><ele>928.8</ele><time>2026-04-25T10:46:51Z</time></trkpt><trkpt lat="44.73766947053582" lon="9.672653400363421"><ele>929.2</ele><time>2026-04-25T10:46:53Z</time></trkpt><trkpt lat="44.737687403719264" lon="9.67248476487798"><ele>929.6</ele><time>2026-04-25T10:46:55Z</time></trkpt><trkpt lat="44.73769521218132" lon="9.672396034239028"><ele>930.0</ele><time>2026-04-25T10:46:56Z</time></trkpt><trkpt lat="44.73772069821436" lon="9.672242461483531"><ele>929.2</ele><time>2026-04-25T10:46:58Z</time></trkpt><trkpt lat="44.73778357814766" lon="9.67211513714785"><ele>928.4</ele><time>2026-04-25T10:47:00Z</time></trkpt><trkpt lat="44.73788873499051" lon="9.672051308641938"><ele>927.5999999999999</ele><time>2026-04-25T10:47:02Z</time></trkpt><trkpt lat="44.73798256105137" lon="9.671992350874227"><ele>926.8</ele><time>2026-04-25T10:47:04Z</time></trkpt><trkpt lat="44.73807942801482" lon="9.67192750364027"><ele>926.0</ele><time>2026-04-25T10:47:06Z</time></trkpt><trkpt lat="44.738143591765834" lon="9.671786028005814"><ele>926.0</ele><time>2026-04-25T10:47:08Z</time></trkpt><trkpt lat="44.738150085820074" lon="9.671613321985284"><ele>926.0</ele><time>2026-04-25T10:47:10Z</time></trkpt><trkpt lat="44.73813940543709" lon="9.671445387952248"><ele>926.0</ele><time>2026-04-25T10:47:12Z</time></trkpt><trkpt lat="44.73814073547318" lon="9.671282054279246"><ele>926.0</ele><time>2026-04-25T10:47:14Z</time></trkpt><trkpt lat="44.73812778676653" lon="9.67111132655754"><ele>926.5000000000001</ele><time>2026-04-25T10:47:16Z</time></trkpt><trkpt lat="44.738117850816806" lon="9.671021724851641"><ele>927.0</ele><time>2026-04-25T10:47:17Z</time></trkpt><trkpt lat="44.73809755580468" lon="9.670843616384442"><ele>927.5</ele><time>2026-04-25T10:47:19Z</time></trkpt><trkpt lat="44.738089190602935" lon="9.670749593924509"><ele>928.0</ele><time>2026-04-25T10:47:20Z</time></trkpt><trkpt lat="44.738083966208315" lon="9.670653827471948"><ele>928.5000000000001</ele><time>2026-04-25T10:47:21Z</time></trkpt><trkpt lat="44.73808598098143" lon="9.67056212185521"><ele>929.0</ele><time>2026-04-25T10:47:22Z</time></trkpt><trkpt lat="44.73809847764303" lon="9.670473203637203"><ele>929.0</ele><time>2026-04-25T10:47:23Z</time></trkpt><trkpt lat="44.738124246654785" lon="9.670391650409833"><ele>929.0000000000001</ele><time>2026-04-25T10:47:24Z</time></trkpt><trkpt lat="44.73820217936384" lon="9.67028148178936"><ele>929.0000000000001</ele><time>2026-04-25T10:47:26Z</time></trkpt><trkpt lat="44.738308315445806" lon="9.6702058113426"><ele>929.0</ele><time>2026-04-25T10:47:28Z</time></trkpt><trkpt lat="44.73839968305308" lon="9.670110551580397"><ele>929.0</ele><time>2026-04-25T10:47:30Z</time></trkpt><trkpt lat="44.73847747812214" lon="9.669987638225537"><ele>929.4285714285714</ele><time>2026-04-25T10:47:32Z</time></trkpt><trkpt lat="44.73851188311863" lon="9.66990179785224"><ele>929.8571428571429</ele><time>2026-04-25T10:47:33Z</time></trkpt><trkpt lat="44.7385511816417" lon="9.669742032992582"><ele>930.2857142857143</ele><time>2026-04-25T10:47:35Z</time></trkpt><trkpt lat="44.73856340213258" lon="9.669650901653332"><ele>930.7142857142858</ele><time>2026-04-25T10:47:36Z</time></trkpt><trkpt lat="44.73857588520686" lon="9.669561218882944"><ele>931.1428571428571</ele><time>2026-04-25T10:47:37Z</time></trkpt><trkpt lat="44.73859549111459" lon="9.669473727775074"><ele>931.5714285714287</ele><time>2026-04-25T10:47:38Z</time></trkpt><trkpt lat="44.73861165876559" lon="9.669387516054261"><ele>932.0</ele><time>2026-04-25T10:47:39Z</time></trkpt><trkpt lat="44.73864012622479" lon="9.669222686289679"><ele>929.6</ele><time>2026-04-25T10:47:41Z</time></trkpt><trkpt lat="44.73868973949288" lon="9.669068576334459"><ele>927.2</ele><time>2026-04-25T10:47:43Z</time></trkpt><trkpt lat="44.73876102149666" lon="9.66893781247669"><ele>924.8</ele><time>2026-04-25T10:47:45Z</time></trkpt><trkpt lat="44.73886401108378" lon="9.66883811025349"><ele>922.4</ele><time>2026-04-25T10:47:47Z</time></trkpt><trkpt lat="44.73892112213278" lon="9.66878790170929"><ele>920.0</ele><time>2026-04-25T10:47:48Z</time></trkpt><trkpt lat="44.73897875642171" lon="9.66873533519463"><ele>920.0000000000001</ele><time>2026-04-25T10:47:49Z</time></trkpt><trkpt lat="44.73902954424276" lon="9.668669434655223"><ele>920.0</ele><time>2026-04-25T10:47:50Z</time></trkpt><trkpt lat="44.73907175953988" lon="9.668586040061724"><ele>920.0</ele><time>2026-04-25T10:47:51Z</time></trkpt><trkpt lat="44.739098635295626" lon="9.66848254348416"><ele>920.0</ele><time>2026-04-25T10:47:52Z</time></trkpt><trkpt lat="44.73911677207329" lon="9.668375016814045"><ele>920.0000000000001</ele><time>2026-04-25T10:47:53Z</time></trkpt><trkpt lat="44.73912708342816" lon="9.668256272187431"><ele>920.0</ele><time>2026-04-25T10:47:54Z</time></trkpt><trkpt lat="44.7391407314866" lon="9.66814241440185"><ele>920.0000000000001</ele><time>2026-04-25T10:47:55Z</time></trkpt><trkpt lat="44.73916153597587" lon="9.668020885790838"><ele>920.0</ele><time>2026-04-25T10:47:56Z</time></trkpt><trkpt lat="44.73918919123588" lon="9.66790387767088"><ele>920.0</ele><time>2026-04-25T10:47:56.999Z</time></trkpt><trkpt lat="44.73921619226022" lon="9.66778499855747"><ele>920.0</ele><time>2026-04-25T10:47:57.999Z</time></trkpt><trkpt lat="44.73925864303592" lon="9.667681379913732"><ele>920.0000000000001</ele><time>2026-04-25T10:47:58.999Z</time></trkpt><trkpt lat="44.73932116114625" lon="9.667583566475152"><ele>920.0</ele><time>2026-04-25T10:47:59.999Z</time></trkpt><trkpt lat="44.73939119447803" lon="9.66750230145196"><ele>920.0000000000001</ele><time>2026-04-25T10:48:00.999Z</time></trkpt><trkpt lat="44.73946186347061" lon="9.667419534006427"><ele>920.0</ele><time>2026-04-25T10:48:01.999Z</time></trkpt><trkpt lat="44.739526099528106" lon="9.667346772083086"><ele>920.0</ele><time>2026-04-25T10:48:02.999Z</time></trkpt><trkpt lat="44.73958413019163" lon="9.66726813579484"><ele>920.0</ele><time>2026-04-25T10:48:03.999Z</time></trkpt><trkpt lat="44.739627638442585" lon="9.667171845409623"><ele>920.0000000000001</ele><time>2026-04-25T10:48:04.999Z</time></trkpt><trkpt lat="44.739654613845" lon="9.667069094590325"><ele>920.0</ele><time>2026-04-25T10:48:05.999Z</time></trkpt><trkpt lat="44.73966763533962" lon="9.666961112543964"><ele>920.5714285714284</ele><time>2026-04-25T10:48:06.999Z</time></trkpt><trkpt lat="44.739672581811284" lon="9.666855971912042"><ele>921.1428571428571</ele><time>2026-04-25T10:48:07.999Z</time></trkpt><trkpt lat="44.739677923398546" lon="9.666747083121823"><ele>921.7142857142857</ele><time>2026-04-25T10:48:08.999Z</time></trkpt><trkpt lat="44.739686724064576" lon="9.666642395209138"><ele>922.2857142857142</ele><time>2026-04-25T10:48:09.999Z</time></trkpt><trkpt lat="44.739700173817056" lon="9.666539865848572"><ele>922.8571428571429</ele><time>2026-04-25T10:48:10.999Z</time></trkpt><trkpt lat="44.739726212465875" lon="9.666443433656571"><ele>923.4285714285714</ele><time>2026-04-25T10:48:11.999Z</time></trkpt><trkpt lat="44.73975980843125" lon="9.66635449129409"><ele>924.0</ele><time>2026-04-25T10:48:12.999Z</time></trkpt><trkpt lat="44.73980033798042" lon="9.666272129417104"><ele>924.0</ele><time>2026-04-25T10:48:13.999Z</time></trkpt><trkpt lat="44.739839005446306" lon="9.66619559607515"><ele>924.0</ele><time>2026-04-25T10:48:14.999Z</time></trkpt><trkpt lat="44.73987506860237" lon="9.666120452129025"><ele>924.0</ele><time>2026-04-25T10:48:15.999Z</time></trkpt><trkpt lat="44.73992227870892" lon="9.665961655386955"><ele>924.0</ele><time>2026-04-25T10:48:17.999Z</time></trkpt><trkpt lat="44.73994067151478" lon="9.665788139212882"><ele>924.0</ele><time>2026-04-25T10:48:19.999Z</time></trkpt><trkpt lat="44.73994697412401" lon="9.665699902349242"><ele>924.0</ele><time>2026-04-25T10:48:20.999Z</time></trkpt><trkpt lat="44.73996719915994" lon="9.665528133766614"><ele>924.4000000000001</ele><time>2026-04-25T10:48:22.999Z</time></trkpt><trkpt lat="44.740006047983684" lon="9.665362864705843"><ele>924.8000000000001</ele><time>2026-04-25T10:48:24.999Z</time></trkpt><trkpt lat="44.74007206548132" lon="9.665251278843582"><ele>925.1999999999999</ele><time>2026-04-25T10:48:26.999Z</time></trkpt><trkpt lat="44.74008133673755" lon="9.665144248228295"><ele>925.5999999999999</ele><time>2026-04-25T10:48:28.999Z</time></trkpt><trkpt lat="44.74002310545118" lon="9.665082206551196"><ele>926.0</ele><time>2026-04-25T10:48:30.999Z</time></trkpt><trkpt lat="44.73994672795884" lon="9.665100980120899"><ele>926.1428571428571</ele><time>2026-04-25T10:48:33.999Z</time></trkpt><trkpt lat="44.739939659864" lon="9.665190681840809"><ele>926.2857142857142</ele><time>2026-04-25T10:49:57Z</time></trkpt><trkpt lat="44.73986914563238" lon="9.66523295870613"><ele>926.4285714285713</ele><time>2026-04-25T11:09:47.999Z</time></trkpt><trkpt lat="44.73993177553246" lon="9.665248685988164"><ele>926.5714285714284</ele><time>2026-04-25T11:10:56Z</time></trkpt><trkpt lat="44.73996794973284" lon="9.665157599406351"><ele>926.7142857142857</ele><time>2026-04-25T11:13:24.999Z</time></trkpt><trkpt lat="44.74004035580597" lon="9.665147126414356"><ele>926.8571428571427</ele><time>2026-04-25T11:13:27.999Z</time></trkpt><trkpt lat="44.740126677192514" lon="9.665126754945256"><ele>926.9999999999999</ele><time>2026-04-25T11:13:30.999Z</time></trkpt><trkpt lat="44.7402025794451" lon="9.665093134513192"><ele>926.8</ele><time>2026-04-25T11:13:32.999Z</time></trkpt><trkpt lat="44.74028352737072" lon="9.665033635271385"><ele>926.6</ele><time>2026-04-25T11:13:34.999Z</time></trkpt><trkpt lat="44.740370175640855" lon="9.664978914365575"><ele>926.3999999999999</ele><time>2026-04-25T11:13:36.999Z</time></trkpt><trkpt lat="44.74045487543642" lon="9.664920765220835"><ele>926.1999999999999</ele><time>2026-04-25T11:13:38.999Z</time></trkpt><trkpt lat="44.74054148430055" lon="9.664872306977704"><ele>926.0</ele><time>2026-04-25T11:13:40.999Z</time></trkpt><trkpt lat="44.74062519070022" lon="9.664820034331058"><ele>926.0</ele><time>2026-04-25T11:13:42.999Z</time></trkpt><trkpt lat="44.740701526505994" lon="9.664767847658785"><ele>925.9999999999999</ele><time>2026-04-25T11:13:44.999Z</time></trkpt><trkpt lat="44.7407840740208" lon="9.664726403605554"><ele>925.9999999999999</ele><time>2026-04-25T11:13:46.999Z</time></trkpt><trkpt lat="44.740871117502095" lon="9.664664959968615"><ele>926.0</ele><time>2026-04-25T11:13:48.999Z</time></trkpt><trkpt lat="44.74095718187787" lon="9.664584504244276"><ele>926.0</ele><time>2026-04-25T11:13:50.999Z</time></trkpt><trkpt lat="44.741063042847784" lon="9.66455640161003"><ele>925.5999999999999</ele><time>2026-04-25T11:13:52.999Z</time></trkpt><trkpt lat="44.74115023935165" lon="9.664509457567911"><ele>925.1999999999999</ele><time>2026-04-25T11:13:54.999Z</time></trkpt><trkpt lat="44.74122800079887" lon="9.664462198959955"><ele>924.8000000000001</ele><time>2026-04-25T11:13:56.999Z</time></trkpt><trkpt lat="44.741306891868156" lon="9.664416403284596"><ele>924.4000000000001</ele><time>2026-04-25T11:13:58.999Z</time></trkpt><trkpt lat="44.74139465475472" lon="9.66436947828399"><ele>924.0</ele><time>2026-04-25T11:14:00.999Z</time></trkpt><trkpt lat="44.74148978993407" lon="9.664320776496918"><ele>924.0</ele><time>2026-04-25T11:14:03Z</time></trkpt><trkpt lat="44.74158441354744" lon="9.664274336026823"><ele>924.0000000000001</ele><time>2026-04-25T11:14:05Z</time></trkpt><trkpt lat="44.74168163458361" lon="9.664218297547253"><ele>924.0000000000001</ele><time>2026-04-25T11:14:07Z</time></trkpt><trkpt lat="44.74177167919022" lon="9.664152910542919"><ele>924.0</ele><time>2026-04-25T11:14:09Z</time></trkpt><trkpt lat="44.74186168256276" lon="9.66407312928946"><ele>924.0</ele><time>2026-04-25T11:14:11Z</time></trkpt><trkpt lat="44.74194928479048" lon="9.663979698591206"><ele>923.6666666666666</ele><time>2026-04-25T11:14:13Z</time></trkpt><trkpt lat="44.74203622264162" lon="9.663863281133313"><ele>923.3333333333333</ele><time>2026-04-25T11:14:15Z</time></trkpt><trkpt lat="44.742123881568176" lon="9.663736668393167"><ele>923.0</ele><time>2026-04-25T11:14:17Z</time></trkpt><trkpt lat="44.74217200094728" lon="9.663675858669933"><ele>922.6666666666666</ele><time>2026-04-25T11:14:18Z</time></trkpt><trkpt lat="44.74222202263732" lon="9.663614769415835"><ele>922.3333333333333</ele><time>2026-04-25T11:14:19Z</time></trkpt><trkpt lat="44.7422739063286" lon="9.663554236195372"><ele>922.0</ele><time>2026-04-25T11:14:20Z</time></trkpt><trkpt lat="44.74232550534615" lon="9.663498363348804"><ele>922.0</ele><time>2026-04-25T11:14:21Z</time></trkpt><trkpt lat="44.742381096225" lon="9.663449116235203"><ele>922.0</ele><time>2026-04-25T11:14:22Z</time></trkpt><trkpt lat="44.742436457618524" lon="9.663405471695775"><ele>922.0</ele><time>2026-04-25T11:14:23Z</time></trkpt><trkpt lat="44.742546099028054" lon="9.663326144224001"><ele>922.0</ele><time>2026-04-25T11:14:25Z</time></trkpt><trkpt lat="44.74265982419325" lon="9.663264141622651"><ele>922.0</ele><time>2026-04-25T11:14:27Z</time></trkpt><trkpt lat="44.74276853155006" lon="9.663193041528364"><ele>922.5</ele><time>2026-04-25T11:14:29Z</time></trkpt><trkpt lat="44.74287461910539" lon="9.663124199390836"><ele>923.0</ele><time>2026-04-25T11:14:31Z</time></trkpt><trkpt lat="44.74298672445673" lon="9.66308892617888"><ele>923.5</ele><time>2026-04-25T11:14:33Z</time></trkpt><trkpt lat="44.74309784095847" lon="9.663091945957826"><ele>924.0</ele><time>2026-04-25T11:14:35Z</time></trkpt><trkpt lat="44.74321349532694" lon="9.663132319467705"><ele>924.0</ele><time>2026-04-25T11:14:37Z</time></trkpt><trkpt lat="44.743317073300005" lon="9.66319845509922"><ele>924.0</ele><time>2026-04-25T11:14:39Z</time></trkpt><trkpt lat="44.74342448955261" lon="9.663275622154313"><ele>924.0</ele><time>2026-04-25T11:14:41Z</time></trkpt><trkpt lat="44.743527246983845" lon="9.663347405402488"><ele>924.0</ele><time>2026-04-25T11:14:43Z</time></trkpt><trkpt lat="44.74363019765959" lon="9.66340838744655"><ele>924.0</ele><time>2026-04-25T11:14:45Z</time></trkpt><trkpt lat="44.7437436471855" lon="9.663410487684898"><ele>924.0000000000001</ele><time>2026-04-25T11:14:47Z</time></trkpt><trkpt lat="44.74385058567549" lon="9.66330785031996"><ele>924.0000000000001</ele><time>2026-04-25T11:14:49Z</time></trkpt><trkpt lat="44.74389268409601" lon="9.663231843435582"><ele>924.0</ele><time>2026-04-25T11:14:50Z</time></trkpt><trkpt lat="44.74393895903749" lon="9.663152870277173"><ele>924.0</ele><time>2026-04-25T11:14:51Z</time></trkpt><trkpt lat="44.74398393352885" lon="9.663070563026931"><ele>924.0</ele><time>2026-04-25T11:14:52Z</time></trkpt><trkpt lat="44.74403056880328" lon="9.662985455598418"><ele>924.0</ele><time>2026-04-25T11:14:53Z</time></trkpt><trkpt lat="44.744087863379775" lon="9.662911997389319"><ele>924.0</ele><time>2026-04-25T11:14:54Z</time></trkpt><trkpt lat="44.744155091591715" lon="9.662854728465398"><ele>924.0</ele><time>2026-04-25T11:14:55Z</time></trkpt><trkpt lat="44.74423048112049" lon="9.662816450916718"><ele>924.0</ele><time>2026-04-25T11:14:56Z</time></trkpt><trkpt lat="44.744314685431334" lon="9.662798023584152"><ele>924.0</ele><time>2026-04-25T11:14:57Z</time></trkpt><trkpt lat="44.744400807741755" lon="9.662793621955588"><ele>923.6666666666666</ele><time>2026-04-25T11:14:58Z</time></trkpt><trkpt lat="44.744485936850005" lon="9.662786103250205"><ele>923.3333333333333</ele><time>2026-04-25T11:14:59Z</time></trkpt><trkpt lat="44.74457132590381" lon="9.66277630089513"><ele>923.0</ele><time>2026-04-25T11:15:00Z</time></trkpt><trkpt lat="44.74465800376951" lon="9.662768885525377"><ele>922.6666666666666</ele><time>2026-04-25T11:15:01Z</time></trkpt><trkpt lat="44.74474453841774" lon="9.66276456247403"><ele>922.3333333333333</ele><time>2026-04-25T11:15:02Z</time></trkpt><trkpt lat="44.74483045707061" lon="9.662760036225844"><ele>922.0</ele><time>2026-04-25T11:15:03Z</time></trkpt><trkpt lat="44.7449130604506" lon="9.662758094938408"><ele>921.9999999999999</ele><time>2026-04-25T11:15:04Z</time></trkpt><trkpt lat="44.74499891481693" lon="9.662760799056624"><ele>922.0</ele><time>2026-04-25T11:15:05Z</time></trkpt><trkpt lat="44.745077591326975" lon="9.662771414777058"><ele>922.0</ele><time>2026-04-25T11:15:06Z</time></trkpt><trkpt lat="44.74515431050676" lon="9.662779867371043"><ele>922.0</ele><time>2026-04-25T11:15:07Z</time></trkpt><trkpt lat="44.7452254436744" lon="9.662787960208343"><ele>921.9999999999999</ele><time>2026-04-25T11:15:08Z</time></trkpt><trkpt lat="44.745293356665265" lon="9.662789646419576"><ele>922.0</ele><time>2026-04-25T11:15:09Z</time></trkpt><trkpt lat="44.74536184212173" lon="9.66279272380665"><ele>922.0</ele><time>2026-04-25T11:15:10Z</time></trkpt><trkpt lat="44.74542830502594" lon="9.662796368750989"><ele>922.0000000000001</ele><time>2026-04-25T11:15:11Z</time></trkpt><trkpt lat="44.74549200426712" lon="9.66279643363086"><ele>922.0</ele><time>2026-04-25T11:15:12Z</time></trkpt><trkpt lat="44.7455572982334" lon="9.66278937033972"><ele>922.0</ele><time>2026-04-25T11:15:12.999Z</time></trkpt><trkpt lat="44.74562222627032" lon="9.662773075479077"><ele>922.0000000000001</ele><time>2026-04-25T11:15:13.999Z</time></trkpt><trkpt lat="44.74568450901366" lon="9.662750116918476"><ele>922.0</ele><time>2026-04-25T11:15:14.999Z</time></trkpt><trkpt lat="44.74574810647086" lon="9.662733462900858"><ele>922.0</ele><time>2026-04-25T11:15:15.999Z</time></trkpt><trkpt lat="44.74581159721174" lon="9.662735107320131"><ele>922.0</ele><time>2026-04-25T11:15:16.999Z</time></trkpt><trkpt lat="44.74587550895148" lon="9.662763751503647"><ele>922.0000000000001</ele><time>2026-04-25T11:15:17.999Z</time></trkpt><trkpt lat="44.74593707900804" lon="9.6628118631919"><ele>922.0</ele><time>2026-04-25T11:15:18.999Z</time></trkpt><trkpt lat="44.7459974878651" lon="9.662857065590813"><ele>922.0</ele><time>2026-04-25T11:15:19.999Z</time></trkpt><trkpt lat="44.746052363658784" lon="9.662914823836319"><ele>922.0000000000001</ele><time>2026-04-25T11:15:20.999Z</time></trkpt><trkpt lat="44.74610927740111" lon="9.662980019939319"><ele>922.0</ele><time>2026-04-25T11:15:21.999Z</time></trkpt><trkpt lat="44.74616256960704" lon="9.663049290511356"><ele>922.0</ele><time>2026-04-25T11:15:22.999Z</time></trkpt><trkpt lat="44.7462037360183" lon="9.66313309505291"><ele>922.1428571428572</ele><time>2026-04-25T11:15:23.999Z</time></trkpt><trkpt lat="44.74623590076435" lon="9.663222615538832"><ele>922.2857142857144</ele><time>2026-04-25T11:15:24.999Z</time></trkpt><trkpt lat="44.74626165306774" lon="9.663316236871701"><ele>922.4285714285714</ele><time>2026-04-25T11:15:25.999Z</time></trkpt><trkpt lat="44.746284604170214" lon="9.66341169042507"><ele>922.5714285714287</ele><time>2026-04-25T11:15:26.999Z</time></trkpt><trkpt lat="44.74631564690333" lon="9.663502519980801"><ele>922.7142857142858</ele><time>2026-04-25T11:15:27.999Z</time></trkpt><trkpt lat="44.746354445470935" lon="9.663585868471054"><ele>922.8571428571429</ele><time>2026-04-25T11:15:28.999Z</time></trkpt><trkpt lat="44.74640684311599" lon="9.663654990974848"><ele>923.0</ele><time>2026-04-25T11:15:29.999Z</time></trkpt><trkpt lat="44.746464641468044" lon="9.663718621840994"><ele>923.0000000000001</ele><time>2026-04-25T11:15:30.999Z</time></trkpt><trkpt lat="44.74652279028523" lon="9.663781135482603"><ele>923.0</ele><time>2026-04-25T11:15:31.999Z</time></trkpt><trkpt lat="44.74658338650942" lon="9.663848464903344"><ele>923.0</ele><time>2026-04-25T11:15:32.999Z</time></trkpt><trkpt lat="44.74664105370819" lon="9.663918286171759"><ele>923.0</ele><time>2026-04-25T11:15:33.999Z</time></trkpt><trkpt lat="44.74669073434754" lon="9.663995454165763"><ele>923.0000000000001</ele><time>2026-04-25T11:15:34.999Z</time></trkpt><trkpt lat="44.74672851592201" lon="9.66409156843119"><ele>923.0</ele><time>2026-04-25T11:15:35.999Z</time></trkpt><trkpt lat="44.74674923855482" lon="9.664196815156469"><ele>923.0000000000001</ele><time>2026-04-25T11:15:36.999Z</time></trkpt><trkpt lat="44.74676328622607" lon="9.664304420807596"><ele>923.0</ele><time>2026-04-25T11:15:37.999Z</time></trkpt><trkpt lat="44.746787022985096" lon="9.664406672838808"><ele>923.0</ele><time>2026-04-25T11:15:38.999Z</time></trkpt><trkpt lat="44.746831668087715" lon="9.664487025397513"><ele>923.0</ele><time>2026-04-25T11:15:39.999Z</time></trkpt><trkpt lat="44.74689887101703" lon="9.664540321346433"><ele>923.0000000000001</ele><time>2026-04-25T11:15:40.999Z</time></trkpt><trkpt lat="44.74697875608363" lon="9.664560026081"><ele>923.0</ele><time>2026-04-25T11:15:41.999Z</time></trkpt><trkpt lat="44.74706120817983" lon="9.66453566752916"><ele>922.1428571428571</ele><time>2026-04-25T11:15:42.999Z</time></trkpt><trkpt lat="44.74713718811885" lon="9.664500191186885"><ele>921.2857142857143</ele><time>2026-04-25T11:15:43.999Z</time></trkpt><trkpt lat="44.747211583955306" lon="9.664471202325814"><ele>920.4285714285714</ele><time>2026-04-25T11:15:44.999Z</time></trkpt><trkpt lat="44.74728380303928" lon="9.664453117697231"><ele>919.5714285714286</ele><time>2026-04-25T11:15:45.999Z</time></trkpt><trkpt lat="44.747352824630056" lon="9.664447476323012"><ele>918.7142857142858</ele><time>2026-04-25T11:15:46.999Z</time></trkpt><trkpt lat="44.74742311012937" lon="9.664452861046605"><ele>917.8571428571429</ele><time>2026-04-25T11:15:47.999Z</time></trkpt><trkpt lat="44.74749260838339" lon="9.664472534940204"><ele>917.0</ele><time>2026-04-25T11:15:48.999Z</time></trkpt><trkpt lat="44.747557324172746" lon="9.664518216729055"><ele>917.0000000000001</ele><time>2026-04-25T11:15:49.999Z</time></trkpt><trkpt lat="44.74762259857157" lon="9.664570395883496"><ele>917.0</ele><time>2026-04-25T11:15:50.999Z</time></trkpt><trkpt lat="44.747689260223375" lon="9.664619603958661"><ele>917.0</ele><time>2026-04-25T11:15:51.999Z</time></trkpt><trkpt lat="44.74775889038396" lon="9.664669828077127"><ele>917.0</ele><time>2026-04-25T11:15:52.999Z</time></trkpt><trkpt lat="44.747825592973584" lon="9.664715358596842"><ele>917.0000000000001</ele><time>2026-04-25T11:15:53.999Z</time></trkpt><trkpt lat="44.74789386821979" lon="9.664753071404254"><ele>917.0</ele><time>2026-04-25T11:15:54.999Z</time></trkpt><trkpt lat="44.74797064619763" lon="9.664762044175207"><ele>917.0000000000001</ele><time>2026-04-25T11:15:55.999Z</time></trkpt><trkpt lat="44.74804691262234" lon="9.66473569540673"><ele>917.0</ele><time>2026-04-25T11:15:56.999Z</time></trkpt><trkpt lat="44.748124013252905" lon="9.664690864130527"><ele>917.0</ele><time>2026-04-25T11:15:57.999Z</time></trkpt><trkpt lat="44.748204335309936" lon="9.664642952039658"><ele>917.0</ele><time>2026-04-25T11:15:58.999Z</time></trkpt><trkpt lat="44.74828371799865" lon="9.664607904422516"><ele>917.0000000000001</ele><time>2026-04-25T11:15:59.999Z</time></trkpt><trkpt lat="44.74836611758171" lon="9.664596853137658"><ele>917.0</ele><time>2026-04-25T11:16:00.999Z</time></trkpt><trkpt lat="44.74845028124765" lon="9.66464012398764"><ele>917.0</ele><time>2026-04-25T11:16:01.999Z</time></trkpt><trkpt lat="44.7485300401776" lon="9.66471996933222"><ele>917.0</ele><time>2026-04-25T11:16:02.999Z</time></trkpt><trkpt lat="44.74859371612446" lon="9.664825691651922"><ele>917.0</ele><time>2026-04-25T11:16:03.999Z</time></trkpt><trkpt lat="44.74866916283695" lon="9.664904150776081"><ele>917.0</ele><time>2026-04-25T11:16:04.999Z</time></trkpt><trkpt lat="44.7487607711712" lon="9.664955352548743"><ele>917.0</ele><time>2026-04-25T11:16:05.999Z</time></trkpt><trkpt lat="44.748860559178" lon="9.664970605314195"><ele>917.4000000000001</ele><time>2026-04-25T11:16:07Z</time></trkpt><trkpt lat="44.74895987427068" lon="9.664944904415657"><ele>917.8000000000001</ele><time>2026-04-25T11:16:08Z</time></trkpt><trkpt lat="44.74905303561197" lon="9.664876967661408"><ele>918.2</ele><time>2026-04-25T11:16:09Z</time></trkpt><trkpt lat="44.74914801527406" lon="9.664820551499844"><ele>918.6</ele><time>2026-04-25T11:16:10Z</time></trkpt><trkpt lat="44.74925060337954" lon="9.664800910843987"><ele>919.0</ele><time>2026-04-25T11:16:11Z</time></trkpt><trkpt lat="44.74935433935355" lon="9.664804295750265"><ele>918.6</ele><time>2026-04-25T11:16:12Z</time></trkpt><trkpt lat="44.74946261475505" lon="9.664828076164198"><ele>918.2</ele><time>2026-04-25T11:16:13Z</time></trkpt><trkpt lat="44.74956990732638" lon="9.66486585948274"><ele>917.8000000000001</ele><time>2026-04-25T11:16:14Z</time></trkpt><trkpt lat="44.74967525076357" lon="9.664913836694177"><ele>917.4000000000001</ele><time>2026-04-25T11:16:15Z</time></trkpt><trkpt lat="44.749778202086105" lon="9.66497820599151"><ele>917.0</ele><time>2026-04-25T11:16:16Z</time></trkpt><trkpt lat="44.749878939974806" lon="9.665051482928195"><ele>917.0</ele><time>2026-04-25T11:16:17Z</time></trkpt><trkpt lat="44.74997660358181" lon="9.66513700927456"><ele>917.0</ele><time>2026-04-25T11:16:18Z</time></trkpt><trkpt lat="44.7500642534728" lon="9.665232874215645"><ele>917.0</ele><time>2026-04-25T11:16:19Z</time></trkpt><trkpt lat="44.75014548380427" lon="9.665334099031126"><ele>917.0</ele><time>2026-04-25T11:16:20Z</time></trkpt><trkpt lat="44.75022449040827" lon="9.665433017448773"><ele>917.0</ele><time>2026-04-25T11:16:21Z</time></trkpt><trkpt lat="44.75030839949532" lon="9.665520772225468"><ele>916.2</ele><time>2026-04-25T11:16:22Z</time></trkpt><trkpt lat="44.75039760427078" lon="9.665596167048713"><ele>915.4000000000001</ele><time>2026-04-25T11:16:23Z</time></trkpt><trkpt lat="44.7504875208834" lon="9.66566300342295"><ele>914.5999999999999</ele><time>2026-04-25T11:16:24Z</time></trkpt><trkpt lat="44.75057794069248" lon="9.66572248269406"><ele>913.8</ele><time>2026-04-25T11:16:25Z</time></trkpt><trkpt lat="44.75066543247314" lon="9.665785370196494"><ele>913.0</ele><time>2026-04-25T11:16:26Z</time></trkpt><trkpt lat="44.75074791531312" lon="9.665860533511642"><ele>913.0</ele><time>2026-04-25T11:16:27Z</time></trkpt><trkpt lat="44.750822984162575" lon="9.665945830317426"><ele>913.0</ele><time>2026-04-25T11:16:28Z</time></trkpt><trkpt lat="44.75089446832355" lon="9.66603140204394"><ele>913.0</ele><time>2026-04-25T11:16:29Z</time></trkpt><trkpt lat="44.750972311197074" lon="9.666113239530558"><ele>913.0</ele><time>2026-04-25T11:16:30Z</time></trkpt><trkpt lat="44.75104771182332" lon="9.66619064661439"><ele>913.0</ele><time>2026-04-25T11:16:31Z</time></trkpt><trkpt lat="44.7511251718966" lon="9.666265658860338"><ele>911.0</ele><time>2026-04-25T11:16:32Z</time></trkpt><trkpt lat="44.751209857544595" lon="9.666328583497553"><ele>909.0</ele><time>2026-04-25T11:16:33Z</time></trkpt><trkpt lat="44.751308709959105" lon="9.666362066533166"><ele>907.0</ele><time>2026-04-25T11:16:34Z</time></trkpt><trkpt lat="44.75140812322356" lon="9.666369145795825"><ele>905.0</ele><time>2026-04-25T11:16:35Z</time></trkpt><trkpt lat="44.75150737485238" lon="9.666385800861676"><ele>903.0</ele><time>2026-04-25T11:16:36Z</time></trkpt><trkpt lat="44.751611653975274" lon="9.666414163186491"><ele>903.0</ele><time>2026-04-25T11:16:37Z</time></trkpt><trkpt lat="44.75171833548827" lon="9.66645630454916"><ele>903.0</ele><time>2026-04-25T11:16:38Z</time></trkpt><trkpt lat="44.751823748610896" lon="9.66648923420814"><ele>903.0</ele><time>2026-04-25T11:16:39Z</time></trkpt><trkpt lat="44.75193277149567" lon="9.666505234247147"><ele>903.0</ele><time>2026-04-25T11:16:40Z</time></trkpt><trkpt lat="44.75204438026186" lon="9.666505606506163"><ele>903.0</ele><time>2026-04-25T11:16:41Z</time></trkpt><trkpt lat="44.75215432120948" lon="9.666501939956822"><ele>902.4</ele><time>2026-04-25T11:16:42Z</time></trkpt><trkpt lat="44.752266423641764" lon="9.666506590569526"><ele>901.8</ele><time>2026-04-25T11:16:43Z</time></trkpt><trkpt lat="44.75237719329567" lon="9.666526606174568"><ele>901.2</ele><time>2026-04-25T11:16:44Z</time></trkpt><trkpt lat="44.75248972817507" lon="9.66655291590509"><ele>900.6</ele><time>2026-04-25T11:16:45Z</time></trkpt><trkpt lat="44.752597766738475" lon="9.666573753901481"><ele>900.0</ele><time>2026-04-25T11:16:46Z</time></trkpt><trkpt lat="44.752703314503236" lon="9.666585453423098"><ele>900.0</ele><time>2026-04-25T11:16:47Z</time></trkpt><trkpt lat="44.75280771968968" lon="9.666598364385225"><ele>900.0</ele><time>2026-04-25T11:16:48Z</time></trkpt><trkpt lat="44.75291144644087" lon="9.666606636652581"><ele>900.0</ele><time>2026-04-25T11:16:49Z</time></trkpt><trkpt lat="44.75301503708366" lon="9.66662882044683"><ele>900.0</ele><time>2026-04-25T11:16:50Z</time></trkpt><trkpt lat="44.75311623494474" lon="9.666662607537567"><ele>900.0</ele><time>2026-04-25T11:16:51Z</time></trkpt><trkpt lat="44.753217207513636" lon="9.666697472084888"><ele>900.0</ele><time>2026-04-25T11:16:52Z</time></trkpt><trkpt lat="44.75332010537452" lon="9.66671986208085"><ele>900.0</ele><time>2026-04-25T11:16:53Z</time></trkpt><trkpt lat="44.75341852066705" lon="9.666728650047524"><ele>900.0</ele><time>2026-04-25T11:16:54Z</time></trkpt><trkpt lat="44.75351356717098" lon="9.666695226759959"><ele>900.0</ele><time>2026-04-25T11:16:55Z</time></trkpt><trkpt lat="44.75359575995871" lon="9.6666204002089"><ele>900.0</ele><time>2026-04-25T11:16:56Z</time></trkpt><trkpt lat="44.75367258465934" lon="9.666539206372207"><ele>899.2</ele><time>2026-04-25T11:16:57Z</time></trkpt><trkpt lat="44.75374536400478" lon="9.666457096852714"><ele>898.4</ele><time>2026-04-25T11:16:58Z</time></trkpt><trkpt lat="44.75381493329233" lon="9.666371541573254"><ele>897.5999999999999</ele><time>2026-04-25T11:16:59Z</time></trkpt><trkpt lat="44.75388190065332" lon="9.666278093439649"><ele>896.8</ele><time>2026-04-25T11:17:00Z</time></trkpt><trkpt lat="44.75394506498993" lon="9.666174411511784"><ele>896.0</ele><time>2026-04-25T11:17:01Z</time></trkpt><trkpt lat="44.7540099135383" lon="9.666068072917543"><ele>896.0</ele><time>2026-04-25T11:17:02Z</time></trkpt><trkpt lat="44.75407736825138" lon="9.665963299783623"><ele>895.9999999999999</ele><time>2026-04-25T11:17:03Z</time></trkpt><trkpt lat="44.75414493951205" lon="9.6658595340607"><ele>895.9999999999999</ele><time>2026-04-25T11:17:04Z</time></trkpt><trkpt lat="44.754213220872295" lon="9.665750679487562"><ele>896.0</ele><time>2026-04-25T11:17:05Z</time></trkpt><trkpt lat="44.75428687669105" lon="9.665646559417777"><ele>896.0</ele><time>2026-04-25T11:17:06Z</time></trkpt><trkpt lat="44.75436559353559" lon="9.665550572300814"><ele>895.0</ele><time>2026-04-25T11:17:07Z</time></trkpt><trkpt lat="44.75444509260555" lon="9.665459084933634"><ele>893.9999999999999</ele><time>2026-04-25T11:17:08Z</time></trkpt><trkpt lat="44.75452689175058" lon="9.665370675403913"><ele>892.9999999999999</ele><time>2026-04-25T11:17:09Z</time></trkpt><trkpt lat="44.754610462013524" lon="9.665290105447308"><ele>892.0</ele><time>2026-04-25T11:17:10Z</time></trkpt><trkpt lat="44.75469599292319" lon="9.665218712379886"><ele>891.0</ele><time>2026-04-25T11:17:11Z</time></trkpt><trkpt lat="44.75478455431008" lon="9.66515862161105"><ele>891.0</ele><time>2026-04-25T11:17:12Z</time></trkpt><trkpt lat="44.75487582693554" lon="9.66511504012065"><ele>890.9999999999999</ele><time>2026-04-25T11:17:13Z</time></trkpt><trkpt lat="44.75496976705082" lon="9.66510418620592"><ele>890.9999999999999</ele><time>2026-04-25T11:17:14Z</time></trkpt><trkpt lat="44.75505984950138" lon="9.665111381125389"><ele>891.0</ele><time>2026-04-25T11:17:15Z</time></trkpt><trkpt lat="44.75514593295333" lon="9.665126499244439"><ele>891.0</ele><time>2026-04-25T11:17:16Z</time></trkpt><trkpt lat="44.75523239158879" lon="9.665144445229046"><ele>891.5</ele><time>2026-04-25T11:17:17Z</time></trkpt><trkpt lat="44.7553207186927" lon="9.665160722798333"><ele>892.0</ele><time>2026-04-25T11:17:17.999Z</time></trkpt><trkpt lat="44.755407558162226" lon="9.665177059782712"><ele>892.5</ele><time>2026-04-25T11:17:18.999Z</time></trkpt><trkpt lat="44.75549314224427" lon="9.665176293627283"><ele>893.0</ele><time>2026-04-25T11:17:19.999Z</time></trkpt><trkpt lat="44.7555750017931" lon="9.66514051976563"><ele>893.5</ele><time>2026-04-25T11:17:20.999Z</time></trkpt><trkpt lat="44.75564658370399" lon="9.665072317262537"><ele>894.0</ele><time>2026-04-25T11:17:21.999Z</time></trkpt><trkpt lat="44.75570372966746" lon="9.664987096721616"><ele>894.0</ele><time>2026-04-25T11:17:22.999Z</time></trkpt><trkpt lat="44.75575083552997" lon="9.664894863046635"><ele>894.0</ele><time>2026-04-25T11:17:23.999Z</time></trkpt><trkpt lat="44.7557997541247" lon="9.664806992967081"><ele>894.0</ele><time>2026-04-25T11:17:24.999Z</time></trkpt><trkpt lat="44.75585295290739" lon="9.664719956889995"><ele>894.0</ele><time>2026-04-25T11:17:25.999Z</time></trkpt><trkpt lat="44.755912245765245" lon="9.664638710901352"><ele>894.0</ele><time>2026-04-25T11:17:26.999Z</time></trkpt><trkpt lat="44.75598097183952" lon="9.664569551247114"><ele>894.0</ele><time>2026-04-25T11:17:27.999Z</time></trkpt><trkpt lat="44.75605416397535" lon="9.664510203410114"><ele>893.5</ele><time>2026-04-25T11:17:28.999Z</time></trkpt><trkpt lat="44.75612981497555" lon="9.664456269614954"><ele>893.0</ele><time>2026-04-25T11:17:29.999Z</time></trkpt><trkpt lat="44.75620275529307" lon="9.664401717284766"><ele>892.5</ele><time>2026-04-25T11:17:30.999Z</time></trkpt><trkpt lat="44.75627385835597" lon="9.664349555904824"><ele>892.0</ele><time>2026-04-25T11:17:31.999Z</time></trkpt><trkpt lat="44.756344254752115" lon="9.664296532874422"><ele>891.5</ele><time>2026-04-25T11:17:32.999Z</time></trkpt><trkpt lat="44.75641675870523" lon="9.66424690479767"><ele>891.0</ele><time>2026-04-25T11:17:33.999Z</time></trkpt><trkpt lat="44.75648649603314" lon="9.664193377908955"><ele>891.0</ele><time>2026-04-25T11:17:34.999Z</time></trkpt><trkpt lat="44.756557034572936" lon="9.6641347024453"><ele>891.0</ele><time>2026-04-25T11:17:35.999Z</time></trkpt><trkpt lat="44.756625980748225" lon="9.664068936360726"><ele>891.0</ele><time>2026-04-25T11:17:36.999Z</time></trkpt><trkpt lat="44.75668778356211" lon="9.663985024047433"><ele>891.0</ele><time>2026-04-25T11:17:37.999Z</time></trkpt><trkpt lat="44.75673982980942" lon="9.663886066180336"><ele>891.0</ele><time>2026-04-25T11:17:38.999Z</time></trkpt><trkpt lat="44.75678192038825" lon="9.663775151062868"><ele>891.0</ele><time>2026-04-25T11:17:39.999Z</time></trkpt><trkpt lat="44.75682183189548" lon="9.663662141148311"><ele>891.4</ele><time>2026-04-25T11:17:40.999Z</time></trkpt><trkpt lat="44.75686026690013" lon="9.66354677214693"><ele>891.8</ele><time>2026-04-25T11:17:41.999Z</time></trkpt><trkpt lat="44.75690066234409" lon="9.663431930464462"><ele>892.1999999999999</ele><time>2026-04-25T11:17:42.999Z</time></trkpt><trkpt lat="44.75694042118193" lon="9.663312009634671"><ele>892.5999999999999</ele><time>2026-04-25T11:17:43.999Z</time></trkpt><trkpt lat="44.75698628999604" lon="9.663193663873756"><ele>893.0</ele><time>2026-04-25T11:17:44.999Z</time></trkpt><trkpt lat="44.75705092416957" lon="9.663085527527828"><ele>890.5999999999999</ele><time>2026-04-25T11:17:45.999Z</time></trkpt><trkpt lat="44.757111725591386" lon="9.662972310387236"><ele>888.1999999999999</ele><time>2026-04-25T11:17:46.999Z</time></trkpt><trkpt lat="44.75716863544792" lon="9.662848303757972"><ele>885.8</ele><time>2026-04-25T11:17:47.999Z</time></trkpt><trkpt lat="44.757242610586836" lon="9.662742368670166"><ele>883.4</ele><time>2026-04-25T11:17:48.999Z</time></trkpt><trkpt lat="44.75730895096807" lon="9.66262805620834"><ele>881.0</ele><time>2026-04-25T11:17:49.999Z</time></trkpt><trkpt lat="44.757378528357805" lon="9.662510698481016"><ele>881.0</ele><time>2026-04-25T11:17:50.999Z</time></trkpt><trkpt lat="44.75744721566592" lon="9.662393126702035"><ele>880.9999999999999</ele><time>2026-04-25T11:17:51.999Z</time></trkpt><trkpt lat="44.757513648546585" lon="9.662272478951433"><ele>880.9999999999999</ele><time>2026-04-25T11:17:52.999Z</time></trkpt><trkpt lat="44.75759193504562" lon="9.662160810123652"><ele>881.0</ele><time>2026-04-25T11:17:53.999Z</time></trkpt><trkpt lat="44.757646392617964" lon="9.662025143982905"><ele>881.0</ele><time>2026-04-25T11:17:54.999Z</time></trkpt><trkpt lat="44.75768228630914" lon="9.661874530638864"><ele>878.4</ele><time>2026-04-25T11:17:55.999Z</time></trkpt><trkpt lat="44.75773622183785" lon="9.66173745710795"><ele>875.8</ele><time>2026-04-25T11:17:56.999Z</time></trkpt><trkpt lat="44.75779856764667" lon="9.661609382283944"><ele>873.1999999999999</ele><time>2026-04-25T11:17:57.999Z</time></trkpt><trkpt lat="44.75788268649582" lon="9.661504548557685"><ele>870.5999999999999</ele><time>2026-04-25T11:17:58.999Z</time></trkpt><trkpt lat="44.75798229819743" lon="9.66142746561013"><ele>868.0</ele><time>2026-04-25T11:17:59.999Z</time></trkpt><trkpt lat="44.75808443160921" lon="9.661357962302453"><ele>868.0</ele><time>2026-04-25T11:18:00.999Z</time></trkpt><trkpt lat="44.75818875109978" lon="9.661277093557414"><ele>868.0</ele><time>2026-04-25T11:18:01.999Z</time></trkpt><trkpt lat="44.75829066483043" lon="9.661190975624168"><ele>868.0</ele><time>2026-04-25T11:18:02.999Z</time></trkpt><trkpt lat="44.75839715249186" lon="9.661101592952079"><ele>868.0</ele><time>2026-04-25T11:18:03.999Z</time></trkpt><trkpt lat="44.758502107731644" lon="9.661010963338558"><ele>869.25</ele><time>2026-04-25T11:18:04.999Z</time></trkpt><trkpt lat="44.758608276047156" lon="9.660917459874769"><ele>870.5</ele><time>2026-04-25T11:18:05.999Z</time></trkpt><trkpt lat="44.75871500557901" lon="9.660822039786195"><ele>871.75</ele><time>2026-04-25T11:18:06.999Z</time></trkpt><trkpt lat="44.75882672116582" lon="9.660747942314647"><ele>873.0</ele><time>2026-04-25T11:18:07.999Z</time></trkpt><trkpt lat="44.7589432063439" lon="9.6606948455652"><ele>873.0</ele><time>2026-04-25T11:18:08.999Z</time></trkpt><trkpt lat="44.75905956390471" lon="9.660657736282856"><ele>873.0</ele><time>2026-04-25T11:18:09.999Z</time></trkpt><trkpt lat="44.759173602438715" lon="9.660635698577723"><ele>873.0</ele><time>2026-04-25T11:18:10.999Z</time></trkpt><trkpt lat="44.759286955645585" lon="9.660634266761349"><ele>873.0</ele><time>2026-04-25T11:18:11.999Z</time></trkpt><trkpt lat="44.759393169267824" lon="9.660669509701743"><ele>872.4</ele><time>2026-04-25T11:18:13.001Z</time></trkpt><trkpt lat="44.759488787689705" lon="9.66073782588845"><ele>871.8</ele><time>2026-04-25T11:18:14.001Z</time></trkpt><trkpt lat="44.75957257942346" lon="9.660827524125857"><ele>871.2</ele><time>2026-04-25T11:18:15.001Z</time></trkpt><trkpt lat="44.75966883568652" lon="9.660882606491022"><ele>870.6</ele><time>2026-04-25T11:18:16.001Z</time></trkpt><trkpt lat="44.75976817341018" lon="9.660910332335023"><ele>870.0</ele><time>2026-04-25T11:18:17.001Z</time></trkpt><trkpt lat="44.759868977324594" lon="9.660919562117265"><ele>870.0</ele><time>2026-04-25T11:18:18Z</time></trkpt><trkpt lat="44.759968622693414" lon="9.660904105948577"><ele>870.0</ele><time>2026-04-25T11:18:19Z</time></trkpt><trkpt lat="44.76006734594024" lon="9.66086757224505"><ele>870.0</ele><time>2026-04-25T11:18:20.001Z</time></trkpt><trkpt lat="44.76016398303689" lon="9.660813870572659"><ele>870.0</ele><time>2026-04-25T11:18:21Z</time></trkpt><trkpt lat="44.760261729006636" lon="9.660762574727979"><ele>870.0</ele><time>2026-04-25T11:18:22Z</time></trkpt><trkpt lat="44.76036387506066" lon="9.660719398652592"><ele>869.2</ele><time>2026-04-25T11:18:23Z</time></trkpt><trkpt lat="44.76046821780812" lon="9.660680236410306"><ele>868.4</ele><time>2026-04-25T11:18:24Z</time></trkpt><trkpt lat="44.76057410543352" lon="9.660645000005879"><ele>867.5999999999999</ele><time>2026-04-25T11:18:25Z</time></trkpt><trkpt lat="44.760682374183155" lon="9.660619735451547"><ele>866.8</ele><time>2026-04-25T11:18:26Z</time></trkpt><trkpt lat="44.76079561110976" lon="9.660621013474737"><ele>866.0</ele><time>2026-04-25T11:18:27Z</time></trkpt><trkpt lat="44.760903039070456" lon="9.660675785715608"><ele>866.0</ele><time>2026-04-25T11:18:28Z</time></trkpt><trkpt lat="44.761003309951114" lon="9.660749894557478"><ele>866.0</ele><time>2026-04-25T11:18:29Z</time></trkpt><trkpt lat="44.76110905703139" lon="9.660808467739232"><ele>866.0</ele><time>2026-04-25T11:18:30Z</time></trkpt><trkpt lat="44.76122186560432" lon="9.660846569418188"><ele>866.0</ele><time>2026-04-25T11:18:31Z</time></trkpt><trkpt lat="44.76133554717178" lon="9.660886458324194"><ele>865.75</ele><time>2026-04-25T11:18:32Z</time></trkpt><trkpt lat="44.76144099833495" lon="9.66096281111313"><ele>865.5</ele><time>2026-04-25T11:18:33Z</time></trkpt><trkpt lat="44.76153110087206" lon="9.661072144311134"><ele>865.25</ele><time>2026-04-25T11:18:34Z</time></trkpt><trkpt lat="44.76160430221065" lon="9.661205885008464"><ele>865.0</ele><time>2026-04-25T11:18:35Z</time></trkpt><trkpt lat="44.76166615552402" lon="9.661355525506035"><ele>862.75</ele><time>2026-04-25T11:18:36Z</time></trkpt><trkpt lat="44.76170817025259" lon="9.661521596418382"><ele>860.5</ele><time>2026-04-25T11:18:37Z</time></trkpt><trkpt lat="44.76173621897261" lon="9.661694266017177"><ele>858.25</ele><time>2026-04-25T11:18:38Z</time></trkpt><trkpt lat="44.76176865980893" lon="9.661870490573621"><ele>856.0</ele><time>2026-04-25T11:18:39Z</time></trkpt><trkpt lat="44.76180667161288" lon="9.662047463310683"><ele>854.75</ele><time>2026-04-25T11:18:40Z</time></trkpt><trkpt lat="44.76184834384623" lon="9.662224199999349"><ele>853.5</ele><time>2026-04-25T11:18:41Z</time></trkpt><trkpt lat="44.76188729312503" lon="9.662399032006196"><ele>852.25</ele><time>2026-04-25T11:18:42Z</time></trkpt><trkpt lat="44.761923660246595" lon="9.66257946635993"><ele>851.0</ele><time>2026-04-25T11:18:43Z</time></trkpt><trkpt lat="44.76195600093606" lon="9.662757571648664"><ele>850.25</ele><time>2026-04-25T11:18:44Z</time></trkpt><trkpt lat="44.76197342897138" lon="9.662942856131393"><ele>849.5</ele><time>2026-04-25T11:18:45Z</time></trkpt><trkpt lat="44.761978157064355" lon="9.663129850861745"><ele>848.75</ele><time>2026-04-25T11:18:46Z</time></trkpt><trkpt lat="44.761975818542545" lon="9.66331844642254"><ele>848.0</ele><time>2026-04-25T11:18:47Z</time></trkpt><trkpt lat="44.761971264078745" lon="9.663497453594841"><ele>846.5999999999999</ele><time>2026-04-25T11:18:48Z</time></trkpt><trkpt lat="44.76196669428413" lon="9.663652606264181"><ele>845.1999999999999</ele><time>2026-04-25T11:18:49Z</time></trkpt><trkpt lat="44.761967501007526" lon="9.663789215739326"><ele>843.8</ele><time>2026-04-25T11:18:50Z</time></trkpt><trkpt lat="44.76199442904795" lon="9.663910845643734"><ele>842.4</ele><time>2026-04-25T11:18:51Z</time></trkpt><trkpt lat="44.76204832864942" lon="9.664030723942458"><ele>841.0</ele><time>2026-04-25T11:18:52Z</time></trkpt><trkpt lat="44.762163240665714" lon="9.664075450389264"><ele>841.0</ele><time>2026-04-25T11:18:53Z</time></trkpt><trkpt lat="44.762265669378145" lon="9.664125729424475"><ele>841.0</ele><time>2026-04-25T11:18:54Z</time></trkpt><trkpt lat="44.76237228841387" lon="9.66417564385753"><ele>841.0</ele><time>2026-04-25T11:18:55Z</time></trkpt><trkpt lat="44.76248147391427" lon="9.664232585583322"><ele>841.0</ele><time>2026-04-25T11:18:56Z</time></trkpt><trkpt lat="44.76259122896913" lon="9.664293912921671"><ele>841.0</ele><time>2026-04-25T11:18:57Z</time></trkpt><trkpt lat="44.762705811664745" lon="9.664352151794262"><ele>841.0</ele><time>2026-04-25T11:18:58Z</time></trkpt><trkpt lat="44.76282041766496" lon="9.66440401540229"><ele>841.0</ele><time>2026-04-25T11:18:59Z</time></trkpt><trkpt lat="44.76292331676763" lon="9.664473369854234"><ele>841.0</ele><time>2026-04-25T11:19:00Z</time></trkpt><trkpt lat="44.76299825062435" lon="9.664586469120367"><ele>839.0</ele><time>2026-04-25T11:19:01Z</time></trkpt><trkpt lat="44.76303258002016" lon="9.664740336783955"><ele>837.0</ele><time>2026-04-25T11:19:02Z</time></trkpt><trkpt lat="44.76302276655627" lon="9.66490715094677"><ele>835.0</ele><time>2026-04-25T11:19:03Z</time></trkpt><trkpt lat="44.7629919446824" lon="9.665064253529556"><ele>833.0</ele><time>2026-04-25T11:19:04Z</time></trkpt><trkpt lat="44.762967375985184" lon="9.66522242259866"><ele>830.5</ele><time>2026-04-25T11:19:05Z</time></trkpt><trkpt lat="44.762960111177314" lon="9.665380900010259"><ele>828.0</ele><time>2026-04-25T11:19:06Z</time></trkpt><trkpt lat="44.762983792668464" lon="9.66554325212719"><ele>825.5</ele><time>2026-04-25T11:19:07Z</time></trkpt><trkpt lat="44.76304037595495" lon="9.665696668138898"><ele>823.0</ele><time>2026-04-25T11:19:08Z</time></trkpt><trkpt lat="44.76310401683146" lon="9.665841054845774"><ele>823.0</ele><time>2026-04-25T11:19:09Z</time></trkpt><trkpt lat="44.76315606949933" lon="9.665996511491281"><ele>823.0</ele><time>2026-04-25T11:19:10Z</time></trkpt><trkpt lat="44.76319960641004" lon="9.666149108345447"><ele>823.0</ele><time>2026-04-25T11:19:11Z</time></trkpt><trkpt lat="44.76324951218289" lon="9.666285546913542"><ele>823.0</ele><time>2026-04-25T11:19:12Z</time></trkpt><trkpt lat="44.763322401513655" lon="9.666396802451448"><ele>820.5</ele><time>2026-04-25T11:19:13Z</time></trkpt><trkpt lat="44.76341382636229" lon="9.666473370072525"><ele>818.0</ele><time>2026-04-25T11:19:14Z</time></trkpt><trkpt lat="44.76352271231186" lon="9.666516329123997"><ele>815.5</ele><time>2026-04-25T11:19:15Z</time></trkpt><trkpt lat="44.76363649686384" lon="9.666525481413453"><ele>813.0</ele><time>2026-04-25T11:19:16Z</time></trkpt><trkpt lat="44.76375341719063" lon="9.666518997195912"><ele>811.0</ele><time>2026-04-25T11:19:17Z</time></trkpt><trkpt lat="44.76386894047747" lon="9.666489236768973"><ele>809.0</ele><time>2026-04-25T11:19:18Z</time></trkpt><trkpt lat="44.76398006406468" lon="9.666431393694415"><ele>807.0</ele><time>2026-04-25T11:19:19Z</time></trkpt><trkpt lat="44.764086098787864" lon="9.66636052942735"><ele>805.0</ele><time>2026-04-25T11:19:20Z</time></trkpt><trkpt lat="44.764194812254914" lon="9.666286657797253"><ele>805.0</ele><time>2026-04-25T11:19:20.999Z</time></trkpt><trkpt lat="44.76430522939423" lon="9.666219476236783"><ele>805.0</ele><time>2026-04-25T11:19:21.999Z</time></trkpt><trkpt lat="44.764417672886815" lon="9.666161148627532"><ele>805.0</ele><time>2026-04-25T11:19:22.999Z</time></trkpt><trkpt lat="44.7645294879712" lon="9.666095302163832"><ele>805.0</ele><time>2026-04-25T11:19:23.999Z</time></trkpt><trkpt lat="44.76463641215623" lon="9.666018721547841"><ele>803.75</ele><time>2026-04-25T11:19:24.999Z</time></trkpt><trkpt lat="44.76474345724911" lon="9.665933661721205"><ele>802.5</ele><time>2026-04-25T11:19:25.999Z</time></trkpt><trkpt lat="44.76485171428554" lon="9.665849368445505"><ele>801.25</ele><time>2026-04-25T11:19:26.999Z</time></trkpt><trkpt lat="44.764960163433926" lon="9.665765763625226"><ele>800.0</ele><time>2026-04-25T11:19:27.999Z</time></trkpt><trkpt lat="44.765067395167485" lon="9.665679005030103"><ele>800.0</ele><time>2026-04-25T11:19:28.999Z</time></trkpt><trkpt lat="44.765174844106674" lon="9.665587587167659"><ele>800.0</ele><time>2026-04-25T11:19:29.999Z</time></trkpt><trkpt lat="44.76528380053608" lon="9.665502224305031"><ele>800.0</ele><time>2026-04-25T11:19:30.999Z</time></trkpt><trkpt lat="44.76538753056352" lon="9.665421174505287"><ele>800.0</ele><time>2026-04-25T11:19:31.999Z</time></trkpt><trkpt lat="44.765482874306365" lon="9.665351748563658"><ele>799.2</ele><time>2026-04-25T11:19:32.999Z</time></trkpt><trkpt lat="44.7655856632506" lon="9.665304924310533"><ele>798.4</ele><time>2026-04-25T11:19:33.999Z</time></trkpt><trkpt lat="44.76569340347212" lon="9.665278090219974"><ele>797.5999999999999</ele><time>2026-04-25T11:19:34.999Z</time></trkpt><trkpt lat="44.7658034310029" lon="9.665284484987858"><ele>796.8</ele><time>2026-04-25T11:19:35.999Z</time></trkpt><trkpt lat="44.76591465591941" lon="9.665330383374059"><ele>796.0</ele><time>2026-04-25T11:19:36.999Z</time></trkpt><trkpt lat="44.76601927774035" lon="9.665403700149522"><ele>794.5</ele><time>2026-04-25T11:19:37.999Z</time></trkpt><trkpt lat="44.76612601427178" lon="9.665475999375339"><ele>793.0</ele><time>2026-04-25T11:19:38.999Z</time></trkpt><trkpt lat="44.76623900326291" lon="9.665534935080027"><ele>791.5</ele><time>2026-04-25T11:19:39.999Z</time></trkpt><trkpt lat="44.76635472609863" lon="9.665592127367072"><ele>790.0</ele><time>2026-04-25T11:19:40.999Z</time></trkpt><trkpt lat="44.76647540722335" lon="9.665644234287155"><ele>790.0</ele><time>2026-04-25T11:19:41.999Z</time></trkpt><trkpt lat="44.76660011598449" lon="9.66569612526251"><ele>790.0</ele><time>2026-04-25T11:19:42.999Z</time></trkpt><trkpt lat="44.76672567252329" lon="9.665754752209892"><ele>790.0</ele><time>2026-04-25T11:19:43.999Z</time></trkpt><trkpt lat="44.76685324603275" lon="9.665820923235694"><ele>790.0</ele><time>2026-04-25T11:19:44.999Z</time></trkpt><trkpt lat="44.766981585505825" lon="9.665892668646691"><ele>788.25</ele><time>2026-04-25T11:19:45.999Z</time></trkpt><trkpt lat="44.76710847317956" lon="9.665975801390834"><ele>786.5</ele><time>2026-04-25T11:19:46.999Z</time></trkpt><trkpt lat="44.76722824828561" lon="9.666081681439675"><ele>784.75</ele><time>2026-04-25T11:19:47.999Z</time></trkpt><trkpt lat="44.76734072885568" lon="9.666201418924295"><ele>783.0</ele><time>2026-04-25T11:19:48.999Z</time></trkpt><trkpt lat="44.76745052956568" lon="9.666321833142336"><ele>782.25</ele><time>2026-04-25T11:19:49.999Z</time></trkpt><trkpt lat="44.76754998709594" lon="9.666450762967411"><ele>781.5</ele><time>2026-04-25T11:19:50.999Z</time></trkpt><trkpt lat="44.767647334127" lon="9.66658165936843"><ele>780.75</ele><time>2026-04-25T11:19:51.999Z</time></trkpt><trkpt lat="44.76775060666268" lon="9.66668936253975"><ele>780.0</ele><time>2026-04-25T11:19:52.999Z</time></trkpt><trkpt lat="44.76786607244559" lon="9.666763641102207"><ele>780.0</ele><time>2026-04-25T11:19:53.999Z</time></trkpt><trkpt lat="44.767983424615096" lon="9.666825663896564"><ele>780.0</ele><time>2026-04-25T11:19:54.999Z</time></trkpt><trkpt lat="44.768112495226404" lon="9.666835524770503"><ele>780.0</ele><time>2026-04-25T11:19:55.999Z</time></trkpt><trkpt lat="44.76823384018178" lon="9.666821452829748"><ele>780.0</ele><time>2026-04-25T11:19:56.999Z</time></trkpt><trkpt lat="44.76835326467344" lon="9.66683464788048"><ele>780.0</ele><time>2026-04-25T11:19:57.999Z</time></trkpt><trkpt lat="44.76847110878584" lon="9.666866803016676"><ele>780.0</ele><time>2026-04-25T11:19:58.999Z</time></trkpt><trkpt lat="44.76858031261588" lon="9.666930374805194"><ele>780.0</ele><time>2026-04-25T11:19:59.999Z</time></trkpt><trkpt lat="44.76867935826274" lon="9.667014056614935"><ele>780.0</ele><time>2026-04-25T11:20:00.999Z</time></trkpt><trkpt lat="44.76875290468074" lon="9.667134056311248"><ele>779.0</ele><time>2026-04-25T11:20:01.999Z</time></trkpt><trkpt lat="44.768807806177726" lon="9.667267669702099"><ele>778.0</ele><time>2026-04-25T11:20:02.999Z</time></trkpt><trkpt lat="44.768861586356095" lon="9.667396785514715"><ele>777.0</ele><time>2026-04-25T11:20:03.999Z</time></trkpt><trkpt lat="44.76891715846652" lon="9.667523257801376"><ele>776.0</ele><time>2026-04-25T11:20:04.999Z</time></trkpt><trkpt lat="44.76897207236258" lon="9.667650369127426"><ele>775.0</ele><time>2026-04-25T11:20:05.999Z</time></trkpt><trkpt lat="44.76901785114214" lon="9.667783894635859"><ele>774.2</ele><time>2026-04-25T11:20:06.999Z</time></trkpt><trkpt lat="44.76904837914986" lon="9.667925367098661"><ele>773.4</ele><time>2026-04-25T11:20:07.999Z</time></trkpt><trkpt lat="44.76908150222094" lon="9.668064549041587"><ele>772.5999999999999</ele><time>2026-04-25T11:20:08.999Z</time></trkpt><trkpt lat="44.76910810084899" lon="9.668206694171868"><ele>771.8</ele><time>2026-04-25T11:20:09.999Z</time></trkpt><trkpt lat="44.76912167418236" lon="9.668352773503866"><ele>771.0</ele><time>2026-04-25T11:20:10.999Z</time></trkpt><trkpt lat="44.769124535228286" lon="9.66850402357159"><ele>770.4</ele><time>2026-04-25T11:20:11.999Z</time></trkpt><trkpt lat="44.76912230379191" lon="9.668656696284701"><ele>769.8</ele><time>2026-04-25T11:20:12.999Z</time></trkpt><trkpt lat="44.76913459900878" lon="9.66880686289158"><ele>769.1999999999999</ele><time>2026-04-25T11:20:13.999Z</time></trkpt><trkpt lat="44.76916798179679" lon="9.668950746799919"><ele>768.5999999999999</ele><time>2026-04-25T11:20:14.999Z</time></trkpt><trkpt lat="44.76923683167519" lon="9.669072314807313"><ele>768.0</ele><time>2026-04-25T11:20:15.999Z</time></trkpt><trkpt lat="44.76932436981908" lon="9.669168539633906"><ele>768.0</ele><time>2026-04-25T11:20:16.999Z</time></trkpt><trkpt lat="44.7694236387686" lon="9.669244224760979"><ele>768.0</ele><time>2026-04-25T11:20:18.001Z</time></trkpt><trkpt lat="44.76953160510035" lon="9.669301544193551"><ele>768.0</ele><time>2026-04-25T11:20:19.001Z</time></trkpt><trkpt lat="44.76964649711479" lon="9.669339528165397"><ele>768.0</ele><time>2026-04-25T11:20:20.001Z</time></trkpt><trkpt lat="44.769764950232805" lon="9.669356807069798"><ele>768.0</ele><time>2026-04-25T11:20:21.001Z</time></trkpt><trkpt lat="44.76988739422497" lon="9.669354696462245"><ele>768.0</ele><time>2026-04-25T11:20:22.001Z</time></trkpt><trkpt lat="44.770010691384634" lon="9.669355144326424"><ele>768.0</ele><time>2026-04-25T11:20:23.001Z</time></trkpt><trkpt lat="44.77013045172121" lon="9.669402105147846"><ele>768.0</ele><time>2026-04-25T11:20:24.001Z</time></trkpt><trkpt lat="44.77022960597659" lon="9.669534819571787"><ele>765.0</ele><time>2026-04-25T11:20:25.001Z</time></trkpt><trkpt lat="44.770345943133485" lon="9.669614031185837"><ele>762.0</ele><time>2026-04-25T11:20:26.001Z</time></trkpt><trkpt lat="44.77047139419864" lon="9.669663545912286"><ele>759.0</ele><time>2026-04-25T11:20:27.001Z</time></trkpt><trkpt lat="44.77060421916933" lon="9.669680759438858"><ele>756.0</ele><time>2026-04-25T11:20:28.001Z</time></trkpt><trkpt lat="44.77073686454564" lon="9.669683121247758"><ele>756.0</ele><time>2026-04-25T11:20:29Z</time></trkpt><trkpt lat="44.77087028689686" lon="9.66968686754231"><ele>756.0</ele><time>2026-04-25T11:20:30Z</time></trkpt><trkpt lat="44.77100508290814" lon="9.66969139899874"><ele>756.0</ele><time>2026-04-25T11:20:31Z</time></trkpt><trkpt lat="44.771140214328256" lon="9.669694252646819"><ele>756.0</ele><time>2026-04-25T11:20:32Z</time></trkpt><trkpt lat="44.77127541489656" lon="9.669691165551743"><ele>753.25</ele><time>2026-04-25T11:20:33Z</time></trkpt><trkpt lat="44.7713969338606" lon="9.669688504373704"><ele>750.5</ele><time>2026-04-25T11:20:34Z</time></trkpt><trkpt lat="44.77150869600135" lon="9.669652981983296"><ele>747.75</ele><time>2026-04-25T11:20:35Z</time></trkpt><trkpt lat="44.771609360273104" lon="9.669569158914719"><ele>745.0</ele><time>2026-04-25T11:20:36Z</time></trkpt><trkpt lat="44.771696561507234" lon="9.669448144126376"><ele>746.25</ele><time>2026-04-25T11:20:37Z</time></trkpt><trkpt lat="44.77177994992065" lon="9.669334028464167"><ele>747.5</ele><time>2026-04-25T11:20:38Z</time></trkpt><trkpt lat="44.77188547541323" lon="9.669254597271902"><ele>748.75</ele><time>2026-04-25T11:20:39Z</time></trkpt><trkpt lat="44.77201863476602" lon="9.669253932194186"><ele>750.0</ele><time>2026-04-25T11:20:40Z</time></trkpt><trkpt lat="44.77214656374865" lon="9.669298942280706"><ele>747.25</ele><time>2026-04-25T11:20:41Z</time></trkpt><trkpt lat="44.77226464417937" lon="9.669369149910871"><ele>744.5</ele><time>2026-04-25T11:20:42Z</time></trkpt><trkpt lat="44.772381811244635" lon="9.669437474996323"><ele>741.75</ele><time>2026-04-25T11:20:43Z</time></trkpt><trkpt lat="44.772503157058715" lon="9.669496635835339"><ele>739.0</ele><time>2026-04-25T11:20:44Z</time></trkpt><trkpt lat="44.772624913735505" lon="9.669554218405779"><ele>738.25</ele><time>2026-04-25T11:20:45Z</time></trkpt><trkpt lat="44.772744984389604" lon="9.669622262698546"><ele>737.5</ele><time>2026-04-25T11:20:46Z</time></trkpt><trkpt lat="44.77285336675531" lon="9.669710321777252"><ele>736.75</ele><time>2026-04-25T11:20:47Z</time></trkpt><trkpt lat="44.772961691435064" lon="9.669796523069964"><ele>736.0</ele><time>2026-04-25T11:20:48Z</time></trkpt><trkpt lat="44.773077316394975" lon="9.669863029182835"><ele>736.0</ele><time>2026-04-25T11:20:49Z</time></trkpt><trkpt lat="44.77319494297844" lon="9.669912813259382"><ele>736.0</ele><time>2026-04-25T11:20:50Z</time></trkpt><trkpt lat="44.7733168780878" lon="9.669953314635816"><ele>736.0</ele><time>2026-04-25T11:20:51Z</time></trkpt><trkpt lat="44.773436668276794" lon="9.66999258625413"><ele>736.0</ele><time>2026-04-25T11:20:52Z</time></trkpt><trkpt lat="44.77355589582641" lon="9.67003907447192"><ele>734.75</ele><time>2026-04-25T11:20:53Z</time></trkpt><trkpt lat="44.773666871066276" lon="9.670115418957206"><ele>733.5</ele><time>2026-04-25T11:20:54Z</time></trkpt><trkpt lat="44.77375958628879" lon="9.670220366366339"><ele>732.25</ele><time>2026-04-25T11:20:55Z</time></trkpt><trkpt lat="44.77382163458062" lon="9.67035585787726"><ele>731.0</ele><time>2026-04-25T11:20:56Z</time></trkpt><trkpt lat="44.77384588319159" lon="9.670510764372814"><ele>731.0</ele><time>2026-04-25T11:20:57Z</time></trkpt><trkpt lat="44.77385032384782" lon="9.67066533990304"><ele>731.0</ele><time>2026-04-25T11:20:58Z</time></trkpt><trkpt lat="44.773854063504" lon="9.670817934163683"><ele>731.0</ele><time>2026-04-25T11:20:59Z</time></trkpt><trkpt lat="44.77385870469827" lon="9.670971975943806"><ele>731.0</ele><time>2026-04-25T11:21:00Z</time></trkpt><trkpt lat="44.77385779176722" lon="9.671126985348048"><ele>731.0</ele><time>2026-04-25T11:21:01Z</time></trkpt><trkpt lat="44.77386639646508" lon="9.671278137422206"><ele>730.1999999999999</ele><time>2026-04-25T11:21:02Z</time></trkpt><trkpt lat="44.77390725337017" lon="9.671410096502235"><ele>729.4</ele><time>2026-04-25T11:21:03Z</time></trkpt><trkpt lat="44.773976982916075" lon="9.671508795829354"><ele>728.6</ele><time>2026-04-25T11:21:04Z</time></trkpt><trkpt lat="44.774078612507516" lon="9.671542637784443"><ele>727.8</ele><time>2026-04-25T11:21:05Z</time></trkpt><trkpt lat="44.77418094169492" lon="9.671505023661053"><ele>727.0</ele><time>2026-04-25T11:21:06Z</time></trkpt><trkpt lat="44.77426985450923" lon="9.67144095146884"><ele>725.6</ele><time>2026-04-25T11:21:07Z</time></trkpt><trkpt lat="44.77436332738778" lon="9.67138537201091"><ele>724.2</ele><time>2026-04-25T11:21:08Z</time></trkpt><trkpt lat="44.77446284746942" lon="9.671332302723743"><ele>722.8</ele><time>2026-04-25T11:21:09Z</time></trkpt><trkpt lat="44.77456290834251" lon="9.67127960201288"><ele>721.4</ele><time>2026-04-25T11:21:10Z</time></trkpt><trkpt lat="44.77466235196933" lon="9.671231108663182"><ele>720.0</ele><time>2026-04-25T11:21:11Z</time></trkpt><trkpt lat="44.77476114022236" lon="9.671181297494606"><ele>720.0</ele><time>2026-04-25T11:21:12Z</time></trkpt><trkpt lat="44.77486239462944" lon="9.671133795188938"><ele>720.0</ele><time>2026-04-25T11:21:13Z</time></trkpt><trkpt lat="44.77496209936293" lon="9.671107181308203"><ele>720.0</ele><time>2026-04-25T11:21:14Z</time></trkpt><trkpt lat="44.77505684924594" lon="9.671139985418197"><ele>720.0</ele><time>2026-04-25T11:21:15Z</time></trkpt><trkpt lat="44.77514171141908" lon="9.671230414171443"><ele>720.0</ele><time>2026-04-25T11:21:16Z</time></trkpt><trkpt lat="44.77521048393744" lon="9.671347799868066"><ele>719.5</ele><time>2026-04-25T11:21:17Z</time></trkpt><trkpt lat="44.775274326377485" lon="9.671474812390029"><ele>719.0</ele><time>2026-04-25T11:21:18Z</time></trkpt><trkpt lat="44.77533936467072" lon="9.671603097075511"><ele>718.5</ele><time>2026-04-25T11:21:19Z</time></trkpt><trkpt lat="44.775413054373956" lon="9.671725314796964"><ele>718.0</ele><time>2026-04-25T11:21:20Z</time></trkpt><trkpt lat="44.775494071216215" lon="9.671839510239419"><ele>717.0</ele><time>2026-04-25T11:21:21Z</time></trkpt><trkpt lat="44.77558154561917" lon="9.6719471368689"><ele>716.0</ele><time>2026-04-25T11:21:21.999Z</time></trkpt><trkpt lat="44.77566958391734" lon="9.672051898255853"><ele>715.0</ele><time>2026-04-25T11:21:22.999Z</time></trkpt><trkpt lat="44.775754074819474" lon="9.672161334640732"><ele>714.0</ele><time>2026-04-25T11:21:23.999Z</time></trkpt><trkpt lat="44.77584115740847" lon="9.672269174211193"><ele>714.0</ele><time>2026-04-25T11:21:24.999Z</time></trkpt><trkpt lat="44.77593064791418" lon="9.672378338830937"><ele>714.0</ele><time>2026-04-25T11:21:25.999Z</time></trkpt><trkpt lat="44.77601426551787" lon="9.672495278206283"><ele>714.0</ele><time>2026-04-25T11:21:26.999Z</time></trkpt><trkpt lat="44.776097092033694" lon="9.672615258080619"><ele>714.0</ele><time>2026-04-25T11:21:27.999Z</time></trkpt><trkpt lat="44.776182667318736" lon="9.67273495579206"><ele>712.25</ele><time>2026-04-25T11:21:28.999Z</time></trkpt><trkpt lat="44.776259684112595" lon="9.672865862188885"><ele>710.5</ele><time>2026-04-25T11:21:29.999Z</time></trkpt><trkpt lat="44.77632918987125" lon="9.673003339468808"><ele>708.75</ele><time>2026-04-25T11:21:30.999Z</time></trkpt><trkpt lat="44.77639845259038" lon="9.673140754650055"><ele>707.0</ele><time>2026-04-25T11:21:31.999Z</time></trkpt><trkpt lat="44.776475922803805" lon="9.67326963083419"><ele>707.0</ele><time>2026-04-25T11:21:32.999Z</time></trkpt><trkpt lat="44.776555566407495" lon="9.673390773440238"><ele>707.0</ele><time>2026-04-25T11:21:33.999Z</time></trkpt><trkpt lat="44.77663098718397" lon="9.673516299882595"><ele>707.0</ele><time>2026-04-25T11:21:34.999Z</time></trkpt><trkpt lat="44.77670387048176" lon="9.673643393871703"><ele>707.0</ele><time>2026-04-25T11:21:35.999Z</time></trkpt><trkpt lat="44.77677473197433" lon="9.67376957982329"><ele>707.0</ele><time>2026-04-25T11:21:36.999Z</time></trkpt><trkpt lat="44.77684301180982" lon="9.673895274771843"><ele>707.0</ele><time>2026-04-25T11:21:37.999Z</time></trkpt><trkpt lat="44.77690941262287" lon="9.674020704942262"><ele>707.0</ele><time>2026-04-25T11:21:38.999Z</time></trkpt><trkpt lat="44.77697621312406" lon="9.674144885637702"><ele>707.0</ele><time>2026-04-25T11:21:39.999Z</time></trkpt><trkpt lat="44.777041310306224" lon="9.674265677096013"><ele>707.0</ele><time>2026-04-25T11:21:40.999Z</time></trkpt><trkpt lat="44.77710437493402" lon="9.674387088029569"><ele>706.4000000000001</ele><time>2026-04-25T11:21:41.999Z</time></trkpt><trkpt lat="44.777169668712354" lon="9.674503093596336"><ele>705.8000000000001</ele><time>2026-04-25T11:21:42.999Z</time></trkpt><trkpt lat="44.77723483700581" lon="9.674616862423917"><ele>705.2</ele><time>2026-04-25T11:21:43.999Z</time></trkpt><trkpt lat="44.7773023456134" lon="9.674729259163565"><ele>704.6</ele><time>2026-04-25T11:21:44.999Z</time></trkpt><trkpt lat="44.77737238100814" lon="9.674832280012177"><ele>704.0</ele><time>2026-04-25T11:21:45.999Z</time></trkpt><trkpt lat="44.7774470395052" lon="9.67492474901914"><ele>704.0</ele><time>2026-04-25T11:21:46.999Z</time></trkpt><trkpt lat="44.77752729278785" lon="9.675002866564082"><ele>704.0</ele><time>2026-04-25T11:21:47.999Z</time></trkpt><trkpt lat="44.77760783553045" lon="9.675085637421548"><ele>704.0</ele><time>2026-04-25T11:21:48.999Z</time></trkpt><trkpt lat="44.77767794811516" lon="9.675186468936483"><ele>704.0</ele><time>2026-04-25T11:21:49.999Z</time></trkpt><trkpt lat="44.777737132776345" lon="9.675294670637639"><ele>704.0</ele><time>2026-04-25T11:21:50.999Z</time></trkpt><trkpt lat="44.77779292945795" lon="9.675406542093455"><ele>704.4000000000001</ele><time>2026-04-25T11:21:51.999Z</time></trkpt><trkpt lat="44.77784772924898" lon="9.67551743967681"><ele>704.8</ele><time>2026-04-25T11:21:52.999Z</time></trkpt><trkpt lat="44.777902903283646" lon="9.675625884230708"><ele>705.2</ele><time>2026-04-25T11:21:53.999Z</time></trkpt><trkpt lat="44.77796362391874" lon="9.675732567161537"><ele>705.5999999999999</ele><time>2026-04-25T11:21:54.999Z</time></trkpt><trkpt lat="44.778029554856" lon="9.675835463078123"><ele>706.0</ele><time>2026-04-25T11:21:55.999Z</time></trkpt><trkpt lat="44.778098110880045" lon="9.675937871640302"><ele>706.0</ele><time>2026-04-25T11:21:56.999Z</time></trkpt><trkpt lat="44.778164910947154" lon="9.676039845781744"><ele>706.0</ele><time>2026-04-25T11:21:57.999Z</time></trkpt><trkpt lat="44.77823002602859" lon="9.676147601393124"><ele>706.0</ele><time>2026-04-25T11:21:58.999Z</time></trkpt><trkpt lat="44.77829717962183" lon="9.676254680703266"><ele>706.0</ele><time>2026-04-25T11:21:59.999Z</time></trkpt><trkpt lat="44.778366216860796" lon="9.676361651124706"><ele>706.0</ele><time>2026-04-25T11:22:00.999Z</time></trkpt><trkpt lat="44.778443932296405" lon="9.676460199217717"><ele>705.1999999999999</ele><time>2026-04-25T11:22:01.999Z</time></trkpt><trkpt lat="44.778529260392716" lon="9.676546615336745"><ele>704.4</ele><time>2026-04-25T11:22:02.999Z</time></trkpt><trkpt lat="44.778616093367695" lon="9.67663427521409"><ele>703.6</ele><time>2026-04-25T11:22:03.999Z</time></trkpt><trkpt lat="44.77869524433856" lon="9.676731010532151"><ele>702.8</ele><time>2026-04-25T11:22:04.999Z</time></trkpt><trkpt lat="44.77876964462175" lon="9.67683499486714"><ele>702.0</ele><time>2026-04-25T11:22:05.999Z</time></trkpt><trkpt lat="44.77884560367855" lon="9.67693411412645"><ele>700.4000000000001</ele><time>2026-04-25T11:22:06.999Z</time></trkpt><trkpt lat="44.778919737833654" lon="9.677034962525399"><ele>698.8000000000001</ele><time>2026-04-25T11:22:07.999Z</time></trkpt><trkpt lat="44.77899412263164" lon="9.677138223489667"><ele>697.2</ele><time>2026-04-25T11:22:08.999Z</time></trkpt><trkpt lat="44.779071440416566" lon="9.677237723750164"><ele>695.6</ele><time>2026-04-25T11:22:09.999Z</time></trkpt><trkpt lat="44.7791511165103" lon="9.677331871058094"><ele>694.0</ele><time>2026-04-25T11:22:10.999Z</time></trkpt><trkpt lat="44.779239994619374" lon="9.67741213562587"><ele>694.0</ele><time>2026-04-25T11:22:11.999Z</time></trkpt><trkpt lat="44.77933788504391" lon="9.677470846117995"><ele>694.0</ele><time>2026-04-25T11:22:12.999Z</time></trkpt><trkpt lat="44.77943921804537" lon="9.677514325627627"><ele>694.0</ele><time>2026-04-25T11:22:13.999Z</time></trkpt><trkpt lat="44.77954479190704" lon="9.677553627981686"><ele>694.0</ele><time>2026-04-25T11:22:14.999Z</time></trkpt><trkpt lat="44.7796466874769" lon="9.677608281018829"><ele>694.0</ele><time>2026-04-25T11:22:15.999Z</time></trkpt><trkpt lat="44.77974393076728" lon="9.677686960249858"><ele>692.8000000000001</ele><time>2026-04-25T11:22:16.999Z</time></trkpt><trkpt lat="44.779832033619535" lon="9.677783622224494"><ele>691.6</ele><time>2026-04-25T11:22:17.999Z</time></trkpt><trkpt lat="44.77991625492275" lon="9.677890391684254"><ele>690.4</ele><time>2026-04-25T11:22:18.999Z</time></trkpt><trkpt lat="44.7799918635618" lon="9.67800688070339"><ele>689.2</ele><time>2026-04-25T11:22:19.999Z</time></trkpt><trkpt lat="44.78006225621402" lon="9.678126854172628"><ele>688.0</ele><time>2026-04-25T11:22:20.999Z</time></trkpt><trkpt lat="44.78012748480082" lon="9.678250010147188"><ele>689.8</ele><time>2026-04-25T11:22:21.999Z</time></trkpt><trkpt lat="44.780190031052186" lon="9.678371825855171"><ele>691.5999999999999</ele><time>2026-04-25T11:22:22.999Z</time></trkpt><trkpt lat="44.78024902451093" lon="9.678500762921285"><ele>693.4000000000001</ele><time>2026-04-25T11:22:24.001Z</time></trkpt><trkpt lat="44.780299724846074" lon="9.678636154015011"><ele>695.2</ele><time>2026-04-25T11:22:25.001Z</time></trkpt><trkpt lat="44.78034056554727" lon="9.67877825818502"><ele>697.0</ele><time>2026-04-25T11:22:26Z</time></trkpt><trkpt lat="44.780373454816434" lon="9.678924214175881"><ele>697.0</ele><time>2026-04-25T11:22:27.001Z</time></trkpt><trkpt lat="44.780388922134755" lon="9.679076120314273"><ele>697.0</ele><time>2026-04-25T11:22:28.001Z</time></trkpt><trkpt lat="44.78038830800455" lon="9.679231395444333"><ele>697.0</ele><time>2026-04-25T11:22:29Z</time></trkpt><trkpt lat="44.780379032631636" lon="9.679383376286147"><ele>697.0</ele><time>2026-04-25T11:22:30Z</time></trkpt><trkpt lat="44.780366820842" lon="9.679532464533915"><ele>697.0</ele><time>2026-04-25T11:22:31Z</time></trkpt><trkpt lat="44.78035587903827" lon="9.679685956765416"><ele>696.0</ele><time>2026-04-25T11:22:32Z</time></trkpt><trkpt lat="44.78033762846528" lon="9.679834271842209"><ele>695.0</ele><time>2026-04-25T11:22:33Z</time></trkpt><trkpt lat="44.78031074299813" lon="9.679978773288274"><ele>694.0</ele><time>2026-04-25T11:22:34Z</time></trkpt><trkpt lat="44.78028176663967" lon="9.6801229515531"><ele>693.0</ele><time>2026-04-25T11:22:35Z</time></trkpt><trkpt lat="44.780256908331204" lon="9.680267014027777"><ele>692.0</ele><time>2026-04-25T11:22:36Z</time></trkpt><trkpt lat="44.78023508962335" lon="9.680411119644214"><ele>691.0</ele><time>2026-04-25T11:22:37Z</time></trkpt><trkpt lat="44.780224284747085" lon="9.680556002820774"><ele>690.0</ele><time>2026-04-25T11:22:38Z</time></trkpt><trkpt lat="44.7802150366745" lon="9.680700297806903"><ele>689.0</ele><time>2026-04-25T11:22:39Z</time></trkpt><trkpt lat="44.780209114565345" lon="9.680845279495516"><ele>688.0</ele><time>2026-04-25T11:22:40Z</time></trkpt><trkpt lat="44.7802161350894" lon="9.680991068742808"><ele>687.0</ele><time>2026-04-25T11:22:41Z</time></trkpt><trkpt lat="44.78022888968245" lon="9.681141853643354"><ele>685.0</ele><time>2026-04-25T11:22:42Z</time></trkpt><trkpt lat="44.780233138158025" lon="9.681294325264012"><ele>683.0</ele><time>2026-04-25T11:22:43Z</time></trkpt><trkpt lat="44.780243033174045" lon="9.681448489536326"><ele>681.0</ele><time>2026-04-25T11:22:44Z</time></trkpt><trkpt lat="44.78026899465697" lon="9.681595082341612"><ele>679.0</ele><time>2026-04-25T11:22:45Z</time></trkpt><trkpt lat="44.780320801068946" lon="9.681721354836297"><ele>677.0</ele><time>2026-04-25T11:22:46Z</time></trkpt><trkpt lat="44.78039574925424" lon="9.681817998138547"><ele>677.0</ele><time>2026-04-25T11:22:47Z</time></trkpt><trkpt lat="44.78048511220273" lon="9.681876409999255"><ele>677.0</ele><time>2026-04-25T11:22:48Z</time></trkpt><trkpt lat="44.780584532745024" lon="9.681882942951345"><ele>677.0</ele><time>2026-04-25T11:22:49Z</time></trkpt><trkpt lat="44.78068292993828" lon="9.68183145160431"><ele>677.0</ele><time>2026-04-25T11:22:50Z</time></trkpt><trkpt lat="44.78077846163908" lon="9.681757651341794"><ele>677.0</ele><time>2026-04-25T11:22:51Z</time></trkpt><trkpt lat="44.780877808168306" lon="9.681692272846757"><ele>677.0</ele><time>2026-04-25T11:22:52Z</time></trkpt><trkpt lat="44.780984595325" lon="9.68165895038901"><ele>677.0</ele><time>2026-04-25T11:22:53Z</time></trkpt><trkpt lat="44.78109582737267" lon="9.681650817859962"><ele>677.0</ele><time>2026-04-25T11:22:54Z</time></trkpt><trkpt lat="44.78120248183285" lon="9.681666874386107"><ele>677.0</ele><time>2026-04-25T11:22:55Z</time></trkpt><trkpt lat="44.78130493400471" lon="9.681732228878163"><ele>677.0</ele><time>2026-04-25T11:22:56Z</time></trkpt><trkpt lat="44.78139482100529" lon="9.681829593400685"><ele>671.75</ele><time>2026-04-25T11:22:57Z</time></trkpt><trkpt lat="44.781484620026625" lon="9.681933482920186"><ele>666.5</ele><time>2026-04-25T11:22:58Z</time></trkpt><trkpt lat="44.7815788812024" lon="9.682022629181525"><ele>661.25</ele><time>2026-04-25T11:22:59Z</time></trkpt><trkpt lat="44.78169071586291" lon="9.682056274061607"><ele>656.0</ele><time>2026-04-25T11:23:00Z</time></trkpt><trkpt lat="44.78180232331319" lon="9.682035420369065"><ele>655.75</ele><time>2026-04-25T11:23:01Z</time></trkpt><trkpt lat="44.78191047937816" lon="9.681981385246317"><ele>655.5</ele><time>2026-04-25T11:23:02Z</time></trkpt><trkpt lat="44.78201473120418" lon="9.68191584033964"><ele>655.25</ele><time>2026-04-25T11:23:03Z</time></trkpt><trkpt lat="44.78213084868683" lon="9.68189121903579"><ele>655.0</ele><time>2026-04-25T11:23:04Z</time></trkpt><trkpt lat="44.782251170924155" lon="9.681893264659069"><ele>655.0</ele><time>2026-04-25T11:23:05Z</time></trkpt><trkpt lat="44.78237032517689" lon="9.681921929111923"><ele>655.0</ele><time>2026-04-25T11:23:06Z</time></trkpt><trkpt lat="44.78248891763253" lon="9.681957569790576"><ele>655.0</ele><time>2026-04-25T11:23:07Z</time></trkpt><trkpt lat="44.78260767678246" lon="9.681990922161244"><ele>655.0</ele><time>2026-04-25T11:23:08Z</time></trkpt><trkpt lat="44.78272910415668" lon="9.682023730402605"><ele>654.75</ele><time>2026-04-25T11:23:09Z</time></trkpt><trkpt lat="44.78285174774631" lon="9.682061594300734"><ele>654.5</ele><time>2026-04-25T11:23:10Z</time></trkpt><trkpt lat="44.78297097893818" lon="9.682105681410562"><ele>654.25</ele><time>2026-04-25T11:23:11Z</time></trkpt><trkpt lat="44.783081176314" lon="9.682184657924559"><ele>654.0</ele><time>2026-04-25T11:23:12Z</time></trkpt><trkpt lat="44.78318206960739" lon="9.68228807006958"><ele>654.0</ele><time>2026-04-25T11:23:13Z</time></trkpt><trkpt lat="44.783279995842726" lon="9.68239580682604"><ele>654.0</ele><time>2026-04-25T11:23:14Z</time></trkpt><trkpt lat="44.78338512873531" lon="9.682479607918658"><ele>654.0</ele><time>2026-04-25T11:23:15Z</time></trkpt><trkpt lat="44.7835039671139" lon="9.68252054794323"><ele>654.0</ele><time>2026-04-25T11:23:16Z</time></trkpt><trkpt lat="44.783626311827526" lon="9.682550308544345"><ele>651.75</ele><time>2026-04-25T11:23:17Z</time></trkpt><trkpt lat="44.783744693579564" lon="9.682581320193176"><ele>649.5</ele><time>2026-04-25T11:23:18Z</time></trkpt><trkpt lat="44.78386224325618" lon="9.682617917994804"><ele>647.25</ele><time>2026-04-25T11:23:19Z</time></trkpt><trkpt lat="44.78398225476694" lon="9.682649601905293"><ele>645.0</ele><time>2026-04-25T11:23:20Z</time></trkpt><trkpt lat="44.78410201964168" lon="9.682685328151159"><ele>645.0</ele><time>2026-04-25T11:23:21Z</time></trkpt><trkpt lat="44.78421299635081" lon="9.68272932341333"><ele>645.0</ele><time>2026-04-25T11:23:22Z</time></trkpt><trkpt lat="44.7843188056155" lon="9.68281028705827"><ele>645.0</ele><time>2026-04-25T11:23:23Z</time></trkpt><trkpt lat="44.78441589862516" lon="9.682916043010325"><ele>645.0</ele><time>2026-04-25T11:23:24Z</time></trkpt><trkpt lat="44.784514157220514" lon="9.68302512674483"><ele>642.5</ele><time>2026-04-25T11:23:24.999Z</time></trkpt><trkpt lat="44.78461366079093" lon="9.683135635812123"><ele>640.0</ele><time>2026-04-25T11:23:25.999Z</time></trkpt><trkpt lat="44.78471462541504" lon="9.683249495056527"><ele>637.5</ele><time>2026-04-25T11:23:26.999Z</time></trkpt><trkpt lat="44.784815495831914" lon="9.683370935212725"><ele>635.0</ele><time>2026-04-25T11:23:27.999Z</time></trkpt><trkpt lat="44.78490919561378" lon="9.683500696227078"><ele>635.0</ele><time>2026-04-25T11:23:28.999Z</time></trkpt><trkpt lat="44.78499566974101" lon="9.683639694304246"><ele>635.0</ele><time>2026-04-25T11:23:29.999Z</time></trkpt><trkpt lat="44.78507145361215" lon="9.683791608320043"><ele>635.0</ele><time>2026-04-25T11:23:30.999Z</time></trkpt><trkpt lat="44.785137905999896" lon="9.68395076737954"><ele>635.0</ele><time>2026-04-25T11:23:31.999Z</time></trkpt><trkpt lat="44.78519916682941" lon="9.684115006374354"><ele>632.75</ele><time>2026-04-25T11:23:32.999Z</time></trkpt><trkpt lat="44.78526232055676" lon="9.684277192679547"><ele>630.5</ele><time>2026-04-25T11:23:33.999Z</time></trkpt><trkpt lat="44.78532118785557" lon="9.684436233939401"><ele>628.25</ele><time>2026-04-25T11:23:34.999Z</time></trkpt><trkpt lat="44.78538355075452" lon="9.684592406691516"><ele>626.0</ele><time>2026-04-25T11:23:35.999Z</time></trkpt><trkpt lat="44.78544548090643" lon="9.684748697565428"><ele>626.0</ele><time>2026-04-25T11:23:36.999Z</time></trkpt><trkpt lat="44.78549880153448" lon="9.684910296317517"><ele>626.0</ele><time>2026-04-25T11:23:37.999Z</time></trkpt><trkpt lat="44.78554963774669" lon="9.685072706481433"><ele>626.0</ele><time>2026-04-25T11:23:38.999Z</time></trkpt><trkpt lat="44.785599358606895" lon="9.685236319864053"><ele>626.0</ele><time>2026-04-25T11:23:39.999Z</time></trkpt><trkpt lat="44.785668111618016" lon="9.685379393900659"><ele>625.5</ele><time>2026-04-25T11:23:40.999Z</time></trkpt><trkpt lat="44.785749782216605" lon="9.68550492346839"><ele>625.0</ele><time>2026-04-25T11:23:41.999Z</time></trkpt><trkpt lat="44.78585022654366" lon="9.685602615403974"><ele>624.5</ele><time>2026-04-25T11:23:42.999Z</time></trkpt><trkpt lat="44.78595610293191" lon="9.68567158365833"><ele>624.0</ele><time>2026-04-25T11:23:43.999Z</time></trkpt><trkpt lat="44.786065048782824" lon="9.685728231096155"><ele>624.0</ele><time>2026-04-25T11:23:44.999Z</time></trkpt><trkpt lat="44.786174742691394" lon="9.685785779330184"><ele>624.0</ele><time>2026-04-25T11:23:45.999Z</time></trkpt><trkpt lat="44.78627143595107" lon="9.68585504474988"><ele>624.0</ele><time>2026-04-25T11:23:46.999Z</time></trkpt><trkpt lat="44.78635598677606" lon="9.685947354971075"><ele>624.0</ele><time>2026-04-25T11:23:47.999Z</time></trkpt><trkpt lat="44.78642554043618" lon="9.686062442862527"><ele>624.0</ele><time>2026-04-25T11:23:48.999Z</time></trkpt><trkpt lat="44.78647275590117" lon="9.686199755766607"><ele>624.0</ele><time>2026-04-25T11:23:49.999Z</time></trkpt><trkpt lat="44.786513584262536" lon="9.686341578103644"><ele>624.0</ele><time>2026-04-25T11:23:50.999Z</time></trkpt><trkpt lat="44.78655913403492" lon="9.686482831769764"><ele>624.0</ele><time>2026-04-25T11:23:51.999Z</time></trkpt><trkpt lat="44.78659712708758" lon="9.686628051014122"><ele>624.0</ele><time>2026-04-25T11:23:52.999Z</time></trkpt><trkpt lat="44.78663614711816" lon="9.686773074419955"><ele>624.0</ele><time>2026-04-25T11:23:53.999Z</time></trkpt><trkpt lat="44.78667554974385" lon="9.686917700484754"><ele>623.0</ele><time>2026-04-25T11:23:54.999Z</time></trkpt><trkpt lat="44.78670608528943" lon="9.68707029507187"><ele>622.0</ele><time>2026-04-25T11:23:55.999Z</time></trkpt><trkpt lat="44.786733864060366" lon="9.687223489804088"><ele>621.0</ele><time>2026-04-25T11:23:56.999Z</time></trkpt><trkpt lat="44.78675326351278" lon="9.687377254650492"><ele>620.0</ele><time>2026-04-25T11:23:57.999Z</time></trkpt><trkpt lat="44.78676873233728" lon="9.687523020152765"><ele>619.0</ele><time>2026-04-25T11:23:58.999Z</time></trkpt><trkpt lat="44.78679374511906" lon="9.687654805496031"><ele>617.0</ele><time>2026-04-25T11:23:59.999Z</time></trkpt><trkpt lat="44.78684195972764" lon="9.687780261486406"><ele>615.0</ele><time>2026-04-25T11:24:00.999Z</time></trkpt><trkpt lat="44.78690446057555" lon="9.687892332575741"><ele>613.0</ele><time>2026-04-25T11:24:01.999Z</time></trkpt><trkpt lat="44.786975997197395" lon="9.687994212244359"><ele>611.0</ele><time>2026-04-25T11:24:02.999Z</time></trkpt><trkpt lat="44.78704069370951" lon="9.688103212655827"><ele>609.0</ele><time>2026-04-25T11:24:03.999Z</time></trkpt><trkpt lat="44.78708211777476" lon="9.68823195643991"><ele>612.2</ele><time>2026-04-25T11:24:04.999Z</time></trkpt><trkpt lat="44.78709659128385" lon="9.68837184811599"><ele>615.4</ele><time>2026-04-25T11:24:05.999Z</time></trkpt><trkpt lat="44.7870795768482" lon="9.688512975364333"><ele>618.6</ele><time>2026-04-25T11:24:06.999Z</time></trkpt><trkpt lat="44.78703496860137" lon="9.68864404486556"><ele>621.8</ele><time>2026-04-25T11:24:07.999Z</time></trkpt><trkpt lat="44.786983650451916" lon="9.688770036752171"><ele>625.0</ele><time>2026-04-25T11:24:08.999Z</time></trkpt><trkpt lat="44.786934505559934" lon="9.688898993461496"><ele>625.0</ele><time>2026-04-25T11:24:09.999Z</time></trkpt><trkpt lat="44.786889415767206" lon="9.689030211865253"><ele>625.0</ele><time>2026-04-25T11:24:10.999Z</time></trkpt><trkpt lat="44.786844421752185" lon="9.68916300156426"><ele>625.0</ele><time>2026-04-25T11:24:11.999Z</time></trkpt><trkpt lat="44.786811300385466" lon="9.689301979297355"><ele>625.0</ele><time>2026-04-25T11:24:12.999Z</time></trkpt><trkpt lat="44.78680701044098" lon="9.689445770837365"><ele>625.0</ele><time>2026-04-25T11:24:13.999Z</time></trkpt><trkpt lat="44.78683093743073" lon="9.689588294447258"><ele>623.6</ele><time>2026-04-25T11:24:14.999Z</time></trkpt><trkpt lat="44.786882424966265" lon="9.689717492044714"><ele>622.2</ele><time>2026-04-25T11:24:15.999Z</time></trkpt><trkpt lat="44.78696031127203" lon="9.689814925549072"><ele>620.8</ele><time>2026-04-25T11:24:16.999Z</time></trkpt><trkpt lat="44.78705414852405" lon="9.689883104834397"><ele>619.4</ele><time>2026-04-25T11:24:17.999Z</time></trkpt><trkpt lat="44.78714786783718" lon="9.68994893051487"><ele>618.0</ele><time>2026-04-25T11:24:18.999Z</time></trkpt><trkpt lat="44.78723527477689" lon="9.69003605087699"><ele>618.0</ele><time>2026-04-25T11:24:19.999Z</time></trkpt><trkpt lat="44.787313167671236" lon="9.690137632923973"><ele>618.0</ele><time>2026-04-25T11:24:20.999Z</time></trkpt><trkpt lat="44.78737868411807" lon="9.69025724520373"><ele>618.0</ele><time>2026-04-25T11:24:21.999Z</time></trkpt><trkpt lat="44.78741331730725" lon="9.690400730219164"><ele>618.0</ele><time>2026-04-25T11:24:22.999Z</time></trkpt><trkpt lat="44.78743259568378" lon="9.69054771671604"><ele>618.0</ele><time>2026-04-25T11:24:23.999Z</time></trkpt><trkpt lat="44.78746275712336" lon="9.690688991939505"><ele>616.1999999999999</ele><time>2026-04-25T11:24:24.999Z</time></trkpt><trkpt lat="44.78750803006314" lon="9.6908274647114"><ele>614.4</ele><time>2026-04-25T11:24:25.999Z</time></trkpt><trkpt lat="44.78756319431549" lon="9.690962044732156"><ele>612.5999999999999</ele><time>2026-04-25T11:24:26.998Z</time></trkpt><trkpt lat="44.78761961701268" lon="9.691097017438215"><ele>610.8</ele><time>2026-04-25T11:24:27.998Z</time></trkpt><trkpt lat="44.787675768315296" lon="9.691235483908756"><ele>609.0</ele><time>2026-04-25T11:24:29Z</time></trkpt><trkpt lat="44.787731268136994" lon="9.691370763974584"><ele>609.0</ele><time>2026-04-25T11:24:30Z</time></trkpt><trkpt lat="44.787765166740016" lon="9.691502697797224"><ele>609.0</ele><time>2026-04-25T11:24:31Z</time></trkpt><trkpt lat="44.78777049954967" lon="9.691643310956765"><ele>609.0</ele><time>2026-04-25T11:24:32Z</time></trkpt><trkpt lat="44.787738464739135" lon="9.691779635756486"><ele>609.0</ele><time>2026-04-25T11:24:33Z</time></trkpt><trkpt lat="44.78768078093088" lon="9.691905090745173"><ele>609.0</ele><time>2026-04-25T11:24:34Z</time></trkpt><trkpt lat="44.787631969558205" lon="9.692025141731373"><ele>607.8</ele><time>2026-04-25T11:24:35Z</time></trkpt><trkpt lat="44.78760945468262" lon="9.692141222014751"><ele>606.5999999999999</ele><time>2026-04-25T11:24:36Z</time></trkpt><trkpt lat="44.787637583218284" lon="9.692258061346342"><ele>605.4</ele><time>2026-04-25T11:24:37Z</time></trkpt><trkpt lat="44.787706191032974" lon="9.692350760771667"><ele>604.1999999999999</ele><time>2026-04-25T11:24:38Z</time></trkpt><trkpt lat="44.78779319453914" lon="9.692414147915384"><ele>603.0</ele><time>2026-04-25T11:24:39Z</time></trkpt><trkpt lat="44.787885411108384" lon="9.692467560781207"><ele>603.0</ele><time>2026-04-25T11:24:40Z</time></trkpt><trkpt lat="44.78797904140616" lon="9.692519827394486"><ele>603.0</ele><time>2026-04-25T11:24:41Z</time></trkpt><trkpt lat="44.78807125782531" lon="9.692587927889974"><ele>603.0</ele><time>2026-04-25T11:24:42Z</time></trkpt><trkpt lat="44.78816442656458" lon="9.69267232975522"><ele>603.0</ele><time>2026-04-25T11:24:43Z</time></trkpt><trkpt lat="44.78825711865641" lon="9.692757594090669"><ele>603.0</ele><time>2026-04-25T11:24:44Z</time></trkpt><trkpt lat="44.7883525507844" lon="9.692848374625738"><ele>601.5</ele><time>2026-04-25T11:24:45Z</time></trkpt><trkpt lat="44.78843600405309" lon="9.692965903317774"><ele>600.0</ele><time>2026-04-25T11:24:46Z</time></trkpt><trkpt lat="44.788498144953216" lon="9.693113962995202"><ele>598.5</ele><time>2026-04-25T11:24:47Z</time></trkpt><trkpt lat="44.78854193319943" lon="9.693275299302801"><ele>597.0</ele><time>2026-04-25T11:24:48Z</time></trkpt><trkpt lat="44.78858357923076" lon="9.693436909172098"><ele>594.75</ele><time>2026-04-25T11:24:49Z</time></trkpt><trkpt lat="44.788626769487244" lon="9.693601175404165"><ele>592.5</ele><time>2026-04-25T11:24:50Z</time></trkpt><trkpt lat="44.78867263834901" lon="9.693764968924203"><ele>590.25</ele><time>2026-04-25T11:24:51Z</time></trkpt><trkpt lat="44.78871534095867" lon="9.693932788090956"><ele>588.0</ele><time>2026-04-25T11:24:52Z</time></trkpt><trkpt lat="44.78873969657144" lon="9.694108462047861"><ele>588.0</ele><time>2026-04-25T11:24:53Z</time></trkpt><trkpt lat="44.7887599452182" lon="9.694290316487887"><ele>588.0</ele><time>2026-04-25T11:24:54Z</time></trkpt><trkpt lat="44.78878673956906" lon="9.694467119106376"><ele>588.0</ele><time>2026-04-25T11:24:55Z</time></trkpt><trkpt lat="44.788832672657314" lon="9.694640329738071"><ele>588.0</ele><time>2026-04-25T11:24:56Z</time></trkpt><trkpt lat="44.78886444480112" lon="9.694821978180736"><ele>585.0</ele><time>2026-04-25T11:24:57Z</time></trkpt><trkpt lat="44.7889189494534" lon="9.694996371763198"><ele>582.0</ele><time>2026-04-25T11:24:58Z</time></trkpt><trkpt lat="44.788957082261746" lon="9.695174822996451"><ele>579.0</ele><time>2026-04-25T11:24:59Z</time></trkpt><trkpt lat="44.78900090890347" lon="9.695340930304278"><ele>576.0</ele><time>2026-04-25T11:25:00Z</time></trkpt><trkpt lat="44.78904570134949" lon="9.695494633859118"><ele>574.6</ele><time>2026-04-25T11:25:01Z</time></trkpt><trkpt lat="44.789086751512365" lon="9.695646443419117"><ele>573.2</ele><time>2026-04-25T11:25:02Z</time></trkpt><trkpt lat="44.78912173957882" lon="9.695789893621372"><ele>571.8</ele><time>2026-04-25T11:25:03Z</time></trkpt><trkpt lat="44.78916139611172" lon="9.695926233742291"><ele>570.4</ele><time>2026-04-25T11:25:04Z</time></trkpt><trkpt lat="44.78921408062791" lon="9.69603826880739"><ele>569.0</ele><time>2026-04-25T11:25:05Z</time></trkpt><trkpt lat="44.78928339576727" lon="9.696119294125442"><ele>569.0</ele><time>2026-04-25T11:25:06Z</time></trkpt><trkpt lat="44.78935872447838" lon="9.696168782159212"><ele>569.0</ele><time>2026-04-25T11:25:07Z</time></trkpt><trkpt lat="44.78943900820458" lon="9.696193885020872"><ele>569.0</ele><time>2026-04-25T11:25:08Z</time></trkpt><trkpt lat="44.78951598290296" lon="9.696199214285787"><ele>569.0</ele><time>2026-04-25T11:25:09Z</time></trkpt><trkpt lat="44.78957998901539" lon="9.696187855048677"><ele>569.0</ele><time>2026-04-25T11:25:10Z</time></trkpt><trkpt lat="44.78967263785804" lon="9.696194238690014"><ele>569.0</ele><time>2026-04-25T11:25:12Z</time></trkpt><trkpt lat="44.78970723067223" lon="9.696062085800703"><ele>569.0</ele><time>2026-04-25T11:25:13Z</time></trkpt><trkpt lat="44.78975219061198" lon="9.695978678339422"><ele>569.0</ele><time>2026-04-25T11:25:15Z</time></trkpt><trkpt lat="44.78979381396071" lon="9.695888762195167"><ele>569.0</ele><time>2026-04-25T11:25:19Z</time></trkpt><trkpt lat="44.7898255895038" lon="9.695779226152657"><ele>569.0</ele><time>2026-04-25T11:25:22.999Z</time></trkpt><trkpt lat="44.789861604702295" lon="9.695702544837593"><ele>569.0</ele><time>2026-04-25T11:25:24.999Z</time></trkpt><trkpt lat="44.78989971951305" lon="9.695603739827188"><ele>569.0</ele><time>2026-04-25T11:25:26.999Z</time></trkpt><trkpt lat="44.78993317742772" lon="9.695484635877959"><ele>569.0</ele><time>2026-04-25T11:25:28.999Z</time></trkpt><trkpt lat="44.78998406502616" lon="9.695360593710337"><ele>569.0</ele><time>2026-04-25T11:25:30.999Z</time></trkpt><trkpt lat="44.790030691653975" lon="9.695223895277065"><ele>569.0</ele><time>2026-04-25T11:25:32.999Z</time></trkpt><trkpt lat="44.790076705947996" lon="9.695076311199491"><ele>569.0</ele><time>2026-04-25T11:25:34.999Z</time></trkpt><trkpt lat="44.79013317871519" lon="9.694919570977868"><ele>569.0</ele><time>2026-04-25T11:25:36.999Z</time></trkpt><trkpt lat="44.790173367328634" lon="9.694842377909302"><ele>568.0</ele><time>2026-04-25T11:25:37.999Z</time></trkpt><trkpt lat="44.79022145544944" lon="9.6947740982693"><ele>567.0</ele><time>2026-04-25T11:25:38.999Z</time></trkpt><trkpt lat="44.79027387967607" lon="9.694717981532403"><ele>566.0</ele><time>2026-04-25T11:25:39.999Z</time></trkpt><trkpt lat="44.790327389572816" lon="9.694663748971257"><ele>565.0</ele><time>2026-04-25T11:25:40.999Z</time></trkpt><trkpt lat="44.79038275815469" lon="9.694613028954805"><ele>564.0</ele><time>2026-04-25T11:25:41.999Z</time></trkpt><trkpt lat="44.790488473576325" lon="9.694528643070871"><ele>563.0</ele><time>2026-04-25T11:25:43.999Z</time></trkpt><trkpt lat="44.790587204347766" lon="9.694440959814353"><ele>564.6</ele><time>2026-04-25T11:25:45.999Z</time></trkpt><trkpt lat="44.79068335974273" lon="9.69435247519"><ele>566.1999999999999</ele><time>2026-04-25T11:25:47.999Z</time></trkpt><trkpt lat="44.79077532681492" lon="9.694252885300756"><ele>567.8</ele><time>2026-04-25T11:25:49.999Z</time></trkpt><trkpt lat="44.79084533325282" lon="9.694128425188534"><ele>569.4</ele><time>2026-04-25T11:25:51.999Z</time></trkpt><trkpt lat="44.79089747441906" lon="9.694002724315071"><ele>571.0</ele><time>2026-04-25T11:25:53.999Z</time></trkpt><trkpt lat="44.79093376323672" lon="9.693874005980865"><ele>571.0</ele><time>2026-04-25T11:25:55.999Z</time></trkpt><trkpt lat="44.790946634669595" lon="9.693743999307152"><ele>571.0</ele><time>2026-04-25T11:25:57.999Z</time></trkpt><trkpt lat="44.79098631738485" lon="9.693628769055373"><ele>571.0</ele><time>2026-04-25T11:25:59.999Z</time></trkpt><trkpt lat="44.79102026611941" lon="9.693510982128688"><ele>571.0</ele><time>2026-04-25T11:26:01.999Z</time></trkpt><trkpt lat="44.791075886722474" lon="9.693408929566566"><ele>571.0</ele><time>2026-04-25T11:26:03.999Z</time></trkpt><trkpt lat="44.79112221143481" lon="9.693316899026735"><ele>571.0</ele><time>2026-04-25T11:26:05.999Z</time></trkpt><trkpt lat="44.79117091879948" lon="9.693232322916648"><ele>571.0</ele><time>2026-04-25T11:26:07.999Z</time></trkpt><trkpt lat="44.79120100197374" lon="9.693137678940724"><ele>571.0</ele><time>2026-04-25T11:26:09.999Z</time></trkpt><trkpt lat="44.79126037395351" lon="9.693067083145763"><ele>571.0</ele><time>2026-04-25T11:26:11.999Z</time></trkpt><trkpt lat="44.79132192909674" lon="9.693009495707063"><ele>571.0</ele><time>2026-04-25T11:26:13.999Z</time></trkpt><trkpt lat="44.79138949160169" lon="9.692960592483125"><ele>571.0</ele><time>2026-04-25T11:26:15.999Z</time></trkpt><trkpt lat="44.791460669598315" lon="9.692928704065169"><ele>571.0</ele><time>2026-04-25T11:26:17.999Z</time></trkpt><trkpt lat="44.791537347435785" lon="9.692909726489509"><ele>571.0</ele><time>2026-04-25T11:26:19.998Z</time></trkpt><trkpt lat="44.79161549230833" lon="9.692887484542759"><ele>571.0</ele><time>2026-04-25T11:26:21.998Z</time></trkpt><trkpt lat="44.79170294017699" lon="9.692869664508557"><ele>571.0</ele><time>2026-04-25T11:26:24.998Z</time></trkpt><trkpt lat="44.79177094529029" lon="9.692853994915328"><ele>571.0</ele><time>2026-04-25T11:26:26.998Z</time></trkpt><trkpt lat="44.791843099185655" lon="9.692847389606088"><ele>571.0</ele><time>2026-04-25T11:26:28.998Z</time></trkpt><trkpt lat="44.79191489270746" lon="9.69284486490946"><ele>571.0</ele><time>2026-04-25T11:26:30.998Z</time></trkpt><trkpt lat="44.7919869048358" lon="9.692851321971222"><ele>571.3333333333334</ele><time>2026-04-25T11:26:32.998Z</time></trkpt><trkpt lat="44.79205906051606" lon="9.69285943916661"><ele>571.6666666666667</ele><time>2026-04-25T11:26:35Z</time></trkpt><trkpt lat="44.7921282826723" lon="9.692878777607088"><ele>572.0</ele><time>2026-04-25T11:26:37Z</time></trkpt><trkpt lat="44.792227821200164" lon="9.69290833729322"><ele>572.3333333333334</ele><time>2026-04-25T11:26:40Z</time></trkpt><trkpt lat="44.792314067076674" lon="9.692930087313778"><ele>572.6666666666666</ele><time>2026-04-25T11:26:42Z</time></trkpt><trkpt lat="44.79239518558126" lon="9.692923998959957"><ele>573.0</ele><time>2026-04-25T11:26:44Z</time></trkpt><trkpt lat="44.79246246184164" lon="9.692882674655863"><ele>573.0</ele><time>2026-04-25T11:26:46Z</time></trkpt><trkpt lat="44.7925163799133" lon="9.69281447192403"><ele>573.0</ele><time>2026-04-25T11:26:49Z</time></trkpt><trkpt lat="44.79255705713578" lon="9.692707796344685"><ele>573.0</ele><time>2026-04-25T11:26:52Z</time></trkpt><trkpt lat="44.79255614508209" lon="9.692606111875298"><ele>573.0</ele><time>2026-04-25T11:26:54Z</time></trkpt><trkpt lat="44.79249424883526" lon="9.692527290464934"><ele>573.0</ele><time>2026-04-25T11:26:57Z</time></trkpt><trkpt lat="44.79241036652032" lon="9.692520925155376"><ele>573.0</ele><time>2026-04-25T11:27:00Z</time></trkpt><trkpt lat="44.79233361963787" lon="9.692538110880568"><ele>574.8333333333334</ele><time>2026-04-25T11:27:03Z</time></trkpt><trkpt lat="44.792252750644344" lon="9.692527950914913"><ele>576.6666666666666</ele><time>2026-04-25T11:27:06Z</time></trkpt><trkpt lat="44.79220154003148" lon="9.692471429039832"><ele>578.5</ele><time>2026-04-25T11:27:08Z</time></trkpt><trkpt lat="44.792210815132286" lon="9.69236279960036"><ele>580.3333333333333</ele><time>2026-04-25T11:27:11Z</time></trkpt><trkpt lat="44.792267258866964" lon="9.692288652809733"><ele>582.1666666666666</ele><time>2026-04-25T11:27:14Z</time></trkpt><trkpt lat="44.79233682984396" lon="9.692243993654314"><ele>584.0</ele><time>2026-04-25T11:27:17Z</time></trkpt><trkpt lat="44.79240897228088" lon="9.692206452834059"><ele>584.0</ele><time>2026-04-25T11:27:20Z</time></trkpt><trkpt lat="44.792462121570665" lon="9.692153709709551"><ele>584.0</ele><time>2026-04-25T11:27:22.999Z</time></trkpt><trkpt lat="44.7925283678789" lon="9.6921119985116"><ele>584.0</ele><time>2026-04-25T11:27:24.999Z</time></trkpt><trkpt lat="44.79259662241997" lon="9.69207307178911"><ele>584.0</ele><time>2026-04-25T11:27:27.999Z</time></trkpt><trkpt lat="44.79269145795195" lon="9.692026213572342"><ele>584.0</ele><time>2026-04-25T11:27:30.999Z</time></trkpt><trkpt lat="44.792765361197326" lon="9.691993480407463"><ele>584.0</ele><time>2026-04-25T11:27:33.999Z</time></trkpt><trkpt lat="44.79285544546108" lon="9.691932006325656"><ele>587.3333333333333</ele><time>2026-04-25T11:27:36.999Z</time></trkpt><trkpt lat="44.792923793403524" lon="9.691893831444355"><ele>590.6666666666666</ele><time>2026-04-25T11:27:39.999Z</time></trkpt><trkpt lat="44.79301165640363" lon="9.691857626699761"><ele>594.0</ele><time>2026-04-25T11:27:42.999Z</time></trkpt><trkpt lat="44.79309151665789" lon="9.691834613147067"><ele>597.3333333333334</ele><time>2026-04-25T11:27:45.999Z</time></trkpt><trkpt lat="44.79320738908791" lon="9.691794758190321"><ele>600.6666666666667</ele><time>2026-04-25T11:27:48.999Z</time></trkpt><trkpt lat="44.793282190810544" lon="9.691786366401823"><ele>604.0</ele><time>2026-04-25T11:27:51.999Z</time></trkpt><trkpt lat="44.793360200189845" lon="9.691782094416613"><ele>604.0</ele><time>2026-04-25T11:27:54.999Z</time></trkpt><trkpt lat="44.79344499543193" lon="9.691780706802037"><ele>604.0</ele><time>2026-04-25T11:27:57.999Z</time></trkpt><trkpt lat="44.79353092340135" lon="9.691777391536068"><ele>604.0</ele><time>2026-04-25T11:28:00.999Z</time></trkpt><trkpt lat="44.79361392983387" lon="9.69176796479553"><ele>604.0</ele><time>2026-04-25T11:28:03.999Z</time></trkpt><trkpt lat="44.793696017388186" lon="9.69173914750879"><ele>604.0</ele><time>2026-04-25T11:28:06.999Z</time></trkpt><trkpt lat="44.793778267088975" lon="9.6916910637906"><ele>604.0</ele><time>2026-04-25T11:28:09.999Z</time></trkpt><trkpt lat="44.793836678293424" lon="9.69165113722936"><ele>604.1666666666667</ele><time>2026-04-25T11:28:11.999Z</time></trkpt><trkpt lat="44.79392889943147" lon="9.691613077315191"><ele>604.3333333333334</ele><time>2026-04-25T11:28:14.999Z</time></trkpt><trkpt lat="44.793992955892215" lon="9.691596308095399"><ele>604.5</ele><time>2026-04-25T11:28:16.998Z</time></trkpt><trkpt lat="44.794058673213385" lon="9.691590280648207"><ele>604.6666666666666</ele><time>2026-04-25T11:28:18.998Z</time></trkpt><trkpt lat="44.794122238353864" lon="9.69158896347879"><ele>604.8333333333333</ele><time>2026-04-25T11:28:20.998Z</time></trkpt><trkpt lat="44.794206732562905" lon="9.69158706161389"><ele>605.0</ele><time>2026-04-25T11:28:23.998Z</time></trkpt><trkpt lat="44.794296888218994" lon="9.691554809805117"><ele>605.2</ele><time>2026-04-25T11:28:27.998Z</time></trkpt><trkpt lat="44.794397104872395" lon="9.691520305460482"><ele>605.4</ele><time>2026-04-25T11:28:30.998Z</time></trkpt><trkpt lat="44.794464510851185" lon="9.691500453677278"><ele>605.6</ele><time>2026-04-25T11:28:32.998Z</time></trkpt><trkpt lat="44.79453014245057" lon="9.691465238324962"><ele>605.8</ele><time>2026-04-25T11:28:34.998Z</time></trkpt><trkpt lat="44.79468116392581" lon="9.691404090913526"><ele>606.0</ele><time>2026-04-25T11:28:36.998Z</time></trkpt><trkpt lat="44.794739146071365" lon="9.69135080021648"><ele>606.0</ele><time>2026-04-25T11:28:38.998Z</time></trkpt><trkpt lat="44.79479319679677" lon="9.691291216281734"><ele>606.0</ele><time>2026-04-25T11:28:41Z</time></trkpt><trkpt lat="44.79485141656076" lon="9.691238199669888"><ele>606.0</ele><time>2026-04-25T11:28:43Z</time></trkpt><trkpt lat="44.79490795546944" lon="9.691176908798926"><ele>606.0</ele><time>2026-04-25T11:28:45Z</time></trkpt><trkpt lat="44.79496653852752" lon="9.691114119657835"><ele>606.0</ele><time>2026-04-25T11:28:47Z</time></trkpt><trkpt lat="44.79502199375123" lon="9.691047577866902"><ele>606.0</ele><time>2026-04-25T11:28:49Z</time></trkpt><trkpt lat="44.7950815862078" lon="9.690975217405867"><ele>606.0</ele><time>2026-04-25T11:28:51Z</time></trkpt><trkpt lat="44.795148636740066" lon="9.690909243636375"><ele>607.0</ele><time>2026-04-25T11:28:53Z</time></trkpt><trkpt lat="44.795221001735676" lon="9.690833223715908"><ele>608.0</ele><time>2026-04-25T11:28:55Z</time></trkpt><trkpt lat="44.79528038350824" lon="9.690752779008257"><ele>609.0</ele><time>2026-04-25T11:28:57Z</time></trkpt><trkpt lat="44.79535744646634" lon="9.690676956333503"><ele>610.0</ele><time>2026-04-25T11:28:59Z</time></trkpt><trkpt lat="44.79543153220763" lon="9.690589103986385"><ele>611.0</ele><time>2026-04-25T11:29:01Z</time></trkpt><trkpt lat="44.79551403510703" lon="9.690496061314098"><ele>611.0</ele><time>2026-04-25T11:29:03Z</time></trkpt><trkpt lat="44.79561034481976" lon="9.690427977102088"><ele>611.0</ele><time>2026-04-25T11:29:05Z</time></trkpt><trkpt lat="44.79569279793975" lon="9.690314999931921"><ele>611.0</ele><time>2026-04-25T11:29:07Z</time></trkpt><trkpt lat="44.79580209573493" lon="9.690219013487232"><ele>611.0</ele><time>2026-04-25T11:29:09Z</time></trkpt><trkpt lat="44.7958566496705" lon="9.69015995388287"><ele>611.0</ele><time>2026-04-25T11:29:10Z</time></trkpt><trkpt lat="44.79591232616538" lon="9.690099690371941"><ele>611.0</ele><time>2026-04-25T11:29:11Z</time></trkpt><trkpt lat="44.79597153868704" lon="9.690035599420158"><ele>611.0</ele><time>2026-04-25T11:29:12Z</time></trkpt><trkpt lat="44.796033348139964" lon="9.689968697735692"><ele>611.0</ele><time>2026-04-25T11:29:13Z</time></trkpt><trkpt lat="44.796096462394495" lon="9.689899709850444"><ele>611.0</ele><time>2026-04-25T11:29:14Z</time></trkpt><trkpt lat="44.79615941942933" lon="9.689830794068643"><ele>611.0</ele><time>2026-04-25T11:29:15Z</time></trkpt><trkpt lat="44.79622170678905" lon="9.689764127724983"><ele>611.0</ele><time>2026-04-25T11:29:16Z</time></trkpt><trkpt lat="44.79628943280335" lon="9.689685899816388"><ele>610.0</ele><time>2026-04-25T11:29:17Z</time></trkpt><trkpt lat="44.79634874828157" lon="9.689597596403791"><ele>609.0</ele><time>2026-04-25T11:29:18Z</time></trkpt><trkpt lat="44.796410643696625" lon="9.689497188254597"><ele>608.0</ele><time>2026-04-25T11:29:18.999Z</time></trkpt><trkpt lat="44.796468026764714" lon="9.689385067170653"><ele>607.0</ele><time>2026-04-25T11:29:19.999Z</time></trkpt><trkpt lat="44.79652056609679" lon="9.689276520575971"><ele>606.0</ele><time>2026-04-25T11:29:20.999Z</time></trkpt><trkpt lat="44.796573103743974" lon="9.689167977533751"><ele>606.0</ele><time>2026-04-25T11:29:21.999Z</time></trkpt><trkpt lat="44.79662777610737" lon="9.68905502366882"><ele>606.0</ele><time>2026-04-25T11:29:22.999Z</time></trkpt><trkpt lat="44.79668126041085" lon="9.68894680550476"><ele>606.0</ele><time>2026-04-25T11:29:23.999Z</time></trkpt><trkpt lat="44.79674077059497" lon="9.688838862256803"><ele>606.0</ele><time>2026-04-25T11:29:24.999Z</time></trkpt><trkpt lat="44.79680891841188" lon="9.688733704203388"><ele>606.0</ele><time>2026-04-25T11:29:25.999Z</time></trkpt><trkpt lat="44.79687211055304" lon="9.688615085207672"><ele>605.4</ele><time>2026-04-25T11:29:26.999Z</time></trkpt><trkpt lat="44.796962496736114" lon="9.688526343208618"><ele>604.8</ele><time>2026-04-25T11:29:27.999Z</time></trkpt><trkpt lat="44.797039152928356" lon="9.688421103427926"><ele>604.1999999999999</ele><time>2026-04-25T11:29:28.999Z</time></trkpt><trkpt lat="44.79709081872794" lon="9.688297546736022"><ele>603.6</ele><time>2026-04-25T11:29:29.999Z</time></trkpt><trkpt lat="44.79716248669792" lon="9.688197581197604"><ele>603.0</ele><time>2026-04-25T11:29:30.999Z</time></trkpt><trkpt lat="44.79720713341649" lon="9.688065176495645"><ele>603.0</ele><time>2026-04-25T11:29:31.999Z</time></trkpt><trkpt lat="44.797272875413206" lon="9.687962633293129"><ele>603.0</ele><time>2026-04-25T11:29:32.999Z</time></trkpt><trkpt lat="44.797312040637465" lon="9.687840715314348"><ele>603.0</ele><time>2026-04-25T11:29:33.999Z</time></trkpt><trkpt lat="44.797383702643124" lon="9.687750809452899"><ele>603.0</ele><time>2026-04-25T11:29:34.999Z</time></trkpt><trkpt lat="44.79743222939541" lon="9.687631500322766"><ele>603.0</ele><time>2026-04-25T11:29:35.999Z</time></trkpt><trkpt lat="44.79750396443076" lon="9.687546520810491"><ele>600.0</ele><time>2026-04-25T11:29:36.999Z</time></trkpt><trkpt lat="44.79757780616032" lon="9.687475427058578"><ele>597.0</ele><time>2026-04-25T11:29:37.999Z</time></trkpt><trkpt lat="44.79765255150371" lon="9.68740298775649"><ele>594.0</ele><time>2026-04-25T11:29:38.999Z</time></trkpt><trkpt lat="44.797738910869015" lon="9.687364126648452"><ele>591.0</ele><time>2026-04-25T11:29:39.999Z</time></trkpt><trkpt lat="44.797829846899674" lon="9.68735096134307"><ele>588.0</ele><time>2026-04-25T11:29:40.999Z</time></trkpt><trkpt lat="44.79792087573563" lon="9.687345819447854"><ele>588.0</ele><time>2026-04-25T11:29:41.999Z</time></trkpt><trkpt lat="44.7980203607726" lon="9.687347827154957"><ele>588.0</ele><time>2026-04-25T11:29:42.999Z</time></trkpt><trkpt lat="44.79810354780125" lon="9.687345644049831"><ele>588.0</ele><time>2026-04-25T11:29:43.999Z</time></trkpt><trkpt lat="44.79817591068518" lon="9.687308550244467"><ele>588.0</ele><time>2026-04-25T11:29:44.999Z</time></trkpt><trkpt lat="44.79822062312425" lon="9.687241557784448"><ele>588.0</ele><time>2026-04-25T11:29:45.999Z</time></trkpt><trkpt lat="44.79822242590937" lon="9.687056178314984"><ele>588.0</ele><time>2026-04-25T11:29:47.999Z</time></trkpt><trkpt lat="44.79815897751171" lon="9.686975710600931"><ele>588.0</ele><time>2026-04-25T11:29:48.999Z</time></trkpt><trkpt lat="44.79804896130304" lon="9.687013197648435"><ele>588.0</ele><time>2026-04-25T11:29:49.999Z</time></trkpt><trkpt lat="44.79798527180468" lon="9.68701014568614"><ele>588.0</ele><time>2026-04-25T11:29:50.999Z</time></trkpt><trkpt lat="44.797883298734895" lon="9.686980630551398"><ele>588.0</ele><time>2026-04-25T11:29:52.999Z</time></trkpt><trkpt lat="44.79786911955291" lon="9.686883961961634"><ele>588.0</ele><time>2026-04-25T11:29:53.999Z</time></trkpt><trkpt lat="44.79790122857632" lon="9.686790539726797"><ele>585.8333333333334</ele><time>2026-04-25T11:29:54.999Z</time></trkpt><trkpt lat="44.79797195261161" lon="9.686727898636041"><ele>583.6666666666666</ele><time>2026-04-25T11:29:55.999Z</time></trkpt><trkpt lat="44.798060348721705" lon="9.686716287005188"><ele>581.5</ele><time>2026-04-25T11:29:56.999Z</time></trkpt><trkpt lat="44.79814692917838" lon="9.686740785199046"><ele>579.3333333333333</ele><time>2026-04-25T11:29:57.999Z</time></trkpt><trkpt lat="44.798223932451805" lon="9.686776829262445"><ele>577.1666666666666</ele><time>2026-04-25T11:29:58.999Z</time></trkpt><trkpt lat="44.798311433422526" lon="9.686816011186345"><ele>575.0</ele><time>2026-04-25T11:29:59.999Z</time></trkpt><trkpt lat="44.79839669297155" lon="9.686860994038"><ele>575.0</ele><time>2026-04-25T11:30:00.999Z</time></trkpt><trkpt lat="44.798485119044045" lon="9.686905237103112"><ele>575.0</ele><time>2026-04-25T11:30:01.999Z</time></trkpt><trkpt lat="44.79858816292694" lon="9.686943942366753"><ele>575.0</ele><time>2026-04-25T11:30:02.999Z</time></trkpt><trkpt lat="44.79869159717402" lon="9.686985682894719"><ele>575.0</ele><time>2026-04-25T11:30:03.999Z</time></trkpt><trkpt lat="44.79879407334009" lon="9.687033104795583"><ele>575.0</ele><time>2026-04-25T11:30:04.999Z</time></trkpt><trkpt lat="44.798898260457186" lon="9.68707955508021"><ele>575.2</ele><time>2026-04-25T11:30:05.999Z</time></trkpt><trkpt lat="44.79899799510748" lon="9.687119625856575"><ele>575.4</ele><time>2026-04-25T11:30:06.999Z</time></trkpt><trkpt lat="44.79910472585899" lon="9.687150204666608"><ele>575.6</ele><time>2026-04-25T11:30:07.999Z</time></trkpt><trkpt lat="44.7992101780944" lon="9.687166841303581"><ele>575.8</ele><time>2026-04-25T11:30:08.999Z</time></trkpt><trkpt lat="44.79931553412678" lon="9.687181421094616"><ele>576.0</ele><time>2026-04-25T11:30:09.999Z</time></trkpt><trkpt lat="44.79941217112958" lon="9.687212788170687"><ele>573.0</ele><time>2026-04-25T11:30:10.999Z</time></trkpt><trkpt lat="44.79951074693109" lon="9.687254119986603"><ele>570.0</ele><time>2026-04-25T11:30:11.999Z</time></trkpt><trkpt lat="44.79960427657866" lon="9.687312778739278"><ele>567.0</ele><time>2026-04-25T11:30:12.999Z</time></trkpt><trkpt lat="44.79969267096347" lon="9.687377377229797"><ele>564.0</ele><time>2026-04-25T11:30:13.998Z</time></trkpt><trkpt lat="44.79978592989644" lon="9.68742351621912"><ele>561.0</ele><time>2026-04-25T11:30:14.998Z</time></trkpt><trkpt lat="44.79988234631816" lon="9.68745253834412"><ele>561.0</ele><time>2026-04-25T11:30:15.998Z</time></trkpt><trkpt lat="44.79998598960536" lon="9.687458139840858"><ele>561.0</ele><time>2026-04-25T11:30:16.998Z</time></trkpt><trkpt lat="44.80009614868263" lon="9.687448132253216"><ele>561.0</ele><time>2026-04-25T11:30:17.998Z</time></trkpt><trkpt lat="44.80021000315742" lon="9.687450082906837"><ele>561.0</ele><time>2026-04-25T11:30:18.998Z</time></trkpt><trkpt lat="44.800327410082545" lon="9.687442525022238"><ele>561.0</ele><time>2026-04-25T11:30:19.998Z</time></trkpt><trkpt lat="44.800442619202656" lon="9.687440855890001"><ele>558.0</ele><time>2026-04-25T11:30:20.998Z</time></trkpt><trkpt lat="44.80056107798837" lon="9.687442532458943"><ele>555.0</ele><time>2026-04-25T11:30:21.998Z</time></trkpt><trkpt lat="44.800675242170804" lon="9.687453173925492"><ele>552.0</ele><time>2026-04-25T11:30:22.998Z</time></trkpt><trkpt lat="44.80078603684035" lon="9.687462733878998"><ele>549.0</ele><time>2026-04-25T11:30:23.998Z</time></trkpt><trkpt lat="44.800895738561195" lon="9.687452330916717"><ele>546.0</ele><time>2026-04-25T11:30:24.998Z</time></trkpt><trkpt lat="44.8010019432174" lon="9.687421152295334"><ele>543.0</ele><time>2026-04-25T11:30:25.998Z</time></trkpt><trkpt lat="44.80110340493102" lon="9.687396606634511"><ele>540.0</ele><time>2026-04-25T11:30:26.998Z</time></trkpt><trkpt lat="44.80119695754791" lon="9.687361257853862"><ele>537.0</ele><time>2026-04-25T11:30:27.998Z</time></trkpt><trkpt lat="44.80128919925074" lon="9.687354901772324"><ele>534.0</ele><time>2026-04-25T11:30:28.998Z</time></trkpt><trkpt lat="44.80138530680328" lon="9.687390135056274"><ele>534.0</ele><time>2026-04-25T11:30:29.998Z</time></trkpt><trkpt lat="44.80147985941303" lon="9.687466296907841"><ele>534.0</ele><time>2026-04-25T11:30:30.998Z</time></trkpt><trkpt lat="44.80158087040473" lon="9.687503650344043"><ele>534.0</ele><time>2026-04-25T11:30:31.998Z</time></trkpt><trkpt lat="44.801656987177005" lon="9.687659834729601"><ele>534.0</ele><time>2026-04-25T11:30:32.998Z</time></trkpt><trkpt lat="44.80173938014841" lon="9.687776401093393"><ele>536.0</ele><time>2026-04-25T11:30:33.998Z</time></trkpt><trkpt lat="44.801813342589014" lon="9.687909396017778"><ele>538.0</ele><time>2026-04-25T11:30:34.998Z</time></trkpt><trkpt lat="44.80187913241011" lon="9.688053919816342"><ele>540.0</ele><time>2026-04-25T11:30:35.998Z</time></trkpt><trkpt lat="44.80194439942451" lon="9.688198590589694"><ele>542.0</ele><time>2026-04-25T11:30:36.998Z</time></trkpt><trkpt lat="44.80201739814795" lon="9.68832850851157"><ele>538.5</ele><time>2026-04-25T11:30:37.998Z</time></trkpt><trkpt lat="44.8020934397713" lon="9.68844419623166"><ele>535.0</ele><time>2026-04-25T11:30:38.998Z</time></trkpt><trkpt lat="44.80218674492759" lon="9.688549605000789"><ele>531.5</ele><time>2026-04-25T11:30:39.998Z</time></trkpt><trkpt lat="44.80228130187324" lon="9.688642857919188"><ele>528.0</ele><time>2026-04-25T11:30:40.998Z</time></trkpt><trkpt lat="44.80237242967058" lon="9.688727568105968"><ele>528.0</ele><time>2026-04-25T11:30:41.998Z</time></trkpt><trkpt lat="44.80245023229959" lon="9.688816299843475"><ele>528.0</ele><time>2026-04-25T11:30:42.998Z</time></trkpt><trkpt lat="44.802503056699386" lon="9.688939313222162"><ele>528.0</ele><time>2026-04-25T11:30:43.998Z</time></trkpt><trkpt lat="44.80253301261593" lon="9.689080016636193"><ele>528.0</ele><time>2026-04-25T11:30:44.998Z</time></trkpt><trkpt lat="44.80253793883498" lon="9.689221297246982"><ele>528.0</ele><time>2026-04-25T11:30:46Z</time></trkpt><trkpt lat="44.8025442919821" lon="9.68935609715313"><ele>528.8333333333334</ele><time>2026-04-25T11:30:47Z</time></trkpt><trkpt lat="44.80255598783861" lon="9.689486936143172"><ele>529.6666666666666</ele><time>2026-04-25T11:30:48Z</time></trkpt><trkpt lat="44.80257429749453" lon="9.689613083396019"><ele>530.5</ele><time>2026-04-25T11:30:49Z</time></trkpt><trkpt lat="44.80259986461395" lon="9.689730486797057"><ele>531.3333333333333</ele><time>2026-04-25T11:30:50Z</time></trkpt><trkpt lat="44.8026283539191" lon="9.689832976506512"><ele>532.1666666666666</ele><time>2026-04-25T11:30:51Z</time></trkpt><trkpt lat="44.80267322453578" lon="9.689926839996913"><ele>533.0</ele><time>2026-04-25T11:30:52Z</time></trkpt><trkpt lat="44.80273081038035" lon="9.690005194706474"><ele>531.3333333333333</ele><time>2026-04-25T11:30:53Z</time></trkpt><trkpt lat="44.802796059986825" lon="9.690065090388783"><ele>529.6666666666666</ele><time>2026-04-25T11:30:54Z</time></trkpt><trkpt lat="44.802866960520966" lon="9.690110904943664"><ele>528.0</ele><time>2026-04-25T11:30:55Z</time></trkpt><trkpt lat="44.80293721734871" lon="9.690140855159699"><ele>526.3333333333334</ele><time>2026-04-25T11:30:56Z</time></trkpt><trkpt lat="44.80300525000875" lon="9.690174863357825"><ele>524.6666666666667</ele><time>2026-04-25T11:30:57Z</time></trkpt><trkpt lat="44.80307474171895" lon="9.690208977392327"><ele>523.0</ele><time>2026-04-25T11:30:58Z</time></trkpt><trkpt lat="44.803146235172456" lon="9.690246013686503"><ele>524.8333333333334</ele><time>2026-04-25T11:30:59Z</time></trkpt><trkpt lat="44.80321571264701" lon="9.690299961675281"><ele>526.6666666666667</ele><time>2026-04-25T11:31:00Z</time></trkpt><trkpt lat="44.80327607773301" lon="9.69038263048229"><ele>528.5</ele><time>2026-04-25T11:31:01Z</time></trkpt><trkpt lat="44.803320667410496" lon="9.690475076719071"><ele>530.3333333333334</ele><time>2026-04-25T11:31:02Z</time></trkpt><trkpt lat="44.80337746666992" lon="9.690549078764551"><ele>532.1666666666666</ele><time>2026-04-25T11:31:03Z</time></trkpt><trkpt lat="44.80345431566575" lon="9.690592499038841"><ele>534.0</ele><time>2026-04-25T11:31:04Z</time></trkpt><trkpt lat="44.803541524919304" lon="9.690605264791884"><ele>534.0</ele><time>2026-04-25T11:31:05Z</time></trkpt><trkpt lat="44.80362712408748" lon="9.690594679310925"><ele>534.0</ele><time>2026-04-25T11:31:06Z</time></trkpt><trkpt lat="44.80370908341379" lon="9.690559708987585"><ele>534.0</ele><time>2026-04-25T11:31:07Z</time></trkpt><trkpt lat="44.80378608787465" lon="9.690526437247746"><ele>534.0</ele><time>2026-04-25T11:31:08Z</time></trkpt><trkpt lat="44.80386360300836" lon="9.69049671903866"><ele>534.0</ele><time>2026-04-25T11:31:09Z</time></trkpt><trkpt lat="44.80393865214124" lon="9.69046966052133"><ele>534.0</ele><time>2026-04-25T11:31:10Z</time></trkpt><trkpt lat="44.804010494916554" lon="9.690450214362407"><ele>534.0</ele><time>2026-04-25T11:31:11Z</time></trkpt><trkpt lat="44.804084258580815" lon="9.690425837920573"><ele>534.0</ele><time>2026-04-25T11:31:12Z</time></trkpt><trkpt lat="44.80415180787895" lon="9.690400806587343"><ele>534.0</ele><time>2026-04-25T11:31:13Z</time></trkpt><trkpt lat="44.804218329284495" lon="9.69037572132479"><ele>534.0</ele><time>2026-04-25T11:31:14Z</time></trkpt><trkpt lat="44.8042820288493" lon="9.69036573752207"><ele>534.0</ele><time>2026-04-25T11:31:15Z</time></trkpt><trkpt lat="44.80439945798505" lon="9.690415543260356"><ele>534.0</ele><time>2026-04-25T11:31:17Z</time></trkpt><trkpt lat="44.80446860398532" lon="9.690559265376368"><ele>533.6</ele><time>2026-04-25T11:31:19Z</time></trkpt><trkpt lat="44.80448941952452" lon="9.69064491281006"><ele>533.2</ele><time>2026-04-25T11:31:19.999Z</time></trkpt><trkpt lat="44.804534229716054" lon="9.690805771768028"><ele>532.8000000000001</ele><time>2026-04-25T11:31:21.999Z</time></trkpt><trkpt lat="44.804577047067205" lon="9.690971244191221"><ele>532.4</ele><time>2026-04-25T11:31:23.999Z</time></trkpt><trkpt lat="44.804626037408596" lon="9.691131380649704"><ele>532.0</ele><time>2026-04-25T11:31:25.999Z</time></trkpt><trkpt lat="44.80469659882086" lon="9.691273858196562"><ele>532.0</ele><time>2026-04-25T11:31:27.999Z</time></trkpt><trkpt lat="44.804769444767516" lon="9.691401501560941"><ele>532.0</ele><time>2026-04-25T11:31:29.999Z</time></trkpt><trkpt lat="44.80484361880611" lon="9.69153738110033"><ele>532.0</ele><time>2026-04-25T11:31:31.999Z</time></trkpt><trkpt lat="44.804905160409234" lon="9.691688049422243"><ele>532.0</ele><time>2026-04-25T11:31:33.999Z</time></trkpt><trkpt lat="44.80492637164297" lon="9.691857364712332"><ele>532.6</ele><time>2026-04-25T11:31:35.999Z</time></trkpt><trkpt lat="44.804908601105936" lon="9.691942824609933"><ele>533.2</ele><time>2026-04-25T11:31:36.999Z</time></trkpt><trkpt lat="44.80485111953763" lon="9.692088043002883"><ele>533.8</ele><time>2026-04-25T11:31:38.999Z</time></trkpt><trkpt lat="44.804774152958466" lon="9.69221318416049"><ele>534.4</ele><time>2026-04-25T11:31:40.999Z</time></trkpt><trkpt lat="44.8047372302886" lon="9.692287839834488"><ele>535.0</ele><time>2026-04-25T11:31:41.999Z</time></trkpt><trkpt lat="44.80470093359853" lon="9.692461905110658"><ele>535.0</ele><time>2026-04-25T11:31:43.999Z</time></trkpt><trkpt lat="44.80471917680777" lon="9.69255421906098"><ele>535.0</ele><time>2026-04-25T11:31:44.999Z</time></trkpt><trkpt lat="44.80476709012517" lon="9.692637145907923"><ele>535.0</ele><time>2026-04-25T11:31:45.999Z</time></trkpt><trkpt lat="44.80483204140665" lon="9.692692652228779"><ele>535.0</ele><time>2026-04-25T11:31:46.999Z</time></trkpt><trkpt lat="44.80490669365119" lon="9.692721572905837"><ele>535.0</ele><time>2026-04-25T11:31:47.999Z</time></trkpt><trkpt lat="44.804984320530444" lon="9.692738791659197"><ele>535.0</ele><time>2026-04-25T11:31:48.999Z</time></trkpt><trkpt lat="44.80506192228605" lon="9.692752256967555"><ele>534.8571428571429</ele><time>2026-04-25T11:31:49.999Z</time></trkpt><trkpt lat="44.805134790330406" lon="9.692775842169564"><ele>534.7142857142858</ele><time>2026-04-25T11:31:50.999Z</time></trkpt><trkpt lat="44.805208428756984" lon="9.692796686540522"><ele>534.5714285714287</ele><time>2026-04-25T11:31:51.999Z</time></trkpt><trkpt lat="44.80527991301045" lon="9.692813195964453"><ele>534.4285714285714</ele><time>2026-04-25T11:31:52.999Z</time></trkpt><trkpt lat="44.80534814140363" lon="9.692828153083846"><ele>534.2857142857143</ele><time>2026-04-25T11:31:53.999Z</time></trkpt><trkpt lat="44.80541718083066" lon="9.692845856131859"><ele>534.1428571428572</ele><time>2026-04-25T11:31:54.999Z</time></trkpt><trkpt lat="44.80548378043855" lon="9.6928651889583"><ele>534.0</ele><time>2026-04-25T11:31:55.999Z</time></trkpt><trkpt lat="44.805550273712214" lon="9.692889887878094"><ele>534.0</ele><time>2026-04-25T11:31:56.999Z</time></trkpt><trkpt lat="44.8056123263636" lon="9.692921037874909"><ele>534.0</ele><time>2026-04-25T11:31:57.999Z</time></trkpt><trkpt lat="44.80566889514794" lon="9.692963693078076"><ele>534.0</ele><time>2026-04-25T11:31:58.999Z</time></trkpt><trkpt lat="44.80571719253597" lon="9.693022815032457"><ele>534.0</ele><time>2026-04-25T11:31:59.999Z</time></trkpt><trkpt lat="44.80575261649415" lon="9.693099537871625"><ele>534.0</ele><time>2026-04-25T11:32:00.999Z</time></trkpt><trkpt lat="44.80577321681672" lon="9.693262072477264"><ele>534.0</ele><time>2026-04-25T11:32:02.999Z</time></trkpt><trkpt lat="44.80573681082953" lon="9.693402711656672"><ele>534.0</ele><time>2026-04-25T11:32:04.999Z</time></trkpt><trkpt lat="44.80567326390006" lon="9.693538895116713"><ele>534.0</ele><time>2026-04-25T11:32:06.999Z</time></trkpt><trkpt lat="44.8056104328045" lon="9.693689200071756"><ele>534.0</ele><time>2026-04-25T11:32:08.999Z</time></trkpt><trkpt lat="44.80559221666946" lon="9.69377882574294"><ele>534.0</ele><time>2026-04-25T11:32:09.999Z</time></trkpt><trkpt lat="44.80558825497363" lon="9.693875192119828"><ele>534.0</ele><time>2026-04-25T11:32:10.999Z</time></trkpt><trkpt lat="44.80561065760013" lon="9.693968554178866"><ele>534.0</ele><time>2026-04-25T11:32:11.999Z</time></trkpt><trkpt lat="44.805654637038685" lon="9.694041896076063"><ele>534.7142857142858</ele><time>2026-04-25T11:32:12.999Z</time></trkpt><trkpt lat="44.80570301319288" lon="9.694101511309968"><ele>535.4285714285714</ele><time>2026-04-25T11:32:13.999Z</time></trkpt><trkpt lat="44.80575630941241" lon="9.694155597457113"><ele>536.1428571428571</ele><time>2026-04-25T11:32:14.999Z</time></trkpt><trkpt lat="44.80581198276331" lon="9.694212800023589"><ele>536.8571428571429</ele><time>2026-04-25T11:32:15.998Z</time></trkpt><trkpt lat="44.80586975704804" lon="9.694277982529517"><ele>537.5714285714286</ele><time>2026-04-25T11:32:16.998Z</time></trkpt><trkpt lat="44.80592843979998" lon="9.694343663733385"><ele>538.2857142857143</ele><time>2026-04-25T11:32:17.998Z</time></trkpt><trkpt lat="44.805989861001464" lon="9.694412360439566"><ele>539.0</ele><time>2026-04-25T11:32:18.998Z</time></trkpt><trkpt lat="44.80605763004889" lon="9.694476265792147"><ele>539.6666666666666</ele><time>2026-04-25T11:32:19.998Z</time></trkpt><trkpt lat="44.806126733547714" lon="9.694534519301008"><ele>540.3333333333333</ele><time>2026-04-25T11:32:20.998Z</time></trkpt><trkpt lat="44.80620456451788" lon="9.69458958638678"><ele>541.0</ele><time>2026-04-25T11:32:21.998Z</time></trkpt><trkpt lat="44.806290849736385" lon="9.69463454098007"><ele>541.6666666666666</ele><time>2026-04-25T11:32:22.998Z</time></trkpt><trkpt lat="44.8063787357413" lon="9.694654178164551"><ele>542.3333333333334</ele><time>2026-04-25T11:32:23.998Z</time></trkpt><trkpt lat="44.80646801596122" lon="9.694629731052016"><ele>543.0</ele><time>2026-04-25T11:32:24.998Z</time></trkpt><trkpt lat="44.80654550520425" lon="9.694569653365548"><ele>543.0</ele><time>2026-04-25T11:32:25.998Z</time></trkpt><trkpt lat="44.80661610667272" lon="9.694498658080853"><ele>543.0</ele><time>2026-04-25T11:32:26.998Z</time></trkpt><trkpt lat="44.80668472018475" lon="9.69443637370575"><ele>543.0</ele><time>2026-04-25T11:32:27.998Z</time></trkpt><trkpt lat="44.80675115422957" lon="9.69438300630586"><ele>543.0</ele><time>2026-04-25T11:32:28.998Z</time></trkpt><trkpt lat="44.80681761668896" lon="9.694327394759013"><ele>543.0</ele><time>2026-04-25T11:32:29.998Z</time></trkpt><trkpt lat="44.806885025190006" lon="9.694278665038059"><ele>543.0</ele><time>2026-04-25T11:32:30.998Z</time></trkpt><trkpt lat="44.80695319544951" lon="9.694240087368176"><ele>541.4285714285714</ele><time>2026-04-25T11:32:31.998Z</time></trkpt><trkpt lat="44.80702280573808" lon="9.694209839746891"><ele>539.8571428571429</ele><time>2026-04-25T11:32:32.998Z</time></trkpt><trkpt lat="44.80709323151725" lon="9.694190458933797"><ele>538.2857142857142</ele><time>2026-04-25T11:32:33.998Z</time></trkpt><trkpt lat="44.807163941105095" lon="9.694190292489374"><ele>536.7142857142858</ele><time>2026-04-25T11:32:34.998Z</time></trkpt><trkpt lat="44.807231286037684" lon="9.694206820537124"><ele>535.1428571428571</ele><time>2026-04-25T11:32:35.998Z</time></trkpt><trkpt lat="44.80729934720445" lon="9.694241519372786"><ele>533.5714285714286</ele><time>2026-04-25T11:32:36.998Z</time></trkpt><trkpt lat="44.80735309540267" lon="9.694288480030604"><ele>532.0</ele><time>2026-04-25T11:32:37.998Z</time></trkpt><trkpt lat="44.80745148404579" lon="9.694388208550928"><ele>531.5</ele><time>2026-04-25T11:32:39.998Z</time></trkpt><trkpt lat="44.807502005964274" lon="9.694443067440002"><ele>531.0</ele><time>2026-04-25T11:32:40.998Z</time></trkpt><trkpt lat="44.807600709118944" lon="9.694548490232407"><ele>530.5</ele><time>2026-04-25T11:32:42.998Z</time></trkpt><trkpt lat="44.80768510380954" lon="9.694678668408459"><ele>530.0</ele><time>2026-04-25T11:32:44.998Z</time></trkpt><trkpt lat="44.80772218880102" lon="9.694762024449366"><ele>529.5</ele><time>2026-04-25T11:32:45.998Z</time></trkpt><trkpt lat="44.80775553814967" lon="9.694837470957461"><ele>529.0</ele><time>2026-04-25T11:32:46.998Z</time></trkpt><trkpt lat="44.80781147403243" lon="9.694999036532046"><ele>529.0</ele><time>2026-04-25T11:32:48.998Z</time></trkpt><trkpt lat="44.807841274201856" lon="9.69508085077728"><ele>529.0</ele><time>2026-04-25T11:32:49.998Z</time></trkpt><trkpt lat="44.807872364432846" lon="9.695165172794658"><ele>529.0</ele><time>2026-04-25T11:32:51Z</time></trkpt><trkpt lat="44.80789405705411" lon="9.69525742986464"><ele>529.0</ele><time>2026-04-25T11:32:52Z</time></trkpt><trkpt lat="44.80790782722695" lon="9.695355318106087"><ele>529.0</ele><time>2026-04-25T11:32:53Z</time></trkpt><trkpt lat="44.8079220090247" lon="9.695442956270277"><ele>529.0</ele><time>2026-04-25T11:32:54Z</time></trkpt><trkpt lat="44.807964197423004" lon="9.6956079807811"><ele>532.2</ele><time>2026-04-25T11:32:56Z</time></trkpt><trkpt lat="44.808063815559" lon="9.695721350272498"><ele>535.4</ele><time>2026-04-25T11:32:58Z</time></trkpt><trkpt lat="44.80812735603034" lon="9.695746828623937"><ele>538.6</ele><time>2026-04-25T11:32:59Z</time></trkpt><trkpt lat="44.80825313461125" lon="9.695752120116087"><ele>541.8</ele><time>2026-04-25T11:33:01Z</time></trkpt><trkpt lat="44.808316275393814" lon="9.695752497064223"><ele>545.0</ele><time>2026-04-25T11:33:02Z</time></trkpt><trkpt lat="44.80838280279054" lon="9.695750106714222"><ele>545.0</ele><time>2026-04-25T11:33:03Z</time></trkpt><trkpt lat="44.80844844798128" lon="9.695744393673172"><ele>545.0</ele><time>2026-04-25T11:33:04Z</time></trkpt><trkpt lat="44.80851377934915" lon="9.695744153772688"><ele>545.0</ele><time>2026-04-25T11:33:05Z</time></trkpt><trkpt lat="44.808579132189045" lon="9.695769735450293"><ele>545.0</ele><time>2026-04-25T11:33:06Z</time></trkpt><trkpt lat="44.80863666078698" lon="9.695830692811269"><ele>545.0</ele><time>2026-04-25T11:33:07Z</time></trkpt><trkpt lat="44.80868192931908" lon="9.695909091923284"><ele>545.0</ele><time>2026-04-25T11:33:08Z</time></trkpt><trkpt lat="44.80871488337831" lon="9.695994396228564"><ele>545.0</ele><time>2026-04-25T11:33:09Z</time></trkpt><trkpt lat="44.808751199977706" lon="9.696077556855242"><ele>545.5714285714286</ele><time>2026-04-25T11:33:10Z</time></trkpt><trkpt lat="44.80879707448118" lon="9.696148777167402"><ele>546.1428571428572</ele><time>2026-04-25T11:33:11Z</time></trkpt><trkpt lat="44.80885549294855" lon="9.696206586726577"><ele>546.7142857142858</ele><time>2026-04-25T11:33:12Z</time></trkpt><trkpt lat="44.808921000602574" lon="9.696248108668176"><ele>547.2857142857143</ele><time>2026-04-25T11:33:13Z</time></trkpt><trkpt lat="44.80898849829813" lon="9.696272895477826"><ele>547.8571428571429</ele><time>2026-04-25T11:33:14Z</time></trkpt><trkpt lat="44.80905552760926" lon="9.696278320674404"><ele>548.4285714285714</ele><time>2026-04-25T11:33:15Z</time></trkpt><trkpt lat="44.80912356351144" lon="9.696275376069568"><ele>549.0</ele><time>2026-04-25T11:33:16Z</time></trkpt><trkpt lat="44.809189946095316" lon="9.696268017157943"><ele>549.0</ele><time>2026-04-25T11:33:17Z</time></trkpt><trkpt lat="44.80925483073684" lon="9.696260103051635"><ele>549.0</ele><time>2026-04-25T11:33:18Z</time></trkpt><trkpt lat="44.80931876163473" lon="9.696250193718498"><ele>549.0</ele><time>2026-04-25T11:33:19Z</time></trkpt><trkpt lat="44.80938190099744" lon="9.696236709863653"><ele>549.0</ele><time>2026-04-25T11:33:20Z</time></trkpt><trkpt lat="44.80944901939982" lon="9.6962285728449"><ele>549.0</ele><time>2026-04-25T11:33:21Z</time></trkpt><trkpt lat="44.80951412660092" lon="9.696219861333233"><ele>549.0</ele><time>2026-04-25T11:33:21.999Z</time></trkpt><trkpt lat="44.80957931687843" lon="9.696221235023577"><ele>549.0</ele><time>2026-04-25T11:33:22.999Z</time></trkpt><trkpt lat="44.80964485528186" lon="9.69622849620422"><ele>548.8333333333334</ele><time>2026-04-25T11:33:23.999Z</time></trkpt><trkpt lat="44.80971175536421" lon="9.696239653669762"><ele>548.6666666666666</ele><time>2026-04-25T11:33:24.999Z</time></trkpt><trkpt lat="44.809839593470386" lon="9.696256136395744"><ele>548.5</ele><time>2026-04-25T11:33:26.999Z</time></trkpt><trkpt lat="44.80990482782146" lon="9.69624939615797"><ele>548.3333333333333</ele><time>2026-04-25T11:33:27.999Z</time></trkpt><trkpt lat="44.80996985322069" lon="9.696227161611098"><ele>548.1666666666666</ele><time>2026-04-25T11:33:28.999Z</time></trkpt><trkpt lat="44.8100305405175" lon="9.696185357349115"><ele>548.0</ele><time>2026-04-25T11:33:29.999Z</time></trkpt><trkpt lat="44.81008164980051" lon="9.696123378282456"><ele>548.5714285714287</ele><time>2026-04-25T11:33:30.999Z</time></trkpt><trkpt lat="44.810124068131024" lon="9.696043312034172"><ele>549.1428571428571</ele><time>2026-04-25T11:33:31.999Z</time></trkpt><trkpt lat="44.810159675650546" lon="9.695954849395973"><ele>549.7142857142858</ele><time>2026-04-25T11:33:32.999Z</time></trkpt><trkpt lat="44.81019358418442" lon="9.695865143569597"><ele>550.2857142857143</ele><time>2026-04-25T11:33:33.999Z</time></trkpt><trkpt lat="44.810222474830475" lon="9.69577066587768"><ele>550.8571428571429</ele><time>2026-04-25T11:33:34.999Z</time></trkpt><trkpt lat="44.81024572541356" lon="9.695673042315814"><ele>551.4285714285714</ele><time>2026-04-25T11:33:35.999Z</time></trkpt><trkpt lat="44.81026347677694" lon="9.695570971138851"><ele>552.0</ele><time>2026-04-25T11:33:36.999Z</time></trkpt><trkpt lat="44.81027733274446" lon="9.695466692693632"><ele>552.0</ele><time>2026-04-25T11:33:37.999Z</time></trkpt><trkpt lat="44.81029201561028" lon="9.695363963594234"><ele>552.0</ele><time>2026-04-25T11:33:38.999Z</time></trkpt><trkpt lat="44.810307367418176" lon="9.695258549347708"><ele>552.0</ele><time>2026-04-25T11:33:39.999Z</time></trkpt><trkpt lat="44.81032092514357" lon="9.695153518167832"><ele>552.0</ele><time>2026-04-25T11:33:40.999Z</time></trkpt><trkpt lat="44.810338986689544" lon="9.695051412889955"><ele>552.0</ele><time>2026-04-25T11:33:41.999Z</time></trkpt><trkpt lat="44.81036189583641" lon="9.694950411220981"><ele>552.0</ele><time>2026-04-25T11:33:42.999Z</time></trkpt><trkpt lat="44.810393162725205" lon="9.69485208459518"><ele>551.7142857142858</ele><time>2026-04-25T11:33:43.999Z</time></trkpt><trkpt lat="44.810430475562946" lon="9.694761257964995"><ele>551.4285714285714</ele><time>2026-04-25T11:33:44.999Z</time></trkpt><trkpt lat="44.81047243182139" lon="9.694680449739227"><ele>551.1428571428571</ele><time>2026-04-25T11:33:45.999Z</time></trkpt><trkpt lat="44.81051787068792" lon="9.694601979173415"><ele>550.8571428571429</ele><time>2026-04-25T11:33:46.999Z</time></trkpt><trkpt lat="44.81056969425815" lon="9.694534431652722"><ele>550.5714285714286</ele><time>2026-04-25T11:33:47.999Z</time></trkpt><trkpt lat="44.8106282168601" lon="9.694478356208023"><ele>550.2857142857143</ele><time>2026-04-25T11:33:48.999Z</time></trkpt><trkpt lat="44.810690171981086" lon="9.694436281662375"><ele>550.0</ele><time>2026-04-25T11:33:49.999Z</time></trkpt><trkpt lat="44.810756400457855" lon="9.694410160740807"><ele>549.0</ele><time>2026-04-25T11:33:50.999Z</time></trkpt><trkpt lat="44.81082637316285" lon="9.694392524951336"><ele>548.0</ele><time>2026-04-25T11:33:51.999Z</time></trkpt><trkpt lat="44.81089153117577" lon="9.694378611769597"><ele>547.0</ele><time>2026-04-25T11:33:52.999Z</time></trkpt><trkpt lat="44.81095661611175" lon="9.694363092146917"><ele>546.0</ele><time>2026-04-25T11:33:53.999Z</time></trkpt><trkpt lat="44.81102205818367" lon="9.694352649163083"><ele>545.0</ele><time>2026-04-25T11:33:54.999Z</time></trkpt><trkpt lat="44.811085654418974" lon="9.694353784325244"><ele>544.0</ele><time>2026-04-25T11:33:55.999Z</time></trkpt><trkpt lat="44.81115091995583" lon="9.694374122616983"><ele>543.0</ele><time>2026-04-25T11:33:56.999Z</time></trkpt><trkpt lat="44.811208753328145" lon="9.694419721975219"><ele>543.0</ele><time>2026-04-25T11:33:57.999Z</time></trkpt><trkpt lat="44.81125601587868" lon="9.694485765706633"><ele>543.0</ele><time>2026-04-25T11:33:58.999Z</time></trkpt><trkpt lat="44.81129113322933" lon="9.694564967881766"><ele>543.0</ele><time>2026-04-25T11:33:59.999Z</time></trkpt><trkpt lat="44.81131493860157" lon="9.694647976433822"><ele>543.0</ele><time>2026-04-25T11:34:00.999Z</time></trkpt><trkpt lat="44.811354069705" lon="9.694806315639708"><ele>543.0</ele><time>2026-04-25T11:34:02.999Z</time></trkpt><trkpt lat="44.811404424605904" lon="9.69495954379742"><ele>543.0</ele><time>2026-04-25T11:34:04.999Z</time></trkpt><trkpt lat="44.811460520019665" lon="9.695114952992743"><ele>544.0</ele><time>2026-04-25T11:34:06.999Z</time></trkpt><trkpt lat="44.81149932495392" lon="9.695280357393585"><ele>545.0</ele><time>2026-04-25T11:34:08.999Z</time></trkpt><trkpt lat="44.811537253115944" lon="9.695444342174621"><ele>546.0</ele><time>2026-04-25T11:34:10.999Z</time></trkpt><trkpt lat="44.81156681459107" lon="9.695527650159871"><ele>547.0</ele><time>2026-04-25T11:34:11.999Z</time></trkpt><trkpt lat="44.811601043603595" lon="9.695606815848242"><ele>548.0</ele><time>2026-04-25T11:34:12.999Z</time></trkpt><trkpt lat="44.81164237348701" lon="9.695685980743853"><ele>549.0</ele><time>2026-04-25T11:34:13.999Z</time></trkpt><trkpt lat="44.811684119396865" lon="9.695759227852763"><ele>549.0</ele><time>2026-04-25T11:34:14.999Z</time></trkpt><trkpt lat="44.811725103292225" lon="9.695828767286034"><ele>549.0</ele><time>2026-04-25T11:34:15.999Z</time></trkpt><trkpt lat="44.811751201566615" lon="9.695912866846081"><ele>549.0</ele><time>2026-04-25T11:34:16.999Z</time></trkpt><trkpt lat="44.811760582371676" lon="9.696008674649619"><ele>549.0</ele><time>2026-04-25T11:34:17.998Z</time></trkpt><trkpt lat="44.81175625979578" lon="9.696103620037768"><ele>549.0</ele><time>2026-04-25T11:34:18.998Z</time></trkpt><trkpt lat="44.81174740793599" lon="9.696195605171177"><ele>549.0</ele><time>2026-04-25T11:34:19.998Z</time></trkpt><trkpt lat="44.81174128728501" lon="9.696286911818309"><ele>549.0</ele><time>2026-04-25T11:34:20.998Z</time></trkpt><trkpt lat="44.81174239196743" lon="9.69637915062649"><ele>548.1666666666666</ele><time>2026-04-25T11:34:21.998Z</time></trkpt><trkpt lat="44.81175564344735" lon="9.69646887019954"><ele>547.3333333333334</ele><time>2026-04-25T11:34:22.998Z</time></trkpt><trkpt lat="44.811785127587186" lon="9.696553875180415"><ele>546.5</ele><time>2026-04-25T11:34:23.998Z</time></trkpt><trkpt lat="44.81183351619332" lon="9.696628418606316"><ele>545.6666666666667</ele><time>2026-04-25T11:34:24.998Z</time></trkpt><trkpt lat="44.81188949965749" lon="9.696684694319277"><ele>544.8333333333334</ele><time>2026-04-25T11:34:25.998Z</time></trkpt><trkpt lat="44.811949329670334" lon="9.696721945433069"><ele>544.0</ele><time>2026-04-25T11:34:26.998Z</time></trkpt><trkpt lat="44.812062866019495" lon="9.696771669700787"><ele>544.0</ele><time>2026-04-25T11:34:28.998Z</time></trkpt><trkpt lat="44.81216678785046" lon="9.696825703886592"><ele>544.0</ele><time>2026-04-25T11:34:30.998Z</time></trkpt><trkpt lat="44.81225543506637" lon="9.696924033556806"><ele>544.0</ele><time>2026-04-25T11:34:32.998Z</time></trkpt><trkpt lat="44.81231549092403" lon="9.697057311971145"><ele>544.0</ele><time>2026-04-25T11:34:34.998Z</time></trkpt><trkpt lat="44.81235524529336" lon="9.697205971339802"><ele>544.0</ele><time>2026-04-25T11:34:36.998Z</time></trkpt><trkpt lat="44.812379078519704" lon="9.697366789064052"><ele>545.5</ele><time>2026-04-25T11:34:38.998Z</time></trkpt><trkpt lat="44.812391034146096" lon="9.697529655176636"><ele>547.0</ele><time>2026-04-25T11:34:40.998Z</time></trkpt><trkpt lat="44.8123596773635" lon="9.69768280630216"><ele>548.5</ele><time>2026-04-25T11:34:42.998Z</time></trkpt><trkpt lat="44.8122840754263" lon="9.69780254908441"><ele>550.0</ele><time>2026-04-25T11:34:44.998Z</time></trkpt><trkpt lat="44.812205700410615" lon="9.69791689160777"><ele>550.4</ele><time>2026-04-25T11:34:46.998Z</time></trkpt><trkpt lat="44.81215375930871" lon="9.698049705145053"><ele>550.8</ele><time>2026-04-25T11:34:48.998Z</time></trkpt><trkpt lat="44.81211860640479" lon="9.698193240345583"><ele>551.2</ele><time>2026-04-25T11:34:50.998Z</time></trkpt><trkpt lat="44.81209580074373" lon="9.69834056856706"><ele>551.6</ele><time>2026-04-25T11:34:52.998Z</time></trkpt><trkpt lat="44.81210597557279" lon="9.698497837735331"><ele>552.0</ele><time>2026-04-25T11:34:54.998Z</time></trkpt><trkpt lat="44.812143489977586" lon="9.698571498177161"><ele>553.6666666666666</ele><time>2026-04-25T11:34:55.998Z</time></trkpt><trkpt lat="44.81219664576245" lon="9.698629526217116"><ele>555.3333333333334</ele><time>2026-04-25T11:34:57Z</time></trkpt><trkpt lat="44.812295985836265" lon="9.698732444471378"><ele>557.0</ele><time>2026-04-25T11:34:59Z</time></trkpt><trkpt lat="44.81234009933462" lon="9.69879935180169"><ele>558.6666666666667</ele><time>2026-04-25T11:35:00Z</time></trkpt><trkpt lat="44.81238125557829" lon="9.698869904095844"><ele>560.3333333333334</ele><time>2026-04-25T11:35:01Z</time></trkpt><trkpt lat="44.81242257313764" lon="9.698938182357272"><ele>562.0</ele><time>2026-04-25T11:35:02Z</time></trkpt><trkpt lat="44.81250165797813" lon="9.699062647651806"><ele>562.0</ele><time>2026-04-25T11:35:04Z</time></trkpt><trkpt lat="44.812584735908636" lon="9.69918014143964"><ele>562.0</ele><time>2026-04-25T11:35:06Z</time></trkpt><trkpt lat="44.81267592483901" lon="9.69928592468127"><ele>562.0</ele><time>2026-04-25T11:35:08Z</time></trkpt><trkpt lat="44.81272666119419" lon="9.699339175809431"><ele>562.0</ele><time>2026-04-25T11:35:09Z</time></trkpt><trkpt lat="44.812778448395996" lon="9.699393469595707"><ele>562.0</ele><time>2026-04-25T11:35:10Z</time></trkpt><trkpt lat="44.812833343313095" lon="9.699450357881256"><ele>562.0</ele><time>2026-04-25T11:35:11Z</time></trkpt><trkpt lat="44.812890825834536" lon="9.69951194512634"><ele>562.8571428571429</ele><time>2026-04-25T11:35:12Z</time></trkpt><trkpt lat="44.812949884669884" lon="9.699566680760801"><ele>563.7142857142858</ele><time>2026-04-25T11:35:13Z</time></trkpt><trkpt lat="44.81301819458984" lon="9.699609070257639"><ele>564.5714285714286</ele><time>2026-04-25T11:35:14Z</time></trkpt><trkpt lat="44.81309087491593" lon="9.699622217457428"><ele>565.4285714285714</ele><time>2026-04-25T11:35:15Z</time></trkpt><trkpt lat="44.813166020862994" lon="9.699604104147323"><ele>566.2857142857142</ele><time>2026-04-25T11:35:16Z</time></trkpt><trkpt lat="44.81323750143026" lon="9.699574318552918"><ele>567.1428571428571</ele><time>2026-04-25T11:35:17Z</time></trkpt><trkpt lat="44.813310107189295" lon="9.699554128075139"><ele>568.0</ele><time>2026-04-25T11:35:18Z</time></trkpt><trkpt lat="44.81338144927948" lon="9.699558167053985"><ele>568.0</ele><time>2026-04-25T11:35:19Z</time></trkpt><trkpt lat="44.813458830888585" lon="9.699577753397866"><ele>568.0</ele><time>2026-04-25T11:35:20Z</time></trkpt><trkpt lat="44.81352908340736" lon="9.699615441947245"><ele>568.0</ele><time>2026-04-25T11:35:21Z</time></trkpt><trkpt lat="44.81359189024762" lon="9.699673952069215"><ele>568.0</ele><time>2026-04-25T11:35:22Z</time></trkpt><trkpt lat="44.81364498928645" lon="9.699743734369356"><ele>568.0</ele><time>2026-04-25T11:35:23Z</time></trkpt><trkpt lat="44.81368469670613" lon="9.699825278406065"><ele>568.0</ele><time>2026-04-25T11:35:24Z</time></trkpt><trkpt lat="44.81371729108464" lon="9.699912320606638"><ele>568.0</ele><time>2026-04-25T11:35:24.999Z</time></trkpt><trkpt lat="44.81374075874415" lon="9.700003206028631"><ele>566.4285714285714</ele><time>2026-04-25T11:35:25.999Z</time></trkpt><trkpt lat="44.81375717063513" lon="9.700095209972062"><ele>564.8571428571428</ele><time>2026-04-25T11:35:26.999Z</time></trkpt><trkpt lat="44.81377764145517" lon="9.70018642940225"><ele>563.2857142857142</ele><time>2026-04-25T11:35:27.999Z</time></trkpt><trkpt lat="44.813799277184614" lon="9.700284549716912"><ele>561.7142857142857</ele><time>2026-04-25T11:35:28.999Z</time></trkpt><trkpt lat="44.813826328876296" lon="9.700380097425406"><ele>560.1428571428571</ele><time>2026-04-25T11:35:29.999Z</time></trkpt><trkpt lat="44.813857034034264" lon="9.70047205638985"><ele>558.5714285714286</ele><time>2026-04-25T11:35:30.999Z</time></trkpt><trkpt lat="44.81389240400941" lon="9.700561840715327"><ele>557.0</ele><time>2026-04-25T11:35:31.999Z</time></trkpt><trkpt lat="44.8139250404138" lon="9.70065534083013"><ele>557.0</ele><time>2026-04-25T11:35:32.999Z</time></trkpt><trkpt lat="44.81395096750398" lon="9.70075248951222"><ele>557.0</ele><time>2026-04-25T11:35:33.999Z</time></trkpt><trkpt lat="44.81397060625015" lon="9.700856753874627"><ele>557.0</ele><time>2026-04-25T11:35:34.999Z</time></trkpt><trkpt lat="44.813981155222315" lon="9.700963317839692"><ele>557.0</ele><time>2026-04-25T11:35:35.999Z</time></trkpt><trkpt lat="44.81397900428349" lon="9.70106975535842"><ele>557.0</ele><time>2026-04-25T11:35:36.999Z</time></trkpt><trkpt lat="44.813975260540744" lon="9.701171770737616"><ele>557.0</ele><time>2026-04-25T11:35:37.999Z</time></trkpt><trkpt lat="44.81396740743557" lon="9.701268044506548"><ele>557.0</ele><time>2026-04-25T11:35:38.999Z</time></trkpt><trkpt lat="44.81396040020027" lon="9.701359439046056"><ele>558.2</ele><time>2026-04-25T11:35:39.999Z</time></trkpt><trkpt lat="44.813952935242725" lon="9.701448196337196"><ele>559.4000000000001</ele><time>2026-04-25T11:35:40.999Z</time></trkpt><trkpt lat="44.81395587822864" lon="9.701537107643407"><ele>560.5999999999999</ele><time>2026-04-25T11:35:41.999Z</time></trkpt><trkpt lat="44.81398816042297" lon="9.701697150877985"><ele>561.8</ele><time>2026-04-25T11:35:43.999Z</time></trkpt><trkpt lat="44.81405294930903" lon="9.701823586466595"><ele>563.0</ele><time>2026-04-25T11:35:45.999Z</time></trkpt><trkpt lat="44.81411251164876" lon="9.70196304195787"><ele>563.0</ele><time>2026-04-25T11:35:47.999Z</time></trkpt><trkpt lat="44.81418721989564" lon="9.702077597202251"><ele>563.0</ele><time>2026-04-25T11:35:49.999Z</time></trkpt><trkpt lat="44.81428698448286" lon="9.702179801323993"><ele>563.0</ele><time>2026-04-25T11:35:51.999Z</time></trkpt><trkpt lat="44.81439019462796" lon="9.702263539346493"><ele>563.0</ele><time>2026-04-25T11:35:53.999Z</time></trkpt><trkpt lat="44.81444840500532" lon="9.702307168070778"><ele>563.0</ele><time>2026-04-25T11:35:54.999Z</time></trkpt><trkpt lat="44.81451031417328" lon="9.702341120450319"><ele>563.0</ele><time>2026-04-25T11:35:55.999Z</time></trkpt><trkpt lat="44.81461965784816" lon="9.70236651208779"><ele>563.0</ele><time>2026-04-25T11:35:57.999Z</time></trkpt><trkpt lat="44.81468606058114" lon="9.702322382882851"><ele>563.0</ele><time>2026-04-25T11:35:58.999Z</time></trkpt><trkpt lat="44.81475129840154" lon="9.702260145578542"><ele>563.0</ele><time>2026-04-25T11:35:59.999Z</time></trkpt><trkpt lat="44.81480096216938" lon="9.702187861370328"><ele>563.0</ele><time>2026-04-25T11:36:00.999Z</time></trkpt><trkpt lat="44.81485049692857" lon="9.702119170875182"><ele>563.0</ele><time>2026-04-25T11:36:01.999Z</time></trkpt><trkpt lat="44.81492121783333" lon="9.702076841625757"><ele>563.0</ele><time>2026-04-25T11:36:02.999Z</time></trkpt><trkpt lat="44.814997596258486" lon="9.702066032129116"><ele>563.0</ele><time>2026-04-25T11:36:03.999Z</time></trkpt><trkpt lat="44.815073949140505" lon="9.70208772124999"><ele>563.0</ele><time>2026-04-25T11:36:04.999Z</time></trkpt><trkpt lat="44.815145502357225" lon="9.702138739438649"><ele>563.0</ele><time>2026-04-25T11:36:05.999Z</time></trkpt><trkpt lat="44.815208177769385" lon="9.702195823835153"><ele>563.0</ele><time>2026-04-25T11:36:06.999Z</time></trkpt><trkpt lat="44.81527306454856" lon="9.702255117794639"><ele>563.0</ele><time>2026-04-25T11:36:07.999Z</time></trkpt><trkpt lat="44.815338737645895" lon="9.702313445015525"><ele>562.1666666666666</ele><time>2026-04-25T11:36:08.999Z</time></trkpt><trkpt lat="44.81540673477003" lon="9.702370903384686"><ele>561.3333333333333</ele><time>2026-04-25T11:36:09.999Z</time></trkpt><trkpt lat="44.81547675549567" lon="9.702424649162545"><ele>560.5</ele><time>2026-04-25T11:36:10.999Z</time></trkpt><trkpt lat="44.815545276629685" lon="9.702479470896765"><ele>559.6666666666666</ele><time>2026-04-25T11:36:11.999Z</time></trkpt><trkpt lat="44.815615004631546" lon="9.702536445172516"><ele>558.8333333333334</ele><time>2026-04-25T11:36:12.999Z</time></trkpt><trkpt lat="44.81567715981058" lon="9.70259484712318"><ele>558.0</ele><time>2026-04-25T11:36:13.999Z</time></trkpt><trkpt lat="44.81574554360358" lon="9.702651184228912"><ele>558.0</ele><time>2026-04-25T11:36:14.999Z</time></trkpt><trkpt lat="44.81580870106102" lon="9.702706196680062"><ele>558.0</ele><time>2026-04-25T11:36:15.999Z</time></trkpt><trkpt lat="44.81587659383936" lon="9.702754735025726"><ele>558.0</ele><time>2026-04-25T11:36:16.999Z</time></trkpt><trkpt lat="44.81594422893778" lon="9.702794154610615"><ele>558.0</ele><time>2026-04-25T11:36:17.999Z</time></trkpt><trkpt lat="44.81602232722802" lon="9.702812921875415"><ele>558.0</ele><time>2026-04-25T11:36:18.999Z</time></trkpt><trkpt lat="44.816103165791944" lon="9.702801664177256"><ele>558.0</ele><time>2026-04-25T11:36:19.999Z</time></trkpt><trkpt lat="44.816179192055586" lon="9.7027638412384"><ele>559.3333333333334</ele><time>2026-04-25T11:36:20.998Z</time></trkpt><trkpt lat="44.816247183397074" lon="9.702703209014855"><ele>560.6666666666666</ele><time>2026-04-25T11:36:21.998Z</time></trkpt><trkpt lat="44.81630489517353" lon="9.702629450224766"><ele>562.0</ele><time>2026-04-25T11:36:22.998Z</time></trkpt><trkpt lat="44.816364414315565" lon="9.702560070845962"><ele>563.3333333333333</ele><time>2026-04-25T11:36:23.998Z</time></trkpt><trkpt lat="44.81643390679312" lon="9.70251406970406"><ele>564.6666666666666</ele><time>2026-04-25T11:36:24.998Z</time></trkpt><trkpt lat="44.81651002364144" lon="9.702474544235093"><ele>566.0</ele><time>2026-04-25T11:36:25.998Z</time></trkpt><trkpt lat="44.816581221781625" lon="9.702422469332198"><ele>566.0</ele><time>2026-04-25T11:36:26.998Z</time></trkpt><trkpt lat="44.816654320360605" lon="9.702372950080584"><ele>566.0</ele><time>2026-04-25T11:36:27.998Z</time></trkpt><trkpt lat="44.816724209823604" lon="9.702322719318124"><ele>566.0</ele><time>2026-04-25T11:36:28.998Z</time></trkpt><trkpt lat="44.81679597964604" lon="9.702279925686442"><ele>566.0</ele><time>2026-04-25T11:36:29.998Z</time></trkpt><trkpt lat="44.81686936366159" lon="9.702247593171636"><ele>566.0</ele><time>2026-04-25T11:36:30.998Z</time></trkpt><trkpt lat="44.81694672975475" lon="9.702245335180505"><ele>566.0</ele><time>2026-04-25T11:36:31.998Z</time></trkpt><trkpt lat="44.81702379672075" lon="9.702266417927436"><ele>565.0</ele><time>2026-04-25T11:36:32.998Z</time></trkpt><trkpt lat="44.81710514122205" lon="9.702306298817538"><ele>564.0</ele><time>2026-04-25T11:36:33.998Z</time></trkpt><trkpt lat="44.81717444553169" lon="9.702368057268819"><ele>563.0</ele><time>2026-04-25T11:36:34.998Z</time></trkpt><trkpt lat="44.81724224583421" lon="9.702425857148903"><ele>562.0</ele><time>2026-04-25T11:36:35.998Z</time></trkpt><trkpt lat="44.81730886672666" lon="9.702480021411983"><ele>561.0</ele><time>2026-04-25T11:36:36.998Z</time></trkpt><trkpt lat="44.81737743105381" lon="9.702525047533635"><ele>560.0</ele><time>2026-04-25T11:36:37.998Z</time></trkpt><trkpt lat="44.817449682071235" lon="9.702556187264397"><ele>560.0</ele><time>2026-04-25T11:36:38.998Z</time></trkpt><trkpt lat="44.817519552036245" lon="9.70256201668474"><ele>560.0</ele><time>2026-04-25T11:36:39.998Z</time></trkpt><trkpt lat="44.81759529344821" lon="9.702546368832794"><ele>560.0</ele><time>2026-04-25T11:36:40.998Z</time></trkpt><trkpt lat="44.81767131536458" lon="9.702518514864906"><ele>560.0</ele><time>2026-04-25T11:36:41.998Z</time></trkpt><trkpt lat="44.81775012852654" lon="9.702488103110115"><ele>560.0</ele><time>2026-04-25T11:36:42.998Z</time></trkpt><trkpt lat="44.817831300984494" lon="9.702458308836544"><ele>560.0</ele><time>2026-04-25T11:36:43.998Z</time></trkpt><trkpt lat="44.817914459547005" lon="9.702427651319796"><ele>559.1666666666666</ele><time>2026-04-25T11:36:44.998Z</time></trkpt><trkpt lat="44.817997430473106" lon="9.702392342937829"><ele>558.3333333333333</ele><time>2026-04-25T11:36:45.998Z</time></trkpt><trkpt lat="44.81808280257279" lon="9.70235796006409"><ele>557.5</ele><time>2026-04-25T11:36:46.998Z</time></trkpt><trkpt lat="44.818174579243596" lon="9.702354773975454"><ele>556.6666666666666</ele><time>2026-04-25T11:36:47.998Z</time></trkpt><trkpt lat="44.81825962068216" lon="9.70233234052024"><ele>555.8333333333334</ele><time>2026-04-25T11:36:48.998Z</time></trkpt><trkpt lat="44.81834516572573" lon="9.702296543143282"><ele>555.0</ele><time>2026-04-25T11:36:49.998Z</time></trkpt><trkpt lat="44.81843165158981" lon="9.702279116300776"><ele>553.6666666666666</ele><time>2026-04-25T11:36:50.998Z</time></trkpt><trkpt lat="44.81851028343979" lon="9.702253824335822"><ele>552.3333333333334</ele><time>2026-04-25T11:36:51.998Z</time></trkpt><trkpt lat="44.818584875080894" lon="9.702235534449093"><ele>551.0</ele><time>2026-04-25T11:36:52.998Z</time></trkpt><trkpt lat="44.818661076068416" lon="9.702221504028602"><ele>549.6666666666667</ele><time>2026-04-25T11:36:53.998Z</time></trkpt><trkpt lat="44.81873672339197" lon="9.702205718166615"><ele>548.3333333333334</ele><time>2026-04-25T11:36:54.998Z</time></trkpt><trkpt lat="44.81881168390403" lon="9.702192950420093"><ele>547.0</ele><time>2026-04-25T11:36:55.998Z</time></trkpt><trkpt lat="44.818884384287635" lon="9.702168749371719"><ele>547.0</ele><time>2026-04-25T11:36:56.998Z</time></trkpt><trkpt lat="44.81895512054764" lon="9.702127215369613"><ele>547.0</ele><time>2026-04-25T11:36:57.998Z</time></trkpt><trkpt lat="44.819032801266125" lon="9.702100486752373"><ele>547.0</ele><time>2026-04-25T11:36:58.998Z</time></trkpt><trkpt lat="44.81911080921446" lon="9.70204884964558"><ele>547.0</ele><time>2026-04-25T11:36:59.998Z</time></trkpt><trkpt lat="44.819184422698726" lon="9.701995098334608"><ele>547.0</ele><time>2026-04-25T11:37:00.998Z</time></trkpt><trkpt lat="44.81926219201081" lon="9.701938414313847"><ele>547.0</ele><time>2026-04-25T11:37:01.998Z</time></trkpt><trkpt lat="44.81934024495128" lon="9.70188152356455"><ele>547.3333333333334</ele><time>2026-04-25T11:37:03Z</time></trkpt><trkpt lat="44.81941219285152" lon="9.701808627248674"><ele>547.6666666666667</ele><time>2026-04-25T11:37:04Z</time></trkpt><trkpt lat="44.81949201178123" lon="9.701755863988543"><ele>548.0</ele><time>2026-04-25T11:37:05Z</time></trkpt><trkpt lat="44.81957131958823" lon="9.701696339208313"><ele>548.3333333333334</ele><time>2026-04-25T11:37:06Z</time></trkpt><trkpt lat="44.819648485524674" lon="9.701636007837608"><ele>548.6666666666666</ele><time>2026-04-25T11:37:07Z</time></trkpt><trkpt lat="44.81972499276737" lon="9.701579828732754"><ele>549.0</ele><time>2026-04-25T11:37:08Z</time></trkpt><trkpt lat="44.819801975108945" lon="9.701527284995956"><ele>549.0</ele><time>2026-04-25T11:37:09Z</time></trkpt><trkpt lat="44.819878072185446" lon="9.701471485848211"><ele>549.0</ele><time>2026-04-25T11:37:10Z</time></trkpt><trkpt lat="44.81995112054666" lon="9.701412732542432"><ele>549.0</ele><time>2026-04-25T11:37:11Z</time></trkpt><trkpt lat="44.820023425332394" lon="9.701354351902076"><ele>549.0</ele><time>2026-04-25T11:37:12Z</time></trkpt><trkpt lat="44.82010121922318" lon="9.70131081038557"><ele>549.0</ele><time>2026-04-25T11:37:13Z</time></trkpt><trkpt lat="44.82016150191017" lon="9.701219412941228"><ele>549.0</ele><time>2026-04-25T11:37:14Z</time></trkpt><trkpt lat="44.82022644263056" lon="9.70114064007653"><ele>548.3333333333334</ele><time>2026-04-25T11:37:15Z</time></trkpt><trkpt lat="44.8202924817729" lon="9.701056121234725"><ele>547.6666666666666</ele><time>2026-04-25T11:37:16Z</time></trkpt><trkpt lat="44.82037082513692" lon="9.700987889227822"><ele>547.0</ele><time>2026-04-25T11:37:17Z</time></trkpt><trkpt lat="44.82043882056802" lon="9.700900798311462"><ele>546.3333333333333</ele><time>2026-04-25T11:37:18Z</time></trkpt><trkpt lat="44.820493335496046" lon="9.700800506528639"><ele>545.6666666666666</ele><time>2026-04-25T11:37:19Z</time></trkpt><trkpt lat="44.82056713475119" lon="9.700741238087147"><ele>545.0</ele><time>2026-04-25T11:37:20Z</time></trkpt><trkpt lat="44.82063516168931" lon="9.700669579241488"><ele>545.0</ele><time>2026-04-25T11:37:21Z</time></trkpt><trkpt lat="44.82071406845431" lon="9.700627063960596"><ele>545.0</ele><time>2026-04-25T11:37:22Z</time></trkpt><trkpt lat="44.820805567972336" lon="9.70060527773522"><ele>545.0</ele><time>2026-04-25T11:37:23Z</time></trkpt><trkpt lat="44.82090125019493" lon="9.700677693736607"><ele>545.0</ele><time>2026-04-25T11:37:24Z</time></trkpt><trkpt lat="44.82100727979407" lon="9.700716511556834"><ele>545.0</ele><time>2026-04-25T11:37:25Z</time></trkpt><trkpt lat="44.821110356640084" lon="9.700767531985676"><ele>543.25</ele><time>2026-04-25T11:37:26Z</time></trkpt><trkpt lat="44.82121077874046" lon="9.700837796705924"><ele>541.5</ele><time>2026-04-25T11:37:27Z</time></trkpt><trkpt lat="44.821313874511944" lon="9.700892060682504"><ele>539.75</ele><time>2026-04-25T11:37:27.999Z</time></trkpt><trkpt lat="44.82142758770708" lon="9.700917748265217"><ele>538.0</ele><time>2026-04-25T11:37:28.999Z</time></trkpt><trkpt lat="44.821538298992365" lon="9.70096093725984"><ele>538.0</ele><time>2026-04-25T11:37:29.999Z</time></trkpt><trkpt lat="44.82165734638504" lon="9.700958238348695"><ele>538.0</ele><time>2026-04-25T11:37:30.999Z</time></trkpt><trkpt lat="44.82177409585469" lon="9.700923983725579"><ele>538.0</ele><time>2026-04-25T11:37:31.999Z</time></trkpt><trkpt lat="44.8218882267688" lon="9.700866478380878"><ele>538.0</ele><time>2026-04-25T11:37:32.999Z</time></trkpt><trkpt lat="44.822008605549364" lon="9.700832105443439"><ele>536.0</ele><time>2026-04-25T11:37:33.999Z</time></trkpt><trkpt lat="44.82213150671071" lon="9.700796942755172"><ele>534.0</ele><time>2026-04-25T11:37:34.999Z</time></trkpt><trkpt lat="44.82224972346342" lon="9.700773192711159"><ele>532.0</ele><time>2026-04-25T11:37:35.999Z</time></trkpt><trkpt lat="44.82237475299367" lon="9.700771536503572"><ele>530.0</ele><time>2026-04-25T11:37:36.999Z</time></trkpt><trkpt lat="44.82250080255381" lon="9.700806491992003"><ele>530.0</ele><time>2026-04-25T11:37:37.999Z</time></trkpt><trkpt lat="44.822623585099926" lon="9.700866015681976"><ele>530.0</ele><time>2026-04-25T11:37:38.999Z</time></trkpt><trkpt lat="44.82274932616025" lon="9.700924215985935"><ele>530.0</ele><time>2026-04-25T11:37:39.999Z</time></trkpt><trkpt lat="44.822874193205884" lon="9.700980074853282"><ele>530.0</ele><time>2026-04-25T11:37:40.999Z</time></trkpt><trkpt lat="44.82299944240894" lon="9.7010393239517"><ele>529.0</ele><time>2026-04-25T11:37:41.999Z</time></trkpt><trkpt lat="44.823125676699604" lon="9.701101172830771"><ele>528.0</ele><time>2026-04-25T11:37:42.999Z</time></trkpt><trkpt lat="44.82325016313643" lon="9.70116342603226"><ele>527.0</ele><time>2026-04-25T11:37:43.999Z</time></trkpt><trkpt lat="44.823366987888036" lon="9.701226342887942"><ele>526.0</ele><time>2026-04-25T11:37:44.999Z</time></trkpt><trkpt lat="44.823481605317035" lon="9.701278024348126"><ele>525.0</ele><time>2026-04-25T11:37:45.999Z</time></trkpt><trkpt lat="44.8235890050695" lon="9.701323784434026"><ele>524.0</ele><time>2026-04-25T11:37:46.999Z</time></trkpt><trkpt lat="44.82369567321199" lon="9.701385102556651"><ele>523.0</ele><time>2026-04-25T11:37:47.999Z</time></trkpt><trkpt lat="44.823804766159434" lon="9.701431306440805"><ele>522.0</ele><time>2026-04-25T11:37:48.999Z</time></trkpt><trkpt lat="44.82390280440056" lon="9.701482918960199"><ele>521.0</ele><time>2026-04-25T11:37:49.999Z</time></trkpt><trkpt lat="44.82398219389016" lon="9.701562697253827"><ele>521.0</ele><time>2026-04-25T11:37:50.999Z</time></trkpt><trkpt lat="44.82404922690341" lon="9.701666085739369"><ele>521.0</ele><time>2026-04-25T11:37:51.999Z</time></trkpt><trkpt lat="44.82410608825201" lon="9.701786055573002"><ele>521.0</ele><time>2026-04-25T11:37:52.999Z</time></trkpt><trkpt lat="44.824160008529155" lon="9.701910319244352"><ele>521.0</ele><time>2026-04-25T11:37:53.999Z</time></trkpt><trkpt lat="44.82420949432173" lon="9.702038196622553"><ele>521.0</ele><time>2026-04-25T11:37:54.999Z</time></trkpt><trkpt lat="44.82426412615865" lon="9.702169982315395"><ele>518.25</ele><time>2026-04-25T11:37:55.999Z</time></trkpt><trkpt lat="44.82432177449401" lon="9.702301692047557"><ele>515.5</ele><time>2026-04-25T11:37:56.999Z</time></trkpt><trkpt lat="44.82438168740459" lon="9.702437454513635"><ele>512.75</ele><time>2026-04-25T11:37:57.999Z</time></trkpt><trkpt lat="44.82443946081728" lon="9.702574257340283"><ele>510.0</ele><time>2026-04-25T11:37:58.999Z</time></trkpt><trkpt lat="44.82449187412253" lon="9.70271761781918"><ele>509.8</ele><time>2026-04-25T11:37:59.999Z</time></trkpt><trkpt lat="44.824531712011115" lon="9.702866881108605"><ele>509.6</ele><time>2026-04-25T11:38:00.999Z</time></trkpt><trkpt lat="44.824577773350335" lon="9.70300930576205"><ele>509.4</ele><time>2026-04-25T11:38:01.999Z</time></trkpt><trkpt lat="44.824629679002136" lon="9.703145160524215"><ele>509.2</ele><time>2026-04-25T11:38:02.999Z</time></trkpt><trkpt lat="44.82468724583565" lon="9.703257889671937"><ele>509.0</ele><time>2026-04-25T11:38:03.999Z</time></trkpt><trkpt lat="44.82475474741745" lon="9.7033521348504"><ele>509.0</ele><time>2026-04-25T11:38:04.999Z</time></trkpt><trkpt lat="44.82481956467986" lon="9.703463525572348"><ele>509.0</ele><time>2026-04-25T11:38:05.999Z</time></trkpt><trkpt lat="44.82490327098699" lon="9.703546557414104"><ele>509.0</ele><time>2026-04-25T11:38:06.999Z</time></trkpt><trkpt lat="44.82496985567293" lon="9.703644181049983"><ele>509.0</ele><time>2026-04-25T11:38:07.999Z</time></trkpt><trkpt lat="44.82504035434791" lon="9.703733984054109"><ele>509.0</ele><time>2026-04-25T11:38:08.999Z</time></trkpt><trkpt lat="44.82510689528887" lon="9.703827637559518"><ele>506.0</ele><time>2026-04-25T11:38:09.999Z</time></trkpt><trkpt lat="44.82517226640189" lon="9.70392694962988"><ele>503.0</ele><time>2026-04-25T11:38:10.999Z</time></trkpt><trkpt lat="44.82523589273348" lon="9.704029919162172"><ele>500.0</ele><time>2026-04-25T11:38:11.999Z</time></trkpt><trkpt lat="44.825284954713304" lon="9.704148128350338"><ele>497.0</ele><time>2026-04-25T11:38:12.999Z</time></trkpt><trkpt lat="44.825309837395" lon="9.704288692966601"><ele>494.0</ele><time>2026-04-25T11:38:13.999Z</time></trkpt><trkpt lat="44.82532035900458" lon="9.704434405022795"><ele>493.79999999999995</ele><time>2026-04-25T11:38:14.999Z</time></trkpt><trkpt lat="44.82533163605657" lon="9.704583572723788"><ele>493.59999999999997</ele><time>2026-04-25T11:38:15.999Z</time></trkpt><trkpt lat="44.82534482165871" lon="9.704729514136446"><ele>493.4</ele><time>2026-04-25T11:38:16.999Z</time></trkpt><trkpt lat="44.82535886702585" lon="9.704871845126062"><ele>493.2</ele><time>2026-04-25T11:38:17.999Z</time></trkpt><trkpt lat="44.8253704446549" lon="9.705012490908684"><ele>493.0</ele><time>2026-04-25T11:38:18.999Z</time></trkpt><trkpt lat="44.82538400056618" lon="9.705159540602633"><ele>492.4</ele><time>2026-04-25T11:38:19.999Z</time></trkpt><trkpt lat="44.825401303781426" lon="9.70531233215631"><ele>491.79999999999995</ele><time>2026-04-25T11:38:20.999Z</time></trkpt><trkpt lat="44.82542730889652" lon="9.705464683238784"><ele>491.2</ele><time>2026-04-25T11:38:21.999Z</time></trkpt><trkpt lat="44.82546080569354" lon="9.705618216531212"><ele>490.6</ele><time>2026-04-25T11:38:22.999Z</time></trkpt><trkpt lat="44.82550291075166" lon="9.70576588151279"><ele>490.0</ele><time>2026-04-25T11:38:23.999Z</time></trkpt><trkpt lat="44.8255577429818" lon="9.705909133924683"><ele>490.0</ele><time>2026-04-25T11:38:24.998Z</time></trkpt><trkpt lat="44.82562609144409" lon="9.706038217802883"><ele>490.0</ele><time>2026-04-25T11:38:25.998Z</time></trkpt><trkpt lat="44.82570493070958" lon="9.706151490654191"><ele>490.0</ele><time>2026-04-25T11:38:26.998Z</time></trkpt><trkpt lat="44.82579180181061" lon="9.706251041703892"><ele>490.0</ele><time>2026-04-25T11:38:27.998Z</time></trkpt><trkpt lat="44.82587991202657" lon="9.706345302136508"><ele>490.0</ele><time>2026-04-25T11:38:28.998Z</time></trkpt><trkpt lat="44.82596705400927" lon="9.706437210505701"><ele>489.0</ele><time>2026-04-25T11:38:29.998Z</time></trkpt><trkpt lat="44.82605485697863" lon="9.706526365502901"><ele>488.0</ele><time>2026-04-25T11:38:30.998Z</time></trkpt><trkpt lat="44.826139647976945" lon="9.706617638345328"><ele>487.0</ele><time>2026-04-25T11:38:31.998Z</time></trkpt><trkpt lat="44.82622480297592" lon="9.706709864691828"><ele>486.0</ele><time>2026-04-25T11:38:32.998Z</time></trkpt><trkpt lat="44.826311277728244" lon="9.706802975053934"><ele>485.0</ele><time>2026-04-25T11:38:33.998Z</time></trkpt><trkpt lat="44.826396603820925" lon="9.706900465179938"><ele>485.5</ele><time>2026-04-25T11:38:34.998Z</time></trkpt><trkpt lat="44.826479783318874" lon="9.707004997473817"><ele>486.0</ele><time>2026-04-25T11:38:35.998Z</time></trkpt><trkpt lat="44.82656120025911" lon="9.707113970097222"><ele>486.5</ele><time>2026-04-25T11:38:36.998Z</time></trkpt><trkpt lat="44.82664049216206" lon="9.707227173604172"><ele>487.0</ele><time>2026-04-25T11:38:37.998Z</time></trkpt><trkpt lat="44.826714908712646" lon="9.707349068165316"><ele>487.0</ele><time>2026-04-25T11:38:38.998Z</time></trkpt><trkpt lat="44.826778765133454" lon="9.707480775866745"><ele>487.0</ele><time>2026-04-25T11:38:39.998Z</time></trkpt><trkpt lat="44.82683636824989" lon="9.707620225176324"><ele>487.0</ele><time>2026-04-25T11:38:40.998Z</time></trkpt><trkpt lat="44.826892104359956" lon="9.707759330344963"><ele>487.0</ele><time>2026-04-25T11:38:41.998Z</time></trkpt><trkpt lat="44.82693841332516" lon="9.70790663895592"><ele>485.8</ele><time>2026-04-25T11:38:42.998Z</time></trkpt><trkpt lat="44.82698870151288" lon="9.708045753792398"><ele>484.6</ele><time>2026-04-25T11:38:43.998Z</time></trkpt><trkpt lat="44.827048680529415" lon="9.708180120157134"><ele>483.40000000000003</ele><time>2026-04-25T11:38:44.998Z</time></trkpt><trkpt lat="44.82711300107542" lon="9.708306131929678"><ele>482.20000000000005</ele><time>2026-04-25T11:38:45.998Z</time></trkpt><trkpt lat="44.8271877803633" lon="9.708422321789444"><ele>481.0</ele><time>2026-04-25T11:38:46.998Z</time></trkpt><trkpt lat="44.82726644221518" lon="9.708532937969958"><ele>480.5</ele><time>2026-04-25T11:38:47.998Z</time></trkpt><trkpt lat="44.82734857972856" lon="9.70863768868242"><ele>480.0</ele><time>2026-04-25T11:38:48.998Z</time></trkpt><trkpt lat="44.82743591230707" lon="9.708739733534575"><ele>479.5</ele><time>2026-04-25T11:38:49.998Z</time></trkpt><trkpt lat="44.82752380376599" lon="9.708842683206047"><ele>479.0</ele><time>2026-04-25T11:38:50.998Z</time></trkpt><trkpt lat="44.82761105990624" lon="9.708948232542829"><ele>478.5</ele><time>2026-04-25T11:38:51.998Z</time></trkpt><trkpt lat="44.827696974842716" lon="9.709053313742311"><ele>478.0</ele><time>2026-04-25T11:38:52.998Z</time></trkpt><trkpt lat="44.82778352281957" lon="9.709158849661083"><ele>477.5</ele><time>2026-04-25T11:38:53.998Z</time></trkpt><trkpt lat="44.82786589120252" lon="9.709264645587844"><ele>477.0</ele><time>2026-04-25T11:38:54.998Z</time></trkpt><trkpt lat="44.82794602566094" lon="9.70937326557478"><ele>476.8</ele><time>2026-04-25T11:38:55.998Z</time></trkpt><trkpt lat="44.828021849456285" lon="9.709474885597704"><ele>476.6</ele><time>2026-04-25T11:38:56.998Z</time></trkpt><trkpt lat="44.82809265593648" lon="9.709568088308238"><ele>476.40000000000003</ele><time>2026-04-25T11:38:57.998Z</time></trkpt><trkpt lat="44.828163431108834" lon="9.709652003459764"><ele>476.20000000000005</ele><time>2026-04-25T11:38:58.998Z</time></trkpt><trkpt lat="44.828234239260205" lon="9.709726219703516"><ele>476.0</ele><time>2026-04-25T11:38:59.998Z</time></trkpt><trkpt lat="44.82831910225392" lon="9.709779285880577"><ele>476.0</ele><time>2026-04-25T11:39:00.998Z</time></trkpt><trkpt lat="44.82840995989287" lon="9.709802751991301"><ele>476.0</ele><time>2026-04-25T11:39:01.998Z</time></trkpt><trkpt lat="44.82850330979313" lon="9.709787174866356"><ele>476.0</ele><time>2026-04-25T11:39:02.998Z</time></trkpt><trkpt lat="44.82859386846128" lon="9.709763658034166"><ele>476.0</ele><time>2026-04-25T11:39:03.998Z</time></trkpt><trkpt lat="44.8286888105475" lon="9.709744721273989"><ele>476.0</ele><time>2026-04-25T11:39:04.998Z</time></trkpt><trkpt lat="44.828786530623205" lon="9.709724706771675"><ele>476.20000000000005</ele><time>2026-04-25T11:39:05.998Z</time></trkpt><trkpt lat="44.8288848173557" lon="9.70970801887977"><ele>476.40000000000003</ele><time>2026-04-25T11:39:06.998Z</time></trkpt><trkpt lat="44.82898525323987" lon="9.709701366418916"><ele>476.6</ele><time>2026-04-25T11:39:08Z</time></trkpt><trkpt lat="44.82908230105406" lon="9.709687555627374"><ele>476.8</ele><time>2026-04-25T11:39:09Z</time></trkpt><trkpt lat="44.82917650280952" lon="9.709676245029012"><ele>477.0</ele><time>2026-04-25T11:39:10Z</time></trkpt><trkpt lat="44.829266276416334" lon="9.709683896976909"><ele>474.4285714285714</ele><time>2026-04-25T11:39:11Z</time></trkpt><trkpt lat="44.829347004523605" lon="9.70973019517675"><ele>471.8571428571428</ele><time>2026-04-25T11:39:12Z</time></trkpt><trkpt lat="44.82941399110184" lon="9.70979657493737"><ele>469.2857142857143</ele><time>2026-04-25T11:39:13Z</time></trkpt><trkpt lat="44.829477413081285" lon="9.709848239566611"><ele>466.71428571428567</ele><time>2026-04-25T11:39:14Z</time></trkpt><trkpt lat="44.82953999216998" lon="9.709865550085873"><ele>464.1428571428571</ele><time>2026-04-25T11:39:15Z</time></trkpt><trkpt lat="44.82959910759934" lon="9.70982818833708"><ele>461.57142857142856</ele><time>2026-04-25T11:39:16Z</time></trkpt><trkpt lat="44.829649384020236" lon="9.70976522991135"><ele>459.0</ele><time>2026-04-25T11:39:17Z</time></trkpt><trkpt lat="44.82964956903582" lon="9.709649939463128"><ele>459.0</ele><time>2026-04-25T11:39:18Z</time></trkpt><trkpt lat="44.829598341468056" lon="9.70955159531276"><ele>459.0</ele><time>2026-04-25T11:39:19Z</time></trkpt><trkpt lat="44.82951995889626" lon="9.709514773889163"><ele>459.0</ele><time>2026-04-25T11:39:20Z</time></trkpt><trkpt lat="44.82946716932295" lon="9.70944822749262"><ele>459.0</ele><time>2026-04-25T11:39:21Z</time></trkpt><trkpt lat="44.829406720745126" lon="9.709399510412402"><ele>459.0</ele><time>2026-04-25T11:39:22Z</time></trkpt><trkpt lat="44.829341421717324" lon="9.709346520228086"><ele>459.0</ele><time>2026-04-25T11:39:23Z</time></trkpt><trkpt lat="44.82929669519448" lon="9.709250861469773"><ele>461.4</ele><time>2026-04-25T11:39:24Z</time></trkpt><trkpt lat="44.829264751762445" lon="9.70913647666216"><ele>463.79999999999995</ele><time>2026-04-25T11:39:25Z</time></trkpt><trkpt lat="44.8292579576617" lon="9.709006431463486"><ele>466.20000000000005</ele><time>2026-04-25T11:39:26Z</time></trkpt><trkpt lat="44.82924614591907" lon="9.708878231145832"><ele>468.6</ele><time>2026-04-25T11:39:27Z</time></trkpt><trkpt lat="44.82923268362271" lon="9.70874407970732"><ele>471.0</ele><time>2026-04-25T11:39:28Z</time></trkpt><trkpt lat="44.82921837648184" lon="9.708607143392388"><ele>469.20000000000005</ele><time>2026-04-25T11:39:29Z</time></trkpt><trkpt lat="44.82920302882906" lon="9.708466750054193"><ele>467.40000000000003</ele><time>2026-04-25T11:39:29.999Z</time></trkpt><trkpt lat="44.829189769363865" lon="9.708328040780048"><ele>465.6</ele><time>2026-04-25T11:39:30.999Z</time></trkpt><trkpt lat="44.82918465210102" lon="9.708198777244228"><ele>463.8</ele><time>2026-04-25T11:39:31.999Z</time></trkpt><trkpt lat="44.82919362363572" lon="9.708080574274005"><ele>462.0</ele><time>2026-04-25T11:39:32.999Z</time></trkpt><trkpt lat="44.82922950678663" lon="9.707966605407414"><ele>462.0</ele><time>2026-04-25T11:39:33.999Z</time></trkpt><trkpt lat="44.82930110151635" lon="9.70788231626107"><ele>462.00000000000006</ele><time>2026-04-25T11:39:34.999Z</time></trkpt><trkpt lat="44.82938712233222" lon="9.707837771826238"><ele>462.00000000000006</ele><time>2026-04-25T11:39:35.999Z</time></trkpt><trkpt lat="44.82947627529904" lon="9.707768499020359"><ele>462.0</ele><time>2026-04-25T11:39:36.999Z</time></trkpt><trkpt lat="44.829567426580965" lon="9.70772483981934"><ele>462.0</ele><time>2026-04-25T11:39:37.999Z</time></trkpt><trkpt lat="44.82966159975857" lon="9.707695704094963"><ele>460.20000000000005</ele><time>2026-04-25T11:39:38.999Z</time></trkpt><trkpt lat="44.82976531688809" lon="9.7077157509716"><ele>458.40000000000003</ele><time>2026-04-25T11:39:39.999Z</time></trkpt><trkpt lat="44.8298642521301" lon="9.707781259781687"><ele>456.59999999999997</ele><time>2026-04-25T11:39:40.999Z</time></trkpt><trkpt lat="44.82995206298447" lon="9.707879588309728"><ele>454.79999999999995</ele><time>2026-04-25T11:39:41.999Z</time></trkpt><trkpt lat="44.83003229898636" lon="9.707994687627865"><ele>453.0</ele><time>2026-04-25T11:39:42.999Z</time></trkpt><trkpt lat="44.83012062039031" lon="9.7081087591479"><ele>450.5</ele><time>2026-04-25T11:39:43.999Z</time></trkpt><trkpt lat="44.83021551276876" lon="9.708211942065144"><ele>448.0</ele><time>2026-04-25T11:39:44.999Z</time></trkpt><trkpt lat="44.83030555121646" lon="9.708315935702874"><ele>445.5</ele><time>2026-04-25T11:39:45.999Z</time></trkpt><trkpt lat="44.83039059490991" lon="9.708423619019708"><ele>443.0</ele><time>2026-04-25T11:39:46.999Z</time></trkpt><trkpt lat="44.830478394232564" lon="9.708529419436488"><ele>443.75</ele><time>2026-04-25T11:39:47.999Z</time></trkpt><trkpt lat="44.8305778903161" lon="9.7086219468911"><ele>444.5</ele><time>2026-04-25T11:39:48.999Z</time></trkpt><trkpt lat="44.830655242467785" lon="9.708739963017415"><ele>445.25</ele><time>2026-04-25T11:39:49.999Z</time></trkpt><trkpt lat="44.830743954370924" lon="9.708845622862265"><ele>446.0</ele><time>2026-04-25T11:39:50.999Z</time></trkpt><trkpt lat="44.8308169849354" lon="9.708982230833746"><ele>446.0</ele><time>2026-04-25T11:39:51.999Z</time></trkpt><trkpt lat="44.830886256988045" lon="9.709114278381302"><ele>446.0</ele><time>2026-04-25T11:39:52.999Z</time></trkpt><trkpt lat="44.83094557852871" lon="9.70925900344648"><ele>446.0</ele><time>2026-04-25T11:39:53.999Z</time></trkpt><trkpt lat="44.83101232104833" lon="9.709398318495598"><ele>446.0</ele><time>2026-04-25T11:39:54.999Z</time></trkpt><trkpt lat="44.83108128728642" lon="9.709538385936378"><ele>443.5</ele><time>2026-04-25T11:39:55.999Z</time></trkpt><trkpt lat="44.8311526310891" lon="9.709681230461147"><ele>441.0</ele><time>2026-04-25T11:39:56.999Z</time></trkpt><trkpt lat="44.831225951914234" lon="9.709823473905903"><ele>438.5</ele><time>2026-04-25T11:39:57.999Z</time></trkpt><trkpt lat="44.83130254482159" lon="9.70996346100146"><ele>436.0</ele><time>2026-04-25T11:39:58.999Z</time></trkpt><trkpt lat="44.83138536802243" lon="9.710097202322553"><ele>436.0</ele><time>2026-04-25T11:39:59.999Z</time></trkpt><trkpt lat="44.83146965454468" lon="9.710229121438468"><ele>436.0</ele><time>2026-04-25T11:40:00.999Z</time></trkpt><trkpt lat="44.83155161962635" lon="9.71036523722815"><ele>436.0</ele><time>2026-04-25T11:40:01.999Z</time></trkpt><trkpt lat="44.83164184812547" lon="9.710486533902"><ele>436.0</ele><time>2026-04-25T11:40:02.999Z</time></trkpt><trkpt lat="44.83174903844176" lon="9.710586004270374"><ele>433.75</ele><time>2026-04-25T11:40:03.999Z</time></trkpt><trkpt lat="44.831852428861346" lon="9.710671842409376"><ele>431.5</ele><time>2026-04-25T11:40:04.999Z</time></trkpt><trkpt lat="44.83195315466493" lon="9.710756344304052"><ele>429.25</ele><time>2026-04-25T11:40:05.999Z</time></trkpt><trkpt lat="44.83204872701104" lon="9.710847290432785"><ele>427.0</ele><time>2026-04-25T11:40:06.999Z</time></trkpt><trkpt lat="44.83213600022403" lon="9.710948093247687"><ele>427.0</ele><time>2026-04-25T11:40:07.999Z</time></trkpt><trkpt lat="44.832198691860135" lon="9.711076669268389"><ele>427.0</ele><time>2026-04-25T11:40:08.999Z</time></trkpt><trkpt lat="44.832245729729706" lon="9.711223269070302"><ele>427.0</ele><time>2026-04-25T11:40:09.999Z</time></trkpt><trkpt lat="44.83228316804722" lon="9.711377324890677"><ele>427.0</ele><time>2026-04-25T11:40:10.999Z</time></trkpt><trkpt lat="44.83232546335376" lon="9.711530999899308"><ele>427.0</ele><time>2026-04-25T11:40:11.999Z</time></trkpt><trkpt lat="44.83236577870674" lon="9.711688509922059"><ele>427.0</ele><time>2026-04-25T11:40:12.999Z</time></trkpt><trkpt lat="44.83238332002771" lon="9.711855591130067"><ele>427.0</ele><time>2026-04-25T11:40:13.999Z</time></trkpt><trkpt lat="44.8323771742334" lon="9.712024031074499"><ele>427.0</ele><time>2026-04-25T11:40:14.999Z</time></trkpt><trkpt lat="44.83236548340817" lon="9.712192849601411"><ele>426.75</ele><time>2026-04-25T11:40:15.999Z</time></trkpt><trkpt lat="44.83234972369209" lon="9.712361006907031"><ele>426.5</ele><time>2026-04-25T11:40:16.999Z</time></trkpt><trkpt lat="44.83233511263748" lon="9.712528178208691"><ele>426.25</ele><time>2026-04-25T11:40:17.999Z</time></trkpt><trkpt lat="44.832319144732836" lon="9.712696185919318"><ele>426.0</ele><time>2026-04-25T11:40:18.999Z</time></trkpt><trkpt lat="44.832303157784146" lon="9.712863488464523"><ele>425.75</ele><time>2026-04-25T11:40:19.999Z</time></trkpt><trkpt lat="44.83228589148805" lon="9.713031364694737"><ele>425.5</ele><time>2026-04-25T11:40:20.999Z</time></trkpt><trkpt lat="44.832272352097576" lon="9.713199920518491"><ele>425.25</ele><time>2026-04-25T11:40:21.999Z</time></trkpt><trkpt lat="44.83227377412582" lon="9.713369528462952"><ele>425.0</ele><time>2026-04-25T11:40:22.999Z</time></trkpt><trkpt lat="44.832292659126054" lon="9.713538156418664"><ele>425.0</ele><time>2026-04-25T11:40:23.999Z</time></trkpt><trkpt lat="44.83233251115086" lon="9.713697678395679"><ele>425.0</ele><time>2026-04-25T11:40:24.999Z</time></trkpt><trkpt lat="44.832382114295164" lon="9.713850044006403"><ele>425.0</ele><time>2026-04-25T11:40:25.999Z</time></trkpt><trkpt lat="44.83243078674453" lon="9.714001561373442"><ele>425.0</ele><time>2026-04-25T11:40:26.998Z</time></trkpt><trkpt lat="44.83248094121834" lon="9.714153497809148"><ele>425.0</ele><time>2026-04-25T11:40:27.998Z</time></trkpt><trkpt lat="44.8325298622619" lon="9.714303677143509"><ele>425.0</ele><time>2026-04-25T11:40:28.998Z</time></trkpt><trkpt lat="44.832576278438616" lon="9.714455612432209"><ele>425.0</ele><time>2026-04-25T11:40:29.998Z</time></trkpt><trkpt lat="44.83262146444074" lon="9.714608676417942"><ele>425.0</ele><time>2026-04-25T11:40:30.998Z</time></trkpt><trkpt lat="44.83265943217894" lon="9.714765409144643"><ele>422.0</ele><time>2026-04-25T11:40:31.998Z</time></trkpt><trkpt lat="44.83269076111819" lon="9.714917318892223"><ele>419.0</ele><time>2026-04-25T11:40:32.998Z</time></trkpt><trkpt lat="44.83273087934642" lon="9.715066261934854"><ele>416.0</ele><time>2026-04-25T11:40:33.998Z</time></trkpt><trkpt lat="44.83278213815049" lon="9.715211302457666"><ele>413.0</ele><time>2026-04-25T11:40:34.998Z</time></trkpt><trkpt lat="44.83283377091578" lon="9.715353599328841"><ele>412.59999999999997</ele><time>2026-04-25T11:40:35.998Z</time></trkpt><trkpt lat="44.83288722821799" lon="9.715483956818115"><ele>412.2</ele><time>2026-04-25T11:40:36.998Z</time></trkpt><trkpt lat="44.83293654843991" lon="9.715614159357369"><ele>411.8</ele><time>2026-04-25T11:40:37.998Z</time></trkpt><trkpt lat="44.83297443129834" lon="9.715751638295666"><ele>411.4</ele><time>2026-04-25T11:40:38.998Z</time></trkpt><trkpt lat="44.832995811225246" lon="9.715895914494192"><ele>411.0</ele><time>2026-04-25T11:40:39.998Z</time></trkpt><trkpt lat="44.832996096270975" lon="9.716042293501989"><ele>410.0</ele><time>2026-04-25T11:40:40.998Z</time></trkpt><trkpt lat="44.83298170097902" lon="9.716187685416818"><ele>409.0</ele><time>2026-04-25T11:40:41.998Z</time></trkpt><trkpt lat="44.83295733847811" lon="9.716334636468092"><ele>408.0</ele><time>2026-04-25T11:40:42.998Z</time></trkpt><trkpt lat="44.8329322254635" lon="9.716479460154586"><ele>407.0</ele><time>2026-04-25T11:40:43.998Z</time></trkpt><trkpt lat="44.83290354854698" lon="9.716627657781222"><ele>406.0</ele><time>2026-04-25T11:40:44.998Z</time></trkpt><trkpt lat="44.83288940437198" lon="9.716774704855823"><ele>405.8</ele><time>2026-04-25T11:40:45.998Z</time></trkpt><trkpt lat="44.832904900988474" lon="9.716930766620118"><ele>405.6</ele><time>2026-04-25T11:40:46.998Z</time></trkpt><trkpt lat="44.83294055864108" lon="9.71707818765101"><ele>405.4</ele><time>2026-04-25T11:40:47.998Z</time></trkpt><trkpt lat="44.8329816978475" lon="9.717218073678618"><ele>405.2</ele><time>2026-04-25T11:40:48.998Z</time></trkpt><trkpt lat="44.83302117841219" lon="9.717357558697925"><ele>405.0</ele><time>2026-04-25T11:40:49.998Z</time></trkpt><trkpt lat="44.833040816925255" lon="9.717503344808534"><ele>405.0</ele><time>2026-04-25T11:40:50.998Z</time></trkpt><trkpt lat="44.83302474449672" lon="9.717648895474184"><ele>405.0</ele><time>2026-04-25T11:40:51.998Z</time></trkpt><trkpt lat="44.83299113600068" lon="9.717778350396712"><ele>405.0</ele><time>2026-04-25T11:40:52.998Z</time></trkpt><trkpt lat="44.83295475063091" lon="9.717905140287396"><ele>405.0</ele><time>2026-04-25T11:40:53.998Z</time></trkpt><trkpt lat="44.832922958372016" lon="9.71803433704716"><ele>405.0</ele><time>2026-04-25T11:40:54.998Z</time></trkpt><trkpt lat="44.83289948983275" lon="9.718167989891743"><ele>404.6</ele><time>2026-04-25T11:40:55.998Z</time></trkpt><trkpt lat="44.832880598325026" lon="9.718302810189746"><ele>404.2</ele><time>2026-04-25T11:40:56.998Z</time></trkpt><trkpt lat="44.83286652617047" lon="9.71843910873249"><ele>403.79999999999995</ele><time>2026-04-25T11:40:57.998Z</time></trkpt><trkpt lat="44.83285391168965" lon="9.71857916601309"><ele>403.4</ele><time>2026-04-25T11:40:58.998Z</time></trkpt><trkpt lat="44.83283585400454" lon="9.718714192700869"><ele>403.0</ele><time>2026-04-25T11:40:59.998Z</time></trkpt><trkpt lat="44.8328082523696" lon="9.718842892491107"><ele>402.79999999999995</ele><time>2026-04-25T11:41:00.998Z</time></trkpt><trkpt lat="44.83276536922915" lon="9.718955794436935"><ele>402.6</ele><time>2026-04-25T11:41:01.998Z</time></trkpt><trkpt lat="44.832724420313404" lon="9.719066002062686"><ele>402.4</ele><time>2026-04-25T11:41:02.998Z</time></trkpt><trkpt lat="44.83269559189273" lon="9.719186601954286"><ele>402.20000000000005</ele><time>2026-04-25T11:41:03.998Z</time></trkpt><trkpt lat="44.83269416453622" lon="9.719314055017197"><ele>402.0</ele><time>2026-04-25T11:41:04.998Z</time></trkpt><trkpt lat="44.832720168794346" lon="9.719440679161046"><ele>403.0</ele><time>2026-04-25T11:41:05.998Z</time></trkpt><trkpt lat="44.832760129958594" lon="9.719560720165934"><ele>404.0</ele><time>2026-04-25T11:41:06.998Z</time></trkpt><trkpt lat="44.83281591651772" lon="9.71967514088265"><ele>405.0</ele><time>2026-04-25T11:41:07.998Z</time></trkpt><trkpt lat="44.83288012438325" lon="9.71978381782356"><ele>406.0</ele><time>2026-04-25T11:41:08.998Z</time></trkpt><trkpt lat="44.83295629149944" lon="9.719878717743285"><ele>407.0</ele><time>2026-04-25T11:41:09.998Z</time></trkpt><trkpt lat="44.833041410471935" lon="9.719963045988322"><ele>407.0</ele><time>2026-04-25T11:41:10.998Z</time></trkpt><trkpt lat="44.83313525713545" lon="9.720033171638255"><ele>407.0</ele><time>2026-04-25T11:41:11.998Z</time></trkpt><trkpt lat="44.83322518110825" lon="9.720098120872773"><ele>407.0</ele><time>2026-04-25T11:41:12.998Z</time></trkpt><trkpt lat="44.83331796590475" lon="9.720157067319873"><ele>407.0</ele><time>2026-04-25T11:41:14Z</time></trkpt><trkpt lat="44.8334078326893" lon="9.720212227261303"><ele>407.0</ele><time>2026-04-25T11:41:15Z</time></trkpt><trkpt lat="44.833490950806784" lon="9.720271916703856"><ele>406.40000000000003</ele><time>2026-04-25T11:41:16Z</time></trkpt><trkpt lat="44.833572856252644" lon="9.72033399194026"><ele>405.8</ele><time>2026-04-25T11:41:17Z</time></trkpt><trkpt lat="44.833652110789636" lon="9.72040240888539"><ele>405.2</ele><time>2026-04-25T11:41:18Z</time></trkpt><trkpt lat="44.83373154278708" lon="9.720466759391826"><ele>404.6</ele><time>2026-04-25T11:41:19Z</time></trkpt><trkpt lat="44.83381098685572" lon="9.720535329124184"><ele>404.0</ele><time>2026-04-25T11:41:20Z</time></trkpt><trkpt lat="44.8338904092088" lon="9.720607790349785"><ele>404.0</ele><time>2026-04-25T11:41:21Z</time></trkpt><trkpt lat="44.83397044038444" lon="9.72068402456852"><ele>404.0</ele><time>2026-04-25T11:41:22Z</time></trkpt><trkpt lat="44.834043208646506" lon="9.720770923006855"><ele>404.0</ele><time>2026-04-25T11:41:23Z</time></trkpt><trkpt lat="44.834107853124834" lon="9.720875527194877"><ele>404.0</ele><time>2026-04-25T11:41:24Z</time></trkpt><trkpt lat="44.83415847752451" lon="9.72099516619201"><ele>404.0</ele><time>2026-04-25T11:41:25Z</time></trkpt><trkpt lat="44.83419070523081" lon="9.721127267109319"><ele>403.2</ele><time>2026-04-25T11:41:26Z</time></trkpt><trkpt lat="44.83420960471398" lon="9.721258976702183"><ele>402.4</ele><time>2026-04-25T11:41:27Z</time></trkpt><trkpt lat="44.834227336567544" lon="9.721388166645815"><ele>401.6</ele><time>2026-04-25T11:41:28Z</time></trkpt><trkpt lat="44.83425441956246" lon="9.721515863800864"><ele>400.8</ele><time>2026-04-25T11:41:29Z</time></trkpt><trkpt lat="44.834275095706765" lon="9.721642295824362"><ele>400.0</ele><time>2026-04-25T11:41:30Z</time></trkpt><trkpt lat="44.834307010865516" lon="9.721765816757191"><ele>400.0</ele><time>2026-04-25T11:41:31Z</time></trkpt><trkpt lat="44.834361355779244" lon="9.721871429099892"><ele>400.0</ele><time>2026-04-25T11:41:32Z</time></trkpt><trkpt lat="44.83442870170791" lon="9.721959892513143"><ele>400.0</ele><time>2026-04-25T11:41:33Z</time></trkpt><trkpt lat="44.83449972962668" lon="9.722037478082628"><ele>400.0</ele><time>2026-04-25T11:41:34Z</time></trkpt><trkpt lat="44.83456950602906" lon="9.722114307672403"><ele>400.0</ele><time>2026-04-25T11:41:34.999Z</time></trkpt><trkpt lat="44.8346369993293" lon="9.722192129911528"><ele>400.50000000000006</ele><time>2026-04-25T11:41:35.999Z</time></trkpt><trkpt lat="44.83471018447076" lon="9.72225842103246"><ele>401.0</ele><time>2026-04-25T11:41:36.999Z</time></trkpt><trkpt lat="44.83479114805923" lon="9.722305555944628"><ele>401.5</ele><time>2026-04-25T11:41:37.999Z</time></trkpt><trkpt lat="44.83485631161911" lon="9.722385089143414"><ele>402.0</ele><time>2026-04-25T11:41:38.999Z</time></trkpt><trkpt lat="44.83491074251766" lon="9.722487940648751"><ele>402.50000000000006</ele><time>2026-04-25T11:41:39.999Z</time></trkpt><trkpt lat="44.83494193809773" lon="9.722611812416382"><ele>403.0</ele><time>2026-04-25T11:41:40.999Z</time></trkpt><trkpt lat="44.834943799183975" lon="9.722744642383581"><ele>403.0</ele><time>2026-04-25T11:41:41.999Z</time></trkpt><trkpt lat="44.834906815174584" lon="9.722868027142017"><ele>403.0</ele><time>2026-04-25T11:41:42.999Z</time></trkpt><trkpt lat="44.83485061877477" lon="9.722975452865455"><ele>403.0</ele><time>2026-04-25T11:41:43.999Z</time></trkpt><trkpt lat="44.83479107385001" lon="9.723074374211317"><ele>403.0</ele><time>2026-04-25T11:41:44.999Z</time></trkpt><trkpt lat="44.83473322312116" lon="9.723177346333765"><ele>403.0</ele><time>2026-04-25T11:41:45.999Z</time></trkpt><trkpt lat="44.83468292933987" lon="9.723283930576276"><ele>403.00000000000006</ele><time>2026-04-25T11:41:46.999Z</time></trkpt><trkpt lat="44.83463998951792" lon="9.723394363315544"><ele>403.0</ele><time>2026-04-25T11:41:47.999Z</time></trkpt><trkpt lat="44.83459675916499" lon="9.723505634771126"><ele>403.0</ele><time>2026-04-25T11:41:48.999Z</time></trkpt><trkpt lat="44.83455316643802" lon="9.72361507228909"><ele>403.0</ele><time>2026-04-25T11:41:49.999Z</time></trkpt><trkpt lat="44.83451538544816" lon="9.723727937925839"><ele>403.00000000000006</ele><time>2026-04-25T11:41:50.999Z</time></trkpt><trkpt lat="44.83448076958524" lon="9.723844623050976"><ele>403.0</ele><time>2026-04-25T11:41:51.999Z</time></trkpt><trkpt lat="44.83444405427735" lon="9.723960767930736"><ele>401.79999999999995</ele><time>2026-04-25T11:41:52.999Z</time></trkpt><trkpt lat="44.83441225815705" lon="9.724079246043557"><ele>400.6</ele><time>2026-04-25T11:41:53.999Z</time></trkpt><trkpt lat="44.834387305372715" lon="9.724202561840189"><ele>399.4</ele><time>2026-04-25T11:41:54.999Z</time></trkpt><trkpt lat="44.83436460052512" lon="9.72432684225232"><ele>398.20000000000005</ele><time>2026-04-25T11:41:55.999Z</time></trkpt><trkpt lat="44.83435613837957" lon="9.724455096716923"><ele>397.0</ele><time>2026-04-25T11:41:56.999Z</time></trkpt><trkpt lat="44.83436382700151" lon="9.724586813091832"><ele>395.6</ele><time>2026-04-25T11:41:57.999Z</time></trkpt><trkpt lat="44.83437598039825" lon="9.724714008659918"><ele>394.20000000000005</ele><time>2026-04-25T11:41:58.999Z</time></trkpt><trkpt lat="44.83439245897383" lon="9.724839598921625"><ele>392.8</ele><time>2026-04-25T11:41:59.999Z</time></trkpt><trkpt lat="44.834412159874795" lon="9.724964347243537"><ele>391.4</ele><time>2026-04-25T11:42:00.999Z</time></trkpt><trkpt lat="44.83442801145403" lon="9.7250878432726"><ele>390.0</ele><time>2026-04-25T11:42:01.999Z</time></trkpt><trkpt lat="44.834437915927204" lon="9.72521393910139"><ele>388.8</ele><time>2026-04-25T11:42:02.999Z</time></trkpt><trkpt lat="44.834436717692405" lon="9.72534085710072"><ele>387.6</ele><time>2026-04-25T11:42:03.999Z</time></trkpt><trkpt lat="44.8344273404408" lon="9.725469821029684"><ele>386.4</ele><time>2026-04-25T11:42:04.999Z</time></trkpt><trkpt lat="44.834414546855065" lon="9.72559977391129"><ele>385.2</ele><time>2026-04-25T11:42:05.999Z</time></trkpt><trkpt lat="44.83440074712485" lon="9.725731546644205"><ele>384.0</ele><time>2026-04-25T11:42:06.999Z</time></trkpt><trkpt lat="44.83438745223538" lon="9.72586713733511"><ele>384.0</ele><time>2026-04-25T11:42:07.999Z</time></trkpt><trkpt lat="44.834372841186365" lon="9.726002648752102"><ele>384.0</ele><time>2026-04-25T11:42:08.999Z</time></trkpt><trkpt lat="44.83435871274464" lon="9.726140008955406"><ele>384.0</ele><time>2026-04-25T11:42:09.999Z</time></trkpt><trkpt lat="44.83434191995159" lon="9.726278296746738"><ele>384.0</ele><time>2026-04-25T11:42:10.999Z</time></trkpt><trkpt lat="44.83432675192498" lon="9.726417958972492"><ele>384.0</ele><time>2026-04-25T11:42:11.999Z</time></trkpt><trkpt lat="44.834311724948115" lon="9.726561203551476"><ele>384.79999999999995</ele><time>2026-04-25T11:42:12.999Z</time></trkpt><trkpt lat="44.83429536600929" lon="9.726707895646516"><ele>385.59999999999997</ele><time>2026-04-25T11:42:13.999Z</time></trkpt><trkpt lat="44.83427081439233" lon="9.726854280480275"><ele>386.4</ele><time>2026-04-25T11:42:14.999Z</time></trkpt><trkpt lat="44.83424558509759" lon="9.727002558806742"><ele>387.2</ele><time>2026-04-25T11:42:15.999Z</time></trkpt><trkpt lat="44.83422029913858" lon="9.727152261557016"><ele>388.0</ele><time>2026-04-25T11:42:16.999Z</time></trkpt><trkpt lat="44.83419277765988" lon="9.72730403447"><ele>388.0</ele><time>2026-04-25T11:42:17.999Z</time></trkpt><trkpt lat="44.8341655794112" lon="9.727453373487993"><ele>388.0</ele><time>2026-04-25T11:42:18.999Z</time></trkpt><trkpt lat="44.8341420500787" lon="9.727603230612859"><ele>388.0</ele><time>2026-04-25T11:42:19.999Z</time></trkpt><trkpt lat="44.83412018427889" lon="9.727755268650231"><ele>388.0</ele><time>2026-04-25T11:42:20.999Z</time></trkpt><trkpt lat="44.834098865042336" lon="9.72790846636013"><ele>388.0</ele><time>2026-04-25T11:42:21.999Z</time></trkpt><trkpt lat="44.8340773594908" lon="9.728065779616477"><ele>387.79999999999995</ele><time>2026-04-25T11:42:22.999Z</time></trkpt><trkpt lat="44.8340628955295" lon="9.728223595403287"><ele>387.6</ele><time>2026-04-25T11:42:23.999Z</time></trkpt><trkpt lat="44.8340533629151" lon="9.728384304846342"><ele>387.4</ele><time>2026-04-25T11:42:24.999Z</time></trkpt><trkpt lat="44.83404253209031" lon="9.728543742922046"><ele>387.20000000000005</ele><time>2026-04-25T11:42:25.999Z</time></trkpt><trkpt lat="44.83403383671207" lon="9.728693349360165"><ele>387.0</ele><time>2026-04-25T11:42:26.999Z</time></trkpt><trkpt lat="44.834019097197135" lon="9.728828152446008"><ele>385.8333333333333</ele><time>2026-04-25T11:42:27.999Z</time></trkpt><trkpt lat="44.8340010353781" lon="9.7289357645595"><ele>384.6666666666667</ele><time>2026-04-25T11:42:28.999Z</time></trkpt><trkpt lat="44.83395303590188" lon="9.729092442544125"><ele>383.5</ele><time>2026-04-25T11:42:30.999Z</time></trkpt><trkpt lat="44.83391855347363" lon="9.729170649807823"><ele>382.33333333333337</ele><time>2026-04-25T11:42:31.999Z</time></trkpt><trkpt lat="44.833870596572986" lon="9.729237136408717"><ele>381.1666666666667</ele><time>2026-04-25T11:42:32.998Z</time></trkpt><trkpt lat="44.833804297947154" lon="9.729286056444083"><ele>380.0</ele><time>2026-04-25T11:42:33.998Z</time></trkpt><trkpt lat="44.833730994492115" lon="9.729330337440357"><ele>380.0</ele><time>2026-04-25T11:42:34.998Z</time></trkpt><trkpt lat="44.8336585542887" lon="9.729381458842768"><ele>380.0</ele><time>2026-04-25T11:42:35.998Z</time></trkpt><trkpt lat="44.83357758741585" lon="9.72941716599999"><ele>380.0</ele><time>2026-04-25T11:42:36.998Z</time></trkpt><trkpt lat="44.83349163779843" lon="9.729431521510898"><ele>380.0</ele><time>2026-04-25T11:42:37.998Z</time></trkpt><trkpt lat="44.833410328319715" lon="9.729434493735743"><ele>380.0</ele><time>2026-04-25T11:42:38.998Z</time></trkpt><trkpt lat="44.833336690329894" lon="9.7294224258222"><ele>380.0</ele><time>2026-04-25T11:42:39.998Z</time></trkpt><trkpt lat="44.83326277708978" lon="9.72941342611135"><ele>380.83333333333337</ele><time>2026-04-25T11:42:40.998Z</time></trkpt><trkpt lat="44.83318892971619" lon="9.729402736409547"><ele>381.6666666666667</ele><time>2026-04-25T11:42:41.998Z</time></trkpt><trkpt lat="44.83311682762662" lon="9.729379490528705"><ele>382.5</ele><time>2026-04-25T11:42:42.998Z</time></trkpt><trkpt lat="44.83305193912761" lon="9.72932295956516"><ele>383.33333333333337</ele><time>2026-04-25T11:42:43.998Z</time></trkpt><trkpt lat="44.83298157637059" lon="9.729277623536628"><ele>384.1666666666667</ele><time>2026-04-25T11:42:44.998Z</time></trkpt><trkpt lat="44.832907665697526" lon="9.729251620909967"><ele>385.0</ele><time>2026-04-25T11:42:45.998Z</time></trkpt><trkpt lat="44.83283944096883" lon="9.72918910771064"><ele>385.00000000000006</ele><time>2026-04-25T11:42:46.998Z</time></trkpt><trkpt lat="44.83275076559485" lon="9.729191067784518"><ele>385.0</ele><time>2026-04-25T11:42:47.998Z</time></trkpt><trkpt lat="44.83266830861575" lon="9.729156051754686"><ele>385.0</ele><time>2026-04-25T11:42:48.998Z</time></trkpt><trkpt lat="44.8325805514361" lon="9.729176048555876"><ele>385.0</ele><time>2026-04-25T11:42:49.998Z</time></trkpt><trkpt lat="44.832495647992914" lon="9.72916724142903"><ele>385.00000000000006</ele><time>2026-04-25T11:42:50.998Z</time></trkpt><trkpt lat="44.832411783962776" lon="9.729167676434493"><ele>385.0</ele><time>2026-04-25T11:42:51.998Z</time></trkpt><trkpt lat="44.832327183473176" lon="9.729174303231806"><ele>383.33333333333337</ele><time>2026-04-25T11:42:52.998Z</time></trkpt><trkpt lat="44.832241576556015" lon="9.729196199584305"><ele>381.6666666666667</ele><time>2026-04-25T11:42:53.998Z</time></trkpt><trkpt lat="44.83216125141927" lon="9.72923396121667"><ele>380.0</ele><time>2026-04-25T11:42:54.998Z</time></trkpt><trkpt lat="44.832085031306036" lon="9.729273819875408"><ele>378.33333333333337</ele><time>2026-04-25T11:42:55.998Z</time></trkpt><trkpt lat="44.832015135147955" lon="9.72930739943307"><ele>376.6666666666667</ele><time>2026-04-25T11:42:56.998Z</time></trkpt><trkpt lat="44.831955557991414" lon="9.72933874073527"><ele>375.0</ele><time>2026-04-25T11:42:57.998Z</time></trkpt><trkpt lat="44.831845975344855" lon="9.729394330717831"><ele>373.4</ele><time>2026-04-25T11:42:59.998Z</time></trkpt><trkpt lat="44.83174528121639" lon="9.729438998156006"><ele>371.8</ele><time>2026-04-25T11:43:01.998Z</time></trkpt><trkpt lat="44.8316997039062" lon="9.729521295145362"><ele>370.20000000000005</ele><time>2026-04-25T11:43:03.998Z</time></trkpt><trkpt lat="44.83171168934704" lon="9.729629684616786"><ele>368.6</ele><time>2026-04-25T11:43:05.998Z</time></trkpt><trkpt lat="44.83175806100329" lon="9.729736024848586"><ele>367.0</ele><time>2026-04-25T11:43:07.998Z</time></trkpt><trkpt lat="44.831836488687955" lon="9.729851174268584"><ele>367.0</ele><time>2026-04-25T11:43:09.998Z</time></trkpt><trkpt lat="44.83190797022448" lon="9.729989079432434"><ele>367.0</ele><time>2026-04-25T11:43:11.998Z</time></trkpt><trkpt lat="44.83195069838417" lon="9.7300676102352"><ele>367.0</ele><time>2026-04-25T11:43:12.998Z</time></trkpt><trkpt lat="44.83198850647851" lon="9.730147935565807"><ele>367.0</ele><time>2026-04-25T11:43:13.998Z</time></trkpt><trkpt lat="44.83202658905736" lon="9.73023128592433"><ele>367.0</ele><time>2026-04-25T11:43:14.998Z</time></trkpt><trkpt lat="44.832065365526745" lon="9.730310812477594"><ele>367.0</ele><time>2026-04-25T11:43:15.998Z</time></trkpt><trkpt lat="44.832106718705305" lon="9.730391597724612"><ele>365.8333333333333</ele><time>2026-04-25T11:43:16.998Z</time></trkpt><trkpt lat="44.83214762769566" lon="9.73047150671249"><ele>364.66666666666663</ele><time>2026-04-25T11:43:17.998Z</time></trkpt><trkpt lat="44.83218793779816" lon="9.730550997523107"><ele>363.5</ele><time>2026-04-25T11:43:18.998Z</time></trkpt><trkpt lat="44.83223329213083" lon="9.730629760080266"><ele>362.3333333333333</ele><time>2026-04-25T11:43:20Z</time></trkpt><trkpt lat="44.832276709976284" lon="9.730706996745564"><ele>361.1666666666667</ele><time>2026-04-25T11:43:21Z</time></trkpt><trkpt lat="44.832317835516015" lon="9.730781549208142"><ele>360.0</ele><time>2026-04-25T11:43:22Z</time></trkpt><trkpt lat="44.83237937128698" lon="9.73091988203887"><ele>360.0</ele><time>2026-04-25T11:43:24Z</time></trkpt><trkpt lat="44.832427341198326" lon="9.731035116334937"><ele>360.0</ele><time>2026-04-25T11:43:26Z</time></trkpt><trkpt lat="44.83247666871667" lon="9.731125466657135"><ele>360.0</ele><time>2026-04-25T11:44:37.998Z</time></trkpt><trkpt lat="44.83253968631093" lon="9.731191699895502"><ele>360.0</ele><time>2026-04-25T11:44:40.998Z</time></trkpt><trkpt lat="44.83258903389953" lon="9.731304590026129"><ele>360.0</ele><time>2026-04-25T11:44:43.998Z</time></trkpt><trkpt lat="44.83263576358124" lon="9.731380938403317"><ele>360.0</ele><time>2026-04-25T11:44:45.998Z</time></trkpt><trkpt lat="44.83269032599939" lon="9.731449093482528"><ele>359.6</ele><time>2026-04-25T11:44:47.998Z</time></trkpt><trkpt lat="44.83275615817466" lon="9.731512407001548"><ele>359.2</ele><time>2026-04-25T11:44:49.998Z</time></trkpt><trkpt lat="44.83283058089103" lon="9.731588295649367"><ele>358.79999999999995</ele><time>2026-04-25T11:44:51.998Z</time></trkpt><trkpt lat="44.83292050773792" lon="9.731670452899287"><ele>358.4</ele><time>2026-04-25T11:44:53.998Z</time></trkpt><trkpt lat="44.83301918842253" lon="9.73177403623666"><ele>358.0</ele><time>2026-04-25T11:44:55.998Z</time></trkpt><trkpt lat="44.833134911575776" lon="9.731859904488974"><ele>357.00000000000006</ele><time>2026-04-25T11:44:57.998Z</time></trkpt><trkpt lat="44.83319715734472" lon="9.73189307781629"><ele>356.0</ele><time>2026-04-25T11:44:58.998Z</time></trkpt><trkpt lat="44.8332592481507" lon="9.731927638200936"><ele>355.0</ele><time>2026-04-25T11:44:59.998Z</time></trkpt><trkpt lat="44.83332649848398" lon="9.731962960515641"><ele>354.0</ele><time>2026-04-25T11:45:00.998Z</time></trkpt><trkpt lat="44.83339586431249" lon="9.73199735094324"><ele>353.0</ele><time>2026-04-25T11:45:01.998Z</time></trkpt><trkpt lat="44.83346554836763" lon="9.732031856266412"><ele>352.00000000000006</ele><time>2026-04-25T11:45:02.998Z</time></trkpt><trkpt lat="44.8335397904998" lon="9.732067748871005"><ele>351.0</ele><time>2026-04-25T11:45:03.998Z</time></trkpt><trkpt lat="44.83361439790967" lon="9.732101399499399"><ele>350.8333333333333</ele><time>2026-04-25T11:45:04.998Z</time></trkpt><trkpt lat="44.833690728190035" lon="9.732139496455302"><ele>350.6666666666667</ele><time>2026-04-25T11:45:05.998Z</time></trkpt><trkpt lat="44.83376672644758" lon="9.732179428836172"><ele>350.5</ele><time>2026-04-25T11:45:06.998Z</time></trkpt><trkpt lat="44.833845324344544" lon="9.73222317105912"><ele>350.33333333333337</ele><time>2026-04-25T11:45:07.998Z</time></trkpt><trkpt lat="44.8339300974613" lon="9.732263215606434"><ele>350.1666666666667</ele><time>2026-04-25T11:45:08.998Z</time></trkpt><trkpt lat="44.83401780689166" lon="9.732298774145594"><ele>350.0</ele><time>2026-04-25T11:45:09.998Z</time></trkpt><trkpt lat="44.8341054818368" lon="9.732339206524866"><ele>350.0</ele><time>2026-04-25T11:45:10.998Z</time></trkpt><trkpt lat="44.83419762135742" lon="9.732385408137384"><ele>350.0</ele><time>2026-04-25T11:45:11.998Z</time></trkpt><trkpt lat="44.83429192244387" lon="9.732428811932182"><ele>350.0</ele><time>2026-04-25T11:45:12.998Z</time></trkpt><trkpt lat="44.83438516151227" lon="9.73247564081291"><ele>350.0</ele><time>2026-04-25T11:45:13.998Z</time></trkpt><trkpt lat="44.83448429708779" lon="9.732518600266337"><ele>350.0</ele><time>2026-04-25T11:45:14.998Z</time></trkpt><trkpt lat="44.83458472871423" lon="9.732559987057591"><ele>349.6</ele><time>2026-04-25T11:45:15.998Z</time></trkpt><trkpt lat="44.834689412061415" lon="9.73260482061442"><ele>349.2</ele><time>2026-04-25T11:45:16.998Z</time></trkpt><trkpt lat="44.83479123315562" lon="9.732653493433117"><ele>348.79999999999995</ele><time>2026-04-25T11:45:17.998Z</time></trkpt><trkpt lat="44.834895192015765" lon="9.732711907980026"><ele>348.4</ele><time>2026-04-25T11:45:18.998Z</time></trkpt><trkpt lat="44.83499726063851" lon="9.732777622652874"><ele>348.0</ele><time>2026-04-25T11:45:19.998Z</time></trkpt><trkpt lat="44.8350958619682" lon="9.73286129704039"><ele>346.59999999999997</ele><time>2026-04-25T11:45:20.998Z</time></trkpt><trkpt lat="44.83519536943067" lon="9.73294713439596"><ele>345.2</ele><time>2026-04-25T11:45:21.998Z</time></trkpt><trkpt lat="44.83529010570854" lon="9.733030901354077"><ele>343.8</ele><time>2026-04-25T11:45:22.998Z</time></trkpt><trkpt lat="44.835373760618" lon="9.733117812466638"><ele>342.4</ele><time>2026-04-25T11:45:23.998Z</time></trkpt><trkpt lat="44.83543878793456" lon="9.733207852102367"><ele>341.0</ele><time>2026-04-25T11:45:24.998Z</time></trkpt><trkpt lat="44.83548110115137" lon="9.733313687878764"><ele>341.0</ele><time>2026-04-25T11:45:26Z</time></trkpt><trkpt lat="44.83546977475885" lon="9.733429813442216"><ele>341.0</ele><time>2026-04-25T11:45:27Z</time></trkpt><trkpt lat="44.83540936722912" lon="9.733517689859736"><ele>341.0</ele><time>2026-04-25T11:45:28Z</time></trkpt><trkpt lat="44.835315665061195" lon="9.733533046541861"><ele>341.0</ele><time>2026-04-25T11:45:29Z</time></trkpt><trkpt lat="44.83522894378856" lon="9.733497792199328"><ele>341.0</ele><time>2026-04-25T11:45:30Z</time></trkpt><trkpt lat="44.83514851584907" lon="9.733446130940246"><ele>341.0</ele><time>2026-04-25T11:45:31Z</time></trkpt><trkpt lat="44.835066207707875" lon="9.733404381936694"><ele>339.5</ele><time>2026-04-25T11:45:32Z</time></trkpt><trkpt lat="44.834981257069835" lon="9.733378397406318"><ele>338.0</ele><time>2026-04-25T11:45:33Z</time></trkpt><trkpt lat="44.83489156110691" lon="9.733368107388344"><ele>336.5</ele><time>2026-04-25T11:45:34Z</time></trkpt><trkpt lat="44.83480193584535" lon="9.733371880679357"><ele>335.0</ele><time>2026-04-25T11:45:35Z</time></trkpt><trkpt lat="44.834712395319436" lon="9.733387433739507"><ele>333.5</ele><time>2026-04-25T11:45:36Z</time></trkpt><trkpt lat="44.83462333515153" lon="9.733410577113595"><ele>332.0</ele><time>2026-04-25T11:45:37Z</time></trkpt><trkpt lat="44.834535333170294" lon="9.733432872056914"><ele>332.0</ele><time>2026-04-25T11:45:38Z</time></trkpt><trkpt lat="44.83444551825681" lon="9.733452453856966"><ele>332.0</ele><time>2026-04-25T11:45:39Z</time></trkpt><trkpt lat="44.83435501505742" lon="9.733465994833757"><ele>332.0</ele><time>2026-04-25T11:45:40Z</time></trkpt><trkpt lat="44.83426512244732" lon="9.733488103956256"><ele>332.0</ele><time>2026-04-25T11:45:41Z</time></trkpt><trkpt lat="44.83418405562287" lon="9.73354749899278"><ele>332.0</ele><time>2026-04-25T11:45:42Z</time></trkpt><trkpt lat="44.83412086875313" lon="9.733643634019263"><ele>330.8</ele><time>2026-04-25T11:45:43Z</time></trkpt><trkpt lat="44.83407879969184" lon="9.733766627375143"><ele>329.6</ele><time>2026-04-25T11:45:44Z</time></trkpt><trkpt lat="44.83405162555193" lon="9.733892644419493"><ele>328.40000000000003</ele><time>2026-04-25T11:45:45Z</time></trkpt><trkpt lat="44.834024517764114" lon="9.73402266482605"><ele>327.20000000000005</ele><time>2026-04-25T11:45:46Z</time></trkpt><trkpt lat="44.83399237544881" lon="9.734153335343086"><ele>326.0</ele><time>2026-04-25T11:45:46.999Z</time></trkpt><trkpt lat="44.83395775978039" lon="9.734286583657513"><ele>325.0</ele><time>2026-04-25T11:45:47.999Z</time></trkpt><trkpt lat="44.83392753732567" lon="9.734424328491619"><ele>324.0</ele><time>2026-04-25T11:45:48.999Z</time></trkpt><trkpt lat="44.83389818708616" lon="9.73455312292418"><ele>323.0</ele><time>2026-04-25T11:45:49.999Z</time></trkpt><trkpt lat="44.83388950171776" lon="9.73468283100472"><ele>322.0</ele><time>2026-04-25T11:45:50.999Z</time></trkpt><trkpt lat="44.83392188068548" lon="9.73479608834412"><ele>321.0</ele><time>2026-04-25T11:45:51.999Z</time></trkpt><trkpt lat="44.83398855484475" lon="9.73488487885277"><ele>321.0</ele><time>2026-04-25T11:45:52.999Z</time></trkpt><trkpt lat="44.83407041835264" lon="9.73494589068392"><ele>321.0</ele><time>2026-04-25T11:45:53.999Z</time></trkpt><trkpt lat="44.83414571550085" lon="9.735019163790174"><ele>321.0</ele><time>2026-04-25T11:45:54.999Z</time></trkpt><trkpt lat="44.8342086369493" lon="9.735101547859372"><ele>321.0</ele><time>2026-04-25T11:45:55.999Z</time></trkpt><trkpt lat="44.8342443568153" lon="9.735214508149738"><ele>321.0</ele><time>2026-04-25T11:45:56.999Z</time></trkpt><trkpt lat="44.834251598432076" lon="9.735338846589828"><ele>321.0</ele><time>2026-04-25T11:45:57.999Z</time></trkpt><trkpt lat="44.83425498218487" lon="9.735453646032862"><ele>320.5</ele><time>2026-04-25T11:45:58.999Z</time></trkpt><trkpt lat="44.83429438420526" lon="9.735542791966779"><ele>320.0</ele><time>2026-04-25T11:45:59.999Z</time></trkpt><trkpt lat="44.83436752532319" lon="9.735578339340512"><ele>319.5</ele><time>2026-04-25T11:46:00.999Z</time></trkpt><trkpt lat="44.83443638125073" lon="9.735534768724078"><ele>319.0</ele><time>2026-04-25T11:46:01.999Z</time></trkpt><trkpt lat="44.834479106933976" lon="9.735445642096224"><ele>318.5</ele><time>2026-04-25T11:46:02.999Z</time></trkpt><trkpt lat="44.83449654884397" lon="9.735345265294713"><ele>318.0</ele><time>2026-04-25T11:46:03.999Z</time></trkpt><trkpt lat="44.8345087313538" lon="9.735241016252981"><ele>316.5</ele><time>2026-04-25T11:46:04.999Z</time></trkpt><trkpt lat="44.83452463927046" lon="9.735131561413503"><ele>315.0</ele><time>2026-04-25T11:46:05.999Z</time></trkpt><trkpt lat="44.83454418903111" lon="9.735018163568085"><ele>313.5</ele><time>2026-04-25T11:46:06.999Z</time></trkpt><trkpt lat="44.83456218318459" lon="9.734900456601826"><ele>312.0</ele><time>2026-04-25T11:46:07.999Z</time></trkpt><trkpt lat="44.834582658061095" lon="9.734781623296994"><ele>310.5</ele><time>2026-04-25T11:46:08.999Z</time></trkpt><trkpt lat="44.83460379174559" lon="9.734661017272318"><ele>309.0</ele><time>2026-04-25T11:46:09.999Z</time></trkpt><trkpt lat="44.834625427692835" lon="9.734535981656897"><ele>309.0</ele><time>2026-04-25T11:46:10.999Z</time></trkpt><trkpt lat="44.83467317817946" lon="9.734425829265481"><ele>309.0</ele><time>2026-04-25T11:46:11.999Z</time></trkpt><trkpt lat="44.834728109313176" lon="9.734321331312154"><ele>309.0</ele><time>2026-04-25T11:46:12.999Z</time></trkpt><trkpt lat="44.8347883279882" lon="9.734222889636213"><ele>309.0</ele><time>2026-04-25T11:46:13.999Z</time></trkpt><trkpt lat="44.83485481839867" lon="9.734154924129406"><ele>309.0</ele><time>2026-04-25T11:46:14.999Z</time></trkpt><trkpt lat="44.83493075535294" lon="9.734105027165818"><ele>309.0</ele><time>2026-04-25T11:46:15.999Z</time></trkpt><trkpt lat="44.83502965859296" lon="9.734150289932865"><ele>308.4</ele><time>2026-04-25T11:46:16.999Z</time></trkpt><trkpt lat="44.83512102584011" lon="9.734221336099479"><ele>307.79999999999995</ele><time>2026-04-25T11:46:17.999Z</time></trkpt><trkpt lat="44.83521193997774" lon="9.7342801966674"><ele>307.20000000000005</ele><time>2026-04-25T11:46:18.999Z</time></trkpt><trkpt lat="44.83530899256121" lon="9.734327691948712"><ele>306.6</ele><time>2026-04-25T11:46:19.999Z</time></trkpt><trkpt lat="44.835407757978636" lon="9.73437754783941"><ele>306.0</ele><time>2026-04-25T11:46:20.999Z</time></trkpt><trkpt lat="44.83550985521141" lon="9.734432857914769"><ele>306.0</ele><time>2026-04-25T11:46:21.999Z</time></trkpt><trkpt lat="44.83561098531523" lon="9.73449215103307"><ele>306.0</ele><time>2026-04-25T11:46:22.999Z</time></trkpt><trkpt lat="44.835708650050236" lon="9.734559539194388"><ele>306.0</ele><time>2026-04-25T11:46:23.999Z</time></trkpt><trkpt lat="44.83580975923258" lon="9.734623579977244"><ele>306.0</ele><time>2026-04-25T11:46:24.999Z</time></trkpt><trkpt lat="44.8359122573155" lon="9.734683812238766"><ele>306.0</ele><time>2026-04-25T11:46:25.999Z</time></trkpt><trkpt lat="44.83601499436098" lon="9.734736375634313"><ele>306.0</ele><time>2026-04-25T11:46:26.999Z</time></trkpt><trkpt lat="44.83611658181684" lon="9.734784923360955"><ele>306.0</ele><time>2026-04-25T11:46:27.999Z</time></trkpt><trkpt lat="44.836216965780025" lon="9.734841332131587"><ele>306.0</ele><time>2026-04-25T11:46:28.999Z</time></trkpt><trkpt lat="44.83631486448428" lon="9.734899239465959"><ele>306.0</ele><time>2026-04-25T11:46:29.999Z</time></trkpt><trkpt lat="44.8364114096299" lon="9.73495965807818"><ele>306.0</ele><time>2026-04-25T11:46:30.999Z</time></trkpt><trkpt lat="44.83650618150743" lon="9.73502362162006"><ele>306.0</ele><time>2026-04-25T11:46:31.999Z</time></trkpt><trkpt lat="44.83660090867331" lon="9.735086658434492"><ele>306.0</ele><time>2026-04-25T11:46:32.999Z</time></trkpt><trkpt lat="44.836696110063784" lon="9.735144677251162"><ele>306.0</ele><time>2026-04-25T11:46:33.999Z</time></trkpt><trkpt lat="44.83678926982426" lon="9.735195850895202"><ele>306.0</ele><time>2026-04-25T11:46:34.999Z</time></trkpt><trkpt lat="44.83688449139205" lon="9.73523581568776"><ele>306.0</ele><time>2026-04-25T11:46:35.999Z</time></trkpt><trkpt lat="44.836983486783865" lon="9.73526816201901"><ele>303.0</ele><time>2026-04-25T11:46:36.999Z</time></trkpt><trkpt lat="44.83708266411932" lon="9.735298879236753"><ele>300.0</ele><time>2026-04-25T11:46:37.999Z</time></trkpt><trkpt lat="44.8371857033287" lon="9.735322156875274"><ele>297.0</ele><time>2026-04-25T11:46:38.999Z</time></trkpt><trkpt lat="44.837289885099516" lon="9.735341824106678"><ele>294.0</ele><time>2026-04-25T11:46:39.999Z</time></trkpt><trkpt lat="44.837394794534305" lon="9.735359381096517"><ele>291.0</ele><time>2026-04-25T11:46:40.999Z</time></trkpt><trkpt lat="44.83750138062815" lon="9.735374370113254"><ele>291.0</ele><time>2026-04-25T11:46:41.999Z</time></trkpt><trkpt lat="44.83761068623107" lon="9.73538609346928"><ele>291.0</ele><time>2026-04-25T11:46:42.998Z</time></trkpt><trkpt lat="44.837722576164836" lon="9.735384494868095"><ele>291.0</ele><time>2026-04-25T11:46:43.998Z</time></trkpt><trkpt lat="44.83783466937543" lon="9.735375192677605"><ele>291.0</ele><time>2026-04-25T11:46:44.998Z</time></trkpt><trkpt lat="44.83794652228374" lon="9.735371191730495"><ele>291.0</ele><time>2026-04-25T11:46:45.998Z</time></trkpt><trkpt lat="44.83805349791793" lon="9.735362120677634"><ele>290.1666666666667</ele><time>2026-04-25T11:46:46.998Z</time></trkpt><trkpt lat="44.83814647635963" lon="9.73536856968758"><ele>289.3333333333333</ele><time>2026-04-25T11:46:47.998Z</time></trkpt><trkpt lat="44.838226981115646" lon="9.735411954811436"><ele>288.5</ele><time>2026-04-25T11:46:48.998Z</time></trkpt><trkpt lat="44.838276433465154" lon="9.735513172723065"><ele>287.66666666666663</ele><time>2026-04-25T11:46:49.998Z</time></trkpt><trkpt lat="44.83827391648757" lon="9.735627131783783"><ele>286.8333333333333</ele><time>2026-04-25T11:46:50.998Z</time></trkpt><trkpt lat="44.83821917243262" lon="9.73572420198426"><ele>286.0</ele><time>2026-04-25T11:46:51.998Z</time></trkpt><trkpt lat="44.83813392991244" lon="9.735745240292697"><ele>286.0</ele><time>2026-04-25T11:46:52.998Z</time></trkpt><trkpt lat="44.83805295070024" lon="9.735782527461136"><ele>286.0</ele><time>2026-04-25T11:46:53.998Z</time></trkpt><trkpt lat="44.83796730564912" lon="9.735797098939466"><ele>286.0</ele><time>2026-04-25T11:46:54.998Z</time></trkpt><trkpt lat="44.83788304480382" lon="9.735826782910049"><ele>286.0</ele><time>2026-04-25T11:46:55.998Z</time></trkpt><trkpt lat="44.83779769242086" lon="9.735847339478779"><ele>286.0</ele><time>2026-04-25T11:46:56.998Z</time></trkpt><trkpt lat="44.837718296322926" lon="9.735873924411882"><ele>286.0</ele><time>2026-04-25T11:46:57.998Z</time></trkpt><trkpt lat="44.83763964914336" lon="9.735897012719159"><ele>286.8333333333333</ele><time>2026-04-25T11:46:58.998Z</time></trkpt><trkpt lat="44.83756166036476" lon="9.73591019322344"><ele>287.66666666666663</ele><time>2026-04-25T11:46:59.998Z</time></trkpt><trkpt lat="44.8374855698979" lon="9.735930173285219"><ele>288.5</ele><time>2026-04-25T11:47:00.998Z</time></trkpt><trkpt lat="44.83741119773315" lon="9.735943074022574"><ele>289.3333333333333</ele><time>2026-04-25T11:47:01.998Z</time></trkpt><trkpt lat="44.83732853604725" lon="9.735949969980224"><ele>290.1666666666667</ele><time>2026-04-25T11:47:02.998Z</time></trkpt><trkpt lat="44.83724406907567" lon="9.735944121819921"><ele>291.0</ele><time>2026-04-25T11:47:03.998Z</time></trkpt><trkpt lat="44.83716063463506" lon="9.73590308604313"><ele>291.0</ele><time>2026-04-25T11:47:04.998Z</time></trkpt><trkpt lat="44.83707523893236" lon="9.735864529166607"><ele>291.0</ele><time>2026-04-25T11:47:05.998Z</time></trkpt><trkpt lat="44.83698053549931" lon="9.735860864931976"><ele>291.0</ele><time>2026-04-25T11:47:06.998Z</time></trkpt><trkpt lat="44.836883730876835" lon="9.735904841669816"><ele>291.0</ele><time>2026-04-25T11:47:07.998Z</time></trkpt><trkpt lat="44.83679922604156" lon="9.73599320173471"><ele>291.0</ele><time>2026-04-25T11:47:08.998Z</time></trkpt><trkpt lat="44.83672367487649" lon="9.736094841758588"><ele>289.40000000000003</ele><time>2026-04-25T11:47:09.998Z</time></trkpt><trkpt lat="44.83664983350957" lon="9.736205701933157"><ele>287.8</ele><time>2026-04-25T11:47:10.998Z</time></trkpt><trkpt lat="44.836574685950325" lon="9.73631411263409"><ele>286.20000000000005</ele><time>2026-04-25T11:47:11.998Z</time></trkpt><trkpt lat="44.836499113350285" lon="9.736420092730969"><ele>284.6</ele><time>2026-04-25T11:47:12.998Z</time></trkpt><trkpt lat="44.836423544892305" lon="9.736513421307123"><ele>283.0</ele><time>2026-04-25T11:47:13.998Z</time></trkpt><trkpt lat="44.83634370816954" lon="9.736592973101938"><ele>283.0</ele><time>2026-04-25T11:47:14.998Z</time></trkpt><trkpt lat="44.83626008005827" lon="9.73664673076084"><ele>283.0</ele><time>2026-04-25T11:47:15.998Z</time></trkpt><trkpt lat="44.83617683391792" lon="9.736675479866555"><ele>283.0</ele><time>2026-04-25T11:47:16.998Z</time></trkpt><trkpt lat="44.83610182696614" lon="9.736699053985316"><ele>283.0</ele><time>2026-04-25T11:47:17.998Z</time></trkpt><trkpt lat="44.836052140788766" lon="9.736754811395393"><ele>283.0</ele><time>2026-04-25T11:47:18.998Z</time></trkpt><trkpt lat="44.83602757626034" lon="9.736845939686164"><ele>283.0</ele><time>2026-04-25T11:47:19.998Z</time></trkpt><trkpt lat="44.83604588091097" lon="9.736947277056915"><ele>281.3333333333333</ele><time>2026-04-25T11:47:20.998Z</time></trkpt><trkpt lat="44.83610888405198" lon="9.737024713940738"><ele>279.66666666666663</ele><time>2026-04-25T11:47:21.998Z</time></trkpt><trkpt lat="44.83618755326454" lon="9.737067064798605"><ele>278.0</ele><time>2026-04-25T11:47:22.998Z</time></trkpt><trkpt lat="44.836272005367356" lon="9.737092592648"><ele>276.3333333333333</ele><time>2026-04-25T11:47:23.998Z</time></trkpt><trkpt lat="44.836366057450945" lon="9.737115203219913"><ele>274.6666666666667</ele><time>2026-04-25T11:47:24.998Z</time></trkpt><trkpt lat="44.83645072193039" lon="9.737139183063665"><ele>273.0</ele><time>2026-04-25T11:47:25.998Z</time></trkpt><trkpt lat="44.836541348149744" lon="9.737168279759599"><ele>273.0</ele><time>2026-04-25T11:47:26.998Z</time></trkpt><trkpt lat="44.83663071717989" lon="9.737203752159017"><ele>273.0</ele><time>2026-04-25T11:47:27.998Z</time></trkpt><trkpt lat="44.83672086409985" lon="9.737237390941884"><ele>273.0</ele><time>2026-04-25T11:47:28.998Z</time></trkpt><trkpt lat="44.836812113953194" lon="9.737270319799174"><ele>273.0</ele><time>2026-04-25T11:47:29.998Z</time></trkpt><trkpt lat="44.836905290030764" lon="9.737306792279204"><ele>273.0</ele><time>2026-04-25T11:47:31Z</time></trkpt><trkpt lat="44.83700307520738" lon="9.737341783036754"><ele>272.4</ele><time>2026-04-25T11:47:32Z</time></trkpt><trkpt lat="44.83710255752202" lon="9.73736368167369"><ele>271.8</ele><time>2026-04-25T11:47:33Z</time></trkpt><trkpt lat="44.83720683190576" lon="9.737365652693224"><ele>271.2</ele><time>2026-04-25T11:47:34Z</time></trkpt><trkpt lat="44.837314123439164" lon="9.737347863679313"><ele>270.6</ele><time>2026-04-25T11:47:35Z</time></trkpt><trkpt lat="44.83742384231939" lon="9.737318166023812"><ele>270.0</ele><time>2026-04-25T11:47:36Z</time></trkpt><trkpt lat="44.83753205329398" lon="9.73726938925462"><ele>270.0</ele><time>2026-04-25T11:47:37Z</time></trkpt><trkpt lat="44.83763387372645" lon="9.737243945102014"><ele>270.0</ele><time>2026-04-25T11:47:38Z</time></trkpt><trkpt lat="44.83773084237723" lon="9.737199636602805"><ele>270.0</ele><time>2026-04-25T11:47:39Z</time></trkpt><trkpt lat="44.83781913762413" lon="9.737229709977225"><ele>270.0</ele><time>2026-04-25T11:47:40Z</time></trkpt><trkpt lat="44.83789220333779" lon="9.737297849771956"><ele>270.0</ele><time>2026-04-25T11:47:41Z</time></trkpt><trkpt lat="44.83794286370349" lon="9.737401295617094"><ele>268.4</ele><time>2026-04-25T11:47:42Z</time></trkpt><trkpt lat="44.83796071706328" lon="9.737525422700976"><ele>266.8</ele><time>2026-04-25T11:47:43Z</time></trkpt><trkpt lat="44.8379399383994" lon="9.737653663674307"><ele>265.2</ele><time>2026-04-25T11:47:44Z</time></trkpt><trkpt lat="44.83788933544643" lon="9.737773079706958"><ele>263.6</ele><time>2026-04-25T11:47:45Z</time></trkpt><trkpt lat="44.83781805313826" lon="9.737874546665342"><ele>262.0</ele><time>2026-04-25T11:47:46Z</time></trkpt><trkpt lat="44.8377435918935" lon="9.73797539463884"><ele>262.4</ele><time>2026-04-25T11:47:47Z</time></trkpt><trkpt lat="44.8376804164026" lon="9.73809825819073"><ele>262.79999999999995</ele><time>2026-04-25T11:47:48Z</time></trkpt><trkpt lat="44.83763221913748" lon="9.73822978499967"><ele>263.2</ele><time>2026-04-25T11:47:49Z</time></trkpt><trkpt lat="44.83759052429332" lon="9.73836839441524"><ele>263.59999999999997</ele><time>2026-04-25T11:47:49.999Z</time></trkpt><trkpt lat="44.83755253507028" lon="9.738514316876557"><ele>264.0</ele><time>2026-04-25T11:47:50.999Z</time></trkpt><trkpt lat="44.83751170297884" lon="9.738660660675269"><ele>261.25</ele><time>2026-04-25T11:47:51.999Z</time></trkpt><trkpt lat="44.837462173357196" lon="9.738802349686715"><ele>258.5</ele><time>2026-04-25T11:47:52.999Z</time></trkpt><trkpt lat="44.83740070012492" lon="9.738941981719572"><ele>255.75</ele><time>2026-04-25T11:47:53.999Z</time></trkpt><trkpt lat="44.83732707192375" lon="9.73907707623682"><ele>253.0</ele><time>2026-04-25T11:47:54.999Z</time></trkpt><trkpt lat="44.83724422605419" lon="9.73920445850003"><ele>253.0</ele><time>2026-04-25T11:47:55.999Z</time></trkpt><trkpt lat="44.837172730082045" lon="9.739351770277944"><ele>253.0</ele><time>2026-04-25T11:47:56.999Z</time></trkpt><trkpt lat="44.83712454961413" lon="9.739517292573035"><ele>253.0</ele><time>2026-04-25T11:47:57.999Z</time></trkpt><trkpt lat="44.83709806632539" lon="9.739690855428131"><ele>253.0</ele><time>2026-04-25T11:47:58.999Z</time></trkpt><trkpt lat="44.837083216781224" lon="9.739864480926661"><ele>252.5</ele><time>2026-04-25T11:47:59.999Z</time></trkpt><trkpt lat="44.83706546472797" lon="9.740031478227893"><ele>252.0</ele><time>2026-04-25T11:48:00.999Z</time></trkpt><trkpt lat="44.837044036361135" lon="9.740197676649533"><ele>251.5</ele><time>2026-04-25T11:48:01.999Z</time></trkpt><trkpt lat="44.837026945412255" lon="9.740367538578704"><ele>251.0</ele><time>2026-04-25T11:48:02.999Z</time></trkpt><trkpt lat="44.83701283806094" lon="9.74053475996337"><ele>251.0</ele><time>2026-04-25T11:48:03.999Z</time></trkpt><trkpt lat="44.83700649589547" lon="9.740703076588845"><ele>251.0</ele><time>2026-04-25T11:48:04.999Z</time></trkpt><trkpt lat="44.837025278588435" lon="9.740865824482393"><ele>251.0</ele><time>2026-04-25T11:48:05.999Z</time></trkpt><trkpt lat="44.837070594657725" lon="9.741015928511228"><ele>251.0</ele><time>2026-04-25T11:48:06.999Z</time></trkpt><trkpt lat="44.83713050446594" lon="9.741153031934028"><ele>251.5</ele><time>2026-04-25T11:48:07.999Z</time></trkpt><trkpt lat="44.83720840776867" lon="9.741269178804272"><ele>252.0</ele><time>2026-04-25T11:48:08.999Z</time></trkpt><trkpt lat="44.83730142440745" lon="9.74136563877323"><ele>252.5</ele><time>2026-04-25T11:48:09.999Z</time></trkpt><trkpt lat="44.8374066789916" lon="9.741435324687684"><ele>253.0</ele><time>2026-04-25T11:48:10.999Z</time></trkpt><trkpt lat="44.83751768291329" lon="9.74147957714806"><ele>253.0</ele><time>2026-04-25T11:48:11.999Z</time></trkpt><trkpt lat="44.83763451258089" lon="9.741491542835595"><ele>253.0</ele><time>2026-04-25T11:48:12.999Z</time></trkpt><trkpt lat="44.83775343060962" lon="9.741479554951054"><ele>253.0</ele><time>2026-04-25T11:48:13.999Z</time></trkpt><trkpt lat="44.8378684428863" lon="9.74146683043743"><ele>253.0</ele><time>2026-04-25T11:48:14.999Z</time></trkpt><trkpt lat="44.83798518083689" lon="9.741452237628723"><ele>254.75</ele><time>2026-04-25T11:48:15.999Z</time></trkpt><trkpt lat="44.83810283631228" lon="9.741439386829159"><ele>256.5</ele><time>2026-04-25T11:48:16.999Z</time></trkpt><trkpt lat="44.83821913658837" lon="9.74142930603488"><ele>258.25</ele><time>2026-04-25T11:48:17.999Z</time></trkpt><trkpt lat="44.838334811991395" lon="9.741419681456554"><ele>260.0</ele><time>2026-04-25T11:48:18.999Z</time></trkpt><trkpt lat="44.838450735578206" lon="9.741409324373477"><ele>259.75</ele><time>2026-04-25T11:48:19.999Z</time></trkpt><trkpt lat="44.83856623912099" lon="9.741400576742464"><ele>259.5</ele><time>2026-04-25T11:48:20.999Z</time></trkpt><trkpt lat="44.83868192880997" lon="9.741387376302056"><ele>259.25</ele><time>2026-04-25T11:48:21.999Z</time></trkpt><trkpt lat="44.83879647371139" lon="9.741373534804325"><ele>259.0</ele><time>2026-04-25T11:48:22.999Z</time></trkpt><trkpt lat="44.838911119192694" lon="9.741364989611744"><ele>259.0</ele><time>2026-04-25T11:48:23.999Z</time></trkpt><trkpt lat="44.83902408756889" lon="9.74136597338033"><ele>259.0</ele><time>2026-04-25T11:48:24.999Z</time></trkpt><trkpt lat="44.83913909069095" lon="9.741371699482405"><ele>259.0</ele><time>2026-04-25T11:48:25.999Z</time></trkpt><trkpt lat="44.83925441217377" lon="9.741383114505592"><ele>259.0</ele><time>2026-04-25T11:48:26.999Z</time></trkpt><trkpt lat="44.8393696682151" lon="9.741398503678745"><ele>256.5</ele><time>2026-04-25T11:48:27.999Z</time></trkpt><trkpt lat="44.83948538675091" lon="9.741417260023361"><ele>254.0</ele><time>2026-04-25T11:48:28.999Z</time></trkpt><trkpt lat="44.83960146211678" lon="9.7414364514031"><ele>251.5</ele><time>2026-04-25T11:48:29.999Z</time></trkpt><trkpt lat="44.83971696707851" lon="9.74145287121188"><ele>249.0</ele><time>2026-04-25T11:48:30.999Z</time></trkpt><trkpt lat="44.839832482361814" lon="9.7414657584571"><ele>249.0</ele><time>2026-04-25T11:48:31.999Z</time></trkpt><trkpt lat="44.839949643633524" lon="9.741474950971947"><ele>249.0</ele><time>2026-04-25T11:48:32.999Z</time></trkpt><trkpt lat="44.840067309926376" lon="9.741490760168832"><ele>249.0</ele><time>2026-04-25T11:48:33.999Z</time></trkpt><trkpt lat="44.84018671385287" lon="9.741511635017138"><ele>249.0</ele><time>2026-04-25T11:48:34.999Z</time></trkpt><trkpt lat="44.840306309385184" lon="9.741538761424005"><ele>247.25</ele><time>2026-04-25T11:48:35.999Z</time></trkpt><trkpt lat="44.840424374083625" lon="9.74158207738321"><ele>245.5</ele><time>2026-04-25T11:48:36.999Z</time></trkpt><trkpt lat="44.84053926932737" lon="9.741643224137798"><ele>243.75</ele><time>2026-04-25T11:48:37.999Z</time></trkpt><trkpt lat="44.8406578206841" lon="9.741709757668952"><ele>242.0</ele><time>2026-04-25T11:48:38.999Z</time></trkpt><trkpt lat="44.840772881811155" lon="9.741782917865812"><ele>242.0</ele><time>2026-04-25T11:48:39.999Z</time></trkpt><trkpt lat="44.840884365347534" lon="9.741863315527365"><ele>242.0</ele><time>2026-04-25T11:48:40.999Z</time></trkpt><trkpt lat="44.84099134862441" lon="9.741950550290614"><ele>242.0</ele><time>2026-04-25T11:48:41.999Z</time></trkpt><trkpt lat="44.841104080773604" lon="9.742036295385253"><ele>242.0</ele><time>2026-04-25T11:48:42.999Z</time></trkpt><trkpt lat="44.84121726634372" lon="9.742114775754613"><ele>242.75</ele><time>2026-04-25T11:48:43.999Z</time></trkpt><trkpt lat="44.841329519279405" lon="9.742192949497616"><ele>243.5</ele><time>2026-04-25T11:48:44.999Z</time></trkpt><trkpt lat="44.841439374169056" lon="9.742276429721757"><ele>244.25</ele><time>2026-04-25T11:48:45.998Z</time></trkpt><trkpt lat="44.84155209623645" lon="9.74236737075346"><ele>245.0</ele><time>2026-04-25T11:48:46.998Z</time></trkpt><trkpt lat="44.84166133938914" lon="9.7424537001501"><ele>245.0</ele><time>2026-04-25T11:48:47.998Z</time></trkpt><trkpt lat="44.84177399355642" lon="9.74253552222587"><ele>245.0</ele><time>2026-04-25T11:48:48.998Z</time></trkpt><trkpt lat="44.84188816758095" lon="9.742616320026054"><ele>245.0</ele><time>2026-04-25T11:48:49.998Z</time></trkpt><trkpt lat="44.84200023306438" lon="9.742695427083431"><ele>245.0</ele><time>2026-04-25T11:48:50.998Z</time></trkpt><trkpt lat="44.842112976370835" lon="9.742773377102873"><ele>246.25</ele><time>2026-04-25T11:48:51.998Z</time></trkpt><trkpt lat="44.84222870723069" lon="9.742848068083674"><ele>247.5</ele><time>2026-04-25T11:48:52.998Z</time></trkpt><trkpt lat="44.842342137600845" lon="9.742918326354987"><ele>248.75</ele><time>2026-04-25T11:48:53.998Z</time></trkpt><trkpt lat="44.842453798326375" lon="9.742985202200613"><ele>250.0</ele><time>2026-04-25T11:48:54.998Z</time></trkpt><trkpt lat="44.842565785517046" lon="9.743046845316384"><ele>249.5</ele><time>2026-04-25T11:48:55.998Z</time></trkpt><trkpt lat="44.842679304170346" lon="9.74310779386172"><ele>249.0</ele><time>2026-04-25T11:48:56.998Z</time></trkpt><trkpt lat="44.84279322373059" lon="9.74316633075208"><ele>248.5</ele><time>2026-04-25T11:48:57.998Z</time></trkpt><trkpt lat="44.842907205932484" lon="9.743214485563604"><ele>248.0</ele><time>2026-04-25T11:48:58.998Z</time></trkpt><trkpt lat="44.843027114489175" lon="9.743232945682664"><ele>248.0</ele><time>2026-04-25T11:48:59.998Z</time></trkpt><trkpt lat="44.84314708133657" lon="9.743225774119347"><ele>248.0</ele><time>2026-04-25T11:49:00.998Z</time></trkpt><trkpt lat="44.84326452961303" lon="9.743201649559426"><ele>248.0</ele><time>2026-04-25T11:49:01.998Z</time></trkpt><trkpt lat="44.84338157166177" lon="9.743192885954958"><ele>248.0</ele><time>2026-04-25T11:49:02.998Z</time></trkpt><trkpt lat="44.843493443216744" lon="9.74318849721322"><ele>246.0</ele><time>2026-04-25T11:49:03.998Z</time></trkpt><trkpt lat="44.84361144150567" lon="9.743203766121992"><ele>244.0</ele><time>2026-04-25T11:49:04.998Z</time></trkpt><trkpt lat="44.8437284859436" lon="9.743229826154797"><ele>242.0</ele><time>2026-04-25T11:49:05.998Z</time></trkpt><trkpt lat="44.84384132998715" lon="9.743266446325906"><ele>240.0</ele><time>2026-04-25T11:49:06.998Z</time></trkpt><trkpt lat="44.84395156544351" lon="9.743315049396044"><ele>240.0</ele><time>2026-04-25T11:49:07.998Z</time></trkpt><trkpt lat="44.84406040193686" lon="9.743369125512832"><ele>240.0</ele><time>2026-04-25T11:49:08.998Z</time></trkpt><trkpt lat="44.84416893742534" lon="9.743419799106123"><ele>240.0</ele><time>2026-04-25T11:49:09.998Z</time></trkpt><trkpt lat="44.84427674516617" lon="9.743470125947761"><ele>240.0</ele><time>2026-04-25T11:49:10.998Z</time></trkpt><trkpt lat="44.844384010588456" lon="9.74351503544651"><ele>242.0</ele><time>2026-04-25T11:49:11.998Z</time></trkpt><trkpt lat="44.844491155179064" lon="9.743554073985532"><ele>244.0</ele><time>2026-04-25T11:49:12.998Z</time></trkpt><trkpt lat="44.84459732643199" lon="9.743590186850367"><ele>246.0</ele><time>2026-04-25T11:49:13.998Z</time></trkpt><trkpt lat="44.84470323989823" lon="9.743620850480701"><ele>248.0</ele><time>2026-04-25T11:49:14.998Z</time></trkpt><trkpt lat="44.84480714482968" lon="9.743649893166"><ele>250.0</ele><time>2026-04-25T11:49:15.998Z</time></trkpt><trkpt lat="44.844909870145386" lon="9.743677777621324"><ele>250.0</ele><time>2026-04-25T11:49:16.998Z</time></trkpt><trkpt lat="44.8450093854298" lon="9.743704673845416"><ele>250.0</ele><time>2026-04-25T11:49:17.998Z</time></trkpt><trkpt lat="44.84510954109507" lon="9.74373285447821"><ele>250.0</ele><time>2026-04-25T11:49:18.998Z</time></trkpt><trkpt lat="44.845211155550494" lon="9.743761591069612"><ele>250.0</ele><time>2026-04-25T11:49:19.998Z</time></trkpt><trkpt lat="44.845312303917524" lon="9.743788762668139"><ele>250.0</ele><time>2026-04-25T11:49:20.998Z</time></trkpt><trkpt lat="44.845412181510376" lon="9.743816942868964"><ele>246.8</ele><time>2026-04-25T11:49:21.998Z</time></trkpt><trkpt lat="44.8455118534794" lon="9.743842990421559"><ele>243.6</ele><time>2026-04-25T11:49:22.998Z</time></trkpt><trkpt lat="44.84561218493733" lon="9.743863821431853"><ele>240.39999999999998</ele><time>2026-04-25T11:49:23.998Z</time></trkpt><trkpt lat="44.84571196515634" lon="9.743884718050742"><ele>237.2</ele><time>2026-04-25T11:49:24.998Z</time></trkpt><trkpt lat="44.84580847241139" lon="9.743905301402611"><ele>234.0</ele><time>2026-04-25T11:49:25.998Z</time></trkpt><trkpt lat="44.845901929862265" lon="9.743923977374688"><ele>233.6</ele><time>2026-04-25T11:49:26.998Z</time></trkpt><trkpt lat="44.845994793729275" lon="9.743945507780277"><ele>233.2</ele><time>2026-04-25T11:49:27.998Z</time></trkpt><trkpt lat="44.846084099582626" lon="9.743964625260112"><ele>232.79999999999998</ele><time>2026-04-25T11:49:28.998Z</time></trkpt><trkpt lat="44.846172650414445" lon="9.743982699655145"><ele>232.39999999999998</ele><time>2026-04-25T11:49:29.998Z</time></trkpt><trkpt lat="44.84625984857373" lon="9.743996652924801"><ele>232.0</ele><time>2026-04-25T11:49:30.998Z</time></trkpt><trkpt lat="44.84634765455821" lon="9.744008528330635"><ele>231.99999999999997</ele><time>2026-04-25T11:49:31.998Z</time></trkpt><trkpt lat="44.84643657180577" lon="9.744022463169381"><ele>232.0</ele><time>2026-04-25T11:49:32.998Z</time></trkpt><trkpt lat="44.84652689364772" lon="9.74403755437111"><ele>232.0</ele><time>2026-04-25T11:49:33.998Z</time></trkpt><trkpt lat="44.8466128475351" lon="9.744051995913614"><ele>232.0</ele><time>2026-04-25T11:49:34.998Z</time></trkpt><trkpt lat="44.846698681001115" lon="9.744063076481783"><ele>231.99999999999997</ele><time>2026-04-25T11:49:35.998Z</time></trkpt><trkpt lat="44.846786258303545" lon="9.744082013105325"><ele>232.0</ele><time>2026-04-25T11:49:37Z</time></trkpt><trkpt lat="44.84687668866611" lon="9.74409591034956"><ele>232.83333333333331</ele><time>2026-04-25T11:49:38Z</time></trkpt><trkpt lat="44.84696487581069" lon="9.744109408321892"><ele>233.66666666666666</ele><time>2026-04-25T11:49:39Z</time></trkpt><trkpt lat="44.84705355090704" lon="9.744124935651989"><ele>234.5</ele><time>2026-04-25T11:49:40Z</time></trkpt><trkpt lat="44.84714079330762" lon="9.744143818723613"><ele>235.33333333333331</ele><time>2026-04-25T11:49:41Z</time></trkpt><trkpt lat="44.84722771023446" lon="9.744161996102347"><ele>236.16666666666666</ele><time>2026-04-25T11:49:42Z</time></trkpt><trkpt lat="44.84731475760773" lon="9.744176284341096"><ele>237.0</ele><time>2026-04-25T11:49:43Z</time></trkpt><trkpt lat="44.8474002437266" lon="9.744185620699723"><ele>237.0</ele><time>2026-04-25T11:49:44Z</time></trkpt><trkpt lat="44.84748937918046" lon="9.74419261317878"><ele>237.0</ele><time>2026-04-25T11:49:45Z</time></trkpt><trkpt lat="44.84757598459347" lon="9.744187400072835"><ele>237.0</ele><time>2026-04-25T11:49:46Z</time></trkpt><trkpt lat="44.847664058855074" lon="9.744175047466177"><ele>237.0</ele><time>2026-04-25T11:49:47Z</time></trkpt><trkpt lat="44.847753292237485" lon="9.744162416901801"><ele>237.0</ele><time>2026-04-25T11:49:48Z</time></trkpt><trkpt lat="44.847843381433414" lon="9.744148809369474"><ele>237.0</ele><time>2026-04-25T11:49:49Z</time></trkpt><trkpt lat="44.84793595955342" lon="9.744137113452227"><ele>236.39999999999998</ele><time>2026-04-25T11:49:50Z</time></trkpt><trkpt lat="44.84802951544596" lon="9.744131366388032"><ele>235.79999999999998</ele><time>2026-04-25T11:49:51Z</time></trkpt><trkpt lat="44.84812791863104" lon="9.744143000413075"><ele>235.2</ele><time>2026-04-25T11:49:52Z</time></trkpt><trkpt lat="44.8482268149" lon="9.74418226818648"><ele>234.6</ele><time>2026-04-25T11:49:52.999Z</time></trkpt><trkpt lat="44.84832082887698" lon="9.74424521482713"><ele>234.0</ele><time>2026-04-25T11:49:53.999Z</time></trkpt><trkpt lat="44.84841370330133" lon="9.744312184462624"><ele>235.2</ele><time>2026-04-25T11:49:54.999Z</time></trkpt><trkpt lat="44.848506992443994" lon="9.744374982966743"><ele>236.39999999999998</ele><time>2026-04-25T11:49:55.999Z</time></trkpt><trkpt lat="44.84860248928084" lon="9.744433972860987"><ele>237.6</ele><time>2026-04-25T11:49:56.999Z</time></trkpt><trkpt lat="44.848702372556396" lon="9.744481621430316"><ele>238.8</ele><time>2026-04-25T11:49:57.999Z</time></trkpt><trkpt lat="44.84880516198337" lon="9.744517030729606"><ele>240.0</ele><time>2026-04-25T11:49:58.999Z</time></trkpt><trkpt lat="44.848910080277925" lon="9.74453401745787"><ele>240.0</ele><time>2026-04-25T11:49:59.999Z</time></trkpt><trkpt lat="44.849015660521175" lon="9.744547487946512"><ele>240.0</ele><time>2026-04-25T11:50:00.999Z</time></trkpt><trkpt lat="44.84912470188945" lon="9.744562633586957"><ele>240.0</ele><time>2026-04-25T11:50:01.999Z</time></trkpt><trkpt lat="44.84922923848493" lon="9.744573708249316"><ele>240.0</ele><time>2026-04-25T11:50:02.999Z</time></trkpt><trkpt lat="44.84933635034648" lon="9.74455266340016"><ele>240.0</ele><time>2026-04-25T11:50:03.999Z</time></trkpt><trkpt lat="44.849438081554865" lon="9.744503398897331"><ele>238.8</ele><time>2026-04-25T11:50:04.999Z</time></trkpt><trkpt lat="44.849537611278606" lon="9.744439794601947"><ele>237.6</ele><time>2026-04-25T11:50:05.999Z</time></trkpt><trkpt lat="44.84962938680532" lon="9.744364691313036"><ele>236.39999999999998</ele><time>2026-04-25T11:50:06.999Z</time></trkpt><trkpt lat="44.84972359322987" lon="9.744288339918254"><ele>235.2</ele><time>2026-04-25T11:50:07.999Z</time></trkpt><trkpt lat="44.8498265930489" lon="9.7442475585353"><ele>234.0</ele><time>2026-04-25T11:50:08.999Z</time></trkpt><trkpt lat="44.849934113049486" lon="9.744258355000978"><ele>234.2</ele><time>2026-04-25T11:50:09.999Z</time></trkpt><trkpt lat="44.850043776571184" lon="9.744298882133782"><ele>234.39999999999998</ele><time>2026-04-25T11:50:10.999Z</time></trkpt><trkpt lat="44.85014464798911" lon="9.7443419360104"><ele>234.6</ele><time>2026-04-25T11:50:11.999Z</time></trkpt><trkpt lat="44.850250828389825" lon="9.744380691716804"><ele>234.8</ele><time>2026-04-25T11:50:12.999Z</time></trkpt><trkpt lat="44.85035723540568" lon="9.744405015895241"><ele>235.0</ele><time>2026-04-25T11:50:13.999Z</time></trkpt><trkpt lat="44.850464934383865" lon="9.744409079239523"><ele>235.0</ele><time>2026-04-25T11:50:14.999Z</time></trkpt><trkpt lat="44.85057009649825" lon="9.744388469204136"><ele>235.0</ele><time>2026-04-25T11:50:15.999Z</time></trkpt><trkpt lat="44.85067117906863" lon="9.744356979605056"><ele>235.0</ele><time>2026-04-25T11:50:16.999Z</time></trkpt><trkpt lat="44.85077210385592" lon="9.744330189476411"><ele>235.0</ele><time>2026-04-25T11:50:17.999Z</time></trkpt><trkpt lat="44.85087474087218" lon="9.744317798376528"><ele>235.0</ele><time>2026-04-25T11:50:18.999Z</time></trkpt><trkpt lat="44.85097983320725" lon="9.74432987169943"><ele>232.75</ele><time>2026-04-25T11:50:19.999Z</time></trkpt><trkpt lat="44.85108584238199" lon="9.744365792494689"><ele>230.5</ele><time>2026-04-25T11:50:20.999Z</time></trkpt><trkpt lat="44.85118912865707" lon="9.744434062702233"><ele>228.25</ele><time>2026-04-25T11:50:21.999Z</time></trkpt><trkpt lat="44.85128841567206" lon="9.744524728307795"><ele>226.0</ele><time>2026-04-25T11:50:22.999Z</time></trkpt><trkpt lat="44.851387162305635" lon="9.744616347892894"><ele>226.0</ele><time>2026-04-25T11:50:23.999Z</time></trkpt><trkpt lat="44.851486874381145" lon="9.744700978024014"><ele>226.0</ele><time>2026-04-25T11:50:24.999Z</time></trkpt><trkpt lat="44.85159197186851" lon="9.744772067062982"><ele>226.0</ele><time>2026-04-25T11:50:25.999Z</time></trkpt><trkpt lat="44.851698286848084" lon="9.744830451076055"><ele>226.0</ele><time>2026-04-25T11:50:26.999Z</time></trkpt><trkpt lat="44.85180973231194" lon="9.744878102722351"><ele>224.8</ele><time>2026-04-25T11:50:27.999Z</time></trkpt><trkpt lat="44.85191665752925" lon="9.744923593683684"><ele>223.60000000000002</ele><time>2026-04-25T11:50:28.999Z</time></trkpt><trkpt lat="44.85202566483879" lon="9.74495462498269"><ele>222.4</ele><time>2026-04-25T11:50:29.999Z</time></trkpt><trkpt lat="44.85213400880391" lon="9.744974905511206"><ele>221.2</ele><time>2026-04-25T11:50:30.999Z</time></trkpt><trkpt lat="44.85224287691396" lon="9.744989542743205"><ele>220.0</ele><time>2026-04-25T11:50:31.999Z</time></trkpt><trkpt lat="44.85235015979775" lon="9.745004742932693"><ele>220.0</ele><time>2026-04-25T11:50:32.999Z</time></trkpt><trkpt lat="44.85245827569394" lon="9.74502394826734"><ele>220.0</ele><time>2026-04-25T11:50:33.999Z</time></trkpt><trkpt lat="44.85256293532768" lon="9.74504719666353"><ele>220.0</ele><time>2026-04-25T11:50:34.999Z</time></trkpt><trkpt lat="44.85266886119076" lon="9.745067273419942"><ele>220.0</ele><time>2026-04-25T11:50:35.999Z</time></trkpt><trkpt lat="44.852773010441005" lon="9.74508469097239"><ele>220.0</ele><time>2026-04-25T11:50:36.999Z</time></trkpt><trkpt lat="44.85287802117395" lon="9.745102054697336"><ele>219.0</ele><time>2026-04-25T11:50:37.999Z</time></trkpt><trkpt lat="44.85298263026427" lon="9.74511905423761"><ele>218.0</ele><time>2026-04-25T11:50:38.999Z</time></trkpt><trkpt lat="44.853086136435216" lon="9.745137397947435"><ele>217.0</ele><time>2026-04-25T11:50:39.999Z</time></trkpt><trkpt lat="44.85318952114202" lon="9.745162653685249"><ele>216.0</ele><time>2026-04-25T11:50:40.999Z</time></trkpt><trkpt lat="44.85329356375819" lon="9.745199313372678"><ele>215.0</ele><time>2026-04-25T11:50:41.999Z</time></trkpt><trkpt lat="44.85339716630099" lon="9.745246421136015"><ele>217.2</ele><time>2026-04-25T11:50:42.999Z</time></trkpt><trkpt lat="44.85350016220466" lon="9.745302199264664"><ele>219.4</ele><time>2026-04-25T11:50:43.999Z</time></trkpt><trkpt lat="44.85360903306509" lon="9.745347072522396"><ele>221.60000000000002</ele><time>2026-04-25T11:50:44.999Z</time></trkpt><trkpt lat="44.85372089558035" lon="9.745364951607115"><ele>223.8</ele><time>2026-04-25T11:50:45.999Z</time></trkpt><trkpt lat="44.85383146675063" lon="9.745364624424624"><ele>226.0</ele><time>2026-04-25T11:50:46.999Z</time></trkpt><trkpt lat="44.8539449887488" lon="9.745358866980752"><ele>226.0</ele><time>2026-04-25T11:50:47.999Z</time></trkpt><trkpt lat="44.85405389246623" lon="9.745347028818271"><ele>226.00000000000003</ele><time>2026-04-25T11:50:48.999Z</time></trkpt><trkpt lat="44.85416497379829" lon="9.745332035050794"><ele>226.00000000000003</ele><time>2026-04-25T11:50:49.998Z</time></trkpt><trkpt lat="44.85427692472553" lon="9.745319204795743"><ele>226.0</ele><time>2026-04-25T11:50:50.998Z</time></trkpt><trkpt lat="44.85438943200897" lon="9.745308199828298"><ele>226.0</ele><time>2026-04-25T11:50:51.998Z</time></trkpt><trkpt lat="44.85449978438321" lon="9.745300154468577"><ele>225.0</ele><time>2026-04-25T11:50:52.998Z</time></trkpt><trkpt lat="44.85460727352074" lon="9.745294346205334"><ele>224.00000000000003</ele><time>2026-04-25T11:50:53.998Z</time></trkpt><trkpt lat="44.85471590278584" lon="9.745298783032021"><ele>223.00000000000003</ele><time>2026-04-25T11:50:54.998Z</time></trkpt><trkpt lat="44.85482333860769" lon="9.745335652718556"><ele>222.0</ele><time>2026-04-25T11:50:55.998Z</time></trkpt><trkpt lat="44.85492219597418" lon="9.74539222460239"><ele>221.0</ele><time>2026-04-25T11:50:56.998Z</time></trkpt><trkpt lat="44.85501584320826" lon="9.745470507378489"><ele>221.0</ele><time>2026-04-25T11:50:57.998Z</time></trkpt><trkpt lat="44.85511160305611" lon="9.745560579082667"><ele>221.00000000000003</ele><time>2026-04-25T11:50:58.998Z</time></trkpt><trkpt lat="44.85520627570692" lon="9.745644799098113"><ele>221.00000000000003</ele><time>2026-04-25T11:50:59.998Z</time></trkpt><trkpt lat="44.855299678703105" lon="9.745730421212945"><ele>221.0</ele><time>2026-04-25T11:51:00.998Z</time></trkpt><trkpt lat="44.8553932801888" lon="9.745811010413203"><ele>221.0</ele><time>2026-04-25T11:51:01.998Z</time></trkpt><trkpt lat="44.85548489348356" lon="9.74589349337653"><ele>220.0</ele><time>2026-04-25T11:51:02.998Z</time></trkpt><trkpt lat="44.85557383871343" lon="9.745975823163443"><ele>219.00000000000003</ele><time>2026-04-25T11:51:03.998Z</time></trkpt><trkpt lat="44.85566600267668" lon="9.746053364488981"><ele>218.00000000000003</ele><time>2026-04-25T11:51:04.998Z</time></trkpt><trkpt lat="44.855754665979404" lon="9.74612955892865"><ele>217.0</ele><time>2026-04-25T11:51:05.998Z</time></trkpt><trkpt lat="44.855842366475166" lon="9.746207263430504"><ele>216.0</ele><time>2026-04-25T11:51:06.998Z</time></trkpt><trkpt lat="44.85592983664693" lon="9.746289930118332"><ele>213.8</ele><time>2026-04-25T11:51:07.998Z</time></trkpt><trkpt lat="44.85601477975468" lon="9.746379017955029"><ele>211.60000000000002</ele><time>2026-04-25T11:51:08.998Z</time></trkpt><trkpt lat="44.856095895228144" lon="9.746477566680628"><ele>209.4</ele><time>2026-04-25T11:51:09.998Z</time></trkpt><trkpt lat="44.8561765359858" lon="9.746580977883628"><ele>207.2</ele><time>2026-04-25T11:51:10.998Z</time></trkpt><trkpt lat="44.85625699378634" lon="9.746686253096184"><ele>205.0</ele><time>2026-04-25T11:51:11.998Z</time></trkpt><trkpt lat="44.85633815881339" lon="9.746791159555505"><ele>206.75</ele><time>2026-04-25T11:51:12.998Z</time></trkpt><trkpt lat="44.85641851749347" lon="9.746898677847676"><ele>208.5</ele><time>2026-04-25T11:51:13.998Z</time></trkpt><trkpt lat="44.856502179170946" lon="9.747005048071296"><ele>210.25</ele><time>2026-04-25T11:51:14.998Z</time></trkpt><trkpt lat="44.85658660050911" lon="9.747110142593447"><ele>212.0</ele><time>2026-04-25T11:51:15.998Z</time></trkpt><trkpt lat="44.85667524130117" lon="9.747215597519627"><ele>212.0</ele><time>2026-04-25T11:51:16.998Z</time></trkpt><trkpt lat="44.856769762026886" lon="9.74731790754499"><ele>212.0</ele><time>2026-04-25T11:51:17.998Z</time></trkpt><trkpt lat="44.85686866859759" lon="9.7474161872655"><ele>212.0</ele><time>2026-04-25T11:51:18.998Z</time></trkpt><trkpt lat="44.856973279551596" lon="9.747511206571573"><ele>212.0</ele><time>2026-04-25T11:51:19.998Z</time></trkpt><trkpt lat="44.857076044759765" lon="9.747607126139767"><ele>210.0</ele><time>2026-04-25T11:51:20.998Z</time></trkpt><trkpt lat="44.85717816441151" lon="9.747703825489317"><ele>208.0</ele><time>2026-04-25T11:51:21.998Z</time></trkpt><trkpt lat="44.857280046471516" lon="9.747801976918216"><ele>206.0</ele><time>2026-04-25T11:51:22.998Z</time></trkpt><trkpt lat="44.85738359063171" lon="9.747894413479598"><ele>204.0</ele><time>2026-04-25T11:51:23.998Z</time></trkpt><trkpt lat="44.85748759815315" lon="9.747988875737654"><ele>204.0</ele><time>2026-04-25T11:51:24.998Z</time></trkpt><trkpt lat="44.85759329351413" lon="9.748074976870022"><ele>204.0</ele><time>2026-04-25T11:51:25.998Z</time></trkpt><trkpt lat="44.85770106646402" lon="9.748151813830896"><ele>204.0</ele><time>2026-04-25T11:51:26.998Z</time></trkpt><trkpt lat="44.8578069307976" lon="9.748226227928095"><ele>204.0</ele><time>2026-04-25T11:51:27.998Z</time></trkpt><trkpt lat="44.857911556651665" lon="9.748299459763043"><ele>203.25</ele><time>2026-04-25T11:51:28.998Z</time></trkpt><trkpt lat="44.85801424544381" lon="9.74836887120318"><ele>202.5</ele><time>2026-04-25T11:51:29.998Z</time></trkpt><trkpt lat="44.85812334532687" lon="9.748437614605674"><ele>201.75</ele><time>2026-04-25T11:51:30.998Z</time></trkpt><trkpt lat="44.858230343952826" lon="9.748507517644208"><ele>201.0</ele><time>2026-04-25T11:51:31.998Z</time></trkpt><trkpt lat="44.858335373947156" lon="9.748576545876434"><ele>201.0</ele><time>2026-04-25T11:51:32.998Z</time></trkpt><trkpt lat="44.85843928777674" lon="9.74864660099756"><ele>201.0</ele><time>2026-04-25T11:51:33.998Z</time></trkpt><trkpt lat="44.858543280708766" lon="9.748715040995949"><ele>201.0</ele><time>2026-04-25T11:51:34.998Z</time></trkpt><trkpt lat="44.858645314723084" lon="9.748785190682085"><ele>201.0</ele><time>2026-04-25T11:51:35.998Z</time></trkpt><trkpt lat="44.85874761346955" lon="9.748855687550414"><ele>200.4</ele><time>2026-04-25T11:51:36.998Z</time></trkpt><trkpt lat="44.858848839763894" lon="9.748922204515809"><ele>199.8</ele><time>2026-04-25T11:51:37.998Z</time></trkpt><trkpt lat="44.858949733324216" lon="9.748985046812509"><ele>199.20000000000002</ele><time>2026-04-25T11:51:38.998Z</time></trkpt><trkpt lat="44.85905372736673" lon="9.74903448358804"><ele>198.60000000000002</ele><time>2026-04-25T11:51:39.998Z</time></trkpt><trkpt lat="44.85916430788113" lon="9.749056493178404"><ele>198.0</ele><time>2026-04-25T11:51:40.998Z</time></trkpt><trkpt lat="44.859273943607064" lon="9.74905089661658"><ele>197.25</ele><time>2026-04-25T11:51:41.998Z</time></trkpt><trkpt lat="44.85938445982601" lon="9.749003594591795"><ele>196.5</ele><time>2026-04-25T11:51:43Z</time></trkpt><trkpt lat="44.859486601381036" lon="9.748943675364599"><ele>195.75</ele><time>2026-04-25T11:51:44Z</time></trkpt><trkpt lat="44.85959164370581" lon="9.748882197634321"><ele>195.0</ele><time>2026-04-25T11:51:45Z</time></trkpt><trkpt lat="44.85969414008397" lon="9.748820055784549"><ele>195.0</ele><time>2026-04-25T11:51:46Z</time></trkpt><trkpt lat="44.85979877834625" lon="9.748762326343371"><ele>195.0</ele><time>2026-04-25T11:51:47Z</time></trkpt><trkpt lat="44.85990265725309" lon="9.74870236831771"><ele>195.0</ele><time>2026-04-25T11:51:48Z</time></trkpt><trkpt lat="44.86000486426348" lon="9.748635370338611"><ele>195.0</ele><time>2026-04-25T11:51:49Z</time></trkpt><trkpt lat="44.86010862136027" lon="9.748577084816235"><ele>195.0</ele><time>2026-04-25T11:51:50Z</time></trkpt><trkpt lat="44.86020945544982" lon="9.74851580553409"><ele>195.8</ele><time>2026-04-25T11:51:51Z</time></trkpt><trkpt lat="44.86031197047453" lon="9.748456848974866"><ele>196.6</ele><time>2026-04-25T11:51:52Z</time></trkpt><trkpt lat="44.86041683752705" lon="9.748403463993592"><ele>197.39999999999998</ele><time>2026-04-25T11:51:53Z</time></trkpt><trkpt lat="44.860527992985595" lon="9.748368157371884"><ele>198.2</ele><time>2026-04-25T11:51:54Z</time></trkpt><trkpt lat="44.86063628550502" lon="9.748352555292291"><ele>199.0</ele><time>2026-04-25T11:51:55Z</time></trkpt><trkpt lat="44.86073926719048" lon="9.748355399064636"><ele>199.0</ele><time>2026-04-25T11:51:56Z</time></trkpt><trkpt lat="44.86084118208581" lon="9.74837011912461"><ele>199.0</ele><time>2026-04-25T11:51:57Z</time></trkpt><trkpt lat="44.86094022266031" lon="9.748385235656349"><ele>199.0</ele><time>2026-04-25T11:51:57.999Z</time></trkpt><trkpt lat="44.86103783447066" lon="9.748404516224381"><ele>199.0</ele><time>2026-04-25T11:51:58.999Z</time></trkpt><trkpt lat="44.86113213628013" lon="9.748429011291751"><ele>199.0</ele><time>2026-04-25T11:51:59.999Z</time></trkpt><trkpt lat="44.8612221348128" lon="9.748464959295049"><ele>198.6</ele><time>2026-04-25T11:52:00.999Z</time></trkpt><trkpt lat="44.86130918493196" lon="9.748512621841186"><ele>198.2</ele><time>2026-04-25T11:52:01.999Z</time></trkpt><trkpt lat="44.86139807447065" lon="9.748557324815385"><ele>197.79999999999998</ele><time>2026-04-25T11:52:02.999Z</time></trkpt><trkpt lat="44.86148535575008" lon="9.748596902747577"><ele>197.39999999999998</ele><time>2026-04-25T11:52:03.999Z</time></trkpt><trkpt lat="44.86157857630074" lon="9.748625717073176"><ele>197.0</ele><time>2026-04-25T11:52:04.999Z</time></trkpt><trkpt lat="44.8616756434553" lon="9.748650415878036"><ele>197.0</ele><time>2026-04-25T11:52:05.999Z</time></trkpt><trkpt lat="44.861771945803476" lon="9.748684622700923"><ele>197.0</ele><time>2026-04-25T11:52:06.999Z</time></trkpt><trkpt lat="44.861866979389134" lon="9.748735708157266"><ele>197.0</ele><time>2026-04-25T11:52:07.999Z</time></trkpt><trkpt lat="44.86196283348503" lon="9.748800474298841"><ele>197.0</ele><time>2026-04-25T11:52:08.999Z</time></trkpt><trkpt lat="44.86205914673938" lon="9.748868729654166"><ele>197.0</ele><time>2026-04-25T11:52:09.999Z</time></trkpt><trkpt lat="44.86215703424213" lon="9.748942008669523"><ele>197.25</ele><time>2026-04-25T11:52:10.999Z</time></trkpt><trkpt lat="44.862257337169126" lon="9.749017758680043"><ele>197.5</ele><time>2026-04-25T11:52:11.999Z</time></trkpt><trkpt lat="44.86235765100673" lon="9.749091054607911"><ele>197.75</ele><time>2026-04-25T11:52:12.999Z</time></trkpt><trkpt lat="44.86245799714071" lon="9.749161309752765"><ele>198.0</ele><time>2026-04-25T11:52:13.999Z</time></trkpt><trkpt lat="44.86256350070134" lon="9.749219061723943"><ele>197.0</ele><time>2026-04-25T11:52:14.999Z</time></trkpt><trkpt lat="44.8626714644283" lon="9.749254350310476"><ele>196.0</ele><time>2026-04-25T11:52:15.999Z</time></trkpt><trkpt lat="44.86278244347797" lon="9.749277499934736"><ele>195.0</ele><time>2026-04-25T11:52:16.999Z</time></trkpt><trkpt lat="44.86289558503869" lon="9.74930172358263"><ele>194.0</ele><time>2026-04-25T11:52:17.999Z</time></trkpt><trkpt lat="44.86300884489778" lon="9.749333009033554"><ele>193.0</ele><time>2026-04-25T11:52:18.999Z</time></trkpt><trkpt lat="44.86311713029943" lon="9.749376340098891"><ele>192.0</ele><time>2026-04-25T11:52:19.999Z</time></trkpt><trkpt lat="44.86322584580914" lon="9.74944142090811"><ele>191.0</ele><time>2026-04-25T11:52:20.999Z</time></trkpt><trkpt lat="44.8633301650237" lon="9.749518877418662"><ele>190.0</ele><time>2026-04-25T11:52:21.999Z</time></trkpt><trkpt lat="44.86343101984531" lon="9.74960312322088"><ele>190.5</ele><time>2026-04-25T11:52:22.999Z</time></trkpt><trkpt lat="44.86353090936026" lon="9.749684624670081"><ele>191.0</ele><time>2026-04-25T11:52:23.999Z</time></trkpt><trkpt lat="44.86363235228329" lon="9.749765198882663"><ele>191.5</ele><time>2026-04-25T11:52:24.999Z</time></trkpt><trkpt lat="44.86373239900967" lon="9.749841768681284"><ele>192.0</ele><time>2026-04-25T11:52:25.999Z</time></trkpt><trkpt lat="44.86383667817184" lon="9.749917597767244"><ele>192.0</ele><time>2026-04-25T11:52:26.999Z</time></trkpt><trkpt lat="44.86394040919727" lon="9.749992555457052"><ele>192.0</ele><time>2026-04-25T11:52:27.999Z</time></trkpt><trkpt lat="44.86404810335757" lon="9.750059500006024"><ele>192.0</ele><time>2026-04-25T11:52:28.999Z</time></trkpt><trkpt lat="44.86415517721374" lon="9.750124126635288"><ele>192.0</ele><time>2026-04-25T11:52:29.999Z</time></trkpt><trkpt lat="44.864264270482145" lon="9.75018666385563"><ele>191.5</ele><time>2026-04-25T11:52:30.999Z</time></trkpt><trkpt lat="44.864369900854115" lon="9.750251211794275"><ele>191.0</ele><time>2026-04-25T11:52:31.999Z</time></trkpt><trkpt lat="44.864477628319726" lon="9.750315290821403"><ele>190.5</ele><time>2026-04-25T11:52:33Z</time></trkpt><trkpt lat="44.86458580193826" lon="9.750378137146908"><ele>190.0</ele><time>2026-04-25T11:52:34Z</time></trkpt><trkpt lat="44.8646939101386" lon="9.750440390554072"><ele>190.0</ele><time>2026-04-25T11:52:35Z</time></trkpt><trkpt lat="44.86480010301472" lon="9.750500350236294"><ele>190.0</ele><time>2026-04-25T11:52:36Z</time></trkpt><trkpt lat="44.86490699325165" lon="9.750562792216096"><ele>190.0</ele><time>2026-04-25T11:52:37Z</time></trkpt><trkpt lat="44.86501414713922" lon="9.750626283837791"><ele>190.0</ele><time>2026-04-25T11:52:38Z</time></trkpt><trkpt lat="44.86512327097964" lon="9.750690353948176"><ele>189.75</ele><time>2026-04-25T11:52:39Z</time></trkpt><trkpt lat="44.86522876605082" lon="9.75075864437341"><ele>189.5</ele><time>2026-04-25T11:52:40Z</time></trkpt><trkpt lat="44.86533549660763" lon="9.750831877009434"><ele>189.25</ele><time>2026-04-25T11:52:41Z</time></trkpt><trkpt lat="44.86544271296127" lon="9.750905507933743"><ele>189.0</ele><time>2026-04-25T11:52:42Z</time></trkpt><trkpt lat="44.865548076423295" lon="9.750982635570864"><ele>188.0</ele><time>2026-04-25T11:52:43Z</time></trkpt><trkpt lat="44.8656537795798" lon="9.751060475396422"><ele>187.0</ele><time>2026-04-25T11:52:44Z</time></trkpt><trkpt lat="44.86575689309623" lon="9.75113823857501"><ele>186.0</ele><time>2026-04-25T11:52:45Z</time></trkpt><trkpt lat="44.865861332879" lon="9.751213049612108"><ele>185.0</ele><time>2026-04-25T11:52:46Z</time></trkpt><trkpt lat="44.86596628828563" lon="9.751289308440908"><ele>185.0</ele><time>2026-04-25T11:52:47Z</time></trkpt><trkpt lat="44.866072806066065" lon="9.751364475596613"><ele>185.0</ele><time>2026-04-25T11:52:48Z</time></trkpt><trkpt lat="44.866179852076236" lon="9.751435430547193"><ele>185.0</ele><time>2026-04-25T11:52:49Z</time></trkpt><trkpt lat="44.866284164130086" lon="9.751504106264807"><ele>185.0</ele><time>2026-04-25T11:52:50Z</time></trkpt><trkpt lat="44.86638823309942" lon="9.751570095978293"><ele>185.0</ele><time>2026-04-25T11:52:51Z</time></trkpt><trkpt lat="44.86649227079359" lon="9.751638925327867"><ele>185.0</ele><time>2026-04-25T11:52:52Z</time></trkpt><trkpt lat="44.866592651965355" lon="9.751719057549018"><ele>185.0</ele><time>2026-04-25T11:52:52.999Z</time></trkpt><trkpt lat="44.86668879561458" lon="9.75181733498456"><ele>185.0</ele><time>2026-04-25T11:52:53.999Z</time></trkpt><trkpt lat="44.86677298143757" lon="9.75193010202534"><ele>183.75</ele><time>2026-04-25T11:52:54.999Z</time></trkpt><trkpt lat="44.86685464111847" lon="9.752055679120655"><ele>182.5</ele><time>2026-04-25T11:52:55.999Z</time></trkpt><trkpt lat="44.86692970231703" lon="9.752182278718275"><ele>181.25</ele><time>2026-04-25T11:52:56.999Z</time></trkpt><trkpt lat="44.86700726605495" lon="9.752307944483496"><ele>180.0</ele><time>2026-04-25T11:52:57.999Z</time></trkpt><trkpt lat="44.86708304650112" lon="9.752428739610858"><ele>180.0</ele><time>2026-04-25T11:52:58.999Z</time></trkpt><trkpt lat="44.86715656595476" lon="9.752550650867631"><ele>180.0</ele><time>2026-04-25T11:52:59.999Z</time></trkpt><trkpt lat="44.867229986586366" lon="9.752666928792472"><ele>180.0</ele><time>2026-04-25T11:53:00.999Z</time></trkpt><trkpt lat="44.86730115176073" lon="9.752782629467701"><ele>180.0</ele><time>2026-04-25T11:53:01.999Z</time></trkpt><trkpt lat="44.867377713510635" lon="9.752894845271992"><ele>180.0</ele><time>2026-04-25T11:53:02.999Z</time></trkpt><trkpt lat="44.867460896768144" lon="9.752998576791049"><ele>180.0</ele><time>2026-04-25T11:53:03.999Z</time></trkpt><trkpt lat="44.867556203102865" lon="9.753084328831475"><ele>180.0</ele><time>2026-04-25T11:53:04.999Z</time></trkpt><trkpt lat="44.86766223059111" lon="9.753145673518246"><ele>180.0</ele><time>2026-04-25T11:53:05.999Z</time></trkpt><trkpt lat="44.86777384633221" lon="9.753173792550328"><ele>180.0</ele><time>2026-04-25T11:53:06.999Z</time></trkpt><trkpt lat="44.86788212721588" lon="9.753180800574679"><ele>180.0</ele><time>2026-04-25T11:53:07.999Z</time></trkpt><trkpt lat="44.86799136194858" lon="9.753175592988997"><ele>180.0</ele><time>2026-04-25T11:53:08.999Z</time></trkpt><trkpt lat="44.86809805045183" lon="9.75317574061953"><ele>180.0</ele><time>2026-04-25T11:53:09.999Z</time></trkpt><trkpt lat="44.868207508331494" lon="9.753186975520615"><ele>180.0</ele><time>2026-04-25T11:53:10.999Z</time></trkpt><trkpt lat="44.86832037507085" lon="9.753197849786353"><ele>180.0</ele><time>2026-04-25T11:53:11.999Z</time></trkpt><trkpt lat="44.8684328712922" lon="9.753198050080552"><ele>180.0</ele><time>2026-04-25T11:53:12.999Z</time></trkpt><trkpt lat="44.868543808131975" lon="9.753186925019836"><ele>180.0</ele><time>2026-04-25T11:53:13.999Z</time></trkpt><trkpt lat="44.86865243313171" lon="9.753164206258694"><ele>180.0</ele><time>2026-04-25T11:53:14.999Z</time></trkpt><trkpt lat="44.86876106729255" lon="9.753140281506285"><ele>180.0</ele><time>2026-04-25T11:53:15.999Z</time></trkpt><trkpt lat="44.86886974359369" lon="9.753117402676756"><ele>180.0</ele><time>2026-04-25T11:53:16.999Z</time></trkpt><trkpt lat="44.86897892338292" lon="9.753100387119176"><ele>180.0</ele><time>2026-04-25T11:53:17.999Z</time></trkpt><trkpt lat="44.869088068579316" lon="9.753089286209049"><ele>180.0</ele><time>2026-04-25T11:53:18.999Z</time></trkpt><trkpt lat="44.86919986208214" lon="9.753102231826455"><ele>180.0</ele><time>2026-04-25T11:53:19.999Z</time></trkpt><trkpt lat="44.86931240717031" lon="9.753125767160443"><ele>180.0</ele><time>2026-04-25T11:53:20.999Z</time></trkpt><trkpt lat="44.869423122792966" lon="9.753160097016181"><ele>180.0</ele><time>2026-04-25T11:53:21.999Z</time></trkpt><trkpt lat="44.86953173787551" lon="9.753209706768716"><ele>179.75</ele><time>2026-04-25T11:53:22.999Z</time></trkpt><trkpt lat="44.86963743136422" lon="9.753271411505043"><ele>179.5</ele><time>2026-04-25T11:53:23.999Z</time></trkpt><trkpt lat="44.86974131305246" lon="9.753343455082515"><ele>179.25</ele><time>2026-04-25T11:53:24.999Z</time></trkpt><trkpt lat="44.86984125302767" lon="9.753424203546645"><ele>179.0</ele><time>2026-04-25T11:53:25.999Z</time></trkpt><trkpt lat="44.869935144638305" lon="9.753509380956164"><ele>179.0</ele><time>2026-04-25T11:53:26.999Z</time></trkpt><trkpt lat="44.87003532949451" lon="9.75359137659716"><ele>179.0</ele><time>2026-04-25T11:53:27.999Z</time></trkpt><trkpt lat="44.87013430020072" lon="9.753669794442926"><ele>179.0</ele><time>2026-04-25T11:53:28.999Z</time></trkpt><trkpt lat="44.87023444998465" lon="9.753746037617974"><ele>179.0</ele><time>2026-04-25T11:53:29.999Z</time></trkpt><trkpt lat="44.870337062245454" lon="9.753821166315285"><ele>178.79999999999998</ele><time>2026-04-25T11:53:30.999Z</time></trkpt><trkpt lat="44.870434369855765" lon="9.75389439019976"><ele>178.6</ele><time>2026-04-25T11:53:31.999Z</time></trkpt><trkpt lat="44.8705335552561" lon="9.75396386658481"><ele>178.4</ele><time>2026-04-25T11:53:32.999Z</time></trkpt><trkpt lat="44.870632098707475" lon="9.754035151671228"><ele>178.2</ele><time>2026-04-25T11:53:33.999Z</time></trkpt><trkpt lat="44.870732103892465" lon="9.754104207697493"><ele>178.0</ele><time>2026-04-25T11:53:34.999Z</time></trkpt><trkpt lat="44.87083401818644" lon="9.754171766917443"><ele>178.0</ele><time>2026-04-25T11:53:35.999Z</time></trkpt><trkpt lat="44.87093718227051" lon="9.754235838107515"><ele>178.0</ele><time>2026-04-25T11:53:36.999Z</time></trkpt><trkpt lat="44.87104171305916" lon="9.754294286365067"><ele>178.0</ele><time>2026-04-25T11:53:37.999Z</time></trkpt><trkpt lat="44.871142911366896" lon="9.754357581952258"><ele>178.0</ele><time>2026-04-25T11:53:38.999Z</time></trkpt><trkpt lat="44.87124287176841" lon="9.75442204621464"><ele>178.0</ele><time>2026-04-25T11:53:39.999Z</time></trkpt><trkpt lat="44.87134123156218" lon="9.754484645663837"><ele>177.2</ele><time>2026-04-25T11:53:40.999Z</time></trkpt><trkpt lat="44.87144151650669" lon="9.754547250730667"><ele>176.4</ele><time>2026-04-25T11:53:41.999Z</time></trkpt><trkpt lat="44.87154113941169" lon="9.754610163754773"><ele>175.6</ele><time>2026-04-25T11:53:42.999Z</time></trkpt><trkpt lat="44.87164115183283" lon="9.754669460706154"><ele>174.79999999999998</ele><time>2026-04-25T11:53:43.999Z</time></trkpt><trkpt lat="44.87174095583949" lon="9.754726197148047"><ele>174.0</ele><time>2026-04-25T11:53:44.999Z</time></trkpt><trkpt lat="44.871835314686315" lon="9.75478291065826"><ele>174.0</ele><time>2026-04-25T11:53:45.999Z</time></trkpt><trkpt lat="44.87192912172933" lon="9.754842314358594"><ele>174.0</ele><time>2026-04-25T11:53:46.999Z</time></trkpt><trkpt lat="44.87202431587426" lon="9.754900014433126"><ele>174.0</ele><time>2026-04-25T11:53:48Z</time></trkpt><trkpt lat="44.872118391220624" lon="9.754956818743198"><ele>174.0</ele><time>2026-04-25T11:53:49.001Z</time></trkpt><trkpt lat="44.87221259341786" lon="9.755012013171653"><ele>174.0</ele><time>2026-04-25T11:53:50Z</time></trkpt><trkpt lat="44.87230397010375" lon="9.755068768180731"><ele>174.0</ele><time>2026-04-25T11:53:51Z</time></trkpt><trkpt lat="44.87239549301233" lon="9.755124217743262"><ele>174.0</ele><time>2026-04-25T11:53:52.001Z</time></trkpt><trkpt lat="44.87248630037923" lon="9.75517962949158"><ele>174.0</ele><time>2026-04-25T11:53:53Z</time></trkpt><trkpt lat="44.872577281172894" lon="9.75523502553834"><ele>174.0</ele><time>2026-04-25T11:53:54Z</time></trkpt><trkpt lat="44.87266826228732" lon="9.755291274789482"><ele>174.0</ele><time>2026-04-25T11:53:55.001Z</time></trkpt><trkpt lat="44.87275983597866" lon="9.755347761037315"><ele>174.0</ele><time>2026-04-25T11:53:56Z</time></trkpt><trkpt lat="44.87285223533955" lon="9.755403135291804"><ele>174.0</ele><time>2026-04-25T11:53:57Z</time></trkpt><trkpt lat="44.87294326294626" lon="9.75546141315591"><ele>174.0</ele><time>2026-04-25T11:53:58.001Z</time></trkpt><trkpt lat="44.87303568988534" lon="9.75552116813077"><ele>174.0</ele><time>2026-04-25T11:53:59Z</time></trkpt><trkpt lat="44.8731244229689" lon="9.75558876162818"><ele>174.0</ele><time>2026-04-25T11:54:00Z</time></trkpt><trkpt lat="44.87320897978856" lon="9.755662134040632"><ele>174.0</ele><time>2026-04-25T11:54:01.001Z</time></trkpt><trkpt lat="44.87329553267315" lon="9.755733384304529"><ele>174.0</ele><time>2026-04-25T11:54:02Z</time></trkpt><trkpt lat="44.873382789309076" lon="9.755800527028823"><ele>174.0</ele><time>2026-04-25T11:54:03Z</time></trkpt><trkpt lat="44.873472044594386" lon="9.75587122886437"><ele>174.0</ele><time>2026-04-25T11:54:04Z</time></trkpt><trkpt lat="44.87356011746857" lon="9.755940461000602"><ele>174.0</ele><time>2026-04-25T11:54:05Z</time></trkpt><trkpt lat="44.87364788101998" lon="9.756013742648772"><ele>173.79999999999998</ele><time>2026-04-25T11:54:06Z</time></trkpt><trkpt lat="44.873733190418264" lon="9.756087185988239"><ele>173.6</ele><time>2026-04-25T11:54:07Z</time></trkpt><trkpt lat="44.87382102334018" lon="9.756158299234553"><ele>173.4</ele><time>2026-04-25T11:54:08Z</time></trkpt><trkpt lat="44.873907728417805" lon="9.756230003662477"><ele>173.2</ele><time>2026-04-25T11:54:09Z</time></trkpt><trkpt lat="44.87399528011843" lon="9.756301744206416"><ele>173.0</ele><time>2026-04-25T11:54:10Z</time></trkpt><trkpt lat="44.87408328713264" lon="9.756371294277173"><ele>173.0</ele><time>2026-04-25T11:54:11Z</time></trkpt><trkpt lat="44.87417040796139" lon="9.756439548681305"><ele>173.0</ele><time>2026-04-25T11:54:12Z</time></trkpt><trkpt lat="44.87425638255048" lon="9.756509619960474"><ele>173.0</ele><time>2026-04-25T11:54:13Z</time></trkpt><trkpt lat="44.87434120260953" lon="9.756583770629147"><ele>173.0</ele><time>2026-04-25T11:54:14Z</time></trkpt><trkpt lat="44.87442676721046" lon="9.756656343071288"><ele>173.0</ele><time>2026-04-25T11:54:15Z</time></trkpt><trkpt lat="44.874514374802125" lon="9.756724472640164"><ele>173.2</ele><time>2026-04-25T11:54:16Z</time></trkpt><trkpt lat="44.87459873569117" lon="9.756794336623173"><ele>173.4</ele><time>2026-04-25T11:54:17Z</time></trkpt><trkpt lat="44.87467929395436" lon="9.756864100198051"><ele>173.6</ele><time>2026-04-25T11:54:18Z</time></trkpt><trkpt lat="44.87476257525729" lon="9.756929782154709"><ele>173.79999999999998</ele><time>2026-04-25T11:54:19Z</time></trkpt><trkpt lat="44.87484505489915" lon="9.756993737930305"><ele>174.0</ele><time>2026-04-25T11:54:20Z</time></trkpt><trkpt lat="44.874930327568954" lon="9.757065290185354"><ele>174.0</ele><time>2026-04-25T11:54:21Z</time></trkpt><trkpt lat="44.87501245295106" lon="9.757136999325011"><ele>174.0</ele><time>2026-04-25T11:54:22Z</time></trkpt><trkpt lat="44.87509493154695" lon="9.757205247225627"><ele>174.0</ele><time>2026-04-25T11:54:23Z</time></trkpt><trkpt lat="44.87517857123911" lon="9.757275938890267"><ele>174.0</ele><time>2026-04-25T11:54:24Z</time></trkpt><trkpt lat="44.87526129144254" lon="9.757345036593394"><ele>174.0</ele><time>2026-04-25T11:54:25Z</time></trkpt><trkpt lat="44.87534495541958" lon="9.757413851649398"><ele>174.0</ele><time>2026-04-25T11:54:26Z</time></trkpt><trkpt lat="44.875432111442166" lon="9.757478429479898"><ele>174.0</ele><time>2026-04-25T11:54:27Z</time></trkpt><trkpt lat="44.87552103209345" lon="9.757552289649542"><ele>174.0</ele><time>2026-04-25T11:54:28Z</time></trkpt><trkpt lat="44.875607991152165" lon="9.757626230229834"><ele>174.0</ele><time>2026-04-25T11:54:29Z</time></trkpt><trkpt lat="44.87569398443663" lon="9.757699707280425"><ele>174.0</ele><time>2026-04-25T11:54:30Z</time></trkpt><trkpt lat="44.87578532879111" lon="9.75777408352641"><ele>172.79999999999998</ele><time>2026-04-25T11:54:31Z</time></trkpt><trkpt lat="44.875873495026525" lon="9.757844693039234"><ele>171.6</ele><time>2026-04-25T11:54:32Z</time></trkpt><trkpt lat="44.87596470422685" lon="9.757917752191188"><ele>170.4</ele><time>2026-04-25T11:54:33Z</time></trkpt><trkpt lat="44.87605513393857" lon="9.75799423967215"><ele>169.2</ele><time>2026-04-25T11:54:34Z</time></trkpt><trkpt lat="44.87614677006091" lon="9.758065875611042"><ele>168.0</ele><time>2026-04-25T11:54:35Z</time></trkpt><trkpt lat="44.876239522685175" lon="9.758140622001239"><ele>168.0</ele><time>2026-04-25T11:54:36Z</time></trkpt><trkpt lat="44.876331846092555" lon="9.75821306210464"><ele>168.0</ele><time>2026-04-25T11:54:37Z</time></trkpt><trkpt lat="44.87642510961553" lon="9.758285249618645"><ele>168.0</ele><time>2026-04-25T11:54:38Z</time></trkpt><trkpt lat="44.876518110482955" lon="9.758361438877818"><ele>168.0</ele><time>2026-04-25T11:54:39Z</time></trkpt><trkpt lat="44.876608855070614" lon="9.758438784172556"><ele>168.0</ele><time>2026-04-25T11:54:40Z</time></trkpt><trkpt lat="44.876699771723096" lon="9.758515646773184"><ele>167.60000000000002</ele><time>2026-04-25T11:54:41Z</time></trkpt><trkpt lat="44.87679351661673" lon="9.758591174290189"><ele>167.20000000000002</ele><time>2026-04-25T11:54:42Z</time></trkpt><trkpt lat="44.87688692426972" lon="9.758665945678196"><ele>166.8</ele><time>2026-04-25T11:54:43Z</time></trkpt><trkpt lat="44.876980388626855" lon="9.7587404125692"><ele>166.4</ele><time>2026-04-25T11:54:44Z</time></trkpt><trkpt lat="44.87707449831076" lon="9.758816199713257"><ele>166.0</ele><time>2026-04-25T11:54:45Z</time></trkpt><trkpt lat="44.877167807157846" lon="9.758890954302679"><ele>166.0</ele><time>2026-04-25T11:54:46Z</time></trkpt><trkpt lat="44.87726212808997" lon="9.758967276100854"><ele>166.0</ele><time>2026-04-25T11:54:47Z</time></trkpt><trkpt lat="44.877356171134906" lon="9.759046060579774"><ele>166.0</ele><time>2026-04-25T11:54:48Z</time></trkpt><trkpt lat="44.877451688584" lon="9.759122155679835"><ele>166.0</ele><time>2026-04-25T11:54:49Z</time></trkpt><trkpt lat="44.8775470036892" lon="9.759199974362964"><ele>166.0</ele><time>2026-04-25T11:54:50Z</time></trkpt><trkpt lat="44.87764313615014" lon="9.759276736337686"><ele>166.60000000000002</ele><time>2026-04-25T11:54:51Z</time></trkpt><trkpt lat="44.877737847342495" lon="9.759354900097991"><ele>167.2</ele><time>2026-04-25T11:54:52Z</time></trkpt><trkpt lat="44.87783388576321" lon="9.759434643702475"><ele>167.8</ele><time>2026-04-25T11:54:53Z</time></trkpt><trkpt lat="44.87792832264984" lon="9.759515304694188"><ele>168.39999999999998</ele><time>2026-04-25T11:54:54Z</time></trkpt><trkpt lat="44.87802447557119" lon="9.759594656873551"><ele>169.0</ele><time>2026-04-25T11:54:55Z</time></trkpt><trkpt lat="44.878120527533746" lon="9.759672513459918"><ele>167.6</ele><time>2026-04-25T11:54:56Z</time></trkpt><trkpt lat="44.87821553851083" lon="9.759751793295816"><ele>166.2</ele><time>2026-04-25T11:54:57Z</time></trkpt><trkpt lat="44.87831136357965" lon="9.759830748230524"><ele>164.79999999999998</ele><time>2026-04-25T11:54:57.999Z</time></trkpt><trkpt lat="44.878408793226285" lon="9.759905781271552"><ele>163.39999999999998</ele><time>2026-04-25T11:54:58.999Z</time></trkpt><trkpt lat="44.87850764138896" lon="9.759981232981545"><ele>162.0</ele><time>2026-04-25T11:54:59.999Z</time></trkpt><trkpt lat="44.87860054710244" lon="9.760056999597857"><ele>161.8</ele><time>2026-04-25T11:55:00.999Z</time></trkpt><trkpt lat="44.87869235664902" lon="9.760133437520022"><ele>161.6</ele><time>2026-04-25T11:55:01.999Z</time></trkpt><trkpt lat="44.87878459213467" lon="9.760208558929822"><ele>161.4</ele><time>2026-04-25T11:55:02.999Z</time></trkpt><trkpt lat="44.87887785839989" lon="9.760282068400592"><ele>161.20000000000002</ele><time>2026-04-25T11:55:03.999Z</time></trkpt><trkpt lat="44.87896975069699" lon="9.760354039238784"><ele>161.0</ele><time>2026-04-25T11:55:04.999Z</time></trkpt><trkpt lat="44.879059418574656" lon="9.76042815388833"><ele>161.0</ele><time>2026-04-25T11:55:05.999Z</time></trkpt><trkpt lat="44.879149545491124" lon="9.760504516831375"><ele>161.0</ele><time>2026-04-25T11:55:06.999Z</time></trkpt><trkpt lat="44.879242148720564" lon="9.760581030046891"><ele>161.0</ele><time>2026-04-25T11:55:07.999Z</time></trkpt><trkpt lat="44.879335249611785" lon="9.76065549335845"><ele>161.0</ele><time>2026-04-25T11:55:08.999Z</time></trkpt><trkpt lat="44.87942934059589" lon="9.760731265608694"><ele>161.0</ele><time>2026-04-25T11:55:09.999Z</time></trkpt><trkpt lat="44.87952304102885" lon="9.760806951160589"><ele>161.0</ele><time>2026-04-25T11:55:10.999Z</time></trkpt><trkpt lat="44.879615754207045" lon="9.760881101943774"><ele>161.0</ele><time>2026-04-25T11:55:11.999Z</time></trkpt><trkpt lat="44.87970372226877" lon="9.760955341179365"><ele>161.0</ele><time>2026-04-25T11:55:12.999Z</time></trkpt><trkpt lat="44.87978881189806" lon="9.761027850791672"><ele>161.0</ele><time>2026-04-25T11:55:13.999Z</time></trkpt><trkpt lat="44.879875500222184" lon="9.76109780799919"><ele>161.0</ele><time>2026-04-25T11:55:14.999Z</time></trkpt><trkpt lat="44.879963600631534" lon="9.76116653702863"><ele>161.0</ele><time>2026-04-25T11:55:15.999Z</time></trkpt><trkpt lat="44.880054408370974" lon="9.76122920184331"><ele>161.0</ele><time>2026-04-25T11:55:16.999Z</time></trkpt><trkpt lat="44.88015035457681" lon="9.761288910334693"><ele>161.0</ele><time>2026-04-25T11:55:17.999Z</time></trkpt><trkpt lat="44.880245649944065" lon="9.76133574152487"><ele>161.0</ele><time>2026-04-25T11:55:18.999Z</time></trkpt><trkpt lat="44.88034253127067" lon="9.761368399474454"><ele>161.0</ele><time>2026-04-25T11:55:19.999Z</time></trkpt><trkpt lat="44.88044481057678" lon="9.76139907090413"><ele>160.4</ele><time>2026-04-25T11:55:20.999Z</time></trkpt><trkpt lat="44.88054814417314" lon="9.761422152568171"><ele>159.8</ele><time>2026-04-25T11:55:21.999Z</time></trkpt><trkpt lat="44.8806563816608" lon="9.761439906985546"><ele>159.20000000000002</ele><time>2026-04-25T11:55:22.999Z</time></trkpt><trkpt lat="44.88076159808593" lon="9.761462582397657"><ele>158.60000000000002</ele><time>2026-04-25T11:55:23.999Z</time></trkpt><trkpt lat="44.88086320339688" lon="9.761489942724"><ele>158.0</ele><time>2026-04-25T11:55:24.999Z</time></trkpt><trkpt lat="44.88096537530771" lon="9.761515450647567"><ele>157.4</ele><time>2026-04-25T11:55:25.999Z</time></trkpt><trkpt lat="44.8810651641725" lon="9.76153533140358"><ele>156.8</ele><time>2026-04-25T11:55:26.999Z</time></trkpt><trkpt lat="44.88116439487185" lon="9.761548374844883"><ele>156.2</ele><time>2026-04-25T11:55:27.999Z</time></trkpt><trkpt lat="44.881262146336475" lon="9.761549670948304"><ele>155.6</ele><time>2026-04-25T11:55:28.999Z</time></trkpt><trkpt lat="44.88136009350849" lon="9.761548128408585"><ele>155.0</ele><time>2026-04-25T11:55:29.999Z</time></trkpt><trkpt lat="44.88145980028525" lon="9.761551719882277"><ele>155.0</ele><time>2026-04-25T11:55:30.999Z</time></trkpt><trkpt lat="44.88156093117793" lon="9.76155841489029"><ele>155.0</ele><time>2026-04-25T11:55:31.999Z</time></trkpt><trkpt lat="44.88166323507818" lon="9.761563730871261"><ele>155.0</ele><time>2026-04-25T11:55:32.999Z</time></trkpt><trkpt lat="44.88176370533788" lon="9.761573125216158"><ele>155.0</ele><time>2026-04-25T11:55:33.999Z</time></trkpt><trkpt lat="44.88186703722866" lon="9.761580464228302"><ele>155.0</ele><time>2026-04-25T11:55:34.999Z</time></trkpt><trkpt lat="44.88196952225194" lon="9.761595468747023"><ele>155.2</ele><time>2026-04-25T11:55:35.999Z</time></trkpt><trkpt lat="44.88206719569897" lon="9.761636431397687"><ele>155.4</ele><time>2026-04-25T11:55:36.999Z</time></trkpt><trkpt lat="44.882160062236224" lon="9.761690489697633"><ele>155.6</ele><time>2026-04-25T11:55:37.999Z</time></trkpt><trkpt lat="44.882248160705664" lon="9.761751306449108"><ele>155.8</ele><time>2026-04-25T11:55:38.999Z</time></trkpt><trkpt lat="44.88233209234416" lon="9.761819360828188"><ele>156.0</ele><time>2026-04-25T11:55:39.999Z</time></trkpt><trkpt lat="44.882412544755844" lon="9.761886007864854"><ele>156.0</ele><time>2026-04-25T11:55:40.999Z</time></trkpt><trkpt lat="44.88249426827838" lon="9.761948998305737"><ele>156.0</ele><time>2026-04-25T11:55:41.999Z</time></trkpt><trkpt lat="44.88257309329738" lon="9.7620115671154"><ele>156.0</ele><time>2026-04-25T11:55:42.999Z</time></trkpt><trkpt lat="44.88265043232523" lon="9.76207148446815"><ele>156.0</ele><time>2026-04-25T11:55:43.999Z</time></trkpt><trkpt lat="44.882726742960735" lon="9.762132134053102"><ele>156.0</ele><time>2026-04-25T11:55:44.999Z</time></trkpt><trkpt lat="44.88280148050921" lon="9.762184099102356"><ele>156.0</ele><time>2026-04-25T11:55:45.999Z</time></trkpt><trkpt lat="44.88287088697713" lon="9.762232187718828"><ele>155.33333333333334</ele><time>2026-04-25T11:55:46.999Z</time></trkpt><trkpt lat="44.882937654900026" lon="9.762271283838391"><ele>154.66666666666666</ele><time>2026-04-25T11:55:47.999Z</time></trkpt><trkpt lat="44.883003569149764" lon="9.7622996246203"><ele>154.0</ele><time>2026-04-25T11:55:48.999Z</time></trkpt><trkpt lat="44.8830661023522" lon="9.762327805521847"><ele>153.33333333333331</ele><time>2026-04-25T11:55:49.999Z</time></trkpt><trkpt lat="44.88315277057284" lon="9.762334475296303"><ele>152.66666666666666</ele><time>2026-04-25T11:55:51.999Z</time></trkpt><trkpt lat="44.88315001116948" lon="9.762543304616852"><ele>152.0</ele><time>2026-04-25T11:55:52.999Z</time></trkpt><trkpt lat="44.88314484197804" lon="9.762642366541044"><ele>152.0</ele><time>2026-04-25T11:55:54Z</time></trkpt><trkpt lat="44.88312923470086" lon="9.762747223298701"><ele>152.0</ele><time>2026-04-25T11:55:55Z</time></trkpt><trkpt lat="44.88311437801296" lon="9.762851772721296"><ele>152.0</ele><time>2026-04-25T11:55:56Z</time></trkpt><trkpt lat="44.88309666769043" lon="9.76295952254081"><ele>152.0</ele><time>2026-04-25T11:55:57Z</time></trkpt><trkpt lat="44.883076353115925" lon="9.763067930755877"><ele>152.0</ele><time>2026-04-25T11:55:58Z</time></trkpt><trkpt lat="44.88306510240931" lon="9.763180400964854"><ele>152.0</ele><time>2026-04-25T11:55:59Z</time></trkpt><trkpt lat="44.88305186707258" lon="9.763290915520317"><ele>152.0</ele><time>2026-04-25T11:56:00Z</time></trkpt><trkpt lat="44.883031363368616" lon="9.763402680054115"><ele>152.0</ele><time>2026-04-25T11:56:01Z</time></trkpt><trkpt lat="44.8830201525859" lon="9.763511750757928"><ele>152.0</ele><time>2026-04-25T11:56:02Z</time></trkpt><trkpt lat="44.88300218236163" lon="9.76361413411838"><ele>152.0</ele><time>2026-04-25T11:56:03Z</time></trkpt><trkpt lat="44.88296818996608" lon="9.763699696847034"><ele>152.0</ele><time>2026-04-25T11:56:04Z</time></trkpt><trkpt lat="44.88292368987717" lon="9.763776768026306"><ele>152.0</ele><time>2026-04-25T11:56:05Z</time></trkpt><trkpt lat="44.88288310874815" lon="9.763860788934851"><ele>152.0</ele><time>2026-04-25T11:56:06Z</time></trkpt><trkpt lat="44.88286291212428" lon="9.763958181487657"><ele>152.0</ele><time>2026-04-25T11:56:07Z</time></trkpt><trkpt lat="44.88286371056136" lon="9.764067829437591"><ele>152.0</ele><time>2026-04-25T11:56:08Z</time></trkpt><trkpt lat="44.88287834057831" lon="9.764176385908794"><ele>152.0</ele><time>2026-04-25T11:56:09Z</time></trkpt><trkpt lat="44.882904154162" lon="9.76428113241094"><ele>152.0</ele><time>2026-04-25T11:56:10Z</time></trkpt><trkpt lat="44.882939920831774" lon="9.764381321892245"><ele>152.0</ele><time>2026-04-25T11:56:11Z</time></trkpt><trkpt lat="44.88297469880713" lon="9.76447941534002"><ele>152.0</ele><time>2026-04-25T11:56:12Z</time></trkpt><trkpt lat="44.88300365802167" lon="9.764584006502291"><ele>152.0</ele><time>2026-04-25T11:56:13Z</time></trkpt><trkpt lat="44.883030402212285" lon="9.764690096843962"><ele>152.0</ele><time>2026-04-25T11:56:14Z</time></trkpt><trkpt lat="44.883058175102214" lon="9.764796311319524"><ele>152.0</ele><time>2026-04-25T11:56:15Z</time></trkpt><trkpt lat="44.883094323733864" lon="9.76489929541656"><ele>152.0</ele><time>2026-04-25T11:56:16Z</time></trkpt><trkpt lat="44.88313837483062" lon="9.764996292490174"><ele>152.0</ele><time>2026-04-25T11:56:17Z</time></trkpt><trkpt lat="44.883189658757594" lon="9.76508862784387"><ele>152.0</ele><time>2026-04-25T11:56:18Z</time></trkpt><trkpt lat="44.883248034723316" lon="9.765176381584125"><ele>152.0</ele><time>2026-04-25T11:56:19Z</time></trkpt><trkpt lat="44.88330296435279" lon="9.765257227882277"><ele>152.0</ele><time>2026-04-25T11:56:20Z</time></trkpt><trkpt lat="44.883364190005445" lon="9.765334456517511"><ele>152.0</ele><time>2026-04-25T11:56:21Z</time></trkpt><trkpt lat="44.88342839818794" lon="9.765406597420565"><ele>152.0</ele><time>2026-04-25T11:56:22Z</time></trkpt><trkpt lat="44.88349285353678" lon="9.765482075284192"><ele>152.0</ele><time>2026-04-25T11:56:23Z</time></trkpt><trkpt lat="44.88355523740166" lon="9.76555621906613"><ele>152.0</ele><time>2026-04-25T11:56:24Z</time></trkpt><trkpt lat="44.88360907827198" lon="9.765641301779178"><ele>152.0</ele><time>2026-04-25T11:56:25Z</time></trkpt><trkpt lat="44.88365634552404" lon="9.765733204714682"><ele>152.0</ele><time>2026-04-25T11:56:26Z</time></trkpt><trkpt lat="44.88369065403004" lon="9.765833567753065"><ele>152.0</ele><time>2026-04-25T11:56:27Z</time></trkpt><trkpt lat="44.88371335782638" lon="9.765941594658418"><ele>152.0</ele><time>2026-04-25T11:56:28Z</time></trkpt><trkpt lat="44.8837209577059" lon="9.766051380039675"><ele>152.0</ele><time>2026-04-25T11:56:29Z</time></trkpt><trkpt lat="44.8837124251023" lon="9.76615842586182"><ele>152.0</ele><time>2026-04-25T11:56:30Z</time></trkpt><trkpt lat="44.8836917842181" lon="9.76626173729177"><ele>152.16666666666666</ele><time>2026-04-25T11:56:31Z</time></trkpt><trkpt lat="44.88366971188394" lon="9.766363241889547"><ele>152.33333333333331</ele><time>2026-04-25T11:56:32Z</time></trkpt><trkpt lat="44.88364836520984" lon="9.766458877438492"><ele>152.5</ele><time>2026-04-25T11:56:33Z</time></trkpt><trkpt lat="44.883624611561935" lon="9.766548478867888"><ele>152.66666666666666</ele><time>2026-04-25T11:56:34Z</time></trkpt><trkpt lat="44.88359452291574" lon="9.766631413059725"><ele>152.83333333333334</ele><time>2026-04-25T11:56:35Z</time></trkpt><trkpt lat="44.883561822631314" lon="9.766708807119723"><ele>153.0</ele><time>2026-04-25T11:56:36Z</time></trkpt><trkpt lat="44.88349476827591" lon="9.766842571964302"><ele>154.83333333333334</ele><time>2026-04-25T11:56:38Z</time></trkpt><trkpt lat="44.88343034898438" lon="9.766960770675402"><ele>156.66666666666666</ele><time>2026-04-25T11:56:40Z</time></trkpt><trkpt lat="44.8833801582565" lon="9.767058968099839"><ele>158.5</ele><time>2026-04-25T11:56:42Z</time></trkpt><trkpt lat="44.88333734851985" lon="9.767138786161714"><ele>160.33333333333331</ele><time>2026-04-25T11:56:44Z</time></trkpt><trkpt lat="44.88328371383499" lon="9.767239494817563"><ele>162.16666666666666</ele><time>2026-04-25T11:56:48Z</time></trkpt><trkpt lat="44.88323696054941" lon="9.767335510917002"><ele>164.0</ele><time>2026-04-25T11:56:51Z</time></trkpt><trkpt lat="44.88317938985227" lon="9.767441699111206"><ele>164.0</ele><time>2026-04-25T11:56:53Z</time></trkpt><trkpt lat="44.88313085103921" lon="9.7675272570299"><ele>164.0</ele><time>2026-04-25T11:56:56Z</time></trkpt><trkpt lat="44.88307172004837" lon="9.767632400988498"><ele>164.0</ele><time>2026-04-25T11:56:59.999Z</time></trkpt><trkpt lat="44.8830318891126" lon="9.767708477687917"><ele>164.0</ele><time>2026-04-25T11:57:01.999Z</time></trkpt><trkpt lat="44.88298138277106" lon="9.767800075959096"><ele>164.0</ele><time>2026-04-25T11:57:04.999Z</time></trkpt><trkpt lat="44.882937631497555" lon="9.767887763248643"><ele>164.0</ele><time>2026-04-25T11:57:07.999Z</time></trkpt><trkpt lat="44.882898107854594" lon="9.767960967405287"><ele>164.7142857142857</ele><time>2026-04-25T11:57:10.999Z</time></trkpt><trkpt lat="44.88285953499597" lon="9.768042165022331"><ele>165.42857142857142</ele><time>2026-04-25T11:57:13.999Z</time></trkpt><trkpt lat="44.88281867059214" lon="9.768121860035222"><ele>166.14285714285714</ele><time>2026-04-25T11:57:16.999Z</time></trkpt><trkpt lat="44.882775208443064" lon="9.76819951529118"><ele>166.85714285714283</ele><time>2026-04-25T11:57:19.999Z</time></trkpt><trkpt lat="44.88272877982057" lon="9.768277824493415"><ele>167.57142857142856</ele><time>2026-04-25T11:57:22.999Z</time></trkpt><trkpt lat="44.88268088750523" lon="9.768348155020421"><ele>168.28571428571428</ele><time>2026-04-25T11:57:25.999Z</time></trkpt><trkpt lat="44.88263421832876" lon="9.768416100824465"><ele>169.0</ele><time>2026-04-25T11:57:28.999Z</time></trkpt><trkpt lat="44.88258502838255" lon="9.768478546460491"><ele>171.0</ele><time>2026-04-25T11:57:31.999Z</time></trkpt><trkpt lat="44.88253680377512" lon="9.768542716957839"><ele>173.0</ele><time>2026-04-25T11:57:34.999Z</time></trkpt><trkpt lat="44.88248636902973" lon="9.76860567576317"><ele>175.0</ele><time>2026-04-25T11:57:37.999Z</time></trkpt><trkpt lat="44.8824407586766" lon="9.768671890371065"><ele>177.0</ele><time>2026-04-25T11:57:40.999Z</time></trkpt><trkpt lat="44.8823893094183" lon="9.768731792907056"><ele>179.0</ele><time>2026-04-25T11:57:43.999Z</time></trkpt><trkpt lat="44.882333396747356" lon="9.768787570505888"><ele>181.0</ele><time>2026-04-25T11:57:46.999Z</time></trkpt><trkpt lat="44.88227540103647" lon="9.768847116449138"><ele>183.0</ele><time>2026-04-25T11:57:49.999Z</time></trkpt><trkpt lat="44.88221342371278" lon="9.768901067837852"><ele>183.0</ele><time>2026-04-25T11:57:52.999Z</time></trkpt><trkpt lat="44.88214862396302" lon="9.768956368061422"><ele>183.0</ele><time>2026-04-25T11:57:55.998Z</time></trkpt><trkpt lat="44.88208479097871" lon="9.769006889584293"><ele>183.0</ele><time>2026-04-25T11:57:58.998Z</time></trkpt><trkpt lat="44.882016758462896" lon="9.76906069944389"><ele>183.0</ele><time>2026-04-25T11:58:02Z</time></trkpt><trkpt lat="44.88194578359238" lon="9.769111753275505"><ele>183.0</ele><time>2026-04-25T11:58:05Z</time></trkpt><trkpt lat="44.88187720371501" lon="9.769164916664073"><ele>183.0</ele><time>2026-04-25T11:58:08Z</time></trkpt><trkpt lat="44.881806077338986" lon="9.76920564266856"><ele>182.5</ele><time>2026-04-25T11:58:11Z</time></trkpt><trkpt lat="44.88172957085766" lon="9.769243771141785"><ele>182.0</ele><time>2026-04-25T11:58:14Z</time></trkpt><trkpt lat="44.88164503494811" lon="9.769280630208877"><ele>181.5</ele><time>2026-04-25T11:58:17Z</time></trkpt><trkpt lat="44.88157442923811" lon="9.769322734667227"><ele>181.0</ele><time>2026-04-25T11:58:20Z</time></trkpt><trkpt lat="44.88150116306146" lon="9.769337977206392"><ele>180.5</ele><time>2026-04-25T11:58:23Z</time></trkpt><trkpt lat="44.881422815589914" lon="9.769362096855266"><ele>180.0</ele><time>2026-04-25T11:58:26Z</time></trkpt><trkpt lat="44.88134068222386" lon="9.769382682359604"><ele>181.33333333333334</ele><time>2026-04-25T11:58:29Z</time></trkpt><trkpt lat="44.88125313801386" lon="9.769412070592388"><ele>182.66666666666666</ele><time>2026-04-25T11:58:32Z</time></trkpt><trkpt lat="44.88117004630945" lon="9.769447296670503"><ele>184.0</ele><time>2026-04-25T11:58:35Z</time></trkpt><trkpt lat="44.88110094957474" lon="9.76953323956437"><ele>185.33333333333331</ele><time>2026-04-25T11:58:38Z</time></trkpt><trkpt lat="44.88107039813748" lon="9.769612434442447"><ele>186.66666666666666</ele><time>2026-04-25T11:58:40Z</time></trkpt><trkpt lat="44.881049128503484" lon="9.76969787519425"><ele>188.0</ele><time>2026-04-25T11:58:42Z</time></trkpt><trkpt lat="44.88103437493172" lon="9.769790008782383"><ele>188.0</ele><time>2026-04-25T11:58:44Z</time></trkpt><trkpt lat="44.881031992387776" lon="9.769889643597027"><ele>188.0</ele><time>2026-04-25T11:58:46Z</time></trkpt><trkpt lat="44.8810297300013" lon="9.769998939105525"><ele>188.0</ele><time>2026-04-25T11:58:48Z</time></trkpt><trkpt lat="44.88101708491344" lon="9.770099943883316"><ele>188.0</ele><time>2026-04-25T11:58:50Z</time></trkpt><trkpt lat="44.88098382095629" lon="9.770322784159918"><ele>188.0</ele><time>2026-04-25T11:58:52Z</time></trkpt><trkpt lat="44.88096550041176" lon="9.770456320675535"><ele>187.8</ele><time>2026-04-25T11:58:54Z</time></trkpt><trkpt lat="44.88095483416262" lon="9.770597549246178"><ele>187.60000000000002</ele><time>2026-04-25T11:58:56Z</time></trkpt><trkpt lat="44.88094036454549" lon="9.77074062014082"><ele>187.39999999999998</ele><time>2026-04-25T11:58:58Z</time></trkpt><trkpt lat="44.88092579897121" lon="9.770884085661994"><ele>187.2</ele><time>2026-04-25T11:59:00Z</time></trkpt><trkpt lat="44.88091508482064" lon="9.771031842952228"><ele>187.0</ele><time>2026-04-25T11:59:02Z</time></trkpt><trkpt lat="44.88090531640026" lon="9.771182273979113"><ele>187.2</ele><time>2026-04-25T11:59:04Z</time></trkpt><trkpt lat="44.880886835117245" lon="9.771330109497438"><ele>187.39999999999998</ele><time>2026-04-25T11:59:05.999Z</time></trkpt><trkpt lat="44.88086589302275" lon="9.771478662885329"><ele>187.60000000000002</ele><time>2026-04-25T11:59:07.999Z</time></trkpt><trkpt lat="44.88084861792617" lon="9.77162759480152"><ele>187.8</ele><time>2026-04-25T11:59:09.999Z</time></trkpt><trkpt lat="44.88083536727111" lon="9.771790835088915"><ele>188.0</ele><time>2026-04-25T11:59:11.999Z</time></trkpt><trkpt lat="44.8808172194342" lon="9.771965885835003"><ele>188.0</ele><time>2026-04-25T11:59:13.999Z</time></trkpt><trkpt lat="44.88080942542809" lon="9.772056267440309"><ele>188.0</ele><time>2026-04-25T11:59:14.999Z</time></trkpt><trkpt lat="44.88080281797582" lon="9.772152194088687"><ele>188.0</ele><time>2026-04-25T11:59:15.999Z</time></trkpt><trkpt lat="44.88079445302903" lon="9.772252138496798"><ele>188.0</ele><time>2026-04-25T11:59:16.999Z</time></trkpt><trkpt lat="44.88078436712391" lon="9.772356180470334"><ele>188.0</ele><time>2026-04-25T11:59:17.999Z</time></trkpt><trkpt lat="44.880773361842664" lon="9.772460667859187"><ele>188.0</ele><time>2026-04-25T11:59:18.999Z</time></trkpt><trkpt lat="44.88076143918445" lon="9.772567218613762"><ele>188.0</ele><time>2026-04-25T11:59:19.999Z</time></trkpt><trkpt lat="44.88074801446051" lon="9.772680496375655"><ele>187.66666666666666</ele><time>2026-04-25T11:59:20.999Z</time></trkpt><trkpt lat="44.88073597221933" lon="9.772794257583016"><ele>187.33333333333331</ele><time>2026-04-25T11:59:21.999Z</time></trkpt><trkpt lat="44.880724000366705" lon="9.772909077740564"><ele>187.0</ele><time>2026-04-25T11:59:22.999Z</time></trkpt><trkpt lat="44.88070740243278" lon="9.773021991439567"><ele>186.66666666666666</ele><time>2026-04-25T11:59:23.999Z</time></trkpt><trkpt lat="44.880690454477524" lon="9.773135599665888"><ele>186.33333333333334</ele><time>2026-04-25T11:59:24.999Z</time></trkpt><trkpt lat="44.880675655108696" lon="9.77325170421097"><ele>186.0</ele><time>2026-04-25T11:59:25.999Z</time></trkpt><trkpt lat="44.880659520822846" lon="9.773364526366736"><ele>186.00000000000003</ele><time>2026-04-25T11:59:26.999Z</time></trkpt><trkpt lat="44.88064184602137" lon="9.773476451162406"><ele>186.0</ele><time>2026-04-25T11:59:27.999Z</time></trkpt><trkpt lat="44.88062462655051" lon="9.773581425741005"><ele>186.0</ele><time>2026-04-25T11:59:28.999Z</time></trkpt><trkpt lat="44.880604925872184" lon="9.773682424322176"><ele>186.0</ele><time>2026-04-25T11:59:29.999Z</time></trkpt><trkpt lat="44.88058521365854" lon="9.773783719029584"><ele>186.0</ele><time>2026-04-25T11:59:30.999Z</time></trkpt><trkpt lat="44.88056774856128" lon="9.773879438877055"><ele>186.00000000000003</ele><time>2026-04-25T11:59:31.999Z</time></trkpt><trkpt lat="44.880552796536996" lon="9.773974468536789"><ele>186.0</ele><time>2026-04-25T11:59:32.999Z</time></trkpt><trkpt lat="44.880536907040735" lon="9.774068664937126"><ele>186.0</ele><time>2026-04-25T11:59:33.999Z</time></trkpt><trkpt lat="44.880502342883766" lon="9.77423999312931"><ele>186.0</ele><time>2026-04-25T11:59:35.999Z</time></trkpt><trkpt lat="44.88046957887193" lon="9.7744061969803"><ele>186.0</ele><time>2026-04-25T11:59:37.999Z</time></trkpt><trkpt lat="44.88044281445749" lon="9.774569858555116"><ele>186.0</ele><time>2026-04-25T11:59:39.999Z</time></trkpt><trkpt lat="44.880430868845885" lon="9.774729459967855"><ele>186.0</ele><time>2026-04-25T11:59:41.999Z</time></trkpt><trkpt lat="44.880413204243936" lon="9.774897710473448"><ele>186.0</ele><time>2026-04-25T11:59:43.999Z</time></trkpt><trkpt lat="44.880409146504775" lon="9.775074558989997"><ele>186.0</ele><time>2026-04-25T11:59:45.999Z</time></trkpt><trkpt lat="44.880405839204855" lon="9.775170369694926"><ele>186.0</ele><time>2026-04-25T11:59:46.999Z</time></trkpt><trkpt lat="44.88040277949668" lon="9.77526740492112"><ele>186.0</ele><time>2026-04-25T11:59:47.999Z</time></trkpt><trkpt lat="44.88040495112355" lon="9.775366561036673"><ele>185.71428571428572</ele><time>2026-04-25T11:59:48.999Z</time></trkpt><trkpt lat="44.880404890386565" lon="9.775471078114078"><ele>185.42857142857144</ele><time>2026-04-25T11:59:49.999Z</time></trkpt><trkpt lat="44.88040033581571" lon="9.775574411067552"><ele>185.14285714285717</ele><time>2026-04-25T11:59:50.999Z</time></trkpt><trkpt lat="44.88039770664677" lon="9.775677895999234"><ele>184.85714285714286</ele><time>2026-04-25T11:59:51.999Z</time></trkpt><trkpt lat="44.88039970167743" lon="9.775779463706868"><ele>184.57142857142856</ele><time>2026-04-25T11:59:52.999Z</time></trkpt><trkpt lat="44.88039724781018" lon="9.775873203714632"><ele>184.2857142857143</ele><time>2026-04-25T11:59:53.999Z</time></trkpt><trkpt lat="44.8803950197044" lon="9.775970623966492"><ele>184.0</ele><time>2026-04-25T11:59:54.999Z</time></trkpt><trkpt lat="44.88039479390053" lon="9.77606682242109"><ele>183.85714285714286</ele><time>2026-04-25T11:59:55.999Z</time></trkpt><trkpt lat="44.880393433986114" lon="9.776162640334952"><ele>183.7142857142857</ele><time>2026-04-25T11:59:56.999Z</time></trkpt><trkpt lat="44.88039059768569" lon="9.77626115643045"><ele>183.57142857142856</ele><time>2026-04-25T11:59:57.999Z</time></trkpt><trkpt lat="44.880390919280586" lon="9.776359954234755"><ele>183.42857142857144</ele><time>2026-04-25T11:59:58.999Z</time></trkpt><trkpt lat="44.88038619530908" lon="9.776456793184915"><ele>183.28571428571428</ele><time>2026-04-25T11:59:59.999Z</time></trkpt><trkpt lat="44.88037916988472" lon="9.776551741957114"><ele>183.14285714285714</ele><time>2026-04-25T12:00:00.998Z</time></trkpt><trkpt lat="44.88037422264814" lon="9.776647519044735"><ele>183.0</ele><time>2026-04-25T12:00:01.998Z</time></trkpt><trkpt lat="44.88036627886889" lon="9.776739104673858"><ele>183.0</ele><time>2026-04-25T12:00:02.998Z</time></trkpt><trkpt lat="44.88035939037201" lon="9.776830225085282"><ele>183.0</ele><time>2026-04-25T12:00:03.998Z</time></trkpt><trkpt lat="44.88035010759613" lon="9.776922949012212"><ele>183.0</ele><time>2026-04-25T12:00:05Z</time></trkpt><trkpt lat="44.88033770430995" lon="9.777015918653431"><ele>183.0</ele><time>2026-04-25T12:00:06Z</time></trkpt><trkpt lat="44.880325810811115" lon="9.777109798247393"><ele>183.0</ele><time>2026-04-25T12:00:07Z</time></trkpt><trkpt lat="44.88031202833458" lon="9.77721207555358"><ele>183.0</ele><time>2026-04-25T12:00:08Z</time></trkpt><trkpt lat="44.880299495413134" lon="9.777321620551021"><ele>183.0</ele><time>2026-04-25T12:00:09Z</time></trkpt><trkpt lat="44.88028835557473" lon="9.77742763220654"><ele>183.0</ele><time>2026-04-25T12:00:10Z</time></trkpt><trkpt lat="44.88027556621658" lon="9.777538074935444"><ele>183.0</ele><time>2026-04-25T12:00:11Z</time></trkpt><trkpt lat="44.88025948273577" lon="9.777647119290984"><ele>183.0</ele><time>2026-04-25T12:00:12Z</time></trkpt><trkpt lat="44.880244997712424" lon="9.7777618439515"><ele>183.0</ele><time>2026-04-25T12:00:13Z</time></trkpt><trkpt lat="44.88023410452589" lon="9.77787447791571"><ele>183.0</ele><time>2026-04-25T12:00:14Z</time></trkpt><trkpt lat="44.88022627805134" lon="9.7779910529758"><ele>183.0</ele><time>2026-04-25T12:00:15Z</time></trkpt><trkpt lat="44.880214584365106" lon="9.778100798273632"><ele>183.0</ele><time>2026-04-25T12:00:16Z</time></trkpt><trkpt lat="44.88020514657645" lon="9.778206638203557"><ele>183.0</ele><time>2026-04-25T12:00:17Z</time></trkpt><trkpt lat="44.880199212850094" lon="9.778311512886772"><ele>183.0</ele><time>2026-04-25T12:00:18Z</time></trkpt><trkpt lat="44.88019347161986" lon="9.778410504835955"><ele>183.0</ele><time>2026-04-25T12:00:19Z</time></trkpt><trkpt lat="44.88018501028958" lon="9.778510746215185"><ele>183.0</ele><time>2026-04-25T12:00:20Z</time></trkpt><trkpt lat="44.88017471878599" lon="9.778610623823289"><ele>183.0</ele><time>2026-04-25T12:00:21Z</time></trkpt><trkpt lat="44.88016926564075" lon="9.77870441912646"><ele>183.0</ele><time>2026-04-25T12:00:22Z</time></trkpt><trkpt lat="44.88016198438907" lon="9.778794859113132"><ele>183.0</ele><time>2026-04-25T12:00:23Z</time></trkpt><trkpt lat="44.880152178891386" lon="9.778884678967344"><ele>183.0</ele><time>2026-04-25T12:00:24Z</time></trkpt><trkpt lat="44.88013031933825" lon="9.779061793570671"><ele>183.0</ele><time>2026-04-25T12:00:26Z</time></trkpt><trkpt lat="44.880113292827346" lon="9.779242645125803"><ele>183.0</ele><time>2026-04-25T12:00:28Z</time></trkpt><trkpt lat="44.880106291346785" lon="9.779331077348601"><ele>183.0</ele><time>2026-04-25T12:00:29Z</time></trkpt><trkpt lat="44.88009856061334" lon="9.779425023218963"><ele>183.0</ele><time>2026-04-25T12:00:30Z</time></trkpt><trkpt lat="44.88008745452984" lon="9.779521055581144"><ele>183.0</ele><time>2026-04-25T12:00:31Z</time></trkpt><trkpt lat="44.880083766460125" lon="9.779620846520702"><ele>183.0</ele><time>2026-04-25T12:00:32Z</time></trkpt><trkpt lat="44.8800815316513" lon="9.779718477980067"><ele>183.0</ele><time>2026-04-25T12:00:33Z</time></trkpt><trkpt lat="44.88008334004421" lon="9.779814945209587"><ele>183.0</ele><time>2026-04-25T12:00:34Z</time></trkpt><trkpt lat="44.88008242752607" lon="9.779912692355783"><ele>183.0</ele><time>2026-04-25T12:00:35Z</time></trkpt><trkpt lat="44.880081480728144" lon="9.780010298775005"><ele>183.0</ele><time>2026-04-25T12:00:36Z</time></trkpt><trkpt lat="44.880080909086274" lon="9.780105043160198"><ele>182.42857142857144</ele><time>2026-04-25T12:00:37Z</time></trkpt><trkpt lat="44.88007596192318" lon="9.780205068664781"><ele>181.85714285714286</ele><time>2026-04-25T12:00:38Z</time></trkpt><trkpt lat="44.88006660063682" lon="9.780303981760325"><ele>181.28571428571428</ele><time>2026-04-25T12:00:39Z</time></trkpt><trkpt lat="44.8800611091987" lon="9.780403722952064"><ele>180.71428571428572</ele><time>2026-04-25T12:00:40Z</time></trkpt><trkpt lat="44.88006440329594" lon="9.78050983443745"><ele>180.14285714285714</ele><time>2026-04-25T12:00:41Z</time></trkpt><trkpt lat="44.88006660541366" lon="9.780619252158445"><ele>179.57142857142858</ele><time>2026-04-25T12:00:42Z</time></trkpt><trkpt lat="44.88006893162303" lon="9.780736381210863"><ele>179.0</ele><time>2026-04-25T12:00:43Z</time></trkpt><trkpt lat="44.88006822832108" lon="9.780857986494198"><ele>179.0</ele><time>2026-04-25T12:00:44Z</time></trkpt><trkpt lat="44.880074567890794" lon="9.780988793520661"><ele>179.0</ele><time>2026-04-25T12:00:45Z</time></trkpt><trkpt lat="44.88007993450825" lon="9.781121228161727"><ele>179.0</ele><time>2026-04-25T12:00:46Z</time></trkpt><trkpt lat="44.8800668548706" lon="9.78125846499218"><ele>179.0</ele><time>2026-04-25T12:00:47Z</time></trkpt><trkpt lat="44.880027356614036" lon="9.781393246031753"><ele>179.0</ele><time>2026-04-25T12:00:48Z</time></trkpt><trkpt lat="44.87995783921468" lon="9.781512974547816"><ele>177.0</ele><time>2026-04-25T12:00:49Z</time></trkpt><trkpt lat="44.87984503809394" lon="9.781566775002931"><ele>175.0</ele><time>2026-04-25T12:00:50Z</time></trkpt><trkpt lat="44.87974548061222" lon="9.781656979633674"><ele>173.0</ele><time>2026-04-25T12:00:51Z</time></trkpt><trkpt lat="44.87964940751525" lon="9.781755731624274"><ele>171.0</ele><time>2026-04-25T12:00:52Z</time></trkpt><trkpt lat="44.87955226229712" lon="9.78185551220379"><ele>169.5</ele><time>2026-04-25T12:00:53Z</time></trkpt><trkpt lat="44.87947152686326" lon="9.781989251125582"><ele>168.0</ele><time>2026-04-25T12:00:54Z</time></trkpt><trkpt lat="44.87941697046063" lon="9.78215210537408"><ele>166.5</ele><time>2026-04-25T12:00:55Z</time></trkpt><trkpt lat="44.879383601069435" lon="9.782327665462166"><ele>165.0</ele><time>2026-04-25T12:00:56Z</time></trkpt><trkpt lat="44.87936101148906" lon="9.78250031356249"><ele>165.0</ele><time>2026-04-25T12:00:57Z</time></trkpt><trkpt lat="44.87933812523503" lon="9.782670490967972"><ele>165.0</ele><time>2026-04-25T12:00:58Z</time></trkpt><trkpt lat="44.87931065925588" lon="9.78282924881573"><ele>165.0</ele><time>2026-04-25T12:00:59Z</time></trkpt><trkpt lat="44.879284746350216" lon="9.782970731608982"><ele>165.0</ele><time>2026-04-25T12:01:00Z</time></trkpt><trkpt lat="44.87925990981266" lon="9.783098882900825"><ele>165.0</ele><time>2026-04-25T12:01:01Z</time></trkpt><trkpt lat="44.879240225252445" lon="9.783214954658764"><ele>164.66666666666666</ele><time>2026-04-25T12:01:02Z</time></trkpt><trkpt lat="44.87922563643877" lon="9.783319632826695"><ele>164.33333333333334</ele><time>2026-04-25T12:01:03Z</time></trkpt><trkpt lat="44.87923552296173" lon="9.78346667633408"><ele>164.0</ele><time>2026-04-25T12:01:04.999Z</time></trkpt><trkpt lat="44.8793074911784" lon="9.783557994166467"><ele>163.66666666666669</ele><time>2026-04-25T12:01:06.999Z</time></trkpt><trkpt lat="44.879382683428496" lon="9.783567081716722"><ele>163.33333333333334</ele><time>2026-04-25T12:01:09.999Z</time></trkpt><trkpt lat="44.87939000750401" lon="9.783660017211208"><ele>163.0</ele><time>2026-04-25T12:02:34Z</time></trkpt><trkpt lat="44.87935317705595" lon="9.78374138783663"><ele>162.83333333333334</ele><time>2026-04-25T12:02:38Z</time></trkpt><trkpt lat="44.879329389879295" lon="9.78386643943744"><ele>162.66666666666669</ele><time>2026-04-25T12:02:41Z</time></trkpt><trkpt lat="44.879304429931864" lon="9.783995181087839"><ele>162.5</ele><time>2026-04-25T12:02:44Z</time></trkpt><trkpt lat="44.87929075816797" lon="9.784089625298805"><ele>162.33333333333334</ele><time>2026-04-25T12:02:46Z</time></trkpt><trkpt lat="44.8792710291371" lon="9.78419265326095"><ele>162.16666666666666</ele><time>2026-04-25T12:02:48Z</time></trkpt><trkpt lat="44.87925695042323" lon="9.7842910275486"><ele>162.0</ele><time>2026-04-25T12:02:50Z</time></trkpt><trkpt lat="44.87923647829766" lon="9.784384523479893"><ele>162.0</ele><time>2026-04-25T12:02:52Z</time></trkpt><trkpt lat="44.87922063660827" lon="9.784497027460933"><ele>162.0</ele><time>2026-04-25T12:02:54Z</time></trkpt><trkpt lat="44.87919974069663" lon="9.78462252333616"><ele>162.0</ele><time>2026-04-25T12:02:56Z</time></trkpt><trkpt lat="44.879179330134235" lon="9.784761859282872"><ele>162.0</ele><time>2026-04-25T12:02:58Z</time></trkpt><trkpt lat="44.87915769787428" lon="9.784889354740287"><ele>162.0</ele><time>2026-04-25T12:03:00Z</time></trkpt><trkpt lat="44.87913743153936" lon="9.785018331146475"><ele>162.0</ele><time>2026-04-25T12:03:02Z</time></trkpt><trkpt lat="44.87911093907823" lon="9.78516770007172"><ele>162.0</ele><time>2026-04-25T12:03:04Z</time></trkpt><trkpt lat="44.87908932001835" lon="9.785313771243406"><ele>162.0</ele><time>2026-04-25T12:03:06Z</time></trkpt><trkpt lat="44.87906519211162" lon="9.785470439130531"><ele>162.0</ele><time>2026-04-25T12:03:07.999Z</time></trkpt><trkpt lat="44.87904224015468" lon="9.785616840082204"><ele>162.0</ele><time>2026-04-25T12:03:09.999Z</time></trkpt><trkpt lat="44.87901882737657" lon="9.785761208229113"><ele>161.8</ele><time>2026-04-25T12:03:11.999Z</time></trkpt><trkpt lat="44.878993517424824" lon="9.785906792937526"><ele>161.6</ele><time>2026-04-25T12:03:13.999Z</time></trkpt><trkpt lat="44.87896682548428" lon="9.786059413002109"><ele>161.4</ele><time>2026-04-25T12:03:15.999Z</time></trkpt><trkpt lat="44.87894593109441" lon="9.786216575736567"><ele>161.20000000000002</ele><time>2026-04-25T12:03:17.999Z</time></trkpt><trkpt lat="44.87891775852676" lon="9.786371662779052"><ele>161.0</ele><time>2026-04-25T12:03:19.999Z</time></trkpt><trkpt lat="44.87889127149272" lon="9.786525861558937"><ele>160.5</ele><time>2026-04-25T12:03:21.999Z</time></trkpt><trkpt lat="44.878865931888676" lon="9.786690105941352"><ele>160.0</ele><time>2026-04-25T12:03:23.999Z</time></trkpt><trkpt lat="44.87883745377739" lon="9.7868523970214"><ele>159.5</ele><time>2026-04-25T12:03:25.999Z</time></trkpt><trkpt lat="44.878808854548765" lon="9.787020830821547"><ele>159.0</ele><time>2026-04-25T12:03:27.999Z</time></trkpt><trkpt lat="44.8787810765429" lon="9.787197703333645"><ele>159.0</ele><time>2026-04-25T12:03:29.999Z</time></trkpt><trkpt lat="44.8787670442503" lon="9.78728554182684"><ele>159.0</ele><time>2026-04-25T12:03:30.999Z</time></trkpt><trkpt lat="44.87875584830554" lon="9.787374314443069"><ele>159.0</ele><time>2026-04-25T12:03:31.999Z</time></trkpt><trkpt lat="44.87874559043355" lon="9.787466415733284"><ele>159.0</ele><time>2026-04-25T12:03:32.999Z</time></trkpt><trkpt lat="44.878733487557895" lon="9.787556785310441"><ele>159.0</ele><time>2026-04-25T12:03:33.999Z</time></trkpt><trkpt lat="44.87872211131598" lon="9.787647796728859"><ele>159.0</ele><time>2026-04-25T12:03:34.999Z</time></trkpt><trkpt lat="44.87871169979886" lon="9.787740217799346"><ele>159.0</ele><time>2026-04-25T12:03:35.999Z</time></trkpt><trkpt lat="44.87869952423258" lon="9.787831689519516"><ele>159.14285714285714</ele><time>2026-04-25T12:03:36.999Z</time></trkpt><trkpt lat="44.878689502249" lon="9.787924971470437"><ele>159.2857142857143</ele><time>2026-04-25T12:03:37.999Z</time></trkpt><trkpt lat="44.878681140026195" lon="9.788018640877173"><ele>159.42857142857144</ele><time>2026-04-25T12:03:38.999Z</time></trkpt><trkpt lat="44.878671229269166" lon="9.788113337729046"><ele>159.57142857142856</ele><time>2026-04-25T12:03:39.999Z</time></trkpt><trkpt lat="44.87866142313336" lon="9.78820908978135"><ele>159.71428571428572</ele><time>2026-04-25T12:03:40.999Z</time></trkpt><trkpt lat="44.878645901139194" lon="9.788304683876966"><ele>159.85714285714286</ele><time>2026-04-25T12:03:41.999Z</time></trkpt><trkpt lat="44.87863475223749" lon="9.788403180750674"><ele>160.0</ele><time>2026-04-25T12:03:42.999Z</time></trkpt><trkpt lat="44.87862748331591" lon="9.788503022820546"><ele>159.66666666666669</ele><time>2026-04-25T12:03:43.999Z</time></trkpt><trkpt lat="44.878619353503744" lon="9.788605067264093"><ele>159.33333333333334</ele><time>2026-04-25T12:03:44.999Z</time></trkpt><trkpt lat="44.87860959880618" lon="9.788710369901418"><ele>159.0</ele><time>2026-04-25T12:03:45.999Z</time></trkpt><trkpt lat="44.87859813306893" lon="9.788814386561487"><ele>158.66666666666666</ele><time>2026-04-25T12:03:46.999Z</time></trkpt><trkpt lat="44.87858683206873" lon="9.788921880661885"><ele>158.33333333333331</ele><time>2026-04-25T12:03:47.999Z</time></trkpt><trkpt lat="44.87857532330292" lon="9.789031052223256"><ele>158.0</ele><time>2026-04-25T12:03:48.999Z</time></trkpt><trkpt lat="44.87856603975392" lon="9.789139324082663"><ele>158.0</ele><time>2026-04-25T12:03:49.999Z</time></trkpt><trkpt lat="44.87855850594075" lon="9.789247848675414"><ele>158.0</ele><time>2026-04-25T12:03:50.999Z</time></trkpt><trkpt lat="44.878547933487624" lon="9.789357662581972"><ele>158.0</ele><time>2026-04-25T12:03:51.999Z</time></trkpt><trkpt lat="44.87853659992786" lon="9.789471144984411"><ele>158.0</ele><time>2026-04-25T12:03:52.999Z</time></trkpt><trkpt lat="44.87852658235237" lon="9.789579859815895"><ele>158.0</ele><time>2026-04-25T12:03:53.999Z</time></trkpt><trkpt lat="44.878515440840395" lon="9.78969423615477"><ele>158.0</ele><time>2026-04-25T12:03:54.999Z</time></trkpt><trkpt lat="44.878504349745796" lon="9.789804964217526"><ele>158.5</ele><time>2026-04-25T12:03:55.999Z</time></trkpt><trkpt lat="44.87849355711003" lon="9.789919945303899"><ele>159.0</ele><time>2026-04-25T12:03:56.999Z</time></trkpt><trkpt lat="44.8784832175794" lon="9.79003177194483"><ele>159.5</ele><time>2026-04-25T12:03:57.999Z</time></trkpt><trkpt lat="44.8784724199678" lon="9.790142730957868"><ele>160.0</ele><time>2026-04-25T12:03:58.999Z</time></trkpt><trkpt lat="44.878460028813585" lon="9.790253014398195"><ele>160.5</ele><time>2026-04-25T12:03:59.999Z</time></trkpt><trkpt lat="44.87844570449003" lon="9.790364778802491"><ele>161.0</ele><time>2026-04-25T12:04:00.999Z</time></trkpt><trkpt lat="44.878432136577715" lon="9.790474351243088"><ele>161.0</ele><time>2026-04-25T12:04:01.999Z</time></trkpt><trkpt lat="44.87842388063844" lon="9.790588803037696"><ele>161.0</ele><time>2026-04-25T12:04:02.999Z</time></trkpt><trkpt lat="44.87841169700325" lon="9.790703617175936"><ele>161.0</ele><time>2026-04-25T12:04:03.998Z</time></trkpt><trkpt lat="44.87839942011395" lon="9.790820227268979"><ele>161.0</ele><time>2026-04-25T12:04:04.998Z</time></trkpt><trkpt lat="44.87838762644492" lon="9.79093812135557"><ele>161.0</ele><time>2026-04-25T12:04:05.998Z</time></trkpt><trkpt lat="44.87837727021336" lon="9.791051916942832"><ele>161.0</ele><time>2026-04-25T12:04:06.998Z</time></trkpt><trkpt lat="44.87836540988877" lon="9.791168946316768"><ele>160.83333333333331</ele><time>2026-04-25T12:04:07.998Z</time></trkpt><trkpt lat="44.878350501196145" lon="9.791285555784722"><ele>160.66666666666666</ele><time>2026-04-25T12:04:08.998Z</time></trkpt><trkpt lat="44.878339485553035" lon="9.791400305706244"><ele>160.5</ele><time>2026-04-25T12:04:09.998Z</time></trkpt><trkpt lat="44.878328976955316" lon="9.791515257431033"><ele>160.33333333333334</ele><time>2026-04-25T12:04:10.998Z</time></trkpt><trkpt lat="44.87831597728615" lon="9.791628401000002"><ele>160.16666666666669</ele><time>2026-04-25T12:04:11.998Z</time></trkpt><trkpt lat="44.87830319918143" lon="9.791743929403117"><ele>160.0</ele><time>2026-04-25T12:04:12.998Z</time></trkpt><trkpt lat="44.87829147328282" lon="9.791859913968178"><ele>160.0</ele><time>2026-04-25T12:04:13.998Z</time></trkpt><trkpt lat="44.878276295950435" lon="9.791975869149114"><ele>160.0</ele><time>2026-04-25T12:04:14.998Z</time></trkpt><trkpt lat="44.87826613193889" lon="9.792096422776902"><ele>160.0</ele><time>2026-04-25T12:04:15.998Z</time></trkpt><trkpt lat="44.878257478255016" lon="9.792222713945186"><ele>160.0</ele><time>2026-04-25T12:04:17Z</time></trkpt><trkpt lat="44.878245438120715" lon="9.792341992592663"><ele>160.0</ele><time>2026-04-25T12:04:18Z</time></trkpt><trkpt lat="44.878235714211044" lon="9.792463244843987"><ele>160.0</ele><time>2026-04-25T12:04:19Z</time></trkpt><trkpt lat="44.87822519604275" lon="9.79259090989917"><ele>159.83333333333334</ele><time>2026-04-25T12:04:20Z</time></trkpt><trkpt lat="44.87820750847384" lon="9.792706902378224"><ele>159.66666666666669</ele><time>2026-04-25T12:04:21Z</time></trkpt><trkpt lat="44.878193142332684" lon="9.792828778696121"><ele>159.5</ele><time>2026-04-25T12:04:22Z</time></trkpt><trkpt lat="44.87817924875809" lon="9.792951694075064"><ele>159.33333333333334</ele><time>2026-04-25T12:04:23Z</time></trkpt><trkpt lat="44.878163810248765" lon="9.7930733113869"><ele>159.16666666666666</ele><time>2026-04-25T12:04:24Z</time></trkpt><trkpt lat="44.87814832459607" lon="9.793195927346616"><ele>159.0</ele><time>2026-04-25T12:04:25Z</time></trkpt><trkpt lat="44.87813113173924" lon="9.79331227956921"><ele>159.0</ele><time>2026-04-25T12:04:26Z</time></trkpt><trkpt lat="44.87811283299181" lon="9.7934310136146"><ele>159.0</ele><time>2026-04-25T12:04:27Z</time></trkpt><trkpt lat="44.87809515586751" lon="9.793548466118335"><ele>159.0</ele><time>2026-04-25T12:04:28Z</time></trkpt><trkpt lat="44.8780756714216" lon="9.79366807859802"><ele>159.0</ele><time>2026-04-25T12:04:29Z</time></trkpt><trkpt lat="44.878055638310364" lon="9.79378441702076"><ele>159.0</ele><time>2026-04-25T12:04:30Z</time></trkpt><trkpt lat="44.87803379266237" lon="9.793900351682458"><ele>159.0</ele><time>2026-04-25T12:04:31Z</time></trkpt><trkpt lat="44.87801390189322" lon="9.794020238100938"><ele>158.5</ele><time>2026-04-25T12:04:32Z</time></trkpt><trkpt lat="44.877998259175754" lon="9.794141315965676"><ele>158.0</ele><time>2026-04-25T12:04:33Z</time></trkpt><trkpt lat="44.87798153533675" lon="9.794260031376755"><ele>157.5</ele><time>2026-04-25T12:04:34Z</time></trkpt><trkpt lat="44.87796304988635" lon="9.794378940975728"><ele>157.0</ele><time>2026-04-25T12:04:35Z</time></trkpt><trkpt lat="44.87794530865923" lon="9.794497213410185"><ele>156.5</ele><time>2026-04-25T12:04:36Z</time></trkpt><trkpt lat="44.877929195922185" lon="9.794615132258782"><ele>156.0</ele><time>2026-04-25T12:04:37Z</time></trkpt><trkpt lat="44.87791185179417" lon="9.794734468444188"><ele>155.66666666666666</ele><time>2026-04-25T12:04:38Z</time></trkpt><trkpt lat="44.877894276597445" lon="9.79485353628121"><ele>155.33333333333334</ele><time>2026-04-25T12:04:39Z</time></trkpt><trkpt lat="44.877877774171864" lon="9.794974545763868"><ele>155.0</ele><time>2026-04-25T12:04:40Z</time></trkpt><trkpt lat="44.87785498846996" lon="9.795091431846448"><ele>154.66666666666669</ele><time>2026-04-25T12:04:41Z</time></trkpt><trkpt lat="44.87783022020587" lon="9.795209806585781"><ele>154.33333333333334</ele><time>2026-04-25T12:04:42Z</time></trkpt><trkpt lat="44.87780963101455" lon="9.795328277903693"><ele>154.0</ele><time>2026-04-25T12:04:43Z</time></trkpt><trkpt lat="44.87778514873947" lon="9.79544155930769"><ele>153.83333333333334</ele><time>2026-04-25T12:04:44Z</time></trkpt><trkpt lat="44.87775586644229" lon="9.795554091192516"><ele>153.66666666666669</ele><time>2026-04-25T12:04:45Z</time></trkpt><trkpt lat="44.877728789530714" lon="9.79566573051326"><ele>153.5</ele><time>2026-04-25T12:04:46Z</time></trkpt><trkpt lat="44.87770264885737" lon="9.795778704301263"><ele>153.33333333333334</ele><time>2026-04-25T12:04:47Z</time></trkpt><trkpt lat="44.87767796856476" lon="9.795890599384819"><ele>153.16666666666666</ele><time>2026-04-25T12:04:48Z</time></trkpt><trkpt lat="44.87765170291467" lon="9.79600042459382"><ele>153.0</ele><time>2026-04-25T12:04:49Z</time></trkpt><trkpt lat="44.87762548332809" lon="9.79611148194001"><ele>153.5</ele><time>2026-04-25T12:04:50Z</time></trkpt><trkpt lat="44.87759986839754" lon="9.796222972232385"><ele>154.0</ele><time>2026-04-25T12:04:51Z</time></trkpt><trkpt lat="44.87757792118577" lon="9.79633278550484"><ele>154.5</ele><time>2026-04-25T12:04:52Z</time></trkpt><trkpt lat="44.877565768402754" lon="9.796444606797026"><ele>155.0</ele><time>2026-04-25T12:04:53Z</time></trkpt><trkpt lat="44.877566202573426" lon="9.796555185297363"><ele>155.5</ele><time>2026-04-25T12:04:54Z</time></trkpt><trkpt lat="44.87757945080209" lon="9.796663040150658"><ele>156.0</ele><time>2026-04-25T12:04:55Z</time></trkpt><trkpt lat="44.877604152381615" lon="9.796763737339678"><ele>157.0</ele><time>2026-04-25T12:04:56Z</time></trkpt><trkpt lat="44.8776506511578" lon="9.796849284352765"><ele>158.0</ele><time>2026-04-25T12:04:57Z</time></trkpt><trkpt lat="44.87770017589843" lon="9.7969254430997"><ele>159.0</ele><time>2026-04-25T12:04:58Z</time></trkpt><trkpt lat="44.87775018365993" lon="9.796995092731924"><ele>160.0</ele><time>2026-04-25T12:04:59Z</time></trkpt><trkpt lat="44.87780308548759" lon="9.797064631864902"><ele>161.0</ele><time>2026-04-25T12:05:00Z</time></trkpt><trkpt lat="44.87786022874196" lon="9.797127244360942"><ele>162.0</ele><time>2026-04-25T12:05:01Z</time></trkpt><trkpt lat="44.87791506341434" lon="9.79718777425794"><ele>163.0</ele><time>2026-04-25T12:05:02Z</time></trkpt><trkpt lat="44.87797005743704" lon="9.797251941885781"><ele>163.0</ele><time>2026-04-25T12:05:03Z</time></trkpt><trkpt lat="44.87801930140612" lon="9.797319453172845"><ele>163.0</ele><time>2026-04-25T12:05:04Z</time></trkpt><trkpt lat="44.87806086216732" lon="9.797397344069276"><ele>163.0</ele><time>2026-04-25T12:05:05Z</time></trkpt><trkpt lat="44.87809010643903" lon="9.797480059305729"><ele>163.0</ele><time>2026-04-25T12:05:06Z</time></trkpt><trkpt lat="44.87810900994508" lon="9.79756679710677"><ele>163.0</ele><time>2026-04-25T12:05:07Z</time></trkpt><trkpt lat="44.87812225657027" lon="9.79772889749404"><ele>163.0</ele><time>2026-04-25T12:05:09Z</time></trkpt><trkpt lat="44.87812010604788" lon="9.79788743081092"><ele>163.8</ele><time>2026-04-25T12:05:11Z</time></trkpt><trkpt lat="44.87811988458406" lon="9.798043384919769"><ele>164.60000000000002</ele><time>2026-04-25T12:05:12.999Z</time></trkpt><trkpt lat="44.87812220316385" lon="9.798197863462716"><ele>165.39999999999998</ele><time>2026-04-25T12:05:14.999Z</time></trkpt><trkpt lat="44.87812378743226" lon="9.798352060225252"><ele>166.2</ele><time>2026-04-25T12:05:16.999Z</time></trkpt><trkpt lat="44.878124766792936" lon="9.798506437770653"><ele>167.0</ele><time>2026-04-25T12:05:18.999Z</time></trkpt><trkpt lat="44.87812587871418" lon="9.79865433381123"><ele>167.16666666666666</ele><time>2026-04-25T12:05:20.999Z</time></trkpt><trkpt lat="44.878131459186534" lon="9.798788386380958"><ele>167.33333333333331</ele><time>2026-04-25T12:05:22.999Z</time></trkpt><trkpt lat="44.8781320550587" lon="9.798884151892551"><ele>167.5</ele><time>2026-04-25T12:05:24.999Z</time></trkpt><trkpt lat="44.87813265742899" lon="9.7989933822285"><ele>167.66666666666666</ele><time>2026-04-25T12:05:26.999Z</time></trkpt><trkpt lat="44.878183625173726" lon="9.799108469862908"><ele>167.83333333333334</ele><time>2026-04-25T12:05:29.999Z</time></trkpt><trkpt lat="44.87827351450152" lon="9.799147549424735"><ele>168.0</ele><time>2026-04-25T12:05:31.999Z</time></trkpt><trkpt lat="44.87833719343935" lon="9.799161446451508"><ele>167.83333333333334</ele><time>2026-04-25T12:05:32.999Z</time></trkpt><trkpt lat="44.87845641000123" lon="9.799188867265718"><ele>167.66666666666666</ele><time>2026-04-25T12:05:34.999Z</time></trkpt><trkpt lat="44.878522767644164" lon="9.799201214166219"><ele>167.5</ele><time>2026-04-25T12:05:35.999Z</time></trkpt><trkpt lat="44.87859115775756" lon="9.799211513002293"><ele>167.33333333333331</ele><time>2026-04-25T12:05:36.999Z</time></trkpt><trkpt lat="44.87866510875012" lon="9.799227374053851"><ele>167.16666666666666</ele><time>2026-04-25T12:05:37.999Z</time></trkpt><trkpt lat="44.87873800875678" lon="9.799241549051033"><ele>167.0</ele><time>2026-04-25T12:05:38.999Z</time></trkpt><trkpt lat="44.87881337027991" lon="9.799257245253827"><ele>167.0</ele><time>2026-04-25T12:05:39.999Z</time></trkpt><trkpt lat="44.878893627840085" lon="9.799269768148056"><ele>167.0</ele><time>2026-04-25T12:05:40.999Z</time></trkpt><trkpt lat="44.87897535326144" lon="9.799282943928912"><ele>167.0</ele><time>2026-04-25T12:05:41.999Z</time></trkpt><trkpt lat="44.87905815968142" lon="9.799291555322412"><ele>167.0</ele><time>2026-04-25T12:05:42.999Z</time></trkpt><trkpt lat="44.87914350523333" lon="9.79930176886601"><ele>167.0</ele><time>2026-04-25T12:05:43.999Z</time></trkpt><trkpt lat="44.87922862270322" lon="9.799314809025693"><ele>167.0</ele><time>2026-04-25T12:05:44.999Z</time></trkpt><trkpt lat="44.87931222710435" lon="9.799339476639357"><ele>166.33333333333331</ele><time>2026-04-25T12:05:45.999Z</time></trkpt><trkpt lat="44.87939967374205" lon="9.799353329271229"><ele>165.66666666666666</ele><time>2026-04-25T12:05:46.999Z</time></trkpt><trkpt lat="44.879486033457205" lon="9.7993673867362"><ele>165.0</ele><time>2026-04-25T12:05:47.999Z</time></trkpt><trkpt lat="44.8795741050958" lon="9.799380720133607"><ele>164.33333333333334</ele><time>2026-04-25T12:05:48.999Z</time></trkpt><trkpt lat="44.87965896637542" lon="9.799385092756614"><ele>163.66666666666669</ele><time>2026-04-25T12:05:49.999Z</time></trkpt><trkpt lat="44.87974772556298" lon="9.799380219647563"><ele>163.0</ele><time>2026-04-25T12:05:50.999Z</time></trkpt><trkpt lat="44.87983247033217" lon="9.799374104438089"><ele>163.0</ele><time>2026-04-25T12:05:51.999Z</time></trkpt><trkpt lat="44.87991699915876" lon="9.799362615801481"><ele>163.0</ele><time>2026-04-25T12:05:52.999Z</time></trkpt><trkpt lat="44.879998113805314" lon="9.799361817727542"><ele>163.0</ele><time>2026-04-25T12:05:53.999Z</time></trkpt><trkpt lat="44.8800835257107" lon="9.799377275565924"><ele>163.0</ele><time>2026-04-25T12:05:54.999Z</time></trkpt><trkpt lat="44.880171283529194" lon="9.799399812958983"><ele>163.0</ele><time>2026-04-25T12:05:55.999Z</time></trkpt><trkpt lat="44.88025641210611" lon="9.799424517895515"><ele>163.0</ele><time>2026-04-25T12:05:56.999Z</time></trkpt><trkpt lat="44.880342753846826" lon="9.799447069677889"><ele>162.5</ele><time>2026-04-25T12:05:57.999Z</time></trkpt><trkpt lat="44.880428148073285" lon="9.799468960979713"><ele>162.0</ele><time>2026-04-25T12:05:58.999Z</time></trkpt><trkpt lat="44.88051306487133" lon="9.799490638847116"><ele>161.5</ele><time>2026-04-25T12:05:59.999Z</time></trkpt><trkpt lat="44.88059816726644" lon="9.799513172239378"><ele>161.0</ele><time>2026-04-25T12:06:00.999Z</time></trkpt><trkpt lat="44.88068549886545" lon="9.79953408435783"><ele>160.5</ele><time>2026-04-25T12:06:01.999Z</time></trkpt><trkpt lat="44.880773149963595" lon="9.799554898698146"><ele>160.0</ele><time>2026-04-25T12:06:02.999Z</time></trkpt><trkpt lat="44.88086009059579" lon="9.79957094679276"><ele>159.83333333333334</ele><time>2026-04-25T12:06:03.999Z</time></trkpt><trkpt lat="44.880948121005474" lon="9.799592229975806"><ele>159.66666666666669</ele><time>2026-04-25T12:06:04.999Z</time></trkpt><trkpt lat="44.88103392121225" lon="9.799609966452698"><ele>159.5</ele><time>2026-04-25T12:06:05.999Z</time></trkpt><trkpt lat="44.88112268729485" lon="9.799628150288047"><ele>159.33333333333334</ele><time>2026-04-25T12:06:06.999Z</time></trkpt><trkpt lat="44.881211006973444" lon="9.799648406681008"><ele>159.16666666666666</ele><time>2026-04-25T12:06:07.999Z</time></trkpt><trkpt lat="44.88129900138218" lon="9.799671088219135"><ele>159.0</ele><time>2026-04-25T12:06:08.999Z</time></trkpt><trkpt lat="44.881388337421775" lon="9.799692583719034"><ele>159.0</ele><time>2026-04-25T12:06:09.999Z</time></trkpt><trkpt lat="44.881477816767344" lon="9.799715883484286"><ele>159.0</ele><time>2026-04-25T12:06:10.999Z</time></trkpt><trkpt lat="44.88156731358573" lon="9.799736813409305"><ele>159.0</ele><time>2026-04-25T12:06:11.998Z</time></trkpt><trkpt lat="44.88165781116709" lon="9.799756321011708"><ele>159.0</ele><time>2026-04-25T12:06:12.998Z</time></trkpt><trkpt lat="44.88174843603986" lon="9.799778346155902"><ele>159.0</ele><time>2026-04-25T12:06:13.998Z</time></trkpt><trkpt lat="44.88183881899019" lon="9.799799622770285"><ele>157.8</ele><time>2026-04-25T12:06:14.998Z</time></trkpt><trkpt lat="44.88192919310863" lon="9.79982201051338"><ele>156.60000000000002</ele><time>2026-04-25T12:06:15.998Z</time></trkpt><trkpt lat="44.882018372541644" lon="9.799844697679118"><ele>155.4</ele><time>2026-04-25T12:06:16.998Z</time></trkpt><trkpt lat="44.88211409668553" lon="9.79986782663728"><ele>154.20000000000002</ele><time>2026-04-25T12:06:17.998Z</time></trkpt><trkpt lat="44.88220376967925" lon="9.799889747310814"><ele>153.0</ele><time>2026-04-25T12:06:18.998Z</time></trkpt><trkpt lat="44.88229750807399" lon="9.799912249776114"><ele>153.0</ele><time>2026-04-25T12:06:19.998Z</time></trkpt><trkpt lat="44.88239123604938" lon="9.799934131069115"><ele>153.0</ele><time>2026-04-25T12:06:20.998Z</time></trkpt><trkpt lat="44.88248423751171" lon="9.799960729148248"><ele>153.0</ele><time>2026-04-25T12:06:22Z</time></trkpt><trkpt lat="44.88257812056621" lon="9.799981981118414"><ele>153.0</ele><time>2026-04-25T12:06:23Z</time></trkpt><trkpt lat="44.882672175702126" lon="9.800004461208227"><ele>153.0</ele><time>2026-04-25T12:06:24Z</time></trkpt><trkpt lat="44.88276365591461" lon="9.800028808710271"><ele>153.0</ele><time>2026-04-25T12:06:25Z</time></trkpt><trkpt lat="44.88285685013148" lon="9.80005076416515"><ele>153.0</ele><time>2026-04-25T12:06:26Z</time></trkpt><trkpt lat="44.88295179172003" lon="9.80007273687139"><ele>153.0</ele><time>2026-04-25T12:06:27Z</time></trkpt><trkpt lat="44.8830458651929" lon="9.800095884465303"><ele>153.0</ele><time>2026-04-25T12:06:28Z</time></trkpt><trkpt lat="44.88314096606923" lon="9.800120895703495"><ele>153.0</ele><time>2026-04-25T12:06:29Z</time></trkpt><trkpt lat="44.883237263001604" lon="9.800143391701756"><ele>153.4</ele><time>2026-04-25T12:06:30Z</time></trkpt><trkpt lat="44.883331918890896" lon="9.80016950061509"><ele>153.8</ele><time>2026-04-25T12:06:31Z</time></trkpt><trkpt lat="44.88342672479704" lon="9.80019222541356"><ele>154.2</ele><time>2026-04-25T12:06:32Z</time></trkpt><trkpt lat="44.883523716885925" lon="9.800214971447904"><ele>154.6</ele><time>2026-04-25T12:06:33Z</time></trkpt><trkpt lat="44.88361790192529" lon="9.800238553449216"><ele>155.0</ele><time>2026-04-25T12:06:34Z</time></trkpt><trkpt lat="44.883711285288484" lon="9.800265006657133"><ele>155.0</ele><time>2026-04-25T12:06:35Z</time></trkpt><trkpt lat="44.88380672587619" lon="9.80028974085047"><ele>155.0</ele><time>2026-04-25T12:06:36Z</time></trkpt><trkpt lat="44.88390129181289" lon="9.800312431349347"><ele>155.0</ele><time>2026-04-25T12:06:37Z</time></trkpt><trkpt lat="44.883996839426835" lon="9.800337670962744"><ele>155.0</ele><time>2026-04-25T12:06:38Z</time></trkpt><trkpt lat="44.884090283905074" lon="9.80036158911185"><ele>155.0</ele><time>2026-04-25T12:06:39Z</time></trkpt><trkpt lat="44.884187357003036" lon="9.800383095392213"><ele>154.4</ele><time>2026-04-25T12:06:40Z</time></trkpt><trkpt lat="44.88428466057531" lon="9.80040771364172"><ele>153.8</ele><time>2026-04-25T12:06:41Z</time></trkpt><trkpt lat="44.88438046794426" lon="9.80043012977342"><ele>153.2</ele><time>2026-04-25T12:06:42Z</time></trkpt><trkpt lat="44.88447636155324" lon="9.800453427246987"><ele>152.6</ele><time>2026-04-25T12:06:43Z</time></trkpt><trkpt lat="44.88457342463656" lon="9.800476532376619"><ele>152.0</ele><time>2026-04-25T12:06:44Z</time></trkpt><trkpt lat="44.884670240412376" lon="9.800500255388682"><ele>152.0</ele><time>2026-04-25T12:06:45Z</time></trkpt><trkpt lat="44.88476571270109" lon="9.800524718003675"><ele>152.0</ele><time>2026-04-25T12:06:46Z</time></trkpt><trkpt lat="44.884862714189886" lon="9.800552096075107"><ele>152.0</ele><time>2026-04-25T12:06:47Z</time></trkpt><trkpt lat="44.88495774212932" lon="9.800577106647523"><ele>152.0</ele><time>2026-04-25T12:06:48Z</time></trkpt><trkpt lat="44.88505357140815" lon="9.80060133573401"><ele>152.0</ele><time>2026-04-25T12:06:49Z</time></trkpt><trkpt lat="44.88514788084354" lon="9.800627866268394"><ele>151.6</ele><time>2026-04-25T12:06:50Z</time></trkpt><trkpt lat="44.88524602242423" lon="9.800648023059857"><ele>151.2</ele><time>2026-04-25T12:06:51Z</time></trkpt><trkpt lat="44.88534164759456" lon="9.800671175381005"><ele>150.8</ele><time>2026-04-25T12:06:52Z</time></trkpt><trkpt lat="44.88543859546903" lon="9.800699276069702"><ele>150.4</ele><time>2026-04-25T12:06:53Z</time></trkpt><trkpt lat="44.885534897969436" lon="9.80072828664057"><ele>150.0</ele><time>2026-04-25T12:06:54Z</time></trkpt><trkpt lat="44.885632657422384" lon="9.800748932373068"><ele>150.0</ele><time>2026-04-25T12:06:55Z</time></trkpt><trkpt lat="44.8857297769547" lon="9.800772077945757"><ele>150.0</ele><time>2026-04-25T12:06:56Z</time></trkpt><trkpt lat="44.88582549017982" lon="9.800799667959666"><ele>150.0</ele><time>2026-04-25T12:06:57Z</time></trkpt><trkpt lat="44.88592315364478" lon="9.800822774485047"><ele>150.0</ele><time>2026-04-25T12:06:58Z</time></trkpt><trkpt lat="44.88601858233033" lon="9.800844283527965"><ele>150.0</ele><time>2026-04-25T12:06:59Z</time></trkpt><trkpt lat="44.88611477676525" lon="9.800868528646257"><ele>149.8</ele><time>2026-04-25T12:07:00Z</time></trkpt><trkpt lat="44.88621161729099" lon="9.800894714964272"><ele>149.6</ele><time>2026-04-25T12:07:01Z</time></trkpt><trkpt lat="44.88630682823188" lon="9.800919050145342"><ele>149.4</ele><time>2026-04-25T12:07:02Z</time></trkpt><trkpt lat="44.88640210982281" lon="9.800944017010563"><ele>149.2</ele><time>2026-04-25T12:07:03Z</time></trkpt><trkpt lat="44.886496563739634" lon="9.80096819960194"><ele>149.0</ele><time>2026-04-25T12:07:04Z</time></trkpt><trkpt lat="44.88659136838302" lon="9.80099024962499"><ele>148.8</ele><time>2026-04-25T12:07:05Z</time></trkpt><trkpt lat="44.88668464461369" lon="9.801014679306727"><ele>148.60000000000002</ele><time>2026-04-25T12:07:06Z</time></trkpt><trkpt lat="44.8867788043503" lon="9.801033446045787"><ele>148.4</ele><time>2026-04-25T12:07:07Z</time></trkpt><trkpt lat="44.886872120159666" lon="9.801056476092356"><ele>148.20000000000002</ele><time>2026-04-25T12:07:08Z</time></trkpt><trkpt lat="44.8869667521413" lon="9.801080723328948"><ele>148.0</ele><time>2026-04-25T12:07:09Z</time></trkpt><trkpt lat="44.88705977918274" lon="9.801106549223997"><ele>148.0</ele><time>2026-04-25T12:07:10Z</time></trkpt><trkpt lat="44.88715442932089" lon="9.801127110395148"><ele>148.0</ele><time>2026-04-25T12:07:11Z</time></trkpt><trkpt lat="44.887247016442565" lon="9.801151993580648"><ele>148.0</ele><time>2026-04-25T12:07:12Z</time></trkpt><trkpt lat="44.88733993506437" lon="9.801175950668139"><ele>148.0</ele><time>2026-04-25T12:07:13Z</time></trkpt><trkpt lat="44.88743118746728" lon="9.801198838641254"><ele>148.0</ele><time>2026-04-25T12:07:14Z</time></trkpt><trkpt lat="44.887524262476305" lon="9.801222186177174"><ele>147.8</ele><time>2026-04-25T12:07:15Z</time></trkpt><trkpt lat="44.88761400199238" lon="9.801246163088976"><ele>147.60000000000002</ele><time>2026-04-25T12:07:15.999Z</time></trkpt><trkpt lat="44.88770579572573" lon="9.801270451443445"><ele>147.39999999999998</ele><time>2026-04-25T12:07:16.999Z</time></trkpt><trkpt lat="44.887797672163686" lon="9.801293372973818"><ele>147.2</ele><time>2026-04-25T12:07:17.999Z</time></trkpt><trkpt lat="44.88788981808607" lon="9.801313689500972"><ele>147.0</ele><time>2026-04-25T12:07:18.999Z</time></trkpt><trkpt lat="44.88798077307642" lon="9.801338806783384"><ele>147.0</ele><time>2026-04-25T12:07:19.999Z</time></trkpt><trkpt lat="44.8880742021469" lon="9.801361359614294"><ele>147.0</ele><time>2026-04-25T12:07:20.999Z</time></trkpt><trkpt lat="44.888167263083844" lon="9.801382007465545"><ele>147.0</ele><time>2026-04-25T12:07:21.999Z</time></trkpt><trkpt lat="44.88826007703094" lon="9.801402930630886"><ele>147.0</ele><time>2026-04-25T12:07:22.999Z</time></trkpt><trkpt lat="44.888352606665194" lon="9.801427602853797"><ele>147.0</ele><time>2026-04-25T12:07:23.999Z</time></trkpt><trkpt lat="44.88844401440511" lon="9.801451887851387"><ele>147.0</ele><time>2026-04-25T12:07:24.999Z</time></trkpt><trkpt lat="44.88853654459448" lon="9.80147932313293"><ele>147.0</ele><time>2026-04-25T12:07:25.999Z</time></trkpt><trkpt lat="44.88862807880624" lon="9.801506146359355"><ele>147.0</ele><time>2026-04-25T12:07:26.999Z</time></trkpt><trkpt lat="44.888718540456686" lon="9.801533848998275"><ele>147.0</ele><time>2026-04-25T12:07:27.999Z</time></trkpt><trkpt lat="44.888810781236444" lon="9.801566073775097"><ele>147.0</ele><time>2026-04-25T12:07:28.999Z</time></trkpt><trkpt lat="44.88890154718244" lon="9.801596001545427"><ele>147.0</ele><time>2026-04-25T12:07:29.999Z</time></trkpt><trkpt lat="44.888991423765944" lon="9.801629878138142"><ele>147.0</ele><time>2026-04-25T12:07:30.999Z</time></trkpt><trkpt lat="44.889082326586184" lon="9.801665339152692"><ele>147.0</ele><time>2026-04-25T12:07:31.999Z</time></trkpt><trkpt lat="44.889171640415384" lon="9.801698831021909"><ele>147.0</ele><time>2026-04-25T12:07:32.999Z</time></trkpt><trkpt lat="44.889262749883564" lon="9.801733281818633"><ele>147.0</ele><time>2026-04-25T12:07:33.999Z</time></trkpt><trkpt lat="44.88935297198447" lon="9.80176690428584"><ele>146.6</ele><time>2026-04-25T12:07:34.999Z</time></trkpt><trkpt lat="44.889443536775744" lon="9.801799255649366"><ele>146.2</ele><time>2026-04-25T12:07:35.999Z</time></trkpt><trkpt lat="44.88953565018572" lon="9.801829638053631"><ele>145.8</ele><time>2026-04-25T12:07:36.999Z</time></trkpt><trkpt lat="44.88962710485888" lon="9.8018590755611"><ele>145.4</ele><time>2026-04-25T12:07:37.999Z</time></trkpt><trkpt lat="44.889719185593876" lon="9.801890645209426"><ele>145.0</ele><time>2026-04-25T12:07:38.999Z</time></trkpt><trkpt lat="44.88981332074068" lon="9.801921781695105"><ele>144.4</ele><time>2026-04-25T12:07:39.999Z</time></trkpt><trkpt lat="44.889907436740685" lon="9.801955673632575"><ele>143.8</ele><time>2026-04-25T12:07:40.999Z</time></trkpt><trkpt lat="44.89000179415323" lon="9.801990444640735"><ele>143.2</ele><time>2026-04-25T12:07:41.999Z</time></trkpt><trkpt lat="44.89009914485896" lon="9.802023523211"><ele>142.6</ele><time>2026-04-25T12:07:42.999Z</time></trkpt><trkpt lat="44.8901937231367" lon="9.802054673314323"><ele>142.0</ele><time>2026-04-25T12:07:43.999Z</time></trkpt><trkpt lat="44.89028584781599" lon="9.802087656092075"><ele>141.6</ele><time>2026-04-25T12:07:44.999Z</time></trkpt><trkpt lat="44.89038254515641" lon="9.802120368239821"><ele>141.2</ele><time>2026-04-25T12:07:45.999Z</time></trkpt><trkpt lat="44.8904773693114" lon="9.802150343086746"><ele>140.8</ele><time>2026-04-25T12:07:46.999Z</time></trkpt><trkpt lat="44.89057392435043" lon="9.802180693574392"><ele>140.4</ele><time>2026-04-25T12:07:47.999Z</time></trkpt><trkpt lat="44.89066923589519" lon="9.802213921347931"><ele>140.0</ele><time>2026-04-25T12:07:48.999Z</time></trkpt><trkpt lat="44.890765051915125" lon="9.802249251037436"><ele>140.0</ele><time>2026-04-25T12:07:49.999Z</time></trkpt><trkpt lat="44.89086008441228" lon="9.802281920563463"><ele>140.0</ele><time>2026-04-25T12:07:50.999Z</time></trkpt><trkpt lat="44.890953819454054" lon="9.802317126150804"><ele>140.0</ele><time>2026-04-25T12:07:51.999Z</time></trkpt><trkpt lat="44.89104996684029" lon="9.802352279852398"><ele>140.0</ele><time>2026-04-25T12:07:52.999Z</time></trkpt><trkpt lat="44.89114441086485" lon="9.802383577312586"><ele>140.0</ele><time>2026-04-25T12:07:53.999Z</time></trkpt><trkpt lat="44.89124193388792" lon="9.802412395306476"><ele>139.8</ele><time>2026-04-25T12:07:54.999Z</time></trkpt><trkpt lat="44.89133640548627" lon="9.802447852428932"><ele>139.6</ele><time>2026-04-25T12:07:55.999Z</time></trkpt><trkpt lat="44.8914325205579" lon="9.80248243553468"><ele>139.4</ele><time>2026-04-25T12:07:56.999Z</time></trkpt><trkpt lat="44.89152870084335" lon="9.802514415817331"><ele>139.2</ele><time>2026-04-25T12:07:57.999Z</time></trkpt><trkpt lat="44.891623699456694" lon="9.802547567896038"><ele>139.0</ele><time>2026-04-25T12:07:58.999Z</time></trkpt><trkpt lat="44.891719595249754" lon="9.802582403919402"><ele>139.0</ele><time>2026-04-25T12:07:59.999Z</time></trkpt><trkpt lat="44.891814415483466" lon="9.802615409718443"><ele>139.0</ele><time>2026-04-25T12:08:00.999Z</time></trkpt><trkpt lat="44.89190872950724" lon="9.802647356600268"><ele>139.0</ele><time>2026-04-25T12:08:01.999Z</time></trkpt><trkpt lat="44.89200513471021" lon="9.80268354386062"><ele>139.0</ele><time>2026-04-25T12:08:02.999Z</time></trkpt><trkpt lat="44.89209720696574" lon="9.802724478698703"><ele>139.0</ele><time>2026-04-25T12:08:03.999Z</time></trkpt><trkpt lat="44.89218779407208" lon="9.80277135670331"><ele>139.0</ele><time>2026-04-25T12:08:04.999Z</time></trkpt><trkpt lat="44.89227570960007" lon="9.802830455969373"><ele>139.0</ele><time>2026-04-25T12:08:05.999Z</time></trkpt><trkpt lat="44.89235840275249" lon="9.802898190033662"><ele>139.0</ele><time>2026-04-25T12:08:06.999Z</time></trkpt><trkpt lat="44.8924386417464" lon="9.802970054728803"><ele>139.0</ele><time>2026-04-25T12:08:07.999Z</time></trkpt><trkpt lat="44.89251659581712" lon="9.80304568928269"><ele>139.0</ele><time>2026-04-25T12:08:08.999Z</time></trkpt><trkpt lat="44.89259761981972" lon="9.803120938998985"><ele>138.8</ele><time>2026-04-25T12:08:09.999Z</time></trkpt><trkpt lat="44.892676456702596" lon="9.803195101817867"><ele>138.60000000000002</ele><time>2026-04-25T12:08:10.999Z</time></trkpt><trkpt lat="44.89274820996035" lon="9.80328224366465"><ele>138.4</ele><time>2026-04-25T12:08:11.999Z</time></trkpt><trkpt lat="44.892821583866166" lon="9.803370695810772"><ele>138.20000000000002</ele><time>2026-04-25T12:08:12.999Z</time></trkpt><trkpt lat="44.8928947291216" lon="9.803456623433126"><ele>138.0</ele><time>2026-04-25T12:08:13.999Z</time></trkpt><trkpt lat="44.89296684184569" lon="9.803544860997237"><ele>138.0</ele><time>2026-04-25T12:08:14.999Z</time></trkpt><trkpt lat="44.893038914790274" lon="9.803630728846105"><ele>138.0</ele><time>2026-04-25T12:08:15.998Z</time></trkpt><trkpt lat="44.893113895599846" lon="9.80371695807304"><ele>138.0</ele><time>2026-04-25T12:08:16.998Z</time></trkpt><trkpt lat="44.893186751396925" lon="9.803800773327984"><ele>138.0</ele><time>2026-04-25T12:08:17.998Z</time></trkpt><trkpt lat="44.89325979167193" lon="9.803885624469046"><ele>138.0</ele><time>2026-04-25T12:08:18.998Z</time></trkpt><trkpt lat="44.89333321272079" lon="9.80396907484633"><ele>138.0</ele><time>2026-04-25T12:08:19.998Z</time></trkpt><trkpt lat="44.893406554579094" lon="9.80405325682871"><ele>138.0</ele><time>2026-04-25T12:08:20.998Z</time></trkpt><trkpt lat="44.893481296284016" lon="9.804135919180336"><ele>138.0</ele><time>2026-04-25T12:08:21.998Z</time></trkpt><trkpt lat="44.89355664289769" lon="9.804217936979867"><ele>138.0</ele><time>2026-04-25T12:08:22.998Z</time></trkpt><trkpt lat="44.89362926216111" lon="9.80430160019864"><ele>138.0</ele><time>2026-04-25T12:08:23.998Z</time></trkpt><trkpt lat="44.89370177931521" lon="9.804387185541184"><ele>137.83333333333334</ele><time>2026-04-25T12:08:24.998Z</time></trkpt><trkpt lat="44.893770058170894" lon="9.804474171066508"><ele>137.66666666666666</ele><time>2026-04-25T12:08:25.998Z</time></trkpt><trkpt lat="44.89383819457586" lon="9.804559243634824"><ele>137.5</ele><time>2026-04-25T12:08:26.998Z</time></trkpt><trkpt lat="44.89390803270691" lon="9.804642302915445"><ele>137.33333333333331</ele><time>2026-04-25T12:08:28Z</time></trkpt><trkpt lat="44.893976292044805" lon="9.804717044112786"><ele>137.16666666666666</ele><time>2026-04-25T12:08:29Z</time></trkpt><trkpt lat="44.89404378396201" lon="9.804796545812199"><ele>137.0</ele><time>2026-04-25T12:08:30Z</time></trkpt><trkpt lat="44.89411327280709" lon="9.804876523057995"><ele>137.0</ele><time>2026-04-25T12:08:31Z</time></trkpt><trkpt lat="44.89417911964701" lon="9.804952446878438"><ele>137.0</ele><time>2026-04-25T12:08:32Z</time></trkpt><trkpt lat="44.894232878084324" lon="9.805051817483147"><ele>137.0</ele><time>2026-04-25T12:08:33Z</time></trkpt><trkpt lat="44.89425826354408" lon="9.805170377250505"><ele>137.0</ele><time>2026-04-25T12:08:34Z</time></trkpt><trkpt lat="44.894247150266885" lon="9.805292640818596"><ele>137.0</ele><time>2026-04-25T12:08:35Z</time></trkpt><trkpt lat="44.89420669849858" lon="9.805403414396093"><ele>137.0</ele><time>2026-04-25T12:08:36Z</time></trkpt><trkpt lat="44.89416730790559" lon="9.805510383350347"><ele>137.33333333333331</ele><time>2026-04-25T12:08:37Z</time></trkpt><trkpt lat="44.894133887763466" lon="9.8056268388648"><ele>137.66666666666666</ele><time>2026-04-25T12:08:38Z</time></trkpt><trkpt lat="44.89410047713832" lon="9.805745904630893"><ele>138.0</ele><time>2026-04-25T12:08:39Z</time></trkpt><trkpt lat="44.894066839469886" lon="9.805864077571576"><ele>138.33333333333334</ele><time>2026-04-25T12:08:40Z</time></trkpt><trkpt lat="44.89403409075869" lon="9.805978708169409"><ele>138.66666666666669</ele><time>2026-04-25T12:08:41Z</time></trkpt><trkpt lat="44.89400338074771" lon="9.806094072426973"><ele>139.0</ele><time>2026-04-25T12:08:42Z</time></trkpt><trkpt lat="44.89397166377496" lon="9.806209179878369"><ele>138.2</ele><time>2026-04-25T12:08:43Z</time></trkpt><trkpt lat="44.893938966609504" lon="9.806323986937468"><ele>137.4</ele><time>2026-04-25T12:08:44Z</time></trkpt><trkpt lat="44.89391250884793" lon="9.8064407572924"><ele>136.6</ele><time>2026-04-25T12:08:45Z</time></trkpt><trkpt lat="44.89392672277874" lon="9.806563162220465"><ele>135.8</ele><time>2026-04-25T12:08:46Z</time></trkpt><trkpt lat="44.89399143044358" lon="9.806662628478579"><ele>135.0</ele><time>2026-04-25T12:08:47Z</time></trkpt><trkpt lat="44.894078375312" lon="9.806713868747478"><ele>135.0</ele><time>2026-04-25T12:08:48Z</time></trkpt><trkpt lat="44.89416724573402" lon="9.806749945471738"><ele>135.0</ele><time>2026-04-25T12:08:49Z</time></trkpt><trkpt lat="44.89425225284249" lon="9.806786635641359"><ele>135.0</ele><time>2026-04-25T12:08:50Z</time></trkpt><trkpt lat="44.894334315159824" lon="9.80682911609696"><ele>135.0</ele><time>2026-04-25T12:08:51Z</time></trkpt><trkpt lat="44.89442011595265" lon="9.8068755876135"><ele>135.0</ele><time>2026-04-25T12:08:52Z</time></trkpt><trkpt lat="44.89450173413837" lon="9.806922737988632"><ele>135.0</ele><time>2026-04-25T12:08:53Z</time></trkpt><trkpt lat="44.894588319953996" lon="9.806966408623616"><ele>134.6</ele><time>2026-04-25T12:08:54Z</time></trkpt><trkpt lat="44.894673411620204" lon="9.807009042936814"><ele>134.2</ele><time>2026-04-25T12:08:55Z</time></trkpt><trkpt lat="44.89475847264995" lon="9.80705494823297"><ele>133.8</ele><time>2026-04-25T12:08:56Z</time></trkpt><trkpt lat="44.89484386305485" lon="9.807099145372382"><ele>133.4</ele><time>2026-04-25T12:08:57Z</time></trkpt><trkpt lat="44.89493088472825" lon="9.80714624831453"><ele>133.0</ele><time>2026-04-25T12:08:58Z</time></trkpt><trkpt lat="44.89501538255298" lon="9.807193704110992"><ele>132.20000000000002</ele><time>2026-04-25T12:08:59Z</time></trkpt><trkpt lat="44.89510356219261" lon="9.807239216797266"><ele>131.4</ele><time>2026-04-25T12:09:00Z</time></trkpt><trkpt lat="44.89518719368043" lon="9.807288645796287"><ele>130.60000000000002</ele><time>2026-04-25T12:09:01Z</time></trkpt><trkpt lat="44.89527285823266" lon="9.807336675484896"><ele>129.8</ele><time>2026-04-25T12:09:02Z</time></trkpt><trkpt lat="44.89535826025785" lon="9.807384433213029"><ele>129.0</ele><time>2026-04-25T12:09:03Z</time></trkpt><trkpt lat="44.895445148106866" lon="9.807429166442091"><ele>129.0</ele><time>2026-04-25T12:09:04Z</time></trkpt><trkpt lat="44.89553392638015" lon="9.807477354432663"><ele>129.0</ele><time>2026-04-25T12:09:05Z</time></trkpt><trkpt lat="44.895623842124486" lon="9.807522826916967"><ele>129.0</ele><time>2026-04-25T12:09:06Z</time></trkpt><trkpt lat="44.895711149327376" lon="9.807571163581336"><ele>129.0</ele><time>2026-04-25T12:09:07Z</time></trkpt><trkpt lat="44.895797415555904" lon="9.80761902054672"><ele>129.0</ele><time>2026-04-25T12:09:08Z</time></trkpt><trkpt lat="44.895886611846834" lon="9.807665639627013"><ele>128.6</ele><time>2026-04-25T12:09:09Z</time></trkpt><trkpt lat="44.89597634990571" lon="9.807713436113392"><ele>128.2</ele><time>2026-04-25T12:09:10Z</time></trkpt><trkpt lat="44.89606559137733" lon="9.807759157271523"><ele>127.79999999999998</ele><time>2026-04-25T12:09:11Z</time></trkpt><trkpt lat="44.89615584474056" lon="9.807809151197121"><ele>127.39999999999999</ele><time>2026-04-25T12:09:12Z</time></trkpt><trkpt lat="44.896244375104494" lon="9.807855745088911"><ele>127.0</ele><time>2026-04-25T12:09:13Z</time></trkpt><trkpt lat="44.89633321751839" lon="9.807904428780416"><ele>127.0</ele><time>2026-04-25T12:09:14Z</time></trkpt><trkpt lat="44.896423162896546" lon="9.807950527293638"><ele>126.99999999999999</ele><time>2026-04-25T12:09:15Z</time></trkpt><trkpt lat="44.89651424097554" lon="9.80799732912847"><ele>126.99999999999999</ele><time>2026-04-25T12:09:16Z</time></trkpt><trkpt lat="44.89660723494199" lon="9.808039422076508"><ele>127.0</ele><time>2026-04-25T12:09:17Z</time></trkpt><trkpt lat="44.89670276718242" lon="9.808085495272724"><ele>127.0</ele><time>2026-04-25T12:09:18Z</time></trkpt><trkpt lat="44.8967959322446" lon="9.80813744881795"><ele>127.0</ele><time>2026-04-25T12:09:19Z</time></trkpt><trkpt lat="44.896889722287376" lon="9.808189977221472"><ele>126.99999999999999</ele><time>2026-04-25T12:09:20Z</time></trkpt><trkpt lat="44.89698221417666" lon="9.808242126737667"><ele>126.99999999999999</ele><time>2026-04-25T12:09:21Z</time></trkpt><trkpt lat="44.89707436876345" lon="9.808293179465789"><ele>127.0</ele><time>2026-04-25T12:09:22Z</time></trkpt><trkpt lat="44.8971676327327" lon="9.808346577295913"><ele>127.0</ele><time>2026-04-25T12:09:22.999Z</time></trkpt><trkpt lat="44.897260847967374" lon="9.808393470055217"><ele>127.0</ele><time>2026-04-25T12:09:23.999Z</time></trkpt><trkpt lat="44.897355646188494" lon="9.808442504009347"><ele>126.99999999999999</ele><time>2026-04-25T12:09:24.999Z</time></trkpt><trkpt lat="44.8974478717762" lon="9.808493379613799"><ele>126.99999999999999</ele><time>2026-04-25T12:09:25.999Z</time></trkpt><trkpt lat="44.89753999496566" lon="9.808543084952428"><ele>127.0</ele><time>2026-04-25T12:09:26.999Z</time></trkpt><trkpt lat="44.89763145678879" lon="9.8085915040133"><ele>127.0</ele><time>2026-04-25T12:09:27.999Z</time></trkpt><trkpt lat="44.89772234682439" lon="9.808639622571299"><ele>126.39999999999999</ele><time>2026-04-25T12:09:28.999Z</time></trkpt><trkpt lat="44.897811816922285" lon="9.808691899529292"><ele>125.79999999999998</ele><time>2026-04-25T12:09:29.999Z</time></trkpt><trkpt lat="44.8979020682736" lon="9.808743155227878"><ele>125.2</ele><time>2026-04-25T12:09:30.999Z</time></trkpt><trkpt lat="44.897992171407466" lon="9.808797233296614"><ele>124.6</ele><time>2026-04-25T12:09:31.999Z</time></trkpt><trkpt lat="44.898078882451884" lon="9.80885713157972"><ele>124.0</ele><time>2026-04-25T12:09:32.999Z</time></trkpt><trkpt lat="44.89816703010615" lon="9.808916357268007"><ele>124.0</ele><time>2026-04-25T12:09:33.999Z</time></trkpt><trkpt lat="44.898253250204945" lon="9.808981367420127"><ele>124.0</ele><time>2026-04-25T12:09:34.999Z</time></trkpt><trkpt lat="44.89833964122273" lon="9.809047659082534"><ele>124.0</ele><time>2026-04-25T12:09:35.999Z</time></trkpt><trkpt lat="44.89842470635518" lon="9.809116251552219"><ele>124.0</ele><time>2026-04-25T12:09:36.999Z</time></trkpt><trkpt lat="44.89850654100374" lon="9.809189813356236"><ele>124.0</ele><time>2026-04-25T12:09:37.999Z</time></trkpt><trkpt lat="44.898586809730055" lon="9.809269447243416"><ele>124.2</ele><time>2026-04-25T12:09:38.999Z</time></trkpt><trkpt lat="44.8986635963574" lon="9.809352146144551"><ele>124.4</ele><time>2026-04-25T12:09:39.999Z</time></trkpt><trkpt lat="44.89874255422958" lon="9.809437488977556"><ele>124.6</ele><time>2026-04-25T12:09:40.999Z</time></trkpt><trkpt lat="44.89881969068282" lon="9.809521223393299"><ele>124.8</ele><time>2026-04-25T12:09:41.999Z</time></trkpt><trkpt lat="44.89889830379179" lon="9.80960738951301"><ele>125.0</ele><time>2026-04-25T12:09:42.999Z</time></trkpt><trkpt lat="44.89897632000637" lon="9.809695137013678"><ele>125.0</ele><time>2026-04-25T12:09:43.999Z</time></trkpt><trkpt lat="44.89905552528628" lon="9.809783386912008"><ele>125.0</ele><time>2026-04-25T12:09:44.999Z</time></trkpt><trkpt lat="44.89913479709842" lon="9.80986884315012"><ele>125.0</ele><time>2026-04-25T12:09:45.999Z</time></trkpt><trkpt lat="44.89921514439411" lon="9.809953227079411"><ele>125.0</ele><time>2026-04-25T12:09:46.999Z</time></trkpt><trkpt lat="44.899292030544856" lon="9.810041022993875"><ele>125.0</ele><time>2026-04-25T12:09:47.999Z</time></trkpt><trkpt lat="44.89937041997767" lon="9.81012834412708"><ele>124.8</ele><time>2026-04-25T12:09:48.999Z</time></trkpt><trkpt lat="44.89945056556518" lon="9.810212548086549"><ele>124.6</ele><time>2026-04-25T12:09:49.999Z</time></trkpt><trkpt lat="44.89952904721486" lon="9.810301016638325"><ele>124.4</ele><time>2026-04-25T12:09:50.999Z</time></trkpt><trkpt lat="44.899605555129384" lon="9.81038870312186"><ele>124.2</ele><time>2026-04-25T12:09:51.999Z</time></trkpt><trkpt lat="44.89967421774177" lon="9.810485410205795"><ele>124.0</ele><time>2026-04-25T12:09:52.999Z</time></trkpt><trkpt lat="44.899738289292856" lon="9.81059119020948"><ele>124.0</ele><time>2026-04-25T12:09:53.999Z</time></trkpt><trkpt lat="44.899803401229335" lon="9.810696364801897"><ele>124.0</ele><time>2026-04-25T12:09:54.999Z</time></trkpt><trkpt lat="44.899869489304336" lon="9.810798668714211"><ele>124.0</ele><time>2026-04-25T12:09:55.999Z</time></trkpt><trkpt lat="44.89993652151573" lon="9.810898605927951"><ele>124.0</ele><time>2026-04-25T12:09:56.999Z</time></trkpt><trkpt lat="44.90000727568461" lon="9.810994115809775"><ele>124.0</ele><time>2026-04-25T12:09:57.999Z</time></trkpt><trkpt lat="44.90008036980931" lon="9.811088937366542"><ele>123.6</ele><time>2026-04-25T12:09:58.999Z</time></trkpt><trkpt lat="44.90015215009306" lon="9.811180510080622"><ele>123.2</ele><time>2026-04-25T12:09:59.999Z</time></trkpt><trkpt lat="44.90022778909968" lon="9.8112691348473"><ele>122.79999999999998</ele><time>2026-04-25T12:10:00.999Z</time></trkpt><trkpt lat="44.90030884756265" lon="9.811350578430915"><ele>122.39999999999999</ele><time>2026-04-25T12:10:01.999Z</time></trkpt><trkpt lat="44.900390030824994" lon="9.811421762080544"><ele>122.0</ele><time>2026-04-25T12:10:02.999Z</time></trkpt><trkpt lat="44.900475024766514" lon="9.811486682435524"><ele>122.0</ele><time>2026-04-25T12:10:03.999Z</time></trkpt><trkpt lat="44.90056097202253" lon="9.81155211647389"><ele>121.99999999999999</ele><time>2026-04-25T12:10:04.999Z</time></trkpt><trkpt lat="44.9006474960855" lon="9.811611132908835"><ele>121.99999999999999</ele><time>2026-04-25T12:10:05.999Z</time></trkpt><trkpt lat="44.90074012174467" lon="9.811668829864566"><ele>122.0</ele><time>2026-04-25T12:10:06.999Z</time></trkpt><trkpt lat="44.900830436991576" lon="9.81173504468488"><ele>122.0</ele><time>2026-04-25T12:10:07.999Z</time></trkpt><trkpt lat="44.90092244525422" lon="9.811798693509388"><ele>121.6</ele><time>2026-04-25T12:10:08.999Z</time></trkpt><trkpt lat="44.90101772736509" lon="9.811855583910722"><ele>121.19999999999999</ele><time>2026-04-25T12:10:09.999Z</time></trkpt><trkpt lat="44.901112258394605" lon="9.811909408249948"><ele>120.8</ele><time>2026-04-25T12:10:10.999Z</time></trkpt><trkpt lat="44.90120677902867" lon="9.811960718667804"><ele>120.4</ele><time>2026-04-25T12:10:11.999Z</time></trkpt><trkpt lat="44.90130182804749" lon="9.812011092572023"><ele>120.0</ele><time>2026-04-25T12:10:12.999Z</time></trkpt><trkpt lat="44.901395210100056" lon="9.812057400626761"><ele>120.0</ele><time>2026-04-25T12:10:13.999Z</time></trkpt><trkpt lat="44.90149055209617" lon="9.812105785189578"><ele>120.0</ele><time>2026-04-25T12:10:14.999Z</time></trkpt><trkpt lat="44.90158401333056" lon="9.81214731087702"><ele>120.0</ele><time>2026-04-25T12:10:15.999Z</time></trkpt><trkpt lat="44.901680055279385" lon="9.812185502833294"><ele>120.0</ele><time>2026-04-25T12:10:16.999Z</time></trkpt><trkpt lat="44.90177734347471" lon="9.812219897764404"><ele>120.0</ele><time>2026-04-25T12:10:17.999Z</time></trkpt><trkpt lat="44.90187619360246" lon="9.812249699984408"><ele>119.8</ele><time>2026-04-25T12:10:18.999Z</time></trkpt><trkpt lat="44.90197475852274" lon="9.812277753983034"><ele>119.6</ele><time>2026-04-25T12:10:19.999Z</time></trkpt><trkpt lat="44.902072262947684" lon="9.812308798509074"><ele>119.4</ele><time>2026-04-25T12:10:20.999Z</time></trkpt><trkpt lat="44.90216843704502" lon="9.812340942425985"><ele>119.2</ele><time>2026-04-25T12:10:21.998Z</time></trkpt><trkpt lat="44.90226379052641" lon="9.81236916858644"><ele>119.0</ele><time>2026-04-25T12:10:22.998Z</time></trkpt><trkpt lat="44.90236010389359" lon="9.81239280232248"><ele>119.0</ele><time>2026-04-25T12:10:23.998Z</time></trkpt><trkpt lat="44.90245718011306" lon="9.812413822781936"><ele>119.0</ele><time>2026-04-25T12:10:24.998Z</time></trkpt><trkpt lat="44.90255218592834" lon="9.812437246823729"><ele>119.0</ele><time>2026-04-25T12:10:25.998Z</time></trkpt><trkpt lat="44.90264683410029" lon="9.812450263319263"><ele>119.0</ele><time>2026-04-25T12:10:26.998Z</time></trkpt><trkpt lat="44.902744692530156" lon="9.812462454551993"><ele>119.0</ele><time>2026-04-25T12:10:27.998Z</time></trkpt><trkpt lat="44.902841759750046" lon="9.812471292774635"><ele>119.2</ele><time>2026-04-25T12:10:28.998Z</time></trkpt><trkpt lat="44.902940249557396" lon="9.81247472553056"><ele>119.4</ele><time>2026-04-25T12:10:29.998Z</time></trkpt><trkpt lat="44.9030411763744" lon="9.812480791255926"><ele>119.6</ele><time>2026-04-25T12:10:30.998Z</time></trkpt><trkpt lat="44.90314143721777" lon="9.812494691836205"><ele>119.8</ele><time>2026-04-25T12:10:31.998Z</time></trkpt><trkpt lat="44.903241171049075" lon="9.812516689528167"><ele>120.0</ele><time>2026-04-25T12:10:33Z</time></trkpt><trkpt lat="44.90334068788545" lon="9.812543357455402"><ele>120.0</ele><time>2026-04-25T12:10:34Z</time></trkpt><trkpt lat="44.90343883440942" lon="9.812583884805724"><ele>120.0</ele><time>2026-04-25T12:10:35Z</time></trkpt><trkpt lat="44.903534979429836" lon="9.812631736094241"><ele>120.0</ele><time>2026-04-25T12:10:36Z</time></trkpt><trkpt lat="44.903631535869565" lon="9.812676673870376"><ele>120.0</ele><time>2026-04-25T12:10:37Z</time></trkpt><trkpt lat="44.90372512039827" lon="9.812729958801025"><ele>120.0</ele><time>2026-04-25T12:10:38Z</time></trkpt><trkpt lat="44.903819317567525" lon="9.812778817882485"><ele>120.0</ele><time>2026-04-25T12:10:39Z</time></trkpt><trkpt lat="44.90391481013569" lon="9.812824038637032"><ele>120.0</ele><time>2026-04-25T12:10:40Z</time></trkpt><trkpt lat="44.9040080048053" lon="9.812869152476733"><ele>120.0</ele><time>2026-04-25T12:10:41Z</time></trkpt><trkpt lat="44.90410472315944" lon="9.812909421304505"><ele>120.0</ele><time>2026-04-25T12:10:42Z</time></trkpt><trkpt lat="44.90419741352463" lon="9.812959017353649"><ele>120.0</ele><time>2026-04-25T12:10:43Z</time></trkpt><trkpt lat="44.90429194276592" lon="9.813011550126685"><ele>119.8</ele><time>2026-04-25T12:10:44Z</time></trkpt><trkpt lat="44.904380479085994" lon="9.813067507948082"><ele>119.6</ele><time>2026-04-25T12:10:45Z</time></trkpt><trkpt lat="44.90446749290513" lon="9.813128739611583"><ele>119.4</ele><time>2026-04-25T12:10:46Z</time></trkpt><trkpt lat="44.904554704911696" lon="9.813185940590511"><ele>119.2</ele><time>2026-04-25T12:10:47Z</time></trkpt><trkpt lat="44.90464180146377" lon="9.813250300447743"><ele>119.0</ele><time>2026-04-25T12:10:48Z</time></trkpt><trkpt lat="44.904725825577046" lon="9.813315241185721"><ele>119.0</ele><time>2026-04-25T12:10:49Z</time></trkpt><trkpt lat="44.90480961838694" lon="9.813378142411592"><ele>119.0</ele><time>2026-04-25T12:10:50Z</time></trkpt><trkpt lat="44.904895679825934" lon="9.813447456322413"><ele>119.0</ele><time>2026-04-25T12:10:51Z</time></trkpt><trkpt lat="44.904975198662086" lon="9.81351293062666"><ele>119.0</ele><time>2026-04-25T12:10:52Z</time></trkpt><trkpt lat="44.90506011741404" lon="9.813575699472322"><ele>119.0</ele><time>2026-04-25T12:10:53Z</time></trkpt><trkpt lat="44.90514251427543" lon="9.813633119741704"><ele>118.2</ele><time>2026-04-25T12:10:54Z</time></trkpt><trkpt lat="44.90522818010031" lon="9.813694456249857"><ele>117.4</ele><time>2026-04-25T12:10:55Z</time></trkpt><trkpt lat="44.90531372355112" lon="9.813744621241426"><ele>116.6</ele><time>2026-04-25T12:10:56Z</time></trkpt><trkpt lat="44.90540356378677" lon="9.813792243806695"><ele>115.8</ele><time>2026-04-25T12:10:57Z</time></trkpt><trkpt lat="44.9054947320549" lon="9.813828777914862"><ele>115.0</ele><time>2026-04-25T12:10:58Z</time></trkpt><trkpt lat="44.90558776509596" lon="9.813864725495376"><ele>115.0</ele><time>2026-04-25T12:10:59Z</time></trkpt><trkpt lat="44.905678682876975" lon="9.81390244426378"><ele>115.0</ele><time>2026-04-25T12:11:00Z</time></trkpt><trkpt lat="44.90576954117513" lon="9.813938157862633"><ele>115.0</ele><time>2026-04-25T12:11:01Z</time></trkpt><trkpt lat="44.9058627415059" lon="9.813967001446418"><ele>115.0</ele><time>2026-04-25T12:11:02Z</time></trkpt><trkpt lat="44.90595312310827" lon="9.813994853003193"><ele>115.0</ele><time>2026-04-25T12:11:03Z</time></trkpt><trkpt lat="44.90604365804323" lon="9.814024347925603"><ele>115.0</ele><time>2026-04-25T12:11:04Z</time></trkpt><trkpt lat="44.90613012676721" lon="9.814067053467593"><ele>115.0</ele><time>2026-04-25T12:11:05Z</time></trkpt><trkpt lat="44.90621576076605" lon="9.814110840206244"><ele>115.0</ele><time>2026-04-25T12:11:06Z</time></trkpt><trkpt lat="44.90629653963998" lon="9.814161997554297"><ele>115.0</ele><time>2026-04-25T12:11:07Z</time></trkpt><trkpt lat="44.90638020372159" lon="9.814212141122336"><ele>115.0</ele><time>2026-04-25T12:11:08Z</time></trkpt><trkpt lat="44.90646249076892" lon="9.81426209240198"><ele>115.00000000000001</ele><time>2026-04-25T12:11:09Z</time></trkpt><trkpt lat="44.906544594911395" lon="9.814318150895854"><ele>115.0</ele><time>2026-04-25T12:11:10Z</time></trkpt><trkpt lat="44.90662823404448" lon="9.814364423781061"><ele>115.0</ele><time>2026-04-25T12:11:11Z</time></trkpt><trkpt lat="44.906709419533406" lon="9.814411027658972"><ele>115.0</ele><time>2026-04-25T12:11:12Z</time></trkpt><trkpt lat="44.90679409143333" lon="9.814455741158735"><ele>115.00000000000001</ele><time>2026-04-25T12:11:13Z</time></trkpt><trkpt lat="44.90687622279005" lon="9.814494798411179"><ele>115.0</ele><time>2026-04-25T12:11:14Z</time></trkpt><trkpt lat="44.90696026499878" lon="9.814532342525688"><ele>115.0</ele><time>2026-04-25T12:11:15Z</time></trkpt><trkpt lat="44.907047739229505" lon="9.814559852661505"><ele>115.0</ele><time>2026-04-25T12:11:16Z</time></trkpt><trkpt lat="44.907138742134904" lon="9.814580646674989"><ele>115.0</ele><time>2026-04-25T12:11:17Z</time></trkpt><trkpt lat="44.90722828989" lon="9.814599783620315"><ele>115.0</ele><time>2026-04-25T12:11:18Z</time></trkpt><trkpt lat="44.907316877904826" lon="9.814614141359844"><ele>115.0</ele><time>2026-04-25T12:11:19Z</time></trkpt><trkpt lat="44.90740470308675" lon="9.81463598339514"><ele>115.00000000000001</ele><time>2026-04-25T12:11:20Z</time></trkpt><trkpt lat="44.90748876336177" lon="9.81466649432033"><ele>115.0</ele><time>2026-04-25T12:11:21Z</time></trkpt><trkpt lat="44.90757023261887" lon="9.814711300134483"><ele>115.0</ele><time>2026-04-25T12:11:22Z</time></trkpt><trkpt lat="44.9076425713416" lon="9.81476646656742"><ele>115.0</ele><time>2026-04-25T12:11:23Z</time></trkpt><trkpt lat="44.907713598240825" lon="9.81481800426009"><ele>115.00000000000001</ele><time>2026-04-25T12:11:24Z</time></trkpt><trkpt lat="44.90778328313912" lon="9.814866813131948"><ele>115.0</ele><time>2026-04-25T12:11:25Z</time></trkpt><trkpt lat="44.90785282228971" lon="9.814915451239175"><ele>114.99999999999999</ele><time>2026-04-25T12:11:26Z</time></trkpt><trkpt lat="44.90792265136066" lon="9.814962887816602"><ele>115.0</ele><time>2026-04-25T12:11:27Z</time></trkpt><trkpt lat="44.90798907876111" lon="9.815013403774817"><ele>114.99999999999999</ele><time>2026-04-25T12:11:28Z</time></trkpt><trkpt lat="44.90805128147022" lon="9.815068394956628"><ele>114.99999999999999</ele><time>2026-04-25T12:11:28.999Z</time></trkpt><trkpt lat="44.90811206665588" lon="9.815116583964445"><ele>115.0</ele><time>2026-04-25T12:11:29.999Z</time></trkpt><trkpt lat="44.90816914007786" lon="9.815165470680641"><ele>114.99999999999999</ele><time>2026-04-25T12:11:30.999Z</time></trkpt><trkpt lat="44.908238244831615" lon="9.815206644057596"><ele>114.99999999999999</ele><time>2026-04-25T12:11:32.999Z</time></trkpt><trkpt lat="44.90824972203671" lon="9.81541035836096"><ele>115.2</ele><time>2026-04-25T12:11:37.999Z</time></trkpt><trkpt lat="44.90823018333155" lon="9.815525193482841"><ele>115.4</ele><time>2026-04-25T12:11:39.999Z</time></trkpt><trkpt lat="44.908194877026595" lon="9.81566539655952"><ele>115.6</ele><time>2026-04-25T12:11:41.999Z</time></trkpt><trkpt lat="44.90817471563306" lon="9.815814312864925"><ele>115.8</ele><time>2026-04-25T12:11:43.999Z</time></trkpt><trkpt lat="44.90813372043135" lon="9.815978201944636"><ele>116.0</ele><time>2026-04-25T12:11:45.999Z</time></trkpt><trkpt lat="44.90812029257458" lon="9.816067787486965"><ele>115.4</ele><time>2026-04-25T12:11:46.999Z</time></trkpt><trkpt lat="44.908112134009855" lon="9.816246170528768"><ele>114.8</ele><time>2026-04-25T12:11:48.999Z</time></trkpt><trkpt lat="44.9080966550666" lon="9.816430659293637"><ele>114.20000000000002</ele><time>2026-04-25T12:11:50.999Z</time></trkpt><trkpt lat="44.9080864631973" lon="9.816521128928494"><ele>113.60000000000001</ele><time>2026-04-25T12:11:51.999Z</time></trkpt><trkpt lat="44.908074482647336" lon="9.81661543284025"><ele>113.0</ele><time>2026-04-25T12:11:52.999Z</time></trkpt><trkpt lat="44.90806515377861" lon="9.816711163282744"><ele>113.0</ele><time>2026-04-25T12:11:53.999Z</time></trkpt><trkpt lat="44.90805950098719" lon="9.816809393397358"><ele>113.0</ele><time>2026-04-25T12:11:54.999Z</time></trkpt><trkpt lat="44.908048531693154" lon="9.816907156700166"><ele>113.0</ele><time>2026-04-25T12:11:55.999Z</time></trkpt><trkpt lat="44.90803381821136" lon="9.817006829000617"><ele>113.0</ele><time>2026-04-25T12:11:56.999Z</time></trkpt><trkpt lat="44.90801929959708" lon="9.817112235245263"><ele>113.0</ele><time>2026-04-25T12:11:57.999Z</time></trkpt><trkpt lat="44.9079988207705" lon="9.81720971457171"><ele>113.0</ele><time>2026-04-25T12:11:58.999Z</time></trkpt><trkpt lat="44.907969983497566" lon="9.817310624669082"><ele>113.0</ele><time>2026-04-25T12:11:59.999Z</time></trkpt><trkpt lat="44.90794551200894" lon="9.817409215334072"><ele>112.83333333333333</ele><time>2026-04-25T12:12:00.999Z</time></trkpt><trkpt lat="44.90791768278508" lon="9.817510314794221"><ele>112.66666666666666</ele><time>2026-04-25T12:12:01.999Z</time></trkpt><trkpt lat="44.90788598034538" lon="9.817612586182854"><ele>112.5</ele><time>2026-04-25T12:12:02.999Z</time></trkpt><trkpt lat="44.907855149776964" lon="9.81771484286342"><ele>112.33333333333334</ele><time>2026-04-25T12:12:03.999Z</time></trkpt><trkpt lat="44.90782302540108" lon="9.817821943816595"><ele>112.16666666666667</ele><time>2026-04-25T12:12:04.999Z</time></trkpt><trkpt lat="44.90779095021312" lon="9.817928737742967"><ele>112.0</ele><time>2026-04-25T12:12:05.999Z</time></trkpt><trkpt lat="44.90775864108134" lon="9.818036898772114"><ele>112.00000000000001</ele><time>2026-04-25T12:12:06.999Z</time></trkpt><trkpt lat="44.90772707988938" lon="9.818146704897426"><ele>112.0</ele><time>2026-04-25T12:12:07.999Z</time></trkpt><trkpt lat="44.90769313520292" lon="9.818255268126938"><ele>112.0</ele><time>2026-04-25T12:12:08.999Z</time></trkpt><trkpt lat="44.90766146808343" lon="9.818366269619784"><ele>112.0</ele><time>2026-04-25T12:12:09.999Z</time></trkpt><trkpt lat="44.90762964148775" lon="9.818477748344879"><ele>112.00000000000001</ele><time>2026-04-25T12:12:10.999Z</time></trkpt><trkpt lat="44.907602498714475" lon="9.81858766177402"><ele>112.0</ele><time>2026-04-25T12:12:11.999Z</time></trkpt><trkpt lat="44.90757740855174" lon="9.818698365852208"><ele>112.16666666666667</ele><time>2026-04-25T12:12:12.999Z</time></trkpt><trkpt lat="44.90755133486139" lon="9.81880770300407"><ele>112.33333333333334</ele><time>2026-04-25T12:12:13.999Z</time></trkpt><trkpt lat="44.90752149138512" lon="9.818913395836885"><ele>112.5</ele><time>2026-04-25T12:12:14.999Z</time></trkpt><trkpt lat="44.90749278964111" lon="9.819019065040083"><ele>112.66666666666666</ele><time>2026-04-25T12:12:15.999Z</time></trkpt><trkpt lat="44.90746705902318" lon="9.819121521436237"><ele>112.83333333333333</ele><time>2026-04-25T12:12:16.999Z</time></trkpt><trkpt lat="44.90744019523989" lon="9.819222433790523"><ele>113.0</ele><time>2026-04-25T12:12:17.999Z</time></trkpt><trkpt lat="44.907414446660525" lon="9.819321764399604"><ele>113.0</ele><time>2026-04-25T12:12:18.999Z</time></trkpt><trkpt lat="44.90739043718137" lon="9.819421228490757"><ele>113.0</ele><time>2026-04-25T12:12:19.999Z</time></trkpt><trkpt lat="44.90736861536255" lon="9.81952067147603"><ele>113.0</ele><time>2026-04-25T12:12:20.999Z</time></trkpt><trkpt lat="44.907341834006935" lon="9.81961789704738"><ele>113.0</ele><time>2026-04-25T12:12:21.999Z</time></trkpt><trkpt lat="44.90732006651446" lon="9.819712204525059"><ele>113.0</ele><time>2026-04-25T12:12:22.999Z</time></trkpt><trkpt lat="44.90729645118678" lon="9.819804623850542"><ele>113.0</ele><time>2026-04-25T12:12:23.999Z</time></trkpt><trkpt lat="44.90727271040423" lon="9.819894831223625"><ele>113.0</ele><time>2026-04-25T12:12:24.999Z</time></trkpt><trkpt lat="44.907249871773864" lon="9.819984675984943"><ele>113.0</ele><time>2026-04-25T12:12:25.999Z</time></trkpt><trkpt lat="44.90722558433417" lon="9.820072555349624"><ele>113.00000000000001</ele><time>2026-04-25T12:12:26.999Z</time></trkpt><trkpt lat="44.90720413890721" lon="9.820159644980949"><ele>113.00000000000001</ele><time>2026-04-25T12:12:27.999Z</time></trkpt><trkpt lat="44.90714499591988" lon="9.820292415044712"><ele>113.0</ele><time>2026-04-25T12:12:29.998Z</time></trkpt><trkpt lat="44.90728501987415" lon="9.820440003271349"><ele>113.0</ele><time>2026-04-25T12:12:31.998Z</time></trkpt><trkpt lat="44.90735619009734" lon="9.820466895854937"><ele>112.83333333333333</ele><time>2026-04-25T12:12:32.998Z</time></trkpt><trkpt lat="44.90743146517977" lon="9.820472425378181"><ele>112.66666666666666</ele><time>2026-04-25T12:12:33.998Z</time></trkpt><trkpt lat="44.90750653060333" lon="9.820489086674746"><ele>112.5</ele><time>2026-04-25T12:12:34.998Z</time></trkpt><trkpt lat="44.907582504393226" lon="9.820514897958406"><ele>112.33333333333334</ele><time>2026-04-25T12:12:35.998Z</time></trkpt><trkpt lat="44.90766401318613" lon="9.820538503261403"><ele>112.16666666666667</ele><time>2026-04-25T12:12:36.998Z</time></trkpt><trkpt lat="44.90774482327714" lon="9.820557595182883"><ele>112.0</ele><time>2026-04-25T12:12:37.998Z</time></trkpt><trkpt lat="44.90782656151463" lon="9.820575735656156"><ele>112.00000000000001</ele><time>2026-04-25T12:12:39Z</time></trkpt><trkpt lat="44.907910889604494" lon="9.820596225967385"><ele>112.0</ele><time>2026-04-25T12:12:40Z</time></trkpt><trkpt lat="44.90799697406622" lon="9.820612906902829"><ele>112.0</ele><time>2026-04-25T12:12:41Z</time></trkpt><trkpt lat="44.908082233294124" lon="9.820632877539325"><ele>112.0</ele><time>2026-04-25T12:12:42Z</time></trkpt><trkpt lat="44.90816837430072" lon="9.820655465453811"><ele>112.00000000000001</ele><time>2026-04-25T12:12:43Z</time></trkpt><trkpt lat="44.90825344110103" lon="9.820675232918422"><ele>112.0</ele><time>2026-04-25T12:12:44Z</time></trkpt><trkpt lat="44.90833844066217" lon="9.820697101149857"><ele>111.66666666666667</ele><time>2026-04-25T12:12:45Z</time></trkpt><trkpt lat="44.90842735572323" lon="9.820721137954399"><ele>111.33333333333334</ele><time>2026-04-25T12:12:46Z</time></trkpt><trkpt lat="44.90851315085918" lon="9.820741494915351"><ele>111.0</ele><time>2026-04-25T12:12:47Z</time></trkpt><trkpt lat="44.908599382157675" lon="9.820761435682643"><ele>110.66666666666666</ele><time>2026-04-25T12:12:48Z</time></trkpt><trkpt lat="44.90868455446598" lon="9.820779636149156"><ele>110.33333333333333</ele><time>2026-04-25T12:12:49Z</time></trkpt><trkpt lat="44.90877122100876" lon="9.820796800861208"><ele>110.0</ele><time>2026-04-25T12:12:50Z</time></trkpt><trkpt lat="44.90885720884453" lon="9.820818890659284"><ele>109.99999999999999</ele><time>2026-04-25T12:12:51Z</time></trkpt><trkpt lat="44.90894344425024" lon="9.820842082747136"><ele>110.0</ele><time>2026-04-25T12:12:52Z</time></trkpt><trkpt lat="44.90902881989898" lon="9.820865477168992"><ele>110.0</ele><time>2026-04-25T12:12:53Z</time></trkpt><trkpt lat="44.909114548251026" lon="9.820885860436686"><ele>110.0</ele><time>2026-04-25T12:12:54Z</time></trkpt><trkpt lat="44.90920044477206" lon="9.820905717551442"><ele>109.99999999999999</ele><time>2026-04-25T12:12:55Z</time></trkpt><trkpt lat="44.909284313751506" lon="9.820927778144593"><ele>110.0</ele><time>2026-04-25T12:12:56Z</time></trkpt><trkpt lat="44.9093712725818" lon="9.820943213090128"><ele>109.33333333333333</ele><time>2026-04-25T12:12:57Z</time></trkpt><trkpt lat="44.90945335908942" lon="9.82095308504108"><ele>108.66666666666666</ele><time>2026-04-25T12:12:58Z</time></trkpt><trkpt lat="44.909538366854555" lon="9.820965913944278"><ele>108.0</ele><time>2026-04-25T12:12:59Z</time></trkpt><trkpt lat="44.90961901370695" lon="9.820987565338237"><ele>107.33333333333334</ele><time>2026-04-25T12:13:00Z</time></trkpt><trkpt lat="44.9096980636447" lon="9.821023830593955"><ele>106.66666666666667</ele><time>2026-04-25T12:13:01Z</time></trkpt><trkpt lat="44.90976368219512" lon="9.821095253352969"><ele>106.0</ele><time>2026-04-25T12:13:02Z</time></trkpt><trkpt lat="44.90981378757726" lon="9.821202561201622"><ele>105.8</ele><time>2026-04-25T12:13:03Z</time></trkpt><trkpt lat="44.90981860172802" lon="9.821335473294944"><ele>105.6</ele><time>2026-04-25T12:13:04Z</time></trkpt><trkpt lat="44.909811917835896" lon="9.82146194701177"><ele>105.4</ele><time>2026-04-25T12:13:05Z</time></trkpt><trkpt lat="44.90982227659914" lon="9.821596212729009"><ele>105.2</ele><time>2026-04-25T12:13:06Z</time></trkpt><trkpt lat="44.90981091116625" lon="9.821729674406251"><ele>105.0</ele><time>2026-04-25T12:13:07Z</time></trkpt><trkpt lat="44.90980830878284" lon="9.821862682590911"><ele>105.0</ele><time>2026-04-25T12:13:08Z</time></trkpt><trkpt lat="44.909801461758896" lon="9.821993011716078"><ele>105.0</ele><time>2026-04-25T12:13:09Z</time></trkpt><trkpt lat="44.90979443127364" lon="9.822125850131522"><ele>105.0</ele><time>2026-04-25T12:13:10Z</time></trkpt><trkpt lat="44.909789449320776" lon="9.822262082601986"><ele>105.0</ele><time>2026-04-25T12:13:11Z</time></trkpt><trkpt lat="44.90978301383046" lon="9.822400715849566"><ele>105.0</ele><time>2026-04-25T12:13:12Z</time></trkpt><trkpt lat="44.90977969280395" lon="9.82253844624469"><ele>104.8</ele><time>2026-04-25T12:13:13Z</time></trkpt><trkpt lat="44.90977551825765" lon="9.822677534605138"><ele>104.6</ele><time>2026-04-25T12:13:14Z</time></trkpt><trkpt lat="44.909770478618775" lon="9.822812823294122"><ele>104.4</ele><time>2026-04-25T12:13:15Z</time></trkpt><trkpt lat="44.909764724645505" lon="9.822946922480593"><ele>104.2</ele><time>2026-04-25T12:13:16Z</time></trkpt><trkpt lat="44.909762453964454" lon="9.82308234461817"><ele>104.0</ele><time>2026-04-25T12:13:17Z</time></trkpt><trkpt lat="44.909757988283594" lon="9.823220706750591"><ele>104.0</ele><time>2026-04-25T12:13:18Z</time></trkpt><trkpt lat="44.90975443780138" lon="9.823355092349924"><ele>104.0</ele><time>2026-04-25T12:13:19Z</time></trkpt><trkpt lat="44.909745471275855" lon="9.823490655680535"><ele>104.0</ele><time>2026-04-25T12:13:20Z</time></trkpt><trkpt lat="44.90973048287148" lon="9.823628753413093"><ele>104.0</ele><time>2026-04-25T12:13:21Z</time></trkpt><trkpt lat="44.90972117427107" lon="9.823768708051386"><ele>104.0</ele><time>2026-04-25T12:13:22Z</time></trkpt><trkpt lat="44.90971106964082" lon="9.823912527357665"><ele>104.0</ele><time>2026-04-25T12:13:23Z</time></trkpt><trkpt lat="44.909703230055854" lon="9.824053818802003"><ele>104.0</ele><time>2026-04-25T12:13:24Z</time></trkpt><trkpt lat="44.909693218294215" lon="9.824191607520715"><ele>104.0</ele><time>2026-04-25T12:13:25Z</time></trkpt><trkpt lat="44.909683278352524" lon="9.824332109667312"><ele>104.0</ele><time>2026-04-25T12:13:26Z</time></trkpt><trkpt lat="44.909673118245465" lon="9.824471249780869"><ele>104.0</ele><time>2026-04-25T12:13:27Z</time></trkpt><trkpt lat="44.90966526132402" lon="9.824610189172317"><ele>103.80000000000001</ele><time>2026-04-25T12:13:28Z</time></trkpt><trkpt lat="44.90966383010091" lon="9.824749451373055"><ele>103.60000000000001</ele><time>2026-04-25T12:13:29Z</time></trkpt><trkpt lat="44.909673340191794" lon="9.824890187504847"><ele>103.4</ele><time>2026-04-25T12:13:30Z</time></trkpt><trkpt lat="44.90968878028591" lon="9.825029239185618"><ele>103.2</ele><time>2026-04-25T12:13:31Z</time></trkpt><trkpt lat="44.9097119245599" lon="9.825167864994652"><ele>103.0</ele><time>2026-04-25T12:13:32Z</time></trkpt><trkpt lat="44.90974170877142" lon="9.825302796937365"><ele>102.80000000000001</ele><time>2026-04-25T12:13:33Z</time></trkpt><trkpt lat="44.90977035409014" lon="9.82544071198696"><ele>102.6</ele><time>2026-04-25T12:13:34Z</time></trkpt><trkpt lat="44.909784704987395" lon="9.825582698643208"><ele>102.4</ele><time>2026-04-25T12:13:34.999Z</time></trkpt><trkpt lat="44.909791180571986" lon="9.825723837682132"><ele>102.19999999999999</ele><time>2026-04-25T12:13:35.999Z</time></trkpt><trkpt lat="44.909785201447654" lon="9.825863678797994"><ele>102.0</ele><time>2026-04-25T12:13:36.999Z</time></trkpt><trkpt lat="44.90977286623064" lon="9.82600118918147"><ele>102.0</ele><time>2026-04-25T12:13:37.999Z</time></trkpt><trkpt lat="44.90975343672987" lon="9.826136958412294"><ele>102.0</ele><time>2026-04-25T12:13:38.999Z</time></trkpt><trkpt lat="44.909740497817275" lon="9.826273443855795"><ele>102.0</ele><time>2026-04-25T12:13:39.999Z</time></trkpt><trkpt lat="44.90972037265825" lon="9.826410271991213"><ele>102.0</ele><time>2026-04-25T12:13:40.999Z</time></trkpt><trkpt lat="44.90970107086262" lon="9.826542942884569"><ele>102.0</ele><time>2026-04-25T12:13:41.999Z</time></trkpt><trkpt lat="44.90967552420947" lon="9.82667495147412"><ele>102.0</ele><time>2026-04-25T12:13:42.999Z</time></trkpt><trkpt lat="44.909648010227556" lon="9.826801849172893"><ele>102.0</ele><time>2026-04-25T12:13:43.999Z</time></trkpt><trkpt lat="44.909621442958226" lon="9.826932563952967"><ele>102.0</ele><time>2026-04-25T12:13:44.999Z</time></trkpt><trkpt lat="44.90959039558629" lon="9.827064748128164"><ele>102.0</ele><time>2026-04-25T12:13:45.999Z</time></trkpt><trkpt lat="44.909559755390454" lon="9.827193381045863"><ele>102.0</ele><time>2026-04-25T12:13:46.999Z</time></trkpt><trkpt lat="44.909535575651965" lon="9.827335401181449"><ele>102.0</ele><time>2026-04-25T12:13:47.999Z</time></trkpt><trkpt lat="44.9095220086462" lon="9.827484793233523"><ele>102.0</ele><time>2026-04-25T12:13:48.999Z</time></trkpt><trkpt lat="44.90952358309129" lon="9.827628278323326"><ele>102.0</ele><time>2026-04-25T12:13:49.999Z</time></trkpt><trkpt lat="44.909533311406896" lon="9.827774807668415"><ele>102.0</ele><time>2026-04-25T12:13:50.999Z</time></trkpt><trkpt lat="44.90954629373469" lon="9.827920012793724"><ele>102.0</ele><time>2026-04-25T12:13:51.999Z</time></trkpt><trkpt lat="44.90955651069517" lon="9.828067508517771"><ele>101.8</ele><time>2026-04-25T12:13:52.999Z</time></trkpt><trkpt lat="44.90956049195172" lon="9.828214083761535"><ele>101.6</ele><time>2026-04-25T12:13:53.999Z</time></trkpt><trkpt lat="44.90955960171029" lon="9.828353466542822"><ele>101.39999999999999</ele><time>2026-04-25T12:13:54.999Z</time></trkpt><trkpt lat="44.909565090891924" lon="9.82849656009125"><ele>101.19999999999999</ele><time>2026-04-25T12:13:55.999Z</time></trkpt><trkpt lat="44.90956871673304" lon="9.828632160890471"><ele>101.0</ele><time>2026-04-25T12:13:56.999Z</time></trkpt><trkpt lat="44.90956968292392" lon="9.82876533775498"><ele>100.99999999999999</ele><time>2026-04-25T12:13:57.999Z</time></trkpt><trkpt lat="44.90957066050126" lon="9.82890231081936"><ele>101.0</ele><time>2026-04-25T12:13:58.999Z</time></trkpt><trkpt lat="44.9095712041554" lon="9.82903305324082"><ele>101.0</ele><time>2026-04-25T12:13:59.999Z</time></trkpt><trkpt lat="44.9095692150705" lon="9.829149024484511"><ele>101.0</ele><time>2026-04-25T12:14:00.999Z</time></trkpt><trkpt lat="44.9095701072544" lon="9.829258010747395"><ele>100.99999999999999</ele><time>2026-04-25T12:14:01.999Z</time></trkpt><trkpt lat="44.90957409757388" lon="9.829352021434968"><ele>101.0</ele><time>2026-04-25T12:14:02.999Z</time></trkpt><trkpt lat="44.90958234170042" lon="9.82947143499247"><ele>100.8</ele><time>2026-04-25T12:14:04.999Z</time></trkpt><trkpt lat="44.909594132604575" lon="9.829559331425285"><ele>100.6</ele><time>2026-04-25T12:14:06.999Z</time></trkpt><trkpt lat="44.909621334431094" lon="9.829662187296881"><ele>100.4</ele><time>2026-04-25T12:14:09.999Z</time></trkpt><trkpt lat="44.90971657882835" lon="9.829666519590171"><ele>100.2</ele><time>2026-04-25T12:14:10.999Z</time></trkpt><trkpt lat="44.90982362260201" lon="9.82968467409578"><ele>100.0</ele><time>2026-04-25T12:14:12.999Z</time></trkpt><trkpt lat="44.90995327062262" lon="9.829690639830202"><ele>100.00000000000001</ele><time>2026-04-25T12:14:14.999Z</time></trkpt><trkpt lat="44.91002625318874" lon="9.829689978048783"><ele>100.0</ele><time>2026-04-25T12:14:15.999Z</time></trkpt><trkpt lat="44.91010065335628" lon="9.829688343589888"><ele>100.0</ele><time>2026-04-25T12:14:16.999Z</time></trkpt><trkpt lat="44.91017754875303" lon="9.82968951620179"><ele>100.0</ele><time>2026-04-25T12:14:17.999Z</time></trkpt><trkpt lat="44.91025374150492" lon="9.829693559738136"><ele>100.00000000000001</ele><time>2026-04-25T12:14:18.999Z</time></trkpt><trkpt lat="44.910328684617916" lon="9.829692097723079"><ele>100.0</ele><time>2026-04-25T12:14:19.999Z</time></trkpt><trkpt lat="44.91040309185773" lon="9.829687231135072"><ele>99.83333333333334</ele><time>2026-04-25T12:14:20.999Z</time></trkpt><trkpt lat="44.910474436" lon="9.829685560329022"><ele>99.66666666666667</ele><time>2026-04-25T12:14:21.999Z</time></trkpt><trkpt lat="44.91055209067474" lon="9.829688079030667"><ele>99.5</ele><time>2026-04-25T12:14:22.999Z</time></trkpt><trkpt lat="44.91063598929968" lon="9.829691209711976"><ele>99.33333333333334</ele><time>2026-04-25T12:14:23.999Z</time></trkpt><trkpt lat="44.91071948939089" lon="9.829695843519238"><ele>99.16666666666667</ele><time>2026-04-25T12:14:24.999Z</time></trkpt><trkpt lat="44.91080565006359" lon="9.829697463610149"><ele>99.0</ele><time>2026-04-25T12:14:25.999Z</time></trkpt><trkpt lat="44.91089417670873" lon="9.829696383303517"><ele>99.0</ele><time>2026-04-25T12:14:26.999Z</time></trkpt><trkpt lat="44.910984922611085" lon="9.829693873460538"><ele>99.0</ele><time>2026-04-25T12:14:27.999Z</time></trkpt><trkpt lat="44.9110755264537" lon="9.82969813008943"><ele>99.0</ele><time>2026-04-25T12:14:28.999Z</time></trkpt><trkpt lat="44.9111695062362" lon="9.829707241904515"><ele>99.0</ele><time>2026-04-25T12:14:29.999Z</time></trkpt><trkpt lat="44.9112628748468" lon="9.829713298237882"><ele>99.0</ele><time>2026-04-25T12:14:30.999Z</time></trkpt><trkpt lat="44.91135385981505" lon="9.829723682000795"><ele>99.0</ele><time>2026-04-25T12:14:31.999Z</time></trkpt><trkpt lat="44.91144471716638" lon="9.82973262742731"><ele>99.0</ele><time>2026-04-25T12:14:32.999Z</time></trkpt><trkpt lat="44.91153491495792" lon="9.82973946195213"><ele>99.0</ele><time>2026-04-25T12:14:33.999Z</time></trkpt><trkpt lat="44.91162509347015" lon="9.829744753261934"><ele>99.0</ele><time>2026-04-25T12:14:34.998Z</time></trkpt><trkpt lat="44.91171417946855" lon="9.829756998580589"><ele>99.0</ele><time>2026-04-25T12:14:35.998Z</time></trkpt><trkpt lat="44.91180884822598" lon="9.829765160073725"><ele>98.80000000000001</ele><time>2026-04-25T12:14:36.998Z</time></trkpt><trkpt lat="44.911903177630364" lon="9.82977907837199"><ele>98.60000000000001</ele><time>2026-04-25T12:14:37.998Z</time></trkpt><trkpt lat="44.91199677071246" lon="9.829801022769086"><ele>98.4</ele><time>2026-04-25T12:14:38.998Z</time></trkpt><trkpt lat="44.91207719577765" lon="9.829851502459116"><ele>98.2</ele><time>2026-04-25T12:14:39.998Z</time></trkpt><trkpt lat="44.91212989086037" lon="9.829959672923355"><ele>98.0</ele><time>2026-04-25T12:14:40.998Z</time></trkpt><trkpt lat="44.91215258173279" lon="9.830087829510122"><ele>98.2</ele><time>2026-04-25T12:14:41.998Z</time></trkpt><trkpt lat="44.91213698349257" lon="9.830230281181066"><ele>98.4</ele><time>2026-04-25T12:14:42.998Z</time></trkpt><trkpt lat="44.912126233026605" lon="9.830358073697221"><ele>98.60000000000001</ele><time>2026-04-25T12:14:43.998Z</time></trkpt><trkpt lat="44.91211394791254" lon="9.830488324012018"><ele>98.80000000000001</ele><time>2026-04-25T12:14:45Z</time></trkpt><trkpt lat="44.912101462656196" lon="9.83061605682637"><ele>99.0</ele><time>2026-04-25T12:14:46Z</time></trkpt><trkpt lat="44.91208866502731" lon="9.830740038745338"><ele>99.0</ele><time>2026-04-25T12:14:47Z</time></trkpt><trkpt lat="44.912073645463856" lon="9.830862237700682"><ele>99.0</ele><time>2026-04-25T12:14:48Z</time></trkpt><trkpt lat="44.91205499432818" lon="9.83098945259247"><ele>99.0</ele><time>2026-04-25T12:14:49Z</time></trkpt><trkpt lat="44.91203550323272" lon="9.831115388962816"><ele>99.0</ele><time>2026-04-25T12:14:50Z</time></trkpt><trkpt lat="44.912014031192015" lon="9.831240167266925"><ele>99.0</ele><time>2026-04-25T12:14:51Z</time></trkpt><trkpt lat="44.91199189479902" lon="9.831364654036564"><ele>98.6</ele><time>2026-04-25T12:14:52Z</time></trkpt><trkpt lat="44.91196920303625" lon="9.83149242656427"><ele>98.2</ele><time>2026-04-25T12:14:53Z</time></trkpt><trkpt lat="44.911941961103686" lon="9.831618544087966"><ele>97.8</ele><time>2026-04-25T12:14:54Z</time></trkpt><trkpt lat="44.91191551851854" lon="9.83174694792355"><ele>97.39999999999999</ele><time>2026-04-25T12:14:55Z</time></trkpt><trkpt lat="44.91188977662532" lon="9.831874624193588"><ele>97.0</ele><time>2026-04-25T12:14:56Z</time></trkpt><trkpt lat="44.91186570211411" lon="9.832004236044888"><ele>96.6</ele><time>2026-04-25T12:14:57Z</time></trkpt><trkpt lat="44.911842183272505" lon="9.832132622148492"><ele>96.19999999999999</ele><time>2026-04-25T12:14:58Z</time></trkpt><trkpt lat="44.9118158584345" lon="9.832260754513308"><ele>95.8</ele><time>2026-04-25T12:14:59Z</time></trkpt><trkpt lat="44.91179005211117" lon="9.832387786957359"><ele>95.4</ele><time>2026-04-25T12:15:00Z</time></trkpt><trkpt lat="44.91176920861488" lon="9.832517951130932"><ele>95.0</ele><time>2026-04-25T12:15:01Z</time></trkpt><trkpt lat="44.91175660790331" lon="9.832651677243657"><ele>95.0</ele><time>2026-04-25T12:15:02Z</time></trkpt><trkpt lat="44.91175574102861" lon="9.832785816961836"><ele>95.0</ele><time>2026-04-25T12:15:03Z</time></trkpt><trkpt lat="44.91176472437219" lon="9.832920487316532"><ele>95.0</ele><time>2026-04-25T12:15:04Z</time></trkpt><trkpt lat="44.91178556167961" lon="9.833050397755619"><ele>95.0</ele><time>2026-04-25T12:15:05Z</time></trkpt><trkpt lat="44.91180741060155" lon="9.833181296300282"><ele>95.0</ele><time>2026-04-25T12:15:06Z</time></trkpt><trkpt lat="44.91182504962668" lon="9.83331336177435"><ele>95.0</ele><time>2026-04-25T12:15:07Z</time></trkpt><trkpt lat="44.911842912088446" lon="9.83344451626865"><ele>95.0</ele><time>2026-04-25T12:15:08Z</time></trkpt><trkpt lat="44.91186624505794" lon="9.833573896284248"><ele>95.0</ele><time>2026-04-25T12:15:09Z</time></trkpt><trkpt lat="44.911892994102566" lon="9.833701188444861"><ele>95.0</ele><time>2026-04-25T12:15:10Z</time></trkpt><trkpt lat="44.911921096266376" lon="9.83382708752414"><ele>95.0</ele><time>2026-04-25T12:15:11Z</time></trkpt><trkpt lat="44.91195028763258" lon="9.833953123226733"><ele>95.2</ele><time>2026-04-25T12:15:12Z</time></trkpt><trkpt lat="44.91197977347913" lon="9.834078114664973"><ele>95.4</ele><time>2026-04-25T12:15:13Z</time></trkpt><trkpt lat="44.91200879652752" lon="9.834205718584654"><ele>95.6</ele><time>2026-04-25T12:15:14Z</time></trkpt><trkpt lat="44.912037225468005" lon="9.83433149326458"><ele>95.8</ele><time>2026-04-25T12:15:15Z</time></trkpt><trkpt lat="44.91206081041195" lon="9.834462766901503"><ele>96.0</ele><time>2026-04-25T12:15:16Z</time></trkpt><trkpt lat="44.912076014308155" lon="9.834594511030891"><ele>96.0</ele><time>2026-04-25T12:15:17Z</time></trkpt><trkpt lat="44.91208019207877" lon="9.834730230544624"><ele>96.0</ele><time>2026-04-25T12:15:18Z</time></trkpt><trkpt lat="44.91206497557425" lon="9.834863831547757"><ele>96.0</ele><time>2026-04-25T12:15:19Z</time></trkpt><trkpt lat="44.9120397312233" lon="9.834998470531605"><ele>96.0</ele><time>2026-04-25T12:15:20Z</time></trkpt><trkpt lat="44.91200096562568" lon="9.835118849641043"><ele>96.0</ele><time>2026-04-25T12:15:21Z</time></trkpt><trkpt lat="44.911957153301536" lon="9.835239788922939"><ele>95.8</ele><time>2026-04-25T12:15:22Z</time></trkpt><trkpt lat="44.911908942255906" lon="9.835352868748574"><ele>95.6</ele><time>2026-04-25T12:15:23Z</time></trkpt><trkpt lat="44.911862074487644" lon="9.8354664579721"><ele>95.4</ele><time>2026-04-25T12:15:24Z</time></trkpt><trkpt lat="44.911815081701185" lon="9.835578050131986"><ele>95.2</ele><time>2026-04-25T12:15:25Z</time></trkpt><trkpt lat="44.91176777342132" lon="9.835690910352474"><ele>95.0</ele><time>2026-04-25T12:15:26Z</time></trkpt><trkpt lat="44.9117219407597" lon="9.835805046566062"><ele>94.8</ele><time>2026-04-25T12:15:27Z</time></trkpt><trkpt lat="44.91167816815743" lon="9.835920149147059"><ele>94.6</ele><time>2026-04-25T12:15:28Z</time></trkpt><trkpt lat="44.91163989778846" lon="9.836039748876287"><ele>94.4</ele><time>2026-04-25T12:15:29Z</time></trkpt><trkpt lat="44.91160728712129" lon="9.836161336728237"><ele>94.2</ele><time>2026-04-25T12:15:30Z</time></trkpt><trkpt lat="44.9115820590849" lon="9.836288294420394"><ele>94.0</ele><time>2026-04-25T12:15:31Z</time></trkpt><trkpt lat="44.911567208268565" lon="9.836418668505141"><ele>94.0</ele><time>2026-04-25T12:15:32Z</time></trkpt><trkpt lat="44.91155621046867" lon="9.83655377195621"><ele>94.0</ele><time>2026-04-25T12:15:33Z</time></trkpt><trkpt lat="44.91155245359553" lon="9.836688410735164"><ele>94.0</ele><time>2026-04-25T12:15:34Z</time></trkpt><trkpt lat="44.9115484535365" lon="9.836822811633054"><ele>94.0</ele><time>2026-04-25T12:15:35Z</time></trkpt><trkpt lat="44.91154394624363" lon="9.836955030579354"><ele>94.0</ele><time>2026-04-25T12:15:36Z</time></trkpt><trkpt lat="44.91153627425535" lon="9.837087038921283"><ele>94.4</ele><time>2026-04-25T12:15:37Z</time></trkpt><trkpt lat="44.91153033228878" lon="9.837221413589086"><ele>94.80000000000001</ele><time>2026-04-25T12:15:38Z</time></trkpt><trkpt lat="44.91152298102554" lon="9.837350736329043"><ele>95.19999999999999</ele><time>2026-04-25T12:15:38.999Z</time></trkpt><trkpt lat="44.911516773557565" lon="9.83748286312995"><ele>95.6</ele><time>2026-04-25T12:15:39.999Z</time></trkpt><trkpt lat="44.91151306750903" lon="9.837613386166275"><ele>96.0</ele><time>2026-04-25T12:15:40.999Z</time></trkpt><trkpt lat="44.911507897921986" lon="9.837746747848202"><ele>96.19999999999999</ele><time>2026-04-25T12:15:41.999Z</time></trkpt><trkpt lat="44.91149997644112" lon="9.837878571682124"><ele>96.39999999999999</ele><time>2026-04-25T12:15:42.999Z</time></trkpt><trkpt lat="44.911493547126575" lon="9.83801078154864"><ele>96.6</ele><time>2026-04-25T12:15:43.999Z</time></trkpt><trkpt lat="44.911491037209046" lon="9.838148696483104"><ele>96.8</ele><time>2026-04-25T12:15:44.999Z</time></trkpt><trkpt lat="44.9114910511941" lon="9.838284649260997"><ele>97.0</ele><time>2026-04-25T12:15:45.999Z</time></trkpt><trkpt lat="44.91148610900292" lon="9.83842111451682"><ele>96.6</ele><time>2026-04-25T12:15:46.999Z</time></trkpt><trkpt lat="44.91147623196547" lon="9.838557025102759"><ele>96.19999999999999</ele><time>2026-04-25T12:15:47.999Z</time></trkpt><trkpt lat="44.91146869224366" lon="9.838692852187535"><ele>95.8</ele><time>2026-04-25T12:15:48.999Z</time></trkpt><trkpt lat="44.91145470957125" lon="9.83882565346332"><ele>95.4</ele><time>2026-04-25T12:15:49.999Z</time></trkpt><trkpt lat="44.91144015618455" lon="9.838963826508232"><ele>95.0</ele><time>2026-04-25T12:15:50.999Z</time></trkpt><trkpt lat="44.91143197370135" lon="9.83910122565875"><ele>95.0</ele><time>2026-04-25T12:15:51.999Z</time></trkpt><trkpt lat="44.911436167415744" lon="9.83923776709335"><ele>95.0</ele><time>2026-04-25T12:15:52.999Z</time></trkpt><trkpt lat="44.91146287880426" lon="9.839374295799365"><ele>95.0</ele><time>2026-04-25T12:15:53.999Z</time></trkpt><trkpt lat="44.91151269348656" lon="9.839497571655365"><ele>95.0</ele><time>2026-04-25T12:15:54.999Z</time></trkpt><trkpt lat="44.91157922812101" lon="9.83960234051723"><ele>95.0</ele><time>2026-04-25T12:15:55.999Z</time></trkpt><trkpt lat="44.91165293578483" lon="9.839693160173681"><ele>95.0</ele><time>2026-04-25T12:15:56.999Z</time></trkpt><trkpt lat="44.91172402412751" lon="9.83978808946951"><ele>95.0</ele><time>2026-04-25T12:15:57.999Z</time></trkpt><trkpt lat="44.91178689302913" lon="9.839887709888096"><ele>95.0</ele><time>2026-04-25T12:15:58.999Z</time></trkpt><trkpt lat="44.91185395691029" lon="9.839990745442835"><ele>95.0</ele><time>2026-04-25T12:15:59.999Z</time></trkpt><trkpt lat="44.91191935377533" lon="9.84009195404007"><ele>95.0</ele><time>2026-04-25T12:16:00.999Z</time></trkpt><trkpt lat="44.911984281948094" lon="9.840197138208929"><ele>95.0</ele><time>2026-04-25T12:16:01.999Z</time></trkpt><trkpt lat="44.91204896814162" lon="9.840297987743657"><ele>95.0</ele><time>2026-04-25T12:16:02.999Z</time></trkpt><trkpt lat="44.91211323693945" lon="9.840397678921818"><ele>95.0</ele><time>2026-04-25T12:16:03.999Z</time></trkpt><trkpt lat="44.912180579945435" lon="9.840495853794748"><ele>95.0</ele><time>2026-04-25T12:16:04.999Z</time></trkpt><trkpt lat="44.91224559457622" lon="9.84060374375252"><ele>95.0</ele><time>2026-04-25T12:16:05.999Z</time></trkpt><trkpt lat="44.912307908852924" lon="9.840705850406426"><ele>95.0</ele><time>2026-04-25T12:16:06.999Z</time></trkpt><trkpt lat="44.91237474772361" lon="9.840809269945419"><ele>95.0</ele><time>2026-04-25T12:16:07.999Z</time></trkpt><trkpt lat="44.91243951010426" lon="9.840912936564065"><ele>95.0</ele><time>2026-04-25T12:16:08.999Z</time></trkpt><trkpt lat="44.91250707225275" lon="9.84101236379844"><ele>95.0</ele><time>2026-04-25T12:16:09.999Z</time></trkpt><trkpt lat="44.91257938914362" lon="9.841104921854749"><ele>95.0</ele><time>2026-04-25T12:16:10.999Z</time></trkpt><trkpt lat="44.91265111697721" lon="9.841193978635772"><ele>95.2</ele><time>2026-04-25T12:16:11.999Z</time></trkpt><trkpt lat="44.91272684994923" lon="9.84127851418593"><ele>95.4</ele><time>2026-04-25T12:16:12.999Z</time></trkpt><trkpt lat="44.91281048349946" lon="9.841351100397544"><ele>95.6</ele><time>2026-04-25T12:16:13.999Z</time></trkpt><trkpt lat="44.91290300751099" lon="9.841406297928652"><ele>95.8</ele><time>2026-04-25T12:16:14.999Z</time></trkpt><trkpt lat="44.912996585798545" lon="9.841445662928157"><ele>96.0</ele><time>2026-04-25T12:16:15.999Z</time></trkpt><trkpt lat="44.91309036336891" lon="9.84148529921275"><ele>96.0</ele><time>2026-04-25T12:16:16.999Z</time></trkpt><trkpt lat="44.91318351447502" lon="9.841529384440381"><ele>96.0</ele><time>2026-04-25T12:16:17.999Z</time></trkpt><trkpt lat="44.913272884097644" lon="9.841577633855932"><ele>96.0</ele><time>2026-04-25T12:16:18.999Z</time></trkpt><trkpt lat="44.91336205267148" lon="9.841623952448776"><ele>96.0</ele><time>2026-04-25T12:16:19.999Z</time></trkpt><trkpt lat="44.91345283156651" lon="9.841670091723683"><ele>96.0</ele><time>2026-04-25T12:16:20.999Z</time></trkpt><trkpt lat="44.91354275558459" lon="9.841716240913694"><ele>95.19999999999999</ele><time>2026-04-25T12:16:21.999Z</time></trkpt><trkpt lat="44.91363482285638" lon="9.841758873598913"><ele>94.39999999999999</ele><time>2026-04-25T12:16:22.999Z</time></trkpt><trkpt lat="44.91372548227249" lon="9.841798893724459"><ele>93.6</ele><time>2026-04-25T12:16:23.999Z</time></trkpt><trkpt lat="44.91381651306173" lon="9.841839414592272"><ele>92.8</ele><time>2026-04-25T12:16:24.999Z</time></trkpt><trkpt lat="44.91390569824942" lon="9.841887389558147"><ele>92.0</ele><time>2026-04-25T12:16:25.999Z</time></trkpt><trkpt lat="44.91399225302627" lon="9.84193163059054"><ele>92.0</ele><time>2026-04-25T12:16:26.999Z</time></trkpt><trkpt lat="44.91407928030382" lon="9.841974408513465"><ele>92.0</ele><time>2026-04-25T12:16:27.999Z</time></trkpt><trkpt lat="44.91416669902691" lon="9.842019223018037"><ele>92.0</ele><time>2026-04-25T12:16:28.999Z</time></trkpt><trkpt lat="44.91425241234304" lon="9.842062501525216"><ele>92.0</ele><time>2026-04-25T12:16:29.999Z</time></trkpt><trkpt lat="44.91434253916698" lon="9.842103191425691"><ele>92.0</ele><time>2026-04-25T12:16:30.999Z</time></trkpt><trkpt lat="44.914430655127624" lon="9.842144655904402"><ele>92.19999999999999</ele><time>2026-04-25T12:16:31.999Z</time></trkpt><trkpt lat="44.91451595931446" lon="9.842186889002901"><ele>92.4</ele><time>2026-04-25T12:16:32.999Z</time></trkpt><trkpt lat="44.91459957673752" lon="9.842238812091152"><ele>92.6</ele><time>2026-04-25T12:16:33.999Z</time></trkpt><trkpt lat="44.9146810989762" lon="9.842300453652713"><ele>92.80000000000001</ele><time>2026-04-25T12:16:34.999Z</time></trkpt><trkpt lat="44.91475779614685" lon="9.842365870858231"><ele>93.0</ele><time>2026-04-25T12:16:35.999Z</time></trkpt><trkpt lat="44.91483488017501" lon="9.842431585898675"><ele>93.0</ele><time>2026-04-25T12:16:36.999Z</time></trkpt><trkpt lat="44.91491155818113" lon="9.842500206549083"><ele>93.0</ele><time>2026-04-25T12:16:37.998Z</time></trkpt><trkpt lat="44.91498878148893" lon="9.842566383707473"><ele>93.0</ele><time>2026-04-25T12:16:38.998Z</time></trkpt><trkpt lat="44.91506441587109" lon="9.84263462167802"><ele>93.0</ele><time>2026-04-25T12:16:39.998Z</time></trkpt><trkpt lat="44.91514127984613" lon="9.842699565466496"><ele>93.0</ele><time>2026-04-25T12:16:40.998Z</time></trkpt><trkpt lat="44.915219311180145" lon="9.842764297132295"><ele>92.80000000000001</ele><time>2026-04-25T12:16:41.998Z</time></trkpt><trkpt lat="44.915294753155294" lon="9.842830166898555"><ele>92.6</ele><time>2026-04-25T12:16:42.998Z</time></trkpt><trkpt lat="44.91537431715609" lon="9.842894595973476"><ele>92.4</ele><time>2026-04-25T12:16:43.998Z</time></trkpt><trkpt lat="44.915452862995224" lon="9.842967829524197"><ele>92.19999999999999</ele><time>2026-04-25T12:16:44.998Z</time></trkpt><trkpt lat="44.915529258014196" lon="9.843036808829723"><ele>92.0</ele><time>2026-04-25T12:16:45.998Z</time></trkpt><trkpt lat="44.91560852107867" lon="9.843107402633445"><ele>92.0</ele><time>2026-04-25T12:16:46.998Z</time></trkpt><trkpt lat="44.91568562673884" lon="9.843175978265366"><ele>92.0</ele><time>2026-04-25T12:16:47.998Z</time></trkpt><trkpt lat="44.91576324553607" lon="9.843241888479634"><ele>92.0</ele><time>2026-04-25T12:16:48.998Z</time></trkpt><trkpt lat="44.91584026417125" lon="9.843306001342212"><ele>92.0</ele><time>2026-04-25T12:16:49.998Z</time></trkpt><trkpt lat="44.915916550477895" lon="9.843374824019708"><ele>92.0</ele><time>2026-04-25T12:16:51Z</time></trkpt><trkpt lat="44.91599236672752" lon="9.843442275701193"><ele>91.6</ele><time>2026-04-25T12:16:52Z</time></trkpt><trkpt lat="44.916069728632124" lon="9.84350771328285"><ele>91.19999999999999</ele><time>2026-04-25T12:16:53Z</time></trkpt><trkpt lat="44.91614615955427" lon="9.843572882031166"><ele>90.8</ele><time>2026-04-25T12:16:54Z</time></trkpt><trkpt lat="44.91622191611279" lon="9.843641029229891"><ele>90.4</ele><time>2026-04-25T12:16:55Z</time></trkpt><trkpt lat="44.9162985011038" lon="9.843706005548375"><ele>90.0</ele><time>2026-04-25T12:16:56Z</time></trkpt><trkpt lat="44.91637582257155" lon="9.843774235558014"><ele>90.0</ele><time>2026-04-25T12:16:57Z</time></trkpt><trkpt lat="44.916451393089694" lon="9.84383945042334"><ele>90.0</ele><time>2026-04-25T12:16:58Z</time></trkpt><trkpt lat="44.91652797072869" lon="9.843906141381924"><ele>90.0</ele><time>2026-04-25T12:16:59Z</time></trkpt><trkpt lat="44.9166044805342" lon="9.843972069205682"><ele>90.0</ele><time>2026-04-25T12:17:00Z</time></trkpt><trkpt lat="44.91668137511421" lon="9.844037360271615"><ele>90.0</ele><time>2026-04-25T12:17:01Z</time></trkpt><trkpt lat="44.9167587570852" lon="9.844102849211598"><ele>90.0</ele><time>2026-04-25T12:17:02Z</time></trkpt><trkpt lat="44.91683483589949" lon="9.84417043082718"><ele>90.0</ele><time>2026-04-25T12:17:03Z</time></trkpt><trkpt lat="44.91691251775771" lon="9.844238511082732"><ele>90.0</ele><time>2026-04-25T12:17:04Z</time></trkpt><trkpt lat="44.91698888554069" lon="9.844307670448801"><ele>90.0</ele><time>2026-04-25T12:17:05Z</time></trkpt><trkpt lat="44.91706837308047" lon="9.844375414777414"><ele>90.0</ele><time>2026-04-25T12:17:06Z</time></trkpt><trkpt lat="44.91714473527117" lon="9.84444256297084"><ele>90.0</ele><time>2026-04-25T12:17:07Z</time></trkpt><trkpt lat="44.91722285960076" lon="9.844508259074555"><ele>90.0</ele><time>2026-04-25T12:17:08Z</time></trkpt><trkpt lat="44.917298318891916" lon="9.84457802526892"><ele>90.0</ele><time>2026-04-25T12:17:09Z</time></trkpt><trkpt lat="44.91737226224185" lon="9.844650523785965"><ele>90.0</ele><time>2026-04-25T12:17:10Z</time></trkpt><trkpt lat="44.91744384381267" lon="9.844725619136932"><ele>90.0</ele><time>2026-04-25T12:17:11Z</time></trkpt><trkpt lat="44.917514850476515" lon="9.844808647336405"><ele>90.0</ele><time>2026-04-25T12:17:12Z</time></trkpt><trkpt lat="44.91758151596485" lon="9.84489191132329"><ele>90.2</ele><time>2026-04-25T12:17:13Z</time></trkpt><trkpt lat="44.91764539930091" lon="9.844980798645501"><ele>90.4</ele><time>2026-04-25T12:17:14Z</time></trkpt><trkpt lat="44.917708354654536" lon="9.845071349049531"><ele>90.6</ele><time>2026-04-25T12:17:15Z</time></trkpt><trkpt lat="44.91777122902388" lon="9.84516616422526"><ele>90.8</ele><time>2026-04-25T12:17:16Z</time></trkpt><trkpt lat="44.91782871479151" lon="9.845262540681992"><ele>91.0</ele><time>2026-04-25T12:17:17Z</time></trkpt><trkpt lat="44.91788403885111" lon="9.845365636390472"><ele>91.0</ele><time>2026-04-25T12:17:18Z</time></trkpt><trkpt lat="44.91793676583597" lon="9.84546725133184"><ele>91.0</ele><time>2026-04-25T12:17:19Z</time></trkpt><trkpt lat="44.91798733474035" lon="9.845573761626087"><ele>91.0</ele><time>2026-04-25T12:17:20Z</time></trkpt><trkpt lat="44.918035666799064" lon="9.845682566901647"><ele>91.0</ele><time>2026-04-25T12:17:21Z</time></trkpt><trkpt lat="44.91808016871016" lon="9.84579138857194"><ele>91.0</ele><time>2026-04-25T12:17:22Z</time></trkpt><trkpt lat="44.91812509059129" lon="9.845903639647696"><ele>90.83333333333333</ele><time>2026-04-25T12:17:23Z</time></trkpt><trkpt lat="44.918162689775734" lon="9.84601797641228"><ele>90.66666666666666</ele><time>2026-04-25T12:17:24Z</time></trkpt><trkpt lat="44.91820201225002" lon="9.84613035422097"><ele>90.5</ele><time>2026-04-25T12:17:25Z</time></trkpt><trkpt lat="44.918238871129304" lon="9.846243523709559"><ele>90.33333333333333</ele><time>2026-04-25T12:17:26Z</time></trkpt><trkpt lat="44.91826763259717" lon="9.846354133378899"><ele>90.16666666666667</ele><time>2026-04-25T12:17:27Z</time></trkpt><trkpt lat="44.91828896879683" lon="9.846467783496943"><ele>90.0</ele><time>2026-04-25T12:17:28Z</time></trkpt><trkpt lat="44.918303479936625" lon="9.84658307299241"><ele>90.0</ele><time>2026-04-25T12:17:29Z</time></trkpt><trkpt lat="44.918295058491424" lon="9.846696555728887"><ele>90.0</ele><time>2026-04-25T12:17:30Z</time></trkpt><trkpt lat="44.91825561224765" lon="9.8468012067053"><ele>90.0</ele><time>2026-04-25T12:17:31Z</time></trkpt><trkpt lat="44.918176293933485" lon="9.846862209773828"><ele>90.0</ele><time>2026-04-25T12:17:32Z</time></trkpt><trkpt lat="44.91811581619273" lon="9.846951749114224"><ele>90.0</ele><time>2026-04-25T12:17:33Z</time></trkpt><trkpt lat="44.918045824725844" lon="9.847029371701527"><ele>90.0</ele><time>2026-04-25T12:17:34Z</time></trkpt><trkpt lat="44.91798230198851" lon="9.847113573999309"><ele>89.8</ele><time>2026-04-25T12:17:35Z</time></trkpt><trkpt lat="44.91791697325791" lon="9.847202033499785"><ele>89.6</ele><time>2026-04-25T12:17:36Z</time></trkpt><trkpt lat="44.91785326207302" lon="9.847296066501192"><ele>89.4</ele><time>2026-04-25T12:17:37Z</time></trkpt><trkpt lat="44.917791503180446" lon="9.84738973223694"><ele>89.2</ele><time>2026-04-25T12:17:38Z</time></trkpt><trkpt lat="44.917733426085526" lon="9.847481224932912"><ele>89.0</ele><time>2026-04-25T12:17:39Z</time></trkpt><trkpt lat="44.91767412033678" lon="9.847575526206557"><ele>89.16666666666667</ele><time>2026-04-25T12:17:40Z</time></trkpt><trkpt lat="44.91761693446407" lon="9.847675844651949"><ele>89.33333333333334</ele><time>2026-04-25T12:17:41Z</time></trkpt><trkpt lat="44.917560864128646" lon="9.847774387890466"><ele>89.5</ele><time>2026-04-25T12:17:42Z</time></trkpt><trkpt lat="44.91750283631472" lon="9.847872364618409"><ele>89.66666666666667</ele><time>2026-04-25T12:17:42.999Z</time></trkpt><trkpt lat="44.9174478624707" lon="9.847971262321668"><ele>89.83333333333333</ele><time>2026-04-25T12:17:43.999Z</time></trkpt><trkpt lat="44.917394260243185" lon="9.848068106000733"><ele>90.0</ele><time>2026-04-25T12:17:44.999Z</time></trkpt><trkpt lat="44.91734825509719" lon="9.848176185740302"><ele>90.0</ele><time>2026-04-25T12:17:45.999Z</time></trkpt><trkpt lat="44.9173290940235" lon="9.84830365072491"><ele>90.0</ele><time>2026-04-25T12:17:46.999Z</time></trkpt><trkpt lat="44.917344586598055" lon="9.848429889308779"><ele>90.0</ele><time>2026-04-25T12:17:47.999Z</time></trkpt><trkpt lat="44.9173857553902" lon="9.848551764941678"><ele>90.0</ele><time>2026-04-25T12:17:48.999Z</time></trkpt><trkpt lat="44.917485834018414" lon="9.848620034249661"><ele>90.0</ele><time>2026-04-25T12:17:49.999Z</time></trkpt><trkpt lat="44.91756992700013" lon="9.848679495053977"><ele>90.16666666666667</ele><time>2026-04-25T12:17:50.999Z</time></trkpt><trkpt lat="44.91764435396878" lon="9.848749556204893"><ele>90.33333333333333</ele><time>2026-04-25T12:17:51.999Z</time></trkpt><trkpt lat="44.91771870382042" lon="9.848826370388025"><ele>90.5</ele><time>2026-04-25T12:17:52.999Z</time></trkpt><trkpt lat="44.91778963210579" lon="9.848900729452776"><ele>90.66666666666666</ele><time>2026-04-25T12:17:53.999Z</time></trkpt><trkpt lat="44.9178623820529" lon="9.848977081784586"><ele>90.83333333333333</ele><time>2026-04-25T12:17:54.999Z</time></trkpt><trkpt lat="44.91793454160535" lon="9.84905050473834"><ele>91.0</ele><time>2026-04-25T12:17:55.999Z</time></trkpt><trkpt lat="44.91800671724105" lon="9.84912655943657"><ele>91.0</ele><time>2026-04-25T12:17:56.999Z</time></trkpt><trkpt lat="44.91807659228311" lon="9.849200801704773"><ele>91.0</ele><time>2026-04-25T12:17:57.999Z</time></trkpt><trkpt lat="44.918151555116054" lon="9.849275036268944"><ele>91.0</ele><time>2026-04-25T12:17:58.999Z</time></trkpt><trkpt lat="44.918221840707055" lon="9.849350010224168"><ele>91.0</ele><time>2026-04-25T12:17:59.999Z</time></trkpt><trkpt lat="44.91829735801301" lon="9.849423489218427"><ele>91.0</ele><time>2026-04-25T12:18:00.999Z</time></trkpt><trkpt lat="44.9183685157333" lon="9.849496384720052"><ele>91.0</ele><time>2026-04-25T12:18:01.999Z</time></trkpt><trkpt lat="44.91844251155832" lon="9.849567788158502"><ele>90.66666666666666</ele><time>2026-04-25T12:18:02.999Z</time></trkpt><trkpt lat="44.91851440783082" lon="9.849640909031281"><ele>90.33333333333333</ele><time>2026-04-25T12:18:03.999Z</time></trkpt><trkpt lat="44.91858631981715" lon="9.849717571535493"><ele>90.0</ele><time>2026-04-25T12:18:04.999Z</time></trkpt><trkpt lat="44.918659605758684" lon="9.849792471983816"><ele>89.66666666666667</ele><time>2026-04-25T12:18:05.999Z</time></trkpt><trkpt lat="44.91873175026899" lon="9.849865462943045"><ele>89.33333333333334</ele><time>2026-04-25T12:18:06.999Z</time></trkpt><trkpt lat="44.918805166735574" lon="9.84993565302021"><ele>89.0</ele><time>2026-04-25T12:18:07.999Z</time></trkpt><trkpt lat="44.918882720729925" lon="9.850001959109177"><ele>89.0</ele><time>2026-04-25T12:18:08.999Z</time></trkpt><trkpt lat="44.91896151365184" lon="9.85005992437899"><ele>89.0</ele><time>2026-04-25T12:18:09.999Z</time></trkpt><trkpt lat="44.91904450149171" lon="9.850104475421418"><ele>89.0</ele><time>2026-04-25T12:18:10.999Z</time></trkpt><trkpt lat="44.919132621681634" lon="9.850138620395063"><ele>89.0</ele><time>2026-04-25T12:18:11.999Z</time></trkpt><trkpt lat="44.919219544063594" lon="9.850159467202399"><ele>89.0</ele><time>2026-04-25T12:18:12.999Z</time></trkpt><trkpt lat="44.919306495766584" lon="9.85017487199145"><ele>89.0</ele><time>2026-04-25T12:18:13.999Z</time></trkpt><trkpt lat="44.91939375586955" lon="9.850188117518204"><ele>88.83333333333334</ele><time>2026-04-25T12:18:14.999Z</time></trkpt><trkpt lat="44.91947879844458" lon="9.85019862026581"><ele>88.66666666666667</ele><time>2026-04-25T12:18:15.999Z</time></trkpt><trkpt lat="44.919566666378564" lon="9.850210655852786"><ele>88.5</ele><time>2026-04-25T12:18:16.999Z</time></trkpt><trkpt lat="44.919651829990364" lon="9.850223634241418"><ele>88.33333333333333</ele><time>2026-04-25T12:18:17.999Z</time></trkpt><trkpt lat="44.91974056379999" lon="9.850233851496313"><ele>88.16666666666666</ele><time>2026-04-25T12:18:18.999Z</time></trkpt><trkpt lat="44.919823291225036" lon="9.850243323358589"><ele>88.0</ele><time>2026-04-25T12:18:19.999Z</time></trkpt><trkpt lat="44.91990879867613" lon="9.85025106666681"><ele>88.0</ele><time>2026-04-25T12:18:20.999Z</time></trkpt><trkpt lat="44.91999303142337" lon="9.850257709617201"><ele>88.0</ele><time>2026-04-25T12:18:21.999Z</time></trkpt><trkpt lat="44.92007686269019" lon="9.85026710854181"><ele>88.0</ele><time>2026-04-25T12:18:22.999Z</time></trkpt><trkpt lat="44.920164248673245" lon="9.850273987330384"><ele>88.0</ele><time>2026-04-25T12:18:23.999Z</time></trkpt><trkpt lat="44.92024959443173" lon="9.850282763135192"><ele>88.0</ele><time>2026-04-25T12:18:24.999Z</time></trkpt><trkpt lat="44.920334718230336" lon="9.850295725938468"><ele>88.0</ele><time>2026-04-25T12:18:25.999Z</time></trkpt><trkpt lat="44.920421595940496" lon="9.850309797953244"><ele>88.0</ele><time>2026-04-25T12:18:26.999Z</time></trkpt><trkpt lat="44.9205012590828" lon="9.850345580555587"><ele>88.0</ele><time>2026-04-25T12:18:27.999Z</time></trkpt><trkpt lat="44.92058875629941" lon="9.85039045840536"><ele>88.0</ele><time>2026-04-25T12:18:28.999Z</time></trkpt><trkpt lat="44.92067446584363" lon="9.85043016618734"><ele>88.0</ele><time>2026-04-25T12:18:29.999Z</time></trkpt><trkpt lat="44.920758711005504" lon="9.850470083633589"><ele>88.0</ele><time>2026-04-25T12:18:30.999Z</time></trkpt><trkpt lat="44.92084301065628" lon="9.850513624328062"><ele>88.0</ele><time>2026-04-25T12:18:31.999Z</time></trkpt><trkpt lat="44.920928160059105" lon="9.850556544412994"><ele>87.60000000000001</ele><time>2026-04-25T12:18:32.999Z</time></trkpt><trkpt lat="44.92101242762315" lon="9.850599062545616"><ele>87.2</ele><time>2026-04-25T12:18:33.999Z</time></trkpt><trkpt lat="44.921099298061556" lon="9.850638618592415"><ele>86.8</ele><time>2026-04-25T12:18:34.999Z</time></trkpt><trkpt lat="44.92118382825762" lon="9.850680834863649"><ele>86.4</ele><time>2026-04-25T12:18:35.999Z</time></trkpt><trkpt lat="44.92127048234914" lon="9.850722216042136"><ele>86.0</ele><time>2026-04-25T12:18:36.999Z</time></trkpt><trkpt lat="44.921357693085824" lon="9.850765262910985"><ele>86.0</ele><time>2026-04-25T12:18:37.999Z</time></trkpt><trkpt lat="44.92144389013201" lon="9.850803666676939"><ele>86.0</ele><time>2026-04-25T12:18:38.999Z</time></trkpt><trkpt lat="44.92153251445075" lon="9.85083524285843"><ele>86.0</ele><time>2026-04-25T12:18:39.999Z</time></trkpt><trkpt lat="44.921621920034724" lon="9.85086502265976"><ele>86.0</ele><time>2026-04-25T12:18:40.999Z</time></trkpt><trkpt lat="44.921712426310755" lon="9.850887172525251"><ele>86.0</ele><time>2026-04-25T12:18:41.998Z</time></trkpt><trkpt lat="44.921803971081665" lon="9.850905805223574"><ele>86.0</ele><time>2026-04-25T12:18:42.998Z</time></trkpt><trkpt lat="44.92189614282218" lon="9.850924783755826"><ele>86.0</ele><time>2026-04-25T12:18:43.998Z</time></trkpt><trkpt lat="44.92198448402887" lon="9.85094525447337"><ele>86.0</ele><time>2026-04-25T12:18:44.998Z</time></trkpt><trkpt lat="44.92207329207185" lon="9.850967983192302"><ele>86.0</ele><time>2026-04-25T12:18:45.998Z</time></trkpt><trkpt lat="44.92216204449884" lon="9.850989500742333"><ele>86.0</ele><time>2026-04-25T12:18:46.998Z</time></trkpt><trkpt lat="44.922249097195966" lon="9.851010988127843"><ele>85.83333333333334</ele><time>2026-04-25T12:18:47.998Z</time></trkpt><trkpt lat="44.922334086141504" lon="9.851030837602657"><ele>85.66666666666667</ele><time>2026-04-25T12:18:48.998Z</time></trkpt><trkpt lat="44.92241657787273" lon="9.85105348228816"><ele>85.5</ele><time>2026-04-25T12:18:49.998Z</time></trkpt><trkpt lat="44.92249724619091" lon="9.851076039825786"><ele>85.33333333333333</ele><time>2026-04-25T12:18:50.998Z</time></trkpt><trkpt lat="44.92257639397125" lon="9.85109742988548"><ele>85.16666666666666</ele><time>2026-04-25T12:18:51.998Z</time></trkpt><trkpt lat="44.92265451992242" lon="9.851117047337539"><ele>85.0</ele><time>2026-04-25T12:18:52.998Z</time></trkpt><trkpt lat="44.92273012616209" lon="9.85114042776315"><ele>84.83333333333333</ele><time>2026-04-25T12:18:53.998Z</time></trkpt><trkpt lat="44.922803960194265" lon="9.8511715085254"><ele>84.66666666666666</ele><time>2026-04-25T12:18:54.998Z</time></trkpt><trkpt lat="44.92286772054591" lon="9.85119967107802"><ele>84.5</ele><time>2026-04-25T12:18:55.998Z</time></trkpt><trkpt lat="44.922952637009274" lon="9.851213180677327"><ele>84.33333333333333</ele><time>2026-04-25T12:18:58Z</time></trkpt><trkpt lat="44.92304235084366" lon="9.85123195793339"><ele>84.16666666666667</ele><time>2026-04-25T12:19:02Z</time></trkpt><trkpt lat="44.92312211061808" lon="9.851244571305946"><ele>84.0</ele><time>2026-04-25T12:19:04Z</time></trkpt><trkpt lat="44.92321897821052" lon="9.851281872064268"><ele>84.0</ele><time>2026-04-25T12:19:06Z</time></trkpt><trkpt lat="44.92332247251275" lon="9.851288388424916"><ele>84.0</ele><time>2026-04-25T12:19:08Z</time></trkpt><trkpt lat="44.923433783166075" lon="9.851307426629274"><ele>84.0</ele><time>2026-04-25T12:19:10Z</time></trkpt><trkpt lat="44.92355624698981" lon="9.851325846489209"><ele>84.0</ele><time>2026-04-25T12:19:12Z</time></trkpt><trkpt lat="44.92362165000517" lon="9.851334132588855"><ele>84.0</ele><time>2026-04-25T12:19:13Z</time></trkpt><trkpt lat="44.92368601294824" lon="9.851348583617064"><ele>83.57142857142857</ele><time>2026-04-25T12:19:14Z</time></trkpt><trkpt lat="44.92375335310444" lon="9.851365956310723"><ele>83.14285714285714</ele><time>2026-04-25T12:19:15Z</time></trkpt><trkpt lat="44.92382173505822" lon="9.851389752172857"><ele>82.71428571428572</ele><time>2026-04-25T12:19:16Z</time></trkpt><trkpt lat="44.92389296360302" lon="9.85141068084332"><ele>82.28571428571428</ele><time>2026-04-25T12:19:17Z</time></trkpt><trkpt lat="44.92396562074749" lon="9.851428117643882"><ele>81.85714285714286</ele><time>2026-04-25T12:19:18Z</time></trkpt><trkpt lat="44.9240401048642" lon="9.8514421401306"><ele>81.42857142857143</ele><time>2026-04-25T12:19:19Z</time></trkpt><trkpt lat="44.9241114822284" lon="9.851455705433398"><ele>81.0</ele><time>2026-04-25T12:19:20Z</time></trkpt><trkpt lat="44.92418318780433" lon="9.851471273964798"><ele>80.83333333333333</ele><time>2026-04-25T12:19:21Z</time></trkpt><trkpt lat="44.924257926949934" lon="9.851486280700827"><ele>80.66666666666667</ele><time>2026-04-25T12:19:22Z</time></trkpt><trkpt lat="44.924334977392974" lon="9.851499288627211"><ele>80.5</ele><time>2026-04-25T12:19:23Z</time></trkpt><trkpt lat="44.92441316355004" lon="9.851510733955456"><ele>80.33333333333334</ele><time>2026-04-25T12:19:24Z</time></trkpt><trkpt lat="44.924491830764445" lon="9.851522123343626"><ele>80.16666666666667</ele><time>2026-04-25T12:19:25Z</time></trkpt><trkpt lat="44.92457303695118" lon="9.851533427006888"><ele>80.0</ele><time>2026-04-25T12:19:26Z</time></trkpt><trkpt lat="44.92465266539208" lon="9.851543419203558"><ele>80.0</ele><time>2026-04-25T12:19:27Z</time></trkpt><trkpt lat="44.92473374217655" lon="9.851554693931666"><ele>80.0</ele><time>2026-04-25T12:19:28Z</time></trkpt><trkpt lat="44.92481491215331" lon="9.851568095027853"><ele>80.0</ele><time>2026-04-25T12:19:29Z</time></trkpt><trkpt lat="44.924897207822276" lon="9.851580426850699"><ele>80.0</ele><time>2026-04-25T12:19:30Z</time></trkpt><trkpt lat="44.924980366996" lon="9.85159313601578"><ele>80.0</ele><time>2026-04-25T12:19:31Z</time></trkpt><trkpt lat="44.92506443537474" lon="9.85160503622443"><ele>80.0</ele><time>2026-04-25T12:19:32Z</time></trkpt><trkpt lat="44.92514964928867" lon="9.851615136247966"><ele>80.5</ele><time>2026-04-25T12:19:33Z</time></trkpt><trkpt lat="44.92523350364916" lon="9.851621328135616"><ele>81.0</ele><time>2026-04-25T12:19:34Z</time></trkpt><trkpt lat="44.92531703300207" lon="9.851634497130158"><ele>81.5</ele><time>2026-04-25T12:19:35Z</time></trkpt><trkpt lat="44.925401330501025" lon="9.851640415541418"><ele>82.0</ele><time>2026-04-25T12:19:36Z</time></trkpt><trkpt lat="44.92548596562609" lon="9.851648367848007"><ele>82.5</ele><time>2026-04-25T12:19:37Z</time></trkpt><trkpt lat="44.92556700159601" lon="9.85165796845672"><ele>83.0</ele><time>2026-04-25T12:19:38Z</time></trkpt><trkpt lat="44.92564886624678" lon="9.85167664931737"><ele>83.0</ele><time>2026-04-25T12:19:39Z</time></trkpt><trkpt lat="44.92572128356788" lon="9.851728902587787"><ele>83.0</ele><time>2026-04-25T12:19:40Z</time></trkpt><trkpt lat="44.92577707418503" lon="9.851818258425658"><ele>83.0</ele><time>2026-04-25T12:19:41Z</time></trkpt><trkpt lat="44.92577058409071" lon="9.85195537604694"><ele>83.0</ele><time>2026-04-25T12:19:42Z</time></trkpt><trkpt lat="44.925787913278704" lon="9.852078056496484"><ele>83.0</ele><time>2026-04-25T12:19:43Z</time></trkpt><trkpt lat="44.925815398702085" lon="9.85219601614526"><ele>83.0</ele><time>2026-04-25T12:19:44Z</time></trkpt><trkpt lat="44.92582727628839" lon="9.852319499619203"><ele>82.83333333333334</ele><time>2026-04-25T12:19:45Z</time></trkpt><trkpt lat="44.925843122393424" lon="9.852440150390112"><ele>82.66666666666667</ele><time>2026-04-25T12:19:46Z</time></trkpt><trkpt lat="44.925858526750226" lon="9.852562975550807"><ele>82.5</ele><time>2026-04-25T12:19:46.999Z</time></trkpt><trkpt lat="44.92587360072285" lon="9.852685926660634"><ele>82.33333333333333</ele><time>2026-04-25T12:19:47.999Z</time></trkpt><trkpt lat="44.925889800089536" lon="9.852811119562029"><ele>82.16666666666666</ele><time>2026-04-25T12:19:48.999Z</time></trkpt><trkpt lat="44.92590496645318" lon="9.852934387398285"><ele>82.0</ele><time>2026-04-25T12:19:49.999Z</time></trkpt><trkpt lat="44.92592042172571" lon="9.853059001931486"><ele>82.0</ele><time>2026-04-25T12:19:50.999Z</time></trkpt><trkpt lat="44.92593669394505" lon="9.853180968766798"><ele>82.0</ele><time>2026-04-25T12:19:51.999Z</time></trkpt><trkpt lat="44.92595246891309" lon="9.853304555933194"><ele>82.0</ele><time>2026-04-25T12:19:52.999Z</time></trkpt><trkpt lat="44.92596756744721" lon="9.853421252700153"><ele>82.0</ele><time>2026-04-25T12:19:53.999Z</time></trkpt><trkpt lat="44.9259829545074" lon="9.853532124813087"><ele>82.0</ele><time>2026-04-25T12:19:54.999Z</time></trkpt><trkpt lat="44.92600228438637" lon="9.853636294336667"><ele>82.0</ele><time>2026-04-25T12:19:55.999Z</time></trkpt><trkpt lat="44.926074948202725" lon="9.85372164087472"><ele>82.0</ele><time>2026-04-25T12:19:56.999Z</time></trkpt><trkpt lat="44.92619945419523" lon="9.85368574103539"><ele>82.0</ele><time>2026-04-25T12:19:57.999Z</time></trkpt><trkpt lat="44.92628417884463" lon="9.85367203079453"><ele>82.0</ele><time>2026-04-25T12:19:58.999Z</time></trkpt><trkpt lat="44.926368163870244" lon="9.85366830781128"><ele>82.0</ele><time>2026-04-25T12:19:59.999Z</time></trkpt><trkpt lat="44.9264542335963" lon="9.853679930630562"><ele>82.0</ele><time>2026-04-25T12:20:00.999Z</time></trkpt><trkpt lat="44.92654213471412" lon="9.853692641768173"><ele>82.0</ele><time>2026-04-25T12:20:01.999Z</time></trkpt><trkpt lat="44.926630961326744" lon="9.853706010476856"><ele>82.0</ele><time>2026-04-25T12:20:02.999Z</time></trkpt><trkpt lat="44.926720366411274" lon="9.853719075904303"><ele>82.0</ele><time>2026-04-25T12:20:03.999Z</time></trkpt><trkpt lat="44.92680796887839" lon="9.853738148956728"><ele>82.0</ele><time>2026-04-25T12:20:04.999Z</time></trkpt><trkpt lat="44.92689519748108" lon="9.853761541367692"><ele>82.0</ele><time>2026-04-25T12:20:05.999Z</time></trkpt><trkpt lat="44.926982019858066" lon="9.853783241561226"><ele>82.0</ele><time>2026-04-25T12:20:06.999Z</time></trkpt><trkpt lat="44.92707080759963" lon="9.853806377931662"><ele>81.8</ele><time>2026-04-25T12:20:07.999Z</time></trkpt><trkpt lat="44.92715585231785" lon="9.853829589870614"><ele>81.6</ele><time>2026-04-25T12:20:08.999Z</time></trkpt><trkpt lat="44.92724530364529" lon="9.853852524048047"><ele>81.39999999999999</ele><time>2026-04-25T12:20:09.999Z</time></trkpt><trkpt lat="44.92733441484546" lon="9.853874705190995"><ele>81.19999999999999</ele><time>2026-04-25T12:20:10.999Z</time></trkpt><trkpt lat="44.92742319950641" lon="9.853900780310525"><ele>81.0</ele><time>2026-04-25T12:20:11.999Z</time></trkpt><trkpt lat="44.9275133453348" lon="9.853927416480476"><ele>81.0</ele><time>2026-04-25T12:20:12.999Z</time></trkpt><trkpt lat="44.927603887579494" lon="9.85395364404464"><ele>81.0</ele><time>2026-04-25T12:20:13.999Z</time></trkpt><trkpt lat="44.92769172780421" lon="9.853977563074682"><ele>81.0</ele><time>2026-04-25T12:20:14.999Z</time></trkpt><trkpt lat="44.92778071402508" lon="9.853997748849137"><ele>81.0</ele><time>2026-04-25T12:20:15.999Z</time></trkpt><trkpt lat="44.92787182619117" lon="9.854017520463197"><ele>81.0</ele><time>2026-04-25T12:20:16.999Z</time></trkpt><trkpt lat="44.927961662145876" lon="9.854035187887003"><ele>81.0</ele><time>2026-04-25T12:20:17.999Z</time></trkpt><trkpt lat="44.92805221462038" lon="9.85405003604705"><ele>81.0</ele><time>2026-04-25T12:20:18.999Z</time></trkpt><trkpt lat="44.928142407808735" lon="9.854063242855016"><ele>81.0</ele><time>2026-04-25T12:20:19.999Z</time></trkpt><trkpt lat="44.92823169546577" lon="9.854070397310759"><ele>81.0</ele><time>2026-04-25T12:20:20.999Z</time></trkpt><trkpt lat="44.928320661869584" lon="9.854086564140557"><ele>81.0</ele><time>2026-04-25T12:20:21.999Z</time></trkpt><trkpt lat="44.92840861972138" lon="9.854103935788435"><ele>81.0</ele><time>2026-04-25T12:20:22.999Z</time></trkpt><trkpt lat="44.92849764767449" lon="9.854127338267485"><ele>81.0</ele><time>2026-04-25T12:20:23.999Z</time></trkpt><trkpt lat="44.928582833722" lon="9.854151013213016"><ele>81.0</ele><time>2026-04-25T12:20:24.999Z</time></trkpt><trkpt lat="44.928670455270804" lon="9.85417880278185"><ele>81.0</ele><time>2026-04-25T12:20:25.999Z</time></trkpt><trkpt lat="44.928756070783464" lon="9.85420628704972"><ele>81.0</ele><time>2026-04-25T12:20:26.999Z</time></trkpt><trkpt lat="44.9288437895944" lon="9.85423318230725"><ele>81.0</ele><time>2026-04-25T12:20:27.999Z</time></trkpt><trkpt lat="44.92892844376265" lon="9.854257352712406"><ele>81.0</ele><time>2026-04-25T12:20:28.999Z</time></trkpt><trkpt lat="44.92900914735716" lon="9.85428031176124"><ele>81.0</ele><time>2026-04-25T12:20:29.999Z</time></trkpt><trkpt lat="44.92909410357953" lon="9.854308729641327"><ele>81.0</ele><time>2026-04-25T12:20:30.999Z</time></trkpt><trkpt lat="44.92918719920274" lon="9.854340113193125"><ele>81.0</ele><time>2026-04-25T12:20:31.999Z</time></trkpt><trkpt lat="44.92927700041548" lon="9.854361112506796"><ele>81.0</ele><time>2026-04-25T12:20:32.999Z</time></trkpt><trkpt lat="44.92936620446448" lon="9.854383384350792"><ele>81.0</ele><time>2026-04-25T12:20:33.999Z</time></trkpt><trkpt lat="44.929455553714504" lon="9.854403570487781"><ele>81.0</ele><time>2026-04-25T12:20:34.999Z</time></trkpt><trkpt lat="44.929545524470996" lon="9.854424965601009"><ele>81.0</ele><time>2026-04-25T12:20:35.999Z</time></trkpt><trkpt lat="44.929634759272375" lon="9.854443627206393"><ele>81.0</ele><time>2026-04-25T12:20:36.999Z</time></trkpt><trkpt lat="44.92972481547054" lon="9.854464021357288"><ele>81.0</ele><time>2026-04-25T12:20:37.999Z</time></trkpt><trkpt lat="44.92981234883088" lon="9.854490298215518"><ele>81.0</ele><time>2026-04-25T12:20:38.999Z</time></trkpt><trkpt lat="44.92990228201364" lon="9.854515916543077"><ele>81.0</ele><time>2026-04-25T12:20:39.999Z</time></trkpt><trkpt lat="44.92999128931224" lon="9.85454273626211"><ele>81.0</ele><time>2026-04-25T12:20:40.999Z</time></trkpt><trkpt lat="44.93007996055513" lon="9.85456928474193"><ele>81.0</ele><time>2026-04-25T12:20:41.999Z</time></trkpt><trkpt lat="44.93016984534458" lon="9.854596726984495"><ele>81.0</ele><time>2026-04-25T12:20:42.999Z</time></trkpt><trkpt lat="44.93025844634905" lon="9.854630626354634"><ele>81.0</ele><time>2026-04-25T12:20:43.999Z</time></trkpt><trkpt lat="44.930346975425" lon="9.854665958596328"><ele>80.39999999999999</ele><time>2026-04-25T12:20:44.998Z</time></trkpt><trkpt lat="44.93043515720816" lon="9.854700741005187"><ele>79.8</ele><time>2026-04-25T12:20:45.998Z</time></trkpt><trkpt lat="44.930523335110216" lon="9.85473373663646"><ele>79.19999999999999</ele><time>2026-04-25T12:20:46.998Z</time></trkpt><trkpt lat="44.93061241506201" lon="9.85477012773008"><ele>78.6</ele><time>2026-04-25T12:20:47.998Z</time></trkpt><trkpt lat="44.93070019992221" lon="9.854808599718293"><ele>78.0</ele><time>2026-04-25T12:20:48.998Z</time></trkpt><trkpt lat="44.9307876753603" lon="9.854844633114165"><ele>78.0</ele><time>2026-04-25T12:20:49.998Z</time></trkpt><trkpt lat="44.93087556425384" lon="9.854878947395267"><ele>78.0</ele><time>2026-04-25T12:20:50.998Z</time></trkpt><trkpt lat="44.93096680080098" lon="9.854915192763736"><ele>78.0</ele><time>2026-04-25T12:20:51.998Z</time></trkpt><trkpt lat="44.93105520792031" lon="9.854953633745836"><ele>78.0</ele><time>2026-04-25T12:20:52.998Z</time></trkpt><trkpt lat="44.93114244938056" lon="9.854991275467297"><ele>78.0</ele><time>2026-04-25T12:20:53.998Z</time></trkpt><trkpt lat="44.931230720776234" lon="9.855027332973755"><ele>78.0</ele><time>2026-04-25T12:20:54.998Z</time></trkpt><trkpt lat="44.93131808325026" lon="9.855062731309719"><ele>78.0</ele><time>2026-04-25T12:20:55.998Z</time></trkpt><trkpt lat="44.931404851692776" lon="9.855099172883275"><ele>78.0</ele><time>2026-04-25T12:20:56.998Z</time></trkpt><trkpt lat="44.931491824143606" lon="9.855132935295963"><ele>78.0</ele><time>2026-04-25T12:20:57.998Z</time></trkpt><trkpt lat="44.93157522431393" lon="9.85516587784308"><ele>78.0</ele><time>2026-04-25T12:20:58.998Z</time></trkpt><trkpt lat="44.931660853178876" lon="9.855200549253352"><ele>78.0</ele><time>2026-04-25T12:20:59.998Z</time></trkpt><trkpt lat="44.931747742365864" lon="9.85523306965795"><ele>78.0</ele><time>2026-04-25T12:21:00.998Z</time></trkpt><trkpt lat="44.93183565817927" lon="9.85526729696851"><ele>78.0</ele><time>2026-04-25T12:21:01.998Z</time></trkpt><trkpt lat="44.93192396009938" lon="9.855305900707325"><ele>78.0</ele><time>2026-04-25T12:21:03Z</time></trkpt><trkpt lat="44.93201065454734" lon="9.855341397156257"><ele>78.0</ele><time>2026-04-25T12:21:04Z</time></trkpt><trkpt lat="44.93209976557793" lon="9.855377876650895"><ele>78.0</ele><time>2026-04-25T12:21:05Z</time></trkpt><trkpt lat="44.932187828256666" lon="9.85542115867126"><ele>78.0</ele><time>2026-04-25T12:21:06Z</time></trkpt><trkpt lat="44.932275026976605" lon="9.855461876619342"><ele>78.0</ele><time>2026-04-25T12:21:07Z</time></trkpt><trkpt lat="44.93236184903321" lon="9.855504246144983"><ele>78.0</ele><time>2026-04-25T12:21:08Z</time></trkpt><trkpt lat="44.93244642084584" lon="9.855548110970961"><ele>78.0</ele><time>2026-04-25T12:21:09Z</time></trkpt><trkpt lat="44.93253212755715" lon="9.855595253748566"><ele>78.0</ele><time>2026-04-25T12:21:10Z</time></trkpt><trkpt lat="44.93261596446213" lon="9.855648741980268"><ele>78.2</ele><time>2026-04-25T12:21:11Z</time></trkpt><trkpt lat="44.93269572240467" lon="9.855705382948852"><ele>78.4</ele><time>2026-04-25T12:21:12Z</time></trkpt><trkpt lat="44.932778354187434" lon="9.85575854322758"><ele>78.60000000000001</ele><time>2026-04-25T12:21:13Z</time></trkpt><trkpt lat="44.93285865848319" lon="9.85581661264154"><ele>78.8</ele><time>2026-04-25T12:21:14Z</time></trkpt><trkpt lat="44.932939571976874" lon="9.855874922186304"><ele>79.0</ele><time>2026-04-25T12:21:15Z</time></trkpt><trkpt lat="44.93302167631212" lon="9.855931247278509"><ele>79.0</ele><time>2026-04-25T12:21:16Z</time></trkpt><trkpt lat="44.93310534985365" lon="9.855982846548507"><ele>79.0</ele><time>2026-04-25T12:21:17Z</time></trkpt><trkpt lat="44.93318971166878" lon="9.856024911568651"><ele>79.0</ele><time>2026-04-25T12:21:18Z</time></trkpt><trkpt lat="44.933277558344926" lon="9.856062977364344"><ele>79.0</ele><time>2026-04-25T12:21:19Z</time></trkpt><trkpt lat="44.93336519563899" lon="9.856094216899786"><ele>79.0</ele><time>2026-04-25T12:21:20Z</time></trkpt><trkpt lat="44.933455624833165" lon="9.856116153007017"><ele>79.0</ele><time>2026-04-25T12:21:21Z</time></trkpt><trkpt lat="44.933544809996235" lon="9.856138668289512"><ele>79.0</ele><time>2026-04-25T12:21:22Z</time></trkpt><trkpt lat="44.93363465222479" lon="9.856160473761204"><ele>79.0</ele><time>2026-04-25T12:21:23Z</time></trkpt><trkpt lat="44.93372389792317" lon="9.856181701165637"><ele>79.0</ele><time>2026-04-25T12:21:24Z</time></trkpt><trkpt lat="44.933814233290256" lon="9.856200690827704"><ele>79.0</ele><time>2026-04-25T12:21:25Z</time></trkpt><trkpt lat="44.933903504553186" lon="9.85622105384876"><ele>79.0</ele><time>2026-04-25T12:21:26Z</time></trkpt><trkpt lat="44.93399393717816" lon="9.856241061922878"><ele>79.0</ele><time>2026-04-25T12:21:27Z</time></trkpt><trkpt lat="44.93408436983316" lon="9.856261506386232"><ele>79.0</ele><time>2026-04-25T12:21:28Z</time></trkpt><trkpt lat="44.934171940997786" lon="9.856279665511455"><ele>79.0</ele><time>2026-04-25T12:21:29Z</time></trkpt><trkpt lat="44.93426181414973" lon="9.85630420182302"><ele>79.0</ele><time>2026-04-25T12:21:30Z</time></trkpt><trkpt lat="44.93435089177581" lon="9.856329574717297"><ele>79.0</ele><time>2026-04-25T12:21:31Z</time></trkpt><trkpt lat="44.93444191021954" lon="9.856353235894103"><ele>79.0</ele><time>2026-04-25T12:21:32Z</time></trkpt><trkpt lat="44.934533390450596" lon="9.856373565830705"><ele>79.0</ele><time>2026-04-25T12:21:33Z</time></trkpt><trkpt lat="44.93462530222079" lon="9.8563885675215"><ele>79.0</ele><time>2026-04-25T12:21:34Z</time></trkpt><trkpt lat="44.93471665943704" lon="9.856406499715959"><ele>79.0</ele><time>2026-04-25T12:21:35Z</time></trkpt><trkpt lat="44.93481019451006" lon="9.856416736426073"><ele>79.0</ele><time>2026-04-25T12:21:36Z</time></trkpt><trkpt lat="44.93490149093579" lon="9.856427046071662"><ele>79.0</ele><time>2026-04-25T12:21:37Z</time></trkpt><trkpt lat="44.934992856509325" lon="9.856429197766024"><ele>79.0</ele><time>2026-04-25T12:21:38Z</time></trkpt><trkpt lat="44.935085778615544" lon="9.856429703732731"><ele>79.0</ele><time>2026-04-25T12:21:39Z</time></trkpt><trkpt lat="44.9351794002341" lon="9.856430698912103"><ele>79.0</ele><time>2026-04-25T12:21:40Z</time></trkpt><trkpt lat="44.93527121240256" lon="9.85642872913159"><ele>78.8</ele><time>2026-04-25T12:21:41Z</time></trkpt><trkpt lat="44.935363573279815" lon="9.85642599834859"><ele>78.60000000000001</ele><time>2026-04-25T12:21:42Z</time></trkpt><trkpt lat="44.935456060456985" lon="9.856426150384268"><ele>78.4</ele><time>2026-04-25T12:21:43Z</time></trkpt><trkpt lat="44.93554709777208" lon="9.856428547890841"><ele>78.2</ele><time>2026-04-25T12:21:44Z</time></trkpt><trkpt lat="44.93563823383307" lon="9.856431620452131"><ele>78.0</ele><time>2026-04-25T12:21:45Z</time></trkpt><trkpt lat="44.935731808814836" lon="9.856431814922047"><ele>78.0</ele><time>2026-04-25T12:21:46Z</time></trkpt><trkpt lat="44.93582492577564" lon="9.856432417013565"><ele>78.0</ele><time>2026-04-25T12:21:47Z</time></trkpt><trkpt lat="44.93591301006501" lon="9.85643707410639"><ele>78.0</ele><time>2026-04-25T12:21:48Z</time></trkpt><trkpt lat="44.93600337260419" lon="9.856441886063793"><ele>78.0</ele><time>2026-04-25T12:21:48.999Z</time></trkpt><trkpt lat="44.93609588179239" lon="9.856445992006865"><ele>78.0</ele><time>2026-04-25T12:21:49.999Z</time></trkpt><trkpt lat="44.93618842131669" lon="9.856452321898717"><ele>77.8</ele><time>2026-04-25T12:21:50.999Z</time></trkpt><trkpt lat="44.936278469083376" lon="9.856455520010728"><ele>77.6</ele><time>2026-04-25T12:21:51.999Z</time></trkpt><trkpt lat="44.93637001550695" lon="9.856460835130944"><ele>77.4</ele><time>2026-04-25T12:21:52.999Z</time></trkpt><trkpt lat="44.93645923414526" lon="9.856461338999278"><ele>77.2</ele><time>2026-04-25T12:21:53.999Z</time></trkpt><trkpt lat="44.93654944207807" lon="9.856464498065707"><ele>77.0</ele><time>2026-04-25T12:21:54.999Z</time></trkpt><trkpt lat="44.93663999414888" lon="9.85646970095233"><ele>76.6</ele><time>2026-04-25T12:21:55.999Z</time></trkpt><trkpt lat="44.93672957113472" lon="9.85647551964186"><ele>76.2</ele><time>2026-04-25T12:21:56.999Z</time></trkpt><trkpt lat="44.93682034800529" lon="9.856476296913566"><ele>75.8</ele><time>2026-04-25T12:21:57.999Z</time></trkpt><trkpt lat="44.9369116376581" lon="9.856480770887929"><ele>75.4</ele><time>2026-04-25T12:21:58.999Z</time></trkpt><trkpt lat="44.93700133436016" lon="9.856481667633139"><ele>75.0</ele><time>2026-04-25T12:21:59.999Z</time></trkpt><trkpt lat="44.93709116657689" lon="9.856485362826238"><ele>75.0</ele><time>2026-04-25T12:22:00.999Z</time></trkpt><trkpt lat="44.937178566321116" lon="9.856477223249026"><ele>75.0</ele><time>2026-04-25T12:22:01.999Z</time></trkpt><trkpt lat="44.93726410119313" lon="9.856440676025422"><ele>75.0</ele><time>2026-04-25T12:22:02.999Z</time></trkpt><trkpt lat="44.93734651845411" lon="9.856371856766376"><ele>75.0</ele><time>2026-04-25T12:22:03.999Z</time></trkpt><trkpt lat="44.9373988494834" lon="9.856259573745941"><ele>75.0</ele><time>2026-04-25T12:22:04.999Z</time></trkpt><trkpt lat="44.9374341068997" lon="9.856142201845667"><ele>75.0</ele><time>2026-04-25T12:22:05.999Z</time></trkpt><trkpt lat="44.93747404126551" lon="9.856040060844864"><ele>75.0</ele><time>2026-04-25T12:22:06.999Z</time></trkpt><trkpt lat="44.937540305838944" lon="9.855975320852414"><ele>75.0</ele><time>2026-04-25T12:22:07.999Z</time></trkpt><trkpt lat="44.937620194540635" lon="9.85593513417897"><ele>75.0</ele><time>2026-04-25T12:22:08.999Z</time></trkpt><trkpt lat="44.93770004368008" lon="9.856018577291264"><ele>75.0</ele><time>2026-04-25T12:22:09.999Z</time></trkpt><trkpt lat="44.93778690636325" lon="9.856065492287817"><ele>75.0</ele><time>2026-04-25T12:22:10.999Z</time></trkpt><trkpt lat="44.9378707366224" lon="9.856099728778673"><ele>75.16666666666667</ele><time>2026-04-25T12:22:11.999Z</time></trkpt><trkpt lat="44.93795383260641" lon="9.856151719515198"><ele>75.33333333333333</ele><time>2026-04-25T12:22:12.999Z</time></trkpt><trkpt lat="44.93803668446613" lon="9.856193048067317"><ele>75.5</ele><time>2026-04-25T12:22:13.999Z</time></trkpt><trkpt lat="44.93812057482857" lon="9.856235418880427"><ele>75.66666666666666</ele><time>2026-04-25T12:22:14.999Z</time></trkpt><trkpt lat="44.93820229330168" lon="9.85627757268975"><ele>75.83333333333333</ele><time>2026-04-25T12:22:15.999Z</time></trkpt><trkpt lat="44.938284479407045" lon="9.856319585197442"><ele>76.0</ele><time>2026-04-25T12:22:16.999Z</time></trkpt><trkpt lat="44.93836738991016" lon="9.856363604768157"><ele>75.83333333333333</ele><time>2026-04-25T12:22:17.999Z</time></trkpt><trkpt lat="44.93844980955088" lon="9.856409184438629"><ele>75.66666666666666</ele><time>2026-04-25T12:22:18.999Z</time></trkpt><trkpt lat="44.93853337930311" lon="9.856454892392309"><ele>75.5</ele><time>2026-04-25T12:22:19.999Z</time></trkpt><trkpt lat="44.93861630961297" lon="9.85649969184243"><ele>75.33333333333333</ele><time>2026-04-25T12:22:20.999Z</time></trkpt><trkpt lat="44.938699922120435" lon="9.856545446567104"><ele>75.16666666666667</ele><time>2026-04-25T12:22:21.999Z</time></trkpt><trkpt lat="44.93878507265811" lon="9.856587020828593"><ele>75.0</ele><time>2026-04-25T12:22:22.999Z</time></trkpt><trkpt lat="44.93886759121419" lon="9.856630759663776"><ele>75.0</ele><time>2026-04-25T12:22:23.999Z</time></trkpt><trkpt lat="44.93895114654097" lon="9.856673389480346"><ele>75.0</ele><time>2026-04-25T12:22:24.999Z</time></trkpt><trkpt lat="44.93903150235057" lon="9.856721689660256"><ele>75.0</ele><time>2026-04-25T12:22:25.999Z</time></trkpt><trkpt lat="44.93911090604966" lon="9.856767679484651"><ele>75.0</ele><time>2026-04-25T12:22:26.999Z</time></trkpt><trkpt lat="44.93918995021894" lon="9.856808379648813"><ele>75.0</ele><time>2026-04-25T12:22:27.999Z</time></trkpt><trkpt lat="44.939273062236765" lon="9.856811356867697"><ele>75.0</ele><time>2026-04-25T12:22:28.999Z</time></trkpt><trkpt lat="44.939346830487125" lon="9.85674786580904"><ele>75.16666666666667</ele><time>2026-04-25T12:22:29.999Z</time></trkpt><trkpt lat="44.939397273270856" lon="9.856642630675086"><ele>75.33333333333333</ele><time>2026-04-25T12:22:30.999Z</time></trkpt><trkpt lat="44.93942576744578" lon="9.856527396562283"><ele>75.5</ele><time>2026-04-25T12:22:31.999Z</time></trkpt><trkpt lat="44.939452690756276" lon="9.856418983979522"><ele>75.66666666666666</ele><time>2026-04-25T12:22:32.999Z</time></trkpt><trkpt lat="44.939485221106914" lon="9.856313799270653"><ele>75.83333333333333</ele><time>2026-04-25T12:22:33.999Z</time></trkpt><trkpt lat="44.93951861961489" lon="9.85620729305595"><ele>76.0</ele><time>2026-04-25T12:22:34.999Z</time></trkpt><trkpt lat="44.93954843646974" lon="9.856099666427143"><ele>76.0</ele><time>2026-04-25T12:22:35.999Z</time></trkpt><trkpt lat="44.9395724550242" lon="9.855987753506783"><ele>76.0</ele><time>2026-04-25T12:22:36.999Z</time></trkpt><trkpt lat="44.93961032197157" lon="9.85588535602134"><ele>76.0</ele><time>2026-04-25T12:22:37.999Z</time></trkpt><trkpt lat="44.93963328585357" lon="9.855774793173993"><ele>76.0</ele><time>2026-04-25T12:22:38.999Z</time></trkpt><trkpt lat="44.93965420246758" lon="9.855663950318835"><ele>76.0</ele><time>2026-04-25T12:22:39.999Z</time></trkpt><trkpt lat="44.939673118212006" lon="9.855551565215723"><ele>76.0</ele><time>2026-04-25T12:22:40.999Z</time></trkpt><trkpt lat="44.93969066907079" lon="9.855441102591806"><ele>76.0</ele><time>2026-04-25T12:22:41.999Z</time></trkpt><trkpt lat="44.939706111113324" lon="9.855331769423534"><ele>76.0</ele><time>2026-04-25T12:22:42.999Z</time></trkpt><trkpt lat="44.93970603641049" lon="9.855218896445471"><ele>76.0</ele><time>2026-04-25T12:22:43.999Z</time></trkpt><trkpt lat="44.93971752149967" lon="9.855113575534556"><ele>76.0</ele><time>2026-04-25T12:22:44.999Z</time></trkpt><trkpt lat="44.93974554809729" lon="9.855017351016311"><ele>76.0</ele><time>2026-04-25T12:22:45.999Z</time></trkpt><trkpt lat="44.93975576696402" lon="9.85492112886922"><ele>76.0</ele><time>2026-04-25T12:22:46.999Z</time></trkpt><trkpt lat="44.939752926098436" lon="9.854824928638921"><ele>76.0</ele><time>2026-04-25T12:22:47.998Z</time></trkpt><trkpt lat="44.93979458054844" lon="9.854749461414297"><ele>76.0</ele><time>2026-04-25T12:22:48.998Z</time></trkpt><trkpt lat="44.93992580672718" lon="9.854769704644381"><ele>76.0</ele><time>2026-04-25T12:22:50.998Z</time></trkpt><trkpt lat="44.939991690336804" lon="9.854790707447403"><ele>76.0</ele><time>2026-04-25T12:22:51.998Z</time></trkpt><trkpt lat="44.94012062922561" lon="9.85481599228719"><ele>76.0</ele><time>2026-04-25T12:22:53.998Z</time></trkpt><trkpt lat="44.94018466139637" lon="9.85484474878202"><ele>76.0</ele><time>2026-04-25T12:22:54.998Z</time></trkpt><trkpt lat="44.94025153852544" lon="9.854872793719066"><ele>75.83333333333333</ele><time>2026-04-25T12:22:55.998Z</time></trkpt><trkpt lat="44.94032205385959" lon="9.854899702035413"><ele>75.66666666666666</ele><time>2026-04-25T12:22:56.998Z</time></trkpt><trkpt lat="44.94039309173432" lon="9.854930077337764"><ele>75.5</ele><time>2026-04-25T12:22:57.998Z</time></trkpt><trkpt lat="44.94046598097917" lon="9.854961441008943"><ele>75.33333333333333</ele><time>2026-04-25T12:22:58.998Z</time></trkpt><trkpt lat="44.940542125743114" lon="9.854994530103085"><ele>75.16666666666667</ele><time>2026-04-25T12:22:59.998Z</time></trkpt><trkpt lat="44.940624662604726" lon="9.855029389960807"><ele>75.0</ele><time>2026-04-25T12:23:00.998Z</time></trkpt><trkpt lat="44.94070821042197" lon="9.85506642969517"><ele>75.0</ele><time>2026-04-25T12:23:01.998Z</time></trkpt><trkpt lat="44.94079276660539" lon="9.855099013119432"><ele>75.0</ele><time>2026-04-25T12:23:02.998Z</time></trkpt><trkpt lat="44.9408756944963" lon="9.855127797916271"><ele>75.0</ele><time>2026-04-25T12:23:03.998Z</time></trkpt><trkpt lat="44.940960731137295" lon="9.855161517112535"><ele>75.0</ele><time>2026-04-25T12:23:04.998Z</time></trkpt><trkpt lat="44.94104397542445" lon="9.855196059457283"><ele>75.0</ele><time>2026-04-25T12:23:05.998Z</time></trkpt><trkpt lat="44.94112986978538" lon="9.855227360662937"><ele>75.0</ele><time>2026-04-25T12:23:06.998Z</time></trkpt><trkpt lat="44.941214767232694" lon="9.855259248177394"><ele>75.0</ele><time>2026-04-25T12:23:07.998Z</time></trkpt><trkpt lat="44.94130069716303" lon="9.855290194580146"><ele>75.0</ele><time>2026-04-25T12:23:09Z</time></trkpt><trkpt lat="44.94138672087442" lon="9.85531979023435"><ele>75.0</ele><time>2026-04-25T12:23:10Z</time></trkpt><trkpt lat="44.94147384641945" lon="9.855352259826885"><ele>75.0</ele><time>2026-04-25T12:23:11Z</time></trkpt><trkpt lat="44.94156243969773" lon="9.855387954769776"><ele>75.0</ele><time>2026-04-25T12:23:12Z</time></trkpt><trkpt lat="44.94165115824388" lon="9.855423184066375"><ele>75.2</ele><time>2026-04-25T12:23:13Z</time></trkpt><trkpt lat="44.94174074887462" lon="9.85545396678104"><ele>75.4</ele><time>2026-04-25T12:23:14Z</time></trkpt><trkpt lat="44.941833709979534" lon="9.855482705234856"><ele>75.6</ele><time>2026-04-25T12:23:15Z</time></trkpt><trkpt lat="44.94192345097553" lon="9.85551500259673"><ele>75.8</ele><time>2026-04-25T12:23:16Z</time></trkpt><trkpt lat="44.94201454287395" lon="9.855543853993794"><ele>76.0</ele><time>2026-04-25T12:23:17Z</time></trkpt><trkpt lat="44.942104741699886" lon="9.85557612004761"><ele>76.0</ele><time>2026-04-25T12:23:18Z</time></trkpt><trkpt lat="44.94219326052067" lon="9.85562014009889"><ele>76.0</ele><time>2026-04-25T12:23:19Z</time></trkpt><trkpt lat="44.94228025845376" lon="9.85567438172748"><ele>76.0</ele><time>2026-04-25T12:23:20Z</time></trkpt><trkpt lat="44.94236693103" lon="9.855729606465731"><ele>76.0</ele><time>2026-04-25T12:23:21Z</time></trkpt><trkpt lat="44.942451644022974" lon="9.855783416749286"><ele>76.0</ele><time>2026-04-25T12:23:22Z</time></trkpt><trkpt lat="44.9425360209977" lon="9.855833751255483"><ele>75.8</ele><time>2026-04-25T12:23:23Z</time></trkpt><trkpt lat="44.94261966998731" lon="9.855884523988156"><ele>75.6</ele><time>2026-04-25T12:23:24Z</time></trkpt><trkpt lat="44.94269915669191" lon="9.855942255963031"><ele>75.4</ele><time>2026-04-25T12:23:25Z</time></trkpt><trkpt lat="44.94278204270637" lon="9.856004107006886"><ele>75.2</ele><time>2026-04-25T12:23:26Z</time></trkpt><trkpt lat="44.94286398470804" lon="9.8560641271214"><ele>75.0</ele><time>2026-04-25T12:23:27Z</time></trkpt><trkpt lat="44.94294417349202" lon="9.856124091433978"><ele>75.0</ele><time>2026-04-25T12:23:28Z</time></trkpt><trkpt lat="44.94302164196524" lon="9.856191735929063"><ele>75.0</ele><time>2026-04-25T12:23:29Z</time></trkpt><trkpt lat="44.94309717187779" lon="9.856261587811568"><ele>75.0</ele><time>2026-04-25T12:23:30Z</time></trkpt><trkpt lat="44.94317053057707" lon="9.85633192235832"><ele>75.0</ele><time>2026-04-25T12:23:31Z</time></trkpt><trkpt lat="44.943250278141655" lon="9.856400006499904"><ele>75.0</ele><time>2026-04-25T12:23:32Z</time></trkpt><trkpt lat="44.94332873121966" lon="9.856462456716661"><ele>74.8</ele><time>2026-04-25T12:23:33Z</time></trkpt><trkpt lat="44.94341156059626" lon="9.856520251296335"><ele>74.6</ele><time>2026-04-25T12:23:34Z</time></trkpt><trkpt lat="44.94348977852705" lon="9.856569817826404"><ele>74.4</ele><time>2026-04-25T12:23:35Z</time></trkpt><trkpt lat="44.94357414785235" lon="9.856609852636268"><ele>74.2</ele><time>2026-04-25T12:23:36Z</time></trkpt><trkpt lat="44.94366595063649" lon="9.856636769182375"><ele>74.0</ele><time>2026-04-25T12:23:37Z</time></trkpt><trkpt lat="44.94375757509559" lon="9.856650788284647"><ele>74.0</ele><time>2026-04-25T12:23:38Z</time></trkpt><trkpt lat="44.94384930421382" lon="9.85667424930262"><ele>74.0</ele><time>2026-04-25T12:23:39Z</time></trkpt><trkpt lat="44.94394216221023" lon="9.856689649285828"><ele>74.0</ele><time>2026-04-25T12:23:40Z</time></trkpt><trkpt lat="44.944036200842895" lon="9.856705974480358"><ele>74.0</ele><time>2026-04-25T12:23:41Z</time></trkpt><trkpt lat="44.94412750394036" lon="9.85671909192253"><ele>74.0</ele><time>2026-04-25T12:23:42Z</time></trkpt><trkpt lat="44.94421775319296" lon="9.856734434892381"><ele>73.66666666666667</ele><time>2026-04-25T12:23:43Z</time></trkpt><trkpt lat="44.94430642667287" lon="9.856747029864106"><ele>73.33333333333334</ele><time>2026-04-25T12:23:44Z</time></trkpt><trkpt lat="44.944390943656735" lon="9.856764001833891"><ele>73.0</ele><time>2026-04-25T12:23:45Z</time></trkpt><trkpt lat="44.94447669819063" lon="9.85678252690774"><ele>72.66666666666667</ele><time>2026-04-25T12:23:46Z</time></trkpt><trkpt lat="44.94456160687262" lon="9.856802388626466"><ele>72.33333333333333</ele><time>2026-04-25T12:23:47Z</time></trkpt><trkpt lat="44.944652258334024" lon="9.856825464066887"><ele>72.0</ele><time>2026-04-25T12:23:48Z</time></trkpt><trkpt lat="44.94474228204716" lon="9.856851948777809"><ele>72.4</ele><time>2026-04-25T12:23:49Z</time></trkpt><trkpt lat="44.944834708258455" lon="9.856871705057703"><ele>72.80000000000001</ele><time>2026-04-25T12:23:50Z</time></trkpt><trkpt lat="44.94492849360528" lon="9.856884780861385"><ele>73.2</ele><time>2026-04-25T12:23:51Z</time></trkpt><trkpt lat="44.94501858614088" lon="9.85689922758792"><ele>73.60000000000001</ele><time>2026-04-25T12:23:52Z</time></trkpt><trkpt lat="44.945108885221295" lon="9.856914291168845"><ele>74.0</ele><time>2026-04-25T12:23:53Z</time></trkpt><trkpt lat="44.945200085417405" lon="9.856936099946662"><ele>74.0</ele><time>2026-04-25T12:23:54Z</time></trkpt><trkpt lat="44.945291177865315" lon="9.856956284581088"><ele>74.0</ele><time>2026-04-25T12:23:54.999Z</time></trkpt><trkpt lat="44.94538144198764" lon="9.856973011293006"><ele>74.0</ele><time>2026-04-25T12:23:55.999Z</time></trkpt><trkpt lat="44.94547096486885" lon="9.856988289906784"><ele>74.0</ele><time>2026-04-25T12:23:56.999Z</time></trkpt><trkpt lat="44.945559956927944" lon="9.857003378993877"><ele>74.0</ele><time>2026-04-25T12:23:57.999Z</time></trkpt><trkpt lat="44.94565180337639" lon="9.857019103390607"><ele>74.0</ele><time>2026-04-25T12:23:58.999Z</time></trkpt><trkpt lat="44.94574372402823" lon="9.85703864615515"><ele>74.0</ele><time>2026-04-25T12:23:59.999Z</time></trkpt><trkpt lat="44.945835793941484" lon="9.857050687048858"><ele>74.0</ele><time>2026-04-25T12:24:00.999Z</time></trkpt><trkpt lat="44.94592495553565" lon="9.857063300782618"><ele>74.0</ele><time>2026-04-25T12:24:01.999Z</time></trkpt><trkpt lat="44.94601823385842" lon="9.857079557956178"><ele>74.0</ele><time>2026-04-25T12:24:02.999Z</time></trkpt><trkpt lat="44.94611504477502" lon="9.857093638933337"><ele>74.0</ele><time>2026-04-25T12:24:03.999Z</time></trkpt><trkpt lat="44.94620442727463" lon="9.857113322873571"><ele>74.0</ele><time>2026-04-25T12:24:04.999Z</time></trkpt><trkpt lat="44.94629568651671" lon="9.85713234066336"><ele>74.0</ele><time>2026-04-25T12:24:05.999Z</time></trkpt><trkpt lat="44.94638457125678" lon="9.857149035776692"><ele>74.0</ele><time>2026-04-25T12:24:06.999Z</time></trkpt><trkpt lat="44.94647287867114" lon="9.857161623819902"><ele>74.0</ele><time>2026-04-25T12:24:07.999Z</time></trkpt><trkpt lat="44.9465615669242" lon="9.857170517325748"><ele>74.0</ele><time>2026-04-25T12:24:08.999Z</time></trkpt><trkpt lat="44.94664988845019" lon="9.857180265511714"><ele>74.0</ele><time>2026-04-25T12:24:09.999Z</time></trkpt><trkpt lat="44.94674185915988" lon="9.857186684740267"><ele>74.0</ele><time>2026-04-25T12:24:10.999Z</time></trkpt><trkpt lat="44.94683100576806" lon="9.857196576078943"><ele>74.0</ele><time>2026-04-25T12:24:11.999Z</time></trkpt><trkpt lat="44.94692425469684" lon="9.857195125686136"><ele>74.0</ele><time>2026-04-25T12:24:12.999Z</time></trkpt><trkpt lat="44.94701733763997" lon="9.85719620963106"><ele>74.0</ele><time>2026-04-25T12:24:13.999Z</time></trkpt><trkpt lat="44.94711023536631" lon="9.857212071969288"><ele>74.0</ele><time>2026-04-25T12:24:14.999Z</time></trkpt><trkpt lat="44.94720070481884" lon="9.857246968592897"><ele>74.0</ele><time>2026-04-25T12:24:15.999Z</time></trkpt><trkpt lat="44.94728647726469" lon="9.857302153696999"><ele>74.0</ele><time>2026-04-25T12:24:16.999Z</time></trkpt><trkpt lat="44.947365463634334" lon="9.857377584358934"><ele>74.0</ele><time>2026-04-25T12:24:17.999Z</time></trkpt><trkpt lat="44.94744154614612" lon="9.857455874110764"><ele>74.0</ele><time>2026-04-25T12:24:18.999Z</time></trkpt><trkpt lat="44.94751428043541" lon="9.857523786749217"><ele>74.0</ele><time>2026-04-25T12:24:19.999Z</time></trkpt><trkpt lat="44.947592463101834" lon="9.857581271131345"><ele>74.0</ele><time>2026-04-25T12:24:20.999Z</time></trkpt><trkpt lat="44.94766614683681" lon="9.857648798674493"><ele>74.0</ele><time>2026-04-25T12:24:21.999Z</time></trkpt><trkpt lat="44.947740807874666" lon="9.857726213401389"><ele>74.0</ele><time>2026-04-25T12:24:22.999Z</time></trkpt><trkpt lat="44.94781451246065" lon="9.857803831293499"><ele>74.0</ele><time>2026-04-25T12:24:23.999Z</time></trkpt><trkpt lat="44.94788780648553" lon="9.857874104938977"><ele>73.5</ele><time>2026-04-25T12:24:24.999Z</time></trkpt><trkpt lat="44.94796244207944" lon="9.857944928708466"><ele>73.0</ele><time>2026-04-25T12:24:25.999Z</time></trkpt><trkpt lat="44.94803797743753" lon="9.858014246513727"><ele>72.5</ele><time>2026-04-25T12:24:26.999Z</time></trkpt><trkpt lat="44.948109581357436" lon="9.858086854955502"><ele>72.0</ele><time>2026-04-25T12:24:27.999Z</time></trkpt><trkpt lat="44.948180647428785" lon="9.858163126254476"><ele>71.5</ele><time>2026-04-25T12:24:28.999Z</time></trkpt><trkpt lat="44.94825272754409" lon="9.85823658167423"><ele>71.0</ele><time>2026-04-25T12:24:29.999Z</time></trkpt><trkpt lat="44.94832556649321" lon="9.858307188702128"><ele>70.83333333333334</ele><time>2026-04-25T12:24:30.999Z</time></trkpt><trkpt lat="44.94840048071244" lon="9.85837916798463"><ele>70.66666666666667</ele><time>2026-04-25T12:24:31.999Z</time></trkpt><trkpt lat="44.94847091965865" lon="9.858452795365556"><ele>70.5</ele><time>2026-04-25T12:24:32.999Z</time></trkpt><trkpt lat="44.948542106152495" lon="9.85852669972151"><ele>70.33333333333333</ele><time>2026-04-25T12:24:33.999Z</time></trkpt><trkpt lat="44.948616944785044" lon="9.858602779922244"><ele>70.16666666666666</ele><time>2026-04-25T12:24:34.999Z</time></trkpt><trkpt lat="44.94868910047802" lon="9.858675516279066"><ele>70.0</ele><time>2026-04-25T12:24:35.999Z</time></trkpt><trkpt lat="44.94876393568551" lon="9.858754003798527"><ele>69.83333333333333</ele><time>2026-04-25T12:24:36.999Z</time></trkpt><trkpt lat="44.94883807740051" lon="9.858824330041127"><ele>69.66666666666666</ele><time>2026-04-25T12:24:37.999Z</time></trkpt><trkpt lat="44.948916063520095" lon="9.858885506159616"><ele>69.5</ele><time>2026-04-25T12:24:38.999Z</time></trkpt><trkpt lat="44.94899530549624" lon="9.858933619212898"><ele>69.33333333333333</ele><time>2026-04-25T12:24:39.999Z</time></trkpt><trkpt lat="44.94907644972547" lon="9.858973222895424"><ele>69.16666666666667</ele><time>2026-04-25T12:24:40.999Z</time></trkpt><trkpt lat="44.94916194863136" lon="9.859005460930712"><ele>69.0</ele><time>2026-04-25T12:24:41.999Z</time></trkpt><trkpt lat="44.9492495304011" lon="9.859033222843633"><ele>69.0</ele><time>2026-04-25T12:24:42.999Z</time></trkpt><trkpt lat="44.949338538415425" lon="9.859070167713027"><ele>69.0</ele><time>2026-04-25T12:24:43.999Z</time></trkpt><trkpt lat="44.949422838794945" lon="9.859106641022795"><ele>69.0</ele><time>2026-04-25T12:24:44.999Z</time></trkpt><trkpt lat="44.94951007882259" lon="9.85913900557798"><ele>69.0</ele><time>2026-04-25T12:24:45.999Z</time></trkpt><trkpt lat="44.94959789443457" lon="9.859173365210431"><ele>69.0</ele><time>2026-04-25T12:24:46.999Z</time></trkpt><trkpt lat="44.94968507957555" lon="9.859212659635464"><ele>69.0</ele><time>2026-04-25T12:24:47.999Z</time></trkpt><trkpt lat="44.949772812611414" lon="9.859250040801419"><ele>69.0</ele><time>2026-04-25T12:24:48.999Z</time></trkpt><trkpt lat="44.94986011405444" lon="9.859285714137528"><ele>69.0</ele><time>2026-04-25T12:24:49.999Z</time></trkpt><trkpt lat="44.94995053579131" lon="9.859320243542435"><ele>69.0</ele><time>2026-04-25T12:24:50.999Z</time></trkpt><trkpt lat="44.95003884982163" lon="9.85935117828272"><ele>69.0</ele><time>2026-04-25T12:24:51.999Z</time></trkpt><trkpt lat="44.95012911101568" lon="9.859383617283958"><ele>69.4</ele><time>2026-04-25T12:24:52.998Z</time></trkpt><trkpt lat="44.95022026088354" lon="9.8594217329718"><ele>69.80000000000001</ele><time>2026-04-25T12:24:53.998Z</time></trkpt><trkpt lat="44.95030951362193" lon="9.859459600406446"><ele>70.19999999999999</ele><time>2026-04-25T12:24:54.998Z</time></trkpt><trkpt lat="44.95039944992282" lon="9.859496211753763"><ele>70.6</ele><time>2026-04-25T12:24:55.998Z</time></trkpt><trkpt lat="44.9504917755602" lon="9.859531688338837"><ele>71.0</ele><time>2026-04-25T12:24:56.998Z</time></trkpt><trkpt lat="44.95058326626675" lon="9.859568765836041"><ele>71.0</ele><time>2026-04-25T12:24:57.998Z</time></trkpt><trkpt lat="44.95067465881739" lon="9.859610158205228"><ele>71.0</ele><time>2026-04-25T12:24:58.998Z</time></trkpt><trkpt lat="44.950767319141995" lon="9.859646299676887"><ele>71.0</ele><time>2026-04-25T12:24:59.998Z</time></trkpt><trkpt lat="44.950858467755765" lon="9.859683874859687"><ele>71.0</ele><time>2026-04-25T12:25:00.998Z</time></trkpt><trkpt lat="44.95095097545212" lon="9.859719539388658"><ele>71.0</ele><time>2026-04-25T12:25:01.998Z</time></trkpt><trkpt lat="44.95104299043234" lon="9.859755156350575"><ele>70.8</ele><time>2026-04-25T12:25:02.998Z</time></trkpt><trkpt lat="44.95113344409615" lon="9.859790302146514"><ele>70.6</ele><time>2026-04-25T12:25:03.998Z</time></trkpt><trkpt lat="44.95122412954718" lon="9.859825430563445"><ele>70.4</ele><time>2026-04-25T12:25:04.998Z</time></trkpt><trkpt lat="44.95131156539204" lon="9.859862105504662"><ele>70.2</ele><time>2026-04-25T12:25:05.998Z</time></trkpt><trkpt lat="44.95139906537228" lon="9.859900184069913"><ele>70.0</ele><time>2026-04-25T12:25:06.998Z</time></trkpt><trkpt lat="44.95148365973949" lon="9.859933697660432"><ele>70.0</ele><time>2026-04-25T12:25:07.998Z</time></trkpt><trkpt lat="44.95156823348754" lon="9.859968524397484"><ele>70.0</ele><time>2026-04-25T12:25:08.998Z</time></trkpt><trkpt lat="44.95165513524124" lon="9.859996292593008"><ele>70.0</ele><time>2026-04-25T12:25:09.998Z</time></trkpt><trkpt lat="44.95174377021518" lon="9.860023189605064"><ele>70.0</ele><time>2026-04-25T12:25:10.998Z</time></trkpt><trkpt lat="44.95183088802034" lon="9.860056020099288"><ele>70.0</ele><time>2026-04-25T12:25:11.998Z</time></trkpt><trkpt lat="44.951921815113096" lon="9.860090773186835"><ele>70.0</ele><time>2026-04-25T12:25:12.998Z</time></trkpt><trkpt lat="44.952006361002695" lon="9.860125747139925"><ele>70.0</ele><time>2026-04-25T12:25:13.998Z</time></trkpt><trkpt lat="44.952098004886324" lon="9.860158628965477"><ele>70.0</ele><time>2026-04-25T12:25:15Z</time></trkpt><trkpt lat="44.95218583148777" lon="9.860190339429925"><ele>70.0</ele><time>2026-04-25T12:25:16Z</time></trkpt><trkpt lat="44.952273109859476" lon="9.860225842525812"><ele>70.0</ele><time>2026-04-25T12:25:17Z</time></trkpt><trkpt lat="44.952363930162555" lon="9.860260088109913"><ele>70.0</ele><time>2026-04-25T12:25:18Z</time></trkpt><trkpt lat="44.95245411229098" lon="9.860285602942058"><ele>70.0</ele><time>2026-04-25T12:25:19Z</time></trkpt><trkpt lat="44.95255123117195" lon="9.860318804228465"><ele>70.0</ele><time>2026-04-25T12:25:20Z</time></trkpt><trkpt lat="44.95264280224927" lon="9.860349753138227"><ele>70.0</ele><time>2026-04-25T12:25:21Z</time></trkpt><trkpt lat="44.95273492539652" lon="9.86038580053024"><ele>70.0</ele><time>2026-04-25T12:25:22Z</time></trkpt><trkpt lat="44.95282682545359" lon="9.86042308662876"><ele>69.6</ele><time>2026-04-25T12:25:23Z</time></trkpt><trkpt lat="44.95291725443547" lon="9.860463485476743"><ele>69.2</ele><time>2026-04-25T12:25:24Z</time></trkpt><trkpt lat="44.95300496180514" lon="9.860508801981876"><ele>68.8</ele><time>2026-04-25T12:25:25Z</time></trkpt><trkpt lat="44.95309018726054" lon="9.860553374550268"><ele>68.4</ele><time>2026-04-25T12:25:26Z</time></trkpt><trkpt lat="44.95318104451032" lon="9.860596307981199"><ele>68.0</ele><time>2026-04-25T12:25:27Z</time></trkpt><trkpt lat="44.95327315304176" lon="9.86063415916553"><ele>68.0</ele><time>2026-04-25T12:25:28Z</time></trkpt><trkpt lat="44.953363749272924" lon="9.860678411269276"><ele>68.0</ele><time>2026-04-25T12:25:29Z</time></trkpt><trkpt lat="44.953453442035006" lon="9.860724590354529"><ele>68.0</ele><time>2026-04-25T12:25:30Z</time></trkpt><trkpt lat="44.953541581453564" lon="9.860762251622248"><ele>68.0</ele><time>2026-04-25T12:25:31Z</time></trkpt><trkpt lat="44.95362874529368" lon="9.860789771175213"><ele>68.0</ele><time>2026-04-25T12:25:32Z</time></trkpt><trkpt lat="44.95371411845931" lon="9.860816845400734"><ele>68.0</ele><time>2026-04-25T12:25:33Z</time></trkpt><trkpt lat="44.953798423149095" lon="9.860850519232766"><ele>68.0</ele><time>2026-04-25T12:25:34Z</time></trkpt><trkpt lat="44.95388256213878" lon="9.860878046236301"><ele>68.0</ele><time>2026-04-25T12:25:35Z</time></trkpt><trkpt lat="44.95396749708302" lon="9.860907141479194"><ele>68.0</ele><time>2026-04-25T12:25:36Z</time></trkpt><trkpt lat="44.95405483017698" lon="9.860940222146835"><ele>68.0</ele><time>2026-04-25T12:25:37Z</time></trkpt><trkpt lat="44.954141752123114" lon="9.860971955307123"><ele>68.0</ele><time>2026-04-25T12:25:38Z</time></trkpt><trkpt lat="44.95422620782851" lon="9.861006669028656"><ele>68.33333333333334</ele><time>2026-04-25T12:25:39Z</time></trkpt><trkpt lat="44.95430715583939" lon="9.861038276409596"><ele>68.66666666666667</ele><time>2026-04-25T12:25:40Z</time></trkpt><trkpt lat="44.95438898920318" lon="9.861072283444457"><ele>69.0</ele><time>2026-04-25T12:25:41Z</time></trkpt><trkpt lat="44.954474014216345" lon="9.861109205710354"><ele>69.33333333333333</ele><time>2026-04-25T12:25:42Z</time></trkpt><trkpt lat="44.954560154833274" lon="9.861146911838823"><ele>69.66666666666666</ele><time>2026-04-25T12:25:43Z</time></trkpt><trkpt lat="44.95464739036099" lon="9.861190337966717"><ele>70.0</ele><time>2026-04-25T12:25:44Z</time></trkpt><trkpt lat="44.954732907006246" lon="9.86124329698839"><ele>70.0</ele><time>2026-04-25T12:25:45Z</time></trkpt><trkpt lat="44.95481545212182" lon="9.861303246977764"><ele>70.0</ele><time>2026-04-25T12:25:46Z</time></trkpt><trkpt lat="44.95489845781004" lon="9.861371813461892"><ele>70.0</ele><time>2026-04-25T12:25:47Z</time></trkpt><trkpt lat="44.9549738600971" lon="9.86144003228397"><ele>70.0</ele><time>2026-04-25T12:25:48Z</time></trkpt><trkpt lat="44.95504706675733" lon="9.861517577096121"><ele>70.0</ele><time>2026-04-25T12:25:49Z</time></trkpt><trkpt lat="44.95512277359827" lon="9.861600782732115"><ele>70.2</ele><time>2026-04-25T12:25:50Z</time></trkpt><trkpt lat="44.955198191483944" lon="9.861681232512968"><ele>70.4</ele><time>2026-04-25T12:25:51Z</time></trkpt><trkpt lat="44.95527067855847" lon="9.86175581306934"><ele>70.6</ele><time>2026-04-25T12:25:52Z</time></trkpt><trkpt lat="44.95534658903" lon="9.861829079396182"><ele>70.8</ele><time>2026-04-25T12:25:53Z</time></trkpt><trkpt lat="44.95542223162982" lon="9.861901259998438"><ele>71.0</ele><time>2026-04-25T12:25:54Z</time></trkpt><trkpt lat="44.95549867180551" lon="9.861973279888378"><ele>71.0</ele><time>2026-04-25T12:25:55Z</time></trkpt><trkpt lat="44.955573306066114" lon="9.862047322660969"><ele>71.0</ele><time>2026-04-25T12:25:56Z</time></trkpt><trkpt lat="44.95564599978678" lon="9.862123877859213"><ele>71.0</ele><time>2026-04-25T12:25:57Z</time></trkpt><trkpt lat="44.95571780193601" lon="9.862199038954683"><ele>71.0</ele><time>2026-04-25T12:25:58Z</time></trkpt><trkpt lat="44.95579071457805" lon="9.862278625825216"><ele>71.0</ele><time>2026-04-25T12:25:58.999Z</time></trkpt><trkpt lat="44.95586370847558" lon="9.862350520207174"><ele>70.66666666666667</ele><time>2026-04-25T12:25:59.999Z</time></trkpt><trkpt lat="44.95593873036382" lon="9.862420855704226"><ele>70.33333333333334</ele><time>2026-04-25T12:26:00.999Z</time></trkpt><trkpt lat="44.95601489218494" lon="9.862493403319611"><ele>70.0</ele><time>2026-04-25T12:26:01.999Z</time></trkpt><trkpt lat="44.95608257940593" lon="9.86256519252706"><ele>69.66666666666667</ele><time>2026-04-25T12:26:02.999Z</time></trkpt><trkpt lat="44.9561519195918" lon="9.862636505691242"><ele>69.33333333333333</ele><time>2026-04-25T12:26:03.999Z</time></trkpt><trkpt lat="44.956218802655556" lon="9.862702718979776"><ele>69.0</ele><time>2026-04-25T12:26:04.999Z</time></trkpt><trkpt lat="44.95628445704134" lon="9.86276883369478"><ele>69.0</ele><time>2026-04-25T12:26:05.999Z</time></trkpt><trkpt lat="44.956348553934454" lon="9.862835381799725"><ele>69.0</ele><time>2026-04-25T12:26:06.999Z</time></trkpt><trkpt lat="44.95641033943481" lon="9.862899485646965"><ele>69.0</ele><time>2026-04-25T12:26:07.999Z</time></trkpt><trkpt lat="44.956472920733724" lon="9.862963926228238"><ele>69.0</ele><time>2026-04-25T12:26:08.999Z</time></trkpt><trkpt lat="44.95653499411619" lon="9.863030363874572"><ele>69.0</ele><time>2026-04-25T12:26:09.999Z</time></trkpt><trkpt lat="44.95660062343632" lon="9.863101431595249"><ele>69.0</ele><time>2026-04-25T12:26:10.999Z</time></trkpt><trkpt lat="44.956665107134064" lon="9.863165792310838"><ele>68.83333333333333</ele><time>2026-04-25T12:26:11.999Z</time></trkpt><trkpt lat="44.95672777471482" lon="9.863228069215744"><ele>68.66666666666667</ele><time>2026-04-25T12:26:12.999Z</time></trkpt><trkpt lat="44.95678891405776" lon="9.863296535596314"><ele>68.5</ele><time>2026-04-25T12:26:13.999Z</time></trkpt><trkpt lat="44.95683718086044" lon="9.863365990647761"><ele>68.33333333333334</ele><time>2026-04-25T12:26:14.999Z</time></trkpt><trkpt lat="44.95689841267289" lon="9.863496669815165"><ele>68.16666666666667</ele><time>2026-04-25T12:26:16.999Z</time></trkpt><trkpt lat="44.95694909522059" lon="9.863568924769774"><ele>68.0</ele><time>2026-04-25T12:26:19.999Z</time></trkpt><trkpt lat="44.95703886950695" lon="9.863616554134975"><ele>67.99999999999999</ele><time>2026-04-25T12:26:23.999Z</time></trkpt><trkpt lat="44.95710405184741" lon="9.863571453695196"><ele>68.0</ele><time>2026-04-25T12:26:28.999Z</time></trkpt><trkpt lat="44.95717414781599" lon="9.863521859033764"><ele>68.0</ele><time>2026-04-25T12:26:31.999Z</time></trkpt><trkpt lat="44.957243868792006" lon="9.86346755458801"><ele>68.0</ele><time>2026-04-25T12:26:34.999Z</time></trkpt><trkpt lat="44.95729359750275" lon="9.86341001625503"><ele>68.0</ele><time>2026-04-25T12:26:36.999Z</time></trkpt><trkpt lat="44.95735187843806" lon="9.863356080224506"><ele>67.99999999999999</ele><time>2026-04-25T12:26:38.999Z</time></trkpt><trkpt lat="44.95741545887063" lon="9.8633026633861"><ele>68.0</ele><time>2026-04-25T12:26:40.999Z</time></trkpt><trkpt lat="44.95748074158849" lon="9.863242507529087"><ele>67.83333333333334</ele><time>2026-04-25T12:26:42.999Z</time></trkpt><trkpt lat="44.957549021582935" lon="9.863178164979649"><ele>67.66666666666667</ele><time>2026-04-25T12:26:44.999Z</time></trkpt><trkpt lat="44.95762071133372" lon="9.863111673173577"><ele>67.5</ele><time>2026-04-25T12:26:46.999Z</time></trkpt><trkpt lat="44.957697017603024" lon="9.863045038922333"><ele>67.33333333333333</ele><time>2026-04-25T12:26:48.999Z</time></trkpt><trkpt lat="44.95777386237083" lon="9.862973450919712"><ele>67.16666666666666</ele><time>2026-04-25T12:26:50.999Z</time></trkpt><trkpt lat="44.957852905004266" lon="9.862900064618781"><ele>67.0</ele><time>2026-04-25T12:26:52.999Z</time></trkpt><trkpt lat="44.95793612170948" lon="9.86282562404234"><ele>67.0</ele><time>2026-04-25T12:26:54.999Z</time></trkpt><trkpt lat="44.9580195143278" lon="9.862749957582668"><ele>67.0</ele><time>2026-04-25T12:26:56.998Z</time></trkpt><trkpt lat="44.958104519017546" lon="9.862675266689862"><ele>67.0</ele><time>2026-04-25T12:26:58.998Z</time></trkpt><trkpt lat="44.95819598947765" lon="9.862598088166667"><ele>67.0</ele><time>2026-04-25T12:27:00.998Z</time></trkpt><trkpt lat="44.95829212981808" lon="9.862518667016376"><ele>67.0</ele><time>2026-04-25T12:27:02.998Z</time></trkpt><trkpt lat="44.95839089563235" lon="9.862433779102103"><ele>66.75</ele><time>2026-04-25T12:27:04.998Z</time></trkpt><trkpt lat="44.9584911703548" lon="9.862345807014798"><ele>66.5</ele><time>2026-04-25T12:27:06.998Z</time></trkpt><trkpt lat="44.95859201224998" lon="9.862256171407223"><ele>66.25</ele><time>2026-04-25T12:27:08.998Z</time></trkpt><trkpt lat="44.958690188887886" lon="9.862168089551277"><ele>66.0</ele><time>2026-04-25T12:27:10.998Z</time></trkpt><trkpt lat="44.95878747541115" lon="9.862082343171295"><ele>66.0</ele><time>2026-04-25T12:27:12.998Z</time></trkpt><trkpt lat="44.958881496073346" lon="9.861988462669094"><ele>66.0</ele><time>2026-04-25T12:27:14.998Z</time></trkpt><trkpt lat="44.95897607429594" lon="9.861904771009076"><ele>66.0</ele><time>2026-04-25T12:27:16.998Z</time></trkpt><trkpt lat="44.95906675920205" lon="9.861821722168875"><ele>66.0</ele><time>2026-04-25T12:27:18.998Z</time></trkpt><trkpt lat="44.95916420285982" lon="9.861767512653753"><ele>66.0</ele><time>2026-04-25T12:27:21Z</time></trkpt><trkpt lat="44.95926913774669" lon="9.861770442301648"><ele>65.83333333333333</ele><time>2026-04-25T12:27:23Z</time></trkpt><trkpt lat="44.95936867339447" lon="9.861823572827948"><ele>65.66666666666667</ele><time>2026-04-25T12:27:25Z</time></trkpt><trkpt lat="44.95946659207368" lon="9.86185716255075"><ele>65.5</ele><time>2026-04-25T12:27:27Z</time></trkpt><trkpt lat="44.95948229016733" lon="9.861949843739621"><ele>65.33333333333334</ele><time>2026-04-25T12:27:28Z</time></trkpt><trkpt lat="44.95953966076246" lon="9.862006152518216"><ele>65.16666666666667</ele><time>2026-04-25T12:27:30Z</time></trkpt><trkpt lat="44.959609572843284" lon="9.862074958302173"><ele>65.0</ele><time>2026-04-25T12:27:33Z</time></trkpt><trkpt lat="44.95967775502705" lon="9.862135858049628"><ele>65.0</ele><time>2026-04-25T12:28:35.999Z</time></trkpt><trkpt lat="44.95975385940832" lon="9.862195457652543"><ele>65.0</ele><time>2026-04-25T12:28:38.999Z</time></trkpt><trkpt lat="44.95980981545732" lon="9.86224789371475"><ele>65.0</ele><time>2026-04-25T12:28:40.999Z</time></trkpt><trkpt lat="44.959877065619786" lon="9.86231260534807"><ele>65.0</ele><time>2026-04-25T12:28:42.999Z</time></trkpt><trkpt lat="44.95995072513251" lon="9.862379484536143"><ele>65.0</ele><time>2026-04-25T12:28:44.999Z</time></trkpt><trkpt lat="44.96003084871516" lon="9.862465987393831"><ele>65.0</ele><time>2026-04-25T12:28:46.999Z</time></trkpt><trkpt lat="44.96012290558163" lon="9.862558958712953"><ele>64.83333333333334</ele><time>2026-04-25T12:28:48.999Z</time></trkpt><trkpt lat="44.96022444461488" lon="9.86265894287553"><ele>64.66666666666667</ele><time>2026-04-25T12:28:50.999Z</time></trkpt><trkpt lat="44.960280321987625" lon="9.862713298210544"><ele>64.5</ele><time>2026-04-25T12:28:51.999Z</time></trkpt><trkpt lat="44.96033797760824" lon="9.86276804818703"><ele>64.33333333333333</ele><time>2026-04-25T12:28:52.999Z</time></trkpt><trkpt lat="44.96039786459237" lon="9.862826235549328"><ele>64.16666666666666</ele><time>2026-04-25T12:28:53.999Z</time></trkpt><trkpt lat="44.960462538289164" lon="9.862885344378242"><ele>64.0</ele><time>2026-04-25T12:28:54.999Z</time></trkpt><trkpt lat="44.960529814554185" lon="9.862948024046053"><ele>63.99999999999999</ele><time>2026-04-25T12:28:55.999Z</time></trkpt><trkpt lat="44.96059851550653" lon="9.863013737495967"><ele>64.0</ele><time>2026-04-25T12:28:56.999Z</time></trkpt><trkpt lat="44.9606688472051" lon="9.863083228046019"><ele>64.0</ele><time>2026-04-25T12:28:57.998Z</time></trkpt><trkpt lat="44.96074361159401" lon="9.86315245817479"><ele>64.0</ele><time>2026-04-25T12:28:58.998Z</time></trkpt><trkpt lat="44.960816855840704" lon="9.86322431685276"><ele>63.99999999999999</ele><time>2026-04-25T12:28:59.998Z</time></trkpt><trkpt lat="44.9608973072299" lon="9.86330316331675"><ele>64.0</ele><time>2026-04-25T12:29:00.998Z</time></trkpt><trkpt lat="44.96097460289866" lon="9.86337567506291"><ele>64.16666666666666</ele><time>2026-04-25T12:29:01.998Z</time></trkpt><trkpt lat="44.961049972623584" lon="9.863448645834366"><ele>64.33333333333333</ele><time>2026-04-25T12:29:02.998Z</time></trkpt><trkpt lat="44.961124942149155" lon="9.863518527743123"><ele>64.5</ele><time>2026-04-25T12:29:03.998Z</time></trkpt><trkpt lat="44.96120346886244" lon="9.86357445757278"><ele>64.66666666666667</ele><time>2026-04-25T12:29:04.998Z</time></trkpt><trkpt lat="44.9612771675374" lon="9.863652018041474"><ele>64.83333333333334</ele><time>2026-04-25T12:29:05.998Z</time></trkpt><trkpt lat="44.96133809646052" lon="9.863730083605192"><ele>65.0</ele><time>2026-04-25T12:29:06.998Z</time></trkpt><trkpt lat="44.96139869237881" lon="9.863792932884408"><ele>65.0</ele><time>2026-04-25T12:29:07.998Z</time></trkpt><trkpt lat="44.961455785306825" lon="9.86385167582907"><ele>65.0</ele><time>2026-04-25T12:29:08.998Z</time></trkpt><trkpt lat="44.9615531315376" lon="9.863948552236996"><ele>65.0</ele><time>2026-04-25T12:29:10.998Z</time></trkpt><trkpt lat="44.961647833226536" lon="9.864032116197938"><ele>65.0</ele><time>2026-04-25T12:29:12.998Z</time></trkpt><trkpt lat="44.961739957605644" lon="9.864116530437027"><ele>65.0</ele><time>2026-04-25T12:29:14.998Z</time></trkpt><trkpt lat="44.961831885332394" lon="9.864193035698053"><ele>65.0</ele><time>2026-04-25T12:29:16.998Z</time></trkpt><trkpt lat="44.96192651808383" lon="9.864260406441698"><ele>65.0</ele><time>2026-04-25T12:29:18.998Z</time></trkpt><trkpt lat="44.962027144215824" lon="9.864317833343529"><ele>65.0</ele><time>2026-04-25T12:29:20.998Z</time></trkpt><trkpt lat="44.96213149130699" lon="9.86437914768321"><ele>65.0</ele><time>2026-04-25T12:29:22.998Z</time></trkpt><trkpt lat="44.96224425476785" lon="9.864439111233052"><ele>65.0</ele><time>2026-04-25T12:29:24.998Z</time></trkpt><trkpt lat="44.9623044673747" lon="9.864466101869843"><ele>65.00000000000001</ele><time>2026-04-25T12:29:25.998Z</time></trkpt><trkpt lat="44.9623671657759" lon="9.864489692088627"><ele>65.0</ele><time>2026-04-25T12:29:27Z</time></trkpt><trkpt lat="44.96243259119674" lon="9.8645146907617"><ele>65.0</ele><time>2026-04-25T12:29:28Z</time></trkpt><trkpt lat="44.96250008038451" lon="9.86454130519412"><ele>65.0</ele><time>2026-04-25T12:29:29Z</time></trkpt><trkpt lat="44.962566340783916" lon="9.86456309162563"><ele>65.0</ele><time>2026-04-25T12:29:30Z</time></trkpt><trkpt lat="44.96263273383557" lon="9.864579687275928"><ele>65.00000000000001</ele><time>2026-04-25T12:29:31Z</time></trkpt><trkpt lat="44.96269915397923" lon="9.86459248382311"><ele>65.0</ele><time>2026-04-25T12:29:32Z</time></trkpt><trkpt lat="44.96276221859491" lon="9.864593116906287"><ele>65.5</ele><time>2026-04-25T12:29:33Z</time></trkpt><trkpt lat="44.96288484926805" lon="9.864608281565939"><ele>66.0</ele><time>2026-04-25T12:29:35Z</time></trkpt><trkpt lat="44.96299727237597" lon="9.864624998593314"><ele>66.5</ele><time>2026-04-25T12:29:37Z</time></trkpt><trkpt lat="44.96310798254025" lon="9.864630205784984"><ele>67.0</ele><time>2026-04-25T12:29:39Z</time></trkpt><trkpt lat="44.96322199147946" lon="9.864626379495581"><ele>67.0</ele><time>2026-04-25T12:29:41Z</time></trkpt><trkpt lat="44.96333531714331" lon="9.864614765115483"><ele>67.0</ele><time>2026-04-25T12:29:43Z</time></trkpt><trkpt lat="44.96344727953455" lon="9.864596976903444"><ele>67.0</ele><time>2026-04-25T12:29:45Z</time></trkpt><trkpt lat="44.96355849939908" lon="9.864572003862802"><ele>67.0</ele><time>2026-04-25T12:29:47Z</time></trkpt><trkpt lat="44.96366803373707" lon="9.864542239777847"><ele>67.0</ele><time>2026-04-25T12:29:49Z</time></trkpt><trkpt lat="44.96377209631075" lon="9.864499051665842"><ele>67.0</ele><time>2026-04-25T12:29:51Z</time></trkpt><trkpt lat="44.96387540606242" lon="9.864449314197369"><ele>67.0</ele><time>2026-04-25T12:29:53Z</time></trkpt><trkpt lat="44.96397108604736" lon="9.864399882589174"><ele>67.0</ele><time>2026-04-25T12:29:55Z</time></trkpt><trkpt lat="44.96407530575692" lon="9.864348520475641"><ele>67.0</ele><time>2026-04-25T12:29:57Z</time></trkpt><trkpt lat="44.964176100601044" lon="9.864288178419576"><ele>67.0</ele><time>2026-04-25T12:29:59Z</time></trkpt><trkpt lat="44.9642743664574" lon="9.864230786537716"><ele>67.0</ele><time>2026-04-25T12:30:01Z</time></trkpt><trkpt lat="44.96436557004232" lon="9.864158614669435"><ele>67.0</ele><time>2026-04-25T12:30:03Z</time></trkpt><trkpt lat="44.96445311091979" lon="9.864088820274194"><ele>67.0</ele><time>2026-04-25T12:30:04.999Z</time></trkpt><trkpt lat="44.96453510358667" lon="9.864018240499288"><ele>67.0</ele><time>2026-04-25T12:30:06.999Z</time></trkpt><trkpt lat="44.964616323320286" lon="9.863945941656578"><ele>67.0</ele><time>2026-04-25T12:30:08.999Z</time></trkpt><trkpt lat="44.964702989673484" lon="9.863867390396459"><ele>67.0</ele><time>2026-04-25T12:30:10.999Z</time></trkpt><trkpt lat="44.96479305145615" lon="9.863790900279183"><ele>67.0</ele><time>2026-04-25T12:30:12.999Z</time></trkpt><trkpt lat="44.964881245197006" lon="9.863707714772557"><ele>67.0</ele><time>2026-04-25T12:30:14.999Z</time></trkpt><trkpt lat="44.96496599978941" lon="9.863621489764629"><ele>67.0</ele><time>2026-04-25T12:30:16.999Z</time></trkpt><trkpt lat="44.965053702398066" lon="9.863536209289316"><ele>67.0</ele><time>2026-04-25T12:30:18.999Z</time></trkpt><trkpt lat="44.965146783863126" lon="9.863464905907884"><ele>67.0</ele><time>2026-04-25T12:30:20.999Z</time></trkpt><trkpt lat="44.96523286924684" lon="9.86338216404501"><ele>67.0</ele><time>2026-04-25T12:30:22.999Z</time></trkpt><trkpt lat="44.96531927154107" lon="9.863307586837912"><ele>67.0</ele><time>2026-04-25T12:30:24.999Z</time></trkpt><trkpt lat="44.96540133544115" lon="9.863230218332182"><ele>67.0</ele><time>2026-04-25T12:30:26.999Z</time></trkpt><trkpt lat="44.96548166980478" lon="9.86315283784256"><ele>66.2</ele><time>2026-04-25T12:30:28.999Z</time></trkpt><trkpt lat="44.965559579028245" lon="9.863073211762963"><ele>65.4</ele><time>2026-04-25T12:30:30.999Z</time></trkpt><trkpt lat="44.96563662553457" lon="9.862987714726644"><ele>64.6</ele><time>2026-04-25T12:30:32.999Z</time></trkpt><trkpt lat="44.96571424062603" lon="9.862907100522179"><ele>63.8</ele><time>2026-04-25T12:30:34.999Z</time></trkpt><trkpt lat="44.965787774789206" lon="9.862825503962169"><ele>63.0</ele><time>2026-04-25T12:30:36.999Z</time></trkpt><trkpt lat="44.96584888803964" lon="9.862731942867983"><ele>63.4</ele><time>2026-04-25T12:30:38.999Z</time></trkpt><trkpt lat="44.965915334672324" lon="9.862631873328793"><ele>63.8</ele><time>2026-04-25T12:30:40.999Z</time></trkpt><trkpt lat="44.96598723103995" lon="9.86252178408706"><ele>64.2</ele><time>2026-04-25T12:30:42.999Z</time></trkpt><trkpt lat="44.966061509720866" lon="9.862395773197173"><ele>64.6</ele><time>2026-04-25T12:30:44.999Z</time></trkpt><trkpt lat="44.96613165815179" lon="9.862273419629625"><ele>65.0</ele><time>2026-04-25T12:30:46.999Z</time></trkpt><trkpt lat="44.96620007461652" lon="9.862155384797148"><ele>65.0</ele><time>2026-04-25T12:30:48.999Z</time></trkpt><trkpt lat="44.966267382832314" lon="9.862040952275734"><ele>65.0</ele><time>2026-04-25T12:30:50.999Z</time></trkpt><trkpt lat="44.96633018916469" lon="9.86192874859389"><ele>65.0</ele><time>2026-04-25T12:30:52.999Z</time></trkpt><trkpt lat="44.966395424866384" lon="9.86180919380055"><ele>65.0</ele><time>2026-04-25T12:30:54.999Z</time></trkpt><trkpt lat="44.96645984976778" lon="9.861701261961022"><ele>65.0</ele><time>2026-04-25T12:30:56.999Z</time></trkpt><trkpt lat="44.966516069299274" lon="9.861594556658131"><ele>64.83333333333334</ele><time>2026-04-25T12:30:58.999Z</time></trkpt><trkpt lat="44.96657330104353" lon="9.861497142270949"><ele>64.66666666666667</ele><time>2026-04-25T12:31:00.999Z</time></trkpt><trkpt lat="44.96662625361854" lon="9.861400851110936"><ele>64.5</ele><time>2026-04-25T12:31:02.998Z</time></trkpt><trkpt lat="44.96667703044889" lon="9.861309196431677"><ele>64.33333333333333</ele><time>2026-04-25T12:31:04.998Z</time></trkpt><trkpt lat="44.966727405910206" lon="9.861220762493144"><ele>64.16666666666666</ele><time>2026-04-25T12:31:06.998Z</time></trkpt><trkpt lat="44.96677493631457" lon="9.86113936991177"><ele>64.0</ele><time>2026-04-25T12:31:08.998Z</time></trkpt><trkpt lat="44.96681925162282" lon="9.861060179174002"><ele>64.0</ele><time>2026-04-25T12:31:10.998Z</time></trkpt><trkpt lat="44.96686747375796" lon="9.860988568362242"><ele>63.99999999999999</ele><time>2026-04-25T12:31:12.998Z</time></trkpt><trkpt lat="44.96691399544003" lon="9.860900589326896"><ele>64.0</ele><time>2026-04-25T12:31:14.998Z</time></trkpt><trkpt lat="44.9669619260941" lon="9.86082269612881"><ele>64.0</ele><time>2026-04-25T12:31:16.998Z</time></trkpt><trkpt lat="44.96700246464467" lon="9.860740439241072"><ele>63.99999999999999</ele><time>2026-04-25T12:31:18.998Z</time></trkpt><trkpt lat="44.967045589160946" lon="9.860664494977668"><ele>64.0</ele><time>2026-04-25T12:31:20.998Z</time></trkpt><trkpt lat="44.96709455622908" lon="9.860577400419382"><ele>64.0</ele><time>2026-04-25T12:31:22.998Z</time></trkpt><trkpt lat="44.967140902575395" lon="9.86048846928322"><ele>63.99999999999999</ele><time>2026-04-25T12:31:24.998Z</time></trkpt><trkpt lat="44.967192799921975" lon="9.860416448879572"><ele>64.0</ele><time>2026-04-25T12:31:26.998Z</time></trkpt><trkpt lat="44.96723868251596" lon="9.860325230912476"><ele>64.0</ele><time>2026-04-25T12:31:28.998Z</time></trkpt><trkpt lat="44.96729210346431" lon="9.860232563681334"><ele>64.0</ele><time>2026-04-25T12:31:30.998Z</time></trkpt><trkpt lat="44.96733972548376" lon="9.860144341815516"><ele>63.99999999999999</ele><time>2026-04-25T12:31:33Z</time></trkpt><trkpt lat="44.967388489591734" lon="9.860065045892632"><ele>64.0</ele><time>2026-04-25T12:31:35Z</time></trkpt><trkpt lat="44.96743623218731" lon="9.859989189195986"><ele>63.99999999999999</ele><time>2026-04-25T12:31:37Z</time></trkpt><trkpt lat="44.9674764164432" lon="9.859914191839726"><ele>64.0</ele><time>2026-04-25T12:31:39Z</time></trkpt><trkpt lat="44.96752042358942" lon="9.859832687921056"><ele>64.0</ele><time>2026-04-25T12:31:41Z</time></trkpt><trkpt lat="44.96757140333136" lon="9.859745657282582"><ele>64.0</ele><time>2026-04-25T12:31:43Z</time></trkpt><trkpt lat="44.96762523103293" lon="9.859653502159754"><ele>63.99999999999999</ele><time>2026-04-25T12:31:45Z</time></trkpt><trkpt lat="44.967674799430334" lon="9.859561172602133"><ele>64.0</ele><time>2026-04-25T12:31:47Z</time></trkpt><trkpt lat="44.96773041615552" lon="9.85946835863621"><ele>63.800000000000004</ele><time>2026-04-25T12:31:49Z</time></trkpt><trkpt lat="44.96778654376743" lon="9.859365732630826"><ele>63.60000000000001</ele><time>2026-04-25T12:31:51Z</time></trkpt><trkpt lat="44.96784947086632" lon="9.859254128300542"><ele>63.4</ele><time>2026-04-25T12:31:53Z</time></trkpt><trkpt lat="44.9679220598867" lon="9.85914165719536"><ele>63.2</ele><time>2026-04-25T12:31:55Z</time></trkpt><trkpt lat="44.96799387006267" lon="9.859032752039154"><ele>63.0</ele><time>2026-04-25T12:31:57Z</time></trkpt><trkpt lat="44.968065472666495" lon="9.85893387848845"><ele>63.0</ele><time>2026-04-25T12:31:59Z</time></trkpt><trkpt lat="44.96814611304328" lon="9.858822476954504"><ele>63.0</ele><time>2026-04-25T12:32:01Z</time></trkpt><trkpt lat="44.968225758890625" lon="9.85872178032955"><ele>63.0</ele><time>2026-04-25T12:32:03Z</time></trkpt><trkpt lat="44.96830856859921" lon="9.858627736005362"><ele>63.0</ele><time>2026-04-25T12:32:05Z</time></trkpt><trkpt lat="44.968404488803664" lon="9.858526864830683"><ele>63.0</ele><time>2026-04-25T12:32:07Z</time></trkpt><trkpt lat="44.96845622219959" lon="9.858474023864863"><ele>62.85714285714286</ele><time>2026-04-25T12:32:07.999Z</time></trkpt><trkpt lat="44.96850873947427" lon="9.858418711643372"><ele>62.714285714285715</ele><time>2026-04-25T12:32:08.999Z</time></trkpt><trkpt lat="44.96856349703873" lon="9.858365892150431"><ele>62.57142857142857</ele><time>2026-04-25T12:32:09.999Z</time></trkpt><trkpt lat="44.96862106721503" lon="9.858314724590583"><ele>62.42857142857143</ele><time>2026-04-25T12:32:10.999Z</time></trkpt><trkpt lat="44.96867843388651" lon="9.858264575143833"><ele>62.28571428571429</ele><time>2026-04-25T12:32:11.999Z</time></trkpt><trkpt lat="44.968736474990095" lon="9.85821855448528"><ele>62.142857142857146</ele><time>2026-04-25T12:32:12.999Z</time></trkpt><trkpt lat="44.968795285314584" lon="9.858174326848259"><ele>62.0</ele><time>2026-04-25T12:32:13.999Z</time></trkpt><trkpt lat="44.96885464899911" lon="9.858129807814494"><ele>62.0</ele><time>2026-04-25T12:32:14.999Z</time></trkpt><trkpt lat="44.968916976123445" lon="9.858087882041902"><ele>62.00000000000001</ele><time>2026-04-25T12:32:15.999Z</time></trkpt><trkpt lat="44.96897913417979" lon="9.858042474237926"><ele>62.0</ele><time>2026-04-25T12:32:16.999Z</time></trkpt><trkpt lat="44.969044285958795" lon="9.858000022833343"><ele>62.0</ele><time>2026-04-25T12:32:17.999Z</time></trkpt><trkpt lat="44.96911157937841" lon="9.857962686185022"><ele>62.00000000000001</ele><time>2026-04-25T12:32:18.999Z</time></trkpt><trkpt lat="44.969179952529885" lon="9.857929797472936"><ele>62.0</ele><time>2026-04-25T12:32:19.999Z</time></trkpt><trkpt lat="44.96924918579295" lon="9.85789571970378"><ele>62.0</ele><time>2026-04-25T12:32:20.999Z</time></trkpt><trkpt lat="44.969318628299604" lon="9.857863424623092"><ele>61.50000000000001</ele><time>2026-04-25T12:32:21.999Z</time></trkpt><trkpt lat="44.96939005074383" lon="9.857832059743734"><ele>61.0</ele><time>2026-04-25T12:32:22.999Z</time></trkpt><trkpt lat="44.969463068155285" lon="9.857803418849773"><ele>60.5</ele><time>2026-04-25T12:32:23.999Z</time></trkpt><trkpt lat="44.96953608241885" lon="9.857777750808513"><ele>60.0</ele><time>2026-04-25T12:32:24.999Z</time></trkpt><trkpt lat="44.969608393968265" lon="9.857745219100265"><ele>59.50000000000001</ele><time>2026-04-25T12:32:25.999Z</time></trkpt><trkpt lat="44.969681953649875" lon="9.857715692786972"><ele>59.0</ele><time>2026-04-25T12:32:26.999Z</time></trkpt><trkpt lat="44.96975801391995" lon="9.857686958650765"><ele>59.00000000000001</ele><time>2026-04-25T12:32:27.999Z</time></trkpt><trkpt lat="44.9698336311297" lon="9.857659437488438"><ele>59.0</ele><time>2026-04-25T12:32:28.999Z</time></trkpt><trkpt lat="44.96990735332251" lon="9.857631023411406"><ele>59.0</ele><time>2026-04-25T12:32:29.999Z</time></trkpt><trkpt lat="44.96998143607117" lon="9.857600040559065"><ele>59.0</ele><time>2026-04-25T12:32:30.999Z</time></trkpt><trkpt lat="44.97005493197515" lon="9.857570622677919"><ele>59.00000000000001</ele><time>2026-04-25T12:32:31.999Z</time></trkpt><trkpt lat="44.9701282754407" lon="9.857540019799538"><ele>59.0</ele><time>2026-04-25T12:32:32.999Z</time></trkpt><trkpt lat="44.97020307247626" lon="9.857511704163208"><ele>59.50000000000001</ele><time>2026-04-25T12:32:33.999Z</time></trkpt><trkpt lat="44.97027847841402" lon="9.857483283538054"><ele>60.0</ele><time>2026-04-25T12:32:34.999Z</time></trkpt><trkpt lat="44.97035424899808" lon="9.857454083036455"><ele>60.5</ele><time>2026-04-25T12:32:35.999Z</time></trkpt><trkpt lat="44.97042979208276" lon="9.857424519505239"><ele>61.0</ele><time>2026-04-25T12:32:36.999Z</time></trkpt><trkpt lat="44.970506026050494" lon="9.857393272793965"><ele>61.50000000000001</ele><time>2026-04-25T12:32:37.999Z</time></trkpt><trkpt lat="44.97058478360831" lon="9.857359784312818"><ele>62.0</ele><time>2026-04-25T12:32:38.999Z</time></trkpt><trkpt lat="44.97066681096581" lon="9.85732659462983"><ele>62.00000000000001</ele><time>2026-04-25T12:32:39.999Z</time></trkpt><trkpt lat="44.97075132906766" lon="9.857293494954337"><ele>62.0</ele><time>2026-04-25T12:32:40.999Z</time></trkpt><trkpt lat="44.97083759711702" lon="9.857259097090507"><ele>62.0</ele><time>2026-04-25T12:32:41.999Z</time></trkpt><trkpt lat="44.970926278149136" lon="9.857226259099042"><ele>62.0</ele><time>2026-04-25T12:32:42.999Z</time></trkpt><trkpt lat="44.97101294247156" lon="9.857192527864589"><ele>62.00000000000001</ele><time>2026-04-25T12:32:43.999Z</time></trkpt><trkpt lat="44.97109966423795" lon="9.85715974129039"><ele>62.0</ele><time>2026-04-25T12:32:44.999Z</time></trkpt><trkpt lat="44.97118395130158" lon="9.857127089686381"><ele>61.833333333333336</ele><time>2026-04-25T12:32:45.999Z</time></trkpt><trkpt lat="44.971267486113554" lon="9.857092490867224"><ele>61.66666666666667</ele><time>2026-04-25T12:32:46.999Z</time></trkpt><trkpt lat="44.97135071297081" lon="9.857059619189904"><ele>61.5</ele><time>2026-04-25T12:32:47.999Z</time></trkpt><trkpt lat="44.97143391310726" lon="9.857027255739135"><ele>61.33333333333333</ele><time>2026-04-25T12:32:48.999Z</time></trkpt><trkpt lat="44.971517449626795" lon="9.85699483260612"><ele>61.166666666666664</ele><time>2026-04-25T12:32:49.999Z</time></trkpt><trkpt lat="44.97160119703476" lon="9.856961326048895"><ele>61.0</ele><time>2026-04-25T12:32:50.999Z</time></trkpt><trkpt lat="44.971684186398235" lon="9.856926844530962"><ele>60.83333333333333</ele><time>2026-04-25T12:32:51.999Z</time></trkpt><trkpt lat="44.971769423997955" lon="9.856893195347167"><ele>60.666666666666664</ele><time>2026-04-25T12:32:52.999Z</time></trkpt><trkpt lat="44.97185398115866" lon="9.856860927895045"><ele>60.5</ele><time>2026-04-25T12:32:53.999Z</time></trkpt><trkpt lat="44.97193571728081" lon="9.856821780483932"><ele>60.33333333333333</ele><time>2026-04-25T12:32:54.999Z</time></trkpt><trkpt lat="44.972019081744556" lon="9.856777253244472"><ele>60.166666666666664</ele><time>2026-04-25T12:32:55.999Z</time></trkpt><trkpt lat="44.97210282480005" lon="9.856728088906973"><ele>60.0</ele><time>2026-04-25T12:32:56.999Z</time></trkpt><trkpt lat="44.97218575164583" lon="9.85667977718017"><ele>60.0</ele><time>2026-04-25T12:32:57.999Z</time></trkpt><trkpt lat="44.97226870163882" lon="9.856632631802238"><ele>60.0</ele><time>2026-04-25T12:32:58.999Z</time></trkpt><trkpt lat="44.97235246964506" lon="9.856578407428156"><ele>60.0</ele><time>2026-04-25T12:32:59.999Z</time></trkpt><trkpt lat="44.97243186109761" lon="9.856526305058672"><ele>60.0</ele><time>2026-04-25T12:33:00.999Z</time></trkpt><trkpt lat="44.97251332901612" lon="9.856471526537952"><ele>60.0</ele><time>2026-04-25T12:33:01.999Z</time></trkpt><trkpt lat="44.97259164344016" lon="9.856415646926868"><ele>60.0</ele><time>2026-04-25T12:33:02.999Z</time></trkpt><trkpt lat="44.97266647201827" lon="9.856358374222383"><ele>60.166666666666664</ele><time>2026-04-25T12:33:03.999Z</time></trkpt><trkpt lat="44.97274081585206" lon="9.856301407199505"><ele>60.33333333333333</ele><time>2026-04-25T12:33:04.999Z</time></trkpt><trkpt lat="44.97281451900852" lon="9.85624302372006"><ele>60.5</ele><time>2026-04-25T12:33:05.999Z</time></trkpt><trkpt lat="44.97288487769695" lon="9.856184927024389"><ele>60.666666666666664</ele><time>2026-04-25T12:33:06.998Z</time></trkpt><trkpt lat="44.97295861364556" lon="9.856119997356565"><ele>60.83333333333333</ele><time>2026-04-25T12:33:07.998Z</time></trkpt><trkpt lat="44.97303305495642" lon="9.856058638007141"><ele>61.0</ele><time>2026-04-25T12:33:08.998Z</time></trkpt><trkpt lat="44.97310873981504" lon="9.855993661557966"><ele>61.33333333333333</ele><time>2026-04-25T12:33:09.998Z</time></trkpt><trkpt lat="44.973180199630036" lon="9.855926435390225"><ele>61.666666666666664</ele><time>2026-04-25T12:33:10.998Z</time></trkpt><trkpt lat="44.973252396424506" lon="9.855860632554576"><ele>62.0</ele><time>2026-04-25T12:33:11.998Z</time></trkpt><trkpt lat="44.9733228728707" lon="9.855795758272523"><ele>62.33333333333333</ele><time>2026-04-25T12:33:12.998Z</time></trkpt><trkpt lat="44.97339267943288" lon="9.8557341899896"><ele>62.666666666666664</ele><time>2026-04-25T12:33:13.998Z</time></trkpt><trkpt lat="44.97346152497355" lon="9.855672339856207"><ele>63.0</ele><time>2026-04-25T12:33:14.998Z</time></trkpt><trkpt lat="44.97352911466088" lon="9.855615133921978"><ele>63.0</ele><time>2026-04-25T12:33:15.998Z</time></trkpt><trkpt lat="44.973598677213836" lon="9.855556187694685"><ele>63.0</ele><time>2026-04-25T12:33:16.998Z</time></trkpt><trkpt lat="44.973672056023176" lon="9.855500557485545"><ele>63.0</ele><time>2026-04-25T12:33:17.998Z</time></trkpt><trkpt lat="44.9737484243201" lon="9.855456787812159"><ele>63.0</ele><time>2026-04-25T12:33:18.998Z</time></trkpt><trkpt lat="44.97382368819834" lon="9.855416799838384"><ele>63.0</ele><time>2026-04-25T12:33:19.998Z</time></trkpt><trkpt lat="44.973902153074505" lon="9.85538022767106"><ele>63.0</ele><time>2026-04-25T12:33:20.998Z</time></trkpt><trkpt lat="44.973979722885474" lon="9.855341434271237"><ele>63.0</ele><time>2026-04-25T12:33:21.998Z</time></trkpt><trkpt lat="44.97405785627278" lon="9.855304093579951"><ele>63.0</ele><time>2026-04-25T12:33:22.998Z</time></trkpt><trkpt lat="44.97413889099138" lon="9.855271157180917"><ele>63.0</ele><time>2026-04-25T12:33:23.998Z</time></trkpt><trkpt lat="44.9742199443464" lon="9.855240054212656"><ele>63.0</ele><time>2026-04-25T12:33:24.998Z</time></trkpt><trkpt lat="44.97429927333038" lon="9.855206268038668"><ele>63.0</ele><time>2026-04-25T12:33:25.998Z</time></trkpt><trkpt lat="44.974382202809345" lon="9.855170012485244"><ele>63.0</ele><time>2026-04-25T12:33:26.998Z</time></trkpt><trkpt lat="44.97446476789907" lon="9.855138688175495"><ele>62.5</ele><time>2026-04-25T12:33:27.998Z</time></trkpt><trkpt lat="44.974549375627646" lon="9.855109765400204"><ele>62.0</ele><time>2026-04-25T12:33:28.998Z</time></trkpt><trkpt lat="44.974632092964214" lon="9.855079861805354"><ele>61.5</ele><time>2026-04-25T12:33:29.998Z</time></trkpt><trkpt lat="44.974714331397315" lon="9.855050121626828"><ele>61.0</ele><time>2026-04-25T12:33:30.998Z</time></trkpt><trkpt lat="44.97479589624635" lon="9.855020292765651"><ele>60.5</ele><time>2026-04-25T12:33:31.998Z</time></trkpt><trkpt lat="44.974875695915806" lon="9.854988239356281"><ele>60.0</ele><time>2026-04-25T12:33:32.998Z</time></trkpt><trkpt lat="44.97495513639055" lon="9.854956641772791"><ele>60.0</ele><time>2026-04-25T12:33:33.998Z</time></trkpt><trkpt lat="44.97503324997768" lon="9.85492614366314"><ele>60.0</ele><time>2026-04-25T12:33:34.998Z</time></trkpt><trkpt lat="44.975110593299135" lon="9.854896035003517"><ele>60.0</ele><time>2026-04-25T12:33:35.998Z</time></trkpt><trkpt lat="44.97519047839814" lon="9.854865083000723"><ele>60.0</ele><time>2026-04-25T12:33:36.998Z</time></trkpt><trkpt lat="44.975270942007114" lon="9.854835359018946"><ele>60.0</ele><time>2026-04-25T12:33:38Z</time></trkpt><trkpt lat="44.97535277738713" lon="9.854808587713192"><ele>60.0</ele><time>2026-04-25T12:33:39Z</time></trkpt><trkpt lat="44.97543377181243" lon="9.854777525051704"><ele>60.0</ele><time>2026-04-25T12:33:40Z</time></trkpt><trkpt lat="44.975514413313526" lon="9.85474285001097"><ele>60.0</ele><time>2026-04-25T12:33:41Z</time></trkpt><trkpt lat="44.975594181816575" lon="9.854710330270757"><ele>60.0</ele><time>2026-04-25T12:33:42Z</time></trkpt><trkpt lat="44.97567475269804" lon="9.85467833767171"><ele>60.0</ele><time>2026-04-25T12:33:43Z</time></trkpt><trkpt lat="44.97575416823726" lon="9.854640304951422"><ele>60.0</ele><time>2026-04-25T12:33:44Z</time></trkpt><trkpt lat="44.97583082704696" lon="9.854600264249939"><ele>60.0</ele><time>2026-04-25T12:33:45Z</time></trkpt><trkpt lat="44.9759075474426" lon="9.854561920979116"><ele>59.5</ele><time>2026-04-25T12:33:46Z</time></trkpt><trkpt lat="44.9759831924752" lon="9.854525421079426"><ele>59.0</ele><time>2026-04-25T12:33:47Z</time></trkpt><trkpt lat="44.97605842604913" lon="9.854488278475374"><ele>58.5</ele><time>2026-04-25T12:33:48Z</time></trkpt><trkpt lat="44.97613290542215" lon="9.85444781583123"><ele>58.0</ele><time>2026-04-25T12:33:49Z</time></trkpt><trkpt lat="44.97620823231149" lon="9.854405452867312"><ele>57.5</ele><time>2026-04-25T12:33:50Z</time></trkpt><trkpt lat="44.97628607009662" lon="9.854363065985924"><ele>57.0</ele><time>2026-04-25T12:33:51Z</time></trkpt><trkpt lat="44.97636507511565" lon="9.854322496773662"><ele>57.166666666666664</ele><time>2026-04-25T12:33:52Z</time></trkpt><trkpt lat="44.97644491271013" lon="9.854284355253105"><ele>57.33333333333333</ele><time>2026-04-25T12:33:53Z</time></trkpt><trkpt lat="44.97652333179053" lon="9.854244757473964"><ele>57.5</ele><time>2026-04-25T12:33:54Z</time></trkpt><trkpt lat="44.97660142066591" lon="9.854202457167323"><ele>57.666666666666664</ele><time>2026-04-25T12:33:55Z</time></trkpt><trkpt lat="44.976680357868354" lon="9.854163059774226"><ele>57.83333333333333</ele><time>2026-04-25T12:33:56Z</time></trkpt><trkpt lat="44.97676218432821" lon="9.854128698593467"><ele>58.0</ele><time>2026-04-25T12:33:57Z</time></trkpt><trkpt lat="44.9768451111912" lon="9.854104086670455"><ele>58.166666666666664</ele><time>2026-04-25T12:33:58Z</time></trkpt><trkpt lat="44.976929850419765" lon="9.85408948216595"><ele>58.33333333333333</ele><time>2026-04-25T12:33:59Z</time></trkpt><trkpt lat="44.977014383862674" lon="9.854092494511443"><ele>58.5</ele><time>2026-04-25T12:34:00Z</time></trkpt><trkpt lat="44.97709885336207" lon="9.854103715270456"><ele>58.66666666666667</ele><time>2026-04-25T12:34:01Z</time></trkpt><trkpt lat="44.97718178768948" lon="9.854119614653962"><ele>58.833333333333336</ele><time>2026-04-25T12:34:02Z</time></trkpt><trkpt lat="44.97726831178633" lon="9.854131704984464"><ele>59.0</ele><time>2026-04-25T12:34:03Z</time></trkpt><trkpt lat="44.97735297222707" lon="9.854140232469126"><ele>59.00000000000001</ele><time>2026-04-25T12:34:04Z</time></trkpt><trkpt lat="44.97743920130617" lon="9.85414715734827"><ele>59.0</ele><time>2026-04-25T12:34:05Z</time></trkpt><trkpt lat="44.97752426770893" lon="9.854157641256652"><ele>59.0</ele><time>2026-04-25T12:34:06Z</time></trkpt><trkpt lat="44.977609972447816" lon="9.854166132712644"><ele>59.0</ele><time>2026-04-25T12:34:07Z</time></trkpt><trkpt lat="44.97769534764718" lon="9.85417352131521"><ele>59.00000000000001</ele><time>2026-04-25T12:34:08Z</time></trkpt><trkpt lat="44.977780633549024" lon="9.854181830748457"><ele>59.0</ele><time>2026-04-25T12:34:09Z</time></trkpt><trkpt lat="44.977864139881774" lon="9.854189309757208"><ele>59.16666666666667</ele><time>2026-04-25T12:34:10Z</time></trkpt><trkpt lat="44.97794791518494" lon="9.854198724231285"><ele>59.333333333333336</ele><time>2026-04-25T12:34:11Z</time></trkpt><trkpt lat="44.97803089833756" lon="9.854207740887324"><ele>59.5</ele><time>2026-04-25T12:34:12Z</time></trkpt><trkpt lat="44.97811579677111" lon="9.85421488322202"><ele>59.66666666666667</ele><time>2026-04-25T12:34:12.999Z</time></trkpt><trkpt lat="44.978199262760725" lon="9.854220333320702"><ele>59.833333333333336</ele><time>2026-04-25T12:34:13.999Z</time></trkpt><trkpt lat="44.97828330478708" lon="9.854228318571517"><ele>60.0</ele><time>2026-04-25T12:34:14.999Z</time></trkpt><trkpt lat="44.978365488606585" lon="9.854244669596465"><ele>59.666666666666664</ele><time>2026-04-25T12:34:15.999Z</time></trkpt><trkpt lat="44.97844785944103" lon="9.85426753352501"><ele>59.33333333333333</ele><time>2026-04-25T12:34:16.999Z</time></trkpt><trkpt lat="44.97852739777303" lon="9.85430755854008"><ele>59.0</ele><time>2026-04-25T12:34:17.999Z</time></trkpt><trkpt lat="44.97860082268003" lon="9.85436709151857"><ele>58.666666666666664</ele><time>2026-04-25T12:34:18.999Z</time></trkpt><trkpt lat="44.97867183880379" lon="9.854435296273456"><ele>58.33333333333333</ele><time>2026-04-25T12:34:19.999Z</time></trkpt><trkpt lat="44.97873131499534" lon="9.854518351473585"><ele>58.0</ele><time>2026-04-25T12:34:20.999Z</time></trkpt><trkpt lat="44.97878738060024" lon="9.85461230568044"><ele>57.99999999999999</ele><time>2026-04-25T12:34:21.999Z</time></trkpt><trkpt lat="44.97883928854289" lon="9.854705488566776"><ele>58.0</ele><time>2026-04-25T12:34:22.999Z</time></trkpt><trkpt lat="44.9788928561581" lon="9.85479872131791"><ele>58.0</ele><time>2026-04-25T12:34:23.999Z</time></trkpt><trkpt lat="44.97894935253732" lon="9.854888741759781"><ele>58.0</ele><time>2026-04-25T12:34:24.999Z</time></trkpt><trkpt lat="44.979007680212" lon="9.854980173141252"><ele>57.99999999999999</ele><time>2026-04-25T12:34:25.999Z</time></trkpt><trkpt lat="44.97906258823175" lon="9.855071603891993"><ele>58.0</ele><time>2026-04-25T12:34:26.999Z</time></trkpt><trkpt lat="44.97911883337796" lon="9.855163867624023"><ele>58.166666666666664</ele><time>2026-04-25T12:34:27.999Z</time></trkpt><trkpt lat="44.97917622407703" lon="9.855254839151138"><ele>58.33333333333333</ele><time>2026-04-25T12:34:28.999Z</time></trkpt><trkpt lat="44.979233738090386" lon="9.855344890997081"><ele>58.5</ele><time>2026-04-25T12:34:29.999Z</time></trkpt><trkpt lat="44.97929059552526" lon="9.855436417614623"><ele>58.66666666666667</ele><time>2026-04-25T12:34:30.999Z</time></trkpt><trkpt lat="44.979347021911686" lon="9.855526732455443"><ele>58.833333333333336</ele><time>2026-04-25T12:34:31.999Z</time></trkpt><trkpt lat="44.979405594459244" lon="9.855610730529348"><ele>59.0</ele><time>2026-04-25T12:34:32.999Z</time></trkpt><trkpt lat="44.979470667161735" lon="9.855683083177775"><ele>59.00000000000001</ele><time>2026-04-25T12:34:33.999Z</time></trkpt><trkpt lat="44.97954050163518" lon="9.855744059906321"><ele>59.0</ele><time>2026-04-25T12:34:34.999Z</time></trkpt><trkpt lat="44.97961647154406" lon="9.85578926125697"><ele>59.0</ele><time>2026-04-25T12:34:35.999Z</time></trkpt><trkpt lat="44.979697317077495" lon="9.855826767065023"><ele>59.0</ele><time>2026-04-25T12:34:36.999Z</time></trkpt><trkpt lat="44.97978096787364" lon="9.855853136872003"><ele>59.00000000000001</ele><time>2026-04-25T12:34:37.999Z</time></trkpt><trkpt lat="44.97986749316406" lon="9.855862153026512"><ele>59.0</ele><time>2026-04-25T12:34:38.999Z</time></trkpt><trkpt lat="44.979953656617376" lon="9.855867847408808"><ele>59.16666666666667</ele><time>2026-04-25T12:34:39.999Z</time></trkpt><trkpt lat="44.98003909208413" lon="9.855881224044127"><ele>59.333333333333336</ele><time>2026-04-25T12:34:40.999Z</time></trkpt><trkpt lat="44.98012285603371" lon="9.85589647319862"><ele>59.5</ele><time>2026-04-25T12:34:41.999Z</time></trkpt><trkpt lat="44.98020759653498" lon="9.85591059645478"><ele>59.66666666666667</ele><time>2026-04-25T12:34:42.999Z</time></trkpt><trkpt lat="44.98029201364283" lon="9.8559222786943"><ele>59.833333333333336</ele><time>2026-04-25T12:34:43.999Z</time></trkpt><trkpt lat="44.98037482430024" lon="9.855935583195869"><ele>60.0</ele><time>2026-04-25T12:34:44.999Z</time></trkpt><trkpt lat="44.980454967630976" lon="9.855951975864626"><ele>59.666666666666664</ele><time>2026-04-25T12:34:45.999Z</time></trkpt><trkpt lat="44.98053568813423" lon="9.855976383420991"><ele>59.33333333333333</ele><time>2026-04-25T12:34:46.999Z</time></trkpt><trkpt lat="44.98061825194677" lon="9.856007588114469"><ele>59.0</ele><time>2026-04-25T12:34:47.999Z</time></trkpt><trkpt lat="44.98070118525819" lon="9.856038507699607"><ele>58.666666666666664</ele><time>2026-04-25T12:34:48.999Z</time></trkpt><trkpt lat="44.98077936228791" lon="9.856077709143701"><ele>58.33333333333333</ele><time>2026-04-25T12:34:49.999Z</time></trkpt><trkpt lat="44.980852883418365" lon="9.856124313255695"><ele>58.0</ele><time>2026-04-25T12:34:50.999Z</time></trkpt><trkpt lat="44.980928380712164" lon="9.85617620666758"><ele>57.99999999999999</ele><time>2026-04-25T12:34:51.999Z</time></trkpt><trkpt lat="44.98100363938719" lon="9.856229709685403"><ele>58.0</ele><time>2026-04-25T12:34:52.999Z</time></trkpt><trkpt lat="44.98108162436318" lon="9.856278396135606"><ele>58.0</ele><time>2026-04-25T12:34:53.999Z</time></trkpt><trkpt lat="44.981156144288434" lon="9.856324572349834"><ele>58.0</ele><time>2026-04-25T12:34:54.999Z</time></trkpt><trkpt lat="44.98123369845519" lon="9.856370331004712"><ele>57.99999999999999</ele><time>2026-04-25T12:34:55.999Z</time></trkpt><trkpt lat="44.98131090544633" lon="9.856412219283234"><ele>58.0</ele><time>2026-04-25T12:34:56.999Z</time></trkpt><trkpt lat="44.98139196128765" lon="9.856442644652786"><ele>57.99999999999999</ele><time>2026-04-25T12:34:57.999Z</time></trkpt><trkpt lat="44.9814756352086" lon="9.856454620137619"><ele>58.0</ele><time>2026-04-25T12:34:58.999Z</time></trkpt><trkpt lat="44.98156013728524" lon="9.856452982863479"><ele>58.0</ele><time>2026-04-25T12:34:59.999Z</time></trkpt><trkpt lat="44.981642488509806" lon="9.856443853249383"><ele>58.0</ele><time>2026-04-25T12:35:00.999Z</time></trkpt><trkpt lat="44.981723275650836" lon="9.856419503695566"><ele>57.99999999999999</ele><time>2026-04-25T12:35:01.999Z</time></trkpt><trkpt lat="44.981798856908874" lon="9.85638543486705"><ele>58.0</ele><time>2026-04-25T12:35:02.999Z</time></trkpt><trkpt lat="44.98187456841568" lon="9.856338255908648"><ele>57.99999999999999</ele><time>2026-04-25T12:35:03.999Z</time></trkpt><trkpt lat="44.981944709619604" lon="9.856279420913651"><ele>58.0</ele><time>2026-04-25T12:35:04.999Z</time></trkpt><trkpt lat="44.982009493092974" lon="9.856209693411373"><ele>58.0</ele><time>2026-04-25T12:35:05.999Z</time></trkpt><trkpt lat="44.98207244568943" lon="9.8561398383551"><ele>58.0</ele><time>2026-04-25T12:35:06.999Z</time></trkpt><trkpt lat="44.982131223284014" lon="9.856066806599923"><ele>57.99999999999999</ele><time>2026-04-25T12:35:07.999Z</time></trkpt><trkpt lat="44.98218922632383" lon="9.855991144032439"><ele>58.0</ele><time>2026-04-25T12:35:08.999Z</time></trkpt><trkpt lat="44.982244771911624" lon="9.855921024352952"><ele>58.14285714285715</ele><time>2026-04-25T12:35:09.999Z</time></trkpt><trkpt lat="44.98230001161593" lon="9.855857621966694"><ele>58.28571428571429</ele><time>2026-04-25T12:35:10.998Z</time></trkpt><trkpt lat="44.98235078675116" lon="9.855790140719744"><ele>58.42857142857143</ele><time>2026-04-25T12:35:11.998Z</time></trkpt><trkpt lat="44.982399794578356" lon="9.855726100753825"><ele>58.57142857142858</ele><time>2026-04-25T12:35:12.998Z</time></trkpt><trkpt lat="44.98244858944273" lon="9.855662742571685"><ele>58.71428571428572</ele><time>2026-04-25T12:35:13.998Z</time></trkpt><trkpt lat="44.98249887140144" lon="9.855601295226977"><ele>58.857142857142854</ele><time>2026-04-25T12:35:14.998Z</time></trkpt><trkpt lat="44.98254815304267" lon="9.85553884367259"><ele>59.0</ele><time>2026-04-25T12:35:15.998Z</time></trkpt><trkpt lat="44.982599245910606" lon="9.855482425951596"><ele>59.2</ele><time>2026-04-25T12:35:16.998Z</time></trkpt><trkpt lat="44.98264863339919" lon="9.855425718172825"><ele>59.400000000000006</ele><time>2026-04-25T12:35:17.998Z</time></trkpt><trkpt lat="44.98274577334504" lon="9.855329066232125"><ele>59.6</ele><time>2026-04-25T12:35:19.998Z</time></trkpt><trkpt lat="44.98285071414754" lon="9.85524998863816"><ele>59.8</ele><time>2026-04-25T12:35:21.998Z</time></trkpt><trkpt lat="44.982962722525016" lon="9.85519407116783"><ele>60.0</ele><time>2026-04-25T12:35:23.998Z</time></trkpt><trkpt lat="44.983076289965474" lon="9.855175853610326"><ele>60.0</ele><time>2026-04-25T12:35:25.998Z</time></trkpt><trkpt lat="44.98318981309638" lon="9.855184167142731"><ele>60.0</ele><time>2026-04-25T12:35:27.998Z</time></trkpt><trkpt lat="44.983305468552665" lon="9.855218922686365"><ele>60.0</ele><time>2026-04-25T12:35:29.998Z</time></trkpt><trkpt lat="44.98342107473974" lon="9.855277212138272"><ele>60.0</ele><time>2026-04-25T12:35:31.998Z</time></trkpt><trkpt lat="44.98353025948999" lon="9.855360781179781"><ele>59.833333333333336</ele><time>2026-04-25T12:35:33.998Z</time></trkpt><trkpt lat="44.98363989845121" lon="9.855449480572533"><ele>59.66666666666667</ele><time>2026-04-25T12:35:35.998Z</time></trkpt><trkpt lat="44.98369848044514" lon="9.855496690868607"><ele>59.5</ele><time>2026-04-25T12:35:36.998Z</time></trkpt><trkpt lat="44.983756283186715" lon="9.855550188283834"><ele>59.333333333333336</ele><time>2026-04-25T12:35:37.998Z</time></trkpt><trkpt lat="44.983819239947145" lon="9.855599312925047"><ele>59.16666666666667</ele><time>2026-04-25T12:35:38.998Z</time></trkpt><trkpt lat="44.98387413796021" lon="9.855651416592016"><ele>59.0</ele><time>2026-04-25T12:35:39.998Z</time></trkpt><trkpt lat="44.983928110902546" lon="9.855697512179162"><ele>59.0</ele><time>2026-04-25T12:35:40.998Z</time></trkpt><trkpt lat="44.98398369234097" lon="9.855747032705347"><ele>59.0</ele><time>2026-04-25T12:35:41.998Z</time></trkpt><trkpt lat="44.98404892501725" lon="9.855777031203504"><ele>59.0</ele><time>2026-04-25T12:35:42.998Z</time></trkpt><trkpt lat="44.98410984613133" lon="9.855827506659356"><ele>59.0</ele><time>2026-04-25T12:35:44Z</time></trkpt><trkpt lat="44.984169685062426" lon="9.85587835286692"><ele>59.0</ele><time>2026-04-25T12:35:45Z</time></trkpt><trkpt lat="44.98423106677415" lon="9.855930916726223"><ele>59.0</ele><time>2026-04-25T12:35:46Z</time></trkpt><trkpt lat="44.98428965482099" lon="9.855982015218816"><ele>59.0</ele><time>2026-04-25T12:35:47Z</time></trkpt><trkpt lat="44.984347095908305" lon="9.856031250432268"><ele>58.71428571428571</ele><time>2026-04-25T12:35:48Z</time></trkpt><trkpt lat="44.98440547839821" lon="9.856081292566827"><ele>58.42857142857143</ele><time>2026-04-25T12:35:49Z</time></trkpt><trkpt lat="44.98446270253496" lon="9.85613034182765"><ele>58.14285714285714</ele><time>2026-04-25T12:35:50Z</time></trkpt><trkpt lat="44.984523359010694" lon="9.856183742394515"><ele>57.857142857142854</ele><time>2026-04-25T12:35:51Z</time></trkpt><trkpt lat="44.98458581887071" lon="9.856240382012672"><ele>57.57142857142857</ele><time>2026-04-25T12:35:52Z</time></trkpt><trkpt lat="44.984649049303705" lon="9.856305546706123"><ele>57.285714285714285</ele><time>2026-04-25T12:35:53Z</time></trkpt><trkpt lat="44.984702550503236" lon="9.856387906286193"><ele>57.0</ele><time>2026-04-25T12:35:54Z</time></trkpt><trkpt lat="44.984761248232374" lon="9.856465471023045"><ele>57.0</ele><time>2026-04-25T12:35:55Z</time></trkpt><trkpt lat="44.98481797779234" lon="9.856543144436236"><ele>57.0</ele><time>2026-04-25T12:35:56Z</time></trkpt><trkpt lat="44.98487509574582" lon="9.856623172085166"><ele>57.0</ele><time>2026-04-25T12:35:57Z</time></trkpt><trkpt lat="44.98492832940696" lon="9.856708308503705"><ele>57.0</ele><time>2026-04-25T12:35:58Z</time></trkpt><trkpt lat="44.98498268160113" lon="9.856795269955075"><ele>57.0</ele><time>2026-04-25T12:35:59Z</time></trkpt><trkpt lat="44.98503619839706" lon="9.856885459971313"><ele>57.0</ele><time>2026-04-25T12:36:00Z</time></trkpt><trkpt lat="44.98509111105023" lon="9.856977579226703"><ele>57.0</ele><time>2026-04-25T12:36:01Z</time></trkpt><trkpt lat="44.98514631455045" lon="9.85707268131586"><ele>57.0</ele><time>2026-04-25T12:36:02Z</time></trkpt><trkpt lat="44.985201487985655" lon="9.85717226166146"><ele>57.0</ele><time>2026-04-25T12:36:03Z</time></trkpt><trkpt lat="44.985255585472935" lon="9.857271120352568"><ele>57.0</ele><time>2026-04-25T12:36:04Z</time></trkpt><trkpt lat="44.98531521774025" lon="9.857373896494167"><ele>57.0</ele><time>2026-04-25T12:36:05Z</time></trkpt><trkpt lat="44.985369969636224" lon="9.85747352253123"><ele>57.0</ele><time>2026-04-25T12:36:06Z</time></trkpt><trkpt lat="44.9854316244075" lon="9.857574507566426"><ele>56.8</ele><time>2026-04-25T12:36:07Z</time></trkpt><trkpt lat="44.98549594696291" lon="9.85768200616461"><ele>56.6</ele><time>2026-04-25T12:36:08Z</time></trkpt><trkpt lat="44.98556002162129" lon="9.857796118797898"><ele>56.39999999999999</ele><time>2026-04-25T12:36:09Z</time></trkpt><trkpt lat="44.985620668285684" lon="9.857911324185935"><ele>56.199999999999996</ele><time>2026-04-25T12:36:10Z</time></trkpt><trkpt lat="44.98568766053212" lon="9.858030406913286"><ele>56.0</ele><time>2026-04-25T12:36:11Z</time></trkpt><trkpt lat="44.98575890063104" lon="9.858149136790827"><ele>56.0</ele><time>2026-04-25T12:36:12Z</time></trkpt><trkpt lat="44.98582602863711" lon="9.858266618049036"><ele>55.99999999999999</ele><time>2026-04-25T12:36:13Z</time></trkpt><trkpt lat="44.985906532917646" lon="9.858372636118679"><ele>55.99999999999999</ele><time>2026-04-25T12:36:14Z</time></trkpt><trkpt lat="44.985960278347186" lon="9.85850362561962"><ele>56.0</ele><time>2026-04-25T12:36:15Z</time></trkpt><trkpt lat="44.98602780870995" lon="9.858619084410197"><ele>56.0</ele><time>2026-04-25T12:36:15.999Z</time></trkpt><trkpt lat="44.98609611186501" lon="9.85873237814179"><ele>56.4</ele><time>2026-04-25T12:36:16.999Z</time></trkpt><trkpt lat="44.98616218597636" lon="9.858848335041193"><ele>56.8</ele><time>2026-04-25T12:36:17.999Z</time></trkpt><trkpt lat="44.98622835873054" lon="9.85896230759972"><ele>57.199999999999996</ele><time>2026-04-25T12:36:18.999Z</time></trkpt><trkpt lat="44.98629538462076" lon="9.859077351472306"><ele>57.599999999999994</ele><time>2026-04-25T12:36:19.999Z</time></trkpt><trkpt lat="44.986361267852196" lon="9.859190438206374"><ele>58.0</ele><time>2026-04-25T12:36:20.999Z</time></trkpt><trkpt lat="44.98642719700718" lon="9.859302665326195"><ele>58.0</ele><time>2026-04-25T12:36:21.999Z</time></trkpt><trkpt lat="44.98649056122407" lon="9.859411982606076"><ele>58.0</ele><time>2026-04-25T12:36:22.999Z</time></trkpt><trkpt lat="44.98655058587309" lon="9.859519330462996"><ele>58.0</ele><time>2026-04-25T12:36:23.999Z</time></trkpt><trkpt lat="44.986609889715034" lon="9.859625189065516"><ele>58.0</ele><time>2026-04-25T12:36:24.999Z</time></trkpt><trkpt lat="44.986665648830595" lon="9.859728859904665"><ele>58.0</ele><time>2026-04-25T12:36:25.999Z</time></trkpt><trkpt lat="44.98672108001438" lon="9.859829879954491"><ele>57.666666666666664</ele><time>2026-04-25T12:36:26.999Z</time></trkpt><trkpt lat="44.98677679812376" lon="9.859930542103864"><ele>57.33333333333333</ele><time>2026-04-25T12:36:27.999Z</time></trkpt><trkpt lat="44.986829842848785" lon="9.860030535284857"><ele>57.0</ele><time>2026-04-25T12:36:28.999Z</time></trkpt><trkpt lat="44.986880498211555" lon="9.860128010197606"><ele>56.66666666666667</ele><time>2026-04-25T12:36:29.999Z</time></trkpt><trkpt lat="44.9869296529303" lon="9.860230105588421"><ele>56.333333333333336</ele><time>2026-04-25T12:36:30.999Z</time></trkpt><trkpt lat="44.98698021340838" lon="9.86033430526225"><ele>56.0</ele><time>2026-04-25T12:36:31.999Z</time></trkpt><trkpt lat="44.98703030323978" lon="9.860438480259951"><ele>56.00000000000001</ele><time>2026-04-25T12:36:32.999Z</time></trkpt><trkpt lat="44.98707749145438" lon="9.860544163684452"><ele>56.0</ele><time>2026-04-25T12:36:33.999Z</time></trkpt><trkpt lat="44.987125377986814" lon="9.860652005535611"><ele>56.0</ele><time>2026-04-25T12:36:34.999Z</time></trkpt><trkpt lat="44.98717202530821" lon="9.860756467943558"><ele>56.0</ele><time>2026-04-25T12:36:35.999Z</time></trkpt><trkpt lat="44.98721855345094" lon="9.86086253377873"><ele>56.00000000000001</ele><time>2026-04-25T12:36:36.999Z</time></trkpt><trkpt lat="44.987264633593405" lon="9.860967392871615"><ele>56.0</ele><time>2026-04-25T12:36:37.999Z</time></trkpt><trkpt lat="44.987313375566956" lon="9.86107035074182"><ele>55.833333333333336</ele><time>2026-04-25T12:36:38.999Z</time></trkpt><trkpt lat="44.98736025566072" lon="9.861173747485447"><ele>55.66666666666667</ele><time>2026-04-25T12:36:39.999Z</time></trkpt><trkpt lat="44.98740732087768" lon="9.861276886039802"><ele>55.5</ele><time>2026-04-25T12:36:40.999Z</time></trkpt><trkpt lat="44.98745403606237" lon="9.861380027022651"><ele>55.33333333333333</ele><time>2026-04-25T12:36:41.999Z</time></trkpt><trkpt lat="44.98749892227709" lon="9.861482900810259"><ele>55.166666666666664</ele><time>2026-04-25T12:36:42.999Z</time></trkpt><trkpt lat="44.98754660870892" lon="9.861582497957615"><ele>55.0</ele><time>2026-04-25T12:36:43.999Z</time></trkpt><trkpt lat="44.98759204926957" lon="9.861683352950077"><ele>55.166666666666664</ele><time>2026-04-25T12:36:44.999Z</time></trkpt><trkpt lat="44.98763927908606" lon="9.861786476185083"><ele>55.33333333333333</ele><time>2026-04-25T12:36:45.999Z</time></trkpt><trkpt lat="44.98768669829544" lon="9.8618875172141"><ele>55.5</ele><time>2026-04-25T12:36:46.999Z</time></trkpt><trkpt lat="44.98773318723855" lon="9.86198838795591"><ele>55.66666666666667</ele><time>2026-04-25T12:36:47.999Z</time></trkpt><trkpt lat="44.98777956575572" lon="9.862090890275942"><ele>55.833333333333336</ele><time>2026-04-25T12:36:48.999Z</time></trkpt><trkpt lat="44.987826146351146" lon="9.862195549763507"><ele>56.0</ele><time>2026-04-25T12:36:49.999Z</time></trkpt><trkpt lat="44.98787466860491" lon="9.862297379673176"><ele>56.00000000000001</ele><time>2026-04-25T12:36:50.999Z</time></trkpt><trkpt lat="44.98792400096432" lon="9.862399011979813"><ele>56.0</ele><time>2026-04-25T12:36:51.999Z</time></trkpt><trkpt lat="44.98797135372994" lon="9.862502323953674"><ele>56.0</ele><time>2026-04-25T12:36:52.999Z</time></trkpt><trkpt lat="44.988018430185704" lon="9.862606384667048"><ele>56.0</ele><time>2026-04-25T12:36:53.999Z</time></trkpt><trkpt lat="44.98806540345538" lon="9.862708520546285"><ele>56.00000000000001</ele><time>2026-04-25T12:36:54.999Z</time></trkpt><trkpt lat="44.98811212614284" lon="9.862811815409296"><ele>56.0</ele><time>2026-04-25T12:36:55.999Z</time></trkpt><trkpt lat="44.988159555274464" lon="9.862915821390782"><ele>55.833333333333336</ele><time>2026-04-25T12:36:56.999Z</time></trkpt><trkpt lat="44.988208855902414" lon="9.863020166371005"><ele>55.66666666666667</ele><time>2026-04-25T12:36:57.999Z</time></trkpt><trkpt lat="44.98825650579932" lon="9.863122828069708"><ele>55.5</ele><time>2026-04-25T12:36:58.999Z</time></trkpt><trkpt lat="44.98830426356371" lon="9.86322424481065"><ele>55.33333333333333</ele><time>2026-04-25T12:36:59.999Z</time></trkpt><trkpt lat="44.988353171977955" lon="9.86332696716993"><ele>55.166666666666664</ele><time>2026-04-25T12:37:00.999Z</time></trkpt><trkpt lat="44.98840223180011" lon="9.8634278807348"><ele>55.0</ele><time>2026-04-25T12:37:01.999Z</time></trkpt><trkpt lat="44.98844996244758" lon="9.863530752363316"><ele>54.83333333333333</ele><time>2026-04-25T12:37:02.999Z</time></trkpt><trkpt lat="44.98849820395423" lon="9.863631217954158"><ele>54.666666666666664</ele><time>2026-04-25T12:37:03.999Z</time></trkpt><trkpt lat="44.988547262102195" lon="9.863733889087355"><ele>54.5</ele><time>2026-04-25T12:37:04.999Z</time></trkpt><trkpt lat="44.9885980063076" lon="9.863836740659073"><ele>54.33333333333333</ele><time>2026-04-25T12:37:05.999Z</time></trkpt><trkpt lat="44.988647297654445" lon="9.863941441397921"><ele>54.166666666666664</ele><time>2026-04-25T12:37:06.999Z</time></trkpt><trkpt lat="44.98870226407894" lon="9.864042495307515"><ele>54.0</ele><time>2026-04-25T12:37:07.999Z</time></trkpt><trkpt lat="44.988762557201746" lon="9.864140644478594"><ele>54.0</ele><time>2026-04-25T12:37:08.999Z</time></trkpt><trkpt lat="44.98882492656312" lon="9.864228797478212"><ele>54.00000000000001</ele><time>2026-04-25T12:37:09.999Z</time></trkpt><trkpt lat="44.98889111190896" lon="9.86431625403901"><ele>54.00000000000001</ele><time>2026-04-25T12:37:10.999Z</time></trkpt><trkpt lat="44.98896016558723" lon="9.864397739854214"><ele>54.0</ele><time>2026-04-25T12:37:11.999Z</time></trkpt><trkpt lat="44.98903102334938" lon="9.864481288475"><ele>54.0</ele><time>2026-04-25T12:37:12.999Z</time></trkpt><trkpt lat="44.989101144379255" lon="9.864565026098632"><ele>54.0</ele><time>2026-04-25T12:37:13.999Z</time></trkpt><trkpt lat="44.989170524662924" lon="9.864646430889797"><ele>54.0</ele><time>2026-04-25T12:37:14.998Z</time></trkpt><trkpt lat="44.98923759180883" lon="9.86472501244839"><ele>54.0</ele><time>2026-04-25T12:37:15.998Z</time></trkpt><trkpt lat="44.98930407359142" lon="9.864805375357502"><ele>54.0</ele><time>2026-04-25T12:37:16.998Z</time></trkpt><trkpt lat="44.98936937661307" lon="9.864884355182559"><ele>54.0</ele><time>2026-04-25T12:37:17.998Z</time></trkpt><trkpt lat="44.98943713426522" lon="9.864961336273923"><ele>54.0</ele><time>2026-04-25T12:37:18.998Z</time></trkpt><trkpt lat="44.98950369538367" lon="9.865037490985802"><ele>54.166666666666664</ele><time>2026-04-25T12:37:19.998Z</time></trkpt><trkpt lat="44.989570716471306" lon="9.865115133569336"><ele>54.33333333333333</ele><time>2026-04-25T12:37:20.998Z</time></trkpt><trkpt lat="44.98963735954875" lon="9.865193969973108"><ele>54.5</ele><time>2026-04-25T12:37:21.998Z</time></trkpt><trkpt lat="44.98970346705956" lon="9.86527179622666"><ele>54.666666666666664</ele><time>2026-04-25T12:37:22.998Z</time></trkpt><trkpt lat="44.98976803182805" lon="9.86535112996674"><ele>54.83333333333333</ele><time>2026-04-25T12:37:23.998Z</time></trkpt><trkpt lat="44.98983534723405" lon="9.865428424776574"><ele>55.0</ele><time>2026-04-25T12:37:24.998Z</time></trkpt><trkpt lat="44.98989935422402" lon="9.865504753894555"><ele>54.99999999999999</ele><time>2026-04-25T12:37:25.998Z</time></trkpt><trkpt lat="44.98996443718776" lon="9.865580116399043"><ele>55.0</ele><time>2026-04-25T12:37:26.998Z</time></trkpt><trkpt lat="44.99002954524173" lon="9.865658277850436"><ele>55.0</ele><time>2026-04-25T12:37:27.998Z</time></trkpt><trkpt lat="44.990092224765064" lon="9.865736169135797"><ele>55.0</ele><time>2026-04-25T12:37:28.998Z</time></trkpt><trkpt lat="44.990157027082866" lon="9.865813331451196"><ele>54.99999999999999</ele><time>2026-04-25T12:37:29.998Z</time></trkpt><trkpt lat="44.99022340824577" lon="9.86589057035735"><ele>55.0</ele><time>2026-04-25T12:37:30.998Z</time></trkpt><trkpt lat="44.99028934958322" lon="9.865968150651831"><ele>55.33333333333333</ele><time>2026-04-25T12:37:31.998Z</time></trkpt><trkpt lat="44.990353928449196" lon="9.866043935265447"><ele>55.666666666666664</ele><time>2026-04-25T12:37:32.998Z</time></trkpt><trkpt lat="44.990420466715676" lon="9.866121056078473"><ele>56.0</ele><time>2026-04-25T12:37:33.998Z</time></trkpt><trkpt lat="44.99048570214784" lon="9.86619643243915"><ele>56.33333333333333</ele><time>2026-04-25T12:37:34.998Z</time></trkpt><trkpt lat="44.9905519123999" lon="9.866271574808142"><ele>56.666666666666664</ele><time>2026-04-25T12:37:35.998Z</time></trkpt><trkpt lat="44.99061609205223" lon="9.86634700947049"><ele>57.0</ele><time>2026-04-25T12:37:36.998Z</time></trkpt><trkpt lat="44.990682681722674" lon="9.866424716713624"><ele>57.0</ele><time>2026-04-25T12:37:37.998Z</time></trkpt><trkpt lat="44.9907483671704" lon="9.866500358588205"><ele>57.0</ele><time>2026-04-25T12:37:38.998Z</time></trkpt><trkpt lat="44.99081463198137" lon="9.866578622880576"><ele>57.0</ele><time>2026-04-25T12:37:39.998Z</time></trkpt><trkpt lat="44.99087955099253" lon="9.866656786935918"><ele>57.0</ele><time>2026-04-25T12:37:40.998Z</time></trkpt><trkpt lat="44.990943885373454" lon="9.866733952882104"><ele>57.0</ele><time>2026-04-25T12:37:41.998Z</time></trkpt><trkpt lat="44.99100810911508" lon="9.866806945737698"><ele>57.0</ele><time>2026-04-25T12:37:42.998Z</time></trkpt><trkpt lat="44.99107125936093" lon="9.866879977055037"><ele>56.5</ele><time>2026-04-25T12:37:43.998Z</time></trkpt><trkpt lat="44.99113409100361" lon="9.866954202842422"><ele>56.0</ele><time>2026-04-25T12:37:44.998Z</time></trkpt><trkpt lat="44.9911990035117" lon="9.867025760274203"><ele>55.5</ele><time>2026-04-25T12:37:45.998Z</time></trkpt><trkpt lat="44.99126373198781" lon="9.867102256276084"><ele>55.0</ele><time>2026-04-25T12:37:46.998Z</time></trkpt><trkpt lat="44.99132802044294" lon="9.867179854221204"><ele>54.5</ele><time>2026-04-25T12:37:47.998Z</time></trkpt><trkpt lat="44.99138805859281" lon="9.867260064906855"><ele>54.0</ele><time>2026-04-25T12:37:48.998Z</time></trkpt><trkpt lat="44.991452144937085" lon="9.867336016783137"><ele>54.0</ele><time>2026-04-25T12:37:50Z</time></trkpt><trkpt lat="44.991516181826455" lon="9.867409854803514"><ele>54.0</ele><time>2026-04-25T12:37:51Z</time></trkpt><trkpt lat="44.99158102565794" lon="9.86748512056305"><ele>54.0</ele><time>2026-04-25T12:37:52Z</time></trkpt><trkpt lat="44.9916457430948" lon="9.867561981085245"><ele>54.0</ele><time>2026-04-25T12:37:53Z</time></trkpt><trkpt lat="44.99171252055404" lon="9.867642723318891"><ele>54.0</ele><time>2026-04-25T12:37:54Z</time></trkpt><trkpt lat="44.99177963955898" lon="9.86772077391449"><ele>54.0</ele><time>2026-04-25T12:37:55Z</time></trkpt><trkpt lat="44.99184738862541" lon="9.867798629297273"><ele>54.166666666666664</ele><time>2026-04-25T12:37:56Z</time></trkpt><trkpt lat="44.99191594701698" lon="9.867878136790683"><ele>54.33333333333333</ele><time>2026-04-25T12:37:57Z</time></trkpt><trkpt lat="44.99197993314115" lon="9.867960837368884"><ele>54.5</ele><time>2026-04-25T12:37:58Z</time></trkpt><trkpt lat="44.992040612300386" lon="9.868046645117388"><ele>54.666666666666664</ele><time>2026-04-25T12:37:59Z</time></trkpt><trkpt lat="44.99209563506972" lon="9.868138655981856"><ele>54.83333333333333</ele><time>2026-04-25T12:38:00Z</time></trkpt><trkpt lat="44.992147438001204" lon="9.868237153858809"><ele>55.0</ele><time>2026-04-25T12:38:01Z</time></trkpt><trkpt lat="44.99219489613861" lon="9.86834044299304"><ele>55.166666666666664</ele><time>2026-04-25T12:38:02Z</time></trkpt><trkpt lat="44.992235259026906" lon="9.86844655758553"><ele>55.33333333333333</ele><time>2026-04-25T12:38:03Z</time></trkpt><trkpt lat="44.992271543704504" lon="9.868553946825433"><ele>55.5</ele><time>2026-04-25T12:38:04Z</time></trkpt><trkpt lat="44.992305234165336" lon="9.86866130867614"><ele>55.66666666666667</ele><time>2026-04-25T12:38:05Z</time></trkpt><trkpt lat="44.992340197861985" lon="9.868770738788458"><ele>55.833333333333336</ele><time>2026-04-25T12:38:06Z</time></trkpt><trkpt lat="44.99237491780172" lon="9.868878929521605"><ele>56.0</ele><time>2026-04-25T12:38:07Z</time></trkpt><trkpt lat="44.99240718406669" lon="9.868987937705128"><ele>56.00000000000001</ele><time>2026-04-25T12:38:08Z</time></trkpt><trkpt lat="44.992437912935" lon="9.869092275922085"><ele>56.0</ele><time>2026-04-25T12:38:09Z</time></trkpt><trkpt lat="44.99247144751828" lon="9.869194168414163"><ele>56.0</ele><time>2026-04-25T12:38:10Z</time></trkpt><trkpt lat="44.992507135009106" lon="9.869297039790007"><ele>56.0</ele><time>2026-04-25T12:38:11Z</time></trkpt><trkpt lat="44.99254246179451" lon="9.869399046539074"><ele>56.00000000000001</ele><time>2026-04-25T12:38:12Z</time></trkpt><trkpt lat="44.99257820786002" lon="9.869506848667124"><ele>56.0</ele><time>2026-04-25T12:38:13Z</time></trkpt><trkpt lat="44.99262093942974" lon="9.86960977592324"><ele>56.00000000000001</ele><time>2026-04-25T12:38:14Z</time></trkpt><trkpt lat="44.992664686241795" lon="9.869708188043115"><ele>56.0</ele><time>2026-04-25T12:38:15Z</time></trkpt><trkpt lat="44.99271418349617" lon="9.86980180002862"><ele>56.0</ele><time>2026-04-25T12:38:16Z</time></trkpt><trkpt lat="44.992767412210284" lon="9.869890680255743"><ele>56.0</ele><time>2026-04-25T12:38:17Z</time></trkpt><trkpt lat="44.992821926833955" lon="9.869978746474514"><ele>56.00000000000001</ele><time>2026-04-25T12:38:18Z</time></trkpt><trkpt lat="44.99288241995923" lon="9.870058649143184"><ele>56.0</ele><time>2026-04-25T12:38:19Z</time></trkpt><trkpt lat="44.992947308609146" lon="9.870133399303544"><ele>56.00000000000001</ele><time>2026-04-25T12:38:19.999Z</time></trkpt><trkpt lat="44.993012565565806" lon="9.87020409738957"><ele>56.0</ele><time>2026-04-25T12:38:20.999Z</time></trkpt><trkpt lat="44.99308135374864" lon="9.87026683005223"><ele>56.0</ele><time>2026-04-25T12:38:21.999Z</time></trkpt><trkpt lat="44.99315370538585" lon="9.870327791467435"><ele>56.0</ele><time>2026-04-25T12:38:22.999Z</time></trkpt><trkpt lat="44.99322961948691" lon="9.870380938396021"><ele>56.00000000000001</ele><time>2026-04-25T12:38:23.999Z</time></trkpt><trkpt lat="44.993307487134295" lon="9.870429512120632"><ele>56.0</ele><time>2026-04-25T12:38:24.999Z</time></trkpt><trkpt lat="44.993387909456004" lon="9.87047291330927"><ele>56.16666666666667</ele><time>2026-04-25T12:38:25.999Z</time></trkpt><trkpt lat="44.993469732372866" lon="9.870512882234435"><ele>56.333333333333336</ele><time>2026-04-25T12:38:26.999Z</time></trkpt><trkpt lat="44.99355111843481" lon="9.870552683672255"><ele>56.5</ele><time>2026-04-25T12:38:27.999Z</time></trkpt><trkpt lat="44.99363023814454" lon="9.870590293157154"><ele>56.66666666666667</ele><time>2026-04-25T12:38:28.999Z</time></trkpt><trkpt lat="44.99370890969796" lon="9.870627845045847"><ele>56.833333333333336</ele><time>2026-04-25T12:38:29.999Z</time></trkpt><trkpt lat="44.99378763143468" lon="9.870665595682233"><ele>57.0</ele><time>2026-04-25T12:38:30.999Z</time></trkpt><trkpt lat="44.9938699765915" lon="9.870704626958753"><ele>57.0</ele><time>2026-04-25T12:38:31.999Z</time></trkpt><trkpt lat="44.99395020616084" lon="9.870743161810056"><ele>57.0</ele><time>2026-04-25T12:38:32.999Z</time></trkpt><trkpt lat="44.99403115839334" lon="9.870780317760193"><ele>57.0</ele><time>2026-04-25T12:38:33.999Z</time></trkpt><trkpt lat="44.99411267245125" lon="9.87082184888386"><ele>57.0</ele><time>2026-04-25T12:38:34.999Z</time></trkpt><trkpt lat="44.99419254883653" lon="9.870861485093531"><ele>57.0</ele><time>2026-04-25T12:38:35.999Z</time></trkpt><trkpt lat="44.994273322400126" lon="9.870901529714617"><ele>57.0</ele><time>2026-04-25T12:38:36.999Z</time></trkpt><trkpt lat="44.99435328757716" lon="9.87093830468262"><ele>56.5</ele><time>2026-04-25T12:38:37.999Z</time></trkpt><trkpt lat="44.994434219228694" lon="9.870973259397"><ele>56.0</ele><time>2026-04-25T12:38:38.999Z</time></trkpt><trkpt lat="44.994513522611356" lon="9.871009457234585"><ele>55.5</ele><time>2026-04-25T12:38:39.999Z</time></trkpt><trkpt lat="44.99459487357565" lon="9.871045934738401"><ele>55.0</ele><time>2026-04-25T12:38:40.999Z</time></trkpt><trkpt lat="44.994676194652065" lon="9.871088287542737"><ele>54.5</ele><time>2026-04-25T12:38:41.999Z</time></trkpt><trkpt lat="44.99475466985241" lon="9.871133651109462"><ele>54.0</ele><time>2026-04-25T12:38:42.999Z</time></trkpt><trkpt lat="44.99483532214114" lon="9.871179264674954"><ele>54.0</ele><time>2026-04-25T12:38:43.999Z</time></trkpt><trkpt lat="44.9949168701919" lon="9.871217800886688"><ele>54.0</ele><time>2026-04-25T12:38:44.999Z</time></trkpt><trkpt lat="44.99499857564" lon="9.871254739917184"><ele>54.0</ele><time>2026-04-25T12:38:45.999Z</time></trkpt><trkpt lat="44.99508044668445" lon="9.871292666966509"><ele>54.0</ele><time>2026-04-25T12:38:46.999Z</time></trkpt><trkpt lat="44.99516203173858" lon="9.871331292077548"><ele>54.0</ele><time>2026-04-25T12:38:47.999Z</time></trkpt><trkpt lat="44.995242294778805" lon="9.871372012849745"><ele>54.0</ele><time>2026-04-25T12:38:48.999Z</time></trkpt><trkpt lat="44.9953209675818" lon="9.871415430967343"><ele>54.166666666666664</ele><time>2026-04-25T12:38:49.999Z</time></trkpt><trkpt lat="44.99540325827183" lon="9.871453527868569"><ele>54.33333333333333</ele><time>2026-04-25T12:38:50.999Z</time></trkpt><trkpt lat="44.995487404740565" lon="9.871492248681243"><ele>54.5</ele><time>2026-04-25T12:38:51.999Z</time></trkpt><trkpt lat="44.9955675659453" lon="9.871531853802754"><ele>54.666666666666664</ele><time>2026-04-25T12:38:52.999Z</time></trkpt><trkpt lat="44.99564782368098" lon="9.871569897120683"><ele>54.83333333333333</ele><time>2026-04-25T12:38:53.999Z</time></trkpt><trkpt lat="44.995728503558226" lon="9.871608773254856"><ele>55.0</ele><time>2026-04-25T12:38:54.999Z</time></trkpt><trkpt lat="44.99581022598467" lon="9.871650367654166"><ele>54.99999999999999</ele><time>2026-04-25T12:38:55.999Z</time></trkpt><trkpt lat="44.99589356749616" lon="9.871688530578165"><ele>55.0</ele><time>2026-04-25T12:38:56.999Z</time></trkpt><trkpt lat="44.99597432613296" lon="9.871728461200517"><ele>55.0</ele><time>2026-04-25T12:38:57.999Z</time></trkpt><trkpt lat="44.996056419722365" lon="9.871768219046894"><ele>55.0</ele><time>2026-04-25T12:38:58.999Z</time></trkpt><trkpt lat="44.99613814285133" lon="9.871806213917667"><ele>54.99999999999999</ele><time>2026-04-25T12:38:59.999Z</time></trkpt><trkpt lat="44.996221181351544" lon="9.8718444751383"><ele>55.0</ele><time>2026-04-25T12:39:00.999Z</time></trkpt><trkpt lat="44.996305357337" lon="9.871882745542264"><ele>54.83333333333333</ele><time>2026-04-25T12:39:01.999Z</time></trkpt><trkpt lat="44.99638771545046" lon="9.871923189974584"><ele>54.666666666666664</ele><time>2026-04-25T12:39:02.999Z</time></trkpt><trkpt lat="44.99646759935723" lon="9.87196298134277"><ele>54.5</ele><time>2026-04-25T12:39:03.999Z</time></trkpt><trkpt lat="44.99654863066245" lon="9.872005227180429"><ele>54.33333333333333</ele><time>2026-04-25T12:39:04.999Z</time></trkpt><trkpt lat="44.99663273882632" lon="9.872043957367275"><ele>54.166666666666664</ele><time>2026-04-25T12:39:05.999Z</time></trkpt><trkpt lat="44.99671765850807" lon="9.87208910188228"><ele>54.0</ele><time>2026-04-25T12:39:06.999Z</time></trkpt><trkpt lat="44.99679988307542" lon="9.872126148383446"><ele>54.0</ele><time>2026-04-25T12:39:07.999Z</time></trkpt><trkpt lat="44.99688210135557" lon="9.872165243859447"><ele>54.0</ele><time>2026-04-25T12:39:08.999Z</time></trkpt><trkpt lat="44.99696437670285" lon="9.872206267771654"><ele>54.0</ele><time>2026-04-25T12:39:09.999Z</time></trkpt><trkpt lat="44.997048739575156" lon="9.872246758668558"><ele>54.0</ele><time>2026-04-25T12:39:10.999Z</time></trkpt><trkpt lat="44.997133436946044" lon="9.872287469958911"><ele>54.0</ele><time>2026-04-25T12:39:11.999Z</time></trkpt><trkpt lat="44.99721691942263" lon="9.872330680413558"><ele>54.0</ele><time>2026-04-25T12:39:12.999Z</time></trkpt><trkpt lat="44.997298614149" lon="9.872372693716752"><ele>54.0</ele><time>2026-04-25T12:39:13.999Z</time></trkpt><trkpt lat="44.99738135603798" lon="9.872412531033142"><ele>54.0</ele><time>2026-04-25T12:39:14.999Z</time></trkpt><trkpt lat="44.99746841383989" lon="9.87244904552269"><ele>54.0</ele><time>2026-04-25T12:39:15.999Z</time></trkpt><trkpt lat="44.99755231796308" lon="9.872489019770455"><ele>54.0</ele><time>2026-04-25T12:39:16.999Z</time></trkpt><trkpt lat="44.997638450474916" lon="9.872530463109813"><ele>54.0</ele><time>2026-04-25T12:39:17.998Z</time></trkpt><trkpt lat="44.997720313094774" lon="9.872571010788612"><ele>54.0</ele><time>2026-04-25T12:39:18.998Z</time></trkpt><trkpt lat="44.99780259473341" lon="9.872611931469033"><ele>54.0</ele><time>2026-04-25T12:39:19.998Z</time></trkpt><trkpt lat="44.99788402246206" lon="9.872650332278539"><ele>54.0</ele><time>2026-04-25T12:39:20.998Z</time></trkpt><trkpt lat="44.997966900923196" lon="9.87268888861644"><ele>54.0</ele><time>2026-04-25T12:39:21.998Z</time></trkpt><trkpt lat="44.99804569931031" lon="9.872728226589475"><ele>54.0</ele><time>2026-04-25T12:39:22.998Z</time></trkpt><trkpt lat="44.998128696927935" lon="9.872773355664997"><ele>54.0</ele><time>2026-04-25T12:39:23.998Z</time></trkpt><trkpt lat="44.99821237882374" lon="9.872813969233361"><ele>54.0</ele><time>2026-04-25T12:39:24.998Z</time></trkpt><trkpt lat="44.99829561369774" lon="9.872852864045848"><ele>54.0</ele><time>2026-04-25T12:39:25.998Z</time></trkpt><trkpt lat="44.99837749078732" lon="9.872891288252218"><ele>54.0</ele><time>2026-04-25T12:39:26.998Z</time></trkpt><trkpt lat="44.998457875567304" lon="9.872932664286308"><ele>54.0</ele><time>2026-04-25T12:39:27.998Z</time></trkpt><trkpt lat="44.99854027444767" lon="9.872972499670233"><ele>54.0</ele><time>2026-04-25T12:39:28.998Z</time></trkpt><trkpt lat="44.998622872605765" lon="9.873011190493246"><ele>54.0</ele><time>2026-04-25T12:39:29.998Z</time></trkpt><trkpt lat="44.998708850027704" lon="9.873051691019397"><ele>54.0</ele><time>2026-04-25T12:39:30.998Z</time></trkpt><trkpt lat="44.99879402797652" lon="9.873092609726672"><ele>54.0</ele><time>2026-04-25T12:39:31.998Z</time></trkpt><trkpt lat="44.99887614538752" lon="9.873134361225343"><ele>54.0</ele><time>2026-04-25T12:39:32.998Z</time></trkpt><trkpt lat="44.99896208915913" lon="9.873172366048015"><ele>54.0</ele><time>2026-04-25T12:39:33.998Z</time></trkpt><trkpt lat="44.99904839773604" lon="9.87321138493492"><ele>54.0</ele><time>2026-04-25T12:39:34.998Z</time></trkpt><trkpt lat="44.99913474110051" lon="9.873250433423639"><ele>54.0</ele><time>2026-04-25T12:39:35.998Z</time></trkpt><trkpt lat="44.99922018238759" lon="9.873281688834957"><ele>54.0</ele><time>2026-04-25T12:39:36.998Z</time></trkpt><trkpt lat="44.9993097554346" lon="9.87331108487697"><ele>53.6</ele><time>2026-04-25T12:39:37.998Z</time></trkpt><trkpt lat="44.99939842769588" lon="9.873339749499655"><ele>53.2</ele><time>2026-04-25T12:39:38.998Z</time></trkpt><trkpt lat="44.99948609109106" lon="9.87336834106484"><ele>52.800000000000004</ele><time>2026-04-25T12:39:39.998Z</time></trkpt><trkpt lat="44.999576554131494" lon="9.873391045008436"><ele>52.400000000000006</ele><time>2026-04-25T12:39:40.998Z</time></trkpt><trkpt lat="44.999664355077684" lon="9.873416390454121"><ele>52.0</ele><time>2026-04-25T12:39:41.998Z</time></trkpt><trkpt lat="44.99975301078471" lon="9.873439547748053"><ele>52.0</ele><time>2026-04-25T12:39:42.998Z</time></trkpt><trkpt lat="44.99984234626761" lon="9.873467553695912"><ele>52.0</ele><time>2026-04-25T12:39:43.998Z</time></trkpt><trkpt lat="44.99993033522207" lon="9.873489532325086"><ele>52.0</ele><time>2026-04-25T12:39:44.998Z</time></trkpt><trkpt lat="45.00002146538428" lon="9.873511701028063"><ele>52.0</ele><time>2026-04-25T12:39:45.998Z</time></trkpt><trkpt lat="45.00011082133881" lon="9.873537434720339"><ele>52.0</ele><time>2026-04-25T12:39:46.998Z</time></trkpt><trkpt lat="45.0001998510301" lon="9.873563107606651"><ele>51.99999999999999</ele><time>2026-04-25T12:39:47.998Z</time></trkpt><trkpt lat="45.0002880851976" lon="9.873589602858814"><ele>52.0</ele><time>2026-04-25T12:39:48.998Z</time></trkpt><trkpt lat="45.00037560070321" lon="9.87361360614068"><ele>52.0</ele><time>2026-04-25T12:39:49.998Z</time></trkpt><trkpt lat="45.00046317830704" lon="9.873636389090525"><ele>52.0</ele><time>2026-04-25T12:39:50.998Z</time></trkpt><trkpt lat="45.00055033028649" lon="9.873658568522183"><ele>51.99999999999999</ele><time>2026-04-25T12:39:51.998Z</time></trkpt><trkpt lat="45.00063558359931" lon="9.873684439001053"><ele>52.0</ele><time>2026-04-25T12:39:52.998Z</time></trkpt><trkpt lat="45.00072210924134" lon="9.873711876899733"><ele>51.99999999999999</ele><time>2026-04-25T12:39:53.998Z</time></trkpt><trkpt lat="45.00080756208306" lon="9.873735992297707"><ele>52.0</ele><time>2026-04-25T12:39:54.998Z</time></trkpt><trkpt lat="45.000893425780944" lon="9.87376006649267"><ele>52.0</ele><time>2026-04-25T12:39:56Z</time></trkpt><trkpt lat="45.000976798427956" lon="9.873785620647299"><ele>52.0</ele><time>2026-04-25T12:39:57Z</time></trkpt><trkpt lat="45.00105888966008" lon="9.87380848199882"><ele>51.99999999999999</ele><time>2026-04-25T12:39:58Z</time></trkpt><trkpt lat="45.00114316449148" lon="9.873831377872113"><ele>52.0</ele><time>2026-04-25T12:39:59Z</time></trkpt><trkpt lat="45.00122635406003" lon="9.873854565322276"><ele>52.166666666666664</ele><time>2026-04-25T12:40:00Z</time></trkpt><trkpt lat="45.00130956565165" lon="9.873885512143094"><ele>52.33333333333333</ele><time>2026-04-25T12:40:01Z</time></trkpt><trkpt lat="45.00139175345728" lon="9.873916862937442"><ele>52.5</ele><time>2026-04-25T12:40:02Z</time></trkpt><trkpt lat="45.00147109653213" lon="9.873951381476836"><ele>52.66666666666667</ele><time>2026-04-25T12:40:03Z</time></trkpt><trkpt lat="45.00155047612595" lon="9.873988045924635"><ele>52.833333333333336</ele><time>2026-04-25T12:40:04Z</time></trkpt><trkpt lat="45.001630216759104" lon="9.874027729355705"><ele>53.0</ele><time>2026-04-25T12:40:05Z</time></trkpt><trkpt lat="45.00171143382493" lon="9.874064709394679"><ele>53.00000000000001</ele><time>2026-04-25T12:40:06Z</time></trkpt><trkpt lat="45.001793519206196" lon="9.874100533149672"><ele>53.0</ele><time>2026-04-25T12:40:07Z</time></trkpt><trkpt lat="45.00187272977683" lon="9.874140438406894"><ele>53.0</ele><time>2026-04-25T12:40:08Z</time></trkpt><trkpt lat="45.001954261180856" lon="9.874180491175755"><ele>53.0</ele><time>2026-04-25T12:40:09Z</time></trkpt><trkpt lat="45.00203599791064" lon="9.874221128641118"><ele>53.00000000000001</ele><time>2026-04-25T12:40:10Z</time></trkpt><trkpt lat="45.00211935630134" lon="9.874261982348692"><ele>53.0</ele><time>2026-04-25T12:40:11Z</time></trkpt><trkpt lat="45.002201789568986" lon="9.874299559313505"><ele>52.833333333333336</ele><time>2026-04-25T12:40:12Z</time></trkpt><trkpt lat="45.00228296767592" lon="9.874339472552407"><ele>52.66666666666667</ele><time>2026-04-25T12:40:13Z</time></trkpt><trkpt lat="45.00236545721427" lon="9.874380273854042"><ele>52.5</ele><time>2026-04-25T12:40:14Z</time></trkpt><trkpt lat="45.00244755631402" lon="9.874420850901569"><ele>52.33333333333333</ele><time>2026-04-25T12:40:15Z</time></trkpt><trkpt lat="45.00253025209667" lon="9.87446119729788"><ele>52.166666666666664</ele><time>2026-04-25T12:40:16Z</time></trkpt><trkpt lat="45.00261308760318" lon="9.874500200384901"><ele>52.0</ele><time>2026-04-25T12:40:17Z</time></trkpt><trkpt lat="45.002694578198216" lon="9.874538725317752"><ele>51.99999999999999</ele><time>2026-04-25T12:40:18Z</time></trkpt><trkpt lat="45.00277327842138" lon="9.874577810836659"><ele>52.0</ele><time>2026-04-25T12:40:19Z</time></trkpt><trkpt lat="45.00285274832087" lon="9.87461589756635"><ele>52.0</ele><time>2026-04-25T12:40:20Z</time></trkpt><trkpt lat="45.002932932512635" lon="9.87465386004019"><ele>52.0</ele><time>2026-04-25T12:40:21Z</time></trkpt><trkpt lat="45.00301417075498" lon="9.874693326481992"><ele>51.99999999999999</ele><time>2026-04-25T12:40:22Z</time></trkpt><trkpt lat="45.00309578337126" lon="9.874729337365787"><ele>52.0</ele><time>2026-04-25T12:40:22.999Z</time></trkpt><trkpt lat="45.00317629573976" lon="9.87476852479261"><ele>51.99999999999999</ele><time>2026-04-25T12:40:23.999Z</time></trkpt><trkpt lat="45.00325551641691" lon="9.874805522199912"><ele>52.0</ele><time>2026-04-25T12:40:24.999Z</time></trkpt><trkpt lat="45.003335351726356" lon="9.874842406102692"><ele>52.0</ele><time>2026-04-25T12:40:25.999Z</time></trkpt><trkpt lat="45.00341539542359" lon="9.874881531111315"><ele>52.0</ele><time>2026-04-25T12:40:26.999Z</time></trkpt><trkpt lat="45.00349467632857" lon="9.87492039359947"><ele>51.99999999999999</ele><time>2026-04-25T12:40:27.999Z</time></trkpt><trkpt lat="45.00357254448237" lon="9.874959456018214"><ele>52.0</ele><time>2026-04-25T12:40:28.999Z</time></trkpt><trkpt lat="45.00364939682024" lon="9.874994868030349"><ele>51.99999999999999</ele><time>2026-04-25T12:40:29.999Z</time></trkpt><trkpt lat="45.003723749137215" lon="9.875033937664597"><ele>52.0</ele><time>2026-04-25T12:40:30.999Z</time></trkpt><trkpt lat="45.00380073163809" lon="9.875076593406058"><ele>52.0</ele><time>2026-04-25T12:40:31.999Z</time></trkpt><trkpt lat="45.00387812100164" lon="9.875123232428415"><ele>52.0</ele><time>2026-04-25T12:40:32.999Z</time></trkpt><trkpt lat="45.0039597765223" lon="9.875167285182027"><ele>51.99999999999999</ele><time>2026-04-25T12:40:33.999Z</time></trkpt><trkpt lat="45.00404150464028" lon="9.875207759099732"><ele>52.0</ele><time>2026-04-25T12:40:34.999Z</time></trkpt><trkpt lat="45.004120758471025" lon="9.875249904578157"><ele>51.83333333333333</ele><time>2026-04-25T12:40:35.999Z</time></trkpt><trkpt lat="45.0042012612139" lon="9.875292471318417"><ele>51.666666666666664</ele><time>2026-04-25T12:40:36.999Z</time></trkpt><trkpt lat="45.00428031734041" lon="9.875332434711382"><ele>51.5</ele><time>2026-04-25T12:40:37.999Z</time></trkpt><trkpt lat="45.004358102569924" lon="9.875376172812734"><ele>51.33333333333333</ele><time>2026-04-25T12:40:38.999Z</time></trkpt><trkpt lat="45.00443919184014" lon="9.875418993461603"><ele>51.166666666666664</ele><time>2026-04-25T12:40:39.999Z</time></trkpt><trkpt lat="45.00451992696518" lon="9.875461301022415"><ele>51.0</ele><time>2026-04-25T12:40:40.999Z</time></trkpt><trkpt lat="45.00460213494827" lon="9.875507264001202"><ele>51.0</ele><time>2026-04-25T12:40:41.999Z</time></trkpt><trkpt lat="45.00468203930128" lon="9.875551123320887"><ele>51.0</ele><time>2026-04-25T12:40:42.999Z</time></trkpt><trkpt lat="45.004762582805846" lon="9.875588482946712"><ele>51.0</ele><time>2026-04-25T12:40:43.999Z</time></trkpt><trkpt lat="45.00484183488712" lon="9.875626171556247"><ele>51.0</ele><time>2026-04-25T12:40:44.999Z</time></trkpt><trkpt lat="45.004919432421616" lon="9.875664094640236"><ele>51.0</ele><time>2026-04-25T12:40:45.999Z</time></trkpt><trkpt lat="45.004997236392676" lon="9.875706523381204"><ele>51.0</ele><time>2026-04-25T12:40:46.999Z</time></trkpt><trkpt lat="45.00507369860318" lon="9.875752987797604"><ele>51.5</ele><time>2026-04-25T12:40:47.999Z</time></trkpt><trkpt lat="45.00515090775529" lon="9.875797343833975"><ele>52.0</ele><time>2026-04-25T12:40:48.999Z</time></trkpt><trkpt lat="45.00522953290624" lon="9.87583928668848"><ele>52.5</ele><time>2026-04-25T12:40:49.999Z</time></trkpt><trkpt lat="45.00530707358513" lon="9.87587776624175"><ele>53.0</ele><time>2026-04-25T12:40:50.999Z</time></trkpt><trkpt lat="45.00538530211909" lon="9.875916982465247"><ele>53.5</ele><time>2026-04-25T12:40:51.999Z</time></trkpt><trkpt lat="45.00546538690197" lon="9.875961774958613"><ele>54.0</ele><time>2026-04-25T12:40:52.999Z</time></trkpt><trkpt lat="45.005540246663784" lon="9.87601246057498"><ele>54.0</ele><time>2026-04-25T12:40:53.999Z</time></trkpt><trkpt lat="45.00561627184105" lon="9.8760628757783"><ele>54.0</ele><time>2026-04-25T12:40:54.999Z</time></trkpt><trkpt lat="45.00568928371479" lon="9.87611494265858"><ele>54.0</ele><time>2026-04-25T12:40:55.999Z</time></trkpt><trkpt lat="45.005762042333124" lon="9.876167662326509"><ele>54.0</ele><time>2026-04-25T12:40:56.999Z</time></trkpt><trkpt lat="45.005831828344704" lon="9.876217062351289"><ele>54.0</ele><time>2026-04-25T12:40:57.999Z</time></trkpt><trkpt lat="45.00590063837123" lon="9.876269399570596"><ele>54.0</ele><time>2026-04-25T12:40:58.999Z</time></trkpt><trkpt lat="45.00596755850735" lon="9.876321978284912"><ele>54.166666666666664</ele><time>2026-04-25T12:40:59.999Z</time></trkpt><trkpt lat="45.00603318169487" lon="9.876374750652783"><ele>54.33333333333333</ele><time>2026-04-25T12:41:00.999Z</time></trkpt><trkpt lat="45.00610294398743" lon="9.876424573505872"><ele>54.5</ele><time>2026-04-25T12:41:01.999Z</time></trkpt><trkpt lat="45.006173864104106" lon="9.876474504752661"><ele>54.666666666666664</ele><time>2026-04-25T12:41:02.999Z</time></trkpt><trkpt lat="45.00624433797919" lon="9.876524876779003"><ele>54.83333333333333</ele><time>2026-04-25T12:41:03.999Z</time></trkpt><trkpt lat="45.00631100337228" lon="9.876576734271357"><ele>55.0</ele><time>2026-04-25T12:41:04.999Z</time></trkpt><trkpt lat="45.00637843788605" lon="9.876626761899331"><ele>54.99999999999999</ele><time>2026-04-25T12:41:05.999Z</time></trkpt><trkpt lat="45.00644348326424" lon="9.876676395415727"><ele>55.0</ele><time>2026-04-25T12:41:06.999Z</time></trkpt><trkpt lat="45.0065029617055" lon="9.876733574560445"><ele>55.0</ele><time>2026-04-25T12:41:07.999Z</time></trkpt><trkpt lat="45.00656341132754" lon="9.876784790866214"><ele>55.0</ele><time>2026-04-25T12:41:08.999Z</time></trkpt><trkpt lat="45.00661862260376" lon="9.87683731659534"><ele>54.99999999999999</ele><time>2026-04-25T12:41:09.999Z</time></trkpt><trkpt lat="45.00661046902667" lon="9.876994658283884"><ele>55.0</ele><time>2026-04-25T12:41:10.999Z</time></trkpt><trkpt lat="45.006619563374095" lon="9.877097722084365"><ele>54.83333333333333</ele><time>2026-04-25T12:41:11.999Z</time></trkpt><trkpt lat="45.00661470781533" lon="9.877202842049524"><ele>54.666666666666664</ele><time>2026-04-25T12:41:12.999Z</time></trkpt><trkpt lat="45.00659435778994" lon="9.877308920382266"><ele>54.5</ele><time>2026-04-25T12:41:13.999Z</time></trkpt><trkpt lat="45.00659257394337" lon="9.877420875696222"><ele>54.33333333333333</ele><time>2026-04-25T12:41:14.999Z</time></trkpt><trkpt lat="45.006522823191055" lon="9.877515338543851"><ele>54.166666666666664</ele><time>2026-04-25T12:41:15.999Z</time></trkpt><trkpt lat="45.00647671518737" lon="9.877615491419052"><ele>54.0</ele><time>2026-04-25T12:41:16.999Z</time></trkpt><trkpt lat="45.00643537616688" lon="9.877721070408604"><ele>54.0</ele><time>2026-04-25T12:41:17.999Z</time></trkpt><trkpt lat="45.00639446203595" lon="9.877829076093832"><ele>54.0</ele><time>2026-04-25T12:41:18.999Z</time></trkpt><trkpt lat="45.00635697069632" lon="9.8779345130817"><ele>54.0</ele><time>2026-04-25T12:41:19.999Z</time></trkpt><trkpt lat="45.006321031320404" lon="9.878042482864336"><ele>54.0</ele><time>2026-04-25T12:41:20.999Z</time></trkpt><trkpt lat="45.00628473476221" lon="9.878145546805785"><ele>54.0</ele><time>2026-04-25T12:41:21.999Z</time></trkpt><trkpt lat="45.006247916959715" lon="9.878245761594112"><ele>54.0</ele><time>2026-04-25T12:41:22.998Z</time></trkpt><trkpt lat="45.00621210593431" lon="9.878343286949875"><ele>54.14285714285714</ele><time>2026-04-25T12:41:23.998Z</time></trkpt><trkpt lat="45.00617620775721" lon="9.878439442769544"><ele>54.285714285714285</ele><time>2026-04-25T12:41:24.998Z</time></trkpt><trkpt lat="45.00614088821894" lon="9.87853450933157"><ele>54.42857142857143</ele><time>2026-04-25T12:41:25.998Z</time></trkpt><trkpt lat="45.00610595313078" lon="9.878629366635513"><ele>54.57142857142857</ele><time>2026-04-25T12:41:26.998Z</time></trkpt><trkpt lat="45.00607105026086" lon="9.878722192058055"><ele>54.714285714285715</ele><time>2026-04-25T12:41:27.998Z</time></trkpt><trkpt lat="45.006035801139994" lon="9.878812419432835"><ele>54.857142857142854</ele><time>2026-04-25T12:41:28.998Z</time></trkpt><trkpt lat="45.00600108265435" lon="9.878903170426767"><ele>55.0</ele><time>2026-04-25T12:41:29.998Z</time></trkpt><trkpt lat="45.00596524412765" lon="9.878998291796389"><ele>54.99999999999999</ele><time>2026-04-25T12:41:30.998Z</time></trkpt><trkpt lat="45.00592986436309" lon="9.879096444016655"><ele>55.0</ele><time>2026-04-25T12:41:31.998Z</time></trkpt><trkpt lat="45.00589402787825" lon="9.879195886319327"><ele>55.0</ele><time>2026-04-25T12:41:32.998Z</time></trkpt><trkpt lat="45.00585950345839" lon="9.879289704975616"><ele>55.0</ele><time>2026-04-25T12:41:33.998Z</time></trkpt><trkpt lat="45.005828847849365" lon="9.879384646130136"><ele>54.99999999999999</ele><time>2026-04-25T12:41:34.998Z</time></trkpt><trkpt lat="45.00579829797727" lon="9.879479383369425"><ele>55.0</ele><time>2026-04-25T12:41:35.998Z</time></trkpt><trkpt lat="45.00576651911885" lon="9.879569618660328"><ele>54.57142857142857</ele><time>2026-04-25T12:41:36.998Z</time></trkpt><trkpt lat="45.00573429239112" lon="9.879658252379194"><ele>54.14285714285714</ele><time>2026-04-25T12:41:37.998Z</time></trkpt><trkpt lat="45.005701590469556" lon="9.879748235943277"><ele>53.71428571428571</ele><time>2026-04-25T12:41:38.998Z</time></trkpt><trkpt lat="45.00566847448842" lon="9.879841594763358"><ele>53.285714285714285</ele><time>2026-04-25T12:41:39.998Z</time></trkpt><trkpt lat="45.00563554299075" lon="9.87993825930536"><ele>52.85714285714286</ele><time>2026-04-25T12:41:40.998Z</time></trkpt><trkpt lat="45.00560180416001" lon="9.880036107638984"><ele>52.42857142857142</ele><time>2026-04-25T12:41:41.998Z</time></trkpt><trkpt lat="45.005568243283506" lon="9.880133276877016"><ele>52.0</ele><time>2026-04-25T12:41:42.998Z</time></trkpt><trkpt lat="45.00553474670577" lon="9.880229899720904"><ele>52.0</ele><time>2026-04-25T12:41:43.998Z</time></trkpt><trkpt lat="45.00550055926335" lon="9.88032251385285"><ele>52.0</ele><time>2026-04-25T12:41:44.998Z</time></trkpt><trkpt lat="45.00547204012416" lon="9.880417835668883"><ele>52.0</ele><time>2026-04-25T12:41:45.998Z</time></trkpt><trkpt lat="45.00543500194092" lon="9.880529592333898"><ele>52.0</ele><time>2026-04-25T12:41:47.998Z</time></trkpt><trkpt lat="45.00561386956337" lon="9.880665470145718"><ele>52.0</ele><time>2026-04-25T12:41:48.998Z</time></trkpt><trkpt lat="45.00568381595033" lon="9.880718409282894"><ele>51.99999999999999</ele><time>2026-04-25T12:41:49.998Z</time></trkpt><trkpt lat="45.00575289491865" lon="9.880777620623032"><ele>52.0</ele><time>2026-04-25T12:41:50.998Z</time></trkpt><trkpt lat="45.00581688419377" lon="9.880839655527828"><ele>52.0</ele><time>2026-04-25T12:41:51.998Z</time></trkpt><trkpt lat="45.00588121467352" lon="9.880903738076212"><ele>52.0</ele><time>2026-04-25T12:41:52.998Z</time></trkpt><trkpt lat="45.005945453375055" lon="9.880964954010093"><ele>51.99999999999999</ele><time>2026-04-25T12:41:53.998Z</time></trkpt><trkpt lat="45.006008192524504" lon="9.881023966722617"><ele>52.0</ele><time>2026-04-25T12:41:54.998Z</time></trkpt><trkpt lat="45.00606936838325" lon="9.881083147248184"><ele>51.83333333333333</ele><time>2026-04-25T12:41:55.998Z</time></trkpt><trkpt lat="45.00612924051325" lon="9.881142770099832"><ele>51.666666666666664</ele><time>2026-04-25T12:41:56.998Z</time></trkpt><trkpt lat="45.00618705966002" lon="9.881204275601062"><ele>51.5</ele><time>2026-04-25T12:41:57.998Z</time></trkpt><trkpt lat="45.00624812423943" lon="9.881262046445938"><ele>51.33333333333333</ele><time>2026-04-25T12:41:58.998Z</time></trkpt><trkpt lat="45.006312833764376" lon="9.881318318855845"><ele>51.166666666666664</ele><time>2026-04-25T12:41:59.998Z</time></trkpt><trkpt lat="45.00637714114728" lon="9.88137898193873"><ele>51.0</ele><time>2026-04-25T12:42:00.998Z</time></trkpt><trkpt lat="45.00644173708268" lon="9.881445101394789"><ele>51.0</ele><time>2026-04-25T12:42:02Z</time></trkpt><trkpt lat="45.00650671437532" lon="9.881514892445418"><ele>51.0</ele><time>2026-04-25T12:42:03Z</time></trkpt><trkpt lat="45.00658138038817" lon="9.881577581825935"><ele>51.0</ele><time>2026-04-25T12:42:04Z</time></trkpt><trkpt lat="45.0066542050252" lon="9.881642843063865"><ele>51.0</ele><time>2026-04-25T12:42:05Z</time></trkpt><trkpt lat="45.00672624845042" lon="9.881709524082524"><ele>51.0</ele><time>2026-04-25T12:42:06Z</time></trkpt><trkpt lat="45.006796829041946" lon="9.8817824344214"><ele>51.0</ele><time>2026-04-25T12:42:07Z</time></trkpt><trkpt lat="45.00686499416769" lon="9.881860288141578"><ele>51.0</ele><time>2026-04-25T12:42:08Z</time></trkpt><trkpt lat="45.00693636086158" lon="9.881934385292176"><ele>51.0</ele><time>2026-04-25T12:42:09Z</time></trkpt><trkpt lat="45.007009763718685" lon="9.88200577114251"><ele>51.0</ele><time>2026-04-25T12:42:10Z</time></trkpt><trkpt lat="45.00708095410099" lon="9.882077697143295"><ele>51.0</ele><time>2026-04-25T12:42:11Z</time></trkpt><trkpt lat="45.00715295832546" lon="9.882147232504948"><ele>51.0</ele><time>2026-04-25T12:42:12Z</time></trkpt><trkpt lat="45.00722298503337" lon="9.882214906256065"><ele>51.0</ele><time>2026-04-25T12:42:13Z</time></trkpt><trkpt lat="45.007291233061146" lon="9.882281576966239"><ele>51.0</ele><time>2026-04-25T12:42:14Z</time></trkpt><trkpt lat="45.00735445970855" lon="9.882351631427788"><ele>51.0</ele><time>2026-04-25T12:42:15Z</time></trkpt><trkpt lat="45.00742218041684" lon="9.882422785493974"><ele>51.0</ele><time>2026-04-25T12:42:16Z</time></trkpt><trkpt lat="45.007490439360986" lon="9.882493388977684"><ele>51.0</ele><time>2026-04-25T12:42:17Z</time></trkpt><trkpt lat="45.00755831446503" lon="9.882564551439595"><ele>51.0</ele><time>2026-04-25T12:42:18Z</time></trkpt><trkpt lat="45.00762700044115" lon="9.882636844918522"><ele>51.0</ele><time>2026-04-25T12:42:19Z</time></trkpt><trkpt lat="45.0076947248133" lon="9.882708999811383"><ele>50.833333333333336</ele><time>2026-04-25T12:42:20Z</time></trkpt><trkpt lat="45.007762877676946" lon="9.882779266420245"><ele>50.66666666666667</ele><time>2026-04-25T12:42:21Z</time></trkpt><trkpt lat="45.00783051258636" lon="9.882849627236954"><ele>50.5</ele><time>2026-04-25T12:42:22Z</time></trkpt><trkpt lat="45.0078982836562" lon="9.882921263378464"><ele>50.333333333333336</ele><time>2026-04-25T12:42:23Z</time></trkpt><trkpt lat="45.00796846557141" lon="9.88299153940576"><ele>50.16666666666667</ele><time>2026-04-25T12:42:24Z</time></trkpt><trkpt lat="45.00803649346926" lon="9.883062960778615"><ele>50.0</ele><time>2026-04-25T12:42:25Z</time></trkpt><trkpt lat="45.00810322157091" lon="9.883135378055472"><ele>50.00000000000001</ele><time>2026-04-25T12:42:26Z</time></trkpt><trkpt lat="45.008171601094155" lon="9.883206768397152"><ele>50.0</ele><time>2026-04-25T12:42:26.999Z</time></trkpt><trkpt lat="45.00823986768885" lon="9.883276090444701"><ele>50.0</ele><time>2026-04-25T12:42:27.999Z</time></trkpt><trkpt lat="45.008307219358194" lon="9.883346634552128"><ele>50.0</ele><time>2026-04-25T12:42:28.999Z</time></trkpt><trkpt lat="45.008375523616756" lon="9.883416399249246"><ele>50.00000000000001</ele><time>2026-04-25T12:42:29.999Z</time></trkpt><trkpt lat="45.008443503167044" lon="9.883485676844197"><ele>50.0</ele><time>2026-04-25T12:42:30.999Z</time></trkpt><trkpt lat="45.008510547190475" lon="9.883555325369322"><ele>50.00000000000001</ele><time>2026-04-25T12:42:31.999Z</time></trkpt><trkpt lat="45.00857703115923" lon="9.883625331940706"><ele>50.0</ele><time>2026-04-25T12:42:32.999Z</time></trkpt><trkpt lat="45.00864496525499" lon="9.88369799080372"><ele>50.0</ele><time>2026-04-25T12:42:33.999Z</time></trkpt><trkpt lat="45.00871430357418" lon="9.883769528537002"><ele>50.0</ele><time>2026-04-25T12:42:34.999Z</time></trkpt><trkpt lat="45.00878570326097" lon="9.883840771872075"><ele>50.00000000000001</ele><time>2026-04-25T12:42:35.999Z</time></trkpt><trkpt lat="45.00885676854795" lon="9.883915372750888"><ele>50.0</ele><time>2026-04-25T12:42:36.999Z</time></trkpt><trkpt lat="45.00892755137618" lon="9.883989587491586"><ele>50.00000000000001</ele><time>2026-04-25T12:42:37.999Z</time></trkpt><trkpt lat="45.00899740002786" lon="9.884066065323436"><ele>50.0</ele><time>2026-04-25T12:42:38.999Z</time></trkpt><trkpt lat="45.00906930036538" lon="9.884139690791788"><ele>50.0</ele><time>2026-04-25T12:42:39.999Z</time></trkpt><trkpt lat="45.009139715235854" lon="9.884212886464447"><ele>50.0</ele><time>2026-04-25T12:42:40.999Z</time></trkpt><trkpt lat="45.009210655666664" lon="9.884287304925378"><ele>50.00000000000001</ele><time>2026-04-25T12:42:41.999Z</time></trkpt><trkpt lat="45.009281844802615" lon="9.884359839288637"><ele>50.0</ele><time>2026-04-25T12:42:42.999Z</time></trkpt><trkpt lat="45.009353210590206" lon="9.884431152059788"><ele>49.833333333333336</ele><time>2026-04-25T12:42:43.999Z</time></trkpt><trkpt lat="45.00942713922154" lon="9.884499728920128"><ele>49.66666666666667</ele><time>2026-04-25T12:42:44.999Z</time></trkpt><trkpt lat="45.00950309296832" lon="9.884562183185109"><ele>49.5</ele><time>2026-04-25T12:42:45.999Z</time></trkpt><trkpt lat="45.00957982890482" lon="9.884620621962991"><ele>49.33333333333333</ele><time>2026-04-25T12:42:46.999Z</time></trkpt><trkpt lat="45.00966205220338" lon="9.88467275042336"><ele>49.166666666666664</ele><time>2026-04-25T12:42:47.999Z</time></trkpt><trkpt lat="45.00974337520907" lon="9.884721489855382"><ele>49.0</ele><time>2026-04-25T12:42:48.999Z</time></trkpt><trkpt lat="45.00982549261342" lon="9.884770274014707"><ele>48.99999999999999</ele><time>2026-04-25T12:42:49.999Z</time></trkpt><trkpt lat="45.00990652812849" lon="9.884822040517385"><ele>49.0</ele><time>2026-04-25T12:42:50.999Z</time></trkpt><trkpt lat="45.00998750469157" lon="9.884872745053142"><ele>49.0</ele><time>2026-04-25T12:42:51.999Z</time></trkpt><trkpt lat="45.01006757568827" lon="9.8849228620038"><ele>49.0</ele><time>2026-04-25T12:42:52.999Z</time></trkpt><trkpt lat="45.01015076542523" lon="9.88497118749352"><ele>48.99999999999999</ele><time>2026-04-25T12:42:53.999Z</time></trkpt><trkpt lat="45.01023011156359" lon="9.885030246136932"><ele>49.0</ele><time>2026-04-25T12:42:54.999Z</time></trkpt><trkpt lat="45.010306195104505" lon="9.885096570174047"><ele>49.2</ele><time>2026-04-25T12:42:55.999Z</time></trkpt><trkpt lat="45.0103792776066" lon="9.88517036193218"><ele>49.400000000000006</ele><time>2026-04-25T12:42:56.999Z</time></trkpt><trkpt lat="45.01045170415987" lon="9.885248101744454"><ele>49.6</ele><time>2026-04-25T12:42:57.999Z</time></trkpt><trkpt lat="45.010521461053884" lon="9.885327092321285"><ele>49.8</ele><time>2026-04-25T12:42:58.999Z</time></trkpt><trkpt lat="45.01059134866406" lon="9.885408763528655"><ele>50.0</ele><time>2026-04-25T12:42:59.999Z</time></trkpt><trkpt lat="45.010658332092426" lon="9.885494772688075"><ele>50.0</ele><time>2026-04-25T12:43:00.999Z</time></trkpt><trkpt lat="45.01072093096918" lon="9.885588121562158"><ele>50.0</ele><time>2026-04-25T12:43:01.999Z</time></trkpt><trkpt lat="45.010776047814375" lon="9.885690035313544"><ele>50.0</ele><time>2026-04-25T12:43:02.999Z</time></trkpt><trkpt lat="45.01082565157089" lon="9.885794714017083"><ele>50.0</ele><time>2026-04-25T12:43:03.999Z</time></trkpt><trkpt lat="45.01087450171456" lon="9.885903995318818"><ele>50.0</ele><time>2026-04-25T12:43:04.999Z</time></trkpt><trkpt lat="45.01091713628354" lon="9.88601285141284"><ele>50.00000000000001</ele><time>2026-04-25T12:43:05.999Z</time></trkpt><trkpt lat="45.01095966653161" lon="9.886123766987547"><ele>50.0</ele><time>2026-04-25T12:43:06.999Z</time></trkpt><trkpt lat="45.01099773805779" lon="9.886235428769531"><ele>50.0</ele><time>2026-04-25T12:43:07.999Z</time></trkpt><trkpt lat="45.01103423885194" lon="9.88635046529682"><ele>50.0</ele><time>2026-04-25T12:43:08.999Z</time></trkpt><trkpt lat="45.01106688537197" lon="9.886465493787181"><ele>50.00000000000001</ele><time>2026-04-25T12:43:09.999Z</time></trkpt><trkpt lat="45.01110303425397" lon="9.88657912943371"><ele>50.0</ele><time>2026-04-25T12:43:10.999Z</time></trkpt><trkpt lat="45.011145573841986" lon="9.886689297601288"><ele>50.00000000000001</ele><time>2026-04-25T12:43:11.999Z</time></trkpt><trkpt lat="45.01118599702992" lon="9.886798243657811"><ele>50.0</ele><time>2026-04-25T12:43:12.999Z</time></trkpt><trkpt lat="45.01122723442765" lon="9.88690651842665"><ele>50.0</ele><time>2026-04-25T12:43:13.999Z</time></trkpt><trkpt lat="45.01127461556915" lon="9.887016235748698"><ele>50.0</ele><time>2026-04-25T12:43:14.999Z</time></trkpt><trkpt lat="45.01132032360086" lon="9.887122207000512"><ele>50.00000000000001</ele><time>2026-04-25T12:43:15.999Z</time></trkpt><trkpt lat="45.01136460449114" lon="9.8872318445942"><ele>50.0</ele><time>2026-04-25T12:43:16.999Z</time></trkpt><trkpt lat="45.01140880457811" lon="9.887340542768865"><ele>50.00000000000001</ele><time>2026-04-25T12:43:17.999Z</time></trkpt><trkpt lat="45.0114521481239" lon="9.887449609094306"><ele>50.0</ele><time>2026-04-25T12:43:18.999Z</time></trkpt><trkpt lat="45.011497896064384" lon="9.88755425478861"><ele>50.0</ele><time>2026-04-25T12:43:19.999Z</time></trkpt><trkpt lat="45.01154584074322" lon="9.88765750032631"><ele>50.0</ele><time>2026-04-25T12:43:20.999Z</time></trkpt><trkpt lat="45.01159636424365" lon="9.887758920768894"><ele>50.00000000000001</ele><time>2026-04-25T12:43:21.999Z</time></trkpt><trkpt lat="45.01165326681539" lon="9.887858154104693"><ele>50.0</ele><time>2026-04-25T12:43:22.999Z</time></trkpt><trkpt lat="45.0117159088501" lon="9.887949619862704"><ele>50.00000000000001</ele><time>2026-04-25T12:43:23.999Z</time></trkpt><trkpt lat="45.0117786143274" lon="9.888038134537554"><ele>50.0</ele><time>2026-04-25T12:43:24.999Z</time></trkpt><trkpt lat="45.01184151737505" lon="9.888126687647752"><ele>50.0</ele><time>2026-04-25T12:43:25.999Z</time></trkpt><trkpt lat="45.01190354046376" lon="9.888215619248498"><ele>50.0</ele><time>2026-04-25T12:43:26.999Z</time></trkpt><trkpt lat="45.011965912910114" lon="9.88830431665332"><ele>50.00000000000001</ele><time>2026-04-25T12:43:27.998Z</time></trkpt><trkpt lat="45.01202842570676" lon="9.888391902179826"><ele>50.0</ele><time>2026-04-25T12:43:28.998Z</time></trkpt><trkpt lat="45.012090616682286" lon="9.888479055139255"><ele>50.00000000000001</ele><time>2026-04-25T12:43:29.998Z</time></trkpt><trkpt lat="45.01215212226801" lon="9.888565048770529"><ele>50.0</ele><time>2026-04-25T12:43:30.998Z</time></trkpt><trkpt lat="45.01221401807204" lon="9.888651156733003"><ele>50.0</ele><time>2026-04-25T12:43:31.998Z</time></trkpt><trkpt lat="45.01227589437958" lon="9.888736758434709"><ele>50.0</ele><time>2026-04-25T12:43:32.998Z</time></trkpt><trkpt lat="45.01233992038689" lon="9.888821390571646"><ele>50.00000000000001</ele><time>2026-04-25T12:43:33.998Z</time></trkpt><trkpt lat="45.01240293778069" lon="9.888909339388979"><ele>50.0</ele><time>2026-04-25T12:43:34.998Z</time></trkpt><trkpt lat="45.01246144369107" lon="9.888996652784572"><ele>49.833333333333336</ele><time>2026-04-25T12:43:35.998Z</time></trkpt><trkpt lat="45.0125198932097" lon="9.889086037113554"><ele>49.66666666666667</ele><time>2026-04-25T12:43:36.998Z</time></trkpt><trkpt lat="45.01257796346852" lon="9.889178181122466"><ele>49.5</ele><time>2026-04-25T12:43:37.998Z</time></trkpt><trkpt lat="45.01263299526092" lon="9.8892738029996"><ele>49.33333333333333</ele><time>2026-04-25T12:43:38.998Z</time></trkpt><trkpt lat="45.01268840581113" lon="9.889373725586609"><ele>49.166666666666664</ele><time>2026-04-25T12:43:39.998Z</time></trkpt><trkpt lat="45.01273841520098" lon="9.889478274843126"><ele>49.0</ele><time>2026-04-25T12:43:40.998Z</time></trkpt><trkpt lat="45.0127861496346" lon="9.889580826809231"><ele>48.99999999999999</ele><time>2026-04-25T12:43:41.998Z</time></trkpt><trkpt lat="45.012832657145886" lon="9.889684671448748"><ele>49.0</ele><time>2026-04-25T12:43:42.998Z</time></trkpt><trkpt lat="45.012879196534506" lon="9.889787641967354"><ele>49.0</ele><time>2026-04-25T12:43:43.998Z</time></trkpt><trkpt lat="45.012929074386854" lon="9.889889316307622"><ele>49.0</ele><time>2026-04-25T12:43:44.998Z</time></trkpt><trkpt lat="45.01298030511559" lon="9.88998977991037"><ele>48.99999999999999</ele><time>2026-04-25T12:43:45.998Z</time></trkpt><trkpt lat="45.01303082767373" lon="9.890088671821013"><ele>49.0</ele><time>2026-04-25T12:43:46.998Z</time></trkpt><trkpt lat="45.013084371281444" lon="9.890186036773141"><ele>48.83333333333333</ele><time>2026-04-25T12:43:47.998Z</time></trkpt><trkpt lat="45.01314155487257" lon="9.890280098708761"><ele>48.666666666666664</ele><time>2026-04-25T12:43:48.998Z</time></trkpt><trkpt lat="45.01320247202314" lon="9.890369957750247"><ele>48.5</ele><time>2026-04-25T12:43:49.998Z</time></trkpt><trkpt lat="45.013266560288244" lon="9.890456734905277"><ele>48.33333333333333</ele><time>2026-04-25T12:43:50.998Z</time></trkpt><trkpt lat="45.01333673559382" lon="9.890535598200461"><ele>48.166666666666664</ele><time>2026-04-25T12:43:51.998Z</time></trkpt><trkpt lat="45.013410910903744" lon="9.890607659769374"><ele>48.0</ele><time>2026-04-25T12:43:52.998Z</time></trkpt><trkpt lat="45.013491152235474" lon="9.89067077802302"><ele>48.0</ele><time>2026-04-25T12:43:53.998Z</time></trkpt><trkpt lat="45.013574398802" lon="9.89072251076596"><ele>48.0</ele><time>2026-04-25T12:43:54.998Z</time></trkpt><trkpt lat="45.013661602172405" lon="9.89076393170066"><ele>48.0</ele><time>2026-04-25T12:43:55.998Z</time></trkpt><trkpt lat="45.01374689827259" lon="9.89080378987572"><ele>48.0</ele><time>2026-04-25T12:43:56.998Z</time></trkpt><trkpt lat="45.013831712134085" lon="9.89084294355922"><ele>48.0</ele><time>2026-04-25T12:43:57.998Z</time></trkpt><trkpt lat="45.013915648880314" lon="9.890882967510583"><ele>48.0</ele><time>2026-04-25T12:43:58.998Z</time></trkpt><trkpt lat="45.01399998511552" lon="9.890923398650715"><ele>48.0</ele><time>2026-04-25T12:43:59.998Z</time></trkpt><trkpt lat="45.01408134336027" lon="9.890966093916623"><ele>48.0</ele><time>2026-04-25T12:44:00.998Z</time></trkpt><trkpt lat="45.01416302192281" lon="9.891007235193833"><ele>48.0</ele><time>2026-04-25T12:44:01.998Z</time></trkpt><trkpt lat="45.01424642137612" lon="9.891049379818424"><ele>48.0</ele><time>2026-04-25T12:44:02.998Z</time></trkpt><trkpt lat="45.01432965818224" lon="9.891090538207356"><ele>48.0</ele><time>2026-04-25T12:44:03.998Z</time></trkpt><trkpt lat="45.01441408183833" lon="9.891128606141546"><ele>48.333333333333336</ele><time>2026-04-25T12:44:04.998Z</time></trkpt><trkpt lat="45.01449890164101" lon="9.891168578200947"><ele>48.66666666666667</ele><time>2026-04-25T12:44:05.998Z</time></trkpt><trkpt lat="45.014581472460804" lon="9.891206993052457"><ele>49.0</ele><time>2026-04-25T12:44:06.998Z</time></trkpt><trkpt lat="45.01466595875497" lon="9.891242796998222"><ele>49.333333333333336</ele><time>2026-04-25T12:44:08Z</time></trkpt><trkpt lat="45.01475030476783" lon="9.891278722799772"><ele>49.66666666666667</ele><time>2026-04-25T12:44:09Z</time></trkpt><trkpt lat="45.01483440270989" lon="9.891313413333426"><ele>50.0</ele><time>2026-04-25T12:44:10Z</time></trkpt><trkpt lat="45.01491843416811" lon="9.891348564535976"><ele>50.00000000000001</ele><time>2026-04-25T12:44:11Z</time></trkpt><trkpt lat="45.01500219941691" lon="9.891379134745382"><ele>50.0</ele><time>2026-04-25T12:44:12Z</time></trkpt><trkpt lat="45.01508661311834" lon="9.891409510966776"><ele>50.0</ele><time>2026-04-25T12:44:13Z</time></trkpt><trkpt lat="45.015169291075566" lon="9.891444356870053"><ele>50.0</ele><time>2026-04-25T12:44:14Z</time></trkpt><trkpt lat="45.01525175714912" lon="9.891478724756693"><ele>50.00000000000001</ele><time>2026-04-25T12:44:15Z</time></trkpt><trkpt lat="45.01533334268168" lon="9.891514346132412"><ele>50.0</ele><time>2026-04-25T12:44:16Z</time></trkpt><trkpt lat="45.01541532093153" lon="9.891548056635733"><ele>50.00000000000001</ele><time>2026-04-25T12:44:17Z</time></trkpt><trkpt lat="45.015497784190636" lon="9.891585829212096"><ele>50.0</ele><time>2026-04-25T12:44:18Z</time></trkpt><trkpt lat="45.01557757487319" lon="9.891628817981065"><ele>50.0</ele><time>2026-04-25T12:44:19Z</time></trkpt><trkpt lat="45.01565982151921" lon="9.891674856617641"><ele>50.0</ele><time>2026-04-25T12:44:20Z</time></trkpt><trkpt lat="45.01574141675009" lon="9.891718664600644"><ele>50.00000000000001</ele><time>2026-04-25T12:44:21Z</time></trkpt><trkpt lat="45.015822069312186" lon="9.89176060017744"><ele>50.0</ele><time>2026-04-25T12:44:22Z</time></trkpt><trkpt lat="45.01590143717812" lon="9.891806345844758"><ele>50.00000000000001</ele><time>2026-04-25T12:44:23Z</time></trkpt><trkpt lat="45.01598277224329" lon="9.89185761505141"><ele>50.0</ele><time>2026-04-25T12:44:24Z</time></trkpt><trkpt lat="45.01605975769627" lon="9.891913276524667"><ele>50.0</ele><time>2026-04-25T12:44:25Z</time></trkpt><trkpt lat="45.01613493396135" lon="9.891973394035565"><ele>50.0</ele><time>2026-04-25T12:44:26Z</time></trkpt><trkpt lat="45.016212348110805" lon="9.892027842936812"><ele>50.00000000000001</ele><time>2026-04-25T12:44:27Z</time></trkpt><trkpt lat="45.01629087226169" lon="9.892078347004134"><ele>50.0</ele><time>2026-04-25T12:44:28Z</time></trkpt><trkpt lat="45.01637085555304" lon="9.892128963499045"><ele>50.00000000000001</ele><time>2026-04-25T12:44:29Z</time></trkpt><trkpt lat="45.01645288006731" lon="9.892177617278291"><ele>50.0</ele><time>2026-04-25T12:44:30Z</time></trkpt><trkpt lat="45.0165353957134" lon="9.892221028967118"><ele>50.0</ele><time>2026-04-25T12:44:30.999Z</time></trkpt><trkpt lat="45.016618905533136" lon="9.892263212836271"><ele>50.0</ele><time>2026-04-25T12:44:31.999Z</time></trkpt><trkpt lat="45.01670317239215" lon="9.892301721560848"><ele>50.00000000000001</ele><time>2026-04-25T12:44:32.999Z</time></trkpt><trkpt lat="45.01678880053266" lon="9.892338945556574"><ele>50.0</ele><time>2026-04-25T12:44:33.999Z</time></trkpt><trkpt lat="45.016873231218284" lon="9.89237971661031"><ele>49.833333333333336</ele><time>2026-04-25T12:44:34.999Z</time></trkpt><trkpt lat="45.01695701185738" lon="9.892425874952437"><ele>49.66666666666667</ele><time>2026-04-25T12:44:35.999Z</time></trkpt><trkpt lat="45.01704067384007" lon="9.892466776618473"><ele>49.5</ele><time>2026-04-25T12:44:36.999Z</time></trkpt><trkpt lat="45.017127062372786" lon="9.892504241323355"><ele>49.33333333333333</ele><time>2026-04-25T12:44:37.999Z</time></trkpt><trkpt lat="45.01720988141277" lon="9.892541077684932"><ele>49.166666666666664</ele><time>2026-04-25T12:44:38.999Z</time></trkpt><trkpt lat="45.017292262787606" lon="9.892579930885585"><ele>49.0</ele><time>2026-04-25T12:44:39.999Z</time></trkpt><trkpt lat="45.017375575901326" lon="9.892622108104781"><ele>48.99999999999999</ele><time>2026-04-25T12:44:40.999Z</time></trkpt><trkpt lat="45.01745907391709" lon="9.892663001542195"><ele>49.0</ele><time>2026-04-25T12:44:41.999Z</time></trkpt><trkpt lat="45.01754358074382" lon="9.892705083067385"><ele>49.0</ele><time>2026-04-25T12:44:42.999Z</time></trkpt><trkpt lat="45.01762618579705" lon="9.892746153143266"><ele>49.0</ele><time>2026-04-25T12:44:43.999Z</time></trkpt><trkpt lat="45.01771326476059" lon="9.892787651708796"><ele>48.99999999999999</ele><time>2026-04-25T12:44:44.999Z</time></trkpt><trkpt lat="45.017798376602244" lon="9.892824396685722"><ele>49.0</ele><time>2026-04-25T12:44:45.999Z</time></trkpt><trkpt lat="45.017885154469255" lon="9.89286291046721"><ele>49.6</ele><time>2026-04-25T12:44:46.999Z</time></trkpt><trkpt lat="45.017969275012575" lon="9.892906772916676"><ele>50.2</ele><time>2026-04-25T12:44:47.999Z</time></trkpt><trkpt lat="45.018055177997184" lon="9.892950666218391"><ele>50.800000000000004</ele><time>2026-04-25T12:44:48.999Z</time></trkpt><trkpt lat="45.01813705420051" lon="9.892994102698058"><ele>51.400000000000006</ele><time>2026-04-25T12:44:49.999Z</time></trkpt><trkpt lat="45.01822758741785" lon="9.893033156360174"><ele>52.0</ele><time>2026-04-25T12:44:50.999Z</time></trkpt><trkpt lat="45.01831140006144" lon="9.893069917798556"><ele>51.666666666666664</ele><time>2026-04-25T12:44:51.999Z</time></trkpt><trkpt lat="45.01839463222149" lon="9.89310472207374"><ele>51.33333333333333</ele><time>2026-04-25T12:44:52.999Z</time></trkpt><trkpt lat="45.01847934640463" lon="9.893143855952676"><ele>51.0</ele><time>2026-04-25T12:44:53.999Z</time></trkpt><trkpt lat="45.01856462122514" lon="9.893182597107286"><ele>50.66666666666667</ele><time>2026-04-25T12:44:54.999Z</time></trkpt><trkpt lat="45.01864917761668" lon="9.893225232330728"><ele>50.333333333333336</ele><time>2026-04-25T12:44:55.999Z</time></trkpt><trkpt lat="45.01873395026459" lon="9.893268811912781"><ele>50.0</ele><time>2026-04-25T12:44:56.999Z</time></trkpt><trkpt lat="45.01881822202538" lon="9.893313027674646"><ele>50.00000000000001</ele><time>2026-04-25T12:44:57.999Z</time></trkpt><trkpt lat="45.018904198062515" lon="9.893355722067435"><ele>50.0</ele><time>2026-04-25T12:44:58.999Z</time></trkpt><trkpt lat="45.01898757825919" lon="9.893399323066065"><ele>50.0</ele><time>2026-04-25T12:44:59.999Z</time></trkpt><trkpt lat="45.019069981216525" lon="9.893442878929825"><ele>50.0</ele><time>2026-04-25T12:45:00.999Z</time></trkpt><trkpt lat="45.01915233991712" lon="9.893486948570306"><ele>50.00000000000001</ele><time>2026-04-25T12:45:01.999Z</time></trkpt><trkpt lat="45.019236704640086" lon="9.893530814550433"><ele>50.0</ele><time>2026-04-25T12:45:02.999Z</time></trkpt><trkpt lat="45.01932092850294" lon="9.893571336848641"><ele>49.66666666666667</ele><time>2026-04-25T12:45:03.999Z</time></trkpt><trkpt lat="45.019402993701" lon="9.893616025688676"><ele>49.333333333333336</ele><time>2026-04-25T12:45:04.999Z</time></trkpt><trkpt lat="45.01948632270167" lon="9.893663141160562"><ele>49.0</ele><time>2026-04-25T12:45:05.999Z</time></trkpt><trkpt lat="45.019567767137865" lon="9.893713429880052"><ele>48.66666666666667</ele><time>2026-04-25T12:45:06.999Z</time></trkpt><trkpt lat="45.01964990716336" lon="9.893763215222602"><ele>48.333333333333336</ele><time>2026-04-25T12:45:07.999Z</time></trkpt><trkpt lat="45.01973554423031" lon="9.89381505166601"><ele>48.0</ele><time>2026-04-25T12:45:08.999Z</time></trkpt><trkpt lat="45.019817838712896" lon="9.893866043132107"><ele>48.0</ele><time>2026-04-25T12:45:09.999Z</time></trkpt><trkpt lat="45.01990178668624" lon="9.893917918759895"><ele>48.0</ele><time>2026-04-25T12:45:10.999Z</time></trkpt><trkpt lat="45.01998677293004" lon="9.89396842609621"><ele>48.0</ele><time>2026-04-25T12:45:11.999Z</time></trkpt><trkpt lat="45.02006942570104" lon="9.894022358374466"><ele>48.0</ele><time>2026-04-25T12:45:12.999Z</time></trkpt><trkpt lat="45.020156057030015" lon="9.89407559665813"><ele>48.0</ele><time>2026-04-25T12:45:13.999Z</time></trkpt><trkpt lat="45.020241210457044" lon="9.894128893599175"><ele>48.0</ele><time>2026-04-25T12:45:14.999Z</time></trkpt><trkpt lat="45.02032235658711" lon="9.89417799663536"><ele>48.0</ele><time>2026-04-25T12:45:15.999Z</time></trkpt><trkpt lat="45.020401734698545" lon="9.894229676904779"><ele>48.0</ele><time>2026-04-25T12:45:16.999Z</time></trkpt><trkpt lat="45.02047913573245" lon="9.89427368819452"><ele>48.0</ele><time>2026-04-25T12:45:17.999Z</time></trkpt><trkpt lat="45.02056165992782" lon="9.894318340588162"><ele>48.0</ele><time>2026-04-25T12:45:18.999Z</time></trkpt><trkpt lat="45.02064361238569" lon="9.894361880886672"><ele>48.0</ele><time>2026-04-25T12:45:19.999Z</time></trkpt><trkpt lat="45.02072297932381" lon="9.894406970563537"><ele>48.0</ele><time>2026-04-25T12:45:20.999Z</time></trkpt><trkpt lat="45.02080193100332" lon="9.89445036632736"><ele>48.0</ele><time>2026-04-25T12:45:21.999Z</time></trkpt><trkpt lat="45.02088476689655" lon="9.89449090417536"><ele>48.0</ele><time>2026-04-25T12:45:22.999Z</time></trkpt><trkpt lat="45.02096830740686" lon="9.89452862917208"><ele>48.0</ele><time>2026-04-25T12:45:23.999Z</time></trkpt><trkpt lat="45.02105244050045" lon="9.894567215611794"><ele>48.0</ele><time>2026-04-25T12:45:24.999Z</time></trkpt><trkpt lat="45.02113711048136" lon="9.894606519835019"><ele>48.0</ele><time>2026-04-25T12:45:25.999Z</time></trkpt><trkpt lat="45.02122004387156" lon="9.894647848293165"><ele>48.0</ele><time>2026-04-25T12:45:26.999Z</time></trkpt><trkpt lat="45.021304536974355" lon="9.894690329854338"><ele>48.0</ele><time>2026-04-25T12:45:27.999Z</time></trkpt><trkpt lat="45.02138846237501" lon="9.89473335754048"><ele>48.0</ele><time>2026-04-25T12:45:28.999Z</time></trkpt><trkpt lat="45.021474280735426" lon="9.89477295042841"><ele>48.0</ele><time>2026-04-25T12:45:29.999Z</time></trkpt><trkpt lat="45.02156030457917" lon="9.89480804124082"><ele>48.0</ele><time>2026-04-25T12:45:30.998Z</time></trkpt><trkpt lat="45.021646394159745" lon="9.894839324637763"><ele>48.0</ele><time>2026-04-25T12:45:31.998Z</time></trkpt><trkpt lat="45.02173439549135" lon="9.894856503898188"><ele>48.0</ele><time>2026-04-25T12:45:32.998Z</time></trkpt><trkpt lat="45.02182728736365" lon="9.89486101122469"><ele>48.0</ele><time>2026-04-25T12:45:33.998Z</time></trkpt><trkpt lat="45.021917439412135" lon="9.894861448548248"><ele>48.0</ele><time>2026-04-25T12:45:34.998Z</time></trkpt><trkpt lat="45.022006990951425" lon="9.89486270085062"><ele>48.0</ele><time>2026-04-25T12:45:35.998Z</time></trkpt><trkpt lat="45.02209622237742" lon="9.894865961011478"><ele>48.0</ele><time>2026-04-25T12:45:36.998Z</time></trkpt><trkpt lat="45.02218394781287" lon="9.894871379947483"><ele>48.0</ele><time>2026-04-25T12:45:37.998Z</time></trkpt><trkpt lat="45.02226989546528" lon="9.89487744899129"><ele>48.0</ele><time>2026-04-25T12:45:38.998Z</time></trkpt><trkpt lat="45.02235787914227" lon="9.894880863452276"><ele>48.0</ele><time>2026-04-25T12:45:39.998Z</time></trkpt><trkpt lat="45.02244685439267" lon="9.894887273836192"><ele>48.0</ele><time>2026-04-25T12:45:40.998Z</time></trkpt><trkpt lat="45.02253511611823" lon="9.894895543367179"><ele>48.0</ele><time>2026-04-25T12:45:41.998Z</time></trkpt><trkpt lat="45.02262449295477" lon="9.894904707205193"><ele>48.0</ele><time>2026-04-25T12:45:42.998Z</time></trkpt><trkpt lat="45.02271101779918" lon="9.894912545032325"><ele>48.0</ele><time>2026-04-25T12:45:43.998Z</time></trkpt><trkpt lat="45.02279819321702" lon="9.894920268848104"><ele>48.0</ele><time>2026-04-25T12:45:44.998Z</time></trkpt><trkpt lat="45.022886905794635" lon="9.894931526366097"><ele>48.0</ele><time>2026-04-25T12:45:45.998Z</time></trkpt><trkpt lat="45.02297275559659" lon="9.894941780268914"><ele>48.0</ele><time>2026-04-25T12:45:46.998Z</time></trkpt><trkpt lat="45.023059792028654" lon="9.894953026995562"><ele>48.0</ele><time>2026-04-25T12:45:47.998Z</time></trkpt><trkpt lat="45.02314412315445" lon="9.894963513538556"><ele>48.0</ele><time>2026-04-25T12:45:48.998Z</time></trkpt><trkpt lat="45.023227463923575" lon="9.894973239658794"><ele>48.0</ele><time>2026-04-25T12:45:49.998Z</time></trkpt><trkpt lat="45.02331019647636" lon="9.894982526343595"><ele>48.0</ele><time>2026-04-25T12:45:50.998Z</time></trkpt><trkpt lat="45.02339523917406" lon="9.894992432290403"><ele>48.0</ele><time>2026-04-25T12:45:51.998Z</time></trkpt><trkpt lat="45.02348467917827" lon="9.89499813727346"><ele>48.0</ele><time>2026-04-25T12:45:52.998Z</time></trkpt><trkpt lat="45.02357351566329" lon="9.89500307400926"><ele>48.0</ele><time>2026-04-25T12:45:53.998Z</time></trkpt><trkpt lat="45.02366162956019" lon="9.895002540473188"><ele>48.0</ele><time>2026-04-25T12:45:54.998Z</time></trkpt><trkpt lat="45.02374912407348" lon="9.895001748709834"><ele>47.666666666666664</ele><time>2026-04-25T12:45:55.998Z</time></trkpt><trkpt lat="45.02383689094256" lon="9.895007329259501"><ele>47.333333333333336</ele><time>2026-04-25T12:45:56.998Z</time></trkpt><trkpt lat="45.02392425667432" lon="9.89501311251993"><ele>47.0</ele><time>2026-04-25T12:45:57.998Z</time></trkpt><trkpt lat="45.02401195933624" lon="9.89501589012205"><ele>46.66666666666667</ele><time>2026-04-25T12:45:58.998Z</time></trkpt><trkpt lat="45.024097910638766" lon="9.895021778908463"><ele>46.333333333333336</ele><time>2026-04-25T12:45:59.998Z</time></trkpt><trkpt lat="45.02418172000958" lon="9.895028899033342"><ele>46.0</ele><time>2026-04-25T12:46:00.998Z</time></trkpt><trkpt lat="45.024264014392" lon="9.895036767513883"><ele>46.0</ele><time>2026-04-25T12:46:01.998Z</time></trkpt><trkpt lat="45.02434719632571" lon="9.89504596052973"><ele>46.0</ele><time>2026-04-25T12:46:02.998Z</time></trkpt><trkpt lat="45.02443228427588" lon="9.895054314653505"><ele>46.0</ele><time>2026-04-25T12:46:03.998Z</time></trkpt><trkpt lat="45.02451726282806" lon="9.895071182245754"><ele>46.0</ele><time>2026-04-25T12:46:04.998Z</time></trkpt><trkpt lat="45.02460182414976" lon="9.89508862651606"><ele>46.0</ele><time>2026-04-25T12:46:05.998Z</time></trkpt><trkpt lat="45.02468522097427" lon="9.895109955344939"><ele>46.0</ele><time>2026-04-25T12:46:06.998Z</time></trkpt><trkpt lat="45.024768457944944" lon="9.895135244648946"><ele>46.16666666666667</ele><time>2026-04-25T12:46:07.998Z</time></trkpt><trkpt lat="45.02485093011493" lon="9.895161642458351"><ele>46.333333333333336</ele><time>2026-04-25T12:46:08.998Z</time></trkpt><trkpt lat="45.02493568477647" lon="9.895184628698434"><ele>46.5</ele><time>2026-04-25T12:46:09.998Z</time></trkpt><trkpt lat="45.025019830959316" lon="9.895205073022067"><ele>46.666666666666664</ele><time>2026-04-25T12:46:10.998Z</time></trkpt><trkpt lat="45.025101473705924" lon="9.895225840384438"><ele>46.83333333333333</ele><time>2026-04-25T12:46:11.998Z</time></trkpt><trkpt lat="45.02518569202103" lon="9.895250142793147"><ele>47.0</ele><time>2026-04-25T12:46:12.998Z</time></trkpt><trkpt lat="45.02526691402941" lon="9.895287540306242"><ele>47.2</ele><time>2026-04-25T12:46:14Z</time></trkpt><trkpt lat="45.025333488435834" lon="9.895366226336835"><ele>47.400000000000006</ele><time>2026-04-25T12:46:15Z</time></trkpt><trkpt lat="45.02537676160387" lon="9.89547860417836"><ele>47.599999999999994</ele><time>2026-04-25T12:46:16Z</time></trkpt><trkpt lat="45.025381412345205" lon="9.895609956948288"><ele>47.8</ele><time>2026-04-25T12:46:17Z</time></trkpt><trkpt lat="45.02535248022048" lon="9.895739845687899"><ele>48.0</ele><time>2026-04-25T12:46:18Z</time></trkpt><trkpt lat="45.02530130602255" lon="9.895854808259477"><ele>47.833333333333336</ele><time>2026-04-25T12:46:19Z</time></trkpt><trkpt lat="45.02525377696101" lon="9.895964711323824"><ele>47.666666666666664</ele><time>2026-04-25T12:46:20Z</time></trkpt><trkpt lat="45.02521540731113" lon="9.896076505035408"><ele>47.5</ele><time>2026-04-25T12:46:21Z</time></trkpt><trkpt lat="45.025179384324396" lon="9.896188927149543"><ele>47.33333333333333</ele><time>2026-04-25T12:46:22Z</time></trkpt><trkpt lat="45.02514519927125" lon="9.896300870065296"><ele>47.166666666666664</ele><time>2026-04-25T12:46:23Z</time></trkpt><trkpt lat="45.02511891422958" lon="9.89641571117488"><ele>47.0</ele><time>2026-04-25T12:46:24Z</time></trkpt><trkpt lat="45.02512671923486" lon="9.896536959866895"><ele>47.0</ele><time>2026-04-25T12:46:25Z</time></trkpt><trkpt lat="45.02519104424053" lon="9.896643232928943"><ele>47.0</ele><time>2026-04-25T12:46:26Z</time></trkpt><trkpt lat="45.0252838023252" lon="9.896702655707116"><ele>47.0</ele><time>2026-04-25T12:46:27Z</time></trkpt><trkpt lat="45.02537889280366" lon="9.896725513534774"><ele>47.0</ele><time>2026-04-25T12:46:28Z</time></trkpt><trkpt lat="45.025472228879345" lon="9.89672519448528"><ele>47.0</ele><time>2026-04-25T12:46:29Z</time></trkpt><trkpt lat="45.025562684846165" lon="9.896722208255738"><ele>47.0</ele><time>2026-04-25T12:46:30Z</time></trkpt><trkpt lat="45.02565267981933" lon="9.896733063236002"><ele>47.0</ele><time>2026-04-25T12:46:31Z</time></trkpt><trkpt lat="45.025740319754576" lon="9.896753323072002"><ele>47.0</ele><time>2026-04-25T12:46:32Z</time></trkpt><trkpt lat="45.0258233771013" lon="9.896786301188635"><ele>47.0</ele><time>2026-04-25T12:46:33Z</time></trkpt><trkpt lat="45.02590538205015" lon="9.896825538095156"><ele>47.0</ele><time>2026-04-25T12:46:33.999Z</time></trkpt><trkpt lat="45.02598715028816" lon="9.896872907636373"><ele>47.0</ele><time>2026-04-25T12:46:34.999Z</time></trkpt><trkpt lat="45.02607195913555" lon="9.896918269979611"><ele>47.33333333333333</ele><time>2026-04-25T12:46:35.999Z</time></trkpt><trkpt lat="45.02615507430716" lon="9.896963521087502"><ele>47.666666666666664</ele><time>2026-04-25T12:46:36.999Z</time></trkpt><trkpt lat="45.026237914077015" lon="9.897013075115531"><ele>48.0</ele><time>2026-04-25T12:46:37.999Z</time></trkpt><trkpt lat="45.02631830485023" lon="9.897070575685174"><ele>48.33333333333333</ele><time>2026-04-25T12:46:38.999Z</time></trkpt><trkpt lat="45.02639572021845" lon="9.89712990669229"><ele>48.666666666666664</ele><time>2026-04-25T12:46:39.999Z</time></trkpt><trkpt lat="45.026473068356594" lon="9.897187618919208"><ele>49.0</ele><time>2026-04-25T12:46:40.999Z</time></trkpt><trkpt lat="45.026548726560456" lon="9.89724180007616"><ele>48.99999999999999</ele><time>2026-04-25T12:46:41.999Z</time></trkpt><trkpt lat="45.02662949582943" lon="9.89728899150365"><ele>49.0</ele><time>2026-04-25T12:46:42.999Z</time></trkpt><trkpt lat="45.02671409472172" lon="9.897323601431097"><ele>49.0</ele><time>2026-04-25T12:46:43.999Z</time></trkpt><trkpt lat="45.02680237736053" lon="9.897342089288223"><ele>49.0</ele><time>2026-04-25T12:46:44.999Z</time></trkpt><trkpt lat="45.02689129186236" lon="9.897352877270471"><ele>48.99999999999999</ele><time>2026-04-25T12:46:45.999Z</time></trkpt><trkpt lat="45.02698171649613" lon="9.897358646600152"><ele>49.0</ele><time>2026-04-25T12:46:46.999Z</time></trkpt><trkpt lat="45.0270703648484" lon="9.89736175445316"><ele>48.83333333333333</ele><time>2026-04-25T12:46:47.999Z</time></trkpt><trkpt lat="45.02715933406052" lon="9.897370442683602"><ele>48.666666666666664</ele><time>2026-04-25T12:46:48.999Z</time></trkpt><trkpt lat="45.0272475205285" lon="9.897381727184994"><ele>48.5</ele><time>2026-04-25T12:46:49.999Z</time></trkpt><trkpt lat="45.02733498448608" lon="9.897390669732195"><ele>48.33333333333333</ele><time>2026-04-25T12:46:50.999Z</time></trkpt><trkpt lat="45.027425469745175" lon="9.897399734815663"><ele>48.166666666666664</ele><time>2026-04-25T12:46:51.999Z</time></trkpt><trkpt lat="45.02751585574607" lon="9.897407240648365"><ele>48.0</ele><time>2026-04-25T12:46:52.999Z</time></trkpt><trkpt lat="45.02760769123962" lon="9.8974143120524"><ele>48.0</ele><time>2026-04-25T12:46:53.999Z</time></trkpt><trkpt lat="45.02769916964055" lon="9.897424313085315"><ele>48.0</ele><time>2026-04-25T12:46:54.999Z</time></trkpt><trkpt lat="45.02779243090947" lon="9.897435372402983"><ele>48.0</ele><time>2026-04-25T12:46:55.999Z</time></trkpt><trkpt lat="45.0278848918882" lon="9.897452677264319"><ele>48.0</ele><time>2026-04-25T12:46:56.999Z</time></trkpt><trkpt lat="45.027971977096875" lon="9.897477825167872"><ele>48.0</ele><time>2026-04-25T12:46:57.999Z</time></trkpt><trkpt lat="45.028059593121434" lon="9.897519678878508"><ele>48.0</ele><time>2026-04-25T12:46:58.999Z</time></trkpt><trkpt lat="45.02813491938343" lon="9.897591580395357"><ele>48.0</ele><time>2026-04-25T12:46:59.999Z</time></trkpt><trkpt lat="45.0282049825816" lon="9.89766834270451"><ele>48.0</ele><time>2026-04-25T12:47:00.999Z</time></trkpt><trkpt lat="45.02827521198105" lon="9.89774027008459"><ele>48.0</ele><time>2026-04-25T12:47:01.999Z</time></trkpt><trkpt lat="45.02834052248585" lon="9.897811782414163"><ele>48.0</ele><time>2026-04-25T12:47:02.999Z</time></trkpt><trkpt lat="45.028402438326985" lon="9.897888960048475"><ele>48.0</ele><time>2026-04-25T12:47:03.999Z</time></trkpt><trkpt lat="45.02845555446923" lon="9.89798086133404"><ele>47.8</ele><time>2026-04-25T12:47:04.999Z</time></trkpt><trkpt lat="45.02847949659748" lon="9.898095616805316"><ele>47.599999999999994</ele><time>2026-04-25T12:47:05.999Z</time></trkpt><trkpt lat="45.02846592359271" lon="9.898224884604302"><ele>47.400000000000006</ele><time>2026-04-25T12:47:06.999Z</time></trkpt><trkpt lat="45.02841609877778" lon="9.898344274189911"><ele>47.2</ele><time>2026-04-25T12:47:07.999Z</time></trkpt><trkpt lat="45.02840534025216" lon="9.898466768125406"><ele>47.0</ele><time>2026-04-25T12:47:08.999Z</time></trkpt><trkpt lat="45.02841042189229" lon="9.898594351679291"><ele>46.6</ele><time>2026-04-25T12:47:09.999Z</time></trkpt><trkpt lat="45.02845785397697" lon="9.898709327497649"><ele>46.2</ele><time>2026-04-25T12:47:10.999Z</time></trkpt><trkpt lat="45.02852153934807" lon="9.898807897975749"><ele>45.8</ele><time>2026-04-25T12:47:11.999Z</time></trkpt><trkpt lat="45.028594127738565" lon="9.898889306002516"><ele>45.4</ele><time>2026-04-25T12:47:12.999Z</time></trkpt><trkpt lat="45.028663780843075" lon="9.89896826967836"><ele>45.0</ele><time>2026-04-25T12:47:13.999Z</time></trkpt><trkpt lat="45.02872964695173" lon="9.899049018905934"><ele>45.0</ele><time>2026-04-25T12:47:14.999Z</time></trkpt><trkpt lat="45.02879167117517" lon="9.899132002925652"><ele>45.0</ele><time>2026-04-25T12:47:15.999Z</time></trkpt><trkpt lat="45.02885576568913" lon="9.899211271476544"><ele>45.0</ele><time>2026-04-25T12:47:16.999Z</time></trkpt><trkpt lat="45.0289203788673" lon="9.899287545822942"><ele>45.0</ele><time>2026-04-25T12:47:17.999Z</time></trkpt><trkpt lat="45.02898827856646" lon="9.899358636304555"><ele>45.0</ele><time>2026-04-25T12:47:18.999Z</time></trkpt><trkpt lat="45.02906315528212" lon="9.89941867915917"><ele>45.0</ele><time>2026-04-25T12:47:19.999Z</time></trkpt><trkpt lat="45.02914345216986" lon="9.899468964842972"><ele>44.833333333333336</ele><time>2026-04-25T12:47:20.999Z</time></trkpt><trkpt lat="45.02922669219465" lon="9.899517080508467"><ele>44.666666666666664</ele><time>2026-04-25T12:47:21.999Z</time></trkpt><trkpt lat="45.02930836583535" lon="9.899567314377105"><ele>44.5</ele><time>2026-04-25T12:47:22.999Z</time></trkpt><trkpt lat="45.0293898604945" lon="9.899613401514525"><ele>44.33333333333333</ele><time>2026-04-25T12:47:23.999Z</time></trkpt><trkpt lat="45.02947072540642" lon="9.899658751733943"><ele>44.166666666666664</ele><time>2026-04-25T12:47:24.999Z</time></trkpt><trkpt lat="45.029551779551056" lon="9.899700662366559"><ele>44.0</ele><time>2026-04-25T12:47:25.999Z</time></trkpt><trkpt lat="45.02963098053712" lon="9.899744827937237"><ele>44.0</ele><time>2026-04-25T12:47:26.999Z</time></trkpt><trkpt lat="45.02970932472507" lon="9.899789189516424"><ele>44.0</ele><time>2026-04-25T12:47:27.999Z</time></trkpt><trkpt lat="45.029786682686606" lon="9.899835597396983"><ele>44.0</ele><time>2026-04-25T12:47:28.999Z</time></trkpt><trkpt lat="45.02986487072857" lon="9.899880917573757"><ele>44.0</ele><time>2026-04-25T12:47:29.999Z</time></trkpt><trkpt lat="45.029944361106956" lon="9.899924626234585"><ele>44.0</ele><time>2026-04-25T12:47:30.999Z</time></trkpt><trkpt lat="45.03002259576824" lon="9.899968312219825"><ele>44.0</ele><time>2026-04-25T12:47:31.999Z</time></trkpt><trkpt lat="45.03010176960665" lon="9.900012202384453"><ele>44.0</ele><time>2026-04-25T12:47:32.999Z</time></trkpt><trkpt lat="45.030181983671696" lon="9.90005895945888"><ele>44.0</ele><time>2026-04-25T12:47:33.999Z</time></trkpt><trkpt lat="45.03026303861785" lon="9.900105192486947"><ele>44.0</ele><time>2026-04-25T12:47:34.998Z</time></trkpt><trkpt lat="45.03034397211568" lon="9.900151252154561"><ele>44.0</ele><time>2026-04-25T12:47:35.998Z</time></trkpt><trkpt lat="45.03042615494031" lon="9.900197910894747"><ele>44.0</ele><time>2026-04-25T12:47:36.998Z</time></trkpt><trkpt lat="45.03050763705428" lon="9.90024610224915"><ele>44.0</ele><time>2026-04-25T12:47:37.998Z</time></trkpt><trkpt lat="45.03058808352783" lon="9.900294383245402"><ele>44.0</ele><time>2026-04-25T12:47:38.998Z</time></trkpt><trkpt lat="45.03067001528098" lon="9.900340207599179"><ele>44.0</ele><time>2026-04-25T12:47:39.998Z</time></trkpt><trkpt lat="45.03075233276268" lon="9.90038329432363"><ele>44.0</ele><time>2026-04-25T12:47:40.998Z</time></trkpt><trkpt lat="45.03083189739923" lon="9.900429364191861"><ele>44.0</ele><time>2026-04-25T12:47:41.998Z</time></trkpt><trkpt lat="45.03091352335334" lon="9.900480237699954"><ele>44.0</ele><time>2026-04-25T12:47:42.998Z</time></trkpt><trkpt lat="45.03099539684202" lon="9.90053117420352"><ele>44.0</ele><time>2026-04-25T12:47:43.998Z</time></trkpt><trkpt lat="45.03107867791286" lon="9.900577724476907"><ele>44.400000000000006</ele><time>2026-04-25T12:47:44.998Z</time></trkpt><trkpt lat="45.03116213084346" lon="9.900626304451535"><ele>44.8</ele><time>2026-04-25T12:47:45.998Z</time></trkpt><trkpt lat="45.03124634609656" lon="9.900671703674474"><ele>45.2</ele><time>2026-04-25T12:47:46.998Z</time></trkpt><trkpt lat="45.03132977182221" lon="9.900716939356512"><ele>45.599999999999994</ele><time>2026-04-25T12:47:47.998Z</time></trkpt><trkpt lat="45.03141651471037" lon="9.900761850958924"><ele>46.0</ele><time>2026-04-25T12:47:48.998Z</time></trkpt><trkpt lat="45.03150063122772" lon="9.900810393869204"><ele>46.0</ele><time>2026-04-25T12:47:49.998Z</time></trkpt><trkpt lat="45.03158707267375" lon="9.900854532673106"><ele>46.0</ele><time>2026-04-25T12:47:50.998Z</time></trkpt><trkpt lat="45.03167394784735" lon="9.90089242165649"><ele>46.0</ele><time>2026-04-25T12:47:51.998Z</time></trkpt><trkpt lat="45.03176387220959" lon="9.900928182868402"><ele>46.0</ele><time>2026-04-25T12:47:52.998Z</time></trkpt><trkpt lat="45.0318502596267" lon="9.900971489182513"><ele>46.0</ele><time>2026-04-25T12:47:53.998Z</time></trkpt><trkpt lat="45.03193334354244" lon="9.901015147905458"><ele>45.833333333333336</ele><time>2026-04-25T12:47:54.998Z</time></trkpt><trkpt lat="45.032012259648695" lon="9.901063666872012"><ele>45.66666666666667</ele><time>2026-04-25T12:47:55.998Z</time></trkpt><trkpt lat="45.032090653185406" lon="9.901111525211391"><ele>45.5</ele><time>2026-04-25T12:47:56.998Z</time></trkpt><trkpt lat="45.03216782691822" lon="9.901162739081867"><ele>45.333333333333336</ele><time>2026-04-25T12:47:57.998Z</time></trkpt><trkpt lat="45.03224936677382" lon="9.901208363566525"><ele>45.166666666666664</ele><time>2026-04-25T12:47:58.998Z</time></trkpt><trkpt lat="45.03232989189661" lon="9.901255590475792"><ele>45.0</ele><time>2026-04-25T12:47:59.998Z</time></trkpt><trkpt lat="45.032409737100515" lon="9.901301470632502"><ele>45.0</ele><time>2026-04-25T12:48:00.998Z</time></trkpt><trkpt lat="45.03249022464134" lon="9.901348452104388"><ele>45.0</ele><time>2026-04-25T12:48:01.998Z</time></trkpt><trkpt lat="45.03257285976765" lon="9.901390131494537"><ele>45.0</ele><time>2026-04-25T12:48:02.998Z</time></trkpt><trkpt lat="45.032653661798776" lon="9.901434039726515"><ele>45.0</ele><time>2026-04-25T12:48:03.998Z</time></trkpt><trkpt lat="45.03273525040079" lon="9.901482491669947"><ele>45.0</ele><time>2026-04-25T12:48:04.998Z</time></trkpt><trkpt lat="45.032815074592556" lon="9.901527962199069"><ele>45.0</ele><time>2026-04-25T12:48:05.998Z</time></trkpt><trkpt lat="45.032896678710784" lon="9.901568740753959"><ele>45.0</ele><time>2026-04-25T12:48:06.998Z</time></trkpt><trkpt lat="45.0329807144714" lon="9.901612787437015"><ele>45.0</ele><time>2026-04-25T12:48:07.998Z</time></trkpt><trkpt lat="45.03306237153634" lon="9.901650063510244"><ele>45.0</ele><time>2026-04-25T12:48:08.998Z</time></trkpt><trkpt lat="45.033144642028226" lon="9.901683776618029"><ele>45.0</ele><time>2026-04-25T12:48:09.998Z</time></trkpt><trkpt lat="45.033226844766666" lon="9.901713524657454"><ele>45.0</ele><time>2026-04-25T12:48:10.998Z</time></trkpt><trkpt lat="45.033311037836086" lon="9.901740467871578"><ele>45.0</ele><time>2026-04-25T12:48:11.998Z</time></trkpt><trkpt lat="45.03339677912412" lon="9.901767833080065"><ele>45.0</ele><time>2026-04-25T12:48:12.998Z</time></trkpt><trkpt lat="45.03347992260277" lon="9.901798056903582"><ele>45.0</ele><time>2026-04-25T12:48:13.998Z</time></trkpt><trkpt lat="45.03356429667531" lon="9.901834154362083"><ele>45.0</ele><time>2026-04-25T12:48:14.998Z</time></trkpt><trkpt lat="45.03364622771044" lon="9.901871761536249"><ele>45.0</ele><time>2026-04-25T12:48:15.998Z</time></trkpt><trkpt lat="45.03372823674656" lon="9.901914770017488"><ele>45.0</ele><time>2026-04-25T12:48:16.998Z</time></trkpt><trkpt lat="45.033805632691056" lon="9.901960414726853"><ele>45.0</ele><time>2026-04-25T12:48:17.998Z</time></trkpt><trkpt lat="45.03388223034227" lon="9.902008738138683"><ele>45.0</ele><time>2026-04-25T12:48:18.998Z</time></trkpt><trkpt lat="45.03396163572963" lon="9.90205448559519"><ele>45.0</ele><time>2026-04-25T12:48:20Z</time></trkpt><trkpt lat="45.034041969244704" lon="9.902098731578604"><ele>45.0</ele><time>2026-04-25T12:48:21Z</time></trkpt><trkpt lat="45.034121147388824" lon="9.902145308630267"><ele>45.0</ele><time>2026-04-25T12:48:22Z</time></trkpt><trkpt lat="45.03419571279486" lon="9.902188603282713"><ele>45.0</ele><time>2026-04-25T12:48:23Z</time></trkpt><trkpt lat="45.03426875000732" lon="9.902234222570312"><ele>45.0</ele><time>2026-04-25T12:48:24Z</time></trkpt><trkpt lat="45.03434534070904" lon="9.902282760297608"><ele>45.166666666666664</ele><time>2026-04-25T12:48:25Z</time></trkpt><trkpt lat="45.0344205504885" lon="9.902331444482547"><ele>45.333333333333336</ele><time>2026-04-25T12:48:26Z</time></trkpt><trkpt lat="45.0344954230555" lon="9.902380826751473"><ele>45.5</ele><time>2026-04-25T12:48:27Z</time></trkpt><trkpt lat="45.034574431724614" lon="9.902432033233525"><ele>45.66666666666667</ele><time>2026-04-25T12:48:28Z</time></trkpt><trkpt lat="45.03465241129687" lon="9.902484845114099"><ele>45.833333333333336</ele><time>2026-04-25T12:48:29Z</time></trkpt><trkpt lat="45.0347337414828" lon="9.90253065112324"><ele>46.0</ele><time>2026-04-25T12:48:30Z</time></trkpt><trkpt lat="45.03481885027025" lon="9.90257768987327"><ele>45.833333333333336</ele><time>2026-04-25T12:48:31Z</time></trkpt><trkpt lat="45.034897619455364" lon="9.902624610085521"><ele>45.66666666666667</ele><time>2026-04-25T12:48:32Z</time></trkpt><trkpt lat="45.03497964717628" lon="9.902672975527059"><ele>45.5</ele><time>2026-04-25T12:48:33Z</time></trkpt><trkpt lat="45.03506464721114" lon="9.902719438727834"><ele>45.333333333333336</ele><time>2026-04-25T12:48:34Z</time></trkpt><trkpt lat="45.035147454527504" lon="9.90276687884443"><ele>45.166666666666664</ele><time>2026-04-25T12:48:35Z</time></trkpt><trkpt lat="45.035232168512174" lon="9.902812855955249"><ele>45.0</ele><time>2026-04-25T12:48:36Z</time></trkpt><trkpt lat="45.0353150826385" lon="9.902859033990362"><ele>44.833333333333336</ele><time>2026-04-25T12:48:37Z</time></trkpt><trkpt lat="45.035400018230916" lon="9.902912742019517"><ele>44.666666666666664</ele><time>2026-04-25T12:48:38Z</time></trkpt><trkpt lat="45.03548425243746" lon="9.902959663348035"><ele>44.5</ele><time>2026-04-25T12:48:38.999Z</time></trkpt><trkpt lat="45.03556610169161" lon="9.903007085486545"><ele>44.33333333333333</ele><time>2026-04-25T12:48:39.999Z</time></trkpt><trkpt lat="45.03564767763563" lon="9.903053021789963"><ele>44.166666666666664</ele><time>2026-04-25T12:48:40.999Z</time></trkpt><trkpt lat="45.03572830132908" lon="9.903104935404679"><ele>44.0</ele><time>2026-04-25T12:48:41.999Z</time></trkpt><trkpt lat="45.03581198913017" lon="9.903152624521848"><ele>43.5</ele><time>2026-04-25T12:48:42.999Z</time></trkpt><trkpt lat="45.03589472195525" lon="9.903200397216075"><ele>43.0</ele><time>2026-04-25T12:48:43.999Z</time></trkpt><trkpt lat="45.03597758041125" lon="9.903246092784567"><ele>42.5</ele><time>2026-04-25T12:48:44.999Z</time></trkpt><trkpt lat="45.036058619487086" lon="9.903289048885622"><ele>42.0</ele><time>2026-04-25T12:48:45.999Z</time></trkpt><trkpt lat="45.036139210352474" lon="9.903338257105226"><ele>41.5</ele><time>2026-04-25T12:48:46.999Z</time></trkpt><trkpt lat="45.03621936606574" lon="9.903383869816567"><ele>41.0</ele><time>2026-04-25T12:48:47.999Z</time></trkpt><trkpt lat="45.03629718319741" lon="9.903427526373592"><ele>41.0</ele><time>2026-04-25T12:48:48.999Z</time></trkpt><trkpt lat="45.03637225435259" lon="9.903475037943982"><ele>41.0</ele><time>2026-04-25T12:48:49.999Z</time></trkpt><trkpt lat="45.03645106326097" lon="9.903527583451432"><ele>41.0</ele><time>2026-04-25T12:48:50.999Z</time></trkpt><trkpt lat="45.03653057670011" lon="9.9035723527411"><ele>41.0</ele><time>2026-04-25T12:48:51.999Z</time></trkpt><trkpt lat="45.03661136984136" lon="9.903615715683964"><ele>41.0</ele><time>2026-04-25T12:48:52.999Z</time></trkpt><trkpt lat="45.03669255597634" lon="9.903657452906009"><ele>41.0</ele><time>2026-04-25T12:48:53.999Z</time></trkpt><trkpt lat="45.03677214532762" lon="9.90370116408488"><ele>41.166666666666664</ele><time>2026-04-25T12:48:54.999Z</time></trkpt><trkpt lat="45.036854143203335" lon="9.903747597705777"><ele>41.33333333333333</ele><time>2026-04-25T12:48:55.999Z</time></trkpt><trkpt lat="45.03693393397713" lon="9.903795288370334"><ele>41.5</ele><time>2026-04-25T12:48:56.999Z</time></trkpt><trkpt lat="45.03700941637073" lon="9.903841266020706"><ele>41.666666666666664</ele><time>2026-04-25T12:48:57.999Z</time></trkpt><trkpt lat="45.03709057306637" lon="9.903892562475663"><ele>41.833333333333336</ele><time>2026-04-25T12:48:58.999Z</time></trkpt><trkpt lat="45.03717117567875" lon="9.903940108440509"><ele>42.0</ele><time>2026-04-25T12:48:59.999Z</time></trkpt><trkpt lat="45.03725173400978" lon="9.903983092631574"><ele>42.0</ele><time>2026-04-25T12:49:00.999Z</time></trkpt><trkpt lat="45.03733347509324" lon="9.904023441773397"><ele>42.0</ele><time>2026-04-25T12:49:01.999Z</time></trkpt><trkpt lat="45.03741435250464" lon="9.90406369789723"><ele>42.0</ele><time>2026-04-25T12:49:02.999Z</time></trkpt><trkpt lat="45.037496493800056" lon="9.904102959908226"><ele>42.0</ele><time>2026-04-25T12:49:03.999Z</time></trkpt><trkpt lat="45.03758051713026" lon="9.904143227117407"><ele>42.0</ele><time>2026-04-25T12:49:04.999Z</time></trkpt><trkpt lat="45.03766493771959" lon="9.904180361592072"><ele>42.0</ele><time>2026-04-25T12:49:05.999Z</time></trkpt><trkpt lat="45.03774725479441" lon="9.90422079252534"><ele>42.5</ele><time>2026-04-25T12:49:06.999Z</time></trkpt><trkpt lat="45.03782803975979" lon="9.904259334262116"><ele>43.0</ele><time>2026-04-25T12:49:07.999Z</time></trkpt><trkpt lat="45.03791244579284" lon="9.90431204784656"><ele>43.5</ele><time>2026-04-25T12:49:08.999Z</time></trkpt><trkpt lat="45.03799748701029" lon="9.90435860469064"><ele>44.0</ele><time>2026-04-25T12:49:09.999Z</time></trkpt><trkpt lat="45.03808200853233" lon="9.904397544125551"><ele>44.5</ele><time>2026-04-25T12:49:10.999Z</time></trkpt><trkpt lat="45.038168868976925" lon="9.904433412648128"><ele>45.0</ele><time>2026-04-25T12:49:11.999Z</time></trkpt><trkpt lat="45.03825141535579" lon="9.904467601764651"><ele>44.6</ele><time>2026-04-25T12:49:12.999Z</time></trkpt><trkpt lat="45.0383392650285" lon="9.904509763557762"><ele>44.2</ele><time>2026-04-25T12:49:13.999Z</time></trkpt><trkpt lat="45.03842280590907" lon="9.904551898390563"><ele>43.8</ele><time>2026-04-25T12:49:14.999Z</time></trkpt><trkpt lat="45.03850779233469" lon="9.904597555667099"><ele>43.4</ele><time>2026-04-25T12:49:15.999Z</time></trkpt><trkpt lat="45.03859207355285" lon="9.904636613596686"><ele>43.0</ele><time>2026-04-25T12:49:16.999Z</time></trkpt><trkpt lat="45.038677515919346" lon="9.90467564750386"><ele>43.0</ele><time>2026-04-25T12:49:17.999Z</time></trkpt><trkpt lat="45.03876258394638" lon="9.904724122247886"><ele>43.0</ele><time>2026-04-25T12:49:18.999Z</time></trkpt><trkpt lat="45.03884930618112" lon="9.904767694887985"><ele>43.0</ele><time>2026-04-25T12:49:19.999Z</time></trkpt><trkpt lat="45.038939983615954" lon="9.904804548482682"><ele>43.0</ele><time>2026-04-25T12:49:20.999Z</time></trkpt><trkpt lat="45.039026092504855" lon="9.904853572115453"><ele>43.0</ele><time>2026-04-25T12:49:21.999Z</time></trkpt><trkpt lat="45.03910800094481" lon="9.904917858578296"><ele>42.599999999999994</ele><time>2026-04-25T12:49:22.999Z</time></trkpt><trkpt lat="45.03919145707633" lon="9.904976234508807"><ele>42.199999999999996</ele><time>2026-04-25T12:49:23.999Z</time></trkpt><trkpt lat="45.03927422321551" lon="9.905027942004306"><ele>41.8</ele><time>2026-04-25T12:49:24.999Z</time></trkpt><trkpt lat="45.039353887360846" lon="9.905079833751307"><ele>41.4</ele><time>2026-04-25T12:49:25.999Z</time></trkpt><trkpt lat="45.039435243238024" lon="9.905135519091216"><ele>41.0</ele><time>2026-04-25T12:49:26.999Z</time></trkpt><trkpt lat="45.039513834387506" lon="9.905192211532983"><ele>41.0</ele><time>2026-04-25T12:49:27.999Z</time></trkpt><trkpt lat="45.039591233902726" lon="9.905254419744905"><ele>41.0</ele><time>2026-04-25T12:49:28.999Z</time></trkpt><trkpt lat="45.03966437369797" lon="9.90532443133671"><ele>41.0</ele><time>2026-04-25T12:49:29.999Z</time></trkpt><trkpt lat="45.03973671384857" lon="9.90540182389415"><ele>41.0</ele><time>2026-04-25T12:49:30.999Z</time></trkpt><trkpt lat="45.03981021475681" lon="9.905474372240734"><ele>41.0</ele><time>2026-04-25T12:49:31.999Z</time></trkpt><trkpt lat="45.03988222051777" lon="9.9055527311801"><ele>41.0</ele><time>2026-04-25T12:49:32.999Z</time></trkpt><trkpt lat="45.03995699633488" lon="9.905621717459043"><ele>40.599999999999994</ele><time>2026-04-25T12:49:33.999Z</time></trkpt><trkpt lat="45.04003862792688" lon="9.90567885232623"><ele>40.199999999999996</ele><time>2026-04-25T12:49:34.999Z</time></trkpt><trkpt lat="45.04012586863963" lon="9.905726786367063"><ele>39.8</ele><time>2026-04-25T12:49:35.999Z</time></trkpt><trkpt lat="45.04021574777365" lon="9.905765911053782"><ele>39.4</ele><time>2026-04-25T12:49:36.999Z</time></trkpt><trkpt lat="45.040306566683604" lon="9.90578895806106"><ele>39.0</ele><time>2026-04-25T12:49:37.999Z</time></trkpt><trkpt lat="45.04040008228725" lon="9.905801374275558"><ele>39.0</ele><time>2026-04-25T12:49:38.999Z</time></trkpt><trkpt lat="45.04048997827913" lon="9.905819193805847"><ele>39.0</ele><time>2026-04-25T12:49:39.999Z</time></trkpt><trkpt lat="45.04057783945369" lon="9.905847893820313"><ele>39.0</ele><time>2026-04-25T12:49:40.998Z</time></trkpt><trkpt lat="45.04066531189285" lon="9.905876444542292"><ele>39.0</ele><time>2026-04-25T12:49:41.998Z</time></trkpt><trkpt lat="45.04075105088478" lon="9.905907687354443"><ele>39.0</ele><time>2026-04-25T12:49:42.998Z</time></trkpt><trkpt lat="45.040837913305666" lon="9.905930851221363"><ele>39.0</ele><time>2026-04-25T12:49:43.998Z</time></trkpt><trkpt lat="45.040925932874984" lon="9.905947479735172"><ele>40.0</ele><time>2026-04-25T12:49:44.998Z</time></trkpt><trkpt lat="45.041012583007564" lon="9.905978189611444"><ele>41.0</ele><time>2026-04-25T12:49:45.998Z</time></trkpt><trkpt lat="45.04109604824665" lon="9.906021404444372"><ele>42.0</ele><time>2026-04-25T12:49:46.998Z</time></trkpt><trkpt lat="45.041178335133324" lon="9.90605980016907"><ele>43.0</ele><time>2026-04-25T12:49:47.998Z</time></trkpt><trkpt lat="45.04126195529733" lon="9.906097766225626"><ele>44.0</ele><time>2026-04-25T12:49:48.998Z</time></trkpt><trkpt lat="45.041343781626026" lon="9.90614583226384"><ele>45.0</ele><time>2026-04-25T12:49:49.998Z</time></trkpt><trkpt lat="45.04142352798871" lon="9.906195412654723"><ele>45.0</ele><time>2026-04-25T12:49:50.998Z</time></trkpt><trkpt lat="45.04150183911382" lon="9.906242027366643"><ele>45.0</ele><time>2026-04-25T12:49:51.998Z</time></trkpt><trkpt lat="45.04158341998422" lon="9.906291507366829"><ele>45.0</ele><time>2026-04-25T12:49:52.998Z</time></trkpt><trkpt lat="45.04166330376293" lon="9.906342047580864"><ele>45.0</ele><time>2026-04-25T12:49:53.998Z</time></trkpt><trkpt lat="45.04173962422261" lon="9.906395810207243"><ele>45.0</ele><time>2026-04-25T12:49:54.998Z</time></trkpt><trkpt lat="45.04182001732986" lon="9.906444154524044"><ele>45.0</ele><time>2026-04-25T12:49:55.998Z</time></trkpt><trkpt lat="45.04190216708556" lon="9.906492795575423"><ele>45.0</ele><time>2026-04-25T12:49:56.998Z</time></trkpt><trkpt lat="45.04198214458535" lon="9.906542798196222"><ele>45.0</ele><time>2026-04-25T12:49:57.998Z</time></trkpt><trkpt lat="45.04206114836857" lon="9.90659348121564"><ele>45.0</ele><time>2026-04-25T12:49:58.998Z</time></trkpt><trkpt lat="45.04214225659372" lon="9.906639967144528"><ele>45.0</ele><time>2026-04-25T12:49:59.998Z</time></trkpt><trkpt lat="45.04222490071435" lon="9.906689183678406"><ele>45.0</ele><time>2026-04-25T12:50:00.998Z</time></trkpt><trkpt lat="45.0423073935873" lon="9.90673211370746"><ele>45.0</ele><time>2026-04-25T12:50:01.998Z</time></trkpt><trkpt lat="45.04238959210924" lon="9.906776513674119"><ele>44.833333333333336</ele><time>2026-04-25T12:50:02.998Z</time></trkpt><trkpt lat="45.042470368145835" lon="9.90682065057342"><ele>44.666666666666664</ele><time>2026-04-25T12:50:03.998Z</time></trkpt><trkpt lat="45.042553347587216" lon="9.90686094946511"><ele>44.5</ele><time>2026-04-25T12:50:04.998Z</time></trkpt><trkpt lat="45.042633665517194" lon="9.906900655823158"><ele>44.33333333333333</ele><time>2026-04-25T12:50:05.998Z</time></trkpt><trkpt lat="45.04271563321151" lon="9.906939284473818"><ele>44.166666666666664</ele><time>2026-04-25T12:50:06.998Z</time></trkpt><trkpt lat="45.04278912654701" lon="9.906977222307997"><ele>44.0</ele><time>2026-04-25T12:50:07.998Z</time></trkpt><trkpt lat="45.04287521339719" lon="9.9070057885542"><ele>44.0</ele><time>2026-04-25T12:50:08.998Z</time></trkpt><trkpt lat="45.04295814356139" lon="9.907036942042033"><ele>44.0</ele><time>2026-04-25T12:50:09.998Z</time></trkpt><trkpt lat="45.04304152522347" lon="9.907057833441579"><ele>44.0</ele><time>2026-04-25T12:50:10.998Z</time></trkpt><trkpt lat="45.043126356468115" lon="9.907094452090233"><ele>44.0</ele><time>2026-04-25T12:50:11.998Z</time></trkpt><trkpt lat="45.043210160463104" lon="9.90712960366287"><ele>44.0</ele><time>2026-04-25T12:50:12.998Z</time></trkpt><trkpt lat="45.04329341805121" lon="9.907162983276521"><ele>44.0</ele><time>2026-04-25T12:50:13.998Z</time></trkpt><trkpt lat="45.04337914289587" lon="9.907192741923872"><ele>44.0</ele><time>2026-04-25T12:50:14.998Z</time></trkpt><trkpt lat="45.043463837120136" lon="9.907219990581055"><ele>44.0</ele><time>2026-04-25T12:50:15.998Z</time></trkpt><trkpt lat="45.04354662590556" lon="9.90725963610433"><ele>44.0</ele><time>2026-04-25T12:50:16.998Z</time></trkpt><trkpt lat="45.04362958553158" lon="9.907296619973676"><ele>44.0</ele><time>2026-04-25T12:50:17.998Z</time></trkpt><trkpt lat="45.043711487083584" lon="9.907331947090897"><ele>44.0</ele><time>2026-04-25T12:50:18.998Z</time></trkpt><trkpt lat="45.043794946299506" lon="9.907362329777609"><ele>44.0</ele><time>2026-04-25T12:50:19.998Z</time></trkpt><trkpt lat="45.0438764730899" lon="9.907385789206007"><ele>44.0</ele><time>2026-04-25T12:50:20.998Z</time></trkpt><trkpt lat="45.043953099729954" lon="9.907408169238101"><ele>44.0</ele><time>2026-04-25T12:50:21.998Z</time></trkpt><trkpt lat="45.044024831694124" lon="9.907435062421374"><ele>44.0</ele><time>2026-04-25T12:50:22.998Z</time></trkpt><trkpt lat="45.044093431671314" lon="9.907456009273474"><ele>44.0</ele><time>2026-04-25T12:50:23.998Z</time></trkpt><trkpt lat="45.04416072948391" lon="9.90746764676049"><ele>44.0</ele><time>2026-04-25T12:50:24.998Z</time></trkpt><trkpt lat="45.04416321382689" lon="9.907693202673252"><ele>44.166666666666664</ele><time>2026-04-25T12:50:27Z</time></trkpt><trkpt lat="45.04416195551288" lon="9.9078030248347"><ele>44.33333333333333</ele><time>2026-04-25T12:50:28Z</time></trkpt><trkpt lat="45.04413529947517" lon="9.907904290910693"><ele>44.5</ele><time>2026-04-25T12:50:29Z</time></trkpt><trkpt lat="45.04411715353194" lon="9.9080086230227"><ele>44.666666666666664</ele><time>2026-04-25T12:50:30Z</time></trkpt><trkpt lat="45.04409817986112" lon="9.908116138500517"><ele>44.833333333333336</ele><time>2026-04-25T12:50:31Z</time></trkpt><trkpt lat="45.04407909919826" lon="9.908227467438234"><ele>45.0</ele><time>2026-04-25T12:50:32Z</time></trkpt><trkpt lat="45.04405664535869" lon="9.908336534528512"><ele>45.0</ele><time>2026-04-25T12:50:33Z</time></trkpt><trkpt lat="45.04403170896402" lon="9.908451786863896"><ele>45.0</ele><time>2026-04-25T12:50:34Z</time></trkpt><trkpt lat="45.044008113050616" lon="9.908566046318539"><ele>45.0</ele><time>2026-04-25T12:50:35Z</time></trkpt><trkpt lat="45.04398717665834" lon="9.908685566140301"><ele>45.0</ele><time>2026-04-25T12:50:36Z</time></trkpt><trkpt lat="45.043955260891025" lon="9.908799759247401"><ele>45.0</ele><time>2026-04-25T12:50:37Z</time></trkpt><trkpt lat="45.04392646669968" lon="9.908916938619555"><ele>45.0</ele><time>2026-04-25T12:50:38Z</time></trkpt><trkpt lat="45.04389593625847" lon="9.909028965367236"><ele>45.0</ele><time>2026-04-25T12:50:39Z</time></trkpt><trkpt lat="45.043866501132555" lon="9.90914121657089"><ele>45.0</ele><time>2026-04-25T12:50:40Z</time></trkpt><trkpt lat="45.04383905781767" lon="9.909248422127206"><ele>45.0</ele><time>2026-04-25T12:50:41Z</time></trkpt><trkpt lat="45.04381572775367" lon="9.909355181060008"><ele>45.0</ele><time>2026-04-25T12:50:42Z</time></trkpt><trkpt lat="45.04379036714803" lon="9.909460109552885"><ele>45.0</ele><time>2026-04-25T12:50:43Z</time></trkpt><trkpt lat="45.043765922764074" lon="9.909565954118536"><ele>45.0</ele><time>2026-04-25T12:50:44Z</time></trkpt><trkpt lat="45.04374242521344" lon="9.909665139033912"><ele>44.666666666666664</ele><time>2026-04-25T12:50:44.999Z</time></trkpt><trkpt lat="45.043716492685384" lon="9.909768730659644"><ele>44.333333333333336</ele><time>2026-04-25T12:50:45.999Z</time></trkpt><trkpt lat="45.0436964572554" lon="9.909871583920706"><ele>44.0</ele><time>2026-04-25T12:50:46.999Z</time></trkpt><trkpt lat="45.043677461664785" lon="9.909980109767972"><ele>43.66666666666667</ele><time>2026-04-25T12:50:47.999Z</time></trkpt><trkpt lat="45.04366597307404" lon="9.910089742568493"><ele>43.333333333333336</ele><time>2026-04-25T12:50:48.999Z</time></trkpt><trkpt lat="45.04366001450053" lon="9.910203055679032"><ele>43.0</ele><time>2026-04-25T12:50:49.999Z</time></trkpt><trkpt lat="45.04365400455489" lon="9.910304293152526"><ele>42.833333333333336</ele><time>2026-04-25T12:50:50.999Z</time></trkpt><trkpt lat="45.04364752600981" lon="9.910403881563033"><ele>42.66666666666667</ele><time>2026-04-25T12:50:51.999Z</time></trkpt><trkpt lat="45.04363959964155" lon="9.91049933494834"><ele>42.5</ele><time>2026-04-25T12:50:52.999Z</time></trkpt><trkpt lat="45.04363397936814" lon="9.910597472314732"><ele>42.333333333333336</ele><time>2026-04-25T12:50:53.999Z</time></trkpt><trkpt lat="45.043632908782406" lon="9.910687161172262"><ele>42.166666666666664</ele><time>2026-04-25T12:50:54.999Z</time></trkpt><trkpt lat="45.04363445016883" lon="9.910778737779125"><ele>42.0</ele><time>2026-04-25T12:50:55.999Z</time></trkpt><trkpt lat="45.04365928975441" lon="9.910936594494732"><ele>41.8</ele><time>2026-04-25T12:50:57.999Z</time></trkpt><trkpt lat="45.04360083763814" lon="9.911018717980307"><ele>41.6</ele><time>2026-04-25T12:50:58.999Z</time></trkpt><trkpt lat="45.04355257937753" lon="9.911162393559087"><ele>41.4</ele><time>2026-04-25T12:51:00.999Z</time></trkpt><trkpt lat="45.043497668908415" lon="9.911290870566154"><ele>41.199999999999996</ele><time>2026-04-25T12:51:02.999Z</time></trkpt><trkpt lat="45.04343650926911" lon="9.911406540309075"><ele>41.0</ele><time>2026-04-25T12:51:04.999Z</time></trkpt><trkpt lat="45.04338027493658" lon="9.911527484337787"><ele>40.99999999999999</ele><time>2026-04-25T12:51:06.999Z</time></trkpt><trkpt lat="45.04335486522397" lon="9.911646293802098"><ele>41.0</ele><time>2026-04-25T12:51:08.999Z</time></trkpt><trkpt lat="45.04330974489347" lon="9.911710620983262"><ele>41.0</ele><time>2026-04-25T12:51:11.999Z</time></trkpt><trkpt lat="45.04335786079953" lon="9.911776820181498"><ele>41.0</ele><time>2026-04-25T12:51:22.999Z</time></trkpt><trkpt lat="45.04330626055849" lon="9.91182970317799"><ele>41.0</ele><time>2026-04-25T12:53:11.999Z</time></trkpt><trkpt lat="45.04334922495438" lon="9.911760341639889"><ele>40.99999999999999</ele><time>2026-04-25T12:55:03.999Z</time></trkpt><trkpt lat="45.04336614084004" lon="9.911663569828352"><ele>41.0</ele><time>2026-04-25T12:55:21.999Z</time></trkpt><trkpt lat="45.04340604045523" lon="9.911576205196248"><ele>41.0</ele><time>2026-04-25T12:55:25.999Z</time></trkpt><trkpt lat="45.04344460267099" lon="9.911481778424347"><ele>41.0</ele><time>2026-04-25T12:55:28.999Z</time></trkpt><trkpt lat="45.043493982970915" lon="9.911382793405208"><ele>41.0</ele><time>2026-04-25T12:55:31.999Z</time></trkpt><trkpt lat="45.04352916517583" lon="9.911300423086995"><ele>41.0</ele><time>2026-04-25T12:55:33.999Z</time></trkpt><trkpt lat="45.04357626022573" lon="9.911209500771543"><ele>41.0</ele><time>2026-04-25T12:55:35.999Z</time></trkpt><trkpt lat="45.04362410083704" lon="9.911111194528992"><ele>41.0</ele><time>2026-04-25T12:55:37.999Z</time></trkpt><trkpt lat="45.043673673514796" lon="9.911011316779444"><ele>41.0</ele><time>2026-04-25T12:55:39.999Z</time></trkpt><trkpt lat="45.043721212298664" lon="9.910917069757128"><ele>41.0</ele><time>2026-04-25T12:55:41.999Z</time></trkpt><trkpt lat="45.04377435066731" lon="9.910837494649938"><ele>41.0</ele><time>2026-04-25T12:55:43.999Z</time></trkpt><trkpt lat="45.04386493622073" lon="9.910848223682143"><ele>41.0</ele><time>2026-04-25T12:55:45.999Z</time></trkpt><trkpt lat="45.04396218850935" lon="9.910875924795107"><ele>41.0</ele><time>2026-04-25T12:55:47.999Z</time></trkpt><trkpt lat="45.04406750924591" lon="9.91090255638661"><ele>41.199999999999996</ele><time>2026-04-25T12:55:49.999Z</time></trkpt><trkpt lat="45.04417110854275" lon="9.91093611613146"><ele>41.4</ele><time>2026-04-25T12:55:51.999Z</time></trkpt><trkpt lat="45.04427949451702" lon="9.910956038307202"><ele>41.6</ele><time>2026-04-25T12:55:53.999Z</time></trkpt><trkpt lat="45.044386969421346" lon="9.910991822361847"><ele>41.8</ele><time>2026-04-25T12:55:55.998Z</time></trkpt><trkpt lat="45.044498454601495" lon="9.911030356395912"><ele>42.0</ele><time>2026-04-25T12:55:57.998Z</time></trkpt><trkpt lat="45.04461130951644" lon="9.91107465605229"><ele>42.0</ele><time>2026-04-25T12:55:59.998Z</time></trkpt><trkpt lat="45.04472313099288" lon="9.911122871478009"><ele>42.0</ele><time>2026-04-25T12:56:01.998Z</time></trkpt><trkpt lat="45.04483689818195" lon="9.91118305885573"><ele>42.0</ele><time>2026-04-25T12:56:03.998Z</time></trkpt><trkpt lat="45.04494495832076" lon="9.911256305023352"><ele>42.0</ele><time>2026-04-25T12:56:05.998Z</time></trkpt><trkpt lat="45.04504976266408" lon="9.911347011610445"><ele>42.25</ele><time>2026-04-25T12:56:07.998Z</time></trkpt><trkpt lat="45.04514168489142" lon="9.911458673915575"><ele>42.5</ele><time>2026-04-25T12:56:09.998Z</time></trkpt><trkpt lat="45.04524115488488" lon="9.911567848594599"><ele>42.75</ele><time>2026-04-25T12:56:11.998Z</time></trkpt><trkpt lat="45.04532269300761" lon="9.911686250702472"><ele>43.0</ele><time>2026-04-25T12:56:13.998Z</time></trkpt><trkpt lat="45.045399909779206" lon="9.911801244795477"><ele>43.0</ele><time>2026-04-25T12:56:15.998Z</time></trkpt><trkpt lat="45.045481927356754" lon="9.911921619751364"><ele>43.0</ele><time>2026-04-25T12:56:17.998Z</time></trkpt><trkpt lat="45.0455554633002" lon="9.912057646602767"><ele>43.0</ele><time>2026-04-25T12:56:19.998Z</time></trkpt><trkpt lat="45.04563499715578" lon="9.912188136530059"><ele>43.0</ele><time>2026-04-25T12:56:21.998Z</time></trkpt><trkpt lat="45.04571581276715" lon="9.912320237434692"><ele>43.00000000000001</ele><time>2026-04-25T12:56:23.998Z</time></trkpt><trkpt lat="45.0457582853498" lon="9.912387559864504"><ele>43.0</ele><time>2026-04-25T12:56:24.998Z</time></trkpt><trkpt lat="45.045804162633786" lon="9.912460043804613"><ele>43.0</ele><time>2026-04-25T12:56:25.998Z</time></trkpt><trkpt lat="45.04584802026693" lon="9.91252430898807"><ele>43.0</ele><time>2026-04-25T12:56:26.998Z</time></trkpt><trkpt lat="45.04589565250677" lon="9.912595528777114"><ele>43.0</ele><time>2026-04-25T12:56:27.998Z</time></trkpt><trkpt lat="45.045935185983645" lon="9.9126756317086"><ele>43.00000000000001</ele><time>2026-04-25T12:56:28.998Z</time></trkpt><trkpt lat="45.04597370239867" lon="9.912761012104214"><ele>43.0</ele><time>2026-04-25T12:56:29.998Z</time></trkpt><trkpt lat="45.04601669511708" lon="9.912839589272986"><ele>43.00000000000001</ele><time>2026-04-25T12:56:30.998Z</time></trkpt><trkpt lat="45.04606410632322" lon="9.912918279199035"><ele>43.0</ele><time>2026-04-25T12:56:31.998Z</time></trkpt><trkpt lat="45.04611028923773" lon="9.912995091898154"><ele>43.0</ele><time>2026-04-25T12:56:32.998Z</time></trkpt><trkpt lat="45.046158199268454" lon="9.9130717894013"><ele>43.0</ele><time>2026-04-25T12:56:33.998Z</time></trkpt><trkpt lat="45.04620659943144" lon="9.913151599385357"><ele>43.0</ele><time>2026-04-25T12:56:34.998Z</time></trkpt><trkpt lat="45.046254768068806" lon="9.913229610050871"><ele>43.00000000000001</ele><time>2026-04-25T12:56:35.998Z</time></trkpt><trkpt lat="45.04630368714618" lon="9.913307323143766"><ele>43.0</ele><time>2026-04-25T12:56:36.998Z</time></trkpt><trkpt lat="45.04635553977932" lon="9.913381994168788"><ele>42.714285714285715</ele><time>2026-04-25T12:56:37.998Z</time></trkpt><trkpt lat="45.04640837542136" lon="9.913456918525277"><ele>42.42857142857143</ele><time>2026-04-25T12:56:38.998Z</time></trkpt><trkpt lat="45.046462715704216" lon="9.913528226120453"><ele>42.14285714285714</ele><time>2026-04-25T12:56:39.998Z</time></trkpt><trkpt lat="45.04652150020558" lon="9.913596321355993"><ele>41.85714285714286</ele><time>2026-04-25T12:56:40.998Z</time></trkpt><trkpt lat="45.04657922514875" lon="9.913658545925635"><ele>41.57142857142857</ele><time>2026-04-25T12:56:41.998Z</time></trkpt><trkpt lat="45.046639511486745" lon="9.91372082230724"><ele>41.285714285714285</ele><time>2026-04-25T12:56:42.998Z</time></trkpt><trkpt lat="45.046704669147815" lon="9.913776238682862"><ele>41.0</ele><time>2026-04-25T12:56:43.999Z</time></trkpt><trkpt lat="45.046766963822925" lon="9.91383386270477"><ele>41.0</ele><time>2026-04-25T12:56:44.999Z</time></trkpt><trkpt lat="45.04682846890495" lon="9.913892312615795"><ele>41.0</ele><time>2026-04-25T12:56:45.999Z</time></trkpt><trkpt lat="45.046894085047334" lon="9.913947063011104"><ele>41.0</ele><time>2026-04-25T12:56:46.999Z</time></trkpt><trkpt lat="45.04695663770721" lon="9.914000676034863"><ele>41.0</ele><time>2026-04-25T12:56:47.999Z</time></trkpt><trkpt lat="45.04702696333377" lon="9.914049680860344"><ele>41.0</ele><time>2026-04-25T12:56:48.999Z</time></trkpt><trkpt lat="45.047097813825886" lon="9.914087982963641"><ele>41.0</ele><time>2026-04-25T12:56:49.999Z</time></trkpt><trkpt lat="45.04716940588846" lon="9.914131955440439"><ele>41.0</ele><time>2026-04-25T12:56:50.999Z</time></trkpt><trkpt lat="45.047239923462925" lon="9.914182276116735"><ele>41.0</ele><time>2026-04-25T12:56:51.999Z</time></trkpt><trkpt lat="45.0473097866787" lon="9.914229440727421"><ele>41.0</ele><time>2026-04-25T12:56:52.999Z</time></trkpt><trkpt lat="45.04737985082198" lon="9.914275282283903"><ele>41.0</ele><time>2026-04-25T12:56:53.999Z</time></trkpt><trkpt lat="45.04745043015738" lon="9.914317512681738"><ele>41.0</ele><time>2026-04-25T12:56:54.999Z</time></trkpt><trkpt lat="45.04752036214071" lon="9.914360862380299"><ele>41.0</ele><time>2026-04-25T12:56:55.999Z</time></trkpt><trkpt lat="45.047593751093736" lon="9.914402665770794"><ele>41.5</ele><time>2026-04-25T12:56:56.999Z</time></trkpt><trkpt lat="45.047665098148414" lon="9.91443923967437"><ele>42.0</ele><time>2026-04-25T12:56:57.999Z</time></trkpt><trkpt lat="45.04773874930484" lon="9.91446844663527"><ele>42.5</ele><time>2026-04-25T12:56:58.999Z</time></trkpt><trkpt lat="45.04780977653491" lon="9.914503303550454"><ele>43.0</ele><time>2026-04-25T12:56:59.999Z</time></trkpt><trkpt lat="45.04788389805979" lon="9.914540949455548"><ele>43.5</ele><time>2026-04-25T12:57:00.999Z</time></trkpt><trkpt lat="45.04795509657793" lon="9.914578959140067"><ele>44.0</ele><time>2026-04-25T12:57:01.999Z</time></trkpt><trkpt lat="45.0480285679083" lon="9.914618933513015"><ele>44.0</ele><time>2026-04-25T12:57:02.999Z</time></trkpt><trkpt lat="45.04809996105526" lon="9.914658789356205"><ele>44.0</ele><time>2026-04-25T12:57:03.999Z</time></trkpt><trkpt lat="45.04817089050974" lon="9.91470156756463"><ele>44.0</ele><time>2026-04-25T12:57:04.999Z</time></trkpt><trkpt lat="45.04824354094511" lon="9.914747175307626"><ele>44.0</ele><time>2026-04-25T12:57:05.999Z</time></trkpt><trkpt lat="45.04831500452719" lon="9.914797204094885"><ele>44.0</ele><time>2026-04-25T12:57:06.999Z</time></trkpt><trkpt lat="45.04838525241347" lon="9.91484701021151"><ele>44.0</ele><time>2026-04-25T12:57:07.999Z</time></trkpt><trkpt lat="45.04845550859196" lon="9.914898481567707"><ele>43.83333333333333</ele><time>2026-04-25T12:57:08.999Z</time></trkpt><trkpt lat="45.04852529621843" lon="9.914947189379049"><ele>43.666666666666664</ele><time>2026-04-25T12:57:09.999Z</time></trkpt><trkpt lat="45.04859363609433" lon="9.914995834692753"><ele>43.5</ele><time>2026-04-25T12:57:10.999Z</time></trkpt><trkpt lat="45.04866299183579" lon="9.915046704697454"><ele>43.333333333333336</ele><time>2026-04-25T12:57:11.999Z</time></trkpt><trkpt lat="45.04873130612896" lon="9.915100721787649"><ele>43.16666666666667</ele><time>2026-04-25T12:57:12.999Z</time></trkpt><trkpt lat="45.04880256754542" lon="9.915148944525045"><ele>43.0</ele><time>2026-04-25T12:57:13.999Z</time></trkpt><trkpt lat="45.04887402700911" lon="9.915201324957689"><ele>42.66666666666667</ele><time>2026-04-25T12:57:14.999Z</time></trkpt><trkpt lat="45.048942431111946" lon="9.915260617055122"><ele>42.333333333333336</ele><time>2026-04-25T12:57:15.999Z</time></trkpt><trkpt lat="45.049008337979664" lon="9.915325512723394"><ele>42.0</ele><time>2026-04-25T12:57:16.999Z</time></trkpt><trkpt lat="45.04907455823198" lon="9.915391663462612"><ele>41.666666666666664</ele><time>2026-04-25T12:57:17.999Z</time></trkpt><trkpt lat="45.04914018680715" lon="9.915454271942531"><ele>41.33333333333333</ele><time>2026-04-25T12:57:18.999Z</time></trkpt><trkpt lat="45.04920729268555" lon="9.915520001005639"><ele>41.0</ele><time>2026-04-25T12:57:19.999Z</time></trkpt><trkpt lat="45.04926958933364" lon="9.915589764860167"><ele>40.83333333333333</ele><time>2026-04-25T12:57:20.999Z</time></trkpt><trkpt lat="45.04933174092785" lon="9.915661875033212"><ele>40.666666666666664</ele><time>2026-04-25T12:57:21.999Z</time></trkpt><trkpt lat="45.04939335890079" lon="9.915731040067827"><ele>40.5</ele><time>2026-04-25T12:57:22.999Z</time></trkpt><trkpt lat="45.049458118005525" lon="9.915795575334306"><ele>40.333333333333336</ele><time>2026-04-25T12:57:23.999Z</time></trkpt><trkpt lat="45.049526260792526" lon="9.915857241642806"><ele>40.16666666666667</ele><time>2026-04-25T12:57:24.999Z</time></trkpt><trkpt lat="45.04959694045491" lon="9.91590887387579"><ele>40.0</ele><time>2026-04-25T12:57:25.999Z</time></trkpt><trkpt lat="45.0496697982557" lon="9.91595850821587"><ele>40.16666666666667</ele><time>2026-04-25T12:57:26.999Z</time></trkpt><trkpt lat="45.04974123866492" lon="9.916007561079514"><ele>40.333333333333336</ele><time>2026-04-25T12:57:27.999Z</time></trkpt><trkpt lat="45.04981247255733" lon="9.916050794548452"><ele>40.5</ele><time>2026-04-25T12:57:28.999Z</time></trkpt><trkpt lat="45.04989033832517" lon="9.916078199010327"><ele>40.666666666666664</ele><time>2026-04-25T12:57:29.999Z</time></trkpt><trkpt lat="45.04996891107081" lon="9.916092595185058"><ele>40.83333333333333</ele><time>2026-04-25T12:57:30.999Z</time></trkpt><trkpt lat="45.0500478426856" lon="9.916101946938825"><ele>41.0</ele><time>2026-04-25T12:57:31.999Z</time></trkpt><trkpt lat="45.050124632097344" lon="9.916102111886262"><ele>41.0</ele><time>2026-04-25T12:57:32.999Z</time></trkpt><trkpt lat="45.050205211669876" lon="9.916096983175523"><ele>41.0</ele><time>2026-04-25T12:57:33.999Z</time></trkpt><trkpt lat="45.05028724356783" lon="9.916092627413931"><ele>41.0</ele><time>2026-04-25T12:57:34.999Z</time></trkpt><trkpt lat="45.05036656920432" lon="9.91608971926257"><ele>41.0</ele><time>2026-04-25T12:57:35.999Z</time></trkpt><trkpt lat="45.05044421925619" lon="9.916094178853823"><ele>41.0</ele><time>2026-04-25T12:57:36.999Z</time></trkpt><trkpt lat="45.0505225836914" lon="9.916105393665159"><ele>41.0</ele><time>2026-04-25T12:57:37.999Z</time></trkpt><trkpt lat="45.050601426584265" lon="9.916123389023076"><ele>41.0</ele><time>2026-04-25T12:57:38.999Z</time></trkpt><trkpt lat="45.0506794342524" lon="9.916141110645047"><ele>41.0</ele><time>2026-04-25T12:57:39.999Z</time></trkpt><trkpt lat="45.05075713443573" lon="9.916156918078919"><ele>41.0</ele><time>2026-04-25T12:57:40.999Z</time></trkpt><trkpt lat="45.05083496484651" lon="9.916173965298634"><ele>41.0</ele><time>2026-04-25T12:57:41.999Z</time></trkpt><trkpt lat="45.05091527263647" lon="9.916191766040004"><ele>41.0</ele><time>2026-04-25T12:57:42.999Z</time></trkpt><trkpt lat="45.050997477729524" lon="9.91621120810987"><ele>41.0</ele><time>2026-04-25T12:57:43.999Z</time></trkpt><trkpt lat="45.051079692673376" lon="9.916234178325407"><ele>40.83333333333333</ele><time>2026-04-25T12:57:44.999Z</time></trkpt><trkpt lat="45.051162674424205" lon="9.91625204504244"><ele>40.666666666666664</ele><time>2026-04-25T12:57:45.999Z</time></trkpt><trkpt lat="45.05124512076618" lon="9.91627038094304"><ele>40.5</ele><time>2026-04-25T12:57:46.999Z</time></trkpt><trkpt lat="45.05132892456256" lon="9.91629005242906"><ele>40.333333333333336</ele><time>2026-04-25T12:57:47.999Z</time></trkpt><trkpt lat="45.0514113147795" lon="9.916313838595535"><ele>40.16666666666667</ele><time>2026-04-25T12:57:48.999Z</time></trkpt><trkpt lat="45.05149287560747" lon="9.916344045191645"><ele>40.0</ele><time>2026-04-25T12:57:49.999Z</time></trkpt><trkpt lat="45.05157300862068" lon="9.916376102962605"><ele>39.66666666666667</ele><time>2026-04-25T12:57:50.999Z</time></trkpt><trkpt lat="45.05165445946936" lon="9.916407646466984"><ele>39.333333333333336</ele><time>2026-04-25T12:57:51.999Z</time></trkpt><trkpt lat="45.051734710357735" lon="9.916442733090301"><ele>39.0</ele><time>2026-04-25T12:57:52.999Z</time></trkpt><trkpt lat="45.0518155930878" lon="9.916481299222612"><ele>38.666666666666664</ele><time>2026-04-25T12:57:53.999Z</time></trkpt><trkpt lat="45.05189403323116" lon="9.916520923827497"><ele>38.33333333333333</ele><time>2026-04-25T12:57:54.999Z</time></trkpt><trkpt lat="45.05197433856432" lon="9.916559348428686"><ele>38.0</ele><time>2026-04-25T12:57:55.999Z</time></trkpt><trkpt lat="45.05205480537903" lon="9.916598987989566"><ele>38.0</ele><time>2026-04-25T12:57:56.999Z</time></trkpt><trkpt lat="45.05213691968824" lon="9.916635196866498"><ele>38.0</ele><time>2026-04-25T12:57:57.999Z</time></trkpt><trkpt lat="45.05221855068035" lon="9.916673622140209"><ele>38.0</ele><time>2026-04-25T12:57:58.999Z</time></trkpt><trkpt lat="45.05230113243406" lon="9.916710109969632"><ele>38.0</ele><time>2026-04-25T12:57:59.998Z</time></trkpt><trkpt lat="45.05238284439294" lon="9.916743082675367"><ele>38.0</ele><time>2026-04-25T12:58:00.998Z</time></trkpt><trkpt lat="45.052465985411295" lon="9.9167740630228"><ele>38.0</ele><time>2026-04-25T12:58:01.998Z</time></trkpt><trkpt lat="45.052551275112535" lon="9.916805496236242"><ele>38.0</ele><time>2026-04-25T12:58:02.998Z</time></trkpt><trkpt lat="45.05263523739791" lon="9.91683172815361"><ele>38.0</ele><time>2026-04-25T12:58:03.999Z</time></trkpt><trkpt lat="45.05271995059118" lon="9.916856067525035"><ele>38.0</ele><time>2026-04-25T12:58:04.999Z</time></trkpt><trkpt lat="45.05280447631241" lon="9.9168734062156"><ele>38.0</ele><time>2026-04-25T12:58:05.999Z</time></trkpt><trkpt lat="45.05289042319336" lon="9.916885864941486"><ele>38.0</ele><time>2026-04-25T12:58:06.999Z</time></trkpt><trkpt lat="45.05297703757644" lon="9.916899254687294"><ele>38.0</ele><time>2026-04-25T12:58:07.999Z</time></trkpt><trkpt lat="45.053062616235316" lon="9.9169041366872"><ele>38.0</ele><time>2026-04-25T12:58:08.999Z</time></trkpt><trkpt lat="45.05314473441302" lon="9.916902141945435"><ele>38.0</ele><time>2026-04-25T12:58:09.999Z</time></trkpt><trkpt lat="45.053230121128365" lon="9.916898828760734"><ele>38.0</ele><time>2026-04-25T12:58:10.999Z</time></trkpt><trkpt lat="45.05331398386432" lon="9.916894659590895"><ele>38.0</ele><time>2026-04-25T12:58:11.999Z</time></trkpt><trkpt lat="45.05339925761872" lon="9.916885222290142"><ele>38.0</ele><time>2026-04-25T12:58:12.999Z</time></trkpt><trkpt lat="45.053484644690606" lon="9.916873991294032"><ele>38.0</ele><time>2026-04-25T12:58:13.999Z</time></trkpt><trkpt lat="45.05356915127836" lon="9.916861820437012"><ele>38.0</ele><time>2026-04-25T12:58:14.999Z</time></trkpt><trkpt lat="45.05365226931098" lon="9.916846651024565"><ele>38.0</ele><time>2026-04-25T12:58:15.999Z</time></trkpt><trkpt lat="45.05373535421125" lon="9.916826533898137"><ele>38.0</ele><time>2026-04-25T12:58:16.999Z</time></trkpt><trkpt lat="45.053817944703084" lon="9.916804706407047"><ele>38.0</ele><time>2026-04-25T12:58:17.999Z</time></trkpt><trkpt lat="45.05390092027477" lon="9.916778820193139"><ele>38.0</ele><time>2026-04-25T12:58:18.999Z</time></trkpt><trkpt lat="45.053982523732245" lon="9.916754081508143"><ele>38.0</ele><time>2026-04-25T12:58:19.999Z</time></trkpt><trkpt lat="45.0540674793398" lon="9.916729282022468"><ele>38.5</ele><time>2026-04-25T12:58:20.999Z</time></trkpt><trkpt lat="45.054151862101264" lon="9.91670165550803"><ele>39.0</ele><time>2026-04-25T12:58:21.999Z</time></trkpt><trkpt lat="45.054236299133834" lon="9.916673331029793"><ele>39.5</ele><time>2026-04-25T12:58:22.999Z</time></trkpt><trkpt lat="45.05431715995526" lon="9.916639951086712"><ele>40.0</ele><time>2026-04-25T12:58:23.999Z</time></trkpt><trkpt lat="45.05439919563268" lon="9.916606959997646"><ele>40.5</ele><time>2026-04-25T12:58:24.999Z</time></trkpt><trkpt lat="45.05448226255209" lon="9.916580070468836"><ele>41.0</ele><time>2026-04-25T12:58:25.999Z</time></trkpt><trkpt lat="45.05456685642356" lon="9.91655870158831"><ele>41.0</ele><time>2026-04-25T12:58:26.999Z</time></trkpt><trkpt lat="45.05465079672907" lon="9.916569879001397"><ele>41.0</ele><time>2026-04-25T12:58:27.999Z</time></trkpt><trkpt lat="45.05473746491698" lon="9.916547386831734"><ele>41.0</ele><time>2026-04-25T12:58:28.999Z</time></trkpt><trkpt lat="45.054822210012745" lon="9.916548295862968"><ele>41.0</ele><time>2026-04-25T12:58:29.999Z</time></trkpt><trkpt lat="45.054908722508884" lon="9.916540003259437"><ele>41.0</ele><time>2026-04-25T12:58:30.999Z</time></trkpt><trkpt lat="45.054992391949" lon="9.916528713446361"><ele>41.0</ele><time>2026-04-25T12:58:31.999Z</time></trkpt><trkpt lat="45.055078408826596" lon="9.91652261990798"><ele>41.166666666666664</ele><time>2026-04-25T12:58:32.999Z</time></trkpt><trkpt lat="45.05516108723023" lon="9.916515298914216"><ele>41.33333333333333</ele><time>2026-04-25T12:58:33.999Z</time></trkpt><trkpt lat="45.05524767520033" lon="9.916505022056379"><ele>41.5</ele><time>2026-04-25T12:58:34.999Z</time></trkpt><trkpt lat="45.05533077480296" lon="9.91649685575698"><ele>41.666666666666664</ele><time>2026-04-25T12:58:35.999Z</time></trkpt><trkpt lat="45.055415798199185" lon="9.916490011769735"><ele>41.833333333333336</ele><time>2026-04-25T12:58:36.999Z</time></trkpt><trkpt lat="45.055501368109965" lon="9.916482200246165"><ele>42.0</ele><time>2026-04-25T12:58:37.999Z</time></trkpt><trkpt lat="45.055586609877885" lon="9.916475707696856"><ele>42.0</ele><time>2026-04-25T12:58:38.999Z</time></trkpt><trkpt lat="45.0556720240873" lon="9.916472351557188"><ele>42.0</ele><time>2026-04-25T12:58:39.999Z</time></trkpt><trkpt lat="45.05575874722958" lon="9.916466295698697"><ele>42.0</ele><time>2026-04-25T12:58:40.999Z</time></trkpt><trkpt lat="45.05584366097869" lon="9.916457352984743"><ele>42.0</ele><time>2026-04-25T12:58:41.999Z</time></trkpt><trkpt lat="45.05592738243296" lon="9.916451505691128"><ele>42.0</ele><time>2026-04-25T12:58:42.999Z</time></trkpt><trkpt lat="45.05601249953378" lon="9.916446816900786"><ele>42.0</ele><time>2026-04-25T12:58:43.999Z</time></trkpt><trkpt lat="45.0560950407326" lon="9.916441819962301"><ele>41.833333333333336</ele><time>2026-04-25T12:58:44.999Z</time></trkpt><trkpt lat="45.056174730911955" lon="9.916432571818806"><ele>41.666666666666664</ele><time>2026-04-25T12:58:45.999Z</time></trkpt><trkpt lat="45.05625485167033" lon="9.916428509598664"><ele>41.5</ele><time>2026-04-25T12:58:46.999Z</time></trkpt><trkpt lat="45.05633262540376" lon="9.916420882030877"><ele>41.33333333333333</ele><time>2026-04-25T12:58:47.999Z</time></trkpt><trkpt lat="45.05640673418576" lon="9.916412120959304"><ele>41.166666666666664</ele><time>2026-04-25T12:58:48.999Z</time></trkpt><trkpt lat="45.0564819542097" lon="9.916401489114216"><ele>41.0</ele><time>2026-04-25T12:58:50Z</time></trkpt><trkpt lat="45.05655703980631" lon="9.916395526511712"><ele>40.99999999999999</ele><time>2026-04-25T12:58:51Z</time></trkpt><trkpt lat="45.056631027911756" lon="9.916385756384294"><ele>41.0</ele><time>2026-04-25T12:58:52Z</time></trkpt><trkpt lat="45.05670533094485" lon="9.916377778639458"><ele>41.0</ele><time>2026-04-25T12:58:53Z</time></trkpt><trkpt lat="45.05677830329221" lon="9.916372587744506"><ele>41.0</ele><time>2026-04-25T12:58:54Z</time></trkpt><trkpt lat="45.05685077449058" lon="9.916365826261305"><ele>41.0</ele><time>2026-04-25T12:58:55Z</time></trkpt><trkpt lat="45.056924554636375" lon="9.91635781602359"><ele>40.99999999999999</ele><time>2026-04-25T12:58:56Z</time></trkpt><trkpt lat="45.05699912080438" lon="9.916348128621612"><ele>41.0</ele><time>2026-04-25T12:58:57Z</time></trkpt><trkpt lat="45.057071416751555" lon="9.91634128914118"><ele>40.99999999999999</ele><time>2026-04-25T12:58:58Z</time></trkpt><trkpt lat="45.05714422838239" lon="9.916336818078863"><ele>41.0</ele><time>2026-04-25T12:58:59Z</time></trkpt><trkpt lat="45.05721799010043" lon="9.916328703169558"><ele>41.0</ele><time>2026-04-25T12:59:00Z</time></trkpt><trkpt lat="45.05728695077016" lon="9.916320600513613"><ele>41.0</ele><time>2026-04-25T12:59:01Z</time></trkpt><trkpt lat="45.05736001651729" lon="9.916316401105712"><ele>41.0</ele><time>2026-04-25T12:59:02Z</time></trkpt><trkpt lat="45.05742999305984" lon="9.916308396474715"><ele>40.99999999999999</ele><time>2026-04-25T12:59:03Z</time></trkpt><trkpt lat="45.05750199777554" lon="9.916300161622964"><ele>41.0</ele><time>2026-04-25T12:59:04Z</time></trkpt><trkpt lat="45.05757233502831" lon="9.916290887300779"><ele>40.99999999999999</ele><time>2026-04-25T12:59:05Z</time></trkpt><trkpt lat="45.05764648516224" lon="9.916282580127465"><ele>41.0</ele><time>2026-04-25T12:59:06Z</time></trkpt><trkpt lat="45.05771651996101" lon="9.91627431390941"><ele>41.0</ele><time>2026-04-25T12:59:07Z</time></trkpt><trkpt lat="45.05778911039868" lon="9.91626144029774"><ele>41.0</ele><time>2026-04-25T12:59:08Z</time></trkpt><trkpt lat="45.05785804787579" lon="9.916258619729026"><ele>41.0</ele><time>2026-04-25T12:59:09Z</time></trkpt><trkpt lat="45.05793100286863" lon="9.916251555590883"><ele>40.99999999999999</ele><time>2026-04-25T12:59:10Z</time></trkpt><trkpt lat="45.05800401460152" lon="9.916243134417122"><ele>41.0</ele><time>2026-04-25T12:59:11Z</time></trkpt><trkpt lat="45.05807214992275" lon="9.916235086661468"><ele>40.99999999999999</ele><time>2026-04-25T12:59:12Z</time></trkpt><trkpt lat="45.05814576372173" lon="9.916224134466312"><ele>41.0</ele><time>2026-04-25T12:59:13Z</time></trkpt><trkpt lat="45.05821832199299" lon="9.916218049237086"><ele>41.0</ele><time>2026-04-25T12:59:14Z</time></trkpt><trkpt lat="45.058291588748716" lon="9.916210255502975"><ele>41.0</ele><time>2026-04-25T12:59:15Z</time></trkpt><trkpt lat="45.05836346840907" lon="9.91619178053366"><ele>41.0</ele><time>2026-04-25T12:59:16Z</time></trkpt><trkpt lat="45.05843704778018" lon="9.916164698154725"><ele>40.99999999999999</ele><time>2026-04-25T12:59:17Z</time></trkpt><trkpt lat="45.05851164041925" lon="9.916129104085401"><ele>41.0</ele><time>2026-04-25T12:59:18Z</time></trkpt><trkpt lat="45.05858480532905" lon="9.916081310155745"><ele>41.166666666666664</ele><time>2026-04-25T12:59:19Z</time></trkpt><trkpt lat="45.05865553509352" lon="9.916026199201777"><ele>41.33333333333333</ele><time>2026-04-25T12:59:20Z</time></trkpt><trkpt lat="45.05872480589701" lon="9.915953968816796"><ele>41.5</ele><time>2026-04-25T12:59:21Z</time></trkpt><trkpt lat="45.058795252274926" lon="9.91588168466487"><ele>41.666666666666664</ele><time>2026-04-25T12:59:22Z</time></trkpt><trkpt lat="45.05886597435441" lon="9.915804559861128"><ele>41.833333333333336</ele><time>2026-04-25T12:59:23Z</time></trkpt><trkpt lat="45.0589350167926" lon="9.915723466450723"><ele>42.0</ele><time>2026-04-25T12:59:24Z</time></trkpt><trkpt lat="45.05900703401159" lon="9.915641793585241"><ele>42.2</ele><time>2026-04-25T12:59:25Z</time></trkpt><trkpt lat="45.059080370183324" lon="9.91555818111256"><ele>42.400000000000006</ele><time>2026-04-25T12:59:26Z</time></trkpt><trkpt lat="45.05915399995139" lon="9.91547623351532"><ele>42.599999999999994</ele><time>2026-04-25T12:59:27Z</time></trkpt><trkpt lat="45.05922823470979" lon="9.915399869348603"><ele>42.8</ele><time>2026-04-25T12:59:28Z</time></trkpt><trkpt lat="45.059303090517254" lon="9.91533067737942"><ele>43.0</ele><time>2026-04-25T12:59:29Z</time></trkpt><trkpt lat="45.059378548852266" lon="9.915276135111064"><ele>43.0</ele><time>2026-04-25T12:59:30Z</time></trkpt><trkpt lat="45.05945428224678" lon="9.915228333678659"><ele>43.0</ele><time>2026-04-25T12:59:31Z</time></trkpt><trkpt lat="45.05953233500968" lon="9.915185644779266"><ele>43.0</ele><time>2026-04-25T12:59:32Z</time></trkpt><trkpt lat="45.0596100877909" lon="9.915153815332951"><ele>43.0</ele><time>2026-04-25T12:59:33Z</time></trkpt><trkpt lat="45.05968746305894" lon="9.915136631452839"><ele>43.0</ele><time>2026-04-25T12:59:34Z</time></trkpt><trkpt lat="45.05976896574547" lon="9.915121693602199"><ele>43.0</ele><time>2026-04-25T12:59:35Z</time></trkpt><trkpt lat="45.05984431796533" lon="9.915098512886305"><ele>43.0</ele><time>2026-04-25T12:59:36Z</time></trkpt><trkpt lat="45.05992119010591" lon="9.915084050031112"><ele>43.0</ele><time>2026-04-25T12:59:37Z</time></trkpt><trkpt lat="45.059997437119335" lon="9.91506542051975"><ele>43.0</ele><time>2026-04-25T12:59:38Z</time></trkpt><trkpt lat="45.06007093468372" lon="9.915044081772288"><ele>43.0</ele><time>2026-04-25T12:59:39Z</time></trkpt><trkpt lat="45.060147803617944" lon="9.915017631194424"><ele>43.0</ele><time>2026-04-25T12:59:40Z</time></trkpt><trkpt lat="45.060223664712986" lon="9.914998625221079"><ele>43.0</ele><time>2026-04-25T12:59:41Z</time></trkpt><trkpt lat="45.06029902092772" lon="9.914981991301593"><ele>43.00000000000001</ele><time>2026-04-25T12:59:42Z</time></trkpt><trkpt lat="45.060371382952205" lon="9.914966153573536"><ele>43.0</ele><time>2026-04-25T12:59:43Z</time></trkpt><trkpt lat="45.060443983426275" lon="9.914948804751175"><ele>43.0</ele><time>2026-04-25T12:59:44Z</time></trkpt><trkpt lat="45.060517276264285" lon="9.914932574759225"><ele>43.0</ele><time>2026-04-25T12:59:45Z</time></trkpt><trkpt lat="45.06059087739233" lon="9.91492090356258"><ele>43.0</ele><time>2026-04-25T12:59:46Z</time></trkpt><trkpt lat="45.06066437018976" lon="9.914920062094817"><ele>43.00000000000001</ele><time>2026-04-25T12:59:47Z</time></trkpt><trkpt lat="45.06074228117534" lon="9.91492165080027"><ele>43.0</ele><time>2026-04-25T12:59:48Z</time></trkpt><trkpt lat="45.0608205234683" lon="9.914928137026273"><ele>43.0</ele><time>2026-04-25T12:59:49Z</time></trkpt><trkpt lat="45.06089981555357" lon="9.914952120612767"><ele>43.0</ele><time>2026-04-25T12:59:50Z</time></trkpt><trkpt lat="45.060978783557225" lon="9.914986638525358"><ele>43.0</ele><time>2026-04-25T12:59:51Z</time></trkpt><trkpt lat="45.06105735171721" lon="9.915030253607425"><ele>43.0</ele><time>2026-04-25T12:59:52Z</time></trkpt><trkpt lat="45.0611304155406" lon="9.915085499318298"><ele>43.0</ele><time>2026-04-25T12:59:53Z</time></trkpt><trkpt lat="45.061202346069855" lon="9.91515016765078"><ele>43.0</ele><time>2026-04-25T12:59:54Z</time></trkpt><trkpt lat="45.061268634931736" lon="9.915223649294111"><ele>43.0</ele><time>2026-04-25T12:59:55Z</time></trkpt><trkpt lat="45.061330575445545" lon="9.915308307384336"><ele>43.0</ele><time>2026-04-25T12:59:56Z</time></trkpt><trkpt lat="45.06138828816258" lon="9.915397296388434"><ele>43.0</ele><time>2026-04-25T12:59:57Z</time></trkpt><trkpt lat="45.061449226849895" lon="9.915484240914049"><ele>43.0</ele><time>2026-04-25T12:59:58Z</time></trkpt><trkpt lat="45.06151303113604" lon="9.915576327811761"><ele>43.0</ele><time>2026-04-25T12:59:59Z</time></trkpt><trkpt lat="45.061578052341844" lon="9.915666106165823"><ele>43.0</ele><time>2026-04-25T13:00:00Z</time></trkpt><trkpt lat="45.06164437376769" lon="9.915759751785213"><ele>42.4</ele><time>2026-04-25T13:00:01Z</time></trkpt><trkpt lat="45.06170730579477" lon="9.915854218893696"><ele>41.8</ele><time>2026-04-25T13:00:02Z</time></trkpt><trkpt lat="45.06177367002658" lon="9.915954415824434"><ele>41.2</ele><time>2026-04-25T13:00:03Z</time></trkpt><trkpt lat="45.06183749781962" lon="9.916046827446946"><ele>40.6</ele><time>2026-04-25T13:00:03.999Z</time></trkpt><trkpt lat="45.061906580623145" lon="9.916142120763451"><ele>40.0</ele><time>2026-04-25T13:00:04.999Z</time></trkpt><trkpt lat="45.061974663738916" lon="9.916237798828584"><ele>40.0</ele><time>2026-04-25T13:00:05.999Z</time></trkpt><trkpt lat="45.06204227002071" lon="9.916333268970206"><ele>40.0</ele><time>2026-04-25T13:00:06.999Z</time></trkpt><trkpt lat="45.06210876790528" lon="9.9164280154883"><ele>40.0</ele><time>2026-04-25T13:00:07.999Z</time></trkpt><trkpt lat="45.0621779753258" lon="9.91652282549542"><ele>40.0</ele><time>2026-04-25T13:00:08.999Z</time></trkpt><trkpt lat="45.062246378460245" lon="9.916616047869692"><ele>40.0</ele><time>2026-04-25T13:00:09.999Z</time></trkpt><trkpt lat="45.06231556569942" lon="9.916706356125552"><ele>40.0</ele><time>2026-04-25T13:00:10.999Z</time></trkpt><trkpt lat="45.062389876970045" lon="9.916784352736075"><ele>40.0</ele><time>2026-04-25T13:00:11.999Z</time></trkpt><trkpt lat="45.06246857217714" lon="9.916846141259686"><ele>40.0</ele><time>2026-04-25T13:00:12.999Z</time></trkpt><trkpt lat="45.06255723243957" lon="9.916881383078445"><ele>40.0</ele><time>2026-04-25T13:00:13.999Z</time></trkpt><trkpt lat="45.06265077362936" lon="9.916906512156364"><ele>40.0</ele><time>2026-04-25T13:00:14.999Z</time></trkpt><trkpt lat="45.06274414331853" lon="9.9169051808558"><ele>40.2</ele><time>2026-04-25T13:00:15.999Z</time></trkpt><trkpt lat="45.06283681704461" lon="9.916889625286046"><ele>40.4</ele><time>2026-04-25T13:00:16.999Z</time></trkpt><trkpt lat="45.062929116171986" lon="9.916871073092093"><ele>40.599999999999994</ele><time>2026-04-25T13:00:17.999Z</time></trkpt><trkpt lat="45.06302080088727" lon="9.9168458811558"><ele>40.8</ele><time>2026-04-25T13:00:18.999Z</time></trkpt><trkpt lat="45.063109035514714" lon="9.916808656802386"><ele>41.0</ele><time>2026-04-25T13:00:19.999Z</time></trkpt><trkpt lat="45.06319553399408" lon="9.916769878155359"><ele>40.8</ele><time>2026-04-25T13:00:20.999Z</time></trkpt><trkpt lat="45.06328483544198" lon="9.916738349758765"><ele>40.599999999999994</ele><time>2026-04-25T13:00:21.999Z</time></trkpt><trkpt lat="45.06337297847083" lon="9.916722156008134"><ele>40.4</ele><time>2026-04-25T13:00:22.999Z</time></trkpt><trkpt lat="45.063463637655715" lon="9.916719909694333"><ele>40.2</ele><time>2026-04-25T13:00:23.999Z</time></trkpt><trkpt lat="45.06355440888876" lon="9.91672336345288"><ele>40.0</ele><time>2026-04-25T13:00:24.999Z</time></trkpt><trkpt lat="45.063643311804576" lon="9.916732689382574"><ele>40.0</ele><time>2026-04-25T13:00:25.999Z</time></trkpt><trkpt lat="45.06373146964698" lon="9.9167482257946"><ele>40.0</ele><time>2026-04-25T13:00:26.999Z</time></trkpt><trkpt lat="45.063818747228915" lon="9.916761628105363"><ele>40.0</ele><time>2026-04-25T13:00:27.999Z</time></trkpt><trkpt lat="45.06390489136479" lon="9.916769375173606"><ele>40.0</ele><time>2026-04-25T13:00:28.999Z</time></trkpt><trkpt lat="45.063991448493155" lon="9.916779884611374"><ele>40.0</ele><time>2026-04-25T13:00:29.999Z</time></trkpt><trkpt lat="45.064081062626066" lon="9.916787921112585"><ele>40.0</ele><time>2026-04-25T13:00:30.999Z</time></trkpt><trkpt lat="45.064168537226884" lon="9.916801060997729"><ele>40.0</ele><time>2026-04-25T13:00:31.999Z</time></trkpt><trkpt lat="45.06425534366771" lon="9.91681382533849"><ele>40.0</ele><time>2026-04-25T13:00:32.999Z</time></trkpt><trkpt lat="45.06434161882601" lon="9.916825010335556"><ele>40.0</ele><time>2026-04-25T13:00:33.999Z</time></trkpt><trkpt lat="45.06442965380416" lon="9.916831642410475"><ele>40.0</ele><time>2026-04-25T13:00:34.999Z</time></trkpt><trkpt lat="45.06451585268624" lon="9.91684187994912"><ele>40.0</ele><time>2026-04-25T13:00:35.999Z</time></trkpt><trkpt lat="45.064602306088375" lon="9.916853257958756"><ele>40.0</ele><time>2026-04-25T13:00:36.999Z</time></trkpt><trkpt lat="45.06469053327467" lon="9.916866846453162"><ele>40.0</ele><time>2026-04-25T13:00:37.999Z</time></trkpt><trkpt lat="45.0647772172622" lon="9.91688114978852"><ele>40.0</ele><time>2026-04-25T13:00:38.999Z</time></trkpt><trkpt lat="45.06486250655111" lon="9.916890412851172"><ele>40.0</ele><time>2026-04-25T13:00:39.999Z</time></trkpt><trkpt lat="45.06494864777982" lon="9.916897668695928"><ele>40.0</ele><time>2026-04-25T13:00:40.999Z</time></trkpt><trkpt lat="45.06503744215383" lon="9.916904426124825"><ele>40.0</ele><time>2026-04-25T13:00:41.999Z</time></trkpt><trkpt lat="45.06512295734452" lon="9.916913316139276"><ele>40.0</ele><time>2026-04-25T13:00:42.999Z</time></trkpt><trkpt lat="45.06520830794168" lon="9.916919898352123"><ele>39.66666666666667</ele><time>2026-04-25T13:00:43.999Z</time></trkpt><trkpt lat="45.06529387782464" lon="9.916930570000353"><ele>39.333333333333336</ele><time>2026-04-25T13:00:44.999Z</time></trkpt><trkpt lat="45.0653777047237" lon="9.91694460609037"><ele>39.0</ele><time>2026-04-25T13:00:45.999Z</time></trkpt><trkpt lat="45.065465100485184" lon="9.916955078814995"><ele>38.666666666666664</ele><time>2026-04-25T13:00:46.999Z</time></trkpt><trkpt lat="45.06555102968081" lon="9.916956838965321"><ele>38.33333333333333</ele><time>2026-04-25T13:00:47.999Z</time></trkpt><trkpt lat="45.06563494527943" lon="9.916962551569673"><ele>38.0</ele><time>2026-04-25T13:00:48.999Z</time></trkpt><trkpt lat="45.065719277210896" lon="9.91696034165154"><ele>38.166666666666664</ele><time>2026-04-25T13:00:49.999Z</time></trkpt><trkpt lat="45.06580364124212" lon="9.916946939990147"><ele>38.33333333333333</ele><time>2026-04-25T13:00:50.999Z</time></trkpt><trkpt lat="45.06588818892308" lon="9.91691863509741"><ele>38.5</ele><time>2026-04-25T13:00:51.999Z</time></trkpt><trkpt lat="45.065969124609516" lon="9.916880567288135"><ele>38.666666666666664</ele><time>2026-04-25T13:00:52.999Z</time></trkpt><trkpt lat="45.06604745196616" lon="9.91683010367247"><ele>38.833333333333336</ele><time>2026-04-25T13:00:53.999Z</time></trkpt><trkpt lat="45.06612210395511" lon="9.916769141861536"><ele>39.0</ele><time>2026-04-25T13:00:54.999Z</time></trkpt><trkpt lat="45.06619682016348" lon="9.916705147930845"><ele>39.0</ele><time>2026-04-25T13:00:56Z</time></trkpt><trkpt lat="45.06626931276815" lon="9.916641619719485"><ele>39.0</ele><time>2026-04-25T13:00:57Z</time></trkpt><trkpt lat="45.06634130112773" lon="9.916574957283855"><ele>39.0</ele><time>2026-04-25T13:00:58Z</time></trkpt><trkpt lat="45.0664110796564" lon="9.916504831253334"><ele>39.0</ele><time>2026-04-25T13:00:59Z</time></trkpt><trkpt lat="45.06647927214468" lon="9.916428250545376"><ele>39.0</ele><time>2026-04-25T13:01:00Z</time></trkpt><trkpt lat="45.06654351786712" lon="9.916344387499397"><ele>39.0</ele><time>2026-04-25T13:01:01Z</time></trkpt><trkpt lat="45.066608081510324" lon="9.91625355366152"><ele>39.0</ele><time>2026-04-25T13:01:02Z</time></trkpt><trkpt lat="45.06666762321629" lon="9.916169534372637"><ele>39.0</ele><time>2026-04-25T13:01:03Z</time></trkpt><trkpt lat="45.06673210363918" lon="9.916083592270674"><ele>39.0</ele><time>2026-04-25T13:01:04Z</time></trkpt><trkpt lat="45.066803954781136" lon="9.916013164589451"><ele>39.0</ele><time>2026-04-25T13:01:05Z</time></trkpt><trkpt lat="45.06688472768458" lon="9.915965482823111"><ele>39.0</ele><time>2026-04-25T13:01:06Z</time></trkpt><trkpt lat="45.0669721744527" lon="9.915944414826628"><ele>39.0</ele><time>2026-04-25T13:01:07Z</time></trkpt><trkpt lat="45.06706059102808" lon="9.915940428089428"><ele>39.0</ele><time>2026-04-25T13:01:08Z</time></trkpt><trkpt lat="45.06714774326849" lon="9.915941783316876"><ele>39.0</ele><time>2026-04-25T13:01:09Z</time></trkpt><trkpt lat="45.06723246650459" lon="9.915937742018032"><ele>39.0</ele><time>2026-04-25T13:01:10Z</time></trkpt><trkpt lat="45.06731866742308" lon="9.915926488480997"><ele>39.0</ele><time>2026-04-25T13:01:11Z</time></trkpt><trkpt lat="45.06740457274292" lon="9.915915872621335"><ele>39.0</ele><time>2026-04-25T13:01:12Z</time></trkpt><trkpt lat="45.06749204198879" lon="9.915907460822329"><ele>39.0</ele><time>2026-04-25T13:01:13Z</time></trkpt><trkpt lat="45.06757882688742" lon="9.915898428293154"><ele>38.666666666666664</ele><time>2026-04-25T13:01:14Z</time></trkpt><trkpt lat="45.06766742268364" lon="9.915891927579155"><ele>38.333333333333336</ele><time>2026-04-25T13:01:15Z</time></trkpt><trkpt lat="45.067756370032996" lon="9.915881903875338"><ele>38.0</ele><time>2026-04-25T13:01:16Z</time></trkpt><trkpt lat="45.06784571826256" lon="9.915870897052638"><ele>37.66666666666667</ele><time>2026-04-25T13:01:17Z</time></trkpt><trkpt lat="45.06793551547025" lon="9.915859609172408"><ele>37.333333333333336</ele><time>2026-04-25T13:01:18Z</time></trkpt><trkpt lat="45.06802374882349" lon="9.915851561698293"><ele>37.0</ele><time>2026-04-25T13:01:19Z</time></trkpt><trkpt lat="45.068114552989705" lon="9.915843679305153"><ele>37.0</ele><time>2026-04-25T13:01:20Z</time></trkpt><trkpt lat="45.068204442962966" lon="9.915837246346845"><ele>37.0</ele><time>2026-04-25T13:01:21Z</time></trkpt><trkpt lat="45.06829234810551" lon="9.91583451404577"><ele>37.0</ele><time>2026-04-25T13:01:22Z</time></trkpt><trkpt lat="45.06838214501662" lon="9.91583854981883"><ele>37.0</ele><time>2026-04-25T13:01:23Z</time></trkpt><trkpt lat="45.0684693768279" lon="9.915852037346761"><ele>37.0</ele><time>2026-04-25T13:01:24Z</time></trkpt><trkpt lat="45.06855725881608" lon="9.915867887124751"><ele>37.0</ele><time>2026-04-25T13:01:25Z</time></trkpt><trkpt lat="45.068643887137924" lon="9.915883855146989"><ele>37.0</ele><time>2026-04-25T13:01:26Z</time></trkpt><trkpt lat="45.068733403891855" lon="9.91589699418421"><ele>37.0</ele><time>2026-04-25T13:01:27Z</time></trkpt><trkpt lat="45.0688215010001" lon="9.915909446190309"><ele>37.0</ele><time>2026-04-25T13:01:28Z</time></trkpt><trkpt lat="45.06890993947463" lon="9.915923292321741"><ele>37.0</ele><time>2026-04-25T13:01:29Z</time></trkpt><trkpt lat="45.068998140215534" lon="9.915937455129239"><ele>37.0</ele><time>2026-04-25T13:01:30Z</time></trkpt><trkpt lat="45.06908769741252" lon="9.91594904338416"><ele>37.0</ele><time>2026-04-25T13:01:31Z</time></trkpt><trkpt lat="45.06917634247103" lon="9.915961887412104"><ele>37.0</ele><time>2026-04-25T13:01:32Z</time></trkpt><trkpt lat="45.06926587825821" lon="9.915976954308018"><ele>37.0</ele><time>2026-04-25T13:01:33Z</time></trkpt><trkpt lat="45.06935444000872" lon="9.915990167604827"><ele>37.0</ele><time>2026-04-25T13:01:34Z</time></trkpt><trkpt lat="45.0694421898863" lon="9.916004936328696"><ele>37.0</ele><time>2026-04-25T13:01:35Z</time></trkpt><trkpt lat="45.06952924269881" lon="9.916018826605827"><ele>37.0</ele><time>2026-04-25T13:01:36Z</time></trkpt><trkpt lat="45.06961838967406" lon="9.916031027685479"><ele>37.0</ele><time>2026-04-25T13:01:37Z</time></trkpt><trkpt lat="45.06970614591586" lon="9.916039136287798"><ele>37.0</ele><time>2026-04-25T13:01:38Z</time></trkpt><trkpt lat="45.069797336047706" lon="9.91604114139132"><ele>37.0</ele><time>2026-04-25T13:01:39Z</time></trkpt><trkpt lat="45.06988498870881" lon="9.91604047272695"><ele>37.0</ele><time>2026-04-25T13:01:40Z</time></trkpt><trkpt lat="45.069973919279256" lon="9.916043581351982"><ele>37.0</ele><time>2026-04-25T13:01:41Z</time></trkpt><trkpt lat="45.07006033468079" lon="9.916036356456557"><ele>37.0</ele><time>2026-04-25T13:01:42Z</time></trkpt><trkpt lat="45.07014785446997" lon="9.91601113374711"><ele>37.0</ele><time>2026-04-25T13:01:43Z</time></trkpt><trkpt lat="45.070227105886765" lon="9.915962233924049"><ele>37.833333333333336</ele><time>2026-04-25T13:01:44Z</time></trkpt><trkpt lat="45.07028966986132" lon="9.91587005258578"><ele>38.66666666666667</ele><time>2026-04-25T13:01:45Z</time></trkpt><trkpt lat="45.07032878329976" lon="9.915751057475516"><ele>39.5</ele><time>2026-04-25T13:01:46Z</time></trkpt><trkpt lat="45.070349037807674" lon="9.915628476857103"><ele>40.333333333333336</ele><time>2026-04-25T13:01:47Z</time></trkpt><trkpt lat="45.0703634445047" lon="9.91551355628033"><ele>41.166666666666664</ele><time>2026-04-25T13:01:48Z</time></trkpt><trkpt lat="45.07037772335047" lon="9.915405351470913"><ele>42.0</ele><time>2026-04-25T13:01:49Z</time></trkpt><trkpt lat="45.07040980264958" lon="9.915311060518652"><ele>42.0</ele><time>2026-04-25T13:01:50Z</time></trkpt><trkpt lat="45.07055938025736" lon="9.915246510952448"><ele>42.0</ele><time>2026-04-25T13:01:52Z</time></trkpt><trkpt lat="45.07063838486926" lon="9.915243980142751"><ele>42.0</ele><time>2026-04-25T13:01:53Z</time></trkpt><trkpt lat="45.070716100726806" lon="9.91523500508668"><ele>42.0</ele><time>2026-04-25T13:01:54Z</time></trkpt><trkpt lat="45.07079581837952" lon="9.91522243184811"><ele>42.0</ele><time>2026-04-25T13:01:55Z</time></trkpt><trkpt lat="45.07087809762179" lon="9.915218760374582"><ele>41.833333333333336</ele><time>2026-04-25T13:01:56Z</time></trkpt><trkpt lat="45.070961809327116" lon="9.915209183627246"><ele>41.666666666666664</ele><time>2026-04-25T13:01:57Z</time></trkpt><trkpt lat="45.07104473162658" lon="9.91519500911772"><ele>41.5</ele><time>2026-04-25T13:01:58Z</time></trkpt><trkpt lat="45.0711280376863" lon="9.91518708711968"><ele>41.33333333333333</ele><time>2026-04-25T13:01:59Z</time></trkpt><trkpt lat="45.07121229410424" lon="9.915178557112299"><ele>41.166666666666664</ele><time>2026-04-25T13:02:00Z</time></trkpt><trkpt lat="45.07129683099839" lon="9.915167375615052"><ele>41.0</ele><time>2026-04-25T13:02:01Z</time></trkpt><trkpt lat="45.07138088730087" lon="9.915154374613602"><ele>41.0</ele><time>2026-04-25T13:02:02Z</time></trkpt><trkpt lat="45.07146562299791" lon="9.915143605145408"><ele>41.0</ele><time>2026-04-25T13:02:03Z</time></trkpt><trkpt lat="45.07155259215558" lon="9.915131646182761"><ele>41.0</ele><time>2026-04-25T13:02:04Z</time></trkpt><trkpt lat="45.071639481522276" lon="9.915121423268333"><ele>41.0</ele><time>2026-04-25T13:02:05Z</time></trkpt><trkpt lat="45.07172585425159" lon="9.915108784399697"><ele>41.0</ele><time>2026-04-25T13:02:06Z</time></trkpt><trkpt lat="45.0718113524487" lon="9.91509583643262"><ele>41.0</ele><time>2026-04-25T13:02:07Z</time></trkpt><trkpt lat="45.0718967361937" lon="9.91508142632558"><ele>40.666666666666664</ele><time>2026-04-25T13:02:08Z</time></trkpt><trkpt lat="45.07198199858998" lon="9.915068498108063"><ele>40.33333333333333</ele><time>2026-04-25T13:02:09Z</time></trkpt><trkpt lat="45.07206708400712" lon="9.915055769363262"><ele>40.0</ele><time>2026-04-25T13:02:09.999Z</time></trkpt><trkpt lat="45.07215271687827" lon="9.915039444946371"><ele>39.666666666666664</ele><time>2026-04-25T13:02:10.999Z</time></trkpt><trkpt lat="45.07223768748495" lon="9.915023822014286"><ele>39.333333333333336</ele><time>2026-04-25T13:02:11.999Z</time></trkpt><trkpt lat="45.0723223235354" lon="9.915010465456998"><ele>39.0</ele><time>2026-04-25T13:02:12.999Z</time></trkpt><trkpt lat="45.072407580525386" lon="9.91500598866202"><ele>39.0</ele><time>2026-04-25T13:02:13.999Z</time></trkpt><trkpt lat="45.072492860604356" lon="9.91499592591494"><ele>39.0</ele><time>2026-04-25T13:02:14.999Z</time></trkpt><trkpt lat="45.07257955588453" lon="9.914980205238324"><ele>39.0</ele><time>2026-04-25T13:02:15.999Z</time></trkpt><trkpt lat="45.0726648244355" lon="9.91496968290921"><ele>39.0</ele><time>2026-04-25T13:02:16.999Z</time></trkpt><trkpt lat="45.07275022864016" lon="9.914957991543693"><ele>39.0</ele><time>2026-04-25T13:02:17.999Z</time></trkpt><trkpt lat="45.07283489981435" lon="9.914945879060507"><ele>39.0</ele><time>2026-04-25T13:02:18.999Z</time></trkpt><trkpt lat="45.072919844626895" lon="9.914935651622619"><ele>39.0</ele><time>2026-04-25T13:02:19.999Z</time></trkpt><trkpt lat="45.073004037611554" lon="9.914925927309985"><ele>39.0</ele><time>2026-04-25T13:02:20.999Z</time></trkpt><trkpt lat="45.073089141670756" lon="9.914914662199386"><ele>39.0</ele><time>2026-04-25T13:02:21.999Z</time></trkpt><trkpt lat="45.073173600460684" lon="9.914901285372762"><ele>39.0</ele><time>2026-04-25T13:02:22.999Z</time></trkpt><trkpt lat="45.07325789986811" lon="9.914888062577635"><ele>39.0</ele><time>2026-04-25T13:02:23.999Z</time></trkpt><trkpt lat="45.07334269758979" lon="9.9148771372565"><ele>39.0</ele><time>2026-04-25T13:02:24.999Z</time></trkpt><trkpt lat="45.073427304106964" lon="9.914871338808439"><ele>39.166666666666664</ele><time>2026-04-25T13:02:25.999Z</time></trkpt><trkpt lat="45.073512481332074" lon="9.914860246165887"><ele>39.333333333333336</ele><time>2026-04-25T13:02:26.999Z</time></trkpt><trkpt lat="45.07359829733639" lon="9.914847337073434"><ele>39.5</ele><time>2026-04-25T13:02:27.999Z</time></trkpt><trkpt lat="45.073681822270544" lon="9.914833562897158"><ele>39.66666666666667</ele><time>2026-04-25T13:02:28.999Z</time></trkpt><trkpt lat="45.07376618311783" lon="9.914822174280323"><ele>39.833333333333336</ele><time>2026-04-25T13:02:29.999Z</time></trkpt><trkpt lat="45.07384934113287" lon="9.914809354735633"><ele>40.0</ele><time>2026-04-25T13:02:30.999Z</time></trkpt><trkpt lat="45.07393215914304" lon="9.91479542326211"><ele>40.0</ele><time>2026-04-25T13:02:31.999Z</time></trkpt><trkpt lat="45.07401450234954" lon="9.914784560814947"><ele>40.0</ele><time>2026-04-25T13:02:32.999Z</time></trkpt><trkpt lat="45.074097432882496" lon="9.914773160688064"><ele>40.0</ele><time>2026-04-25T13:02:33.999Z</time></trkpt><trkpt lat="45.07418051419865" lon="9.914763813537924"><ele>40.0</ele><time>2026-04-25T13:02:34.999Z</time></trkpt><trkpt lat="45.074264907851564" lon="9.914758919061436"><ele>40.0</ele><time>2026-04-25T13:02:35.999Z</time></trkpt><trkpt lat="45.07434902531189" lon="9.914748366678154"><ele>40.0</ele><time>2026-04-25T13:02:36.999Z</time></trkpt><trkpt lat="45.074433064001504" lon="9.914739428805499"><ele>39.833333333333336</ele><time>2026-04-25T13:02:37.999Z</time></trkpt><trkpt lat="45.07451799945172" lon="9.914727248688541"><ele>39.66666666666667</ele><time>2026-04-25T13:02:38.999Z</time></trkpt><trkpt lat="45.074603631467575" lon="9.914718014078067"><ele>39.5</ele><time>2026-04-25T13:02:39.999Z</time></trkpt><trkpt lat="45.074688009565556" lon="9.914709915849846"><ele>39.333333333333336</ele><time>2026-04-25T13:02:40.999Z</time></trkpt><trkpt lat="45.07477215635651" lon="9.914700847337537"><ele>39.166666666666664</ele><time>2026-04-25T13:02:41.999Z</time></trkpt><trkpt lat="45.07485699057231" lon="9.914697846621573"><ele>39.0</ele><time>2026-04-25T13:02:42.999Z</time></trkpt><trkpt lat="45.074940806023825" lon="9.914696323556454"><ele>39.333333333333336</ele><time>2026-04-25T13:02:43.999Z</time></trkpt><trkpt lat="45.0750259975042" lon="9.914697147073419"><ele>39.666666666666664</ele><time>2026-04-25T13:02:44.999Z</time></trkpt><trkpt lat="45.07510870345223" lon="9.914701041677382"><ele>40.0</ele><time>2026-04-25T13:02:45.999Z</time></trkpt><trkpt lat="45.0751946586107" lon="9.914707437567897"><ele>40.33333333333333</ele><time>2026-04-25T13:02:46.999Z</time></trkpt><trkpt lat="45.07527843281367" lon="9.914717647290798"><ele>40.666666666666664</ele><time>2026-04-25T13:02:47.999Z</time></trkpt><trkpt lat="45.075365597206336" lon="9.914724966481817"><ele>41.0</ele><time>2026-04-25T13:02:48.999Z</time></trkpt><trkpt lat="45.075451199086324" lon="9.914728303784349"><ele>41.0</ele><time>2026-04-25T13:02:49.999Z</time></trkpt><trkpt lat="45.075534933917346" lon="9.914741546719467"><ele>41.0</ele><time>2026-04-25T13:02:50.999Z</time></trkpt><trkpt lat="45.07561596151229" lon="9.914759863815304"><ele>41.0</ele><time>2026-04-25T13:02:51.999Z</time></trkpt><trkpt lat="45.07569993558381" lon="9.914779142347966"><ele>41.0</ele><time>2026-04-25T13:02:52.999Z</time></trkpt><trkpt lat="45.07578253632376" lon="9.914799826609922"><ele>41.0</ele><time>2026-04-25T13:02:53.999Z</time></trkpt><trkpt lat="45.075865425508916" lon="9.914827981533286"><ele>41.0</ele><time>2026-04-25T13:02:54.999Z</time></trkpt><trkpt lat="45.0759468945478" lon="9.914854422974578"><ele>41.0</ele><time>2026-04-25T13:02:55.999Z</time></trkpt><trkpt lat="45.07602993828742" lon="9.91488277691334"><ele>41.0</ele><time>2026-04-25T13:02:56.999Z</time></trkpt><trkpt lat="45.07610939190991" lon="9.914915020076085"><ele>41.0</ele><time>2026-04-25T13:02:57.999Z</time></trkpt><trkpt lat="45.076190939060446" lon="9.914950193483506"><ele>41.0</ele><time>2026-04-25T13:02:58.999Z</time></trkpt><trkpt lat="45.07627290151342" lon="9.914982722332859"><ele>41.0</ele><time>2026-04-25T13:02:59.999Z</time></trkpt><trkpt lat="45.07635525978243" lon="9.915017627816018"><ele>41.0</ele><time>2026-04-25T13:03:00.999Z</time></trkpt><trkpt lat="45.076436605848144" lon="9.915051913676896"><ele>40.83333333333333</ele><time>2026-04-25T13:03:02Z</time></trkpt><trkpt lat="45.076518524859594" lon="9.91508693584976"><ele>40.666666666666664</ele><time>2026-04-25T13:03:03.001Z</time></trkpt><trkpt lat="45.07659999409921" lon="9.915119778385169"><ele>40.5</ele><time>2026-04-25T13:03:04Z</time></trkpt><trkpt lat="45.07668223109056" lon="9.915155382021629"><ele>40.333333333333336</ele><time>2026-04-25T13:03:05Z</time></trkpt><trkpt lat="45.07676399656833" lon="9.915188469441137"><ele>40.16666666666667</ele><time>2026-04-25T13:03:06Z</time></trkpt><trkpt lat="45.07684617267717" lon="9.915224425909239"><ele>40.0</ele><time>2026-04-25T13:03:07Z</time></trkpt><trkpt lat="45.07692592139516" lon="9.915261171748478"><ele>40.0</ele><time>2026-04-25T13:03:08Z</time></trkpt><trkpt lat="45.077006344250734" lon="9.915295934786766"><ele>40.0</ele><time>2026-04-25T13:03:09Z</time></trkpt><trkpt lat="45.07708640775752" lon="9.915331262352442"><ele>40.0</ele><time>2026-04-25T13:03:10Z</time></trkpt><trkpt lat="45.07716683627673" lon="9.915364987632843"><ele>40.0</ele><time>2026-04-25T13:03:11Z</time></trkpt><trkpt lat="45.077246354470226" lon="9.915398606779702"><ele>40.0</ele><time>2026-04-25T13:03:12Z</time></trkpt><trkpt lat="45.077325922453" lon="9.915433234252047"><ele>40.0</ele><time>2026-04-25T13:03:13Z</time></trkpt><trkpt lat="45.07740506509835" lon="9.91546685858932"><ele>39.66666666666667</ele><time>2026-04-25T13:03:14Z</time></trkpt><trkpt lat="45.07748129664525" lon="9.915498704750348"><ele>39.333333333333336</ele><time>2026-04-25T13:03:15Z</time></trkpt><trkpt lat="45.07756096914419" lon="9.915532007505574"><ele>39.0</ele><time>2026-04-25T13:03:16Z</time></trkpt><trkpt lat="45.07764067236184" lon="9.915567367341348"><ele>38.666666666666664</ele><time>2026-04-25T13:03:17Z</time></trkpt><trkpt lat="45.077720413738646" lon="9.91559573752754"><ele>38.33333333333333</ele><time>2026-04-25T13:03:18Z</time></trkpt><trkpt lat="45.07780224391119" lon="9.91562314152843"><ele>38.0</ele><time>2026-04-25T13:03:19Z</time></trkpt><trkpt lat="45.07788234402185" lon="9.915656051515063"><ele>38.0</ele><time>2026-04-25T13:03:20Z</time></trkpt><trkpt lat="45.07796231807131" lon="9.915693141107628"><ele>38.0</ele><time>2026-04-25T13:03:21Z</time></trkpt><trkpt lat="45.0780413873624" lon="9.91572610897039"><ele>38.0</ele><time>2026-04-25T13:03:22Z</time></trkpt><trkpt lat="45.07812077540739" lon="9.915757870926218"><ele>38.0</ele><time>2026-04-25T13:03:23Z</time></trkpt><trkpt lat="45.07820074391213" lon="9.915792349968818"><ele>38.0</ele><time>2026-04-25T13:03:24Z</time></trkpt><trkpt lat="45.078279961170246" lon="9.915829063113287"><ele>38.0</ele><time>2026-04-25T13:03:25Z</time></trkpt><trkpt lat="45.07835991249189" lon="9.915864533608692"><ele>38.0</ele><time>2026-04-25T13:03:26Z</time></trkpt><trkpt lat="45.07844100675904" lon="9.91590082258335"><ele>38.0</ele><time>2026-04-25T13:03:27Z</time></trkpt><trkpt lat="45.07852082336212" lon="9.915936758697981"><ele>38.0</ele><time>2026-04-25T13:03:28Z</time></trkpt><trkpt lat="45.07860283487195" lon="9.915968558779827"><ele>38.0</ele><time>2026-04-25T13:03:29Z</time></trkpt><trkpt lat="45.07868372502702" lon="9.916003473814447"><ele>38.0</ele><time>2026-04-25T13:03:30Z</time></trkpt><trkpt lat="45.07876491924392" lon="9.91603917354637"><ele>38.0</ele><time>2026-04-25T13:03:31Z</time></trkpt><trkpt lat="45.0788466753563" lon="9.916072282675948"><ele>38.0</ele><time>2026-04-25T13:03:32Z</time></trkpt><trkpt lat="45.07892777984056" lon="9.916104887712065"><ele>38.0</ele><time>2026-04-25T13:03:33Z</time></trkpt><trkpt lat="45.07900887702679" lon="9.916141009672717"><ele>38.0</ele><time>2026-04-25T13:03:34Z</time></trkpt><trkpt lat="45.07909032068943" lon="9.916175667503389"><ele>38.0</ele><time>2026-04-25T13:03:35Z</time></trkpt><trkpt lat="45.0791712616012" lon="9.916208974454788"><ele>38.0</ele><time>2026-04-25T13:03:36Z</time></trkpt><trkpt lat="45.07925378263245" lon="9.916244656406903"><ele>38.0</ele><time>2026-04-25T13:03:37Z</time></trkpt><trkpt lat="45.07933343894735" lon="9.916278835515277"><ele>38.166666666666664</ele><time>2026-04-25T13:03:38Z</time></trkpt><trkpt lat="45.07941384172283" lon="9.916314106899401"><ele>38.33333333333333</ele><time>2026-04-25T13:03:39Z</time></trkpt><trkpt lat="45.07949471898997" lon="9.916347015734729"><ele>38.5</ele><time>2026-04-25T13:03:40Z</time></trkpt><trkpt lat="45.07957488461489" lon="9.916383188142293"><ele>38.666666666666664</ele><time>2026-04-25T13:03:41Z</time></trkpt><trkpt lat="45.07965708986291" lon="9.916420593466754"><ele>38.833333333333336</ele><time>2026-04-25T13:03:42Z</time></trkpt><trkpt lat="45.0797373606556" lon="9.916458058953465"><ele>39.0</ele><time>2026-04-25T13:03:43Z</time></trkpt><trkpt lat="45.07981853196409" lon="9.916494069307218"><ele>39.0</ele><time>2026-04-25T13:03:44Z</time></trkpt><trkpt lat="45.079900580983995" lon="9.916528891130984"><ele>39.0</ele><time>2026-04-25T13:03:45Z</time></trkpt><trkpt lat="45.079980638680055" lon="9.916568074670963"><ele>39.0</ele><time>2026-04-25T13:03:46Z</time></trkpt><trkpt lat="45.080060889140135" lon="9.916605827817591"><ele>39.0</ele><time>2026-04-25T13:03:47Z</time></trkpt><trkpt lat="45.080141359017816" lon="9.916638787980144"><ele>39.0</ele><time>2026-04-25T13:03:48Z</time></trkpt><trkpt lat="45.08022242168112" lon="9.916670743614263"><ele>39.0</ele><time>2026-04-25T13:03:49Z</time></trkpt><trkpt lat="45.080303815305065" lon="9.916701293813988"><ele>39.0</ele><time>2026-04-25T13:03:50Z</time></trkpt><trkpt lat="45.08038403490067" lon="9.916734095665271"><ele>39.0</ele><time>2026-04-25T13:03:51Z</time></trkpt><trkpt lat="45.08046245933833" lon="9.916766808787804"><ele>39.0</ele><time>2026-04-25T13:03:52Z</time></trkpt><trkpt lat="45.08054419285753" lon="9.916801869243715"><ele>39.0</ele><time>2026-04-25T13:03:53Z</time></trkpt><trkpt lat="45.080623384287684" lon="9.916835362839352"><ele>39.0</ele><time>2026-04-25T13:03:54Z</time></trkpt><trkpt lat="45.080704057238314" lon="9.916871765074701"><ele>39.0</ele><time>2026-04-25T13:03:55Z</time></trkpt><trkpt lat="45.08078474500031" lon="9.916907883915455"><ele>39.0</ele><time>2026-04-25T13:03:56Z</time></trkpt><trkpt lat="45.08086605038775" lon="9.916941438486518"><ele>39.0</ele><time>2026-04-25T13:03:57Z</time></trkpt><trkpt lat="45.08094608450216" lon="9.91697524701757"><ele>39.0</ele><time>2026-04-25T13:03:58Z</time></trkpt><trkpt lat="45.08102582383566" lon="9.917009425831983"><ele>39.0</ele><time>2026-04-25T13:03:59Z</time></trkpt><trkpt lat="45.0811060243186" lon="9.917041791806858"><ele>39.0</ele><time>2026-04-25T13:04:00Z</time></trkpt><trkpt lat="45.08118810249837" lon="9.917080170223645"><ele>39.0</ele><time>2026-04-25T13:04:01Z</time></trkpt><trkpt lat="45.08126793814063" lon="9.917115863199472"><ele>39.0</ele><time>2026-04-25T13:04:02Z</time></trkpt><trkpt lat="45.08134966568809" lon="9.91715008786755"><ele>39.0</ele><time>2026-04-25T13:04:03Z</time></trkpt><trkpt lat="45.08142960570946" lon="9.91718750467048"><ele>39.0</ele><time>2026-04-25T13:04:04Z</time></trkpt><trkpt lat="45.08151139729439" lon="9.917223137299708"><ele>39.0</ele><time>2026-04-25T13:04:05Z</time></trkpt><trkpt lat="45.08158980226231" lon="9.917258533929415"><ele>39.0</ele><time>2026-04-25T13:04:06Z</time></trkpt><trkpt lat="45.0816698336882" lon="9.917295221334633"><ele>39.0</ele><time>2026-04-25T13:04:07Z</time></trkpt><trkpt lat="45.08174865326088" lon="9.917330557038973"><ele>39.0</ele><time>2026-04-25T13:04:08Z</time></trkpt><trkpt lat="45.08182873175646" lon="9.91736484771195"><ele>39.0</ele><time>2026-04-25T13:04:09Z</time></trkpt><trkpt lat="45.08190844043933" lon="9.917396481488996"><ele>39.0</ele><time>2026-04-25T13:04:10Z</time></trkpt><trkpt lat="45.08198758513869" lon="9.917432363106677"><ele>39.0</ele><time>2026-04-25T13:04:11Z</time></trkpt><trkpt lat="45.082065111482784" lon="9.917470852642596"><ele>39.0</ele><time>2026-04-25T13:04:12Z</time></trkpt><trkpt lat="45.08214405722279" lon="9.917509764866365"><ele>39.0</ele><time>2026-04-25T13:04:13Z</time></trkpt><trkpt lat="45.08222187434496" lon="9.917550374284911"><ele>39.0</ele><time>2026-04-25T13:04:14Z</time></trkpt><trkpt lat="45.08229838612539" lon="9.91759803716151"><ele>39.0</ele><time>2026-04-25T13:04:14.999Z</time></trkpt><trkpt lat="45.082373315400794" lon="9.917649317668909"><ele>39.0</ele><time>2026-04-25T13:04:15.999Z</time></trkpt><trkpt lat="45.08244888066966" lon="9.91770202690797"><ele>39.0</ele><time>2026-04-25T13:04:16.999Z</time></trkpt><trkpt lat="45.08252424006233" lon="9.917754155826097"><ele>39.0</ele><time>2026-04-25T13:04:17.999Z</time></trkpt><trkpt lat="45.08259960365241" lon="9.917809460812016"><ele>39.0</ele><time>2026-04-25T13:04:18.999Z</time></trkpt><trkpt lat="45.0826751526783" lon="9.917864795731072"><ele>39.166666666666664</ele><time>2026-04-25T13:04:19.999Z</time></trkpt><trkpt lat="45.08274945465816" lon="9.917916997083038"><ele>39.333333333333336</ele><time>2026-04-25T13:04:20.999Z</time></trkpt><trkpt lat="45.0828233143255" lon="9.917969164955357"><ele>39.5</ele><time>2026-04-25T13:04:21.999Z</time></trkpt><trkpt lat="45.08289519692104" lon="9.918022259372753"><ele>39.66666666666667</ele><time>2026-04-25T13:04:22.999Z</time></trkpt><trkpt lat="45.08296506731846" lon="9.91807702240957"><ele>39.833333333333336</ele><time>2026-04-25T13:04:23.999Z</time></trkpt><trkpt lat="45.08303552528725" lon="9.918126059162734"><ele>40.0</ele><time>2026-04-25T13:04:24.999Z</time></trkpt><trkpt lat="45.083103608559945" lon="9.918171541962366"><ele>40.0</ele><time>2026-04-25T13:04:25.999Z</time></trkpt><trkpt lat="45.08316928221368" lon="9.918216783852113"><ele>40.0</ele><time>2026-04-25T13:04:26.999Z</time></trkpt><trkpt lat="45.08323319107891" lon="9.918267333766211"><ele>40.0</ele><time>2026-04-25T13:04:27.999Z</time></trkpt><trkpt lat="45.083294844363635" lon="9.91832365245744"><ele>40.0</ele><time>2026-04-25T13:04:28.999Z</time></trkpt><trkpt lat="45.083355738857364" lon="9.918371516763886"><ele>40.0</ele><time>2026-04-25T13:04:29.999Z</time></trkpt><trkpt lat="45.08341990261384" lon="9.91841266497384"><ele>40.0</ele><time>2026-04-25T13:04:30.999Z</time></trkpt><trkpt lat="45.08348540851383" lon="9.918454530289205"><ele>40.0</ele><time>2026-04-25T13:04:31.999Z</time></trkpt><trkpt lat="45.083553027965564" lon="9.918503249976323"><ele>40.0</ele><time>2026-04-25T13:04:32.999Z</time></trkpt><trkpt lat="45.08361840929803" lon="9.918553521052418"><ele>40.0</ele><time>2026-04-25T13:04:33.999Z</time></trkpt><trkpt lat="45.08368679807685" lon="9.918603453486282"><ele>40.0</ele><time>2026-04-25T13:04:34.999Z</time></trkpt><trkpt lat="45.08375570295605" lon="9.918651058676446"><ele>40.0</ele><time>2026-04-25T13:04:35.999Z</time></trkpt><trkpt lat="45.08382695249981" lon="9.918700575718916"><ele>40.0</ele><time>2026-04-25T13:04:36.999Z</time></trkpt><trkpt lat="45.083891849086115" lon="9.918743314543638"><ele>40.0</ele><time>2026-04-25T13:04:37.999Z</time></trkpt><trkpt lat="45.08395763414345" lon="9.918787837665379"><ele>40.0</ele><time>2026-04-25T13:04:38.999Z</time></trkpt><trkpt lat="45.08402171440544" lon="9.918838659990248"><ele>40.0</ele><time>2026-04-25T13:04:39.999Z</time></trkpt><trkpt lat="45.08408439943238" lon="9.918889823241239"><ele>40.0</ele><time>2026-04-25T13:04:40.999Z</time></trkpt><trkpt lat="45.084149620608244" lon="9.918937779250799"><ele>40.0</ele><time>2026-04-25T13:04:41.999Z</time></trkpt><trkpt lat="45.084213922304336" lon="9.918986106476325"><ele>40.0</ele><time>2026-04-25T13:04:42.999Z</time></trkpt><trkpt lat="45.08427795326991" lon="9.919031619218059"><ele>40.0</ele><time>2026-04-25T13:04:43.999Z</time></trkpt><trkpt lat="45.08434281318912" lon="9.919080241614937"><ele>40.0</ele><time>2026-04-25T13:04:44.999Z</time></trkpt><trkpt lat="45.08440803278719" lon="9.919127093428372"><ele>40.0</ele><time>2026-04-25T13:04:45.999Z</time></trkpt><trkpt lat="45.08447209511035" lon="9.919174604821423"><ele>40.0</ele><time>2026-04-25T13:04:46.999Z</time></trkpt><trkpt lat="45.08454087308239" lon="9.919221138730038"><ele>40.0</ele><time>2026-04-25T13:04:47.999Z</time></trkpt><trkpt lat="45.084606234446724" lon="9.919272231720416"><ele>40.0</ele><time>2026-04-25T13:04:48.999Z</time></trkpt><trkpt lat="45.08467651297481" lon="9.919318654522893"><ele>40.0</ele><time>2026-04-25T13:04:49.999Z</time></trkpt><trkpt lat="45.084743862329724" lon="9.919366325578288"><ele>40.0</ele><time>2026-04-25T13:04:50.999Z</time></trkpt><trkpt lat="45.08480768716425" lon="9.919414025168011"><ele>40.0</ele><time>2026-04-25T13:04:51.999Z</time></trkpt><trkpt lat="45.08487251758244" lon="9.919464081759548"><ele>40.14285714285714</ele><time>2026-04-25T13:04:52.999Z</time></trkpt><trkpt lat="45.0849385908289" lon="9.919511968363114"><ele>40.285714285714285</ele><time>2026-04-25T13:04:53.999Z</time></trkpt><trkpt lat="45.085003598276835" lon="9.919557161280876"><ele>40.42857142857143</ele><time>2026-04-25T13:04:54.999Z</time></trkpt><trkpt lat="45.08506409843904" lon="9.919602271401942"><ele>40.57142857142857</ele><time>2026-04-25T13:04:55.999Z</time></trkpt><trkpt lat="45.08512607772561" lon="9.919646041264947"><ele>40.714285714285715</ele><time>2026-04-25T13:04:56.999Z</time></trkpt><trkpt lat="45.08518801558826" lon="9.919686246908386"><ele>40.857142857142854</ele><time>2026-04-25T13:04:57.999Z</time></trkpt><trkpt lat="45.085247426495606" lon="9.919727208180326"><ele>41.0</ele><time>2026-04-25T13:04:58.999Z</time></trkpt><trkpt lat="45.08535187575991" lon="9.91981197320354"><ele>41.0</ele><time>2026-04-25T13:05:00.999Z</time></trkpt><trkpt lat="45.08544240682731" lon="9.919842050062933"><ele>41.0</ele><time>2026-04-25T13:05:02.999Z</time></trkpt><trkpt lat="45.085463197582165" lon="9.919947123101277"><ele>41.0</ele><time>2026-04-25T13:05:03.999Z</time></trkpt><trkpt lat="45.08550732523325" lon="9.920087615406976"><ele>41.0</ele><time>2026-04-25T13:05:05.999Z</time></trkpt><trkpt lat="45.085561906841995" lon="9.920239243247526"><ele>41.0</ele><time>2026-04-25T13:05:08Z</time></trkpt><trkpt lat="45.085615716876255" lon="9.920404036050025"><ele>40.857142857142854</ele><time>2026-04-25T13:05:10Z</time></trkpt><trkpt lat="45.08564721730383" lon="9.920488834216014"><ele>40.714285714285715</ele><time>2026-04-25T13:05:11Z</time></trkpt><trkpt lat="45.08567794320751" lon="9.920578251993723"><ele>40.57142857142857</ele><time>2026-04-25T13:05:12Z</time></trkpt><trkpt lat="45.08571034034949" lon="9.92067012741074"><ele>40.42857142857143</ele><time>2026-04-25T13:05:13Z</time></trkpt><trkpt lat="45.085740973147736" lon="9.920761518304348"><ele>40.285714285714285</ele><time>2026-04-25T13:05:14Z</time></trkpt><trkpt lat="45.08577117988226" lon="9.920851946060267"><ele>40.14285714285714</ele><time>2026-04-25T13:05:15Z</time></trkpt><trkpt lat="45.085799481029476" lon="9.920940423702042"><ele>40.0</ele><time>2026-04-25T13:05:16Z</time></trkpt><trkpt lat="45.08582982034831" lon="9.921029890203325"><ele>40.0</ele><time>2026-04-25T13:05:17Z</time></trkpt><trkpt lat="45.08586498679809" lon="9.921123274611409"><ele>40.0</ele><time>2026-04-25T13:05:18Z</time></trkpt><trkpt lat="45.08589921950206" lon="9.92121804481671"><ele>40.0</ele><time>2026-04-25T13:05:19Z</time></trkpt><trkpt lat="45.08593301440062" lon="9.921316029217593"><ele>40.0</ele><time>2026-04-25T13:05:20Z</time></trkpt><trkpt lat="45.085968109217" lon="9.921412472564567"><ele>40.0</ele><time>2026-04-25T13:05:21Z</time></trkpt><trkpt lat="45.08600123147137" lon="9.921510862002986"><ele>40.0</ele><time>2026-04-25T13:05:22Z</time></trkpt><trkpt lat="45.08603637042793" lon="9.921608567591887"><ele>40.0</ele><time>2026-04-25T13:05:23Z</time></trkpt><trkpt lat="45.08607094176584" lon="9.921707860015466"><ele>40.0</ele><time>2026-04-25T13:05:24Z</time></trkpt><trkpt lat="45.0861030071412" lon="9.921807690353486"><ele>40.0</ele><time>2026-04-25T13:05:25Z</time></trkpt><trkpt lat="45.08613708932917" lon="9.921911054759207"><ele>40.0</ele><time>2026-04-25T13:05:26Z</time></trkpt><trkpt lat="45.08617110834705" lon="9.922008714340969"><ele>40.0</ele><time>2026-04-25T13:05:27Z</time></trkpt><trkpt lat="45.08620800575485" lon="9.922107118481346"><ele>40.0</ele><time>2026-04-25T13:05:28Z</time></trkpt><trkpt lat="45.086242402939185" lon="9.922209376334811"><ele>40.16666666666667</ele><time>2026-04-25T13:05:29Z</time></trkpt><trkpt lat="45.08627615194268" lon="9.922311299477034"><ele>40.333333333333336</ele><time>2026-04-25T13:05:30Z</time></trkpt><trkpt lat="45.08630817431281" lon="9.92241529713103"><ele>40.5</ele><time>2026-04-25T13:05:31Z</time></trkpt><trkpt lat="45.08634380316579" lon="9.92252086579351"><ele>40.666666666666664</ele><time>2026-04-25T13:05:32Z</time></trkpt><trkpt lat="45.08637779164318" lon="9.92262321096144"><ele>40.83333333333333</ele><time>2026-04-25T13:05:33Z</time></trkpt><trkpt lat="45.086415606930565" lon="9.922729197134869"><ele>41.0</ele><time>2026-04-25T13:05:34Z</time></trkpt><trkpt lat="45.08645004995454" lon="9.922838113791169"><ele>40.83333333333333</ele><time>2026-04-25T13:05:35Z</time></trkpt><trkpt lat="45.086486891976755" lon="9.922944961112076"><ele>40.666666666666664</ele><time>2026-04-25T13:05:36Z</time></trkpt><trkpt lat="45.08652484409882" lon="9.92305307033598"><ele>40.5</ele><time>2026-04-25T13:05:37Z</time></trkpt><trkpt lat="45.08656249182394" lon="9.923161385759624"><ele>40.333333333333336</ele><time>2026-04-25T13:05:38Z</time></trkpt><trkpt lat="45.086600985798505" lon="9.923267714155461"><ele>40.16666666666667</ele><time>2026-04-25T13:05:39Z</time></trkpt><trkpt lat="45.08663777192282" lon="9.923373953410968"><ele>40.0</ele><time>2026-04-25T13:05:40Z</time></trkpt><trkpt lat="45.08667318417601" lon="9.92348066446394"><ele>40.0</ele><time>2026-04-25T13:05:41Z</time></trkpt><trkpt lat="45.08670931210228" lon="9.923587695598162"><ele>40.0</ele><time>2026-04-25T13:05:42Z</time></trkpt><trkpt lat="45.08674494146764" lon="9.92369508485721"><ele>40.0</ele><time>2026-04-25T13:05:43Z</time></trkpt><trkpt lat="45.086782115934234" lon="9.92380303683012"><ele>40.0</ele><time>2026-04-25T13:05:44Z</time></trkpt><trkpt lat="45.0868209780937" lon="9.923910274586499"><ele>40.0</ele><time>2026-04-25T13:05:45Z</time></trkpt><trkpt lat="45.08685869477775" lon="9.924020865890187"><ele>40.0</ele><time>2026-04-25T13:05:46Z</time></trkpt><trkpt lat="45.086895300711525" lon="9.924131431255411"><ele>40.0</ele><time>2026-04-25T13:05:47Z</time></trkpt><trkpt lat="45.086933883703864" lon="9.924239797851849"><ele>40.0</ele><time>2026-04-25T13:05:48Z</time></trkpt><trkpt lat="45.08697256861863" lon="9.924348710732723"><ele>40.0</ele><time>2026-04-25T13:05:49Z</time></trkpt><trkpt lat="45.08700930054523" lon="9.92445688419675"><ele>40.0</ele><time>2026-04-25T13:05:50Z</time></trkpt><trkpt lat="45.08704594732054" lon="9.924565747110554"><ele>40.0</ele><time>2026-04-25T13:05:51Z</time></trkpt><trkpt lat="45.08708317460088" lon="9.924677436928857"><ele>40.0</ele><time>2026-04-25T13:05:52Z</time></trkpt><trkpt lat="45.087119675584134" lon="9.924790976808373"><ele>40.0</ele><time>2026-04-25T13:05:53Z</time></trkpt><trkpt lat="45.087156991331774" lon="9.924901171901059"><ele>40.0</ele><time>2026-04-25T13:05:54Z</time></trkpt><trkpt lat="45.0871966693956" lon="9.925010062450923"><ele>40.0</ele><time>2026-04-25T13:05:55Z</time></trkpt><trkpt lat="45.08723413630279" lon="9.925118436788747"><ele>40.0</ele><time>2026-04-25T13:05:56Z</time></trkpt><trkpt lat="45.08727247887221" lon="9.925229710768331"><ele>40.0</ele><time>2026-04-25T13:05:57Z</time></trkpt><trkpt lat="45.08731039018223" lon="9.925338903265763"><ele>40.0</ele><time>2026-04-25T13:05:58Z</time></trkpt><trkpt lat="45.08734772699166" lon="9.925448907376955"><ele>40.0</ele><time>2026-04-25T13:05:59Z</time></trkpt><trkpt lat="45.087383501739524" lon="9.925559786035745"><ele>40.0</ele><time>2026-04-25T13:06:00Z</time></trkpt><trkpt lat="45.08741421947317" lon="9.925675460612288"><ele>40.0</ele><time>2026-04-25T13:06:01Z</time></trkpt><trkpt lat="45.08744059339777" lon="9.925793818524683"><ele>40.0</ele><time>2026-04-25T13:06:02Z</time></trkpt><trkpt lat="45.08746006834504" lon="9.925913988258914"><ele>40.0</ele><time>2026-04-25T13:06:03Z</time></trkpt><trkpt lat="45.087472432727466" lon="9.926039674000915"><ele>40.0</ele><time>2026-04-25T13:06:04Z</time></trkpt><trkpt lat="45.08747640646877" lon="9.926161576893994"><ele>40.0</ele><time>2026-04-25T13:06:05Z</time></trkpt><trkpt lat="45.087475153337586" lon="9.926287178546696"><ele>40.0</ele><time>2026-04-25T13:06:06Z</time></trkpt><trkpt lat="45.08746771933744" lon="9.926410565530073"><ele>40.0</ele><time>2026-04-25T13:06:07Z</time></trkpt><trkpt lat="45.087462204884936" lon="9.926533529321963"><ele>40.0</ele><time>2026-04-25T13:06:08Z</time></trkpt><trkpt lat="45.08745596568021" lon="9.926657490613442"><ele>40.0</ele><time>2026-04-25T13:06:09Z</time></trkpt><trkpt lat="45.08744881973218" lon="9.926779801003692"><ele>40.0</ele><time>2026-04-25T13:06:10Z</time></trkpt><trkpt lat="45.08744086037597" lon="9.926903685522765"><ele>40.16666666666667</ele><time>2026-04-25T13:06:11Z</time></trkpt><trkpt lat="45.087435019931846" lon="9.927029003897202"><ele>40.333333333333336</ele><time>2026-04-25T13:06:12Z</time></trkpt><trkpt lat="45.08742654606921" lon="9.927152014898903"><ele>40.5</ele><time>2026-04-25T13:06:13Z</time></trkpt><trkpt lat="45.08741894705997" lon="9.927278831402901"><ele>40.666666666666664</ele><time>2026-04-25T13:06:14Z</time></trkpt><trkpt lat="45.08741122388441" lon="9.927402342046019"><ele>40.83333333333333</ele><time>2026-04-25T13:06:15Z</time></trkpt><trkpt lat="45.08740436305668" lon="9.927526243260022"><ele>41.0</ele><time>2026-04-25T13:06:16Z</time></trkpt><trkpt lat="45.087397398474835" lon="9.927647986547498"><ele>40.666666666666664</ele><time>2026-04-25T13:06:17Z</time></trkpt><trkpt lat="45.08738972030142" lon="9.92777259290427"><ele>40.33333333333333</ele><time>2026-04-25T13:06:17.999Z</time></trkpt><trkpt lat="45.08738274663594" lon="9.927896100080321"><ele>40.0</ele><time>2026-04-25T13:06:18.999Z</time></trkpt><trkpt lat="45.087376189490115" lon="9.928019125660164"><ele>39.666666666666664</ele><time>2026-04-25T13:06:19.999Z</time></trkpt><trkpt lat="45.08736912043146" lon="9.928145704913675"><ele>39.333333333333336</ele><time>2026-04-25T13:06:20.999Z</time></trkpt><trkpt lat="45.08736151721495" lon="9.928270997868156"><ele>39.0</ele><time>2026-04-25T13:06:21.999Z</time></trkpt><trkpt lat="45.08735310671967" lon="9.928397082703837"><ele>39.0</ele><time>2026-04-25T13:06:22.999Z</time></trkpt><trkpt lat="45.087343478027734" lon="9.928521922351942"><ele>39.0</ele><time>2026-04-25T13:06:23.999Z</time></trkpt><trkpt lat="45.08733425956628" lon="9.928645099542814"><ele>39.0</ele><time>2026-04-25T13:06:24.999Z</time></trkpt><trkpt lat="45.08732960489151" lon="9.928768248444126"><ele>39.0</ele><time>2026-04-25T13:06:25.999Z</time></trkpt><trkpt lat="45.08732099073543" lon="9.928890706366873"><ele>39.0</ele><time>2026-04-25T13:06:26.999Z</time></trkpt><trkpt lat="45.08731143642572" lon="9.929013761974547"><ele>39.0</ele><time>2026-04-25T13:06:27.999Z</time></trkpt><trkpt lat="45.08730298943004" lon="9.929134341733151"><ele>39.333333333333336</ele><time>2026-04-25T13:06:28.999Z</time></trkpt><trkpt lat="45.087294654188526" lon="9.9292569065284"><ele>39.666666666666664</ele><time>2026-04-25T13:06:29.999Z</time></trkpt><trkpt lat="45.08728681187351" lon="9.929381279918488"><ele>40.0</ele><time>2026-04-25T13:06:30.999Z</time></trkpt><trkpt lat="45.08727848828622" lon="9.929501646713158"><ele>40.33333333333333</ele><time>2026-04-25T13:06:31.999Z</time></trkpt><trkpt lat="45.087268744045296" lon="9.929625464275164"><ele>40.666666666666664</ele><time>2026-04-25T13:06:32.999Z</time></trkpt><trkpt lat="45.087260063358165" lon="9.929750998109204"><ele>41.0</ele><time>2026-04-25T13:06:33.999Z</time></trkpt><trkpt lat="45.087250868411864" lon="9.929871887238127"><ele>41.0</ele><time>2026-04-25T13:06:34.999Z</time></trkpt><trkpt lat="45.0872394960187" lon="9.929999529292866"><ele>41.0</ele><time>2026-04-25T13:06:35.999Z</time></trkpt><trkpt lat="45.08722926008786" lon="9.930121938286456"><ele>41.0</ele><time>2026-04-25T13:06:36.999Z</time></trkpt><trkpt lat="45.08722241965896" lon="9.930246304232622"><ele>41.0</ele><time>2026-04-25T13:06:37.999Z</time></trkpt><trkpt lat="45.08721491740914" lon="9.930370434144631"><ele>41.0</ele><time>2026-04-25T13:06:38.999Z</time></trkpt><trkpt lat="45.08720622167559" lon="9.93049472441797"><ele>41.0</ele><time>2026-04-25T13:06:39.999Z</time></trkpt><trkpt lat="45.08719968640144" lon="9.930620703789574"><ele>41.166666666666664</ele><time>2026-04-25T13:06:40.999Z</time></trkpt><trkpt lat="45.08719177862597" lon="9.930739941477869"><ele>41.33333333333333</ele><time>2026-04-25T13:06:41.999Z</time></trkpt><trkpt lat="45.087184043842335" lon="9.930862432745664"><ele>41.5</ele><time>2026-04-25T13:06:42.999Z</time></trkpt><trkpt lat="45.08717821805617" lon="9.930987169043975"><ele>41.666666666666664</ele><time>2026-04-25T13:06:43.999Z</time></trkpt><trkpt lat="45.087180760668" lon="9.931110905195435"><ele>41.833333333333336</ele><time>2026-04-25T13:06:44.999Z</time></trkpt><trkpt lat="45.08718900665066" lon="9.931233410619358"><ele>42.0</ele><time>2026-04-25T13:06:45.999Z</time></trkpt><trkpt lat="45.08720063737627" lon="9.931358335468506"><ele>42.0</ele><time>2026-04-25T13:06:46.999Z</time></trkpt><trkpt lat="45.08721890830159" lon="9.931479908020638"><ele>42.0</ele><time>2026-04-25T13:06:47.999Z</time></trkpt><trkpt lat="45.08724191687247" lon="9.931602610679167"><ele>42.0</ele><time>2026-04-25T13:06:48.999Z</time></trkpt><trkpt lat="45.08727378319365" lon="9.931720204283625"><ele>42.0</ele><time>2026-04-25T13:06:49.999Z</time></trkpt><trkpt lat="45.0873077249609" lon="9.931838145528134"><ele>42.0</ele><time>2026-04-25T13:06:50.999Z</time></trkpt><trkpt lat="45.08734622876987" lon="9.93195244242555"><ele>42.0</ele><time>2026-04-25T13:06:51.999Z</time></trkpt><trkpt lat="45.087389628234796" lon="9.932063647878197"><ele>41.833333333333336</ele><time>2026-04-25T13:06:52.999Z</time></trkpt><trkpt lat="45.08743369116386" lon="9.932170882796404"><ele>41.666666666666664</ele><time>2026-04-25T13:06:53.999Z</time></trkpt><trkpt lat="45.08748144090482" lon="9.932275786668619"><ele>41.5</ele><time>2026-04-25T13:06:54.999Z</time></trkpt><trkpt lat="45.08753604960506" lon="9.932371871856539"><ele>41.33333333333333</ele><time>2026-04-25T13:06:55.999Z</time></trkpt><trkpt lat="45.08759172414817" lon="9.93246580477019"><ele>41.166666666666664</ele><time>2026-04-25T13:06:56.999Z</time></trkpt><trkpt lat="45.08765290093035" lon="9.932557339717532"><ele>41.0</ele><time>2026-04-25T13:06:57.999Z</time></trkpt><trkpt lat="45.08771633513816" lon="9.932644583938682"><ele>41.0</ele><time>2026-04-25T13:06:58.999Z</time></trkpt><trkpt lat="45.08778136788982" lon="9.93272982757068"><ele>41.0</ele><time>2026-04-25T13:06:59.999Z</time></trkpt><trkpt lat="45.087847271096955" lon="9.932808244111278"><ele>41.0</ele><time>2026-04-25T13:07:00.999Z</time></trkpt><trkpt lat="45.0879191907953" lon="9.932881409857155"><ele>41.0</ele><time>2026-04-25T13:07:01.999Z</time></trkpt><trkpt lat="45.08799415753863" lon="9.932948303135884"><ele>41.0</ele><time>2026-04-25T13:07:02.999Z</time></trkpt><trkpt lat="45.08806996208793" lon="9.93300954414448"><ele>41.0</ele><time>2026-04-25T13:07:03.999Z</time></trkpt><trkpt lat="45.08814760336167" lon="9.93306163142953"><ele>41.0</ele><time>2026-04-25T13:07:04.999Z</time></trkpt><trkpt lat="45.08822801629834" lon="9.93310963064102"><ele>41.0</ele><time>2026-04-25T13:07:05.999Z</time></trkpt><trkpt lat="45.08830715183606" lon="9.933153849109312"><ele>41.0</ele><time>2026-04-25T13:07:06.999Z</time></trkpt><trkpt lat="45.08838124011615" lon="9.933200274104344"><ele>41.0</ele><time>2026-04-25T13:07:07.999Z</time></trkpt><trkpt lat="45.08845409656615" lon="9.933242636609558"><ele>41.0</ele><time>2026-04-25T13:07:08.999Z</time></trkpt><trkpt lat="45.08852813362127" lon="9.933284353515848"><ele>41.0</ele><time>2026-04-25T13:07:09.999Z</time></trkpt><trkpt lat="45.08859828598069" lon="9.933329744428095"><ele>41.0</ele><time>2026-04-25T13:07:10.999Z</time></trkpt><trkpt lat="45.088665620491795" lon="9.933373872841877"><ele>41.0</ele><time>2026-04-25T13:07:12Z</time></trkpt><trkpt lat="45.0887311360048" lon="9.933415928524113"><ele>41.0</ele><time>2026-04-25T13:07:13Z</time></trkpt><trkpt lat="45.08879648868786" lon="9.933457640843493"><ele>41.0</ele><time>2026-04-25T13:07:14Z</time></trkpt><trkpt lat="45.0888563357573" lon="9.933499296643758"><ele>41.0</ele><time>2026-04-25T13:07:15Z</time></trkpt><trkpt lat="45.08896194968084" lon="9.933583189401304"><ele>41.0</ele><time>2026-04-25T13:07:17Z</time></trkpt><trkpt lat="45.089066083001434" lon="9.933675157530434"><ele>41.14285714285714</ele><time>2026-04-25T13:07:19Z</time></trkpt><trkpt lat="45.08911991354142" lon="9.933734841433914"><ele>41.285714285714285</ele><time>2026-04-25T13:07:20Z</time></trkpt><trkpt lat="45.08917319227507" lon="9.93380232164351"><ele>41.42857142857143</ele><time>2026-04-25T13:07:21Z</time></trkpt><trkpt lat="45.08922583158309" lon="9.933874969059284"><ele>41.57142857142857</ele><time>2026-04-25T13:07:22Z</time></trkpt><trkpt lat="45.089279131211725" lon="9.93395395592437"><ele>41.714285714285715</ele><time>2026-04-25T13:07:23Z</time></trkpt><trkpt lat="45.08932639124529" lon="9.934033898887202"><ele>41.857142857142854</ele><time>2026-04-25T13:07:24Z</time></trkpt><trkpt lat="45.0893724824568" lon="9.934118904388587"><ele>42.0</ele><time>2026-04-25T13:07:25Z</time></trkpt><trkpt lat="45.08941742671171" lon="9.93420786804144"><ele>42.166666666666664</ele><time>2026-04-25T13:07:26Z</time></trkpt><trkpt lat="45.0894543696885" lon="9.934301973991946"><ele>42.333333333333336</ele><time>2026-04-25T13:07:27Z</time></trkpt><trkpt lat="45.08949213255255" lon="9.934399978977197"><ele>42.5</ele><time>2026-04-25T13:07:28Z</time></trkpt><trkpt lat="45.08952532302148" lon="9.9345038830639"><ele>42.66666666666667</ele><time>2026-04-25T13:07:29Z</time></trkpt><trkpt lat="45.08955078112786" lon="9.934611234203357"><ele>42.833333333333336</ele><time>2026-04-25T13:07:30Z</time></trkpt><trkpt lat="45.08957878697679" lon="9.934723031777073"><ele>43.0</ele><time>2026-04-25T13:07:31Z</time></trkpt><trkpt lat="45.08959268494958" lon="9.93483984881041"><ele>43.0</ele><time>2026-04-25T13:07:32Z</time></trkpt><trkpt lat="45.0896034002946" lon="9.934958177090724"><ele>43.0</ele><time>2026-04-25T13:07:33Z</time></trkpt><trkpt lat="45.08961333801349" lon="9.935075934092437"><ele>43.0</ele><time>2026-04-25T13:07:34Z</time></trkpt><trkpt lat="45.08962226485804" lon="9.935195275961851"><ele>43.0</ele><time>2026-04-25T13:07:35Z</time></trkpt><trkpt lat="45.08963103236515" lon="9.935315954241991"><ele>43.0</ele><time>2026-04-25T13:07:36Z</time></trkpt><trkpt lat="45.0896384995674" lon="9.935435825738217"><ele>43.0</ele><time>2026-04-25T13:07:37Z</time></trkpt><trkpt lat="45.08964830591621" lon="9.93555660098481"><ele>42.833333333333336</ele><time>2026-04-25T13:07:38Z</time></trkpt><trkpt lat="45.089655155703966" lon="9.935678912976663"><ele>42.66666666666667</ele><time>2026-04-25T13:07:39Z</time></trkpt><trkpt lat="45.08966584218829" lon="9.935802647042284"><ele>42.5</ele><time>2026-04-25T13:07:40Z</time></trkpt><trkpt lat="45.0896760113347" lon="9.935924506619196"><ele>42.333333333333336</ele><time>2026-04-25T13:07:41Z</time></trkpt><trkpt lat="45.08968399108839" lon="9.936048299702174"><ele>42.166666666666664</ele><time>2026-04-25T13:07:42Z</time></trkpt><trkpt lat="45.089692099146156" lon="9.936173464707961"><ele>42.0</ele><time>2026-04-25T13:07:43Z</time></trkpt><trkpt lat="45.089702996008484" lon="9.936294720634924"><ele>41.666666666666664</ele><time>2026-04-25T13:07:44Z</time></trkpt><trkpt lat="45.089713747370666" lon="9.936418102549997"><ele>41.333333333333336</ele><time>2026-04-25T13:07:45Z</time></trkpt><trkpt lat="45.08972255258689" lon="9.936542462241958"><ele>41.0</ele><time>2026-04-25T13:07:46Z</time></trkpt><trkpt lat="45.08973244715245" lon="9.936667706569011"><ele>40.66666666666667</ele><time>2026-04-25T13:07:47Z</time></trkpt><trkpt lat="45.08974213093907" lon="9.936792818550584"><ele>40.333333333333336</ele><time>2026-04-25T13:07:48Z</time></trkpt><trkpt lat="45.089753773655566" lon="9.93691561779314"><ele>40.0</ele><time>2026-04-25T13:07:49Z</time></trkpt><trkpt lat="45.08976245694622" lon="9.937042417157032"><ele>40.0</ele><time>2026-04-25T13:07:50Z</time></trkpt><trkpt lat="45.089773083718164" lon="9.937165898359737"><ele>40.0</ele><time>2026-04-25T13:07:51Z</time></trkpt><trkpt lat="45.08978425501848" lon="9.937290830604343"><ele>40.0</ele><time>2026-04-25T13:07:52Z</time></trkpt><trkpt lat="45.089795328457505" lon="9.937411437303476"><ele>40.0</ele><time>2026-04-25T13:07:53Z</time></trkpt><trkpt lat="45.089807471308674" lon="9.937536199032618"><ele>40.0</ele><time>2026-04-25T13:07:54Z</time></trkpt><trkpt lat="45.08981525306743" lon="9.937660576512275"><ele>40.0</ele><time>2026-04-25T13:07:55Z</time></trkpt><trkpt lat="45.08982113269868" lon="9.93778418719087"><ele>39.66666666666667</ele><time>2026-04-25T13:07:56Z</time></trkpt><trkpt lat="45.089829225847204" lon="9.937907187891131"><ele>39.333333333333336</ele><time>2026-04-25T13:07:57Z</time></trkpt><trkpt lat="45.089838577365555" lon="9.93803185022955"><ele>39.0</ele><time>2026-04-25T13:07:58Z</time></trkpt><trkpt lat="45.089846756697845" lon="9.938154734199362"><ele>38.666666666666664</ele><time>2026-04-25T13:07:59Z</time></trkpt><trkpt lat="45.089856543608995" lon="9.938276568723554"><ele>38.33333333333333</ele><time>2026-04-25T13:08:00Z</time></trkpt><trkpt lat="45.08987035636978" lon="9.938400581508832"><ele>38.0</ele><time>2026-04-25T13:08:01Z</time></trkpt><trkpt lat="45.08988113352685" lon="9.9385256265117"><ele>38.0</ele><time>2026-04-25T13:08:02Z</time></trkpt><trkpt lat="45.089890900686704" lon="9.93865114951231"><ele>38.0</ele><time>2026-04-25T13:08:03Z</time></trkpt><trkpt lat="45.08989926014376" lon="9.938777158617343"><ele>38.0</ele><time>2026-04-25T13:08:04Z</time></trkpt><trkpt lat="45.08990868565065" lon="9.938902577924367"><ele>38.0</ele><time>2026-04-25T13:08:05Z</time></trkpt><trkpt lat="45.08991903530267" lon="9.93902785645705"><ele>38.0</ele><time>2026-04-25T13:08:06Z</time></trkpt><trkpt lat="45.089929565279974" lon="9.939153531872426"><ele>38.0</ele><time>2026-04-25T13:08:07Z</time></trkpt><trkpt lat="45.08994152547508" lon="9.939278721876981"><ele>38.166666666666664</ele><time>2026-04-25T13:08:08Z</time></trkpt><trkpt lat="45.08995119339901" lon="9.939404508290743"><ele>38.33333333333333</ele><time>2026-04-25T13:08:09Z</time></trkpt><trkpt lat="45.0899612493363" lon="9.939532046889667"><ele>38.5</ele><time>2026-04-25T13:08:10Z</time></trkpt><trkpt lat="45.08997129703992" lon="9.939656674327386"><ele>38.666666666666664</ele><time>2026-04-25T13:08:11Z</time></trkpt><trkpt lat="45.08997943459279" lon="9.939780901835949"><ele>38.833333333333336</ele><time>2026-04-25T13:08:12Z</time></trkpt><trkpt lat="45.08999102326008" lon="9.939907294642977"><ele>39.0</ele><time>2026-04-25T13:08:13Z</time></trkpt><trkpt lat="45.090000524239656" lon="9.940030544163609"><ele>39.0</ele><time>2026-04-25T13:08:14Z</time></trkpt><trkpt lat="45.09000848095224" lon="9.940157984977757"><ele>39.0</ele><time>2026-04-25T13:08:15Z</time></trkpt><trkpt lat="45.090018666743404" lon="9.94028172499554"><ele>39.0</ele><time>2026-04-25T13:08:16Z</time></trkpt><trkpt lat="45.09002615768444" lon="9.940404532504628"><ele>39.0</ele><time>2026-04-25T13:08:17Z</time></trkpt><trkpt lat="45.09003694921456" lon="9.940526369022846"><ele>39.0</ele><time>2026-04-25T13:08:18Z</time></trkpt><trkpt lat="45.09004667910786" lon="9.94064935028363"><ele>39.0</ele><time>2026-04-25T13:08:19Z</time></trkpt><trkpt lat="45.0900570185253" lon="9.940774517042405"><ele>39.0</ele><time>2026-04-25T13:08:19.999Z</time></trkpt><trkpt lat="45.09006833577784" lon="9.94089577365844"><ele>39.0</ele><time>2026-04-25T13:08:20.999Z</time></trkpt><trkpt lat="45.090079181834284" lon="9.941020719123777"><ele>39.0</ele><time>2026-04-25T13:08:21.999Z</time></trkpt><trkpt lat="45.09008914278712" lon="9.941141774578112"><ele>39.0</ele><time>2026-04-25T13:08:22.999Z</time></trkpt><trkpt lat="45.090098012950556" lon="9.941265538881"><ele>39.0</ele><time>2026-04-25T13:08:23.999Z</time></trkpt><trkpt lat="45.09010756968851" lon="9.941390379463948"><ele>39.0</ele><time>2026-04-25T13:08:24.999Z</time></trkpt><trkpt lat="45.09011628123017" lon="9.941515110298043"><ele>39.0</ele><time>2026-04-25T13:08:25.999Z</time></trkpt><trkpt lat="45.09012596507086" lon="9.941640665697415"><ele>39.0</ele><time>2026-04-25T13:08:26.999Z</time></trkpt><trkpt lat="45.09013601213541" lon="9.941763603509152"><ele>39.0</ele><time>2026-04-25T13:08:27.999Z</time></trkpt><trkpt lat="45.09014511007708" lon="9.941890145616714"><ele>39.0</ele><time>2026-04-25T13:08:28.999Z</time></trkpt><trkpt lat="45.090155093974154" lon="9.942012697503282"><ele>39.0</ele><time>2026-04-25T13:08:29.999Z</time></trkpt><trkpt lat="45.09016289600365" lon="9.942138613342506"><ele>39.0</ele><time>2026-04-25T13:08:30.999Z</time></trkpt><trkpt lat="45.09017239495202" lon="9.942261123560643"><ele>39.0</ele><time>2026-04-25T13:08:31.999Z</time></trkpt><trkpt lat="45.09018141532157" lon="9.94238727698368"><ele>39.0</ele><time>2026-04-25T13:08:32.999Z</time></trkpt><trkpt lat="45.09018897469012" lon="9.942510847409896"><ele>39.0</ele><time>2026-04-25T13:08:33.999Z</time></trkpt><trkpt lat="45.0901972256252" lon="9.942637445695375"><ele>39.0</ele><time>2026-04-25T13:08:34.999Z</time></trkpt><trkpt lat="45.090205678745846" lon="9.942761953809546"><ele>39.0</ele><time>2026-04-25T13:08:35.999Z</time></trkpt><trkpt lat="45.09021547982278" lon="9.942886408548032"><ele>39.0</ele><time>2026-04-25T13:08:36.999Z</time></trkpt><trkpt lat="45.09022637276516" lon="9.943010938225408"><ele>39.0</ele><time>2026-04-25T13:08:37.999Z</time></trkpt><trkpt lat="45.090237859813655" lon="9.94313761732394"><ele>39.0</ele><time>2026-04-25T13:08:38.999Z</time></trkpt><trkpt lat="45.09024813956419" lon="9.943263308478235"><ele>39.0</ele><time>2026-04-25T13:08:39.999Z</time></trkpt><trkpt lat="45.09025770517888" lon="9.943391771555891"><ele>39.0</ele><time>2026-04-25T13:08:40.999Z</time></trkpt><trkpt lat="45.0902691623697" lon="9.943517746515488"><ele>39.0</ele><time>2026-04-25T13:08:41.999Z</time></trkpt><trkpt lat="45.090278267945585" lon="9.943643463968005"><ele>38.833333333333336</ele><time>2026-04-25T13:08:42.999Z</time></trkpt><trkpt lat="45.09028874358273" lon="9.943771029882463"><ele>38.666666666666664</ele><time>2026-04-25T13:08:43.999Z</time></trkpt><trkpt lat="45.09030174876952" lon="9.943896331714352"><ele>38.5</ele><time>2026-04-25T13:08:44.999Z</time></trkpt><trkpt lat="45.09031317819384" lon="9.944021781914513"><ele>38.33333333333333</ele><time>2026-04-25T13:08:45.999Z</time></trkpt><trkpt lat="45.090324718997294" lon="9.944148810344432"><ele>38.166666666666664</ele><time>2026-04-25T13:08:46.999Z</time></trkpt><trkpt lat="45.090333897157464" lon="9.944270109368027"><ele>38.0</ele><time>2026-04-25T13:08:47.999Z</time></trkpt><trkpt lat="45.09034548418797" lon="9.9443902125027"><ele>38.0</ele><time>2026-04-25T13:08:48.999Z</time></trkpt><trkpt lat="45.09035924663698" lon="9.94451183207813"><ele>38.0</ele><time>2026-04-25T13:08:49.999Z</time></trkpt><trkpt lat="45.09037023843329" lon="9.944632901066026"><ele>38.0</ele><time>2026-04-25T13:08:50.999Z</time></trkpt><trkpt lat="45.09038307975361" lon="9.944755438635987"><ele>38.0</ele><time>2026-04-25T13:08:51.999Z</time></trkpt><trkpt lat="45.0903936946713" lon="9.9448794486732"><ele>38.0</ele><time>2026-04-25T13:08:52.999Z</time></trkpt><trkpt lat="45.090402014867685" lon="9.945001460794405"><ele>38.0</ele><time>2026-04-25T13:08:53.999Z</time></trkpt><trkpt lat="45.090410070431844" lon="9.945123724481677"><ele>38.0</ele><time>2026-04-25T13:08:54.999Z</time></trkpt><trkpt lat="45.090420158109254" lon="9.945246897573035"><ele>38.0</ele><time>2026-04-25T13:08:55.999Z</time></trkpt><trkpt lat="45.09042980152963" lon="9.945371732259925"><ele>38.0</ele><time>2026-04-25T13:08:56.999Z</time></trkpt><trkpt lat="45.09043952908709" lon="9.945497005855257"><ele>38.0</ele><time>2026-04-25T13:08:57.999Z</time></trkpt><trkpt lat="45.09044916704962" lon="9.94561916411281"><ele>38.0</ele><time>2026-04-25T13:08:58.999Z</time></trkpt><trkpt lat="45.09045875835993" lon="9.945743560259757"><ele>38.0</ele><time>2026-04-25T13:08:59.999Z</time></trkpt><trkpt lat="45.090469026140845" lon="9.945864358659833"><ele>38.5</ele><time>2026-04-25T13:09:00.999Z</time></trkpt><trkpt lat="45.09047985278239" lon="9.945987314469335"><ele>39.0</ele><time>2026-04-25T13:09:01.999Z</time></trkpt><trkpt lat="45.090490181834724" lon="9.946111477136576"><ele>39.5</ele><time>2026-04-25T13:09:02.999Z</time></trkpt><trkpt lat="45.09049739811442" lon="9.946235858132878"><ele>40.0</ele><time>2026-04-25T13:09:03.999Z</time></trkpt><trkpt lat="45.09050841030277" lon="9.946359185007662"><ele>40.5</ele><time>2026-04-25T13:09:04.999Z</time></trkpt><trkpt lat="45.090518407292485" lon="9.946485082632462"><ele>41.0</ele><time>2026-04-25T13:09:05.999Z</time></trkpt><trkpt lat="45.090529156482994" lon="9.946612431334142"><ele>41.0</ele><time>2026-04-25T13:09:06.999Z</time></trkpt><trkpt lat="45.09053919295548" lon="9.94673561723971"><ele>41.0</ele><time>2026-04-25T13:09:07.999Z</time></trkpt><trkpt lat="45.090549352061124" lon="9.946862933842132"><ele>41.0</ele><time>2026-04-25T13:09:08.999Z</time></trkpt><trkpt lat="45.09055916681386" lon="9.946986487165493"><ele>41.0</ele><time>2026-04-25T13:09:09.999Z</time></trkpt><trkpt lat="45.09057051235749" lon="9.947112770692485"><ele>41.0</ele><time>2026-04-25T13:09:10.999Z</time></trkpt><trkpt lat="45.09058075451966" lon="9.947236844970831"><ele>41.0</ele><time>2026-04-25T13:09:11.999Z</time></trkpt><trkpt lat="45.090589887822624" lon="9.947360028253273"><ele>41.0</ele><time>2026-04-25T13:09:12.999Z</time></trkpt><trkpt lat="45.090597940885914" lon="9.947480496205623"><ele>41.0</ele><time>2026-04-25T13:09:13.999Z</time></trkpt><trkpt lat="45.090609130605664" lon="9.947603968646497"><ele>41.0</ele><time>2026-04-25T13:09:14.999Z</time></trkpt><trkpt lat="45.09061773668533" lon="9.947729169611911"><ele>41.0</ele><time>2026-04-25T13:09:15.999Z</time></trkpt><trkpt lat="45.09062760641474" lon="9.947851006463763"><ele>41.0</ele><time>2026-04-25T13:09:17Z</time></trkpt><trkpt lat="45.090637298634235" lon="9.94797481312233"><ele>41.0</ele><time>2026-04-25T13:09:18Z</time></trkpt><trkpt lat="45.090646992642185" lon="9.948096311674917"><ele>40.666666666666664</ele><time>2026-04-25T13:09:19Z</time></trkpt><trkpt lat="45.09065755887743" lon="9.948219054987527"><ele>40.33333333333333</ele><time>2026-04-25T13:09:20Z</time></trkpt><trkpt lat="45.09066835482422" lon="9.948344317462782"><ele>40.0</ele><time>2026-04-25T13:09:21Z</time></trkpt><trkpt lat="45.090680577819825" lon="9.948466828188636"><ele>39.666666666666664</ele><time>2026-04-25T13:09:22Z</time></trkpt><trkpt lat="45.090690340210735" lon="9.948593191935478"><ele>39.333333333333336</ele><time>2026-04-25T13:09:23Z</time></trkpt><trkpt lat="45.090699834083544" lon="9.94871417557686"><ele>39.0</ele><time>2026-04-25T13:09:24Z</time></trkpt><trkpt lat="45.09070906799859" lon="9.948835937829791"><ele>38.833333333333336</ele><time>2026-04-25T13:09:25Z</time></trkpt><trkpt lat="45.090720387157674" lon="9.948958034737444"><ele>38.666666666666664</ele><time>2026-04-25T13:09:26Z</time></trkpt><trkpt lat="45.09073040327803" lon="9.949078170571198"><ele>38.5</ele><time>2026-04-25T13:09:27Z</time></trkpt><trkpt lat="45.09074094825437" lon="9.949196627079541"><ele>38.33333333333333</ele><time>2026-04-25T13:09:28Z</time></trkpt><trkpt lat="45.09075343298893" lon="9.949319345770459"><ele>38.166666666666664</ele><time>2026-04-25T13:09:29Z</time></trkpt><trkpt lat="45.09076243877162" lon="9.949445146752453"><ele>38.0</ele><time>2026-04-25T13:09:30Z</time></trkpt><trkpt lat="45.090770243767786" lon="9.949565517056106"><ele>38.0</ele><time>2026-04-25T13:09:31Z</time></trkpt><trkpt lat="45.090779824366905" lon="9.949689093567542"><ele>38.0</ele><time>2026-04-25T13:09:32Z</time></trkpt><trkpt lat="45.09079080735494" lon="9.949813207216073"><ele>38.0</ele><time>2026-04-25T13:09:33Z</time></trkpt><trkpt lat="45.09080119216515" lon="9.9499383651907"><ele>38.0</ele><time>2026-04-25T13:09:34Z</time></trkpt><trkpt lat="45.09081157111468" lon="9.950062420887772"><ele>38.0</ele><time>2026-04-25T13:09:35Z</time></trkpt><trkpt lat="45.0908217379977" lon="9.950184139901285"><ele>38.0</ele><time>2026-04-25T13:09:36Z</time></trkpt><trkpt lat="45.09083201658469" lon="9.950310605159057"><ele>38.0</ele><time>2026-04-25T13:09:37Z</time></trkpt><trkpt lat="45.09084124545615" lon="9.950431319491662"><ele>38.0</ele><time>2026-04-25T13:09:38Z</time></trkpt><trkpt lat="45.090850357424834" lon="9.950552488230858"><ele>38.0</ele><time>2026-04-25T13:09:39Z</time></trkpt><trkpt lat="45.09086352679228" lon="9.950672168465127"><ele>38.0</ele><time>2026-04-25T13:09:40Z</time></trkpt><trkpt lat="45.09087432294551" lon="9.950793249111376"><ele>38.0</ele><time>2026-04-25T13:09:41Z</time></trkpt><trkpt lat="45.0908839266346" lon="9.950912252717577"><ele>38.0</ele><time>2026-04-25T13:09:42Z</time></trkpt><trkpt lat="45.090898610435154" lon="9.9510257493384"><ele>38.0</ele><time>2026-04-25T13:09:43Z</time></trkpt><trkpt lat="45.09091330258953" lon="9.951139195316548"><ele>38.0</ele><time>2026-04-25T13:09:44Z</time></trkpt><trkpt lat="45.09092274217448" lon="9.9512510790855"><ele>38.0</ele><time>2026-04-25T13:09:45Z</time></trkpt><trkpt lat="45.09093178162191" lon="9.951358211641887"><ele>38.0</ele><time>2026-04-25T13:09:46Z</time></trkpt><trkpt lat="45.09094186037822" lon="9.951462550375592"><ele>38.0</ele><time>2026-04-25T13:09:47Z</time></trkpt><trkpt lat="45.090951768179345" lon="9.951565532091989"><ele>38.0</ele><time>2026-04-25T13:09:48Z</time></trkpt><trkpt lat="45.09096085866348" lon="9.951669151388517"><ele>37.83333333333333</ele><time>2026-04-25T13:09:49Z</time></trkpt><trkpt lat="45.09097128171069" lon="9.95177706783006"><ele>37.666666666666664</ele><time>2026-04-25T13:09:50Z</time></trkpt><trkpt lat="45.090978712219695" lon="9.951888785541591"><ele>37.5</ele><time>2026-04-25T13:09:51Z</time></trkpt><trkpt lat="45.090983908654465" lon="9.952006142235504"><ele>37.333333333333336</ele><time>2026-04-25T13:09:52Z</time></trkpt><trkpt lat="45.090991615020734" lon="9.952128450536293"><ele>37.16666666666667</ele><time>2026-04-25T13:09:53Z</time></trkpt><trkpt lat="45.091006165784115" lon="9.952254237890685"><ele>37.0</ele><time>2026-04-25T13:09:54Z</time></trkpt><trkpt lat="45.09101791599045" lon="9.952381141690827"><ele>37.0</ele><time>2026-04-25T13:09:55Z</time></trkpt><trkpt lat="45.09103059074788" lon="9.952506573820028"><ele>37.0</ele><time>2026-04-25T13:09:56Z</time></trkpt><trkpt lat="45.091041845950144" lon="9.95263130011148"><ele>37.0</ele><time>2026-04-25T13:09:57Z</time></trkpt><trkpt lat="45.091052431008166" lon="9.952759749090488"><ele>37.0</ele><time>2026-04-25T13:09:58Z</time></trkpt><trkpt lat="45.09106529729384" lon="9.952884656346395"><ele>37.0</ele><time>2026-04-25T13:09:59Z</time></trkpt><trkpt lat="45.0910778063212" lon="9.953013277574273"><ele>37.16666666666667</ele><time>2026-04-25T13:10:00Z</time></trkpt><trkpt lat="45.09109210834648" lon="9.9531384927231"><ele>37.333333333333336</ele><time>2026-04-25T13:10:01Z</time></trkpt><trkpt lat="45.091104294157034" lon="9.953262244538173"><ele>37.5</ele><time>2026-04-25T13:10:02Z</time></trkpt><trkpt lat="45.0911156489212" lon="9.953388463700781"><ele>37.666666666666664</ele><time>2026-04-25T13:10:03Z</time></trkpt><trkpt lat="45.09112549747582" lon="9.953512840553385"><ele>37.83333333333333</ele><time>2026-04-25T13:10:04Z</time></trkpt><trkpt lat="45.09113844070684" lon="9.953636270576828"><ele>38.0</ele><time>2026-04-25T13:10:05Z</time></trkpt><trkpt lat="45.09115154704937" lon="9.953757104916264"><ele>38.0</ele><time>2026-04-25T13:10:06Z</time></trkpt><trkpt lat="45.091162578465784" lon="9.953881659258526"><ele>38.0</ele><time>2026-04-25T13:10:07Z</time></trkpt><trkpt lat="45.09117327490086" lon="9.954001139815379"><ele>38.0</ele><time>2026-04-25T13:10:08Z</time></trkpt><trkpt lat="45.091184506112405" lon="9.95411863773809"><ele>38.0</ele><time>2026-04-25T13:10:09Z</time></trkpt><trkpt lat="45.09119615531512" lon="9.954237574764566"><ele>38.0</ele><time>2026-04-25T13:10:10Z</time></trkpt><trkpt lat="45.09120677285736" lon="9.954357589636777"><ele>38.0</ele><time>2026-04-25T13:10:11Z</time></trkpt><trkpt lat="45.091217994015466" lon="9.954480614175601"><ele>38.166666666666664</ele><time>2026-04-25T13:10:12Z</time></trkpt><trkpt lat="45.091230463431" lon="9.954603508298206"><ele>38.33333333333333</ele><time>2026-04-25T13:10:13Z</time></trkpt><trkpt lat="45.09124190796002" lon="9.954727291372885"><ele>38.5</ele><time>2026-04-25T13:10:14Z</time></trkpt><trkpt lat="45.091252116126384" lon="9.954848838155403"><ele>38.666666666666664</ele><time>2026-04-25T13:10:15Z</time></trkpt><trkpt lat="45.09126330353056" lon="9.95497009205753"><ele>38.833333333333336</ele><time>2026-04-25T13:10:16Z</time></trkpt><trkpt lat="45.091274390059716" lon="9.955090746405496"><ele>39.0</ele><time>2026-04-25T13:10:17Z</time></trkpt><trkpt lat="45.09128691275764" lon="9.955212115049736"><ele>38.833333333333336</ele><time>2026-04-25T13:10:18Z</time></trkpt><trkpt lat="45.09129800162015" lon="9.955334730185294"><ele>38.666666666666664</ele><time>2026-04-25T13:10:19Z</time></trkpt><trkpt lat="45.091309070522655" lon="9.955459110068453"><ele>38.5</ele><time>2026-04-25T13:10:20Z</time></trkpt><trkpt lat="45.09132013726311" lon="9.95558281064592"><ele>38.33333333333333</ele><time>2026-04-25T13:10:21Z</time></trkpt><trkpt lat="45.09133109630193" lon="9.955704907364971"><ele>38.166666666666664</ele><time>2026-04-25T13:10:22Z</time></trkpt><trkpt lat="45.09134268316152" lon="9.955827038060264"><ele>38.0</ele><time>2026-04-25T13:10:22.999Z</time></trkpt><trkpt lat="45.091353353440596" lon="9.9559460617604"><ele>38.0</ele><time>2026-04-25T13:10:23.999Z</time></trkpt><trkpt lat="45.09136584544428" lon="9.956068338262124"><ele>38.0</ele><time>2026-04-25T13:10:24.999Z</time></trkpt><trkpt lat="45.09137801530516" lon="9.95618928209257"><ele>38.0</ele><time>2026-04-25T13:10:25.999Z</time></trkpt><trkpt lat="45.091390117474916" lon="9.956310615366492"><ele>38.0</ele><time>2026-04-25T13:10:26.999Z</time></trkpt><trkpt lat="45.09140187887337" lon="9.95643233403423"><ele>38.0</ele><time>2026-04-25T13:10:27.999Z</time></trkpt><trkpt lat="45.09141326097877" lon="9.956557369214735"><ele>38.0</ele><time>2026-04-25T13:10:28.999Z</time></trkpt><trkpt lat="45.0914235514775" lon="9.956682104009637"><ele>37.666666666666664</ele><time>2026-04-25T13:10:29.999Z</time></trkpt><trkpt lat="45.091436539583704" lon="9.956806665858666"><ele>37.33333333333333</ele><time>2026-04-25T13:10:30.999Z</time></trkpt><trkpt lat="45.091450375733395" lon="9.956928362485797"><ele>37.0</ele><time>2026-04-25T13:10:31.999Z</time></trkpt><trkpt lat="45.0914607631962" lon="9.957052631052807"><ele>36.666666666666664</ele><time>2026-04-25T13:10:32.999Z</time></trkpt><trkpt lat="45.09147189648931" lon="9.957177695670412"><ele>36.333333333333336</ele><time>2026-04-25T13:10:33.999Z</time></trkpt><trkpt lat="45.091483041528306" lon="9.957302847944378"><ele>36.0</ele><time>2026-04-25T13:10:34.999Z</time></trkpt><trkpt lat="45.09149710661692" lon="9.957426727860076"><ele>36.166666666666664</ele><time>2026-04-25T13:10:35.999Z</time></trkpt><trkpt lat="45.091510335192204" lon="9.957550732905219"><ele>36.333333333333336</ele><time>2026-04-25T13:10:36.999Z</time></trkpt><trkpt lat="45.091521211455174" lon="9.957672767043059"><ele>36.5</ele><time>2026-04-25T13:10:37.999Z</time></trkpt><trkpt lat="45.09153256489704" lon="9.957794773639261"><ele>36.66666666666667</ele><time>2026-04-25T13:10:38.999Z</time></trkpt><trkpt lat="45.091543131977815" lon="9.957917303156492"><ele>36.833333333333336</ele><time>2026-04-25T13:10:39.999Z</time></trkpt><trkpt lat="45.09155347562663" lon="9.958037757991963"><ele>37.0</ele><time>2026-04-25T13:10:40.999Z</time></trkpt><trkpt lat="45.091566581234154" lon="9.95816069610592"><ele>37.0</ele><time>2026-04-25T13:10:41.999Z</time></trkpt><trkpt lat="45.09157799777103" lon="9.958282805587379"><ele>37.0</ele><time>2026-04-25T13:10:42.999Z</time></trkpt><trkpt lat="45.09159090138218" lon="9.958408257751591"><ele>37.0</ele><time>2026-04-25T13:10:43.999Z</time></trkpt><trkpt lat="45.091601590776676" lon="9.958532639656106"><ele>37.0</ele><time>2026-04-25T13:10:44.999Z</time></trkpt><trkpt lat="45.09161283160454" lon="9.958656548006799"><ele>37.0</ele><time>2026-04-25T13:10:45.999Z</time></trkpt><trkpt lat="45.09162395256066" lon="9.958781137185252"><ele>37.0</ele><time>2026-04-25T13:10:46.999Z</time></trkpt><trkpt lat="45.0916371843143" lon="9.958903913247257"><ele>37.0</ele><time>2026-04-25T13:10:47.999Z</time></trkpt><trkpt lat="45.091649917857964" lon="9.95902686660133"><ele>37.0</ele><time>2026-04-25T13:10:48.999Z</time></trkpt><trkpt lat="45.0916611318696" lon="9.9591467388803"><ele>37.0</ele><time>2026-04-25T13:10:49.999Z</time></trkpt><trkpt lat="45.09167076147492" lon="9.959266810884172"><ele>37.0</ele><time>2026-04-25T13:10:50.999Z</time></trkpt><trkpt lat="45.091684552164246" lon="9.959385548848587"><ele>37.0</ele><time>2026-04-25T13:10:51.999Z</time></trkpt><trkpt lat="45.091696926530844" lon="9.959500486386306"><ele>37.0</ele><time>2026-04-25T13:10:52.999Z</time></trkpt><trkpt lat="45.091706096295674" lon="9.95961550458685"><ele>37.16666666666667</ele><time>2026-04-25T13:10:53.999Z</time></trkpt><trkpt lat="45.09171676384605" lon="9.959737391086051"><ele>37.333333333333336</ele><time>2026-04-25T13:10:54.999Z</time></trkpt><trkpt lat="45.0917303610679" lon="9.95985972962073"><ele>37.5</ele><time>2026-04-25T13:10:55.999Z</time></trkpt><trkpt lat="45.091743325510436" lon="9.959985131681623"><ele>37.666666666666664</ele><time>2026-04-25T13:10:56.999Z</time></trkpt><trkpt lat="45.09175376744284" lon="9.960110368722004"><ele>37.83333333333333</ele><time>2026-04-25T13:10:57.999Z</time></trkpt><trkpt lat="45.09176537306495" lon="9.960232844019623"><ele>38.0</ele><time>2026-04-25T13:10:58.999Z</time></trkpt><trkpt lat="45.09177634596728" lon="9.960351932011044"><ele>38.0</ele><time>2026-04-25T13:10:59.999Z</time></trkpt><trkpt lat="45.091787608582806" lon="9.960471829788139"><ele>38.0</ele><time>2026-04-25T13:11:00.999Z</time></trkpt><trkpt lat="45.091798127378084" lon="9.960596016945498"><ele>38.0</ele><time>2026-04-25T13:11:01.999Z</time></trkpt><trkpt lat="45.09181064559675" lon="9.960723403141234"><ele>38.0</ele><time>2026-04-25T13:11:02.999Z</time></trkpt><trkpt lat="45.09182413448102" lon="9.960851238853081"><ele>38.0</ele><time>2026-04-25T13:11:03.999Z</time></trkpt><trkpt lat="45.09183744709957" lon="9.960973450797368"><ele>38.0</ele><time>2026-04-25T13:11:04.999Z</time></trkpt><trkpt lat="45.091847860319405" lon="9.961094858211725"><ele>38.0</ele><time>2026-04-25T13:11:05.999Z</time></trkpt><trkpt lat="45.09186036026642" lon="9.961220704633236"><ele>38.0</ele><time>2026-04-25T13:11:06.999Z</time></trkpt><trkpt lat="45.091872984904526" lon="9.961340907762658"><ele>38.0</ele><time>2026-04-25T13:11:07.999Z</time></trkpt><trkpt lat="45.09188492238238" lon="9.961465868628776"><ele>38.0</ele><time>2026-04-25T13:11:08.999Z</time></trkpt><trkpt lat="45.091898263774105" lon="9.961590750198352"><ele>38.0</ele><time>2026-04-25T13:11:09.999Z</time></trkpt><trkpt lat="45.091911542637796" lon="9.961716671175418"><ele>38.0</ele><time>2026-04-25T13:11:10.999Z</time></trkpt><trkpt lat="45.09192430912779" lon="9.961839123945326"><ele>38.0</ele><time>2026-04-25T13:11:11.999Z</time></trkpt><trkpt lat="45.091936209926615" lon="9.961960707530348"><ele>38.0</ele><time>2026-04-25T13:11:12.999Z</time></trkpt><trkpt lat="45.09194641066215" lon="9.962082201465197"><ele>38.0</ele><time>2026-04-25T13:11:13.999Z</time></trkpt><trkpt lat="45.09196118512155" lon="9.962205766460299"><ele>38.0</ele><time>2026-04-25T13:11:14.999Z</time></trkpt><trkpt lat="45.0919745615744" lon="9.962325131673056"><ele>38.0</ele><time>2026-04-25T13:11:15.999Z</time></trkpt><trkpt lat="45.09198578642058" lon="9.962451363097339"><ele>38.0</ele><time>2026-04-25T13:11:16.999Z</time></trkpt><trkpt lat="45.09199830623562" lon="9.962575874752602"><ele>38.199999999999996</ele><time>2026-04-25T13:11:17.999Z</time></trkpt><trkpt lat="45.09201153560613" lon="9.962700275868817"><ele>38.4</ele><time>2026-04-25T13:11:18.999Z</time></trkpt><trkpt lat="45.092025235345375" lon="9.962827111422543"><ele>38.599999999999994</ele><time>2026-04-25T13:11:19.999Z</time></trkpt><trkpt lat="45.09203818504378" lon="9.962956340720371"><ele>38.8</ele><time>2026-04-25T13:11:20.999Z</time></trkpt><trkpt lat="45.09204988263965" lon="9.963086869412418"><ele>39.0</ele><time>2026-04-25T13:11:21.999Z</time></trkpt><trkpt lat="45.092063676710026" lon="9.963215009013494"><ele>39.0</ele><time>2026-04-25T13:11:23Z</time></trkpt><trkpt lat="45.09207746680187" lon="9.9633375312144"><ele>39.0</ele><time>2026-04-25T13:11:24Z</time></trkpt><trkpt lat="45.09209203591011" lon="9.963463070069974"><ele>39.0</ele><time>2026-04-25T13:11:25Z</time></trkpt><trkpt lat="45.092105492692774" lon="9.963586251709755"><ele>39.0</ele><time>2026-04-25T13:11:26Z</time></trkpt><trkpt lat="45.0921194290196" lon="9.963707552078532"><ele>39.0</ele><time>2026-04-25T13:11:27Z</time></trkpt><trkpt lat="45.09213380534092" lon="9.963827389890024"><ele>39.0</ele><time>2026-04-25T13:11:28Z</time></trkpt><trkpt lat="45.09214688968705" lon="9.963949753053516"><ele>38.833333333333336</ele><time>2026-04-25T13:11:29Z</time></trkpt><trkpt lat="45.09215960766492" lon="9.964073468897476"><ele>38.666666666666664</ele><time>2026-04-25T13:11:30Z</time></trkpt><trkpt lat="45.092172379609416" lon="9.964195959606494"><ele>38.5</ele><time>2026-04-25T13:11:31Z</time></trkpt><trkpt lat="45.092183582111815" lon="9.964317415223013"><ele>38.33333333333333</ele><time>2026-04-25T13:11:32Z</time></trkpt><trkpt lat="45.0921966645071" lon="9.964436047932928"><ele>38.166666666666664</ele><time>2026-04-25T13:11:33Z</time></trkpt><trkpt lat="45.092206953104835" lon="9.964554891175771"><ele>38.0</ele><time>2026-04-25T13:11:34Z</time></trkpt><trkpt lat="45.09221737175684" lon="9.964677112262548"><ele>37.83333333333333</ele><time>2026-04-25T13:11:35Z</time></trkpt><trkpt lat="45.09222793825357" lon="9.964801276303675"><ele>37.666666666666664</ele><time>2026-04-25T13:11:36Z</time></trkpt><trkpt lat="45.09224080255386" lon="9.964922813625751"><ele>37.5</ele><time>2026-04-25T13:11:37Z</time></trkpt><trkpt lat="45.092256088550045" lon="9.965048739111028"><ele>37.333333333333336</ele><time>2026-04-25T13:11:38Z</time></trkpt><trkpt lat="45.09227269724073" lon="9.965172701838206"><ele>37.16666666666667</ele><time>2026-04-25T13:11:39Z</time></trkpt><trkpt lat="45.09229049066783" lon="9.965298116990116"><ele>37.0</ele><time>2026-04-25T13:11:40Z</time></trkpt><trkpt lat="45.09231009322138" lon="9.965422749861611"><ele>36.800000000000004</ele><time>2026-04-25T13:11:41Z</time></trkpt><trkpt lat="45.092327037179395" lon="9.965546507847952"><ele>36.6</ele><time>2026-04-25T13:11:42Z</time></trkpt><trkpt lat="45.09234347728041" lon="9.965669302259721"><ele>36.400000000000006</ele><time>2026-04-25T13:11:43Z</time></trkpt><trkpt lat="45.09236574319475" lon="9.965793017960047"><ele>36.2</ele><time>2026-04-25T13:11:44Z</time></trkpt><trkpt lat="45.09239306012031" lon="9.96591649949186"><ele>36.0</ele><time>2026-04-25T13:11:45Z</time></trkpt><trkpt lat="45.09242351830343" lon="9.966039663447935"><ele>36.166666666666664</ele><time>2026-04-25T13:11:46Z</time></trkpt><trkpt lat="45.09245712049359" lon="9.966157784319053"><ele>36.333333333333336</ele><time>2026-04-25T13:11:47Z</time></trkpt><trkpt lat="45.09249050070917" lon="9.966272392625143"><ele>36.5</ele><time>2026-04-25T13:11:48Z</time></trkpt><trkpt lat="45.09252238858203" lon="9.966388115728217"><ele>36.66666666666667</ele><time>2026-04-25T13:11:49Z</time></trkpt><trkpt lat="45.0925585762641" lon="9.966501523723391"><ele>36.833333333333336</ele><time>2026-04-25T13:11:50Z</time></trkpt><trkpt lat="45.092598656844245" lon="9.966614898926457"><ele>37.0</ele><time>2026-04-25T13:11:51Z</time></trkpt><trkpt lat="45.09264110859857" lon="9.966727999230702"><ele>37.0</ele><time>2026-04-25T13:11:52Z</time></trkpt><trkpt lat="45.092684172922475" lon="9.966841263767192"><ele>37.0</ele><time>2026-04-25T13:11:53Z</time></trkpt><trkpt lat="45.092727351288495" lon="9.966949952902995"><ele>37.0</ele><time>2026-04-25T13:11:54Z</time></trkpt><trkpt lat="45.092770842338226" lon="9.96706229750092"><ele>37.0</ele><time>2026-04-25T13:11:55Z</time></trkpt><trkpt lat="45.092811566581794" lon="9.96717624628717"><ele>37.0</ele><time>2026-04-25T13:11:56Z</time></trkpt><trkpt lat="45.09285458139876" lon="9.96729059550598"><ele>37.0</ele><time>2026-04-25T13:11:57Z</time></trkpt><trkpt lat="45.092898818871184" lon="9.967402106983764"><ele>37.0</ele><time>2026-04-25T13:11:58Z</time></trkpt><trkpt lat="45.09294329597477" lon="9.967514852876413"><ele>37.0</ele><time>2026-04-25T13:11:59Z</time></trkpt><trkpt lat="45.092985737639665" lon="9.967626419566233"><ele>37.0</ele><time>2026-04-25T13:12:00Z</time></trkpt><trkpt lat="45.09302987332835" lon="9.967739468350755"><ele>37.0</ele><time>2026-04-25T13:12:01Z</time></trkpt><trkpt lat="45.093074125222756" lon="9.967851050612294"><ele>37.0</ele><time>2026-04-25T13:12:02Z</time></trkpt><trkpt lat="45.09311643437683" lon="9.96796438341767"><ele>37.0</ele><time>2026-04-25T13:12:03Z</time></trkpt><trkpt lat="45.09315932721158" lon="9.96807672991249"><ele>37.0</ele><time>2026-04-25T13:12:04Z</time></trkpt><trkpt lat="45.09320278134487" lon="9.968188278660042"><ele>37.0</ele><time>2026-04-25T13:12:05Z</time></trkpt><trkpt lat="45.093244874224645" lon="9.96830065750997"><ele>37.0</ele><time>2026-04-25T13:12:06Z</time></trkpt><trkpt lat="45.0932878463667" lon="9.968410528822226"><ele>37.0</ele><time>2026-04-25T13:12:07Z</time></trkpt><trkpt lat="45.09333015676712" lon="9.968523084310549"><ele>37.0</ele><time>2026-04-25T13:12:08Z</time></trkpt><trkpt lat="45.09337450654285" lon="9.968633595231378"><ele>37.0</ele><time>2026-04-25T13:12:09Z</time></trkpt><trkpt lat="45.093419792150435" lon="9.968745280582855"><ele>37.0</ele><time>2026-04-25T13:12:10Z</time></trkpt><trkpt lat="45.09346340854066" lon="9.9688584886413"><ele>37.0</ele><time>2026-04-25T13:12:11Z</time></trkpt><trkpt lat="45.093507402216865" lon="9.96897117608876"><ele>37.0</ele><time>2026-04-25T13:12:12Z</time></trkpt><trkpt lat="45.09355167251184" lon="9.96908384046869"><ele>36.6</ele><time>2026-04-25T13:12:13Z</time></trkpt><trkpt lat="45.09359640751376" lon="9.969195450011265"><ele>36.2</ele><time>2026-04-25T13:12:14Z</time></trkpt><trkpt lat="45.09363937547641" lon="9.969309168000915"><ele>35.8</ele><time>2026-04-25T13:12:15Z</time></trkpt><trkpt lat="45.09368124478167" lon="9.969421851496465"><ele>35.4</ele><time>2026-04-25T13:12:16Z</time></trkpt><trkpt lat="45.09372421932494" lon="9.969533588389563"><ele>35.0</ele><time>2026-04-25T13:12:17Z</time></trkpt><trkpt lat="45.09376765181441" lon="9.969644646456533"><ele>35.0</ele><time>2026-04-25T13:12:18Z</time></trkpt><trkpt lat="45.093810198648036" lon="9.969753409674771"><ele>35.0</ele><time>2026-04-25T13:12:19Z</time></trkpt><trkpt lat="45.09385032287797" lon="9.969865067641615"><ele>35.0</ele><time>2026-04-25T13:12:20Z</time></trkpt><trkpt lat="45.09389505745525" lon="9.969975272290338"><ele>35.0</ele><time>2026-04-25T13:12:21Z</time></trkpt><trkpt lat="45.09393949294113" lon="9.970085831007887"><ele>35.0</ele><time>2026-04-25T13:12:22Z</time></trkpt><trkpt lat="45.09398249673259" lon="9.970198427758158"><ele>35.0</ele><time>2026-04-25T13:12:23Z</time></trkpt><trkpt lat="45.09402556574658" lon="9.97030896890105"><ele>35.0</ele><time>2026-04-25T13:12:24Z</time></trkpt><trkpt lat="45.09406809294033" lon="9.970416893367213"><ele>35.0</ele><time>2026-04-25T13:12:24.999Z</time></trkpt><trkpt lat="45.09410863614529" lon="9.970525231099243"><ele>35.0</ele><time>2026-04-25T13:12:25.999Z</time></trkpt><trkpt lat="45.094150220604874" lon="9.970634241056453"><ele>35.0</ele><time>2026-04-25T13:12:26.999Z</time></trkpt><trkpt lat="45.094192967945695" lon="9.970743848191189"><ele>35.0</ele><time>2026-04-25T13:12:27.999Z</time></trkpt><trkpt lat="45.09423661334444" lon="9.970858627761043"><ele>35.0</ele><time>2026-04-25T13:12:28.999Z</time></trkpt><trkpt lat="45.09427949771876" lon="9.970968875114048"><ele>35.0</ele><time>2026-04-25T13:12:29.999Z</time></trkpt><trkpt lat="45.09432394564197" lon="9.97108001473141"><ele>35.0</ele><time>2026-04-25T13:12:30.999Z</time></trkpt><trkpt lat="45.09436897575411" lon="9.971191527467951"><ele>35.0</ele><time>2026-04-25T13:12:31.999Z</time></trkpt><trkpt lat="45.09441068868228" lon="9.971302807791298"><ele>35.0</ele><time>2026-04-25T13:12:32.999Z</time></trkpt><trkpt lat="45.094456053831905" lon="9.971413130224178"><ele>35.0</ele><time>2026-04-25T13:12:33.999Z</time></trkpt><trkpt lat="45.094499278683955" lon="9.971520736431353"><ele>35.0</ele><time>2026-04-25T13:12:34.999Z</time></trkpt><trkpt lat="45.09454317865078" lon="9.971629513775245"><ele>35.0</ele><time>2026-04-25T13:12:35.999Z</time></trkpt><trkpt lat="45.0945899291169" lon="9.971739640548824"><ele>35.0</ele><time>2026-04-25T13:12:36.999Z</time></trkpt><trkpt lat="45.09463569919569" lon="9.971851882687822"><ele>35.0</ele><time>2026-04-25T13:12:37.999Z</time></trkpt><trkpt lat="45.09467999609102" lon="9.971964999957725"><ele>35.0</ele><time>2026-04-25T13:12:38.999Z</time></trkpt><trkpt lat="45.09472426623519" lon="9.972079290079922"><ele>35.0</ele><time>2026-04-25T13:12:39.999Z</time></trkpt><trkpt lat="45.094769973439476" lon="9.9721925687387"><ele>35.0</ele><time>2026-04-25T13:12:40.999Z</time></trkpt><trkpt lat="45.09481734110497" lon="9.972306108322258"><ele>35.0</ele><time>2026-04-25T13:12:41.999Z</time></trkpt><trkpt lat="45.09486172880559" lon="9.972422091472675"><ele>35.0</ele><time>2026-04-25T13:12:42.999Z</time></trkpt><trkpt lat="45.094910046296064" lon="9.972537737593056"><ele>35.0</ele><time>2026-04-25T13:12:43.999Z</time></trkpt><trkpt lat="45.09495685340086" lon="9.972651723849019"><ele>35.0</ele><time>2026-04-25T13:12:44.999Z</time></trkpt><trkpt lat="45.095001914094325" lon="9.972766820461912"><ele>35.4</ele><time>2026-04-25T13:12:45.999Z</time></trkpt><trkpt lat="45.095047683822855" lon="9.972880564825955"><ele>35.8</ele><time>2026-04-25T13:12:46.999Z</time></trkpt><trkpt lat="45.09509135443806" lon="9.972994554157578"><ele>36.2</ele><time>2026-04-25T13:12:47.999Z</time></trkpt><trkpt lat="45.095134140141106" lon="9.973111537537708"><ele>36.6</ele><time>2026-04-25T13:12:48.999Z</time></trkpt><trkpt lat="45.09517451850131" lon="9.973228023240475"><ele>37.0</ele><time>2026-04-25T13:12:49.999Z</time></trkpt><trkpt lat="45.095214777307554" lon="9.973342650454127"><ele>37.16666666666667</ele><time>2026-04-25T13:12:50.999Z</time></trkpt><trkpt lat="45.09525425891989" lon="9.973454110772733"><ele>37.333333333333336</ele><time>2026-04-25T13:12:51.999Z</time></trkpt><trkpt lat="45.09529376864252" lon="9.973561933349172"><ele>37.5</ele><time>2026-04-25T13:12:52.999Z</time></trkpt><trkpt lat="45.09533553951951" lon="9.97367398163765"><ele>37.666666666666664</ele><time>2026-04-25T13:12:53.999Z</time></trkpt><trkpt lat="45.09537970414078" lon="9.973788476062627"><ele>37.83333333333333</ele><time>2026-04-25T13:12:54.999Z</time></trkpt><trkpt lat="45.095423703361924" lon="9.973901659974347"><ele>38.0</ele><time>2026-04-25T13:12:55.999Z</time></trkpt><trkpt lat="45.09547002900073" lon="9.974015931297957"><ele>38.0</ele><time>2026-04-25T13:12:56.999Z</time></trkpt><trkpt lat="45.09551284998938" lon="9.974127816141326"><ele>38.0</ele><time>2026-04-25T13:12:57.999Z</time></trkpt><trkpt lat="45.0955586471304" lon="9.974240851508286"><ele>38.0</ele><time>2026-04-25T13:12:58.999Z</time></trkpt><trkpt lat="45.09560442836548" lon="9.974349644580311"><ele>38.0</ele><time>2026-04-25T13:12:59.999Z</time></trkpt><trkpt lat="45.095649791723105" lon="9.974462381885184"><ele>38.0</ele><time>2026-04-25T13:13:00.999Z</time></trkpt><trkpt lat="45.0956956651791" lon="9.974576241988688"><ele>38.0</ele><time>2026-04-25T13:13:01.999Z</time></trkpt><trkpt lat="45.09574070800697" lon="9.974689955148772"><ele>38.0</ele><time>2026-04-25T13:13:02.999Z</time></trkpt><trkpt lat="45.09578841397442" lon="9.974800845328554"><ele>38.0</ele><time>2026-04-25T13:13:03.999Z</time></trkpt><trkpt lat="45.09583586618521" lon="9.974909753266589"><ele>38.0</ele><time>2026-04-25T13:13:04.999Z</time></trkpt><trkpt lat="45.09588455883575" lon="9.975019443011837"><ele>38.0</ele><time>2026-04-25T13:13:05.999Z</time></trkpt><trkpt lat="45.09593456710613" lon="9.975126115926539"><ele>38.0</ele><time>2026-04-25T13:13:06.999Z</time></trkpt><trkpt lat="45.095984238260364" lon="9.97523532292442"><ele>38.0</ele><time>2026-04-25T13:13:07.999Z</time></trkpt><trkpt lat="45.09603446057017" lon="9.97534130354228"><ele>38.0</ele><time>2026-04-25T13:13:08.999Z</time></trkpt><trkpt lat="45.096087635548464" lon="9.975450656032477"><ele>38.0</ele><time>2026-04-25T13:13:09.999Z</time></trkpt><trkpt lat="45.096144834439116" lon="9.975556650163885"><ele>38.0</ele><time>2026-04-25T13:13:10.999Z</time></trkpt><trkpt lat="45.096204156485555" lon="9.975660908990355"><ele>38.0</ele><time>2026-04-25T13:13:11.999Z</time></trkpt><trkpt lat="45.09626548663431" lon="9.97576366442774"><ele>38.0</ele><time>2026-04-25T13:13:12.999Z</time></trkpt><trkpt lat="45.09632801859134" lon="9.97586581174744"><ele>38.0</ele><time>2026-04-25T13:13:13.999Z</time></trkpt><trkpt lat="45.09639211435938" lon="9.975961122918699"><ele>38.0</ele><time>2026-04-25T13:13:14.999Z</time></trkpt><trkpt lat="45.0964566264398" lon="9.976057442637952"><ele>38.0</ele><time>2026-04-25T13:13:15.999Z</time></trkpt><trkpt lat="45.09651893402494" lon="9.976154794438088"><ele>38.0</ele><time>2026-04-25T13:13:16.999Z</time></trkpt><trkpt lat="45.09658093802842" lon="9.976252734063905"><ele>38.0</ele><time>2026-04-25T13:13:17.999Z</time></trkpt><trkpt lat="45.09664732391118" lon="9.976347526191049"><ele>38.0</ele><time>2026-04-25T13:13:18.999Z</time></trkpt><trkpt lat="45.09671364542973" lon="9.976445276202808"><ele>38.0</ele><time>2026-04-25T13:13:19.999Z</time></trkpt><trkpt lat="45.09677583332877" lon="9.97654233466562"><ele>38.0</ele><time>2026-04-25T13:13:20.999Z</time></trkpt><trkpt lat="45.09683973120103" lon="9.976637831392685"><ele>38.199999999999996</ele><time>2026-04-25T13:13:21.999Z</time></trkpt><trkpt lat="45.096900826326525" lon="9.97673467037482"><ele>38.4</ele><time>2026-04-25T13:13:22.999Z</time></trkpt><trkpt lat="45.09696448733009" lon="9.976830936126085"><ele>38.599999999999994</ele><time>2026-04-25T13:13:23.999Z</time></trkpt><trkpt lat="45.0970264355629" lon="9.976926961237336"><ele>38.8</ele><time>2026-04-25T13:13:24.998Z</time></trkpt><trkpt lat="45.097087984604904" lon="9.977022260510843"><ele>39.0</ele><time>2026-04-25T13:13:25.998Z</time></trkpt><trkpt lat="45.09715053824249" lon="9.977116551962478"><ele>39.0</ele><time>2026-04-25T13:13:26.998Z</time></trkpt><trkpt lat="45.09721395060747" lon="9.97721010639032"><ele>39.0</ele><time>2026-04-25T13:13:27.998Z</time></trkpt><trkpt lat="45.09727661660409" lon="9.977302730206672"><ele>39.0</ele><time>2026-04-25T13:13:29Z</time></trkpt><trkpt lat="45.097339920039126" lon="9.977394929285863"><ele>39.0</ele><time>2026-04-25T13:13:30Z</time></trkpt><trkpt lat="45.0974020606941" lon="9.977488253404552"><ele>39.0</ele><time>2026-04-25T13:13:31Z</time></trkpt><trkpt lat="45.09746631274064" lon="9.977580931435357"><ele>38.6</ele><time>2026-04-25T13:13:32Z</time></trkpt><trkpt lat="45.09753306737969" lon="9.977680182539853"><ele>38.2</ele><time>2026-04-25T13:13:33Z</time></trkpt><trkpt lat="45.09759623549397" lon="9.977775491378324"><ele>37.800000000000004</ele><time>2026-04-25T13:13:34Z</time></trkpt><trkpt lat="45.097660319150414" lon="9.977873242104542"><ele>37.4</ele><time>2026-04-25T13:13:35Z</time></trkpt><trkpt lat="45.097726224066214" lon="9.977971356431283"><ele>37.0</ele><time>2026-04-25T13:13:36Z</time></trkpt><trkpt lat="45.09779038526196" lon="9.978066769961073"><ele>37.0</ele><time>2026-04-25T13:13:37Z</time></trkpt><trkpt lat="45.097853092775416" lon="9.978163899896016"><ele>37.0</ele><time>2026-04-25T13:13:38Z</time></trkpt><trkpt lat="45.0979176732342" lon="9.978258634373127"><ele>37.0</ele><time>2026-04-25T13:13:39Z</time></trkpt><trkpt lat="45.09798264011172" lon="9.97834797485278"><ele>37.0</ele><time>2026-04-25T13:13:40Z</time></trkpt><trkpt lat="45.098045619756505" lon="9.978430789341173"><ele>37.0</ele><time>2026-04-25T13:13:41Z</time></trkpt><trkpt lat="45.098110982380504" lon="9.978514864261578"><ele>37.0</ele><time>2026-04-25T13:13:42Z</time></trkpt><trkpt lat="45.09817705504078" lon="9.978599593273108"><ele>37.0</ele><time>2026-04-25T13:13:43Z</time></trkpt><trkpt lat="45.09824764651283" lon="9.978682936145379"><ele>37.0</ele><time>2026-04-25T13:13:44Z</time></trkpt><trkpt lat="45.09832071800612" lon="9.978765741893454"><ele>37.0</ele><time>2026-04-25T13:13:45Z</time></trkpt><trkpt lat="45.09839394769599" lon="9.978842922460347"><ele>37.0</ele><time>2026-04-25T13:13:46Z</time></trkpt><trkpt lat="45.09846712800084" lon="9.978916575975905"><ele>37.0</ele><time>2026-04-25T13:13:47Z</time></trkpt><trkpt lat="45.098541394421304" lon="9.978977232045715"><ele>37.0</ele><time>2026-04-25T13:13:48Z</time></trkpt><trkpt lat="45.09861711821127" lon="9.979038836212931"><ele>37.0</ele><time>2026-04-25T13:13:49Z</time></trkpt><trkpt lat="45.09869731596485" lon="9.979102083073627"><ele>37.0</ele><time>2026-04-25T13:13:50Z</time></trkpt><trkpt lat="45.098777814781414" lon="9.979156278202554"><ele>37.0</ele><time>2026-04-25T13:13:51Z</time></trkpt><trkpt lat="45.098864705285045" lon="9.979205752132621"><ele>37.0</ele><time>2026-04-25T13:13:52Z</time></trkpt><trkpt lat="45.098950333125515" lon="9.979257700033056"><ele>37.16666666666667</ele><time>2026-04-25T13:13:53Z</time></trkpt><trkpt lat="45.09903702586601" lon="9.97930851174861"><ele>37.333333333333336</ele><time>2026-04-25T13:13:54Z</time></trkpt><trkpt lat="45.09911774305327" lon="9.97934940801746"><ele>37.5</ele><time>2026-04-25T13:13:55Z</time></trkpt><trkpt lat="45.09919966102097" lon="9.979387396350555"><ele>37.666666666666664</ele><time>2026-04-25T13:13:56Z</time></trkpt><trkpt lat="45.09928432622596" lon="9.979427115750147"><ele>37.83333333333333</ele><time>2026-04-25T13:13:57Z</time></trkpt><trkpt lat="45.09937228271423" lon="9.979465032127973"><ele>38.0</ele><time>2026-04-25T13:13:58Z</time></trkpt><trkpt lat="45.099460469504066" lon="9.97950025890348"><ele>37.6</ele><time>2026-04-25T13:13:59Z</time></trkpt><trkpt lat="45.099548946309795" lon="9.979537617742544"><ele>37.199999999999996</ele><time>2026-04-25T13:14:00Z</time></trkpt><trkpt lat="45.09963541353978" lon="9.979579437415264"><ele>36.8</ele><time>2026-04-25T13:14:01Z</time></trkpt><trkpt lat="45.09972373513393" lon="9.979621879054932"><ele>36.4</ele><time>2026-04-25T13:14:02Z</time></trkpt><trkpt lat="45.099812249850125" lon="9.97966193520869"><ele>36.0</ele><time>2026-04-25T13:14:03Z</time></trkpt><trkpt lat="45.09989979810562" lon="9.979700762924189"><ele>36.0</ele><time>2026-04-25T13:14:04Z</time></trkpt><trkpt lat="45.09998766225421" lon="9.979738217669132"><ele>36.0</ele><time>2026-04-25T13:14:05Z</time></trkpt><trkpt lat="45.10007312677135" lon="9.97977702747281"><ele>36.0</ele><time>2026-04-25T13:14:06Z</time></trkpt><trkpt lat="45.10015679119829" lon="9.97981533386038"><ele>36.0</ele><time>2026-04-25T13:14:07Z</time></trkpt><trkpt lat="45.10024306757058" lon="9.979852395986715"><ele>36.0</ele><time>2026-04-25T13:14:08Z</time></trkpt><trkpt lat="45.10032934221012" lon="9.979892000435491"><ele>36.0</ele><time>2026-04-25T13:14:09Z</time></trkpt><trkpt lat="45.100413387429064" lon="9.979927067969573"><ele>36.0</ele><time>2026-04-25T13:14:10Z</time></trkpt><trkpt lat="45.10049518045105" lon="9.979963485147675"><ele>36.0</ele><time>2026-04-25T13:14:11Z</time></trkpt><trkpt lat="45.10057690022755" lon="9.980003544261214"><ele>36.0</ele><time>2026-04-25T13:14:12Z</time></trkpt><trkpt lat="45.100661478626705" lon="9.980041596736555"><ele>36.0</ele><time>2026-04-25T13:14:13Z</time></trkpt><trkpt lat="45.100744236059654" lon="9.980079289102965"><ele>36.0</ele><time>2026-04-25T13:14:14Z</time></trkpt><trkpt lat="45.100827918127074" lon="9.980116023105444"><ele>36.5</ele><time>2026-04-25T13:14:15Z</time></trkpt><trkpt lat="45.10091006570511" lon="9.9801526156369"><ele>37.0</ele><time>2026-04-25T13:14:16Z</time></trkpt><trkpt lat="45.10099251869318" lon="9.980185091464561"><ele>37.5</ele><time>2026-04-25T13:14:17Z</time></trkpt><trkpt lat="45.101071572830975" lon="9.980222342198521"><ele>38.0</ele><time>2026-04-25T13:14:18Z</time></trkpt><trkpt lat="45.10115146828162" lon="9.980257972098105"><ele>38.5</ele><time>2026-04-25T13:14:19Z</time></trkpt><trkpt lat="45.10123129771087" lon="9.980295224845843"><ele>39.0</ele><time>2026-04-25T13:14:20Z</time></trkpt><trkpt lat="45.10131370394666" lon="9.980332149886353"><ele>39.0</ele><time>2026-04-25T13:14:21Z</time></trkpt><trkpt lat="45.101397038427606" lon="9.980370647130485"><ele>39.0</ele><time>2026-04-25T13:14:22Z</time></trkpt><trkpt lat="45.10147740348123" lon="9.980408276099055"><ele>39.0</ele><time>2026-04-25T13:14:23Z</time></trkpt><trkpt lat="45.10155997068676" lon="9.980447014629757"><ele>39.0</ele><time>2026-04-25T13:14:24Z</time></trkpt><trkpt lat="45.10164182962888" lon="9.980486179755362"><ele>39.0</ele><time>2026-04-25T13:14:25Z</time></trkpt><trkpt lat="45.101722867760806" lon="9.980527308543957"><ele>39.0</ele><time>2026-04-25T13:14:26Z</time></trkpt><trkpt lat="45.10180343216278" lon="9.980567895680865"><ele>39.0</ele><time>2026-04-25T13:14:27Z</time></trkpt><trkpt lat="45.10188428658796" lon="9.980609055072149"><ele>39.0</ele><time>2026-04-25T13:14:27.999Z</time></trkpt><trkpt lat="45.101962141718126" lon="9.980656215268246"><ele>39.0</ele><time>2026-04-25T13:14:28.999Z</time></trkpt><trkpt lat="45.1020389353402" lon="9.980707000224207"><ele>39.0</ele><time>2026-04-25T13:14:29.999Z</time></trkpt><trkpt lat="45.10211299253989" lon="9.980760852688322"><ele>39.0</ele><time>2026-04-25T13:14:30.999Z</time></trkpt><trkpt lat="45.10218873823836" lon="9.9808175531072"><ele>39.0</ele><time>2026-04-25T13:14:31.999Z</time></trkpt><trkpt lat="45.10226120709604" lon="9.980879426474173"><ele>39.0</ele><time>2026-04-25T13:14:32.999Z</time></trkpt><trkpt lat="45.10232802500618" lon="9.98094561351913"><ele>39.0</ele><time>2026-04-25T13:14:33.999Z</time></trkpt><trkpt lat="45.10239844581548" lon="9.981012813913814"><ele>39.0</ele><time>2026-04-25T13:14:34.999Z</time></trkpt><trkpt lat="45.10246577886295" lon="9.981085447662647"><ele>39.0</ele><time>2026-04-25T13:14:35.999Z</time></trkpt><trkpt lat="45.102530255884886" lon="9.981160260151857"><ele>39.0</ele><time>2026-04-25T13:14:36.999Z</time></trkpt><trkpt lat="45.10259455217161" lon="9.981239642391307"><ele>39.0</ele><time>2026-04-25T13:14:37.999Z</time></trkpt><trkpt lat="45.10265877847747" lon="9.981316566221054"><ele>39.0</ele><time>2026-04-25T13:14:38.999Z</time></trkpt><trkpt lat="45.102718922482154" lon="9.981398895786276"><ele>39.0</ele><time>2026-04-25T13:14:39.999Z</time></trkpt><trkpt lat="45.10277634582109" lon="9.981485722968769"><ele>39.0</ele><time>2026-04-25T13:14:40.999Z</time></trkpt><trkpt lat="45.102831217921526" lon="9.981570278630345"><ele>39.0</ele><time>2026-04-25T13:14:41.999Z</time></trkpt><trkpt lat="45.10288488322549" lon="9.981652318434577"><ele>39.0</ele><time>2026-04-25T13:14:42.999Z</time></trkpt><trkpt lat="45.10293478926727" lon="9.9817436421038"><ele>39.0</ele><time>2026-04-25T13:14:43.999Z</time></trkpt><trkpt lat="45.10298501986461" lon="9.981833476314117"><ele>39.0</ele><time>2026-04-25T13:14:44.999Z</time></trkpt><trkpt lat="45.1030347283755" lon="9.981931521295364"><ele>39.0</ele><time>2026-04-25T13:14:45.999Z</time></trkpt><trkpt lat="45.10308268366495" lon="9.982027347368598"><ele>39.0</ele><time>2026-04-25T13:14:46.999Z</time></trkpt><trkpt lat="45.10312652469689" lon="9.982130008201763"><ele>39.0</ele><time>2026-04-25T13:14:47.999Z</time></trkpt><trkpt lat="45.103169324714436" lon="9.982232215589333"><ele>39.0</ele><time>2026-04-25T13:14:48.999Z</time></trkpt><trkpt lat="45.10321287110608" lon="9.98233575111741"><ele>39.0</ele><time>2026-04-25T13:14:49.999Z</time></trkpt><trkpt lat="45.103256184283154" lon="9.982438483790688"><ele>38.666666666666664</ele><time>2026-04-25T13:14:50.999Z</time></trkpt><trkpt lat="45.10329599048262" lon="9.982534347123922"><ele>38.333333333333336</ele><time>2026-04-25T13:14:51.999Z</time></trkpt><trkpt lat="45.10333504038489" lon="9.9826305760349"><ele>38.0</ele><time>2026-04-25T13:14:52.999Z</time></trkpt><trkpt lat="45.103373839691095" lon="9.982731616673828"><ele>37.66666666666667</ele><time>2026-04-25T13:14:53.999Z</time></trkpt><trkpt lat="45.10341631558267" lon="9.982834761806782"><ele>37.333333333333336</ele><time>2026-04-25T13:14:54.999Z</time></trkpt><trkpt lat="45.10346072781668" lon="9.982938433528581"><ele>37.0</ele><time>2026-04-25T13:14:55.999Z</time></trkpt><trkpt lat="45.103503233766176" lon="9.983046257340398"><ele>37.0</ele><time>2026-04-25T13:14:56.999Z</time></trkpt><trkpt lat="45.10354828195914" lon="9.98315637088453"><ele>37.0</ele><time>2026-04-25T13:14:57.999Z</time></trkpt><trkpt lat="45.10359397126806" lon="9.983267669480295"><ele>37.0</ele><time>2026-04-25T13:14:58.999Z</time></trkpt><trkpt lat="45.1036403131974" lon="9.983382243704225"><ele>37.0</ele><time>2026-04-25T13:14:59.999Z</time></trkpt><trkpt lat="45.103688384656664" lon="9.983497648779231"><ele>37.0</ele><time>2026-04-25T13:15:00.999Z</time></trkpt><trkpt lat="45.10373662936476" lon="9.98361737832051"><ele>37.4</ele><time>2026-04-25T13:15:01.999Z</time></trkpt><trkpt lat="45.1037851529291" lon="9.98373900199386"><ele>37.800000000000004</ele><time>2026-04-25T13:15:02.999Z</time></trkpt><trkpt lat="45.10383454412444" lon="9.983859196568948"><ele>38.2</ele><time>2026-04-25T13:15:03.999Z</time></trkpt><trkpt lat="45.10388354073369" lon="9.983975579743914"><ele>38.6</ele><time>2026-04-25T13:15:04.999Z</time></trkpt><trkpt lat="45.103934962686466" lon="9.984098654657949"><ele>39.0</ele><time>2026-04-25T13:15:05.999Z</time></trkpt><trkpt lat="45.103984641011905" lon="9.984222781554353"><ele>39.0</ele><time>2026-04-25T13:15:06.999Z</time></trkpt><trkpt lat="45.10403599678616" lon="9.984347547335945"><ele>39.0</ele><time>2026-04-25T13:15:07.999Z</time></trkpt><trkpt lat="45.10408628588548" lon="9.984471911923825"><ele>39.0</ele><time>2026-04-25T13:15:08.999Z</time></trkpt><trkpt lat="45.10413709647602" lon="9.984596079677367"><ele>39.0</ele><time>2026-04-25T13:15:09.999Z</time></trkpt><trkpt lat="45.10418999529516" lon="9.98472374083954"><ele>39.0</ele><time>2026-04-25T13:15:10.999Z</time></trkpt><trkpt lat="45.104240829769985" lon="9.984847253222279"><ele>38.6</ele><time>2026-04-25T13:15:11.999Z</time></trkpt><trkpt lat="45.10429286017619" lon="9.98497361796547"><ele>38.2</ele><time>2026-04-25T13:15:12.999Z</time></trkpt><trkpt lat="45.1043447950838" lon="9.985101395075704"><ele>37.800000000000004</ele><time>2026-04-25T13:15:13.999Z</time></trkpt><trkpt lat="45.10439817289818" lon="9.985227432329902"><ele>37.4</ele><time>2026-04-25T13:15:14.999Z</time></trkpt><trkpt lat="45.104451797882625" lon="9.98535545343333"><ele>37.0</ele><time>2026-04-25T13:15:15.999Z</time></trkpt><trkpt lat="45.1045030114929" lon="9.985485353879392"><ele>37.0</ele><time>2026-04-25T13:15:16.999Z</time></trkpt><trkpt lat="45.1045544754581" lon="9.985615414349274"><ele>37.0</ele><time>2026-04-25T13:15:17.999Z</time></trkpt><trkpt lat="45.10460665075655" lon="9.985743494676072"><ele>37.0</ele><time>2026-04-25T13:15:18.999Z</time></trkpt><trkpt lat="45.10466025184663" lon="9.985872460119966"><ele>37.0</ele><time>2026-04-25T13:15:19.999Z</time></trkpt><trkpt lat="45.10471166394879" lon="9.986001647601592"><ele>37.0</ele><time>2026-04-25T13:15:20.999Z</time></trkpt><trkpt lat="45.10476242119022" lon="9.986131136340099"><ele>37.2</ele><time>2026-04-25T13:15:21.999Z</time></trkpt><trkpt lat="45.10481364678996" lon="9.986259204714328"><ele>37.400000000000006</ele><time>2026-04-25T13:15:22.999Z</time></trkpt><trkpt lat="45.10486561177157" lon="9.986386441092494"><ele>37.599999999999994</ele><time>2026-04-25T13:15:23.999Z</time></trkpt><trkpt lat="45.10491962721093" lon="9.986510379551"><ele>37.8</ele><time>2026-04-25T13:15:24.999Z</time></trkpt><trkpt lat="45.1049731593053" lon="9.986632324730214"><ele>38.0</ele><time>2026-04-25T13:15:25.999Z</time></trkpt><trkpt lat="45.105028237256484" lon="9.986751336237901"><ele>38.0</ele><time>2026-04-25T13:15:26.999Z</time></trkpt><trkpt lat="45.10508533329309" lon="9.986866911955923"><ele>38.0</ele><time>2026-04-25T13:15:27.998Z</time></trkpt><trkpt lat="45.105148296809105" lon="9.986968515255015"><ele>38.0</ele><time>2026-04-25T13:15:28.998Z</time></trkpt><trkpt lat="45.10521888155799" lon="9.987063842538278"><ele>38.0</ele><time>2026-04-25T13:15:29.998Z</time></trkpt><trkpt lat="45.105296110432484" lon="9.987156246549965"><ele>38.0</ele><time>2026-04-25T13:15:30.998Z</time></trkpt><trkpt lat="45.10537079476202" lon="9.98724170086462"><ele>38.0</ele><time>2026-04-25T13:15:31.998Z</time></trkpt><trkpt lat="45.10544699238759" lon="9.987326493684435"><ele>38.0</ele><time>2026-04-25T13:15:32.998Z</time></trkpt><trkpt lat="45.10552245847307" lon="9.987410998444497"><ele>38.0</ele><time>2026-04-25T13:15:33.998Z</time></trkpt><trkpt lat="45.105598741261346" lon="9.987498504996303"><ele>38.0</ele><time>2026-04-25T13:15:35Z</time></trkpt><trkpt lat="45.105673788185186" lon="9.987584860621544"><ele>38.0</ele><time>2026-04-25T13:15:36Z</time></trkpt><trkpt lat="45.10574963059432" lon="9.987669344920766"><ele>38.166666666666664</ele><time>2026-04-25T13:15:37Z</time></trkpt><trkpt lat="45.10582330246862" lon="9.98775391185669"><ele>38.33333333333333</ele><time>2026-04-25T13:15:38Z</time></trkpt><trkpt lat="45.105896983951745" lon="9.987837080422876"><ele>38.5</ele><time>2026-04-25T13:15:39Z</time></trkpt><trkpt lat="45.10596773105211" lon="9.987914021603993"><ele>38.666666666666664</ele><time>2026-04-25T13:15:40Z</time></trkpt><trkpt lat="45.10603348862645" lon="9.987986992035761"><ele>38.833333333333336</ele><time>2026-04-25T13:15:41Z</time></trkpt><trkpt lat="45.10609265604021" lon="9.988055069911459"><ele>39.0</ele><time>2026-04-25T13:15:42Z</time></trkpt><trkpt lat="45.106150508163076" lon="9.988116709536314"><ele>39.0</ele><time>2026-04-25T13:15:43Z</time></trkpt><trkpt lat="45.1062069123998" lon="9.988177484020715"><ele>39.0</ele><time>2026-04-25T13:15:44Z</time></trkpt><trkpt lat="45.10626178392721" lon="9.988239589267703"><ele>39.0</ele><time>2026-04-25T13:15:45Z</time></trkpt><trkpt lat="45.106315805882986" lon="9.98830276241216"><ele>39.0</ele><time>2026-04-25T13:15:46Z</time></trkpt><trkpt lat="45.10637455197777" lon="9.98836253586238"><ele>39.0</ele><time>2026-04-25T13:15:47Z</time></trkpt><trkpt lat="45.10642933230517" lon="9.988432445918734"><ele>39.0</ele><time>2026-04-25T13:15:48Z</time></trkpt><trkpt lat="45.10648754103033" lon="9.98850316721033"><ele>39.0</ele><time>2026-04-25T13:15:49Z</time></trkpt><trkpt lat="45.106550708348315" lon="9.988568354912685"><ele>39.333333333333336</ele><time>2026-04-25T13:15:50Z</time></trkpt><trkpt lat="45.106614336056424" lon="9.988629559575806"><ele>39.666666666666664</ele><time>2026-04-25T13:15:51Z</time></trkpt><trkpt lat="45.10667894263791" lon="9.988688856712583"><ele>40.0</ele><time>2026-04-25T13:15:52Z</time></trkpt><trkpt lat="45.10673834152151" lon="9.9887508501003"><ele>40.33333333333333</ele><time>2026-04-25T13:15:53Z</time></trkpt><trkpt lat="45.10679874989801" lon="9.988822783589596"><ele>40.666666666666664</ele><time>2026-04-25T13:15:54Z</time></trkpt><trkpt lat="45.106862678839995" lon="9.988895570829042"><ele>41.0</ele><time>2026-04-25T13:15:55Z</time></trkpt><trkpt lat="45.106926155302126" lon="9.988966611145763"><ele>41.0</ele><time>2026-04-25T13:15:56Z</time></trkpt><trkpt lat="45.106994373932544" lon="9.989038927677228"><ele>41.0</ele><time>2026-04-25T13:15:57Z</time></trkpt><trkpt lat="45.10706141500165" lon="9.989113563154577"><ele>41.0</ele><time>2026-04-25T13:15:58Z</time></trkpt><trkpt lat="45.10713100266743" lon="9.989190588007945"><ele>41.0</ele><time>2026-04-25T13:15:59Z</time></trkpt><trkpt lat="45.10720053779316" lon="9.989270287451856"><ele>41.0</ele><time>2026-04-25T13:16:00Z</time></trkpt><trkpt lat="45.1072740825009" lon="9.989345485303563"><ele>41.0</ele><time>2026-04-25T13:16:01Z</time></trkpt><trkpt lat="45.10734089141892" lon="9.989427931260764"><ele>40.4</ele><time>2026-04-25T13:16:02Z</time></trkpt><trkpt lat="45.10741611737669" lon="9.989508766815353"><ele>39.8</ele><time>2026-04-25T13:16:03Z</time></trkpt><trkpt lat="45.10749139282037" lon="9.989591767876256"><ele>39.199999999999996</ele><time>2026-04-25T13:16:04Z</time></trkpt><trkpt lat="45.107564939995804" lon="9.989679863956939"><ele>38.599999999999994</ele><time>2026-04-25T13:16:05Z</time></trkpt><trkpt lat="45.107640429301654" lon="9.989767741147983"><ele>38.0</ele><time>2026-04-25T13:16:06Z</time></trkpt><trkpt lat="45.107714839008146" lon="9.989858062142384"><ele>38.0</ele><time>2026-04-25T13:16:07Z</time></trkpt><trkpt lat="45.107789882790236" lon="9.989945420354092"><ele>38.0</ele><time>2026-04-25T13:16:08Z</time></trkpt><trkpt lat="45.10786580176313" lon="9.990033411006793"><ele>38.0</ele><time>2026-04-25T13:16:09Z</time></trkpt><trkpt lat="45.10794060376195" lon="9.99011932059187"><ele>38.0</ele><time>2026-04-25T13:16:10Z</time></trkpt><trkpt lat="45.10801741959815" lon="9.990209698302836"><ele>38.0</ele><time>2026-04-25T13:16:11Z</time></trkpt><trkpt lat="45.108094467382045" lon="9.990305154383089"><ele>38.199999999999996</ele><time>2026-04-25T13:16:12Z</time></trkpt><trkpt lat="45.108175129566966" lon="9.990395138994817"><ele>38.4</ele><time>2026-04-25T13:16:13Z</time></trkpt><trkpt lat="45.10825776965147" lon="9.990483452254022"><ele>38.599999999999994</ele><time>2026-04-25T13:16:14Z</time></trkpt><trkpt lat="45.10834077604438" lon="9.990574513955332"><ele>38.8</ele><time>2026-04-25T13:16:15Z</time></trkpt><trkpt lat="45.10842104635805" lon="9.990672269993732"><ele>39.0</ele><time>2026-04-25T13:16:16Z</time></trkpt><trkpt lat="45.10850332805462" lon="9.990766946576672"><ele>39.0</ele><time>2026-04-25T13:16:17Z</time></trkpt><trkpt lat="45.10858395019098" lon="9.990862616141156"><ele>39.0</ele><time>2026-04-25T13:16:18Z</time></trkpt><trkpt lat="45.108667972046284" lon="9.990959192507182"><ele>39.0</ele><time>2026-04-25T13:16:19Z</time></trkpt><trkpt lat="45.10875113998679" lon="9.991057113917115"><ele>39.0</ele><time>2026-04-25T13:16:20Z</time></trkpt><trkpt lat="45.10883882558765" lon="9.991156311724016"><ele>39.0</ele><time>2026-04-25T13:16:21Z</time></trkpt><trkpt lat="45.108918244884656" lon="9.991257405237446"><ele>39.0</ele><time>2026-04-25T13:16:22Z</time></trkpt><trkpt lat="45.109003590324626" lon="9.99135338780164"><ele>39.0</ele><time>2026-04-25T13:16:23Z</time></trkpt><trkpt lat="45.10908851847069" lon="9.991447821253331"><ele>39.0</ele><time>2026-04-25T13:16:24Z</time></trkpt><trkpt lat="45.10917398539615" lon="9.991543427600703"><ele>39.0</ele><time>2026-04-25T13:16:25Z</time></trkpt><trkpt lat="45.10925647796984" lon="9.991633523929863"><ele>39.0</ele><time>2026-04-25T13:16:26Z</time></trkpt><trkpt lat="45.10933648975616" lon="9.991725863488965"><ele>38.4</ele><time>2026-04-25T13:16:27Z</time></trkpt><trkpt lat="45.109416126501074" lon="9.991819433223656"><ele>37.8</ele><time>2026-04-25T13:16:28Z</time></trkpt><trkpt lat="45.10949247404501" lon="9.99191424744303"><ele>37.2</ele><time>2026-04-25T13:16:29Z</time></trkpt><trkpt lat="45.10957171958188" lon="9.991999128810242"><ele>36.6</ele><time>2026-04-25T13:16:30Z</time></trkpt><trkpt lat="45.1096515196876" lon="9.992082772070887"><ele>36.0</ele><time>2026-04-25T13:16:31Z</time></trkpt><trkpt lat="45.10973018428945" lon="9.992169235257936"><ele>36.0</ele><time>2026-04-25T13:16:31.999Z</time></trkpt><trkpt lat="45.10980615995509" lon="9.992258513424558"><ele>36.0</ele><time>2026-04-25T13:16:32.999Z</time></trkpt><trkpt lat="45.109884915299254" lon="9.992348119625227"><ele>36.0</ele><time>2026-04-25T13:16:33.999Z</time></trkpt><trkpt lat="45.10996472559151" lon="9.992437676471415"><ele>36.0</ele><time>2026-04-25T13:16:34.999Z</time></trkpt><trkpt lat="45.11004243322851" lon="9.992528274102959"><ele>36.0</ele><time>2026-04-25T13:16:35.999Z</time></trkpt><trkpt lat="45.11012262654628" lon="9.992621505358619"><ele>36.2</ele><time>2026-04-25T13:16:36.999Z</time></trkpt><trkpt lat="45.110200582706334" lon="9.992714170821872"><ele>36.400000000000006</ele><time>2026-04-25T13:16:37.999Z</time></trkpt><trkpt lat="45.110281233805345" lon="9.992805126041718"><ele>36.6</ele><time>2026-04-25T13:16:38.999Z</time></trkpt><trkpt lat="45.11035955740751" lon="9.992895228052195"><ele>36.800000000000004</ele><time>2026-04-25T13:16:39.999Z</time></trkpt><trkpt lat="45.11044142646054" lon="9.992984689156913"><ele>37.0</ele><time>2026-04-25T13:16:40.999Z</time></trkpt><trkpt lat="45.11051700002364" lon="9.993071280536602"><ele>37.0</ele><time>2026-04-25T13:16:41.999Z</time></trkpt><trkpt lat="45.11059592164255" lon="9.993156287860481"><ele>37.0</ele><time>2026-04-25T13:16:42.999Z</time></trkpt><trkpt lat="45.110672684046335" lon="9.993239938289747"><ele>37.0</ele><time>2026-04-25T13:16:43.999Z</time></trkpt><trkpt lat="45.11074767231575" lon="9.993322199157529"><ele>37.0</ele><time>2026-04-25T13:16:44.999Z</time></trkpt><trkpt lat="45.110824351456735" lon="9.993408013197092"><ele>37.0</ele><time>2026-04-25T13:16:45.999Z</time></trkpt><trkpt lat="45.1108997815306" lon="9.993493993325744"><ele>37.0</ele><time>2026-04-25T13:16:46.999Z</time></trkpt><trkpt lat="45.110976328767165" lon="9.993580625338868"><ele>37.0</ele><time>2026-04-25T13:16:47.999Z</time></trkpt><trkpt lat="45.1110536522308" lon="9.993663166755187"><ele>37.0</ele><time>2026-04-25T13:16:48.999Z</time></trkpt><trkpt lat="45.111131043249635" lon="9.993747151281736"><ele>37.0</ele><time>2026-04-25T13:16:49.999Z</time></trkpt><trkpt lat="45.11120789604634" lon="9.993830337153186"><ele>37.0</ele><time>2026-04-25T13:16:50.999Z</time></trkpt><trkpt lat="45.11128262456977" lon="9.993913063809677"><ele>37.0</ele><time>2026-04-25T13:16:51.999Z</time></trkpt><trkpt lat="45.11135740296488" lon="9.99399501001338"><ele>37.0</ele><time>2026-04-25T13:16:52.999Z</time></trkpt><trkpt lat="45.11143200031081" lon="9.994073307190252"><ele>37.0</ele><time>2026-04-25T13:16:53.999Z</time></trkpt><trkpt lat="45.11150541254948" lon="9.994150590992373"><ele>37.0</ele><time>2026-04-25T13:16:54.999Z</time></trkpt><trkpt lat="45.11157969772493" lon="9.994227903008648"><ele>37.0</ele><time>2026-04-25T13:16:55.999Z</time></trkpt><trkpt lat="45.11165579364152" lon="9.99430699387632"><ele>37.4</ele><time>2026-04-25T13:16:56.999Z</time></trkpt><trkpt lat="45.111730767582216" lon="9.994382372327053"><ele>37.800000000000004</ele><time>2026-04-25T13:16:57.999Z</time></trkpt><trkpt lat="45.111805107551845" lon="9.994454235668549"><ele>38.2</ele><time>2026-04-25T13:16:58.999Z</time></trkpt><trkpt lat="45.11188099885117" lon="9.994525148390322"><ele>38.6</ele><time>2026-04-25T13:16:59.999Z</time></trkpt><trkpt lat="45.11196111248091" lon="9.994589525838931"><ele>39.0</ele><time>2026-04-25T13:17:00.999Z</time></trkpt><trkpt lat="45.11204635836949" lon="9.994643411071344"><ele>39.0</ele><time>2026-04-25T13:17:01.999Z</time></trkpt><trkpt lat="45.11213226966252" lon="9.99468919401201"><ele>39.0</ele><time>2026-04-25T13:17:02.999Z</time></trkpt><trkpt lat="45.112221261870836" lon="9.994722821907438"><ele>39.0</ele><time>2026-04-25T13:17:03.999Z</time></trkpt><trkpt lat="45.11231053965556" lon="9.994732282228318"><ele>39.0</ele><time>2026-04-25T13:17:04.999Z</time></trkpt><trkpt lat="45.11239870444203" lon="9.994723361805553"><ele>39.0</ele><time>2026-04-25T13:17:05.999Z</time></trkpt><trkpt lat="45.1124880986048" lon="9.994702013870198"><ele>39.2</ele><time>2026-04-25T13:17:06.999Z</time></trkpt><trkpt lat="45.11257626970854" lon="9.99466745451988"><ele>39.4</ele><time>2026-04-25T13:17:07.999Z</time></trkpt><trkpt lat="45.11266413300026" lon="9.994623390458003"><ele>39.6</ele><time>2026-04-25T13:17:08.999Z</time></trkpt><trkpt lat="45.11274873187576" lon="9.994570602312303"><ele>39.8</ele><time>2026-04-25T13:17:09.999Z</time></trkpt><trkpt lat="45.112832505012484" lon="9.994513480942327"><ele>40.0</ele><time>2026-04-25T13:17:10.999Z</time></trkpt><trkpt lat="45.11291646795212" lon="9.99445980922244"><ele>40.0</ele><time>2026-04-25T13:17:11.999Z</time></trkpt><trkpt lat="45.11300012634333" lon="9.994408790952246"><ele>40.0</ele><time>2026-04-25T13:17:12.999Z</time></trkpt><trkpt lat="45.1130880011087" lon="9.994358901938424"><ele>40.0</ele><time>2026-04-25T13:17:13.999Z</time></trkpt><trkpt lat="45.113174608916935" lon="9.99430477324377"><ele>40.0</ele><time>2026-04-25T13:17:14.999Z</time></trkpt><trkpt lat="45.11325696331297" lon="9.99425259912718"><ele>40.0</ele><time>2026-04-25T13:17:15.999Z</time></trkpt><trkpt lat="45.11334024517907" lon="9.994201114665442"><ele>39.833333333333336</ele><time>2026-04-25T13:17:16.999Z</time></trkpt><trkpt lat="45.11342530753001" lon="9.994154735394869"><ele>39.66666666666667</ele><time>2026-04-25T13:17:17.999Z</time></trkpt><trkpt lat="45.113505474952206" lon="9.994100497045327"><ele>39.5</ele><time>2026-04-25T13:17:18.999Z</time></trkpt><trkpt lat="45.113585969923285" lon="9.994048174251366"><ele>39.333333333333336</ele><time>2026-04-25T13:17:19.999Z</time></trkpt><trkpt lat="45.113668423447905" lon="9.993999771503095"><ele>39.166666666666664</ele><time>2026-04-25T13:17:20.999Z</time></trkpt><trkpt lat="45.11375073579407" lon="9.993952210502767"><ele>39.0</ele><time>2026-04-25T13:17:21.999Z</time></trkpt><trkpt lat="45.11383301524425" lon="9.993904277186646"><ele>39.0</ele><time>2026-04-25T13:17:22.999Z</time></trkpt><trkpt lat="45.11391507635073" lon="9.993852295186702"><ele>39.0</ele><time>2026-04-25T13:17:23.999Z</time></trkpt><trkpt lat="45.113993158026425" lon="9.993800809527022"><ele>39.0</ele><time>2026-04-25T13:17:24.999Z</time></trkpt><trkpt lat="45.11407570359305" lon="9.993751841138788"><ele>39.0</ele><time>2026-04-25T13:17:25.999Z</time></trkpt><trkpt lat="45.114159346951666" lon="9.993708473855003"><ele>39.0</ele><time>2026-04-25T13:17:26.999Z</time></trkpt><trkpt lat="45.114240927410364" lon="9.9936628393241"><ele>39.0</ele><time>2026-04-25T13:17:27.999Z</time></trkpt><trkpt lat="45.11432252169797" lon="9.993614928828734"><ele>39.0</ele><time>2026-04-25T13:17:28.999Z</time></trkpt><trkpt lat="45.11440196705607" lon="9.993562845965075"><ele>39.0</ele><time>2026-04-25T13:17:29.999Z</time></trkpt><trkpt lat="45.11448461749363" lon="9.99351330676873"><ele>39.0</ele><time>2026-04-25T13:17:30.999Z</time></trkpt><trkpt lat="45.11456799634763" lon="9.993464642865911"><ele>39.0</ele><time>2026-04-25T13:17:31.998Z</time></trkpt><trkpt lat="45.1146496536533" lon="9.993414803841935"><ele>39.0</ele><time>2026-04-25T13:17:32.998Z</time></trkpt><trkpt lat="45.114732610249895" lon="9.993366213081602"><ele>39.0</ele><time>2026-04-25T13:17:33.998Z</time></trkpt><trkpt lat="45.11481495792847" lon="9.993315770153592"><ele>39.0</ele><time>2026-04-25T13:17:34.998Z</time></trkpt><trkpt lat="45.114896370881425" lon="9.993264590051623"><ele>39.0</ele><time>2026-04-25T13:17:35.998Z</time></trkpt><trkpt lat="45.11497753192653" lon="9.99321579664757"><ele>39.0</ele><time>2026-04-25T13:17:36.998Z</time></trkpt><trkpt lat="45.11505959428276" lon="9.9931679613066"><ele>39.0</ele><time>2026-04-25T13:17:37.998Z</time></trkpt><trkpt lat="45.11514052583967" lon="9.993117959032748"><ele>39.0</ele><time>2026-04-25T13:17:38.998Z</time></trkpt><trkpt lat="45.11522458269661" lon="9.993071081827754"><ele>39.0</ele><time>2026-04-25T13:17:39.998Z</time></trkpt><trkpt lat="45.11530545168329" lon="9.993022784830172"><ele>39.0</ele><time>2026-04-25T13:17:41Z</time></trkpt><trkpt lat="45.11538736598605" lon="9.99297453134766"><ele>39.0</ele><time>2026-04-25T13:17:42Z</time></trkpt><trkpt lat="45.11546816985884" lon="9.992924957027839"><ele>39.0</ele><time>2026-04-25T13:17:43Z</time></trkpt><trkpt lat="45.115547702989026" lon="9.99287260285416"><ele>39.0</ele><time>2026-04-25T13:17:44Z</time></trkpt><trkpt lat="45.115627579566365" lon="9.992825251146053"><ele>39.0</ele><time>2026-04-25T13:17:45Z</time></trkpt><trkpt lat="45.11570578731592" lon="9.992778185162694"><ele>39.0</ele><time>2026-04-25T13:17:46Z</time></trkpt><trkpt lat="45.11578683160241" lon="9.992733672835469"><ele>39.0</ele><time>2026-04-25T13:17:47Z</time></trkpt><trkpt lat="45.11586571164899" lon="9.992686678631486"><ele>39.0</ele><time>2026-04-25T13:17:48Z</time></trkpt><trkpt lat="45.11594331048785" lon="9.992638023474957"><ele>39.0</ele><time>2026-04-25T13:17:49Z</time></trkpt><trkpt lat="45.11602041021199" lon="9.992590110550877"><ele>39.0</ele><time>2026-04-25T13:17:50Z</time></trkpt><trkpt lat="45.11610089166339" lon="9.992542514718389"><ele>39.0</ele><time>2026-04-25T13:17:51Z</time></trkpt><trkpt lat="45.11618098582561" lon="9.992491982724706"><ele>39.0</ele><time>2026-04-25T13:17:52Z</time></trkpt><trkpt lat="45.11626332972801" lon="9.992444092548151"><ele>39.0</ele><time>2026-04-25T13:17:53Z</time></trkpt><trkpt lat="45.11634559773147" lon="9.992395969719308"><ele>39.0</ele><time>2026-04-25T13:17:54Z</time></trkpt><trkpt lat="45.11642775422027" lon="9.992344802689061"><ele>39.0</ele><time>2026-04-25T13:17:55Z</time></trkpt><trkpt lat="45.11650771283347" lon="9.992293898864297"><ele>39.0</ele><time>2026-04-25T13:17:56Z</time></trkpt><trkpt lat="45.11658772767375" lon="9.992245043655197"><ele>39.0</ele><time>2026-04-25T13:17:57Z</time></trkpt><trkpt lat="45.11667044117202" lon="9.992197471506016"><ele>39.0</ele><time>2026-04-25T13:17:58Z</time></trkpt><trkpt lat="45.11675145606497" lon="9.99214932579082"><ele>39.0</ele><time>2026-04-25T13:17:59Z</time></trkpt><trkpt lat="45.11683259282875" lon="9.99210102547922"><ele>39.0</ele><time>2026-04-25T13:18:00Z</time></trkpt><trkpt lat="45.11691298831584" lon="9.992051416284147"><ele>39.0</ele><time>2026-04-25T13:18:01Z</time></trkpt><trkpt lat="45.116992888959" lon="9.99200801693469"><ele>39.0</ele><time>2026-04-25T13:18:02Z</time></trkpt><trkpt lat="45.117073452064496" lon="9.991959403183447"><ele>39.0</ele><time>2026-04-25T13:18:03Z</time></trkpt><trkpt lat="45.117153283924495" lon="9.991912927282321"><ele>39.0</ele><time>2026-04-25T13:18:04Z</time></trkpt><trkpt lat="45.11723399636488" lon="9.991865064885568"><ele>39.0</ele><time>2026-04-25T13:18:05Z</time></trkpt><trkpt lat="45.117313267922995" lon="9.99181621222742"><ele>39.0</ele><time>2026-04-25T13:18:06Z</time></trkpt><trkpt lat="45.117395050496604" lon="9.99176643169103"><ele>39.0</ele><time>2026-04-25T13:18:07Z</time></trkpt><trkpt lat="45.11747601037542" lon="9.991716695736981"><ele>39.0</ele><time>2026-04-25T13:18:08Z</time></trkpt><trkpt lat="45.11755767904715" lon="9.991669336408549"><ele>39.0</ele><time>2026-04-25T13:18:09Z</time></trkpt><trkpt lat="45.117639075671065" lon="9.991622236242366"><ele>39.0</ele><time>2026-04-25T13:18:10Z</time></trkpt><trkpt lat="45.11772193295891" lon="9.991571738619461"><ele>39.0</ele><time>2026-04-25T13:18:11Z</time></trkpt><trkpt lat="45.11780408930215" lon="9.99151831844977"><ele>39.0</ele><time>2026-04-25T13:18:12Z</time></trkpt><trkpt lat="45.1178869464387" lon="9.99146584569557"><ele>39.0</ele><time>2026-04-25T13:18:13Z</time></trkpt><trkpt lat="45.11797142427409" lon="9.991416650716586"><ele>39.0</ele><time>2026-04-25T13:18:14Z</time></trkpt><trkpt lat="45.1180548794018" lon="9.991366809970193"><ele>39.0</ele><time>2026-04-25T13:18:15Z</time></trkpt><trkpt lat="45.118138818374646" lon="9.991315557597494"><ele>39.0</ele><time>2026-04-25T13:18:16Z</time></trkpt><trkpt lat="45.11822217845615" lon="9.99126576889351"><ele>39.0</ele><time>2026-04-25T13:18:17Z</time></trkpt><trkpt lat="45.118304257224615" lon="9.99121269286166"><ele>39.0</ele><time>2026-04-25T13:18:18Z</time></trkpt><trkpt lat="45.11838730666949" lon="9.991165867459584"><ele>39.0</ele><time>2026-04-25T13:18:19Z</time></trkpt><trkpt lat="45.118469445092316" lon="9.991117414201497"><ele>39.0</ele><time>2026-04-25T13:18:20Z</time></trkpt><trkpt lat="45.11854914774038" lon="9.991069676638025"><ele>39.0</ele><time>2026-04-25T13:18:21Z</time></trkpt><trkpt lat="45.11862983255162" lon="9.991021873758553"><ele>38.5</ele><time>2026-04-25T13:18:22Z</time></trkpt><trkpt lat="45.118712063221984" lon="9.990971773976112"><ele>38.0</ele><time>2026-04-25T13:18:23Z</time></trkpt><trkpt lat="45.11879293947345" lon="9.990920981053028"><ele>37.5</ele><time>2026-04-25T13:18:24Z</time></trkpt><trkpt lat="45.11887371653699" lon="9.990871275317284"><ele>37.0</ele><time>2026-04-25T13:18:25Z</time></trkpt><trkpt lat="45.11895506672064" lon="9.99082296483588"><ele>36.5</ele><time>2026-04-25T13:18:26Z</time></trkpt><trkpt lat="45.11903642211436" lon="9.990778451741896"><ele>36.0</ele><time>2026-04-25T13:18:27Z</time></trkpt><trkpt lat="45.11911703405916" lon="9.990730478785363"><ele>36.0</ele><time>2026-04-25T13:18:28Z</time></trkpt><trkpt lat="45.1191993961927" lon="9.990682020472104"><ele>36.0</ele><time>2026-04-25T13:18:29Z</time></trkpt><trkpt lat="45.11928138444576" lon="9.990635290532952"><ele>36.0</ele><time>2026-04-25T13:18:30Z</time></trkpt><trkpt lat="45.11936378821734" lon="9.990586014196849"><ele>36.0</ele><time>2026-04-25T13:18:31Z</time></trkpt><trkpt lat="45.119445967319635" lon="9.990536863806641"><ele>36.0</ele><time>2026-04-25T13:18:32Z</time></trkpt><trkpt lat="45.11952528508203" lon="9.990487854504467"><ele>36.0</ele><time>2026-04-25T13:18:33Z</time></trkpt><trkpt lat="45.119606775514555" lon="9.990438948163844"><ele>36.0</ele><time>2026-04-25T13:18:33.999Z</time></trkpt><trkpt lat="45.11968821746824" lon="9.990391262583966"><ele>36.0</ele><time>2026-04-25T13:18:34.999Z</time></trkpt><trkpt lat="45.11976884813253" lon="9.990339894615722"><ele>36.0</ele><time>2026-04-25T13:18:35.999Z</time></trkpt><trkpt lat="45.11984934829938" lon="9.990291142783976"><ele>36.0</ele><time>2026-04-25T13:18:36.999Z</time></trkpt><trkpt lat="45.11993147372747" lon="9.990241056453339"><ele>36.0</ele><time>2026-04-25T13:18:37.999Z</time></trkpt><trkpt lat="45.120012860048014" lon="9.990191241503922"><ele>36.0</ele><time>2026-04-25T13:18:38.999Z</time></trkpt><trkpt lat="45.120094756773966" lon="9.990143268763406"><ele>36.5</ele><time>2026-04-25T13:18:39.999Z</time></trkpt><trkpt lat="45.12017316152846" lon="9.99009708752211"><ele>37.0</ele><time>2026-04-25T13:18:40.999Z</time></trkpt><trkpt lat="45.12025212760831" lon="9.990050722735809"><ele>37.5</ele><time>2026-04-25T13:18:41.999Z</time></trkpt><trkpt lat="45.12033068905963" lon="9.990004014152673"><ele>38.0</ele><time>2026-04-25T13:18:42.999Z</time></trkpt><trkpt lat="45.120409177379344" lon="9.989955867081196"><ele>38.5</ele><time>2026-04-25T13:18:43.999Z</time></trkpt><trkpt lat="45.12048717581468" lon="9.989907398774447"><ele>39.0</ele><time>2026-04-25T13:18:44.999Z</time></trkpt><trkpt lat="45.1205625820608" lon="9.989859716333886"><ele>39.0</ele><time>2026-04-25T13:18:45.999Z</time></trkpt><trkpt lat="45.12064013952401" lon="9.989815672655096"><ele>39.0</ele><time>2026-04-25T13:18:46.999Z</time></trkpt><trkpt lat="45.12071377289731" lon="9.989772700057983"><ele>39.0</ele><time>2026-04-25T13:18:47.999Z</time></trkpt><trkpt lat="45.120782698463735" lon="9.989726277095073"><ele>39.0</ele><time>2026-04-25T13:18:48.999Z</time></trkpt><trkpt lat="45.120847596816866" lon="9.989686101573897"><ele>39.0</ele><time>2026-04-25T13:18:49.999Z</time></trkpt><trkpt lat="45.12091075216461" lon="9.989668734291907"><ele>39.0</ele><time>2026-04-25T13:18:50.999Z</time></trkpt><trkpt lat="45.120981484433734" lon="9.989674138886802"><ele>39.0</ele><time>2026-04-25T13:18:51.999Z</time></trkpt><trkpt lat="45.12104493153978" lon="9.989646394939262"><ele>38.57142857142858</ele><time>2026-04-25T13:18:52.999Z</time></trkpt><trkpt lat="45.12110844602329" lon="9.9895931072083"><ele>38.14285714285714</ele><time>2026-04-25T13:18:53.999Z</time></trkpt><trkpt lat="45.12117247494416" lon="9.989540876475825"><ele>37.714285714285715</ele><time>2026-04-25T13:18:54.999Z</time></trkpt><trkpt lat="45.121239219604675" lon="9.989499040469648"><ele>37.28571428571429</ele><time>2026-04-25T13:18:55.999Z</time></trkpt><trkpt lat="45.121309883027386" lon="9.989461368046424"><ele>36.85714285714286</ele><time>2026-04-25T13:18:56.999Z</time></trkpt><trkpt lat="45.1213788035141" lon="9.989424644925313"><ele>36.42857142857143</ele><time>2026-04-25T13:18:57.999Z</time></trkpt><trkpt lat="45.12144317375106" lon="9.989387530210204"><ele>36.0</ele><time>2026-04-25T13:18:58.999Z</time></trkpt><trkpt lat="45.121505745181786" lon="9.989351692854203"><ele>36.2</ele><time>2026-04-25T13:18:59.999Z</time></trkpt><trkpt lat="45.121567771519004" lon="9.989321684978696"><ele>36.400000000000006</ele><time>2026-04-25T13:19:00.999Z</time></trkpt><trkpt lat="45.12168678711702" lon="9.989290186568455"><ele>36.6</ele><time>2026-04-25T13:19:02.999Z</time></trkpt><trkpt lat="45.12180629387805" lon="9.989298347432713"><ele>36.800000000000004</ele><time>2026-04-25T13:19:04.999Z</time></trkpt><trkpt lat="45.12193001649094" lon="9.98932975473761"><ele>37.0</ele><time>2026-04-25T13:19:06.999Z</time></trkpt><trkpt lat="45.12199236250791" lon="9.989356545978383"><ele>37.0</ele><time>2026-04-25T13:19:07.999Z</time></trkpt><trkpt lat="45.122053621269586" lon="9.989387810954687"><ele>37.0</ele><time>2026-04-25T13:19:08.999Z</time></trkpt><trkpt lat="45.12216414024301" lon="9.989455736991149"><ele>37.0</ele><time>2026-04-25T13:19:10.999Z</time></trkpt><trkpt lat="45.122257483165725" lon="9.989538091691367"><ele>37.0</ele><time>2026-04-25T13:19:12.999Z</time></trkpt><trkpt lat="45.12235606405841" lon="9.989633983825067"><ele>37.0</ele><time>2026-04-25T13:19:14.999Z</time></trkpt><trkpt lat="45.1224569112413" lon="9.989727237603896"><ele>37.16666666666667</ele><time>2026-04-25T13:19:16.999Z</time></trkpt><trkpt lat="45.122561640447145" lon="9.989823473242392"><ele>37.333333333333336</ele><time>2026-04-25T13:19:18.999Z</time></trkpt><trkpt lat="45.122617041314506" lon="9.989870705930743"><ele>37.5</ele><time>2026-04-25T13:19:19.999Z</time></trkpt><trkpt lat="45.122672326049276" lon="9.989919350869652"><ele>37.666666666666664</ele><time>2026-04-25T13:19:20.999Z</time></trkpt><trkpt lat="45.1227264785388" lon="9.989970227698457"><ele>37.83333333333333</ele><time>2026-04-25T13:19:21.999Z</time></trkpt><trkpt lat="45.12283791094303" lon="9.990063019493297"><ele>38.0</ele><time>2026-04-25T13:19:23.999Z</time></trkpt><trkpt lat="45.122894115104074" lon="9.990112217534273"><ele>38.0</ele><time>2026-04-25T13:19:24.999Z</time></trkpt><trkpt lat="45.12295122786436" lon="9.990160955615272"><ele>38.0</ele><time>2026-04-25T13:19:25.999Z</time></trkpt><trkpt lat="45.12300830069362" lon="9.990208042898807"><ele>38.0</ele><time>2026-04-25T13:19:26.999Z</time></trkpt><trkpt lat="45.12306489961202" lon="9.990261249153066"><ele>38.0</ele><time>2026-04-25T13:19:27.999Z</time></trkpt><trkpt lat="45.12312162460648" lon="9.990312185136245"><ele>38.0</ele><time>2026-04-25T13:19:28.999Z</time></trkpt><trkpt lat="45.123177031389446" lon="9.990363549384647"><ele>38.0</ele><time>2026-04-25T13:19:29.999Z</time></trkpt><trkpt lat="45.12323469809649" lon="9.99041540336329"><ele>38.0</ele><time>2026-04-25T13:19:30.999Z</time></trkpt><trkpt lat="45.123293788819396" lon="9.99046276396651"><ele>38.285714285714285</ele><time>2026-04-25T13:19:31.999Z</time></trkpt><trkpt lat="45.12335290274409" lon="9.990513555385885"><ele>38.57142857142858</ele><time>2026-04-25T13:19:32.999Z</time></trkpt><trkpt lat="45.123412286740226" lon="9.990564308931457"><ele>38.85714285714286</ele><time>2026-04-25T13:19:33.999Z</time></trkpt><trkpt lat="45.12347174791302" lon="9.990612128004598"><ele>39.14285714285714</ele><time>2026-04-25T13:19:34.998Z</time></trkpt><trkpt lat="45.123531561454854" lon="9.99066304999851"><ele>39.42857142857143</ele><time>2026-04-25T13:19:35.998Z</time></trkpt><trkpt lat="45.12358956375669" lon="9.990717600419845"><ele>39.714285714285715</ele><time>2026-04-25T13:19:36.998Z</time></trkpt><trkpt lat="45.123647422179125" lon="9.990773355905969"><ele>40.0</ele><time>2026-04-25T13:19:37.998Z</time></trkpt><trkpt lat="45.123707874392856" lon="9.990828187238366"><ele>39.857142857142854</ele><time>2026-04-25T13:19:38.998Z</time></trkpt><trkpt lat="45.12376747698242" lon="9.990881131753193"><ele>39.714285714285715</ele><time>2026-04-25T13:19:39.998Z</time></trkpt><trkpt lat="45.12382855802517" lon="9.990934663515363"><ele>39.57142857142857</ele><time>2026-04-25T13:19:40.998Z</time></trkpt><trkpt lat="45.12388820043052" lon="9.990989141652667"><ele>39.42857142857143</ele><time>2026-04-25T13:19:41.998Z</time></trkpt><trkpt lat="45.12394828966308" lon="9.991042384199439"><ele>39.285714285714285</ele><time>2026-04-25T13:19:42.998Z</time></trkpt><trkpt lat="45.124008332299866" lon="9.991095574491997"><ele>39.142857142857146</ele><time>2026-04-25T13:19:43.998Z</time></trkpt><trkpt lat="45.1240703563738" lon="9.991147079613828"><ele>39.0</ele><time>2026-04-25T13:19:44.998Z</time></trkpt><trkpt lat="45.124131218588815" lon="9.991197033380274"><ele>39.0</ele><time>2026-04-25T13:19:45.998Z</time></trkpt><trkpt lat="45.12419305386786" lon="9.991246384362865"><ele>39.0</ele><time>2026-04-25T13:19:47Z</time></trkpt><trkpt lat="45.12425392360746" lon="9.991298671130137"><ele>39.0</ele><time>2026-04-25T13:19:48Z</time></trkpt><trkpt lat="45.12431415089674" lon="9.991350308173255"><ele>39.0</ele><time>2026-04-25T13:19:49Z</time></trkpt><trkpt lat="45.12437535058683" lon="9.991404990409402"><ele>39.0</ele><time>2026-04-25T13:19:50Z</time></trkpt><trkpt lat="45.12443613320992" lon="9.991456248852428"><ele>39.0</ele><time>2026-04-25T13:19:51Z</time></trkpt><trkpt lat="45.124497374082786" lon="9.991508039676981"><ele>39.0</ele><time>2026-04-25T13:19:52Z</time></trkpt><trkpt lat="45.124556590499154" lon="9.991559743286754"><ele>39.0</ele><time>2026-04-25T13:19:53Z</time></trkpt><trkpt lat="45.12461664331932" lon="9.991613697199886"><ele>39.0</ele><time>2026-04-25T13:19:54Z</time></trkpt><trkpt lat="45.12467693162199" lon="9.991664131247648"><ele>39.0</ele><time>2026-04-25T13:19:55Z</time></trkpt><trkpt lat="45.12473658347794" lon="9.991714339408935"><ele>39.0</ele><time>2026-04-25T13:19:56Z</time></trkpt><trkpt lat="45.12479619911625" lon="9.991767407275415"><ele>39.0</ele><time>2026-04-25T13:19:57Z</time></trkpt><trkpt lat="45.12485667312637" lon="9.991818649119484"><ele>39.0</ele><time>2026-04-25T13:19:58Z</time></trkpt><trkpt lat="45.1249181801821" lon="9.99186932390171"><ele>39.0</ele><time>2026-04-25T13:19:59Z</time></trkpt><trkpt lat="45.124979458052145" lon="9.991919276521505"><ele>39.285714285714285</ele><time>2026-04-25T13:20:00Z</time></trkpt><trkpt lat="45.12504215825363" lon="9.991972604566085"><ele>39.57142857142857</ele><time>2026-04-25T13:20:01Z</time></trkpt><trkpt lat="45.12510320143983" lon="9.992023949828624"><ele>39.857142857142854</ele><time>2026-04-25T13:20:02Z</time></trkpt><trkpt lat="45.12516502781689" lon="9.992078609837133"><ele>40.14285714285714</ele><time>2026-04-25T13:20:03Z</time></trkpt><trkpt lat="45.125223928630135" lon="9.992135893107303"><ele>40.42857142857143</ele><time>2026-04-25T13:20:04Z</time></trkpt><trkpt lat="45.12528312559318" lon="9.992189142563893"><ele>40.71428571428571</ele><time>2026-04-25T13:20:05Z</time></trkpt><trkpt lat="45.125342561599005" lon="9.992243286111263"><ele>41.0</ele><time>2026-04-25T13:20:06Z</time></trkpt><trkpt lat="45.12540406472375" lon="9.992296946295518"><ele>40.99999999999999</ele><time>2026-04-25T13:20:07Z</time></trkpt><trkpt lat="45.12546476904429" lon="9.992348628910564"><ele>41.0</ele><time>2026-04-25T13:20:08Z</time></trkpt><trkpt lat="45.1255266214678" lon="9.992402791601437"><ele>41.0</ele><time>2026-04-25T13:20:09Z</time></trkpt><trkpt lat="45.12558762397311" lon="9.992456498769927"><ele>41.0</ele><time>2026-04-25T13:20:10Z</time></trkpt><trkpt lat="45.125648956010835" lon="9.992510147146836"><ele>41.0</ele><time>2026-04-25T13:20:11Z</time></trkpt><trkpt lat="45.125710134628996" lon="9.992564329405132"><ele>40.99999999999999</ele><time>2026-04-25T13:20:12Z</time></trkpt><trkpt lat="45.12577139629125" lon="9.992616063860366"><ele>41.0</ele><time>2026-04-25T13:20:13Z</time></trkpt><trkpt lat="45.125832477933955" lon="9.992669298056867"><ele>40.71428571428571</ele><time>2026-04-25T13:20:14Z</time></trkpt><trkpt lat="45.125893381183836" lon="9.992721528342491"><ele>40.42857142857143</ele><time>2026-04-25T13:20:15Z</time></trkpt><trkpt lat="45.12595347178369" lon="9.992774606803666"><ele>40.14285714285714</ele><time>2026-04-25T13:20:16Z</time></trkpt><trkpt lat="45.12601439165073" lon="9.99282732509865"><ele>39.857142857142854</ele><time>2026-04-25T13:20:17Z</time></trkpt><trkpt lat="45.12607706456753" lon="9.992876727145644"><ele>39.57142857142857</ele><time>2026-04-25T13:20:18Z</time></trkpt><trkpt lat="45.12613909783011" lon="9.992927190292093"><ele>39.285714285714285</ele><time>2026-04-25T13:20:19Z</time></trkpt><trkpt lat="45.126201375814894" lon="9.992980589848374"><ele>39.0</ele><time>2026-04-25T13:20:20Z</time></trkpt><trkpt lat="45.126263726705275" lon="9.993033229090669"><ele>39.0</ele><time>2026-04-25T13:20:21Z</time></trkpt><trkpt lat="45.126325058803545" lon="9.99308471692234"><ele>39.0</ele><time>2026-04-25T13:20:22Z</time></trkpt><trkpt lat="45.12638649338012" lon="9.993135919010498"><ele>39.0</ele><time>2026-04-25T13:20:23Z</time></trkpt><trkpt lat="45.12644628744856" lon="9.993186377721827"><ele>39.0</ele><time>2026-04-25T13:20:24Z</time></trkpt><trkpt lat="45.12650812749651" lon="9.993240337415335"><ele>39.0</ele><time>2026-04-25T13:20:25Z</time></trkpt><trkpt lat="45.126567317466055" lon="9.993291745043916"><ele>39.0</ele><time>2026-04-25T13:20:26Z</time></trkpt><trkpt lat="45.12662838331022" lon="9.993345889916881"><ele>39.0</ele><time>2026-04-25T13:20:27Z</time></trkpt><trkpt lat="45.126687898657885" lon="9.993400336399464"><ele>38.714285714285715</ele><time>2026-04-25T13:20:28Z</time></trkpt><trkpt lat="45.126748977868345" lon="9.99345391464274"><ele>38.42857142857142</ele><time>2026-04-25T13:20:29Z</time></trkpt><trkpt lat="45.126810990960244" lon="9.993504622833205"><ele>38.14285714285714</ele><time>2026-04-25T13:20:30Z</time></trkpt><trkpt lat="45.12687189050149" lon="9.993556582973014"><ele>37.85714285714286</ele><time>2026-04-25T13:20:31Z</time></trkpt><trkpt lat="45.12693211521408" lon="9.993611650476964"><ele>37.57142857142857</ele><time>2026-04-25T13:20:32Z</time></trkpt><trkpt lat="45.12699397480923" lon="9.993664676018659"><ele>37.285714285714285</ele><time>2026-04-25T13:20:33Z</time></trkpt><trkpt lat="45.1270548505664" lon="9.993717324370504"><ele>37.0</ele><time>2026-04-25T13:20:34Z</time></trkpt><trkpt lat="45.12711557939883" lon="9.993769814039217"><ele>37.0</ele><time>2026-04-25T13:20:35Z</time></trkpt><trkpt lat="45.12717857333157" lon="9.993819315705403"><ele>37.0</ele><time>2026-04-25T13:20:36Z</time></trkpt><trkpt lat="45.12724073909987" lon="9.993867503745816"><ele>37.0</ele><time>2026-04-25T13:20:37Z</time></trkpt><trkpt lat="45.12730177609707" lon="9.99391946722943"><ele>37.0</ele><time>2026-04-25T13:20:38Z</time></trkpt><trkpt lat="45.127361804210715" lon="9.993973634123842"><ele>37.0</ele><time>2026-04-25T13:20:39Z</time></trkpt><trkpt lat="45.127421157987655" lon="9.994027580253984"><ele>37.0</ele><time>2026-04-25T13:20:39.999Z</time></trkpt><trkpt lat="45.12748297067616" lon="9.994078241147868"><ele>37.0</ele><time>2026-04-25T13:20:40.999Z</time></trkpt><trkpt lat="45.1275430376024" lon="9.994127063379214"><ele>35.714285714285715</ele><time>2026-04-25T13:20:41.999Z</time></trkpt><trkpt lat="45.12760509904454" lon="9.994175881946997"><ele>34.42857142857143</ele><time>2026-04-25T13:20:42.999Z</time></trkpt><trkpt lat="45.12766550615554" lon="9.994228781216579"><ele>33.14285714285714</ele><time>2026-04-25T13:20:43.999Z</time></trkpt><trkpt lat="45.12772493398098" lon="9.994279119581952"><ele>31.857142857142858</ele><time>2026-04-25T13:20:44.999Z</time></trkpt><trkpt lat="45.12778460423456" lon="9.994332725067617"><ele>30.57142857142857</ele><time>2026-04-25T13:20:45.999Z</time></trkpt><trkpt lat="45.1278441940429" lon="9.994382178615444"><ele>29.285714285714285</ele><time>2026-04-25T13:20:46.999Z</time></trkpt><trkpt lat="45.12790432652456" lon="9.994432779165315"><ele>28.0</ele><time>2026-04-25T13:20:47.999Z</time></trkpt><trkpt lat="45.127964634036665" lon="9.994487862232578"><ele>28.0</ele><time>2026-04-25T13:20:48.999Z</time></trkpt><trkpt lat="45.12802524714289" lon="9.994537453784659"><ele>28.0</ele><time>2026-04-25T13:20:49.999Z</time></trkpt><trkpt lat="45.12808624436253" lon="9.99458939170263"><ele>28.0</ele><time>2026-04-25T13:20:50.999Z</time></trkpt><trkpt lat="45.12814585928326" lon="9.9946416900418"><ele>28.0</ele><time>2026-04-25T13:20:51.999Z</time></trkpt><trkpt lat="45.128205169796516" lon="9.994691848894233"><ele>28.0</ele><time>2026-04-25T13:20:52.999Z</time></trkpt><trkpt lat="45.128263732901424" lon="9.994742773984678"><ele>28.0</ele><time>2026-04-25T13:20:53.999Z</time></trkpt><trkpt lat="45.12832332216563" lon="9.994794232876771"><ele>28.0</ele><time>2026-04-25T13:20:54.999Z</time></trkpt><trkpt lat="45.12838301414402" lon="9.994843349007512"><ele>28.0</ele><time>2026-04-25T13:20:55.999Z</time></trkpt><trkpt lat="45.128440636193446" lon="9.994895110013298"><ele>28.0</ele><time>2026-04-25T13:20:56.999Z</time></trkpt><trkpt lat="45.128495316725356" lon="9.994946206421108"><ele>28.0</ele><time>2026-04-25T13:20:57.999Z</time></trkpt><trkpt lat="45.12855484032894" lon="9.995001376774283"><ele>28.0</ele><time>2026-04-25T13:20:58.999Z</time></trkpt><trkpt lat="45.12861312841489" lon="9.995052977053016"><ele>28.0</ele><time>2026-04-25T13:20:59.999Z</time></trkpt><trkpt lat="45.12867210482092" lon="9.995106082252082"><ele>28.0</ele><time>2026-04-25T13:21:00.999Z</time></trkpt><trkpt lat="45.12873079776529" lon="9.995157975343867"><ele>28.0</ele><time>2026-04-25T13:21:01.999Z</time></trkpt><trkpt lat="45.128790090072485" lon="9.995206832084424"><ele>28.714285714285715</ele><time>2026-04-25T13:21:02.999Z</time></trkpt><trkpt lat="45.128848622433495" lon="9.99525803275829"><ele>29.42857142857143</ele><time>2026-04-25T13:21:03.999Z</time></trkpt><trkpt lat="45.12890761738996" lon="9.995308137487473"><ele>30.142857142857142</ele><time>2026-04-25T13:21:04.999Z</time></trkpt><trkpt lat="45.128965516525774" lon="9.995356245814651"><ele>30.857142857142858</ele><time>2026-04-25T13:21:05.999Z</time></trkpt><trkpt lat="45.12902644760121" lon="9.99540729833273"><ele>31.571428571428573</ele><time>2026-04-25T13:21:06.999Z</time></trkpt><trkpt lat="45.12908618665346" lon="9.995457395670766"><ele>32.285714285714285</ele><time>2026-04-25T13:21:07.999Z</time></trkpt><trkpt lat="45.12914450478547" lon="9.995505991178616"><ele>33.0</ele><time>2026-04-25T13:21:08.999Z</time></trkpt><trkpt lat="45.12920279673896" lon="9.9955553409331"><ele>33.4</ele><time>2026-04-25T13:21:09.999Z</time></trkpt><trkpt lat="45.12925797449949" lon="9.99560333867933"><ele>33.8</ele><time>2026-04-25T13:21:10.999Z</time></trkpt><trkpt lat="45.12931218793089" lon="9.99565262582841"><ele>34.2</ele><time>2026-04-25T13:21:11.999Z</time></trkpt><trkpt lat="45.12941448968714" lon="9.995742958455917"><ele>34.6</ele><time>2026-04-25T13:21:13.999Z</time></trkpt><trkpt lat="45.12951235421156" lon="9.995833950013226"><ele>35.0</ele><time>2026-04-25T13:21:15.999Z</time></trkpt><trkpt lat="45.12961015770248" lon="9.995910042549973"><ele>35.6</ele><time>2026-04-25T13:21:17.999Z</time></trkpt><trkpt lat="45.12970792635208" lon="9.995967266877923"><ele>36.2</ele><time>2026-04-25T13:21:19.999Z</time></trkpt><trkpt lat="45.12978909817101" lon="9.996051825990229"><ele>36.8</ele><time>2026-04-25T13:21:21.999Z</time></trkpt><trkpt lat="45.12985697483829" lon="9.996169467892765"><ele>37.4</ele><time>2026-04-25T13:21:23.999Z</time></trkpt><trkpt lat="45.12992567565797" lon="9.99631072225191"><ele>38.0</ele><time>2026-04-25T13:21:25.999Z</time></trkpt><trkpt lat="45.12997640195355" lon="9.996457177011857"><ele>38.0</ele><time>2026-04-25T13:21:27.999Z</time></trkpt><trkpt lat="45.130001627282304" lon="9.996613941482194"><ele>38.0</ele><time>2026-04-25T13:21:29.999Z</time></trkpt><trkpt lat="45.130016048185254" lon="9.996770634121365"><ele>38.0</ele><time>2026-04-25T13:21:31.999Z</time></trkpt><trkpt lat="45.13003943030638" lon="9.996942896305388"><ele>38.0</ele><time>2026-04-25T13:21:33.999Z</time></trkpt><trkpt lat="45.13005521779145" lon="9.99703438424547"><ele>38.0</ele><time>2026-04-25T13:21:34.999Z</time></trkpt><trkpt lat="45.130070341584734" lon="9.99712901749863"><ele>38.285714285714285</ele><time>2026-04-25T13:21:35.999Z</time></trkpt><trkpt lat="45.130085186058764" lon="9.997223393200818"><ele>38.57142857142858</ele><time>2026-04-25T13:21:36.999Z</time></trkpt><trkpt lat="45.13009619585177" lon="9.997322107647763"><ele>38.85714285714286</ele><time>2026-04-25T13:21:37.999Z</time></trkpt><trkpt lat="45.130112112245335" lon="9.997418314198587"><ele>39.14285714285714</ele><time>2026-04-25T13:21:38.999Z</time></trkpt><trkpt lat="45.130123209202985" lon="9.997517142593322"><ele>39.42857142857143</ele><time>2026-04-25T13:21:39.999Z</time></trkpt><trkpt lat="45.13013442478021" lon="9.997615590027014"><ele>39.714285714285715</ele><time>2026-04-25T13:21:40.999Z</time></trkpt><trkpt lat="45.130143221251494" lon="9.997711469973124"><ele>40.0</ele><time>2026-04-25T13:21:41.999Z</time></trkpt><trkpt lat="45.13014973577792" lon="9.997803688630189"><ele>40.0</ele><time>2026-04-25T13:21:42.998Z</time></trkpt><trkpt lat="45.130163746551396" lon="9.997894647384745"><ele>40.0</ele><time>2026-04-25T13:21:43.998Z</time></trkpt><trkpt lat="45.13018727439547" lon="9.998074980456158"><ele>40.0</ele><time>2026-04-25T13:21:45.998Z</time></trkpt><trkpt lat="45.130195146376174" lon="9.998165767695507"><ele>40.0</ele><time>2026-04-25T13:21:46.998Z</time></trkpt><trkpt lat="45.13020527170945" lon="9.998257372593649"><ele>40.0</ele><time>2026-04-25T13:21:47.998Z</time></trkpt><trkpt lat="45.13020997362332" lon="9.998351745179686"><ele>40.0</ele><time>2026-04-25T13:21:48.998Z</time></trkpt><trkpt lat="45.13022516084698" lon="9.998524883630518"><ele>40.14285714285714</ele><time>2026-04-25T13:21:50.998Z</time></trkpt><trkpt lat="45.13024214177691" lon="9.998620156130958"><ele>40.285714285714285</ele><time>2026-04-25T13:21:51.998Z</time></trkpt><trkpt lat="45.13025276995785" lon="9.998709712025605"><ele>40.42857142857143</ele><time>2026-04-25T13:21:53Z</time></trkpt><trkpt lat="45.130261513142486" lon="9.998804780833884"><ele>40.57142857142857</ele><time>2026-04-25T13:21:54Z</time></trkpt><trkpt lat="45.13027198684877" lon="9.998895097898798"><ele>40.714285714285715</ele><time>2026-04-25T13:21:55Z</time></trkpt><trkpt lat="45.13028511537064" lon="9.99898667324292"><ele>40.857142857142854</ele><time>2026-04-25T13:21:56Z</time></trkpt><trkpt lat="45.130295182651324" lon="9.999079685680641"><ele>41.0</ele><time>2026-04-25T13:21:57Z</time></trkpt><trkpt lat="45.13030225176073" lon="9.99917261458018"><ele>41.0</ele><time>2026-04-25T13:21:58Z</time></trkpt><trkpt lat="45.130313592049184" lon="9.999265576574713"><ele>41.0</ele><time>2026-04-25T13:21:59Z</time></trkpt><trkpt lat="45.13032380554635" lon="9.999359597691042"><ele>41.0</ele><time>2026-04-25T13:22:00Z</time></trkpt><trkpt lat="45.13033572223033" lon="9.999452282141469"><ele>41.0</ele><time>2026-04-25T13:22:01Z</time></trkpt><trkpt lat="45.13034794101717" lon="9.999541482867016"><ele>41.0</ele><time>2026-04-25T13:22:02Z</time></trkpt><trkpt lat="45.13035591566792" lon="9.999637880008038"><ele>41.0</ele><time>2026-04-25T13:22:03Z</time></trkpt><trkpt lat="45.1303811419743" lon="9.999824459876312"><ele>41.0</ele><time>2026-04-25T13:22:05Z</time></trkpt><trkpt lat="45.13039133974191" lon="9.999914581464031"><ele>41.0</ele><time>2026-04-25T13:22:06Z</time></trkpt><trkpt lat="45.13041016810987" lon="10.000076377910853"><ele>41.0</ele><time>2026-04-25T13:22:08Z</time></trkpt><trkpt lat="45.13042754295965" lon="10.000240120100678"><ele>41.0</ele><time>2026-04-25T13:22:10Z</time></trkpt><trkpt lat="45.130441461721176" lon="10.0003960150741"><ele>41.0</ele><time>2026-04-25T13:22:12Z</time></trkpt><trkpt lat="45.13043878784759" lon="10.000555808808643"><ele>41.0</ele><time>2026-04-25T13:22:14Z</time></trkpt><trkpt lat="45.13041812025403" lon="10.000702775930062"><ele>41.0</ele><time>2026-04-25T13:22:16Z</time></trkpt><trkpt lat="45.13037985836665" lon="10.000837545554276"><ele>41.0</ele><time>2026-04-25T13:22:18Z</time></trkpt><trkpt lat="45.130344940991215" lon="10.000975531809713"><ele>41.0</ele><time>2026-04-25T13:22:20Z</time></trkpt><trkpt lat="45.130305600147906" lon="10.001105307333333"><ele>41.0</ele><time>2026-04-25T13:22:22Z</time></trkpt><trkpt lat="45.130242917469026" lon="10.001233241936834"><ele>40.8</ele><time>2026-04-25T13:22:24Z</time></trkpt><trkpt lat="45.13019416317823" lon="10.00135307581067"><ele>40.599999999999994</ele><time>2026-04-25T13:22:26Z</time></trkpt><trkpt lat="45.13006491277655" lon="10.001343648677082"><ele>40.4</ele><time>2026-04-25T13:22:28Z</time></trkpt><trkpt lat="45.12998747114173" lon="10.001318766177477"><ele>40.2</ele><time>2026-04-25T13:22:31Z</time></trkpt><trkpt lat="45.12992298070542" lon="10.001270393597888"><ele>40.0</ele><time>2026-04-25T13:22:34Z</time></trkpt><trkpt lat="45.129858995940026" lon="10.001324570606117"><ele>40.0</ele><time>2026-04-25T13:22:51.999Z</time></trkpt><trkpt lat="45.12993937855043" lon="10.001372520624267"><ele>40.0</ele><time>2026-04-25T14:00:34.999Z</time></trkpt><trkpt lat="45.13000214476857" lon="10.001412803396569"><ele>40.0</ele><time>2026-04-25T14:00:39.999Z</time></trkpt><trkpt lat="45.13004638529059" lon="10.001502653876559"><ele>40.0</ele><time>2026-04-25T14:00:43.999Z</time></trkpt><trkpt lat="45.13003187183405" lon="10.0016107393089"><ele>40.0</ele><time>2026-04-25T14:00:48.999Z</time></trkpt><trkpt lat="45.13003217579044" lon="10.00171510126429"><ele>40.0</ele><time>2026-04-25T14:00:51.999Z</time></trkpt><trkpt lat="45.12999017730966" lon="10.001819517856298"><ele>40.0</ele><time>2026-04-25T14:00:54.999Z</time></trkpt><trkpt lat="45.129953331557296" lon="10.001906578632264"><ele>40.0</ele><time>2026-04-25T14:00:56.999Z</time></trkpt><trkpt lat="45.12991221599203" lon="10.002009825987152"><ele>40.0</ele><time>2026-04-25T14:00:58.999Z</time></trkpt><trkpt lat="45.129866209836955" lon="10.002120720229232"><ele>40.0</ele><time>2026-04-25T14:01:00.999Z</time></trkpt><trkpt lat="45.12981988729541" lon="10.002227680881774"><ele>40.0</ele><time>2026-04-25T14:01:02.998Z</time></trkpt><trkpt lat="45.12977192976134" lon="10.002340351974002"><ele>40.0</ele><time>2026-04-25T14:01:04.998Z</time></trkpt><trkpt lat="45.12972084659156" lon="10.002452232439163"><ele>39.4</ele><time>2026-04-25T14:01:06.998Z</time></trkpt><trkpt lat="45.129672043584655" lon="10.00256863495987"><ele>38.8</ele><time>2026-04-25T14:01:08.998Z</time></trkpt><trkpt lat="45.129623204425535" lon="10.00268763986678"><ele>38.2</ele><time>2026-04-25T14:01:10.998Z</time></trkpt><trkpt lat="45.129572320585076" lon="10.00281078042731"><ele>37.6</ele><time>2026-04-25T14:01:12.998Z</time></trkpt><trkpt lat="45.12952373987036" lon="10.002930443714456"><ele>37.0</ele><time>2026-04-25T14:01:14.998Z</time></trkpt><trkpt lat="45.12947112007743" lon="10.003047979627167"><ele>37.0</ele><time>2026-04-25T14:01:16.998Z</time></trkpt><trkpt lat="45.12941707005069" lon="10.003172532770346"><ele>37.0</ele><time>2026-04-25T14:01:18.998Z</time></trkpt><trkpt lat="45.129365936825565" lon="10.003299631654674"><ele>37.0</ele><time>2026-04-25T14:01:20.998Z</time></trkpt><trkpt lat="45.12931281290159" lon="10.003430561852173"><ele>37.0</ele><time>2026-04-25T14:01:22.998Z</time></trkpt><trkpt lat="45.1292504795248" lon="10.003576150519873"><ele>37.0</ele><time>2026-04-25T14:01:24.998Z</time></trkpt><trkpt lat="45.129218601484" lon="10.003653701366304"><ele>36.66666666666667</ele><time>2026-04-25T14:01:25.998Z</time></trkpt><trkpt lat="45.12915633106831" lon="10.003809051496754"><ele>36.333333333333336</ele><time>2026-04-25T14:01:27.998Z</time></trkpt><trkpt lat="45.129091633819066" lon="10.003964436533892"><ele>36.0</ele><time>2026-04-25T14:01:29.998Z</time></trkpt><trkpt lat="45.129059499420784" lon="10.004042798080254"><ele>35.666666666666664</ele><time>2026-04-25T14:01:30.998Z</time></trkpt><trkpt lat="45.12902806252232" lon="10.004123168884277"><ele>35.33333333333333</ele><time>2026-04-25T14:01:31.998Z</time></trkpt><trkpt lat="45.12899625526934" lon="10.004200977934493"><ele>35.0</ele><time>2026-04-25T14:01:32.998Z</time></trkpt><trkpt lat="45.12896365183814" lon="10.004279175706712"><ele>34.714285714285715</ele><time>2026-04-25T14:01:33.998Z</time></trkpt><trkpt lat="45.128931367653124" lon="10.004356550932236"><ele>34.42857142857143</ele><time>2026-04-25T14:01:34.998Z</time></trkpt><trkpt lat="45.12890061014053" lon="10.004434620758335"><ele>34.14285714285714</ele><time>2026-04-25T14:01:35.998Z</time></trkpt><trkpt lat="45.128870487510255" lon="10.004515065186505"><ele>33.85714285714286</ele><time>2026-04-25T14:01:36.998Z</time></trkpt><trkpt lat="45.128839850777204" lon="10.004593207661514"><ele>33.57142857142857</ele><time>2026-04-25T14:01:37.998Z</time></trkpt><trkpt lat="45.12880969168319" lon="10.004674955070426"><ele>33.285714285714285</ele><time>2026-04-25T14:01:38.998Z</time></trkpt><trkpt lat="45.12877937370704" lon="10.004758155346424"><ele>33.0</ele><time>2026-04-25T14:01:39.998Z</time></trkpt><trkpt lat="45.12874689657235" lon="10.004839067436395"><ele>33.0</ele><time>2026-04-25T14:01:40.998Z</time></trkpt><trkpt lat="45.128715031430964" lon="10.004922400724553"><ele>33.0</ele><time>2026-04-25T14:01:41.998Z</time></trkpt><trkpt lat="45.12868554822071" lon="10.005007243724732"><ele>33.0</ele><time>2026-04-25T14:01:42.998Z</time></trkpt><trkpt lat="45.12865647119434" lon="10.005090949231274"><ele>33.0</ele><time>2026-04-25T14:01:43.998Z</time></trkpt><trkpt lat="45.128625979088284" lon="10.005174862497546"><ele>33.0</ele><time>2026-04-25T14:01:44.999Z</time></trkpt><trkpt lat="45.12859493661655" lon="10.005257924250197"><ele>33.0</ele><time>2026-04-25T14:01:45.999Z</time></trkpt><trkpt lat="45.128565378626526" lon="10.005346319298376"><ele>33.0</ele><time>2026-04-25T14:01:46.999Z</time></trkpt><trkpt lat="45.128535751096344" lon="10.005432878161045"><ele>33.14285714285714</ele><time>2026-04-25T14:01:47.999Z</time></trkpt><trkpt lat="45.12850392745701" lon="10.005519966708366"><ele>33.285714285714285</ele><time>2026-04-25T14:01:48.999Z</time></trkpt><trkpt lat="45.128472791305306" lon="10.005604441843213"><ele>33.42857142857143</ele><time>2026-04-25T14:01:49.999Z</time></trkpt><trkpt lat="45.128442982793665" lon="10.005689587500717"><ele>33.57142857142857</ele><time>2026-04-25T14:01:50.999Z</time></trkpt><trkpt lat="45.1284132627952" lon="10.00577607859778"><ele>33.714285714285715</ele><time>2026-04-25T14:01:51.999Z</time></trkpt><trkpt lat="45.12838420788236" lon="10.005862968182697"><ele>33.857142857142854</ele><time>2026-04-25T14:01:52.999Z</time></trkpt><trkpt lat="45.12835371636726" lon="10.005952022560137"><ele>34.0</ele><time>2026-04-25T14:01:53.999Z</time></trkpt><trkpt lat="45.12832507123635" lon="10.006041016329826"><ele>34.285714285714285</ele><time>2026-04-25T14:01:54.999Z</time></trkpt><trkpt lat="45.12829490045129" lon="10.006129765013725"><ele>34.57142857142857</ele><time>2026-04-25T14:01:55.999Z</time></trkpt><trkpt lat="45.12826676148748" lon="10.006216703247214"><ele>34.85714285714286</ele><time>2026-04-25T14:01:56.999Z</time></trkpt><trkpt lat="45.12823530039696" lon="10.006303462513396"><ele>35.14285714285714</ele><time>2026-04-25T14:01:57.999Z</time></trkpt><trkpt lat="45.12820417766413" lon="10.006391713098752"><ele>35.42857142857143</ele><time>2026-04-25T14:01:58.999Z</time></trkpt><trkpt lat="45.128173435391254" lon="10.0064790303539"><ele>35.714285714285715</ele><time>2026-04-25T14:01:59.999Z</time></trkpt><trkpt lat="45.12814232903261" lon="10.006567320893332"><ele>36.0</ele><time>2026-04-25T14:02:00.999Z</time></trkpt><trkpt lat="45.128111470815625" lon="10.006656230773668"><ele>36.00000000000001</ele><time>2026-04-25T14:02:01.999Z</time></trkpt><trkpt lat="45.12808112325798" lon="10.006748304547605"><ele>36.0</ele><time>2026-04-25T14:02:02.999Z</time></trkpt><trkpt lat="45.12804997115037" lon="10.00683849573611"><ele>36.0</ele><time>2026-04-25T14:02:03.999Z</time></trkpt><trkpt lat="45.12802065856355" lon="10.006928957559598"><ele>36.0</ele><time>2026-04-25T14:02:04.999Z</time></trkpt><trkpt lat="45.127991050103155" lon="10.007018028548485"><ele>36.0</ele><time>2026-04-25T14:02:05.999Z</time></trkpt><trkpt lat="45.12795939116833" lon="10.007104230784638"><ele>36.00000000000001</ele><time>2026-04-25T14:02:06.999Z</time></trkpt><trkpt lat="45.127928828130734" lon="10.00719362456808"><ele>36.0</ele><time>2026-04-25T14:02:07.999Z</time></trkpt><trkpt lat="45.12789886058277" lon="10.007285259800412"><ele>36.00000000000001</ele><time>2026-04-25T14:02:08.999Z</time></trkpt><trkpt lat="45.127869164686565" lon="10.007372347836212"><ele>36.0</ele><time>2026-04-25T14:02:09.999Z</time></trkpt><trkpt lat="45.12783674072547" lon="10.007461001377772"><ele>36.0</ele><time>2026-04-25T14:02:10.999Z</time></trkpt><trkpt lat="45.12780920517103" lon="10.007549185309845"><ele>36.0</ele><time>2026-04-25T14:02:11.999Z</time></trkpt><trkpt lat="45.12778253206327" lon="10.007632688488716"><ele>36.0</ele><time>2026-04-25T14:02:12.999Z</time></trkpt><trkpt lat="45.12775296584172" lon="10.007718463123508"><ele>36.00000000000001</ele><time>2026-04-25T14:02:13.999Z</time></trkpt><trkpt lat="45.127722382900046" lon="10.007805946888105"><ele>36.0</ele><time>2026-04-25T14:02:14.999Z</time></trkpt><trkpt lat="45.12769226765193" lon="10.007894555429973"><ele>36.00000000000001</ele><time>2026-04-25T14:02:15.999Z</time></trkpt><trkpt lat="45.1276618552251" lon="10.007984120774468"><ele>36.0</ele><time>2026-04-25T14:02:16.999Z</time></trkpt><trkpt lat="45.127629842943755" lon="10.008075805560098"><ele>36.0</ele><time>2026-04-25T14:02:17.999Z</time></trkpt><trkpt lat="45.12759984389136" lon="10.008163938127046"><ele>36.0</ele><time>2026-04-25T14:02:18.999Z</time></trkpt><trkpt lat="45.127568356379975" lon="10.00825660087191"><ele>36.0</ele><time>2026-04-25T14:02:19.999Z</time></trkpt><trkpt lat="45.12753549237919" lon="10.008348568365935"><ele>36.00000000000001</ele><time>2026-04-25T14:02:20.999Z</time></trkpt><trkpt lat="45.12750486006505" lon="10.008441003958877"><ele>36.0</ele><time>2026-04-25T14:02:21.999Z</time></trkpt><trkpt lat="45.127473595618476" lon="10.008533313836436"><ele>36.00000000000001</ele><time>2026-04-25T14:02:22.999Z</time></trkpt><trkpt lat="45.127442142356244" lon="10.008626552972833"><ele>36.0</ele><time>2026-04-25T14:02:23.999Z</time></trkpt><trkpt lat="45.12740944604369" lon="10.00871711972716"><ele>36.0</ele><time>2026-04-25T14:02:24.999Z</time></trkpt><trkpt lat="45.12737895448177" lon="10.008807724922056"><ele>36.0</ele><time>2026-04-25T14:02:25.999Z</time></trkpt><trkpt lat="45.1273485486891" lon="10.008901348117256"><ele>36.0</ele><time>2026-04-25T14:02:26.999Z</time></trkpt><trkpt lat="45.12731791184844" lon="10.00899102659208"><ele>36.00000000000001</ele><time>2026-04-25T14:02:27.999Z</time></trkpt><trkpt lat="45.12728803432341" lon="10.00907669401758"><ele>36.0</ele><time>2026-04-25T14:02:28.999Z</time></trkpt><trkpt lat="45.12726000049667" lon="10.009162904296526"><ele>36.166666666666664</ele><time>2026-04-25T14:02:29.999Z</time></trkpt><trkpt lat="45.12723221891037" lon="10.009244266895326"><ele>36.333333333333336</ele><time>2026-04-25T14:02:30.999Z</time></trkpt><trkpt lat="45.127202771922526" lon="10.009323391460734"><ele>36.5</ele><time>2026-04-25T14:02:31.999Z</time></trkpt><trkpt lat="45.127155165278566" lon="10.009460866859586"><ele>36.66666666666667</ele><time>2026-04-25T14:02:33.999Z</time></trkpt><trkpt lat="45.12710678370195" lon="10.009550374511965"><ele>36.833333333333336</ele><time>2026-04-25T14:02:35.999Z</time></trkpt><trkpt lat="45.127032940143394" lon="10.009573414290827"><ele>37.0</ele><time>2026-04-25T14:02:37.999Z</time></trkpt><trkpt lat="45.126954152309125" lon="10.009468205649714"><ele>37.0</ele><time>2026-04-25T14:02:39.999Z</time></trkpt><trkpt lat="45.12686672905629" lon="10.00937216545194"><ele>37.0</ele><time>2026-04-25T14:02:41.999Z</time></trkpt><trkpt lat="45.12677592104655" lon="10.009270379375113"><ele>37.0</ele><time>2026-04-25T14:02:43.999Z</time></trkpt><trkpt lat="45.12668086358035" lon="10.00917448682429"><ele>37.0</ele><time>2026-04-25T14:02:45.999Z</time></trkpt><trkpt lat="45.12662848391742" lon="10.009122382496049"><ele>37.0</ele><time>2026-04-25T14:02:46.999Z</time></trkpt><trkpt lat="45.12657725738956" lon="10.009067255512042"><ele>37.285714285714285</ele><time>2026-04-25T14:02:47.999Z</time></trkpt><trkpt lat="45.12652466799038" lon="10.00900679960215"><ele>37.57142857142857</ele><time>2026-04-25T14:02:48.999Z</time></trkpt><trkpt lat="45.12647359521362" lon="10.00895440855876"><ele>37.85714285714286</ele><time>2026-04-25T14:02:49.999Z</time></trkpt><trkpt lat="45.12642165519455" lon="10.00888445284269"><ele>38.14285714285714</ele><time>2026-04-25T14:02:50.999Z</time></trkpt><trkpt lat="45.126370739569985" lon="10.008812652242236"><ele>38.42857142857142</ele><time>2026-04-25T14:02:51.999Z</time></trkpt><trkpt lat="45.12631787214291" lon="10.008759723652641"><ele>38.714285714285715</ele><time>2026-04-25T14:02:52.999Z</time></trkpt><trkpt lat="45.126262116152695" lon="10.008703560872334"><ele>39.0</ele><time>2026-04-25T14:02:53.999Z</time></trkpt><trkpt lat="45.126204216965725" lon="10.008646389484989"><ele>39.0</ele><time>2026-04-25T14:02:54.999Z</time></trkpt><trkpt lat="45.12614762890961" lon="10.008590309328783"><ele>39.0</ele><time>2026-04-25T14:02:55.999Z</time></trkpt><trkpt lat="45.126095280485565" lon="10.008527696985503"><ele>39.0</ele><time>2026-04-25T14:02:56.999Z</time></trkpt><trkpt lat="45.12603942068223" lon="10.008468578894272"><ele>39.0</ele><time>2026-04-25T14:02:57.999Z</time></trkpt><trkpt lat="45.12598061860021" lon="10.0084127112142"><ele>39.0</ele><time>2026-04-25T14:02:58.999Z</time></trkpt><trkpt lat="45.1259224882197" lon="10.008356329404572"><ele>39.0</ele><time>2026-04-25T14:02:59.999Z</time></trkpt><trkpt lat="45.125868162199446" lon="10.008298021421961"><ele>39.0</ele><time>2026-04-25T14:03:00.999Z</time></trkpt><trkpt lat="45.12581637323787" lon="10.00823594200488"><ele>38.714285714285715</ele><time>2026-04-25T14:03:01.999Z</time></trkpt><trkpt lat="45.12576016653991" lon="10.008176797091185"><ele>38.42857142857142</ele><time>2026-04-25T14:03:02.999Z</time></trkpt><trkpt lat="45.12570400852081" lon="10.008116443410632"><ele>38.14285714285714</ele><time>2026-04-25T14:03:03.999Z</time></trkpt><trkpt lat="45.12564821893373" lon="10.008060040061137"><ele>37.85714285714286</ele><time>2026-04-25T14:03:04.999Z</time></trkpt><trkpt lat="45.125591612838576" lon="10.008003080380275"><ele>37.57142857142857</ele><time>2026-04-25T14:03:05.999Z</time></trkpt><trkpt lat="45.12553682335503" lon="10.007945347020346"><ele>37.285714285714285</ele><time>2026-04-25T14:03:06.999Z</time></trkpt><trkpt lat="45.12547841204978" lon="10.007891803285876"><ele>37.0</ele><time>2026-04-25T14:03:07.998Z</time></trkpt><trkpt lat="45.125424132713306" lon="10.007830551747029"><ele>36.714285714285715</ele><time>2026-04-25T14:03:08.998Z</time></trkpt><trkpt lat="45.1253679217573" lon="10.007765831571856"><ele>36.42857142857143</ele><time>2026-04-25T14:03:09.998Z</time></trkpt><trkpt lat="45.12530762302575" lon="10.007710146303529"><ele>36.14285714285714</ele><time>2026-04-25T14:03:10.998Z</time></trkpt><trkpt lat="45.12525177019187" lon="10.007649201391907"><ele>35.85714285714286</ele><time>2026-04-25T14:03:11.998Z</time></trkpt><trkpt lat="45.12519495007959" lon="10.007586507894914"><ele>35.57142857142857</ele><time>2026-04-25T14:03:12.998Z</time></trkpt><trkpt lat="45.12513591961537" lon="10.007531174969639"><ele>35.285714285714285</ele><time>2026-04-25T14:03:13.998Z</time></trkpt><trkpt lat="45.125080437576074" lon="10.007473432572008"><ele>35.0</ele><time>2026-04-25T14:03:14.998Z</time></trkpt><trkpt lat="45.1250251360613" lon="10.007413441162049"><ele>34.666666666666664</ele><time>2026-04-25T14:03:15.998Z</time></trkpt><trkpt lat="45.124970845258105" lon="10.00735439239551"><ele>34.33333333333333</ele><time>2026-04-25T14:03:16.998Z</time></trkpt><trkpt lat="45.12491617145112" lon="10.007303612169707"><ele>34.0</ele><time>2026-04-25T14:03:17.998Z</time></trkpt><trkpt lat="45.124827288746715" lon="10.007196469497314"><ele>33.666666666666664</ele><time>2026-04-25T14:03:19.998Z</time></trkpt><trkpt lat="45.1247481514221" lon="10.007130308649916"><ele>33.333333333333336</ele><time>2026-04-25T14:03:21.998Z</time></trkpt><trkpt lat="45.12468097149729" lon="10.007062462293653"><ele>33.0</ele><time>2026-04-25T14:03:23.998Z</time></trkpt><trkpt lat="45.124627209866965" lon="10.00698917279198"><ele>33.8</ele><time>2026-04-25T14:03:25.998Z</time></trkpt><trkpt lat="45.124546020002704" lon="10.007060727486795"><ele>34.599999999999994</ele><time>2026-04-25T14:03:26.998Z</time></trkpt><trkpt lat="45.12451770742421" lon="10.007219571733556"><ele>35.400000000000006</ele><time>2026-04-25T14:03:28.998Z</time></trkpt><trkpt lat="45.12447194690005" lon="10.007366850130417"><ele>36.2</ele><time>2026-04-25T14:03:30.998Z</time></trkpt><trkpt lat="45.12441839308282" lon="10.007524233242842"><ele>37.0</ele><time>2026-04-25T14:03:32.998Z</time></trkpt><trkpt lat="45.124391469559534" lon="10.007605688262768"><ele>37.0</ele><time>2026-04-25T14:03:33.998Z</time></trkpt><trkpt lat="45.12436219291172" lon="10.007688223305042"><ele>37.0</ele><time>2026-04-25T14:03:34.998Z</time></trkpt><trkpt lat="45.12433269004558" lon="10.007772906400108"><ele>37.0</ele><time>2026-04-25T14:03:35.998Z</time></trkpt><trkpt lat="45.12430300817977" lon="10.007859187409707"><ele>37.0</ele><time>2026-04-25T14:03:36.998Z</time></trkpt><trkpt lat="45.12427411740907" lon="10.0079458255868"><ele>37.0</ele><time>2026-04-25T14:03:37.998Z</time></trkpt><trkpt lat="45.12424609017882" lon="10.008032901753861"><ele>37.0</ele><time>2026-04-25T14:03:38.998Z</time></trkpt><trkpt lat="45.12421811544389" lon="10.00811740865361"><ele>37.0</ele><time>2026-04-25T14:03:39.998Z</time></trkpt><trkpt lat="45.12419002931753" lon="10.008201038394008"><ele>37.0</ele><time>2026-04-25T14:03:40.998Z</time></trkpt><trkpt lat="45.12416204215785" lon="10.008287171805293"><ele>37.0</ele><time>2026-04-25T14:03:41.998Z</time></trkpt><trkpt lat="45.12413262660221" lon="10.008376191820087"><ele>37.0</ele><time>2026-04-25T14:03:42.998Z</time></trkpt><trkpt lat="45.12410279808687" lon="10.008468688442685"><ele>37.0</ele><time>2026-04-25T14:03:43.998Z</time></trkpt><trkpt lat="45.12407113349369" lon="10.00856259505073"><ele>37.0</ele><time>2026-04-25T14:03:44.998Z</time></trkpt><trkpt lat="45.124040378221245" lon="10.00865781991924"><ele>37.0</ele><time>2026-04-25T14:03:45.998Z</time></trkpt><trkpt lat="45.12400876226359" lon="10.00875275907154"><ele>37.0</ele><time>2026-04-25T14:03:46.998Z</time></trkpt><trkpt lat="45.12397752433928" lon="10.008846983434571"><ele>36.714285714285715</ele><time>2026-04-25T14:03:47.998Z</time></trkpt><trkpt lat="45.12394405159554" lon="10.008940177541888"><ele>36.42857142857143</ele><time>2026-04-25T14:03:48.998Z</time></trkpt><trkpt lat="45.123911627651644" lon="10.009033307902833"><ele>36.14285714285714</ele><time>2026-04-25T14:03:49.998Z</time></trkpt><trkpt lat="45.12388228995072" lon="10.009125283664106"><ele>35.85714285714286</ele><time>2026-04-25T14:03:50.999Z</time></trkpt><trkpt lat="45.12385110021469" lon="10.00921832882254"><ele>35.57142857142857</ele><time>2026-04-25T14:03:51.999Z</time></trkpt><trkpt lat="45.123820689676485" lon="10.009311636828"><ele>35.285714285714285</ele><time>2026-04-25T14:03:52.999Z</time></trkpt><trkpt lat="45.123788312096075" lon="10.009405510589323"><ele>35.0</ele><time>2026-04-25T14:03:53.999Z</time></trkpt><trkpt lat="45.12375774561674" lon="10.009498661824267"><ele>35.0</ele><time>2026-04-25T14:03:54.999Z</time></trkpt><trkpt lat="45.123726727218134" lon="10.009593126335757"><ele>35.0</ele><time>2026-04-25T14:03:55.999Z</time></trkpt><trkpt lat="45.12369750146376" lon="10.00968510206998"><ele>35.0</ele><time>2026-04-25T14:03:56.999Z</time></trkpt><trkpt lat="45.123667077580905" lon="10.009779690367099"><ele>35.0</ele><time>2026-04-25T14:03:57.999Z</time></trkpt><trkpt lat="45.123635302679155" lon="10.009873091771789"><ele>35.0</ele><time>2026-04-25T14:03:58.999Z</time></trkpt><trkpt lat="45.12360277181719" lon="10.009967627950125"><ele>35.0</ele><time>2026-04-25T14:03:59.999Z</time></trkpt><trkpt lat="45.123569635399534" lon="10.010060581413704"><ele>35.0</ele><time>2026-04-25T14:04:00.999Z</time></trkpt><trkpt lat="45.12353792614627" lon="10.010155429592006"><ele>34.857142857142854</ele><time>2026-04-25T14:04:01.999Z</time></trkpt><trkpt lat="45.12350765362787" lon="10.010249721848483"><ele>34.714285714285715</ele><time>2026-04-25T14:04:02.999Z</time></trkpt><trkpt lat="45.12347638518584" lon="10.01034371084764"><ele>34.57142857142857</ele><time>2026-04-25T14:04:03.999Z</time></trkpt><trkpt lat="45.12344248926586" lon="10.010440686915743"><ele>34.42857142857143</ele><time>2026-04-25T14:04:04.999Z</time></trkpt><trkpt lat="45.12341035548123" lon="10.010536774533286"><ele>34.285714285714285</ele><time>2026-04-25T14:04:05.999Z</time></trkpt><trkpt lat="45.123377688333065" lon="10.010631439364982"><ele>34.14285714285714</ele><time>2026-04-25T14:04:06.999Z</time></trkpt><trkpt lat="45.12334647998265" lon="10.010726529534677"><ele>34.0</ele><time>2026-04-25T14:04:07.999Z</time></trkpt><trkpt lat="45.1233147367022" lon="10.010820922095736"><ele>33.99999999999999</ele><time>2026-04-25T14:04:08.999Z</time></trkpt><trkpt lat="45.123283330894566" lon="10.010915456902369"><ele>34.0</ele><time>2026-04-25T14:04:09.999Z</time></trkpt><trkpt lat="45.12325283693396" lon="10.011008429210023"><ele>34.0</ele><time>2026-04-25T14:04:10.999Z</time></trkpt><trkpt lat="45.123221144261144" lon="10.011103730172621"><ele>34.0</ele><time>2026-04-25T14:04:11.999Z</time></trkpt><trkpt lat="45.123189290701475" lon="10.011197242580035"><ele>34.0</ele><time>2026-04-25T14:04:12.999Z</time></trkpt><trkpt lat="45.12315786492522" lon="10.011292706863832"><ele>33.99999999999999</ele><time>2026-04-25T14:04:13.999Z</time></trkpt><trkpt lat="45.12312662406362" lon="10.011385926678924"><ele>34.0</ele><time>2026-04-25T14:04:14.999Z</time></trkpt><trkpt lat="45.1230951329828" lon="10.011480149171014"><ele>33.99999999999999</ele><time>2026-04-25T14:04:15.999Z</time></trkpt><trkpt lat="45.123064220053585" lon="10.011574079636691"><ele>34.0</ele><time>2026-04-25T14:04:16.999Z</time></trkpt><trkpt lat="45.1230336042985" lon="10.011670509973772"><ele>34.0</ele><time>2026-04-25T14:04:17.999Z</time></trkpt><trkpt lat="45.123000260034736" lon="10.011761270912775"><ele>34.0</ele><time>2026-04-25T14:04:18.999Z</time></trkpt><trkpt lat="45.12296784402944" lon="10.011855397972363"><ele>34.0</ele><time>2026-04-25T14:04:19.999Z</time></trkpt><trkpt lat="45.122936830301164" lon="10.011951291180269"><ele>33.99999999999999</ele><time>2026-04-25T14:04:20.999Z</time></trkpt><trkpt lat="45.12290437416028" lon="10.012046496235827"><ele>34.0</ele><time>2026-04-25T14:04:21.999Z</time></trkpt><trkpt lat="45.12287273128871" lon="10.01214307592084"><ele>33.99999999999999</ele><time>2026-04-25T14:04:22.999Z</time></trkpt><trkpt lat="45.12283858174273" lon="10.012239205955773"><ele>34.0</ele><time>2026-04-25T14:04:23.999Z</time></trkpt><trkpt lat="45.12280815645318" lon="10.012335985340302"><ele>34.0</ele><time>2026-04-25T14:04:24.999Z</time></trkpt><trkpt lat="45.1227753081299" lon="10.012430445189697"><ele>34.0</ele><time>2026-04-25T14:04:25.999Z</time></trkpt><trkpt lat="45.12274169550239" lon="10.012525317957657"><ele>34.0</ele><time>2026-04-25T14:04:26.999Z</time></trkpt><trkpt lat="45.122707724082154" lon="10.012619491473163"><ele>33.99999999999999</ele><time>2026-04-25T14:04:27.999Z</time></trkpt><trkpt lat="45.1226705105708" lon="10.012710063070761"><ele>34.0</ele><time>2026-04-25T14:04:28.999Z</time></trkpt><trkpt lat="45.12263199608184" lon="10.012801262140368"><ele>33.66666666666667</ele><time>2026-04-25T14:04:29.999Z</time></trkpt><trkpt lat="45.1225913530037" lon="10.012894658220315"><ele>33.333333333333336</ele><time>2026-04-25T14:04:30.999Z</time></trkpt><trkpt lat="45.122550894156184" lon="10.01298406211306"><ele>33.0</ele><time>2026-04-25T14:04:31.999Z</time></trkpt><trkpt lat="45.122510246877376" lon="10.013075772147998"><ele>32.666666666666664</ele><time>2026-04-25T14:04:32.999Z</time></trkpt><trkpt lat="45.122465371041166" lon="10.01316237001921"><ele>32.33333333333333</ele><time>2026-04-25T14:04:33.999Z</time></trkpt><trkpt lat="45.1224190972652" lon="10.013246872300924"><ele>32.0</ele><time>2026-04-25T14:04:34.999Z</time></trkpt><trkpt lat="45.12237136275831" lon="10.013330277673457"><ele>31.999999999999996</ele><time>2026-04-25T14:04:35.999Z</time></trkpt><trkpt lat="45.12232235758829" lon="10.013412374690772"><ele>32.0</ele><time>2026-04-25T14:04:36.999Z</time></trkpt><trkpt lat="45.12227257579575" lon="10.013493169865981"><ele>32.0</ele><time>2026-04-25T14:04:37.999Z</time></trkpt><trkpt lat="45.12222461233818" lon="10.013569306730586"><ele>32.0</ele><time>2026-04-25T14:04:38.999Z</time></trkpt><trkpt lat="45.1221716798692" lon="10.013652100513903"><ele>31.999999999999996</ele><time>2026-04-25T14:04:39.999Z</time></trkpt><trkpt lat="45.12212039254952" lon="10.013728175862902"><ele>32.0</ele><time>2026-04-25T14:04:40.999Z</time></trkpt><trkpt lat="45.12206893979491" lon="10.01380859075311"><ele>31.999999999999996</ele><time>2026-04-25T14:04:41.999Z</time></trkpt><trkpt lat="45.12202014657958" lon="10.013888205549922"><ele>32.0</ele><time>2026-04-25T14:04:42.999Z</time></trkpt><trkpt lat="45.12197040694713" lon="10.013968135463664"><ele>32.0</ele><time>2026-04-25T14:04:43.999Z</time></trkpt><trkpt lat="45.121920891242716" lon="10.014049647151701"><ele>32.0</ele><time>2026-04-25T14:04:44.999Z</time></trkpt><trkpt lat="45.12187035279492" lon="10.01412892352447"><ele>31.999999999999996</ele><time>2026-04-25T14:04:45.999Z</time></trkpt><trkpt lat="45.1218192013201" lon="10.014208354965245"><ele>32.0</ele><time>2026-04-25T14:04:46.999Z</time></trkpt><trkpt lat="45.12177000255103" lon="10.014291193040888"><ele>32.33333333333333</ele><time>2026-04-25T14:04:47.999Z</time></trkpt><trkpt lat="45.12171993786141" lon="10.014373202274795"><ele>32.666666666666664</ele><time>2026-04-25T14:04:48.999Z</time></trkpt><trkpt lat="45.12166778288214" lon="10.01445108313699"><ele>33.0</ele><time>2026-04-25T14:04:49.999Z</time></trkpt><trkpt lat="45.121616876204456" lon="10.014530417913404"><ele>33.333333333333336</ele><time>2026-04-25T14:04:50.999Z</time></trkpt><trkpt lat="45.12156675042646" lon="10.014612865478659"><ele>33.66666666666667</ele><time>2026-04-25T14:04:51.999Z</time></trkpt><trkpt lat="45.12151779182512" lon="10.014694119240842"><ele>34.0</ele><time>2026-04-25T14:04:52.999Z</time></trkpt><trkpt lat="45.12146790352291" lon="10.014776006356671"><ele>34.0</ele><time>2026-04-25T14:04:53.999Z</time></trkpt><trkpt lat="45.12141923132043" lon="10.014856996779494"><ele>34.0</ele><time>2026-04-25T14:04:54.999Z</time></trkpt><trkpt lat="45.12137153703698" lon="10.01493892399917"><ele>34.0</ele><time>2026-04-25T14:04:55.999Z</time></trkpt><trkpt lat="45.121321682162616" lon="10.015019904270922"><ele>34.0</ele><time>2026-04-25T14:04:56.999Z</time></trkpt><trkpt lat="45.12127500769573" lon="10.015102670888064"><ele>34.0</ele><time>2026-04-25T14:04:57.999Z</time></trkpt><trkpt lat="45.12122853001344" lon="10.015187695745498"><ele>34.0</ele><time>2026-04-25T14:04:58.999Z</time></trkpt><trkpt lat="45.12118283881334" lon="10.015273174462124"><ele>34.333333333333336</ele><time>2026-04-25T14:04:59.999Z</time></trkpt><trkpt lat="45.121134198263036" lon="10.015358227196067"><ele>34.66666666666667</ele><time>2026-04-25T14:05:00.999Z</time></trkpt><trkpt lat="45.12108720743442" lon="10.015442805442225"><ele>35.0</ele><time>2026-04-25T14:05:01.999Z</time></trkpt><trkpt lat="45.121040542653915" lon="10.01552766293409"><ele>35.333333333333336</ele><time>2026-04-25T14:05:02.999Z</time></trkpt><trkpt lat="45.12099406764037" lon="10.015611901190821"><ele>35.666666666666664</ele><time>2026-04-25T14:05:03.999Z</time></trkpt><trkpt lat="45.12094739940884" lon="10.015696428689049"><ele>36.0</ele><time>2026-04-25T14:05:04.999Z</time></trkpt><trkpt lat="45.12090148385184" lon="10.015780815806613"><ele>35.5</ele><time>2026-04-25T14:05:06Z</time></trkpt><trkpt lat="45.12085503595199" lon="10.015865845438508"><ele>35.0</ele><time>2026-04-25T14:05:07Z</time></trkpt><trkpt lat="45.120808454740505" lon="10.015951251207712"><ele>34.5</ele><time>2026-04-25T14:05:08Z</time></trkpt><trkpt lat="45.12076371148024" lon="10.01603785489887"><ele>34.0</ele><time>2026-04-25T14:05:09Z</time></trkpt><trkpt lat="45.120717492064486" lon="10.016123093356706"><ele>33.5</ele><time>2026-04-25T14:05:10Z</time></trkpt><trkpt lat="45.12067212063243" lon="10.016208673970683"><ele>33.0</ele><time>2026-04-25T14:05:11Z</time></trkpt><trkpt lat="45.12062793572111" lon="10.016296676460515"><ele>32.833333333333336</ele><time>2026-04-25T14:05:12Z</time></trkpt><trkpt lat="45.12058333649748" lon="10.01638492501466"><ele>32.666666666666664</ele><time>2026-04-25T14:05:13Z</time></trkpt><trkpt lat="45.12054392734673" lon="10.016477532330569"><ele>32.5</ele><time>2026-04-25T14:05:14Z</time></trkpt><trkpt lat="45.120504061863976" lon="10.016569807784396"><ele>32.33333333333333</ele><time>2026-04-25T14:05:15Z</time></trkpt><trkpt lat="45.120465760899755" lon="10.016659938430974"><ele>32.166666666666664</ele><time>2026-04-25T14:05:16Z</time></trkpt><trkpt lat="45.120425994338376" lon="10.016751085881612"><ele>32.0</ele><time>2026-04-25T14:05:16.999Z</time></trkpt><trkpt lat="45.1203850023796" lon="10.016842573036637"><ele>32.33333333333333</ele><time>2026-04-25T14:05:17.999Z</time></trkpt><trkpt lat="45.12034565001947" lon="10.0169343359975"><ele>32.666666666666664</ele><time>2026-04-25T14:05:18.999Z</time></trkpt><trkpt lat="45.12030773217992" lon="10.0170274136497"><ele>33.0</ele><time>2026-04-25T14:05:19.999Z</time></trkpt><trkpt lat="45.12026664733566" lon="10.0171183622554"><ele>33.333333333333336</ele><time>2026-04-25T14:05:20.999Z</time></trkpt><trkpt lat="45.12022704491536" lon="10.017209745238443"><ele>33.66666666666667</ele><time>2026-04-25T14:05:21.999Z</time></trkpt><trkpt lat="45.12018708810538" lon="10.017303186737333"><ele>34.0</ele><time>2026-04-25T14:05:22.999Z</time></trkpt><trkpt lat="45.12014811203591" lon="10.017396358505719"><ele>34.16666666666667</ele><time>2026-04-25T14:05:23.999Z</time></trkpt><trkpt lat="45.12010912364408" lon="10.017489206218476"><ele>34.333333333333336</ele><time>2026-04-25T14:05:24.999Z</time></trkpt><trkpt lat="45.12007077401867" lon="10.017582883798676"><ele>34.5</ele><time>2026-04-25T14:05:25.999Z</time></trkpt><trkpt lat="45.120031127840875" lon="10.017675386265603"><ele>34.666666666666664</ele><time>2026-04-25T14:05:26.999Z</time></trkpt><trkpt lat="45.119992542003516" lon="10.017766703954203"><ele>34.83333333333333</ele><time>2026-04-25T14:05:27.999Z</time></trkpt><trkpt lat="45.11995259273256" lon="10.017857526476536"><ele>35.0</ele><time>2026-04-25T14:05:28.999Z</time></trkpt><trkpt lat="45.11991263838738" lon="10.017951747590875"><ele>34.83333333333333</ele><time>2026-04-25T14:05:29.999Z</time></trkpt><trkpt lat="45.11987383385535" lon="10.01804371353812"><ele>34.666666666666664</ele><time>2026-04-25T14:05:30.999Z</time></trkpt><trkpt lat="45.11983363094406" lon="10.018135178347192"><ele>34.5</ele><time>2026-04-25T14:05:31.999Z</time></trkpt><trkpt lat="45.11979552162233" lon="10.018225681319128"><ele>34.333333333333336</ele><time>2026-04-25T14:05:32.999Z</time></trkpt><trkpt lat="45.119756022077034" lon="10.018317627953966"><ele>34.16666666666667</ele><time>2026-04-25T14:05:33.999Z</time></trkpt><trkpt lat="45.11971646771008" lon="10.01841229213225"><ele>34.0</ele><time>2026-04-25T14:05:34.999Z</time></trkpt><trkpt lat="45.11967801030797" lon="10.018504659332207"><ele>33.71428571428571</ele><time>2026-04-25T14:05:35.999Z</time></trkpt><trkpt lat="45.1196395309534" lon="10.018595588149623"><ele>33.42857142857143</ele><time>2026-04-25T14:05:36.999Z</time></trkpt><trkpt lat="45.119600947474886" lon="10.018687245733728"><ele>33.14285714285714</ele><time>2026-04-25T14:05:37.999Z</time></trkpt><trkpt lat="45.119564959582696" lon="10.018779050481506"><ele>32.857142857142854</ele><time>2026-04-25T14:05:38.999Z</time></trkpt><trkpt lat="45.11952667673562" lon="10.01887001840813"><ele>32.57142857142857</ele><time>2026-04-25T14:05:39.999Z</time></trkpt><trkpt lat="45.11948888474902" lon="10.01895942537879"><ele>32.285714285714285</ele><time>2026-04-25T14:05:40.999Z</time></trkpt><trkpt lat="45.1194499618038" lon="10.019049211705768"><ele>32.0</ele><time>2026-04-25T14:05:41.999Z</time></trkpt><trkpt lat="45.11941189126916" lon="10.019138922194852"><ele>32.14285714285714</ele><time>2026-04-25T14:05:42.999Z</time></trkpt><trkpt lat="45.11937460967172" lon="10.019224851290414"><ele>32.285714285714285</ele><time>2026-04-25T14:05:43.999Z</time></trkpt><trkpt lat="45.11933792275639" lon="10.01930895381154"><ele>32.42857142857143</ele><time>2026-04-25T14:05:44.999Z</time></trkpt><trkpt lat="45.11930176712" lon="10.01939207129204"><ele>32.57142857142857</ele><time>2026-04-25T14:05:45.999Z</time></trkpt><trkpt lat="45.119262524823526" lon="10.019476912375755"><ele>32.714285714285715</ele><time>2026-04-25T14:05:46.999Z</time></trkpt><trkpt lat="45.11921925924082" lon="10.019564492736258"><ele>32.857142857142854</ele><time>2026-04-25T14:05:47.999Z</time></trkpt><trkpt lat="45.11916878797827" lon="10.019646574248348"><ele>33.0</ele><time>2026-04-25T14:05:48.999Z</time></trkpt><trkpt lat="45.11911813335572" lon="10.019728077597488"><ele>33.0</ele><time>2026-04-25T14:05:49.999Z</time></trkpt><trkpt lat="45.11906692503796" lon="10.019807266101292"><ele>33.0</ele><time>2026-04-25T14:05:50.999Z</time></trkpt><trkpt lat="45.11901582179776" lon="10.019884699458556"><ele>33.0</ele><time>2026-04-25T14:05:51.999Z</time></trkpt><trkpt lat="45.11896255437782" lon="10.01996431030667"><ele>33.0</ele><time>2026-04-25T14:05:52.999Z</time></trkpt><trkpt lat="45.11890959934468" lon="10.020041140459435"><ele>33.0</ele><time>2026-04-25T14:05:53.999Z</time></trkpt><trkpt lat="45.118855655692315" lon="10.020119931257966"><ele>33.0</ele><time>2026-04-25T14:05:54.999Z</time></trkpt><trkpt lat="45.1188005473597" lon="10.020197851692203"><ele>33.0</ele><time>2026-04-25T14:05:55.999Z</time></trkpt><trkpt lat="45.11874646587696" lon="10.020277389872527"><ele>33.0</ele><time>2026-04-25T14:05:57Z</time></trkpt><trkpt lat="45.11869314981027" lon="10.020357197696974"><ele>33.0</ele><time>2026-04-25T14:05:58Z</time></trkpt><trkpt lat="45.11863895094485" lon="10.020434892440159"><ele>33.0</ele><time>2026-04-25T14:05:59Z</time></trkpt><trkpt lat="45.118584553359575" lon="10.020512228694392"><ele>33.0</ele><time>2026-04-25T14:06:00Z</time></trkpt><trkpt lat="45.1185318110705" lon="10.020590975538868"><ele>33.0</ele><time>2026-04-25T14:06:01Z</time></trkpt><trkpt lat="45.11847808632983" lon="10.0206705678789"><ele>33.0</ele><time>2026-04-25T14:06:02Z</time></trkpt><trkpt lat="45.11842468257389" lon="10.020748707991665"><ele>33.0</ele><time>2026-04-25T14:06:03Z</time></trkpt><trkpt lat="45.11837088104541" lon="10.020825337057833"><ele>33.0</ele><time>2026-04-25T14:06:04Z</time></trkpt><trkpt lat="45.11831451266879" lon="10.020901707657421"><ele>33.0</ele><time>2026-04-25T14:06:05Z</time></trkpt><trkpt lat="45.11825777019657" lon="10.020977955030196"><ele>33.0</ele><time>2026-04-25T14:06:06Z</time></trkpt><trkpt lat="45.11820237743911" lon="10.021057041436944"><ele>33.0</ele><time>2026-04-25T14:06:07Z</time></trkpt><trkpt lat="45.11814478538072" lon="10.021130518590663"><ele>32.833333333333336</ele><time>2026-04-25T14:06:08Z</time></trkpt><trkpt lat="45.118085485219915" lon="10.02120188720977"><ele>32.666666666666664</ele><time>2026-04-25T14:06:09Z</time></trkpt><trkpt lat="45.1180269407158" lon="10.021273723060855"><ele>32.5</ele><time>2026-04-25T14:06:10Z</time></trkpt><trkpt lat="45.11796426726286" lon="10.021342953129448"><ele>32.33333333333333</ele><time>2026-04-25T14:06:11Z</time></trkpt><trkpt lat="45.11790366377295" lon="10.021411490748442"><ele>32.166666666666664</ele><time>2026-04-25T14:06:12Z</time></trkpt><trkpt lat="45.117842768630545" lon="10.021481658682974"><ele>32.0</ele><time>2026-04-25T14:06:13Z</time></trkpt><trkpt lat="45.117782069356856" lon="10.021552653371959"><ele>31.999999999999996</ele><time>2026-04-25T14:06:14Z</time></trkpt><trkpt lat="45.117723527556954" lon="10.021624810351556"><ele>32.0</ele><time>2026-04-25T14:06:15Z</time></trkpt><trkpt lat="45.117663933782005" lon="10.021694109029369"><ele>32.0</ele><time>2026-04-25T14:06:16Z</time></trkpt><trkpt lat="45.11760395407652" lon="10.021764361638075"><ele>32.0</ele><time>2026-04-25T14:06:17Z</time></trkpt><trkpt lat="45.1175429540928" lon="10.021834887809147"><ele>31.999999999999996</ele><time>2026-04-25T14:06:18Z</time></trkpt><trkpt lat="45.117482868635896" lon="10.021903282599094"><ele>32.0</ele><time>2026-04-25T14:06:19Z</time></trkpt><trkpt lat="45.1174236948839" lon="10.021973995818994"><ele>31.999999999999996</ele><time>2026-04-25T14:06:20Z</time></trkpt><trkpt lat="45.117363565871926" lon="10.022042786182272"><ele>32.0</ele><time>2026-04-25T14:06:21Z</time></trkpt><trkpt lat="45.11730546843204" lon="10.022113934567084"><ele>32.0</ele><time>2026-04-25T14:06:22Z</time></trkpt><trkpt lat="45.11724655561603" lon="10.022183134708264"><ele>32.0</ele><time>2026-04-25T14:06:23Z</time></trkpt><trkpt lat="45.11718765637106" lon="10.022251719574985"><ele>31.999999999999996</ele><time>2026-04-25T14:06:24Z</time></trkpt><trkpt lat="45.11712776494872" lon="10.02231960491219"><ele>32.0</ele><time>2026-04-25T14:06:25Z</time></trkpt><trkpt lat="45.117068357618315" lon="10.022388647627775"><ele>31.999999999999996</ele><time>2026-04-25T14:06:26Z</time></trkpt><trkpt lat="45.11700938340756" lon="10.022460380944219"><ele>32.0</ele><time>2026-04-25T14:06:27Z</time></trkpt><trkpt lat="45.11695163171047" lon="10.022532362466333"><ele>32.0</ele><time>2026-04-25T14:06:28Z</time></trkpt><trkpt lat="45.11689624453921" lon="10.022607172973663"><ele>32.0</ele><time>2026-04-25T14:06:29Z</time></trkpt><trkpt lat="45.11684563327111" lon="10.022686705361691"><ele>31.999999999999996</ele><time>2026-04-25T14:06:30Z</time></trkpt><trkpt lat="45.116797491510525" lon="10.0227731989279"><ele>32.0</ele><time>2026-04-25T14:06:31Z</time></trkpt><trkpt lat="45.11674996210049" lon="10.022857545499319"><ele>31.999999999999996</ele><time>2026-04-25T14:06:32Z</time></trkpt><trkpt lat="45.11670339024373" lon="10.022945646706225"><ele>32.0</ele><time>2026-04-25T14:06:33Z</time></trkpt><trkpt lat="45.11665619720054" lon="10.023029810208046"><ele>32.0</ele><time>2026-04-25T14:06:34Z</time></trkpt><trkpt lat="45.11660803502269" lon="10.023115737321689"><ele>32.0</ele><time>2026-04-25T14:06:35Z</time></trkpt><trkpt lat="45.116561433518704" lon="10.023203106415936"><ele>31.999999999999996</ele><time>2026-04-25T14:06:36Z</time></trkpt><trkpt lat="45.11651399155803" lon="10.023290854310133"><ele>32.0</ele><time>2026-04-25T14:06:37Z</time></trkpt><trkpt lat="45.116466959855714" lon="10.023376881533412"><ele>31.999999999999996</ele><time>2026-04-25T14:06:38Z</time></trkpt><trkpt lat="45.11642321702735" lon="10.023465723740967"><ele>32.0</ele><time>2026-04-25T14:06:39Z</time></trkpt><trkpt lat="45.11638227355423" lon="10.023560124756562"><ele>32.0</ele><time>2026-04-25T14:06:40Z</time></trkpt><trkpt lat="45.11634296647889" lon="10.023652548709125"><ele>32.0</ele><time>2026-04-25T14:06:41Z</time></trkpt><trkpt lat="45.116305909949155" lon="10.023746247130232"><ele>31.999999999999996</ele><time>2026-04-25T14:06:42Z</time></trkpt><trkpt lat="45.11627044480732" lon="10.02384300216175"><ele>32.0</ele><time>2026-04-25T14:06:43Z</time></trkpt><trkpt lat="45.116236618351365" lon="10.023939935865197"><ele>31.999999999999996</ele><time>2026-04-25T14:06:44Z</time></trkpt><trkpt lat="45.11618970586838" lon="10.02402810824224"><ele>32.0</ele><time>2026-04-25T14:06:45Z</time></trkpt><trkpt lat="45.116166674924784" lon="10.024134642697316"><ele>32.0</ele><time>2026-04-25T14:06:46Z</time></trkpt><trkpt lat="45.11612259315887" lon="10.024226455302676"><ele>32.0</ele><time>2026-04-25T14:06:47Z</time></trkpt><trkpt lat="45.116086060889494" lon="10.024322151793085"><ele>31.999999999999996</ele><time>2026-04-25T14:06:48Z</time></trkpt><trkpt lat="45.11605334079655" lon="10.024420955177026"><ele>32.0</ele><time>2026-04-25T14:06:49Z</time></trkpt><trkpt lat="45.11601752743877" lon="10.02451873827625"><ele>31.999999999999996</ele><time>2026-04-25T14:06:50Z</time></trkpt><trkpt lat="45.115982285703176" lon="10.02461110125114"><ele>32.0</ele><time>2026-04-25T14:06:51Z</time></trkpt><trkpt lat="45.115946312749294" lon="10.024706894260488"><ele>32.0</ele><time>2026-04-25T14:06:52Z</time></trkpt><trkpt lat="45.115910770754425" lon="10.024803029139417"><ele>32.0</ele><time>2026-04-25T14:06:53Z</time></trkpt><trkpt lat="45.115873493097745" lon="10.024894644483986"><ele>31.999999999999996</ele><time>2026-04-25T14:06:54Z</time></trkpt><trkpt lat="45.11582132531838" lon="10.024975559991075"><ele>32.0</ele><time>2026-04-25T14:06:55Z</time></trkpt><trkpt lat="45.11576202774844" lon="10.02504657608113"><ele>31.833333333333332</ele><time>2026-04-25T14:06:56Z</time></trkpt><trkpt lat="45.11569672952063" lon="10.02510568656861"><ele>31.666666666666664</ele><time>2026-04-25T14:06:57Z</time></trkpt><trkpt lat="45.11562582696024" lon="10.025149509029381"><ele>31.5</ele><time>2026-04-25T14:06:58Z</time></trkpt><trkpt lat="45.11555406028095" lon="10.025185794500661"><ele>31.333333333333336</ele><time>2026-04-25T14:06:59Z</time></trkpt><trkpt lat="45.11547864602863" lon="10.02521306160695"><ele>31.166666666666668</ele><time>2026-04-25T14:07:00Z</time></trkpt><trkpt lat="45.11540433783765" lon="10.02523908707192"><ele>31.0</ele><time>2026-04-25T14:07:01Z</time></trkpt><trkpt lat="45.115329634438915" lon="10.025268349287632"><ele>31.000000000000004</ele><time>2026-04-25T14:07:02Z</time></trkpt><trkpt lat="45.11525529684523" lon="10.025297249961737"><ele>31.0</ele><time>2026-04-25T14:07:03Z</time></trkpt><trkpt lat="45.11518130745638" lon="10.025327080610769"><ele>31.0</ele><time>2026-04-25T14:07:04Z</time></trkpt><trkpt lat="45.11510765550851" lon="10.025355487414807"><ele>31.0</ele><time>2026-04-25T14:07:05Z</time></trkpt><trkpt lat="45.11503242065086" lon="10.025384954629649"><ele>31.000000000000004</ele><time>2026-04-25T14:07:06Z</time></trkpt><trkpt lat="45.114957723720515" lon="10.0254147656949"><ele>31.0</ele><time>2026-04-25T14:07:07Z</time></trkpt><trkpt lat="45.11488347783668" lon="10.025446293428521"><ele>31.000000000000004</ele><time>2026-04-25T14:07:08Z</time></trkpt><trkpt lat="45.11480971786844" lon="10.025477387102889"><ele>31.0</ele><time>2026-04-25T14:07:09Z</time></trkpt><trkpt lat="45.1147342928256" lon="10.02550217201956"><ele>31.0</ele><time>2026-04-25T14:07:10Z</time></trkpt><trkpt lat="45.11465980315069" lon="10.025526760605853"><ele>31.0</ele><time>2026-04-25T14:07:11Z</time></trkpt><trkpt lat="45.11458396314856" lon="10.025553991358075"><ele>31.000000000000004</ele><time>2026-04-25T14:07:12Z</time></trkpt><trkpt lat="45.11450909114615" lon="10.025577389188712"><ele>31.0</ele><time>2026-04-25T14:07:13Z</time></trkpt><trkpt lat="45.11443394469878" lon="10.025601759945118"><ele>31.000000000000004</ele><time>2026-04-25T14:07:14Z</time></trkpt><trkpt lat="45.114359802339976" lon="10.025623291200034"><ele>31.0</ele><time>2026-04-25T14:07:15Z</time></trkpt><trkpt lat="45.11428390631735" lon="10.025645338344791"><ele>31.0</ele><time>2026-04-25T14:07:16Z</time></trkpt><trkpt lat="45.114210037863074" lon="10.025669591698948"><ele>31.0</ele><time>2026-04-25T14:07:17Z</time></trkpt><trkpt lat="45.11413514325539" lon="10.025695324515457"><ele>31.000000000000004</ele><time>2026-04-25T14:07:18Z</time></trkpt><trkpt lat="45.114058782638516" lon="10.025714774939813"><ele>31.0</ele><time>2026-04-25T14:07:19Z</time></trkpt><trkpt lat="45.11398494720954" lon="10.025742074861535"><ele>31.28571428571429</ele><time>2026-04-25T14:07:20Z</time></trkpt><trkpt lat="45.11391176945257" lon="10.025763964334214"><ele>31.571428571428577</ele><time>2026-04-25T14:07:21Z</time></trkpt><trkpt lat="45.11383796258538" lon="10.02578640740522"><ele>31.857142857142858</ele><time>2026-04-25T14:07:22Z</time></trkpt><trkpt lat="45.11376395413642" lon="10.02581065669629"><ele>32.142857142857146</ele><time>2026-04-25T14:07:23Z</time></trkpt><trkpt lat="45.113690775667735" lon="10.025831993871757"><ele>32.42857142857143</ele><time>2026-04-25T14:07:24Z</time></trkpt><trkpt lat="45.11361907380324" lon="10.025856635821844"><ele>32.714285714285715</ele><time>2026-04-25T14:07:25Z</time></trkpt><trkpt lat="45.11354672118714" lon="10.025879862721512"><ele>33.0</ele><time>2026-04-25T14:07:25.999Z</time></trkpt><trkpt lat="45.11347206231687" lon="10.025899787990136"><ele>33.0</ele><time>2026-04-25T14:07:26.999Z</time></trkpt><trkpt lat="45.11339415569518" lon="10.025925275267685"><ele>33.0</ele><time>2026-04-25T14:07:27.999Z</time></trkpt><trkpt lat="45.11331828924132" lon="10.025949763476579"><ele>33.0</ele><time>2026-04-25T14:07:28.999Z</time></trkpt><trkpt lat="45.11324302295401" lon="10.025971041960673"><ele>33.0</ele><time>2026-04-25T14:07:29.999Z</time></trkpt><trkpt lat="45.11317071432517" lon="10.025996336306514"><ele>33.0</ele><time>2026-04-25T14:07:30.999Z</time></trkpt><trkpt lat="45.11309887616642" lon="10.026028252736575"><ele>33.0</ele><time>2026-04-25T14:07:31.999Z</time></trkpt><trkpt lat="45.113024658197496" lon="10.026062161916489"><ele>32.833333333333336</ele><time>2026-04-25T14:07:32.999Z</time></trkpt><trkpt lat="45.112947038370336" lon="10.026082557083653"><ele>32.666666666666664</ele><time>2026-04-25T14:07:33.999Z</time></trkpt><trkpt lat="45.112869005370776" lon="10.02609583173244"><ele>32.5</ele><time>2026-04-25T14:07:34.999Z</time></trkpt><trkpt lat="45.11279392462495" lon="10.026123286710021"><ele>32.33333333333333</ele><time>2026-04-25T14:07:35.999Z</time></trkpt><trkpt lat="45.11272010364577" lon="10.026149487530974"><ele>32.166666666666664</ele><time>2026-04-25T14:07:36.999Z</time></trkpt><trkpt lat="45.1126476607273" lon="10.02617921871491"><ele>32.0</ele><time>2026-04-25T14:07:37.999Z</time></trkpt><trkpt lat="45.11257770887119" lon="10.026217380244793"><ele>31.999999999999996</ele><time>2026-04-25T14:07:38.999Z</time></trkpt><trkpt lat="45.11250670778127" lon="10.02625811928489"><ele>32.0</ele><time>2026-04-25T14:07:39.999Z</time></trkpt><trkpt lat="45.112434862477926" lon="10.026296308725613"><ele>32.0</ele><time>2026-04-25T14:07:40.999Z</time></trkpt><trkpt lat="45.112363706103444" lon="10.026337509396482"><ele>32.0</ele><time>2026-04-25T14:07:41.999Z</time></trkpt><trkpt lat="45.112290426763245" lon="10.02637530312853"><ele>31.999999999999996</ele><time>2026-04-25T14:07:42.999Z</time></trkpt><trkpt lat="45.11221836385802" lon="10.026413402069403"><ele>32.0</ele><time>2026-04-25T14:07:43.999Z</time></trkpt><trkpt lat="45.11214716498629" lon="10.02645198314652"><ele>31.999999999999996</ele><time>2026-04-25T14:07:44.999Z</time></trkpt><trkpt lat="45.11207473762049" lon="10.026490338738093"><ele>32.0</ele><time>2026-04-25T14:07:45.999Z</time></trkpt><trkpt lat="45.112003642872885" lon="10.026531913554717"><ele>32.0</ele><time>2026-04-25T14:07:46.999Z</time></trkpt><trkpt lat="45.11193198729896" lon="10.026572690376286"><ele>32.0</ele><time>2026-04-25T14:07:47.999Z</time></trkpt><trkpt lat="45.11186088992113" lon="10.026613104229611"><ele>31.999999999999996</ele><time>2026-04-25T14:07:48.999Z</time></trkpt><trkpt lat="45.1117910540505" lon="10.026654439938378"><ele>32.0</ele><time>2026-04-25T14:07:49.999Z</time></trkpt><trkpt lat="45.11171970208501" lon="10.026692609233264"><ele>31.857142857142854</ele><time>2026-04-25T14:07:50.999Z</time></trkpt><trkpt lat="45.111648244799454" lon="10.026732393042657"><ele>31.71428571428571</ele><time>2026-04-25T14:07:51.999Z</time></trkpt><trkpt lat="45.111577718749174" lon="10.0267716915254"><ele>31.57142857142857</ele><time>2026-04-25T14:07:52.999Z</time></trkpt><trkpt lat="45.11150631220175" lon="10.026812349496517"><ele>31.42857142857143</ele><time>2026-04-25T14:07:53.999Z</time></trkpt><trkpt lat="45.111437053924114" lon="10.026850829010836"><ele>31.28571428571429</ele><time>2026-04-25T14:07:54.999Z</time></trkpt><trkpt lat="45.11136785182703" lon="10.026887932831778"><ele>31.142857142857146</ele><time>2026-04-25T14:07:55.999Z</time></trkpt><trkpt lat="45.11130255180772" lon="10.026927089483424"><ele>31.0</ele><time>2026-04-25T14:07:56.999Z</time></trkpt><trkpt lat="45.11123892845601" lon="10.026964801972055"><ele>31.571428571428573</ele><time>2026-04-25T14:07:57.999Z</time></trkpt><trkpt lat="45.11117701821682" lon="10.027002507114217"><ele>32.142857142857146</ele><time>2026-04-25T14:07:58.999Z</time></trkpt><trkpt lat="45.11111262950436" lon="10.02703743163803"><ele>32.714285714285715</ele><time>2026-04-25T14:07:59.999Z</time></trkpt><trkpt lat="45.11104408503963" lon="10.027070861863642"><ele>33.285714285714285</ele><time>2026-04-25T14:08:00.999Z</time></trkpt><trkpt lat="45.110972964949084" lon="10.027097598144842"><ele>33.85714285714286</ele><time>2026-04-25T14:08:01.999Z</time></trkpt><trkpt lat="45.11090019316233" lon="10.027133033796481"><ele>34.42857142857143</ele><time>2026-04-25T14:08:03Z</time></trkpt><trkpt lat="45.11083268720441" lon="10.027172297913578"><ele>35.0</ele><time>2026-04-25T14:08:04Z</time></trkpt><trkpt lat="45.11076255857207" lon="10.027212617765882"><ele>34.666666666666664</ele><time>2026-04-25T14:08:05Z</time></trkpt><trkpt lat="45.11069058877553" lon="10.027251300518092"><ele>34.33333333333333</ele><time>2026-04-25T14:08:06Z</time></trkpt><trkpt lat="45.11061323768805" lon="10.027260152094854"><ele>34.0</ele><time>2026-04-25T14:08:07Z</time></trkpt><trkpt lat="45.110539132917275" lon="10.027289655153968"><ele>33.666666666666664</ele><time>2026-04-25T14:08:08Z</time></trkpt><trkpt lat="45.11046755587005" lon="10.027317500281791"><ele>33.333333333333336</ele><time>2026-04-25T14:08:09Z</time></trkpt><trkpt lat="45.11039715278794" lon="10.027362648660887"><ele>33.0</ele><time>2026-04-25T14:08:10Z</time></trkpt><trkpt lat="45.11032413483466" lon="10.027380015460293"><ele>33.0</ele><time>2026-04-25T14:08:11Z</time></trkpt><trkpt lat="45.11024869211196" lon="10.027403776909942"><ele>33.0</ele><time>2026-04-25T14:08:12Z</time></trkpt><trkpt lat="45.11017371759413" lon="10.02742438971397"><ele>33.0</ele><time>2026-04-25T14:08:13Z</time></trkpt><trkpt lat="45.11009936204421" lon="10.027448463844275"><ele>33.0</ele><time>2026-04-25T14:08:14Z</time></trkpt><trkpt lat="45.11002556245183" lon="10.027478071239866"><ele>33.0</ele><time>2026-04-25T14:08:15Z</time></trkpt><trkpt lat="45.109950389225" lon="10.027500336163918"><ele>33.0</ele><time>2026-04-25T14:08:16Z</time></trkpt><trkpt lat="45.10987554274977" lon="10.027525542235688"><ele>32.833333333333336</ele><time>2026-04-25T14:08:17Z</time></trkpt><trkpt lat="45.10980229149497" lon="10.027548739095131"><ele>32.666666666666664</ele><time>2026-04-25T14:08:18Z</time></trkpt><trkpt lat="45.10972909803625" lon="10.027572722596263"><ele>32.5</ele><time>2026-04-25T14:08:19Z</time></trkpt><trkpt lat="45.10965446052066" lon="10.027600046166063"><ele>32.33333333333333</ele><time>2026-04-25T14:08:20Z</time></trkpt><trkpt lat="45.10957938234752" lon="10.027621629613025"><ele>32.166666666666664</ele><time>2026-04-25T14:08:21Z</time></trkpt><trkpt lat="45.109504761256765" lon="10.027647646812389"><ele>32.0</ele><time>2026-04-25T14:08:22Z</time></trkpt><trkpt lat="45.10942969071661" lon="10.02767336811307"><ele>31.999999999999996</ele><time>2026-04-25T14:08:23Z</time></trkpt><trkpt lat="45.10935714125022" lon="10.027696885973734"><ele>32.0</ele><time>2026-04-25T14:08:24Z</time></trkpt><trkpt lat="45.10928303015117" lon="10.027726370847672"><ele>32.0</ele><time>2026-04-25T14:08:25Z</time></trkpt><trkpt lat="45.10920976408541" lon="10.027747665330836"><ele>32.0</ele><time>2026-04-25T14:08:26Z</time></trkpt><trkpt lat="45.10913742447072" lon="10.027772248978524"><ele>31.999999999999996</ele><time>2026-04-25T14:08:27Z</time></trkpt><trkpt lat="45.109063469209985" lon="10.027796901588014"><ele>32.0</ele><time>2026-04-25T14:08:28Z</time></trkpt><trkpt lat="45.10898997298862" lon="10.027822000528348"><ele>32.166666666666664</ele><time>2026-04-25T14:08:29Z</time></trkpt><trkpt lat="45.10891637299577" lon="10.027851188721677"><ele>32.33333333333333</ele><time>2026-04-25T14:08:30Z</time></trkpt><trkpt lat="45.10884156978014" lon="10.027872790731433"><ele>32.5</ele><time>2026-04-25T14:08:31Z</time></trkpt><trkpt lat="45.108767854172584" lon="10.02789703515993"><ele>32.666666666666664</ele><time>2026-04-25T14:08:32Z</time></trkpt><trkpt lat="45.10869398666753" lon="10.027919078988216"><ele>32.833333333333336</ele><time>2026-04-25T14:08:33Z</time></trkpt><trkpt lat="45.108619621815514" lon="10.027940054243693"><ele>33.0</ele><time>2026-04-25T14:08:34Z</time></trkpt><trkpt lat="45.108543126766136" lon="10.027961712089926"><ele>33.0</ele><time>2026-04-25T14:08:35Z</time></trkpt><trkpt lat="45.10846812530764" lon="10.027980478946507"><ele>33.0</ele><time>2026-04-25T14:08:36Z</time></trkpt><trkpt lat="45.108392618998714" lon="10.027998434162198"><ele>33.0</ele><time>2026-04-25T14:08:37Z</time></trkpt><trkpt lat="45.10831458180051" lon="10.027999626253989"><ele>33.0</ele><time>2026-04-25T14:08:38Z</time></trkpt><trkpt lat="45.108236686372415" lon="10.027995416908382"><ele>33.0</ele><time>2026-04-25T14:08:39Z</time></trkpt><trkpt lat="45.10815750759977" lon="10.027996882804308"><ele>33.0</ele><time>2026-04-25T14:08:40Z</time></trkpt><trkpt lat="45.108079109802" lon="10.027995018581255"><ele>32.833333333333336</ele><time>2026-04-25T14:08:41Z</time></trkpt><trkpt lat="45.10800116752862" lon="10.027992889031228"><ele>32.666666666666664</ele><time>2026-04-25T14:08:42Z</time></trkpt><trkpt lat="45.107922867655674" lon="10.027991943980131"><ele>32.5</ele><time>2026-04-25T14:08:43Z</time></trkpt><trkpt lat="45.10784488806542" lon="10.027989101145986"><ele>32.33333333333333</ele><time>2026-04-25T14:08:44Z</time></trkpt><trkpt lat="45.10776667504704" lon="10.027988633193079"><ele>32.166666666666664</ele><time>2026-04-25T14:08:45Z</time></trkpt><trkpt lat="45.10768887277054" lon="10.027989988239291"><ele>32.0</ele><time>2026-04-25T14:08:46Z</time></trkpt><trkpt lat="45.10761244940935" lon="10.027986460293164"><ele>31.999999999999996</ele><time>2026-04-25T14:08:47Z</time></trkpt><trkpt lat="45.10753532466816" lon="10.02798032345598"><ele>32.0</ele><time>2026-04-25T14:08:48Z</time></trkpt><trkpt lat="45.10745774163717" lon="10.027975890975835"><ele>32.0</ele><time>2026-04-25T14:08:49Z</time></trkpt><trkpt lat="45.10738018574784" lon="10.027976118941307"><ele>32.0</ele><time>2026-04-25T14:08:50Z</time></trkpt><trkpt lat="45.10730045170623" lon="10.027973265364178"><ele>31.999999999999996</ele><time>2026-04-25T14:08:51Z</time></trkpt><trkpt lat="45.107224108746145" lon="10.027974405948319"><ele>32.0</ele><time>2026-04-25T14:08:52Z</time></trkpt><trkpt lat="45.107147610254145" lon="10.027971366445938"><ele>32.5</ele><time>2026-04-25T14:08:53Z</time></trkpt><trkpt lat="45.10707095792808" lon="10.027967849693415"><ele>33.0</ele><time>2026-04-25T14:08:54Z</time></trkpt><trkpt lat="45.10699538054583" lon="10.02796259572004"><ele>33.5</ele><time>2026-04-25T14:08:55Z</time></trkpt><trkpt lat="45.1069191819913" lon="10.02796094647127"><ele>34.0</ele><time>2026-04-25T14:08:56Z</time></trkpt><trkpt lat="45.10684323771049" lon="10.027960393391991"><ele>34.5</ele><time>2026-04-25T14:08:57Z</time></trkpt><trkpt lat="45.106767727321795" lon="10.0279596481057"><ele>35.0</ele><time>2026-04-25T14:08:58Z</time></trkpt><trkpt lat="45.106692026749464" lon="10.027957015250625"><ele>35.0</ele><time>2026-04-25T14:08:59Z</time></trkpt><trkpt lat="45.10661664438274" lon="10.027955479700264"><ele>35.0</ele><time>2026-04-25T14:09:00Z</time></trkpt><trkpt lat="45.10653976982535" lon="10.027952728288586"><ele>35.0</ele><time>2026-04-25T14:09:01Z</time></trkpt><trkpt lat="45.10646421962552" lon="10.027951928826399"><ele>35.0</ele><time>2026-04-25T14:09:02Z</time></trkpt><trkpt lat="45.10638817385151" lon="10.027948774484974"><ele>35.0</ele><time>2026-04-25T14:09:03Z</time></trkpt><trkpt lat="45.10631301114603" lon="10.027946743066058"><ele>35.0</ele><time>2026-04-25T14:09:04Z</time></trkpt><trkpt lat="45.10623660433156" lon="10.027945347662715"><ele>34.666666666666664</ele><time>2026-04-25T14:09:05Z</time></trkpt><trkpt lat="45.10616018752334" lon="10.02794245733234"><ele>34.33333333333333</ele><time>2026-04-25T14:09:06Z</time></trkpt><trkpt lat="45.10608339702095" lon="10.027939749061947"><ele>34.0</ele><time>2026-04-25T14:09:07Z</time></trkpt><trkpt lat="45.10600686154132" lon="10.027943983514916"><ele>33.666666666666664</ele><time>2026-04-25T14:09:08Z</time></trkpt><trkpt lat="45.105932484103604" lon="10.027956187556565"><ele>33.333333333333336</ele><time>2026-04-25T14:09:09Z</time></trkpt><trkpt lat="45.105857458059106" lon="10.027984235607589"><ele>33.0</ele><time>2026-04-25T14:09:10Z</time></trkpt><trkpt lat="45.105785746951284" lon="10.028030115990235"><ele>32.714285714285715</ele><time>2026-04-25T14:09:11Z</time></trkpt><trkpt lat="45.10571478055357" lon="10.028061967542293"><ele>32.42857142857143</ele><time>2026-04-25T14:09:12Z</time></trkpt><trkpt lat="45.1056429897804" lon="10.028090059365278"><ele>32.142857142857146</ele><time>2026-04-25T14:09:13Z</time></trkpt><trkpt lat="45.10557306539719" lon="10.028121894758199"><ele>31.857142857142858</ele><time>2026-04-25T14:09:14Z</time></trkpt><trkpt lat="45.10550269443742" lon="10.028162541095325"><ele>31.571428571428577</ele><time>2026-04-25T14:09:15Z</time></trkpt><trkpt lat="45.105432352411505" lon="10.028206614791612"><ele>31.28571428571429</ele><time>2026-04-25T14:09:16Z</time></trkpt><trkpt lat="45.10536286983773" lon="10.028243147030492"><ele>31.0</ele><time>2026-04-25T14:09:17Z</time></trkpt><trkpt lat="45.10529321494025" lon="10.028283906247466"><ele>31.666666666666668</ele><time>2026-04-25T14:09:18Z</time></trkpt><trkpt lat="45.10522314263312" lon="10.02831782355051"><ele>32.333333333333336</ele><time>2026-04-25T14:09:19Z</time></trkpt><trkpt lat="45.10515340122124" lon="10.028357183028596"><ele>33.0</ele><time>2026-04-25T14:09:20Z</time></trkpt><trkpt lat="45.10508427737113" lon="10.028393346586016"><ele>33.666666666666664</ele><time>2026-04-25T14:09:21Z</time></trkpt><trkpt lat="45.105013673791845" lon="10.028434435964195"><ele>34.33333333333333</ele><time>2026-04-25T14:09:22Z</time></trkpt><trkpt lat="45.104943718559234" lon="10.028479830274453"><ele>35.0</ele><time>2026-04-25T14:09:23Z</time></trkpt><trkpt lat="45.10487575672975" lon="10.028528169777077"><ele>35.285714285714285</ele><time>2026-04-25T14:09:24Z</time></trkpt><trkpt lat="45.10481089258847" lon="10.028583451028416"><ele>35.57142857142857</ele><time>2026-04-25T14:09:25Z</time></trkpt><trkpt lat="45.104745728849664" lon="10.028642866805297"><ele>35.85714285714286</ele><time>2026-04-25T14:09:26Z</time></trkpt><trkpt lat="45.10468288731987" lon="10.028696107424057"><ele>36.14285714285714</ele><time>2026-04-25T14:09:27Z</time></trkpt><trkpt lat="45.10462015889647" lon="10.02874857272492"><ele>36.42857142857143</ele><time>2026-04-25T14:09:28Z</time></trkpt><trkpt lat="45.104557206812586" lon="10.028805726521975"><ele>36.714285714285715</ele><time>2026-04-25T14:09:29Z</time></trkpt><trkpt lat="45.104495620279664" lon="10.02886169735471"><ele>37.0</ele><time>2026-04-25T14:09:30Z</time></trkpt><trkpt lat="45.10443417530549" lon="10.028915768346007"><ele>37.0</ele><time>2026-04-25T14:09:30.999Z</time></trkpt><trkpt lat="45.10437727411237" lon="10.028987657989626"><ele>37.0</ele><time>2026-04-25T14:09:31.999Z</time></trkpt><trkpt lat="45.10433817925352" lon="10.0290821921575"><ele>37.0</ele><time>2026-04-25T14:09:32.999Z</time></trkpt><trkpt lat="45.1043127317853" lon="10.029189460611619"><ele>37.0</ele><time>2026-04-25T14:09:33.999Z</time></trkpt><trkpt lat="45.10429060948173" lon="10.029301257994543"><ele>37.0</ele><time>2026-04-25T14:09:34.999Z</time></trkpt><trkpt lat="45.10426904506851" lon="10.02941862300294"><ele>37.0</ele><time>2026-04-25T14:09:35.999Z</time></trkpt><trkpt lat="45.104237389653974" lon="10.02953430455295"><ele>37.2</ele><time>2026-04-25T14:09:36.999Z</time></trkpt><trkpt lat="45.104247534103884" lon="10.029665998025333"><ele>37.400000000000006</ele><time>2026-04-25T14:09:37.999Z</time></trkpt><trkpt lat="45.10423425350335" lon="10.029796453496937"><ele>37.599999999999994</ele><time>2026-04-25T14:09:38.999Z</time></trkpt><trkpt lat="45.10423768297991" lon="10.029929527436181"><ele>37.8</ele><time>2026-04-25T14:09:39.999Z</time></trkpt><trkpt lat="45.10423572194249" lon="10.030059805270538"><ele>38.0</ele><time>2026-04-25T14:09:40.999Z</time></trkpt><trkpt lat="45.10421037408964" lon="10.03017525388086"><ele>38.0</ele><time>2026-04-25T14:09:41.999Z</time></trkpt><trkpt lat="45.104161787457045" lon="10.030263779800237"><ele>38.0</ele><time>2026-04-25T14:09:42.999Z</time></trkpt><trkpt lat="45.10409768725982" lon="10.030342477810118"><ele>38.0</ele><time>2026-04-25T14:09:43.999Z</time></trkpt><trkpt lat="45.104032444028576" lon="10.030413098006923"><ele>38.0</ele><time>2026-04-25T14:09:44.999Z</time></trkpt><trkpt lat="45.103961375933835" lon="10.03048613873394"><ele>38.0</ele><time>2026-04-25T14:09:45.999Z</time></trkpt><trkpt lat="45.10388572614565" lon="10.030550387364581"><ele>38.0</ele><time>2026-04-25T14:09:46.999Z</time></trkpt><trkpt lat="45.1038075867138" lon="10.030613889110175"><ele>38.33333333333333</ele><time>2026-04-25T14:09:47.999Z</time></trkpt><trkpt lat="45.10373842342199" lon="10.030668572188162"><ele>38.666666666666664</ele><time>2026-04-25T14:09:48.999Z</time></trkpt><trkpt lat="45.10367256802588" lon="10.030746755804582"><ele>39.0</ele><time>2026-04-25T14:09:49.999Z</time></trkpt><trkpt lat="45.103602374141545" lon="10.030802517898358"><ele>39.333333333333336</ele><time>2026-04-25T14:09:50.999Z</time></trkpt><trkpt lat="45.1035310927637" lon="10.030873708757317"><ele>39.66666666666667</ele><time>2026-04-25T14:09:51.999Z</time></trkpt><trkpt lat="45.103491914662435" lon="10.030971740626384"><ele>40.0</ele><time>2026-04-25T14:09:52.999Z</time></trkpt><trkpt lat="45.103429883320544" lon="10.031042294037869"><ele>39.42857142857143</ele><time>2026-04-25T14:09:53.999Z</time></trkpt><trkpt lat="45.103395088593906" lon="10.031136665469232"><ele>38.85714285714286</ele><time>2026-04-25T14:09:54.999Z</time></trkpt><trkpt lat="45.103338659460405" lon="10.031203832033"><ele>38.28571428571429</ele><time>2026-04-25T14:09:55.999Z</time></trkpt><trkpt lat="45.10329314220093" lon="10.031284433367693"><ele>37.714285714285715</ele><time>2026-04-25T14:09:56.999Z</time></trkpt><trkpt lat="45.10324918914689" lon="10.031360772893553"><ele>37.142857142857146</ele><time>2026-04-25T14:09:57.999Z</time></trkpt><trkpt lat="45.10321617481425" lon="10.03145105602608"><ele>36.57142857142858</ele><time>2026-04-25T14:09:58.999Z</time></trkpt><trkpt lat="45.10317109404003" lon="10.031526931769656"><ele>36.0</ele><time>2026-04-25T14:09:59.999Z</time></trkpt><trkpt lat="45.103111726361725" lon="10.03159083044427"><ele>35.714285714285715</ele><time>2026-04-25T14:10:00.999Z</time></trkpt><trkpt lat="45.10306617458002" lon="10.031662007270867"><ele>35.42857142857143</ele><time>2026-04-25T14:10:01.999Z</time></trkpt><trkpt lat="45.10302382377842" lon="10.031735505943919"><ele>35.14285714285714</ele><time>2026-04-25T14:10:02.999Z</time></trkpt><trkpt lat="45.1029813923951" lon="10.03181894712225"><ele>34.85714285714286</ele><time>2026-04-25T14:10:03.999Z</time></trkpt><trkpt lat="45.102952656464495" lon="10.031915665536461"><ele>34.57142857142857</ele><time>2026-04-25T14:10:04.999Z</time></trkpt><trkpt lat="45.1028966112739" lon="10.03198545131765"><ele>34.285714285714285</ele><time>2026-04-25T14:10:05.999Z</time></trkpt><trkpt lat="45.1028508426861" lon="10.032063119564441"><ele>34.0</ele><time>2026-04-25T14:10:06.999Z</time></trkpt><trkpt lat="45.10280113473003" lon="10.032142944446802"><ele>33.99999999999999</ele><time>2026-04-25T14:10:08Z</time></trkpt><trkpt lat="45.10275131257515" lon="10.03222157701265"><ele>34.0</ele><time>2026-04-25T14:10:09Z</time></trkpt><trkpt lat="45.10270318828744" lon="10.032297451572836"><ele>34.0</ele><time>2026-04-25T14:10:10Z</time></trkpt><trkpt lat="45.10265476542732" lon="10.032373637423513"><ele>34.0</ele><time>2026-04-25T14:10:11Z</time></trkpt><trkpt lat="45.102604327794126" lon="10.032452993213175"><ele>34.0</ele><time>2026-04-25T14:10:12Z</time></trkpt><trkpt lat="45.1025542375386" lon="10.032530714952385"><ele>33.99999999999999</ele><time>2026-04-25T14:10:13Z</time></trkpt><trkpt lat="45.10250431095487" lon="10.032608140873734"><ele>34.0</ele><time>2026-04-25T14:10:14Z</time></trkpt><trkpt lat="45.102454846467765" lon="10.032684877401255"><ele>33.833333333333336</ele><time>2026-04-25T14:10:15Z</time></trkpt><trkpt lat="45.10241404029251" lon="10.032775548483539"><ele>33.66666666666667</ele><time>2026-04-25T14:10:16Z</time></trkpt><trkpt lat="45.10235038324058" lon="10.032837653694251"><ele>33.5</ele><time>2026-04-25T14:10:17Z</time></trkpt><trkpt lat="45.10229476790258" lon="10.032911208299586"><ele>33.333333333333336</ele><time>2026-04-25T14:10:18Z</time></trkpt><trkpt lat="45.102236626894666" lon="10.032981328507246"><ele>33.166666666666664</ele><time>2026-04-25T14:10:19Z</time></trkpt><trkpt lat="45.1021768074204" lon="10.03304281172557"><ele>33.0</ele><time>2026-04-25T14:10:20Z</time></trkpt><trkpt lat="45.10211554639139" lon="10.033094639420561"><ele>33.0</ele><time>2026-04-25T14:10:21Z</time></trkpt><trkpt lat="45.10205083552479" lon="10.033142200144736"><ele>33.0</ele><time>2026-04-25T14:10:22Z</time></trkpt><trkpt lat="45.10198681291661" lon="10.033183670555587"><ele>33.0</ele><time>2026-04-25T14:10:23Z</time></trkpt><trkpt lat="45.10192040584423" lon="10.033224152632481"><ele>33.0</ele><time>2026-04-25T14:10:24Z</time></trkpt><trkpt lat="45.10185141681905" lon="10.033265762458457"><ele>33.0</ele><time>2026-04-25T14:10:25Z</time></trkpt><trkpt lat="45.101782393562274" lon="10.033307393479754"><ele>33.0</ele><time>2026-04-25T14:10:26Z</time></trkpt><trkpt lat="45.10171386352722" lon="10.033348726728592"><ele>33.0</ele><time>2026-04-25T14:10:27Z</time></trkpt><trkpt lat="45.101644017805164" lon="10.033390853449065"><ele>33.0</ele><time>2026-04-25T14:10:28Z</time></trkpt><trkpt lat="45.10157463953702" lon="10.033432698355895"><ele>33.0</ele><time>2026-04-25T14:10:29Z</time></trkpt><trkpt lat="45.10150531625729" lon="10.033474409662343"><ele>33.0</ele><time>2026-04-25T14:10:30Z</time></trkpt><trkpt lat="45.10143568657973" lon="10.033516267680636"><ele>33.0</ele><time>2026-04-25T14:10:31Z</time></trkpt><trkpt lat="45.1013668279966" lon="10.033558277137386"><ele>33.0</ele><time>2026-04-25T14:10:32Z</time></trkpt><trkpt lat="45.10129814422103" lon="10.033600859056476"><ele>33.0</ele><time>2026-04-25T14:10:33Z</time></trkpt><trkpt lat="45.10123060470778" lon="10.033642731685902"><ele>33.0</ele><time>2026-04-25T14:10:34Z</time></trkpt><trkpt lat="45.101163597404735" lon="10.033684274421438"><ele>33.0</ele><time>2026-04-25T14:10:35Z</time></trkpt><trkpt lat="45.101097523958245" lon="10.033725238133194"><ele>33.0</ele><time>2026-04-25T14:10:36Z</time></trkpt><trkpt lat="45.101033367364735" lon="10.03376500967822"><ele>33.0</ele><time>2026-04-25T14:10:37Z</time></trkpt><trkpt lat="45.10097105744544" lon="10.033803226941055"><ele>33.0</ele><time>2026-04-25T14:10:38Z</time></trkpt><trkpt lat="45.100911632366426" lon="10.033839674799042"><ele>33.0</ele><time>2026-04-25T14:10:39Z</time></trkpt><trkpt lat="45.10085262366484" lon="10.033876121692744"><ele>33.0</ele><time>2026-04-25T14:10:40Z</time></trkpt><trkpt lat="45.10078823166479" lon="10.03391646093312"><ele>33.0</ele><time>2026-04-25T14:10:41Z</time></trkpt><trkpt lat="45.10072004419929" lon="10.033959178070232"><ele>33.0</ele><time>2026-04-25T14:10:42Z</time></trkpt><trkpt lat="45.1006524792024" lon="10.034001505194915"><ele>33.0</ele><time>2026-04-25T14:10:43Z</time></trkpt><trkpt lat="45.100583843486376" lon="10.034044502979189"><ele>33.0</ele><time>2026-04-25T14:10:44Z</time></trkpt><trkpt lat="45.10051611289583" lon="10.034086933888206"><ele>33.0</ele><time>2026-04-25T14:10:45Z</time></trkpt><trkpt lat="45.10044696187073" lon="10.034130254562134"><ele>33.0</ele><time>2026-04-25T14:10:46Z</time></trkpt><trkpt lat="45.10037864543131" lon="10.034173052395621"><ele>33.0</ele><time>2026-04-25T14:10:47Z</time></trkpt><trkpt lat="45.10031072734464" lon="10.034215600709752"><ele>33.166666666666664</ele><time>2026-04-25T14:10:48Z</time></trkpt><trkpt lat="45.10024278802387" lon="10.034258404751027"><ele>33.333333333333336</ele><time>2026-04-25T14:10:49Z</time></trkpt><trkpt lat="45.10018195107637" lon="10.034322160866452"><ele>33.5</ele><time>2026-04-25T14:10:50Z</time></trkpt><trkpt lat="45.100113846897855" lon="10.034365956693495"><ele>33.66666666666667</ele><time>2026-04-25T14:10:51Z</time></trkpt><trkpt lat="45.100045294724026" lon="10.034409655003762"><ele>33.833333333333336</ele><time>2026-04-25T14:10:52Z</time></trkpt><trkpt lat="45.099971252810484" lon="10.034432827498732"><ele>34.0</ele><time>2026-04-25T14:10:53Z</time></trkpt><trkpt lat="45.09990742343049" lon="10.034494270700609"><ele>33.5</ele><time>2026-04-25T14:10:54Z</time></trkpt><trkpt lat="45.099838464931146" lon="10.034535620546235"><ele>33.0</ele><time>2026-04-25T14:10:55Z</time></trkpt><trkpt lat="45.099762195889845" lon="10.03455138997883"><ele>32.5</ele><time>2026-04-25T14:10:56Z</time></trkpt><trkpt lat="45.099691459405285" lon="10.03456970647172"><ele>32.0</ele><time>2026-04-25T14:10:57Z</time></trkpt><trkpt lat="45.099618480380464" lon="10.034583092254424"><ele>31.500000000000004</ele><time>2026-04-25T14:10:58Z</time></trkpt><trkpt lat="45.0995416393485" lon="10.034591090625174"><ele>31.0</ele><time>2026-04-25T14:10:59Z</time></trkpt><trkpt lat="45.09946615138892" lon="10.034600484146308"><ele>31.000000000000004</ele><time>2026-04-25T14:11:00Z</time></trkpt><trkpt lat="45.099387905950685" lon="10.034610220807693"><ele>31.0</ele><time>2026-04-25T14:11:01Z</time></trkpt><trkpt lat="45.09930905148782" lon="10.034620033242085"><ele>31.0</ele><time>2026-04-25T14:11:02Z</time></trkpt><trkpt lat="45.09922963647567" lon="10.03463082466611"><ele>31.0</ele><time>2026-04-25T14:11:03Z</time></trkpt><trkpt lat="45.099150773186196" lon="10.034642573069455"><ele>31.000000000000004</ele><time>2026-04-25T14:11:04Z</time></trkpt><trkpt lat="45.09907244911512" lon="10.034654737305248"><ele>31.0</ele><time>2026-04-25T14:11:05Z</time></trkpt><trkpt lat="45.09899338995324" lon="10.034669316912488"><ele>31.333333333333336</ele><time>2026-04-25T14:11:06Z</time></trkpt><trkpt lat="45.09891433322876" lon="10.034683896081106"><ele>31.666666666666668</ele><time>2026-04-25T14:11:07Z</time></trkpt><trkpt lat="45.098835483534295" lon="10.034698437052436"><ele>32.0</ele><time>2026-04-25T14:11:08Z</time></trkpt><trkpt lat="45.09875761902377" lon="10.034712796348806"><ele>32.333333333333336</ele><time>2026-04-25T14:11:09Z</time></trkpt><trkpt lat="45.09867836358902" lon="10.034727412149245"><ele>32.666666666666664</ele><time>2026-04-25T14:11:10Z</time></trkpt><trkpt lat="45.09859905702397" lon="10.034742037470142"><ele>33.0</ele><time>2026-04-25T14:11:11Z</time></trkpt><trkpt lat="45.09852401431568" lon="10.034736940392664"><ele>33.0</ele><time>2026-04-25T14:11:12Z</time></trkpt><trkpt lat="45.098454427432515" lon="10.034716074904539"><ele>33.0</ele><time>2026-04-25T14:11:13Z</time></trkpt><trkpt lat="45.09836506220566" lon="10.034781744751411"><ele>33.0</ele><time>2026-04-25T14:11:14Z</time></trkpt><trkpt lat="45.09828785929538" lon="10.034783597677562"><ele>33.0</ele><time>2026-04-25T14:11:15Z</time></trkpt><trkpt lat="45.09820909298527" lon="10.034782406996582"><ele>33.0</ele><time>2026-04-25T14:11:16Z</time></trkpt><trkpt lat="45.098130485820064" lon="10.034785883481259"><ele>33.0</ele><time>2026-04-25T14:11:17Z</time></trkpt><trkpt lat="45.09805306311245" lon="10.03479003392717"><ele>33.5</ele><time>2026-04-25T14:11:18Z</time></trkpt><trkpt lat="45.0979693910521" lon="10.034794757602196"><ele>34.0</ele><time>2026-04-25T14:11:19Z</time></trkpt><trkpt lat="45.09789095735265" lon="10.034806824351108"><ele>34.5</ele><time>2026-04-25T14:11:20Z</time></trkpt><trkpt lat="45.09781288738189" lon="10.034823376882686"><ele>35.0</ele><time>2026-04-25T14:11:21Z</time></trkpt><trkpt lat="45.09773604404563" lon="10.034840777444032"><ele>35.5</ele><time>2026-04-25T14:11:22Z</time></trkpt><trkpt lat="45.09765982542316" lon="10.034857417561037"><ele>36.0</ele><time>2026-04-25T14:11:23Z</time></trkpt><trkpt lat="45.0975817948088" lon="10.034871689982074"><ele>36.0</ele><time>2026-04-25T14:11:24Z</time></trkpt><trkpt lat="45.09750550155231" lon="10.034885179273964"><ele>36.0</ele><time>2026-04-25T14:11:25Z</time></trkpt><trkpt lat="45.097431466908105" lon="10.034898134374687"><ele>36.0</ele><time>2026-04-25T14:11:26Z</time></trkpt><trkpt lat="45.097359700393774" lon="10.034909969558518"><ele>36.0</ele><time>2026-04-25T14:11:27Z</time></trkpt><trkpt lat="45.09728843718309" lon="10.034921721735001"><ele>36.0</ele><time>2026-04-25T14:11:28Z</time></trkpt><trkpt lat="45.09722059750854" lon="10.034932909335962"><ele>36.0</ele><time>2026-04-25T14:11:29Z</time></trkpt><trkpt lat="45.0971243673036" lon="10.034950784940744"><ele>35.75</ele><time>2026-04-25T14:11:31Z</time></trkpt><trkpt lat="45.09704304433204" lon="10.034971763054864"><ele>35.5</ele><time>2026-04-25T14:11:33Z</time></trkpt><trkpt lat="45.0970362641427" lon="10.03519018666736"><ele>35.25</ele><time>2026-04-25T14:11:36Z</time></trkpt><trkpt lat="45.09710621252526" lon="10.035318932144552"><ele>35.0</ele><time>2026-04-25T14:11:37.999Z</time></trkpt><trkpt lat="45.09716625614584" lon="10.035458894380227"><ele>35.0</ele><time>2026-04-25T14:11:39.999Z</time></trkpt><trkpt lat="45.097235547895835" lon="10.035603207930222"><ele>35.0</ele><time>2026-04-25T14:11:41.999Z</time></trkpt><trkpt lat="45.09727264503261" lon="10.035678953690553"><ele>35.0</ele><time>2026-04-25T14:11:42.999Z</time></trkpt><trkpt lat="45.09731096853237" lon="10.035760087571656"><ele>35.0</ele><time>2026-04-25T14:11:43.999Z</time></trkpt><trkpt lat="45.09735745748219" lon="10.035836492872905"><ele>35.0</ele><time>2026-04-25T14:11:44.999Z</time></trkpt><trkpt lat="45.09740820737133" lon="10.03591353582334"><ele>35.0</ele><time>2026-04-25T14:11:45.999Z</time></trkpt><trkpt lat="45.097458800939044" lon="10.035987231363864"><ele>35.42857142857143</ele><time>2026-04-25T14:11:46.999Z</time></trkpt><trkpt lat="45.09750940773228" lon="10.036056825858415"><ele>35.85714285714286</ele><time>2026-04-25T14:11:47.999Z</time></trkpt><trkpt lat="45.097563601850695" lon="10.036123881598686"><ele>36.285714285714285</ele><time>2026-04-25T14:11:48.999Z</time></trkpt><trkpt lat="45.09761405902258" lon="10.036195856308282"><ele>36.714285714285715</ele><time>2026-04-25T14:11:49.999Z</time></trkpt><trkpt lat="45.097661638597955" lon="10.036275976701242"><ele>37.142857142857146</ele><time>2026-04-25T14:11:50.999Z</time></trkpt><trkpt lat="45.09771274726107" lon="10.036354542316118"><ele>37.57142857142857</ele><time>2026-04-25T14:11:51.999Z</time></trkpt><trkpt lat="45.097772538765255" lon="10.0364209203407"><ele>38.0</ele><time>2026-04-25T14:11:52.999Z</time></trkpt><trkpt lat="45.097833929822194" lon="10.03647806062485"><ele>38.0</ele><time>2026-04-25T14:11:53.999Z</time></trkpt><trkpt lat="45.097901099924044" lon="10.03652695520079"><ele>38.0</ele><time>2026-04-25T14:11:54.999Z</time></trkpt><trkpt lat="45.097974234838055" lon="10.036568934143052"><ele>38.0</ele><time>2026-04-25T14:11:55.999Z</time></trkpt><trkpt lat="45.098046805610075" lon="10.036609898578764"><ele>38.0</ele><time>2026-04-25T14:11:56.999Z</time></trkpt><trkpt lat="45.09812235667912" lon="10.036655408035498"><ele>38.0</ele><time>2026-04-25T14:11:57.999Z</time></trkpt><trkpt lat="45.09819894281347" lon="10.036700112728562"><ele>38.0</ele><time>2026-04-25T14:11:58.999Z</time></trkpt><trkpt lat="45.098275723773895" lon="10.036748208068143"><ele>37.33333333333333</ele><time>2026-04-25T14:11:59.999Z</time></trkpt><trkpt lat="45.09835104059878" lon="10.036806578376876"><ele>36.666666666666664</ele><time>2026-04-25T14:12:00.999Z</time></trkpt><trkpt lat="45.09841931359947" lon="10.036881523455193"><ele>36.0</ele><time>2026-04-25T14:12:01.999Z</time></trkpt><trkpt lat="45.09848424432969" lon="10.036962943738898"><ele>35.333333333333336</ele><time>2026-04-25T14:12:02.999Z</time></trkpt><trkpt lat="45.098546140226155" lon="10.03704362098264"><ele>34.66666666666667</ele><time>2026-04-25T14:12:03.999Z</time></trkpt><trkpt lat="45.098605877082484" lon="10.037121971874255"><ele>34.0</ele><time>2026-04-25T14:12:04.999Z</time></trkpt><trkpt lat="45.09866920051705" lon="10.037195068326904"><ele>34.0</ele><time>2026-04-25T14:12:05.999Z</time></trkpt><trkpt lat="45.098730951595975" lon="10.037261969893411"><ele>34.0</ele><time>2026-04-25T14:12:06.999Z</time></trkpt><trkpt lat="45.09879277954494" lon="10.037332676165024"><ele>34.0</ele><time>2026-04-25T14:12:07.999Z</time></trkpt><trkpt lat="45.09885345722094" lon="10.037404594785814"><ele>34.0</ele><time>2026-04-25T14:12:08.999Z</time></trkpt><trkpt lat="45.098910723737966" lon="10.037480650098116"><ele>34.0</ele><time>2026-04-25T14:12:09.999Z</time></trkpt><trkpt lat="45.098972185113446" lon="10.037555172987004"><ele>34.0</ele><time>2026-04-25T14:12:10.999Z</time></trkpt><trkpt lat="45.09903872140589" lon="10.037624959457489"><ele>34.333333333333336</ele><time>2026-04-25T14:12:11.999Z</time></trkpt><trkpt lat="45.09910263190381" lon="10.037696323133144"><ele>34.66666666666667</ele><time>2026-04-25T14:12:12.999Z</time></trkpt><trkpt lat="45.09916919507848" lon="10.037766800279966"><ele>35.0</ele><time>2026-04-25T14:12:14.001Z</time></trkpt><trkpt lat="45.09923737119559" lon="10.037828243274435"><ele>35.333333333333336</ele><time>2026-04-25T14:12:15.001Z</time></trkpt><trkpt lat="45.09930520121141" lon="10.037887737863883"><ele>35.666666666666664</ele><time>2026-04-25T14:12:16.001Z</time></trkpt><trkpt lat="45.099373030352886" lon="10.037947242377665"><ele>36.0</ele><time>2026-04-25T14:12:17.001Z</time></trkpt><trkpt lat="45.09944034319511" lon="10.03800851612828"><ele>36.0</ele><time>2026-04-25T14:12:18.001Z</time></trkpt><trkpt lat="45.09950908709911" lon="10.038066112042507"><ele>36.0</ele><time>2026-04-25T14:12:19.001Z</time></trkpt><trkpt lat="45.09957628933516" lon="10.038126565988545"><ele>36.0</ele><time>2026-04-25T14:12:20.001Z</time></trkpt><trkpt lat="45.099644261613506" lon="10.038184634075796"><ele>36.0</ele><time>2026-04-25T14:12:21.001Z</time></trkpt><trkpt lat="45.09971231786308" lon="10.038241697757165"><ele>36.0</ele><time>2026-04-25T14:12:22.001Z</time></trkpt><trkpt lat="45.09977595114039" lon="10.038301415175114"><ele>36.0</ele><time>2026-04-25T14:12:23.001Z</time></trkpt><trkpt lat="45.09984386587843" lon="10.03836096634473"><ele>36.333333333333336</ele><time>2026-04-25T14:12:24.001Z</time></trkpt><trkpt lat="45.09991156917286" lon="10.03841994991811"><ele>36.666666666666664</ele><time>2026-04-25T14:12:25.001Z</time></trkpt><trkpt lat="45.09997787179709" lon="10.038478146456798"><ele>37.0</ele><time>2026-04-25T14:12:26.001Z</time></trkpt><trkpt lat="45.10004726692653" lon="10.03853519495933"><ele>37.33333333333333</ele><time>2026-04-25T14:12:27.001Z</time></trkpt><trkpt lat="45.100116235903165" lon="10.038585691644569"><ele>37.666666666666664</ele><time>2026-04-25T14:12:28.001Z</time></trkpt><trkpt lat="45.10018737139757" lon="10.038629522276604"><ele>38.0</ele><time>2026-04-25T14:12:29Z</time></trkpt><trkpt lat="45.100256795415696" lon="10.038673007512582"><ele>38.0</ele><time>2026-04-25T14:12:30Z</time></trkpt><trkpt lat="45.100316311583235" lon="10.03874157858761"><ele>38.0</ele><time>2026-04-25T14:12:31Z</time></trkpt><trkpt lat="45.10038260761828" lon="10.038796404221547"><ele>38.0</ele><time>2026-04-25T14:12:32Z</time></trkpt><trkpt lat="45.100457989979084" lon="10.038842368793134"><ele>38.0</ele><time>2026-04-25T14:12:33Z</time></trkpt><trkpt lat="45.1005335205875" lon="10.038886717828143"><ele>38.0</ele><time>2026-04-25T14:12:34Z</time></trkpt><trkpt lat="45.10060713484298" lon="10.038934644102044"><ele>38.0</ele><time>2026-04-25T14:12:35Z</time></trkpt><trkpt lat="45.10068228859502" lon="10.03898356373605"><ele>37.83333333333333</ele><time>2026-04-25T14:12:36Z</time></trkpt><trkpt lat="45.10075474844414" lon="10.039025289579772"><ele>37.666666666666664</ele><time>2026-04-25T14:12:37Z</time></trkpt><trkpt lat="45.10082919916834" lon="10.039067182862354"><ele>37.5</ele><time>2026-04-25T14:12:38Z</time></trkpt><trkpt lat="45.10090149233528" lon="10.039107917538866"><ele>37.333333333333336</ele><time>2026-04-25T14:12:39Z</time></trkpt><trkpt lat="45.1009721486764" lon="10.039151769849097"><ele>37.16666666666667</ele><time>2026-04-25T14:12:40Z</time></trkpt><trkpt lat="45.10104546508213" lon="10.039197982705153"><ele>37.0</ele><time>2026-04-25T14:12:41Z</time></trkpt><trkpt lat="45.10112247102058" lon="10.039243378863738"><ele>37.0</ele><time>2026-04-25T14:12:42Z</time></trkpt><trkpt lat="45.10119942068252" lon="10.039286351414226"><ele>37.0</ele><time>2026-04-25T14:12:43Z</time></trkpt><trkpt lat="45.10127372803089" lon="10.039331208656119"><ele>37.0</ele><time>2026-04-25T14:12:44Z</time></trkpt><trkpt lat="45.10134442667374" lon="10.03937913951941"><ele>37.0</ele><time>2026-04-25T14:12:45Z</time></trkpt><trkpt lat="45.10141857317824" lon="10.039426417083009"><ele>37.0</ele><time>2026-04-25T14:12:46Z</time></trkpt><trkpt lat="45.1014936502972" lon="10.039472541190138"><ele>37.0</ele><time>2026-04-25T14:12:47Z</time></trkpt><trkpt lat="45.101570305113725" lon="10.039518725016771"><ele>36.833333333333336</ele><time>2026-04-25T14:12:48Z</time></trkpt><trkpt lat="45.10164389872175" lon="10.039561952581952"><ele>36.66666666666667</ele><time>2026-04-25T14:12:49Z</time></trkpt><trkpt lat="45.101717685508596" lon="10.03960668555015"><ele>36.5</ele><time>2026-04-25T14:12:50Z</time></trkpt><trkpt lat="45.101791972987606" lon="10.03965428516227"><ele>36.333333333333336</ele><time>2026-04-25T14:12:51Z</time></trkpt><trkpt lat="45.10186420740725" lon="10.039702641754669"><ele>36.166666666666664</ele><time>2026-04-25T14:12:52Z</time></trkpt><trkpt lat="45.101938463614566" lon="10.039750172091345"><ele>36.0</ele><time>2026-04-25T14:12:53Z</time></trkpt><trkpt lat="45.1020125749423" lon="10.039792231869914"><ele>36.0</ele><time>2026-04-25T14:12:54Z</time></trkpt><trkpt lat="45.10208774436312" lon="10.039832723314072"><ele>36.0</ele><time>2026-04-25T14:12:55Z</time></trkpt><trkpt lat="45.10216349761824" lon="10.03987031139079"><ele>36.0</ele><time>2026-04-25T14:12:56Z</time></trkpt><trkpt lat="45.10224066246084" lon="10.03990936475664"><ele>36.0</ele><time>2026-04-25T14:12:57Z</time></trkpt><trkpt lat="45.1023171330376" lon="10.039944298679892"><ele>36.0</ele><time>2026-04-25T14:12:58Z</time></trkpt><trkpt lat="45.10239523378655" lon="10.03997699094274"><ele>36.0</ele><time>2026-04-25T14:12:59Z</time></trkpt><trkpt lat="45.10247072849451" lon="10.040011719106019"><ele>35.833333333333336</ele><time>2026-04-25T14:13:00Z</time></trkpt><trkpt lat="45.10254772365582" lon="10.040043176116363"><ele>35.666666666666664</ele><time>2026-04-25T14:13:01Z</time></trkpt><trkpt lat="45.10262385114873" lon="10.040077117108364"><ele>35.5</ele><time>2026-04-25T14:13:02Z</time></trkpt><trkpt lat="45.1027022833043" lon="10.040110967853348"><ele>35.33333333333333</ele><time>2026-04-25T14:13:03Z</time></trkpt><trkpt lat="45.10277975477528" lon="10.040140598513734"><ele>35.166666666666664</ele><time>2026-04-25T14:13:04Z</time></trkpt><trkpt lat="45.10285751647174" lon="10.040174655798044"><ele>35.0</ele><time>2026-04-25T14:13:05Z</time></trkpt><trkpt lat="45.102933295464275" lon="10.040211673913"><ele>35.0</ele><time>2026-04-25T14:13:06Z</time></trkpt><trkpt lat="45.103010416904915" lon="10.040249257675047"><ele>35.0</ele><time>2026-04-25T14:13:07Z</time></trkpt><trkpt lat="45.10308934471082" lon="10.040284947990157"><ele>35.0</ele><time>2026-04-25T14:13:08Z</time></trkpt><trkpt lat="45.10316806535136" lon="10.040314490864116"><ele>35.0</ele><time>2026-04-25T14:13:09Z</time></trkpt><trkpt lat="45.103247861992756" lon="10.040343963132441"><ele>35.0</ele><time>2026-04-25T14:13:10Z</time></trkpt><trkpt lat="45.10332640799041" lon="10.04037652300803"><ele>35.0</ele><time>2026-04-25T14:13:11Z</time></trkpt><trkpt lat="45.10340604059908" lon="10.040408968187384"><ele>35.33333333333333</ele><time>2026-04-25T14:13:12Z</time></trkpt><trkpt lat="45.103487027643716" lon="10.040437739937937"><ele>35.666666666666664</ele><time>2026-04-25T14:13:13Z</time></trkpt><trkpt lat="45.10356897669155" lon="10.040460480926805"><ele>36.0</ele><time>2026-04-25T14:13:14Z</time></trkpt><trkpt lat="45.103650785993395" lon="10.04048525339252"><ele>36.333333333333336</ele><time>2026-04-25T14:13:15Z</time></trkpt><trkpt lat="45.10373571093763" lon="10.040506760316294"><ele>36.66666666666667</ele><time>2026-04-25T14:13:16Z</time></trkpt><trkpt lat="45.103811328332014" lon="10.040535118925419"><ele>37.0</ele><time>2026-04-25T14:13:17Z</time></trkpt><trkpt lat="45.1038876203751" lon="10.04056560574292"><ele>37.0</ele><time>2026-04-25T14:13:18Z</time></trkpt><trkpt lat="45.10396479947078" lon="10.040590952917274"><ele>37.0</ele><time>2026-04-25T14:13:19Z</time></trkpt><trkpt lat="45.1040448203152" lon="10.040615620526381"><ele>37.0</ele><time>2026-04-25T14:13:20Z</time></trkpt><trkpt lat="45.10412470223549" lon="10.040645463563987"><ele>37.0</ele><time>2026-04-25T14:13:21Z</time></trkpt><trkpt lat="45.10420304203299" lon="10.040670956500469"><ele>37.0</ele><time>2026-04-25T14:13:22Z</time></trkpt><trkpt lat="45.10428224677921" lon="10.040695482937032"><ele>37.0</ele><time>2026-04-25T14:13:23Z</time></trkpt><trkpt lat="45.10436145297402" lon="10.040723077452562"><ele>37.333333333333336</ele><time>2026-04-25T14:13:24Z</time></trkpt><trkpt lat="45.10444097990713" lon="10.040754101450842"><ele>37.66666666666667</ele><time>2026-04-25T14:13:25Z</time></trkpt><trkpt lat="45.10451798588516" lon="10.04077789803243"><ele>38.0</ele><time>2026-04-25T14:13:26Z</time></trkpt><trkpt lat="45.10459506305888" lon="10.04079596136609"><ele>38.333333333333336</ele><time>2026-04-25T14:13:27Z</time></trkpt><trkpt lat="45.10466707823302" lon="10.040816812302863"><ele>38.666666666666664</ele><time>2026-04-25T14:13:28Z</time></trkpt><trkpt lat="45.10473886041437" lon="10.040844028650756"><ele>39.0</ele><time>2026-04-25T14:13:29Z</time></trkpt><trkpt lat="45.10480945045443" lon="10.04087575244878"><ele>39.0</ele><time>2026-04-25T14:13:30Z</time></trkpt><trkpt lat="45.104876625299305" lon="10.040907458289094"><ele>39.0</ele><time>2026-04-25T14:13:31Z</time></trkpt><trkpt lat="45.1049465451682" lon="10.040935838544966"><ele>39.0</ele><time>2026-04-25T14:13:32Z</time></trkpt><trkpt lat="45.1050144935823" lon="10.040962940270395"><ele>39.0</ele><time>2026-04-25T14:13:33Z</time></trkpt><trkpt lat="45.1050779754865" lon="10.04098447248454"><ele>39.0</ele><time>2026-04-25T14:13:34Z</time></trkpt><trkpt lat="45.10517670307809" lon="10.04101780163478"><ele>39.0</ele><time>2026-04-25T14:13:36Z</time></trkpt><trkpt lat="45.105123855238816" lon="10.041183993690437"><ele>39.0</ele><time>2026-04-25T14:13:38Z</time></trkpt><trkpt lat="45.105081999358916" lon="10.041257993906115"><ele>39.0</ele><time>2026-04-25T14:13:39Z</time></trkpt><trkpt lat="45.10500579132864" lon="10.041392365160123"><ele>39.0</ele><time>2026-04-25T14:13:41Z</time></trkpt><trkpt lat="45.10496296550257" lon="10.041467792140484"><ele>39.0</ele><time>2026-04-25T14:13:42Z</time></trkpt><trkpt lat="45.10491988879251" lon="10.041542911773739"><ele>39.0</ele><time>2026-04-25T14:13:42.999Z</time></trkpt><trkpt lat="45.10487006475293" lon="10.041628603065499"><ele>39.0</ele><time>2026-04-25T14:13:43.999Z</time></trkpt><trkpt lat="45.10481991067352" lon="10.041714324040159"><ele>38.666666666666664</ele><time>2026-04-25T14:13:44.999Z</time></trkpt><trkpt lat="45.10477025875281" lon="10.041799176708622"><ele>38.333333333333336</ele><time>2026-04-25T14:13:45.999Z</time></trkpt><trkpt lat="45.10471994744375" lon="10.041885153424031"><ele>38.0</ele><time>2026-04-25T14:13:46.999Z</time></trkpt><trkpt lat="45.10467198408231" lon="10.041967117706625"><ele>37.66666666666667</ele><time>2026-04-25T14:13:47.999Z</time></trkpt><trkpt lat="45.10463563368721" lon="10.04206530203748"><ele>37.333333333333336</ele><time>2026-04-25T14:13:48.999Z</time></trkpt><trkpt lat="45.104587458648375" lon="10.042148042979393"><ele>37.0</ele><time>2026-04-25T14:13:49.999Z</time></trkpt><trkpt lat="45.104527066050295" lon="10.042214833613928"><ele>37.0</ele><time>2026-04-25T14:13:50.999Z</time></trkpt><trkpt lat="45.10448976871103" lon="10.042311355353768"><ele>37.0</ele><time>2026-04-25T14:13:51.999Z</time></trkpt><trkpt lat="45.10444025346014" lon="10.042391382261648"><ele>37.0</ele><time>2026-04-25T14:13:52.999Z</time></trkpt><trkpt lat="45.1043916623736" lon="10.042468667734134"><ele>37.0</ele><time>2026-04-25T14:13:53.999Z</time></trkpt><trkpt lat="45.104345842214535" lon="10.042546676570241"><ele>37.0</ele><time>2026-04-25T14:13:54.999Z</time></trkpt><trkpt lat="45.10430316872153" lon="10.042621636820149"><ele>37.0</ele><time>2026-04-25T14:13:55.999Z</time></trkpt><trkpt lat="45.1042583469101" lon="10.0426970925326"><ele>37.0</ele><time>2026-04-25T14:13:56.999Z</time></trkpt><trkpt lat="45.10421103173844" lon="10.042773672709567"><ele>37.0</ele><time>2026-04-25T14:13:57.999Z</time></trkpt><trkpt lat="45.10416622585289" lon="10.042854891357699"><ele>37.0</ele><time>2026-04-25T14:13:58.999Z</time></trkpt><trkpt lat="45.104120649250326" lon="10.042933998946541"><ele>37.0</ele><time>2026-04-25T14:13:59.999Z</time></trkpt><trkpt lat="45.104076568883386" lon="10.04300356130206"><ele>37.0</ele><time>2026-04-25T14:14:00.999Z</time></trkpt><trkpt lat="45.10400138569559" lon="10.043122706409832"><ele>37.0</ele><time>2026-04-25T14:14:02.999Z</time></trkpt><trkpt lat="45.1039360694195" lon="10.04321891387022"><ele>37.0</ele><time>2026-04-25T14:14:04.999Z</time></trkpt><trkpt lat="45.10386969447269" lon="10.04332096930021"><ele>36.833333333333336</ele><time>2026-04-25T14:14:06.999Z</time></trkpt><trkpt lat="45.10390447751828" lon="10.043443410679382"><ele>36.66666666666667</ele><time>2026-04-25T14:14:07.999Z</time></trkpt><trkpt lat="45.10393360273763" lon="10.043536738345894"><ele>36.5</ele><time>2026-04-25T14:14:08.999Z</time></trkpt><trkpt lat="45.10397213398768" lon="10.043625817620828"><ele>36.333333333333336</ele><time>2026-04-25T14:14:09.999Z</time></trkpt><trkpt lat="45.10401340987838" lon="10.043719816316525"><ele>36.166666666666664</ele><time>2026-04-25T14:14:10.999Z</time></trkpt><trkpt lat="45.104047748578" lon="10.0438139754439"><ele>36.0</ele><time>2026-04-25T14:14:11.999Z</time></trkpt><trkpt lat="45.10408414510729" lon="10.043910411775933"><ele>36.0</ele><time>2026-04-25T14:14:12.999Z</time></trkpt><trkpt lat="45.10411729304951" lon="10.044008632689685"><ele>36.0</ele><time>2026-04-25T14:14:13.999Z</time></trkpt><trkpt lat="45.10415198751979" lon="10.044110222948822"><ele>36.0</ele><time>2026-04-25T14:14:14.999Z</time></trkpt><trkpt lat="45.10418308901476" lon="10.044214999506455"><ele>36.0</ele><time>2026-04-25T14:14:15.999Z</time></trkpt><trkpt lat="45.10421737454898" lon="10.044322091738943"><ele>36.0</ele><time>2026-04-25T14:14:16.999Z</time></trkpt><trkpt lat="45.10424723278514" lon="10.044432665821484"><ele>36.0</ele><time>2026-04-25T14:14:17.999Z</time></trkpt><trkpt lat="45.10427250863841" lon="10.044549729779435"><ele>36.0</ele><time>2026-04-25T14:14:18.999Z</time></trkpt><trkpt lat="45.104292963397754" lon="10.044668326766477"><ele>36.0</ele><time>2026-04-25T14:14:20.001Z</time></trkpt><trkpt lat="45.10431885157269" lon="10.044786041494167"><ele>36.0</ele><time>2026-04-25T14:14:21.001Z</time></trkpt><trkpt lat="45.104346937247726" lon="10.044902257993213"><ele>36.0</ele><time>2026-04-25T14:14:22.001Z</time></trkpt><trkpt lat="45.104374393029254" lon="10.04501865740944"><ele>36.0</ele><time>2026-04-25T14:14:23.001Z</time></trkpt><trkpt lat="45.104399820013164" lon="10.045133898930384"><ele>36.0</ele><time>2026-04-25T14:14:24.001Z</time></trkpt><trkpt lat="45.10442649431566" lon="10.045249700634841"><ele>35.833333333333336</ele><time>2026-04-25T14:14:25.001Z</time></trkpt><trkpt lat="45.1044523634609" lon="10.045364988290215"><ele>35.666666666666664</ele><time>2026-04-25T14:14:26.001Z</time></trkpt><trkpt lat="45.10447902317132" lon="10.045477104509901"><ele>35.5</ele><time>2026-04-25T14:14:27.001Z</time></trkpt><trkpt lat="45.1045072744474" lon="10.045591156037931"><ele>35.33333333333333</ele><time>2026-04-25T14:14:28.001Z</time></trkpt><trkpt lat="45.104534038899395" lon="10.045708467409522"><ele>35.166666666666664</ele><time>2026-04-25T14:14:29.001Z</time></trkpt><trkpt lat="45.10455943252697" lon="10.045826872278454"><ele>35.0</ele><time>2026-04-25T14:14:30.001Z</time></trkpt><trkpt lat="45.104583557045174" lon="10.045944786615554"><ele>34.666666666666664</ele><time>2026-04-25T14:14:31.001Z</time></trkpt><trkpt lat="45.10460858519943" lon="10.046060847401"><ele>34.33333333333333</ele><time>2026-04-25T14:14:32.001Z</time></trkpt><trkpt lat="45.10463346158439" lon="10.04617390400438"><ele>34.0</ele><time>2026-04-25T14:14:33.001Z</time></trkpt><trkpt lat="45.1046580609254" lon="10.046284784942861"><ele>33.666666666666664</ele><time>2026-04-25T14:14:34.001Z</time></trkpt><trkpt lat="45.104682680575706" lon="10.046395171188259"><ele>33.333333333333336</ele><time>2026-04-25T14:14:35.001Z</time></trkpt><trkpt lat="45.10470856348981" lon="10.046505302285539"><ele>33.0</ele><time>2026-04-25T14:14:36.001Z</time></trkpt><trkpt lat="45.10473544175611" lon="10.046620447705944"><ele>33.0</ele><time>2026-04-25T14:14:37.001Z</time></trkpt><trkpt lat="45.10475847828699" lon="10.046733008034055"><ele>33.0</ele><time>2026-04-25T14:14:38Z</time></trkpt><trkpt lat="45.104784916944155" lon="10.04684788513014"><ele>33.0</ele><time>2026-04-25T14:14:39Z</time></trkpt><trkpt lat="45.10481003202199" lon="10.04695757174731"><ele>33.0</ele><time>2026-04-25T14:14:40Z</time></trkpt><trkpt lat="45.104836514825934" lon="10.047069749625493"><ele>33.0</ele><time>2026-04-25T14:14:41Z</time></trkpt><trkpt lat="45.104861870226564" lon="10.047181622221272"><ele>33.0</ele><time>2026-04-25T14:14:42Z</time></trkpt><trkpt lat="45.10488664562126" lon="10.047292630832175"><ele>33.0</ele><time>2026-04-25T14:14:43Z</time></trkpt><trkpt lat="45.1049114044323" lon="10.04740323262604"><ele>33.0</ele><time>2026-04-25T14:14:44Z</time></trkpt><trkpt lat="45.1049403167131" lon="10.04751275208306"><ele>33.0</ele><time>2026-04-25T14:14:45Z</time></trkpt><trkpt lat="45.10496738460814" lon="10.04762331113295"><ele>33.0</ele><time>2026-04-25T14:14:46Z</time></trkpt><trkpt lat="45.10499944210072" lon="10.047732421040163"><ele>33.0</ele><time>2026-04-25T14:14:47Z</time></trkpt><trkpt lat="45.10502809897112" lon="10.047845196255828"><ele>33.0</ele><time>2026-04-25T14:14:48Z</time></trkpt><trkpt lat="45.10505405277387" lon="10.047961009036278"><ele>33.333333333333336</ele><time>2026-04-25T14:14:49Z</time></trkpt><trkpt lat="45.105073269631916" lon="10.048078555287313"><ele>33.666666666666664</ele><time>2026-04-25T14:14:50Z</time></trkpt><trkpt lat="45.105085623057384" lon="10.04819978037414"><ele>34.0</ele><time>2026-04-25T14:14:51Z</time></trkpt><trkpt lat="45.10509507522589" lon="10.048317373034745"><ele>34.33333333333333</ele><time>2026-04-25T14:14:52Z</time></trkpt><trkpt lat="45.10510706104184" lon="10.048433731571581"><ele>34.666666666666664</ele><time>2026-04-25T14:14:53Z</time></trkpt><trkpt lat="45.10512173632054" lon="10.04855311330272"><ele>35.0</ele><time>2026-04-25T14:14:54Z</time></trkpt><trkpt lat="45.10513821414773" lon="10.048669923564342"><ele>35.0</ele><time>2026-04-25T14:14:55Z</time></trkpt><trkpt lat="45.10515169161853" lon="10.048785789790898"><ele>35.0</ele><time>2026-04-25T14:14:56Z</time></trkpt><trkpt lat="45.105161789694826" lon="10.048900779324597"><ele>35.0</ele><time>2026-04-25T14:14:57Z</time></trkpt><trkpt lat="45.10517028677452" lon="10.04901521425742"><ele>35.0</ele><time>2026-04-25T14:14:58Z</time></trkpt><trkpt lat="45.10517809351664" lon="10.04912861195789"><ele>35.0</ele><time>2026-04-25T14:14:59Z</time></trkpt><trkpt lat="45.10518576718746" lon="10.049241353952766"><ele>35.0</ele><time>2026-04-25T14:15:00Z</time></trkpt><trkpt lat="45.10519250845" lon="10.049355415356832"><ele>34.33333333333333</ele><time>2026-04-25T14:15:01Z</time></trkpt><trkpt lat="45.105194425064916" lon="10.049468556294133"><ele>33.666666666666664</ele><time>2026-04-25T14:15:02Z</time></trkpt><trkpt lat="45.10519882885946" lon="10.049582818307433"><ele>33.0</ele><time>2026-04-25T14:15:03Z</time></trkpt><trkpt lat="45.10460858519943" lon="10.046060847401"><ele>33.0</ele><time>2026-04-25T14:14:32.001Z</time></trkpt><trkpt lat="45.10463346158439" lon="10.04617390400438"><ele>33.0</ele><time>2026-04-25T14:14:33.001Z</time></trkpt><trkpt lat="45.1046580609254" lon="10.046284784942861"><ele>33.0</ele><time>2026-04-25T14:14:34.001Z</time></trkpt><trkpt lat="45.104682680575706" lon="10.046395171188259"><ele>33.0</ele><time>2026-04-25T14:14:35.001Z</time></trkpt><trkpt lat="45.10470856348981" lon="10.046505302285539"><ele>33.0</ele><time>2026-04-25T14:14:36.001Z</time></trkpt><trkpt lat="45.10473544175611" lon="10.046620447705944"><ele>33.0</ele><time>2026-04-25T14:14:37.001Z</time></trkpt><trkpt lat="45.10475847828699" lon="10.046733008034055"><ele>33.0</ele><time>2026-04-25T14:14:38Z</time></trkpt><trkpt lat="45.104784916944155" lon="10.04684788513014"><ele>33.0</ele><time>2026-04-25T14:14:39Z</time></trkpt><trkpt lat="45.10481003202199" lon="10.04695757174731"><ele>33.0</ele><time>2026-04-25T14:14:40Z</time></trkpt><trkpt lat="45.104836514825934" lon="10.047069749625493"><ele>33.0</ele><time>2026-04-25T14:14:41Z</time></trkpt><trkpt lat="45.104861870226564" lon="10.047181622221272"><ele>33.0</ele><time>2026-04-25T14:14:42Z</time></trkpt><trkpt lat="45.10488664562126" lon="10.047292630832175"><ele>33.0</ele><time>2026-04-25T14:14:43Z</time></trkpt><trkpt lat="45.1049114044323" lon="10.04740323262604"><ele>33.333333333333336</ele><time>2026-04-25T14:14:44Z</time></trkpt><trkpt lat="45.1049403167131" lon="10.04751275208306"><ele>33.666666666666664</ele><time>2026-04-25T14:14:45Z</time></trkpt><trkpt lat="45.10496738460814" lon="10.04762331113295"><ele>34.0</ele><time>2026-04-25T14:14:46Z</time></trkpt><trkpt lat="45.10499944210072" lon="10.047732421040163"><ele>34.33333333333333</ele><time>2026-04-25T14:14:47Z</time></trkpt><trkpt lat="45.10502809897112" lon="10.047845196255828"><ele>34.666666666666664</ele><time>2026-04-25T14:14:48Z</time></trkpt><trkpt lat="45.10505405277387" lon="10.047961009036278"><ele>35.0</ele><time>2026-04-25T14:14:49Z</time></trkpt><trkpt lat="45.105073269631916" lon="10.048078555287313"><ele>35.0</ele><time>2026-04-25T14:14:50Z</time></trkpt><trkpt lat="45.105085623057384" lon="10.04819978037414"><ele>35.0</ele><time>2026-04-25T14:14:51Z</time></trkpt><trkpt lat="45.10509507522589" lon="10.048317373034745"><ele>35.0</ele><time>2026-04-25T14:14:52Z</time></trkpt><trkpt lat="45.10510706104184" lon="10.048433731571581"><ele>35.0</ele><time>2026-04-25T14:14:53Z</time></trkpt><trkpt lat="45.10512173632054" lon="10.04855311330272"><ele>35.0</ele><time>2026-04-25T14:14:54Z</time></trkpt><trkpt lat="45.10513821414773" lon="10.048669923564342"><ele>35.0</ele><time>2026-04-25T14:14:55Z</time></trkpt><trkpt lat="45.10515169161853" lon="10.048785789790898"><ele>35.0</ele><time>2026-04-25T14:14:56Z</time></trkpt><trkpt lat="45.105161789694826" lon="10.048900779324597"><ele>35.0</ele><time>2026-04-25T14:14:57Z</time></trkpt><trkpt lat="45.10517028677452" lon="10.04901521425742"><ele>35.0</ele><time>2026-04-25T14:14:58Z</time></trkpt><trkpt lat="45.10517809351664" lon="10.04912861195789"><ele>35.0</ele><time>2026-04-25T14:14:59Z</time></trkpt><trkpt lat="45.10518576718746" lon="10.049241353952766"><ele>35.0</ele><time>2026-04-25T14:15:00Z</time></trkpt><trkpt lat="45.10519250845" lon="10.049355415356832"><ele>35.0</ele><time>2026-04-25T14:15:01Z</time></trkpt><trkpt lat="45.105194425064916" lon="10.049468556294133"><ele>34.83333333333333</ele><time>2026-04-25T14:15:02Z</time></trkpt><trkpt lat="45.10519882885946" lon="10.049582818307433"><ele>34.666666666666664</ele><time>2026-04-25T14:15:03Z</time></trkpt><trkpt lat="45.10520359144003" lon="10.049695963156394"><ele>34.5</ele><time>2026-04-25T14:15:04Z</time></trkpt><trkpt lat="45.1052069767933" lon="10.049808675838257"><ele>34.333333333333336</ele><time>2026-04-25T14:15:05Z</time></trkpt><trkpt lat="45.105210268839635" lon="10.049921712083314"><ele>34.16666666666667</ele><time>2026-04-25T14:15:06Z</time></trkpt><trkpt lat="45.10521106506653" lon="10.05003373617873"><ele>34.0</ele><time>2026-04-25T14:15:07Z</time></trkpt><trkpt lat="45.1052113588476" lon="10.050144814648451"><ele>34.0</ele><time>2026-04-25T14:15:08Z</time></trkpt><trkpt lat="45.105210824783214" lon="10.050258667932212"><ele>34.0</ele><time>2026-04-25T14:15:09Z</time></trkpt><trkpt lat="45.10521218106181" lon="10.050371380827317"><ele>34.0</ele><time>2026-04-25T14:15:10Z</time></trkpt><trkpt lat="45.10521227634458" lon="10.050485217053621"><ele>34.0</ele><time>2026-04-25T14:15:11Z</time></trkpt><trkpt lat="45.10521469244884" lon="10.050598846327736"><ele>34.0</ele><time>2026-04-25T14:15:12Z</time></trkpt><trkpt lat="45.105214976133524" lon="10.050713761397803"><ele>34.0</ele><time>2026-04-25T14:15:13Z</time></trkpt><trkpt lat="45.105213728644344" lon="10.05082981897152"><ele>33.833333333333336</ele><time>2026-04-25T14:15:14Z</time></trkpt><trkpt lat="45.10521327517813" lon="10.05094400682138"><ele>33.66666666666667</ele><time>2026-04-25T14:15:15Z</time></trkpt><trkpt lat="45.10521702195024" lon="10.051059903731973"><ele>33.5</ele><time>2026-04-25T14:15:16Z</time></trkpt><trkpt lat="45.105218327859184" lon="10.051167655702452"><ele>33.333333333333336</ele><time>2026-04-25T14:15:17Z</time></trkpt><trkpt lat="45.10520692202445" lon="10.051272933104423"><ele>33.166666666666664</ele><time>2026-04-25T14:15:18Z</time></trkpt><trkpt lat="45.10521275243704" lon="10.051372712372716"><ele>33.0</ele><time>2026-04-25T14:15:19Z</time></trkpt><trkpt lat="45.10516196789592" lon="10.051451321791319"><ele>33.0</ele><time>2026-04-25T14:15:20Z</time></trkpt><trkpt lat="45.105070646032594" lon="10.051462753872327"><ele>33.0</ele><time>2026-04-25T14:15:21Z</time></trkpt><trkpt lat="45.10498923901691" lon="10.051439456129447"><ele>33.0</ele><time>2026-04-25T14:15:22Z</time></trkpt><trkpt lat="45.1049064752695" lon="10.051431007906007"><ele>33.0</ele><time>2026-04-25T14:15:23Z</time></trkpt><trkpt lat="45.10482321061299" lon="10.051430279343524"><ele>33.0</ele><time>2026-04-25T14:15:24Z</time></trkpt><trkpt lat="45.104738630777874" lon="10.051429539289009"><ele>33.0</ele><time>2026-04-25T14:15:25Z</time></trkpt><trkpt lat="45.10465367718864" lon="10.05142336501663"><ele>33.0</ele><time>2026-04-25T14:15:26Z</time></trkpt><trkpt lat="45.104570185177884" lon="10.05141502935904"><ele>33.0</ele><time>2026-04-25T14:15:27Z</time></trkpt><trkpt lat="45.104486983943076" lon="10.051401390978398"><ele>33.0</ele><time>2026-04-25T14:15:28Z</time></trkpt><trkpt lat="45.104400776458114" lon="10.051384944748326"><ele>33.0</ele><time>2026-04-25T14:15:29Z</time></trkpt><trkpt lat="45.10431795840483" lon="10.05136898319604"><ele>33.0</ele><time>2026-04-25T14:15:30Z</time></trkpt><trkpt lat="45.10423409169069" lon="10.051352819539156"><ele>33.0</ele><time>2026-04-25T14:15:31Z</time></trkpt><trkpt lat="45.10414755354251" lon="10.051337075048965"><ele>33.166666666666664</ele><time>2026-04-25T14:15:32Z</time></trkpt><trkpt lat="45.10406401286414" lon="10.051321904979314"><ele>33.333333333333336</ele><time>2026-04-25T14:15:33Z</time></trkpt><trkpt lat="45.103979742564945" lon="10.051306602430813"><ele>33.5</ele><time>2026-04-25T14:15:34Z</time></trkpt><trkpt lat="45.103895369641805" lon="10.051291281395788"><ele>33.66666666666667</ele><time>2026-04-25T14:15:35Z</time></trkpt><trkpt lat="45.1038100733951" lon="10.051276083661554"><ele>33.833333333333336</ele><time>2026-04-25T14:15:36Z</time></trkpt><trkpt lat="45.10372573404077" lon="10.051261004684603"><ele>34.0</ele><time>2026-04-25T14:15:37Z</time></trkpt><trkpt lat="45.103640043981194" lon="10.051268221288872"><ele>34.0</ele><time>2026-04-25T14:15:38Z</time></trkpt><trkpt lat="45.10355796634867" lon="10.051231009646706"><ele>34.0</ele><time>2026-04-25T14:15:39Z</time></trkpt><trkpt lat="45.103474337337964" lon="10.051239446363265"><ele>34.0</ele><time>2026-04-25T14:15:40Z</time></trkpt><trkpt lat="45.103394040669954" lon="10.051222692016122"><ele>34.0</ele><time>2026-04-25T14:15:41Z</time></trkpt><trkpt lat="45.1033101345214" lon="10.051207140778684"><ele>34.0</ele><time>2026-04-25T14:15:42Z</time></trkpt><trkpt lat="45.1032276428101" lon="10.051192176524095"><ele>34.0</ele><time>2026-04-25T14:15:43Z</time></trkpt><trkpt lat="45.10314451363228" lon="10.051178301913838"><ele>34.16666666666667</ele><time>2026-04-25T14:15:44Z</time></trkpt><trkpt lat="45.10306326112729" lon="10.05116160900182"><ele>34.333333333333336</ele><time>2026-04-25T14:15:45Z</time></trkpt><trkpt lat="45.10298040580659" lon="10.051152862627184"><ele>34.5</ele><time>2026-04-25T14:15:46Z</time></trkpt><trkpt lat="45.10289728181621" lon="10.05114094707375"><ele>34.666666666666664</ele><time>2026-04-25T14:15:47Z</time></trkpt><trkpt lat="45.1028141353196" lon="10.051131687324563"><ele>34.83333333333333</ele><time>2026-04-25T14:15:48Z</time></trkpt><trkpt lat="45.10273101473408" lon="10.051122330960682"><ele>35.0</ele><time>2026-04-25T14:15:48.999Z</time></trkpt><trkpt lat="45.10264812685591" lon="10.05111334772454"><ele>35.0</ele><time>2026-04-25T14:15:49.999Z</time></trkpt><trkpt lat="45.102566586584416" lon="10.051102554695367"><ele>35.0</ele><time>2026-04-25T14:15:50.999Z</time></trkpt><trkpt lat="45.102489497411064" lon="10.051071899326887"><ele>35.0</ele><time>2026-04-25T14:15:51.999Z</time></trkpt><trkpt lat="45.10241168414027" lon="10.051064070096226"><ele>35.0</ele><time>2026-04-25T14:15:52.999Z</time></trkpt><trkpt lat="45.10233326541129" lon="10.051056179950011"><ele>35.0</ele><time>2026-04-25T14:15:53.999Z</time></trkpt><trkpt lat="45.102252425782744" lon="10.051070593898476"><ele>35.0</ele><time>2026-04-25T14:15:54.999Z</time></trkpt><trkpt lat="45.10217168140098" lon="10.051061395880884"><ele>35.33333333333333</ele><time>2026-04-25T14:15:55.999Z</time></trkpt><trkpt lat="45.10209144582369" lon="10.051054472962651"><ele>35.666666666666664</ele><time>2026-04-25T14:15:56.999Z</time></trkpt><trkpt lat="45.1020120746773" lon="10.05102386314805"><ele>36.0</ele><time>2026-04-25T14:15:57.999Z</time></trkpt><trkpt lat="45.101932346936955" lon="10.051013422570806"><ele>36.333333333333336</ele><time>2026-04-25T14:15:58.999Z</time></trkpt><trkpt lat="45.10185269204847" lon="10.051002395664124"><ele>36.66666666666667</ele><time>2026-04-25T14:15:59.999Z</time></trkpt><trkpt lat="45.101775506814896" lon="10.051013104657384"><ele>37.0</ele><time>2026-04-25T14:16:00.999Z</time></trkpt><trkpt lat="45.10169919863548" lon="10.050985188398778"><ele>37.0</ele><time>2026-04-25T14:16:01.999Z</time></trkpt><trkpt lat="45.10161592540609" lon="10.051026930497105"><ele>37.0</ele><time>2026-04-25T14:16:02.999Z</time></trkpt><trkpt lat="45.101554865564864" lon="10.051133905412309"><ele>37.0</ele><time>2026-04-25T14:16:03.999Z</time></trkpt><trkpt lat="45.101537541819084" lon="10.05126404098821"><ele>37.0</ele><time>2026-04-25T14:16:04.999Z</time></trkpt><trkpt lat="45.10153192223263" lon="10.05139037998585"><ele>37.0</ele><time>2026-04-25T14:16:05.999Z</time></trkpt><trkpt lat="45.10153286490571" lon="10.051509281319067"><ele>36.833333333333336</ele><time>2026-04-25T14:16:06.999Z</time></trkpt><trkpt lat="45.10152624641678" lon="10.051627637743422"><ele>36.66666666666667</ele><time>2026-04-25T14:16:07.999Z</time></trkpt><trkpt lat="45.101517989436815" lon="10.051745259205102"><ele>36.5</ele><time>2026-04-25T14:16:08.999Z</time></trkpt><trkpt lat="45.10150821346372" lon="10.051857714524308"><ele>36.333333333333336</ele><time>2026-04-25T14:16:09.999Z</time></trkpt><trkpt lat="45.10149789527164" lon="10.05196812362445"><ele>36.166666666666664</ele><time>2026-04-25T14:16:10.999Z</time></trkpt><trkpt lat="45.10148774739626" lon="10.052079063302584"><ele>36.0</ele><time>2026-04-25T14:16:11.999Z</time></trkpt><trkpt lat="45.101479501223885" lon="10.052192829413807"><ele>36.0</ele><time>2026-04-25T14:16:12.999Z</time></trkpt><trkpt lat="45.10147469431828" lon="10.052303686727262"><ele>36.0</ele><time>2026-04-25T14:16:13.999Z</time></trkpt><trkpt lat="45.10146802129608" lon="10.05241626386701"><ele>36.0</ele><time>2026-04-25T14:16:14.999Z</time></trkpt><trkpt lat="45.101455409708976" lon="10.052530182159222"><ele>36.0</ele><time>2026-04-25T14:16:15.999Z</time></trkpt><trkpt lat="45.10144213750372" lon="10.052644151304484"><ele>36.0</ele><time>2026-04-25T14:16:16.999Z</time></trkpt><trkpt lat="45.10143409357847" lon="10.052759990194788"><ele>36.0</ele><time>2026-04-25T14:16:17.999Z</time></trkpt><trkpt lat="45.101425672689594" lon="10.052872397560089"><ele>35.833333333333336</ele><time>2026-04-25T14:16:18.999Z</time></trkpt><trkpt lat="45.101417675333956" lon="10.052987246343909"><ele>35.666666666666664</ele><time>2026-04-25T14:16:19.999Z</time></trkpt><trkpt lat="45.101407998590695" lon="10.053098913792988"><ele>35.5</ele><time>2026-04-25T14:16:20.999Z</time></trkpt><trkpt lat="45.10139717343258" lon="10.053214148983653"><ele>35.33333333333333</ele><time>2026-04-25T14:16:21.999Z</time></trkpt><trkpt lat="45.101385660493726" lon="10.053328611148165"><ele>35.166666666666664</ele><time>2026-04-25T14:16:22.999Z</time></trkpt><trkpt lat="45.101376188939206" lon="10.053445678684623"><ele>35.0</ele><time>2026-04-25T14:16:23.999Z</time></trkpt><trkpt lat="45.10136989938899" lon="10.053560348907995"><ele>35.0</ele><time>2026-04-25T14:16:25.001Z</time></trkpt><trkpt lat="45.10136676754576" lon="10.05367529837018"><ele>35.0</ele><time>2026-04-25T14:16:26.001Z</time></trkpt><trkpt lat="45.101361640425345" lon="10.053789115595059"><ele>35.0</ele><time>2026-04-25T14:16:27.001Z</time></trkpt><trkpt lat="45.10135777288032" lon="10.053904680246172"><ele>35.0</ele><time>2026-04-25T14:16:28.001Z</time></trkpt><trkpt lat="45.10135513883514" lon="10.054015914834903"><ele>35.0</ele><time>2026-04-25T14:16:29.001Z</time></trkpt><trkpt lat="45.10135727965596" lon="10.0541288912829"><ele>35.0</ele><time>2026-04-25T14:16:30.001Z</time></trkpt><trkpt lat="45.101362926086395" lon="10.054236464247005"><ele>35.0</ele><time>2026-04-25T14:16:31.001Z</time></trkpt><trkpt lat="45.10138534925504" lon="10.054348025252535"><ele>35.0</ele><time>2026-04-25T14:16:32.001Z</time></trkpt><trkpt lat="45.101418243627826" lon="10.054451500159423"><ele>35.0</ele><time>2026-04-25T14:16:33.001Z</time></trkpt><trkpt lat="45.10145521939868" lon="10.054554297196962"><ele>35.0</ele><time>2026-04-25T14:16:34.001Z</time></trkpt><trkpt lat="45.10148806241822" lon="10.054660046379478"><ele>35.0</ele><time>2026-04-25T14:16:35.001Z</time></trkpt><trkpt lat="45.10152118550872" lon="10.054767192176731"><ele>35.0</ele><time>2026-04-25T14:16:36.001Z</time></trkpt><trkpt lat="45.10155189726716" lon="10.054872977768307"><ele>34.83333333333333</ele><time>2026-04-25T14:16:37.001Z</time></trkpt><trkpt lat="45.10158494268257" lon="10.05497884305387"><ele>34.666666666666664</ele><time>2026-04-25T14:16:38.001Z</time></trkpt><trkpt lat="45.101619795397276" lon="10.055080802145635"><ele>34.5</ele><time>2026-04-25T14:16:39.001Z</time></trkpt><trkpt lat="45.10165450145843" lon="10.055180668643034"><ele>34.333333333333336</ele><time>2026-04-25T14:16:40.001Z</time></trkpt><trkpt lat="45.10168694516724" lon="10.05528423913349"><ele>34.16666666666667</ele><time>2026-04-25T14:16:41.001Z</time></trkpt><trkpt lat="45.10172082201478" lon="10.055390580922037"><ele>34.0</ele><time>2026-04-25T14:16:42.001Z</time></trkpt><trkpt lat="45.10175594293399" lon="10.055495605644571"><ele>34.0</ele><time>2026-04-25T14:16:43Z</time></trkpt><trkpt lat="45.10178985205244" lon="10.055602120055967"><ele>34.0</ele><time>2026-04-25T14:16:44Z</time></trkpt><trkpt lat="45.10182534949878" lon="10.05570455203244"><ele>34.0</ele><time>2026-04-25T14:16:45Z</time></trkpt><trkpt lat="45.101859914570305" lon="10.05580672805848"><ele>34.0</ele><time>2026-04-25T14:16:46Z</time></trkpt><trkpt lat="45.101893776408964" lon="10.055910536041882"><ele>34.0</ele><time>2026-04-25T14:16:47Z</time></trkpt><trkpt lat="45.101924951911165" lon="10.056014573268062"><ele>34.0</ele><time>2026-04-25T14:16:48Z</time></trkpt><trkpt lat="45.10195810631347" lon="10.056115577731587"><ele>34.333333333333336</ele><time>2026-04-25T14:16:49Z</time></trkpt><trkpt lat="45.10199245913843" lon="10.05621755747369"><ele>34.66666666666667</ele><time>2026-04-25T14:16:50Z</time></trkpt><trkpt lat="45.102026137778005" lon="10.056317637110403"><ele>35.0</ele><time>2026-04-25T14:16:51Z</time></trkpt><trkpt lat="45.102061825007866" lon="10.056416822875846"><ele>35.333333333333336</ele><time>2026-04-25T14:16:52Z</time></trkpt><trkpt lat="45.102094232699734" lon="10.056521147748715"><ele>35.666666666666664</ele><time>2026-04-25T14:16:53Z</time></trkpt><trkpt lat="45.102125370835154" lon="10.056624717209177"><ele>36.0</ele><time>2026-04-25T14:16:54Z</time></trkpt><trkpt lat="45.10215822526696" lon="10.05672670863788"><ele>36.333333333333336</ele><time>2026-04-25T14:16:55Z</time></trkpt><trkpt lat="45.10219133680992" lon="10.05682568834422"><ele>36.666666666666664</ele><time>2026-04-25T14:16:56Z</time></trkpt><trkpt lat="45.102222522698405" lon="10.056926277008591"><ele>37.0</ele><time>2026-04-25T14:16:57Z</time></trkpt><trkpt lat="45.10225908112672" lon="10.057027272390844"><ele>37.33333333333333</ele><time>2026-04-25T14:16:58Z</time></trkpt><trkpt lat="45.10229073740314" lon="10.057128577641365"><ele>37.666666666666664</ele><time>2026-04-25T14:16:59Z</time></trkpt><trkpt lat="45.10232154145656" lon="10.057229427329109"><ele>38.0</ele><time>2026-04-25T14:17:00Z</time></trkpt><trkpt lat="45.10235569172609" lon="10.057331903085629"><ele>38.0</ele><time>2026-04-25T14:17:01Z</time></trkpt><trkpt lat="45.10238952751082" lon="10.057434838676894"><ele>38.0</ele><time>2026-04-25T14:17:02Z</time></trkpt><trkpt lat="45.10242776800694" lon="10.057538343943243"><ele>38.0</ele><time>2026-04-25T14:17:03Z</time></trkpt><trkpt lat="45.10246263667003" lon="10.057640172122678"><ele>38.0</ele><time>2026-04-25T14:17:04Z</time></trkpt><trkpt lat="45.102491566059335" lon="10.057743502451032"><ele>38.0</ele><time>2026-04-25T14:17:05Z</time></trkpt><trkpt lat="45.10252651353594" lon="10.057848067733579"><ele>38.0</ele><time>2026-04-25T14:17:06Z</time></trkpt><trkpt lat="45.10256013029487" lon="10.057952089216085"><ele>37.83333333333333</ele><time>2026-04-25T14:17:07Z</time></trkpt><trkpt lat="45.10258723420501" lon="10.05805944623655"><ele>37.666666666666664</ele><time>2026-04-25T14:17:08Z</time></trkpt><trkpt lat="45.10261142867827" lon="10.058167951316635"><ele>37.5</ele><time>2026-04-25T14:17:09Z</time></trkpt><trkpt lat="45.10263537072109" lon="10.058278744462342"><ele>37.333333333333336</ele><time>2026-04-25T14:17:10Z</time></trkpt><trkpt lat="45.1026632291543" lon="10.058389732355991"><ele>37.16666666666667</ele><time>2026-04-25T14:17:11Z</time></trkpt><trkpt lat="45.10268783253305" lon="10.058498660160572"><ele>37.0</ele><time>2026-04-25T14:17:12Z</time></trkpt><trkpt lat="45.1027091264433" lon="10.058609781019742"><ele>37.0</ele><time>2026-04-25T14:17:13Z</time></trkpt><trkpt lat="45.10272668690126" lon="10.058717707108"><ele>37.0</ele><time>2026-04-25T14:17:14Z</time></trkpt><trkpt lat="45.10274514094531" lon="10.05882243668851"><ele>37.0</ele><time>2026-04-25T14:17:15Z</time></trkpt><trkpt lat="45.10276382827346" lon="10.058924105180385"><ele>37.0</ele><time>2026-04-25T14:17:16Z</time></trkpt><trkpt lat="45.10278984107876" lon="10.059025107907186"><ele>37.0</ele><time>2026-04-25T14:17:17Z</time></trkpt><trkpt lat="45.10283843768736" lon="10.05911115016918"><ele>37.0</ele><time>2026-04-25T14:17:18Z</time></trkpt><trkpt lat="45.10290937744509" lon="10.059165658829203"><ele>36.833333333333336</ele><time>2026-04-25T14:17:19Z</time></trkpt><trkpt lat="45.102993626186866" lon="10.059158920401343"><ele>36.66666666666667</ele><time>2026-04-25T14:17:20Z</time></trkpt><trkpt lat="45.10307220719673" lon="10.059187136772383"><ele>36.5</ele><time>2026-04-25T14:17:21Z</time></trkpt><trkpt lat="45.10315201764994" lon="10.059206299845659"><ele>36.333333333333336</ele><time>2026-04-25T14:17:22Z</time></trkpt><trkpt lat="45.10322321899734" lon="10.05926631464343"><ele>36.166666666666664</ele><time>2026-04-25T14:17:23Z</time></trkpt><trkpt lat="45.10328033013555" lon="10.059351023556381"><ele>36.0</ele><time>2026-04-25T14:17:24Z</time></trkpt><trkpt lat="45.10331092040195" lon="10.059465945992875"><ele>35.833333333333336</ele><time>2026-04-25T14:17:25Z</time></trkpt><trkpt lat="45.10331515335137" lon="10.059590960972454"><ele>35.666666666666664</ele><time>2026-04-25T14:17:26Z</time></trkpt><trkpt lat="45.103295047393885" lon="10.059707165015293"><ele>35.5</ele><time>2026-04-25T14:17:27Z</time></trkpt><trkpt lat="45.10330471469085" lon="10.059814680822514"><ele>35.33333333333333</ele><time>2026-04-25T14:17:28Z</time></trkpt><trkpt lat="45.10329502779698" lon="10.059923077672433"><ele>35.166666666666664</ele><time>2026-04-25T14:17:29Z</time></trkpt><trkpt lat="45.10329002513356" lon="10.06003077331841"><ele>35.0</ele><time>2026-04-25T14:17:30Z</time></trkpt><trkpt lat="45.10329276418046" lon="10.060140393837377"><ele>34.83333333333333</ele><time>2026-04-25T14:17:31Z</time></trkpt><trkpt lat="45.103289509846384" lon="10.060253465837077"><ele>34.666666666666664</ele><time>2026-04-25T14:17:32Z</time></trkpt><trkpt lat="45.10328265787738" lon="10.060365777252796"><ele>34.5</ele><time>2026-04-25T14:17:33Z</time></trkpt><trkpt lat="45.10327906725973" lon="10.060475938244098"><ele>34.333333333333336</ele><time>2026-04-25T14:17:34Z</time></trkpt><trkpt lat="45.10327765787963" lon="10.060583837779356"><ele>34.16666666666667</ele><time>2026-04-25T14:17:35Z</time></trkpt><trkpt lat="45.103273774356765" lon="10.060689607779945"><ele>34.0</ele><time>2026-04-25T14:17:36Z</time></trkpt><trkpt lat="45.103269120775046" lon="10.060798910843086"><ele>34.333333333333336</ele><time>2026-04-25T14:17:37Z</time></trkpt><trkpt lat="45.10326744009532" lon="10.060909598039297"><ele>34.66666666666667</ele><time>2026-04-25T14:17:38Z</time></trkpt><trkpt lat="45.103265150376835" lon="10.061020571834566"><ele>35.0</ele><time>2026-04-25T14:17:39Z</time></trkpt><trkpt lat="45.10326243931061" lon="10.061129777255628"><ele>35.333333333333336</ele><time>2026-04-25T14:17:40Z</time></trkpt><trkpt lat="45.103260908299006" lon="10.06124150076928"><ele>35.666666666666664</ele><time>2026-04-25T14:17:41Z</time></trkpt><trkpt lat="45.10325541462036" lon="10.061350127439795"><ele>36.0</ele><time>2026-04-25T14:17:42Z</time></trkpt><trkpt lat="45.10325451613039" lon="10.061460837401514"><ele>36.0</ele><time>2026-04-25T14:17:43Z</time></trkpt><trkpt lat="45.10325239974546" lon="10.061574534227693"><ele>36.0</ele><time>2026-04-25T14:17:44Z</time></trkpt><trkpt lat="45.10325333866301" lon="10.061685626472793"><ele>36.0</ele><time>2026-04-25T14:17:45Z</time></trkpt><trkpt lat="45.10325401747557" lon="10.061799344456213"><ele>36.0</ele><time>2026-04-25T14:17:46Z</time></trkpt><trkpt lat="45.10325406174321" lon="10.061912341290661"><ele>36.0</ele><time>2026-04-25T14:17:47Z</time></trkpt><trkpt lat="45.10325459660656" lon="10.062026234808748"><ele>36.0</ele><time>2026-04-25T14:17:48Z</time></trkpt><trkpt lat="45.10325360807146" lon="10.06213602367788"><ele>35.833333333333336</ele><time>2026-04-25T14:17:49Z</time></trkpt><trkpt lat="45.103250789827726" lon="10.062250265074224"><ele>35.666666666666664</ele><time>2026-04-25T14:17:49.999Z</time></trkpt><trkpt lat="45.10324112352656" lon="10.062362828527522"><ele>35.5</ele><time>2026-04-25T14:17:50.999Z</time></trkpt><trkpt lat="45.10322917966282" lon="10.062476988359569"><ele>35.33333333333333</ele><time>2026-04-25T14:17:51.999Z</time></trkpt><trkpt lat="45.103224702575254" lon="10.062584447474238"><ele>35.166666666666664</ele><time>2026-04-25T14:17:52.999Z</time></trkpt><trkpt lat="45.10323528505042" lon="10.062688972943988"><ele>35.0</ele><time>2026-04-25T14:17:53.999Z</time></trkpt><trkpt lat="45.10328323040378" lon="10.06277227791043"><ele>34.83333333333333</ele><time>2026-04-25T14:17:54.999Z</time></trkpt><trkpt lat="45.103363045762976" lon="10.062803638901169"><ele>34.666666666666664</ele><time>2026-04-25T14:17:55.999Z</time></trkpt><trkpt lat="45.103447544636566" lon="10.062763120483709"><ele>34.5</ele><time>2026-04-25T14:17:56.999Z</time></trkpt><trkpt lat="45.103522773950225" lon="10.062699783522007"><ele>34.333333333333336</ele><time>2026-04-25T14:17:57.999Z</time></trkpt><trkpt lat="45.10359734267519" lon="10.062644168617263"><ele>34.16666666666667</ele><time>2026-04-25T14:17:58.999Z</time></trkpt><trkpt lat="45.10367498501516" lon="10.0626049610956"><ele>34.0</ele><time>2026-04-25T14:17:59.999Z</time></trkpt><trkpt lat="45.10375282312435" lon="10.062570479035836"><ele>34.0</ele><time>2026-04-25T14:18:00.999Z</time></trkpt><trkpt lat="45.10383098350729" lon="10.062523919178073"><ele>34.0</ele><time>2026-04-25T14:18:01.999Z</time></trkpt><trkpt lat="45.10390632126787" lon="10.062478142969791"><ele>34.0</ele><time>2026-04-25T14:18:02.999Z</time></trkpt><trkpt lat="45.10398250005607" lon="10.062429602818918"><ele>34.0</ele><time>2026-04-25T14:18:03.999Z</time></trkpt><trkpt lat="45.10405923065168" lon="10.062383357042107"><ele>34.0</ele><time>2026-04-25T14:18:04.999Z</time></trkpt><trkpt lat="45.10413416192246" lon="10.062346976602154"><ele>34.0</ele><time>2026-04-25T14:18:05.999Z</time></trkpt><trkpt lat="45.10420802738036" lon="10.062307594270212"><ele>33.66666666666667</ele><time>2026-04-25T14:18:06.999Z</time></trkpt><trkpt lat="45.104284078255986" lon="10.062260786848451"><ele>33.333333333333336</ele><time>2026-04-25T14:18:07.999Z</time></trkpt><trkpt lat="45.10435810369147" lon="10.062212643503607"><ele>33.0</ele><time>2026-04-25T14:18:08.999Z</time></trkpt><trkpt lat="45.104435724875614" lon="10.062168039269444"><ele>32.666666666666664</ele><time>2026-04-25T14:18:09.999Z</time></trkpt><trkpt lat="45.104511581309296" lon="10.062128757605898"><ele>32.33333333333333</ele><time>2026-04-25T14:18:10.999Z</time></trkpt><trkpt lat="45.104589644802374" lon="10.062087372832725"><ele>32.0</ele><time>2026-04-25T14:18:11.999Z</time></trkpt><trkpt lat="45.10466722077897" lon="10.062044470742336"><ele>31.999999999999996</ele><time>2026-04-25T14:18:12.999Z</time></trkpt><trkpt lat="45.10474850585124" lon="10.062012001724042"><ele>32.0</ele><time>2026-04-25T14:18:13.999Z</time></trkpt><trkpt lat="45.104834243041196" lon="10.061996559282074"><ele>32.0</ele><time>2026-04-25T14:18:14.999Z</time></trkpt><trkpt lat="45.104920247818804" lon="10.061998481399094"><ele>32.0</ele><time>2026-04-25T14:18:15.999Z</time></trkpt><trkpt lat="45.10500868871254" lon="10.062018484591325"><ele>31.999999999999996</ele><time>2026-04-25T14:18:16.999Z</time></trkpt><trkpt lat="45.10509414269802" lon="10.06206400434536"><ele>32.0</ele><time>2026-04-25T14:18:17.999Z</time></trkpt><trkpt lat="45.10517312062579" lon="10.062120513361746"><ele>31.999999999999996</ele><time>2026-04-25T14:18:18.999Z</time></trkpt><trkpt lat="45.10525186090934" lon="10.062182947361359"><ele>32.0</ele><time>2026-04-25T14:18:19.999Z</time></trkpt><trkpt lat="45.105326143014274" lon="10.062247004954115"><ele>32.0</ele><time>2026-04-25T14:18:20.999Z</time></trkpt><trkpt lat="45.10539768801762" lon="10.062316546741647"><ele>32.0</ele><time>2026-04-25T14:18:21.999Z</time></trkpt><trkpt lat="45.10546427109173" lon="10.06239511120915"><ele>31.999999999999996</ele><time>2026-04-25T14:18:22.999Z</time></trkpt><trkpt lat="45.10552020520327" lon="10.062477836545687"><ele>32.0</ele><time>2026-04-25T14:18:23.999Z</time></trkpt><trkpt lat="45.10557427327743" lon="10.062562471862755"><ele>32.33333333333333</ele><time>2026-04-25T14:18:24.999Z</time></trkpt><trkpt lat="45.10562668230369" lon="10.0626433984115"><ele>32.666666666666664</ele><time>2026-04-25T14:18:25.999Z</time></trkpt><trkpt lat="45.105683332683256" lon="10.062724577079234"><ele>33.0</ele><time>2026-04-25T14:18:26.999Z</time></trkpt><trkpt lat="45.10573412169471" lon="10.062808760748112"><ele>33.333333333333336</ele><time>2026-04-25T14:18:27.999Z</time></trkpt><trkpt lat="45.105787132754976" lon="10.062895073889909"><ele>33.66666666666667</ele><time>2026-04-25T14:18:28.999Z</time></trkpt><trkpt lat="45.10583969031898" lon="10.06297750709429"><ele>34.0</ele><time>2026-04-25T14:18:29.999Z</time></trkpt><trkpt lat="45.10589127366753" lon="10.0630604873652"><ele>34.0</ele><time>2026-04-25T14:18:31.001Z</time></trkpt><trkpt lat="45.105943898285126" lon="10.063143464907654"><ele>34.0</ele><time>2026-04-25T14:18:32.001Z</time></trkpt><trkpt lat="45.10599568800495" lon="10.063225444169698"><ele>34.0</ele><time>2026-04-25T14:18:33.001Z</time></trkpt><trkpt lat="45.10604711503295" lon="10.06330692080998"><ele>34.0</ele><time>2026-04-25T14:18:34.001Z</time></trkpt><trkpt lat="45.106099810492424" lon="10.063386229824527"><ele>34.0</ele><time>2026-04-25T14:18:35.001Z</time></trkpt><trkpt lat="45.10615290638422" lon="10.06347279842845"><ele>34.0</ele><time>2026-04-25T14:18:36.001Z</time></trkpt><trkpt lat="45.106212051288125" lon="10.063562707654418"><ele>34.2</ele><time>2026-04-25T14:18:37.001Z</time></trkpt><trkpt lat="45.106268331704996" lon="10.063658108673977"><ele>34.4</ele><time>2026-04-25T14:18:38.001Z</time></trkpt><trkpt lat="45.106326826495724" lon="10.063756617628254"><ele>34.6</ele><time>2026-04-25T14:18:39.001Z</time></trkpt><trkpt lat="45.10638523517639" lon="10.063858019552832"><ele>34.8</ele><time>2026-04-25T14:18:40.001Z</time></trkpt><trkpt lat="45.10644772583308" lon="10.063954097979144"><ele>35.0</ele><time>2026-04-25T14:18:41.001Z</time></trkpt><trkpt lat="45.10651466991568" lon="10.064046279307941"><ele>34.6</ele><time>2026-04-25T14:18:42.001Z</time></trkpt><trkpt lat="45.10657879804284" lon="10.064142040639755"><ele>34.2</ele><time>2026-04-25T14:18:43.001Z</time></trkpt><trkpt lat="45.10663788086903" lon="10.06424564272175"><ele>33.8</ele><time>2026-04-25T14:18:44.001Z</time></trkpt><trkpt lat="45.10669325161422" lon="10.064349440239601"><ele>33.4</ele><time>2026-04-25T14:18:45Z</time></trkpt><trkpt lat="45.10675149039001" lon="10.064449134170818"><ele>33.0</ele><time>2026-04-25T14:18:46Z</time></trkpt><trkpt lat="45.10681339779922" lon="10.064545541406789"><ele>33.0</ele><time>2026-04-25T14:18:47Z</time></trkpt><trkpt lat="45.10687423430238" lon="10.064643491040012"><ele>33.0</ele><time>2026-04-25T14:18:48Z</time></trkpt><trkpt lat="45.106936679849895" lon="10.064739629509225"><ele>33.0</ele><time>2026-04-25T14:18:49Z</time></trkpt><trkpt lat="45.1069986218676" lon="10.064835776249813"><ele>33.0</ele><time>2026-04-25T14:18:50Z</time></trkpt><trkpt lat="45.10705836443204" lon="10.064933177237004"><ele>33.0</ele><time>2026-04-25T14:18:51Z</time></trkpt><trkpt lat="45.10711449668677" lon="10.065027436170315"><ele>33.0</ele><time>2026-04-25T14:18:52Z</time></trkpt><trkpt lat="45.10717405163128" lon="10.065120821686401"><ele>33.0</ele><time>2026-04-25T14:18:53Z</time></trkpt><trkpt lat="45.10723397256658" lon="10.065212390554514"><ele>33.0</ele><time>2026-04-25T14:18:54Z</time></trkpt><trkpt lat="45.107290239921625" lon="10.065308392536547"><ele>33.0</ele><time>2026-04-25T14:18:55Z</time></trkpt><trkpt lat="45.10734850174078" lon="10.065402487352314"><ele>33.0</ele><time>2026-04-25T14:18:56Z</time></trkpt><trkpt lat="45.107409135150355" lon="10.06550053681815"><ele>33.0</ele><time>2026-04-25T14:18:57Z</time></trkpt><trkpt lat="45.107469604712925" lon="10.065597660400352"><ele>33.0</ele><time>2026-04-25T14:18:58Z</time></trkpt><trkpt lat="45.10752878849225" lon="10.065692863106204"><ele>33.0</ele><time>2026-04-25T14:18:59Z</time></trkpt><trkpt lat="45.107587153428646" lon="10.06578504188734"><ele>33.0</ele><time>2026-04-25T14:19:00Z</time></trkpt><trkpt lat="45.10764582271035" lon="10.065879519950482"><ele>33.0</ele><time>2026-04-25T14:19:01Z</time></trkpt><trkpt lat="45.107700419647486" lon="10.065972705490314"><ele>33.0</ele><time>2026-04-25T14:19:02Z</time></trkpt><trkpt lat="45.1077577925746" lon="10.066062576173406"><ele>33.0</ele><time>2026-04-25T14:19:03Z</time></trkpt><trkpt lat="45.107812920395475" lon="10.06615208758849"><ele>33.0</ele><time>2026-04-25T14:19:04Z</time></trkpt><trkpt lat="45.107871062270256" lon="10.066246020530482"><ele>33.0</ele><time>2026-04-25T14:19:05Z</time></trkpt><trkpt lat="45.107927032618505" lon="10.066341306369125"><ele>33.0</ele><time>2026-04-25T14:19:06Z</time></trkpt><trkpt lat="45.1079829881315" lon="10.066436634027882"><ele>33.0</ele><time>2026-04-25T14:19:07Z</time></trkpt><trkpt lat="45.10804104751721" lon="10.066531908401938"><ele>33.0</ele><time>2026-04-25T14:19:08Z</time></trkpt><trkpt lat="45.108099018778965" lon="10.066626402466875"><ele>33.0</ele><time>2026-04-25T14:19:09Z</time></trkpt><trkpt lat="45.10815632387018" lon="10.066721429237512"><ele>33.0</ele><time>2026-04-25T14:19:10Z</time></trkpt><trkpt lat="45.10821133269146" lon="10.066814738455353"><ele>33.0</ele><time>2026-04-25T14:19:11Z</time></trkpt><trkpt lat="45.10826706746153" lon="10.066908329697654"><ele>33.0</ele><time>2026-04-25T14:19:12Z</time></trkpt><trkpt lat="45.10832322541121" lon="10.066998981272132"><ele>33.0</ele><time>2026-04-25T14:19:13Z</time></trkpt><trkpt lat="45.10837499327668" lon="10.06708827465905"><ele>33.0</ele><time>2026-04-25T14:19:14Z</time></trkpt><trkpt lat="45.108426739596055" lon="10.067177067384156"><ele>33.0</ele><time>2026-04-25T14:19:15Z</time></trkpt><trkpt lat="45.108480829232796" lon="10.06726093740153"><ele>33.0</ele><time>2026-04-25T14:19:16Z</time></trkpt><trkpt lat="45.1085350766227" lon="10.067349767174456"><ele>33.0</ele><time>2026-04-25T14:19:17Z</time></trkpt><trkpt lat="45.108589106888445" lon="10.067442163442726"><ele>33.0</ele><time>2026-04-25T14:19:18Z</time></trkpt><trkpt lat="45.10864295006013" lon="10.067531724764478"><ele>33.0</ele><time>2026-04-25T14:19:19Z</time></trkpt><trkpt lat="45.108697251147454" lon="10.067624452136789"><ele>33.0</ele><time>2026-04-25T14:19:20Z</time></trkpt><trkpt lat="45.10874869274403" lon="10.067713486056281"><ele>33.0</ele><time>2026-04-25T14:19:21Z</time></trkpt><trkpt lat="45.10880347516047" lon="10.06780749221778"><ele>33.0</ele><time>2026-04-25T14:19:22Z</time></trkpt><trkpt lat="45.10885757670844" lon="10.067901364259415"><ele>33.0</ele><time>2026-04-25T14:19:23Z</time></trkpt><trkpt lat="45.10891285955211" lon="10.067995905771378"><ele>33.0</ele><time>2026-04-25T14:19:24Z</time></trkpt><trkpt lat="45.10896871173082" lon="10.068085873309304"><ele>33.0</ele><time>2026-04-25T14:19:25Z</time></trkpt><trkpt lat="45.10902521197793" lon="10.068174659614026"><ele>33.0</ele><time>2026-04-25T14:19:26Z</time></trkpt><trkpt lat="45.10907892658298" lon="10.068265221631282"><ele>33.0</ele><time>2026-04-25T14:19:27Z</time></trkpt><trkpt lat="45.10913416593397" lon="10.068355610003918"><ele>33.0</ele><time>2026-04-25T14:19:28Z</time></trkpt><trkpt lat="45.109187349063426" lon="10.068448719606813"><ele>33.0</ele><time>2026-04-25T14:19:29Z</time></trkpt><trkpt lat="45.109242206845664" lon="10.068541542943041"><ele>33.0</ele><time>2026-04-25T14:19:30Z</time></trkpt><trkpt lat="45.10929788002636" lon="10.068632072815662"><ele>33.0</ele><time>2026-04-25T14:19:31Z</time></trkpt><trkpt lat="45.109353678017264" lon="10.068718742154333"><ele>33.0</ele><time>2026-04-25T14:19:32Z</time></trkpt><trkpt lat="45.10940656413982" lon="10.068807706098868"><ele>33.0</ele><time>2026-04-25T14:19:33Z</time></trkpt><trkpt lat="45.1094569464515" lon="10.068899360308585"><ele>33.0</ele><time>2026-04-25T14:19:34Z</time></trkpt><trkpt lat="45.10950969494836" lon="10.068989218165166"><ele>33.0</ele><time>2026-04-25T14:19:35Z</time></trkpt><trkpt lat="45.1095612911428" lon="10.069073258078152"><ele>33.0</ele><time>2026-04-25T14:19:36Z</time></trkpt><trkpt lat="45.109612837732385" lon="10.069162638218552"><ele>33.0</ele><time>2026-04-25T14:19:37Z</time></trkpt><trkpt lat="45.109659519321355" lon="10.06925828649404"><ele>33.0</ele><time>2026-04-25T14:19:38Z</time></trkpt><trkpt lat="45.10969522030193" lon="10.069362850421347"><ele>33.0</ele><time>2026-04-25T14:19:39Z</time></trkpt><trkpt lat="45.109728245408945" lon="10.069474301266364"><ele>33.0</ele><time>2026-04-25T14:19:40Z</time></trkpt><trkpt lat="45.109765418951596" lon="10.069578020458026"><ele>33.0</ele><time>2026-04-25T14:19:41Z</time></trkpt><trkpt lat="45.10980357632526" lon="10.06968239666213"><ele>33.0</ele><time>2026-04-25T14:19:42Z</time></trkpt><trkpt lat="45.10984006330457" lon="10.069785381374105"><ele>33.0</ele><time>2026-04-25T14:19:43Z</time></trkpt><trkpt lat="45.109875657380115" lon="10.06989095425246"><ele>33.0</ele><time>2026-04-25T14:19:44Z</time></trkpt><trkpt lat="45.109910493464675" lon="10.069996312289454"><ele>33.0</ele><time>2026-04-25T14:19:45Z</time></trkpt><trkpt lat="45.109942243670666" lon="10.070098964741273"><ele>33.57142857142857</ele><time>2026-04-25T14:19:46Z</time></trkpt><trkpt lat="45.1099738822373" lon="10.070199794292208"><ele>34.142857142857146</ele><time>2026-04-25T14:19:47Z</time></trkpt><trkpt lat="45.110004191146636" lon="10.0702901116215"><ele>34.714285714285715</ele><time>2026-04-25T14:19:48Z</time></trkpt><trkpt lat="45.110040977708636" lon="10.070380841646912"><ele>35.285714285714285</ele><time>2026-04-25T14:19:49Z</time></trkpt><trkpt lat="45.11008660954386" lon="10.070466321080186"><ele>35.857142857142854</ele><time>2026-04-25T14:19:50Z</time></trkpt><trkpt lat="45.11013719219234" lon="10.070546245311439"><ele>36.42857142857143</ele><time>2026-04-25T14:19:50.999Z</time></trkpt><trkpt lat="45.110185993513426" lon="10.070612416867649"><ele>37.0</ele><time>2026-04-25T14:19:51.999Z</time></trkpt><trkpt lat="45.1103008814858" lon="10.07070724177331"><ele>37.0</ele><time>2026-04-25T14:19:53.999Z</time></trkpt><trkpt lat="45.110366322550895" lon="10.070746628721983"><ele>37.0</ele><time>2026-04-25T14:19:54.999Z</time></trkpt><trkpt lat="45.110426682771916" lon="10.070789997637203"><ele>37.0</ele><time>2026-04-25T14:19:55.999Z</time></trkpt><trkpt lat="45.1104949081224" lon="10.070826733328403"><ele>37.0</ele><time>2026-04-25T14:19:56.999Z</time></trkpt><trkpt lat="45.1105576427914" lon="10.070863957823212"><ele>37.0</ele><time>2026-04-25T14:19:57.999Z</time></trkpt><trkpt lat="45.11066225212126" lon="10.070934740248981"><ele>37.0</ele><time>2026-04-25T14:19:59.999Z</time></trkpt><trkpt lat="45.11073623914967" lon="10.071015842193683"><ele>37.8</ele><time>2026-04-25T14:20:01.999Z</time></trkpt><trkpt lat="45.11069067373252" lon="10.071139916964343"><ele>38.6</ele><time>2026-04-25T14:20:04.999Z</time></trkpt><trkpt lat="45.110629978422615" lon="10.07128387528804"><ele>39.4</ele><time>2026-04-25T14:20:06.999Z</time></trkpt><trkpt lat="45.1105708928593" lon="10.071439425068839"><ele>40.199999999999996</ele><time>2026-04-25T14:20:08.999Z</time></trkpt><trkpt lat="45.11055068256712" lon="10.071538162413312"><ele>41.0</ele><time>2026-04-25T14:20:09.999Z</time></trkpt><trkpt lat="45.110518179541344" lon="10.071622303310738"><ele>41.0</ele><time>2026-04-25T14:20:10.999Z</time></trkpt><trkpt lat="45.11046373917055" lon="10.07178378418809"><ele>41.0</ele><time>2026-04-25T14:20:12.999Z</time></trkpt><trkpt lat="45.110434038783744" lon="10.07186613086524"><ele>41.0</ele><time>2026-04-25T14:20:13.999Z</time></trkpt><trkpt lat="45.11040669786073" lon="10.071952294381683"><ele>41.0</ele><time>2026-04-25T14:20:14.999Z</time></trkpt><trkpt lat="45.11036300854582" lon="10.07203035533585"><ele>41.0</ele><time>2026-04-25T14:20:15.999Z</time></trkpt><trkpt lat="45.11033269370979" lon="10.072115522847627"><ele>41.0</ele><time>2026-04-25T14:20:16.999Z</time></trkpt><trkpt lat="45.110300512286095" lon="10.072202691037546"><ele>41.0</ele><time>2026-04-25T14:20:17.999Z</time></trkpt><trkpt lat="45.110267590805634" lon="10.072287579883064"><ele>41.0</ele><time>2026-04-25T14:20:18.999Z</time></trkpt><trkpt lat="45.110234550903286" lon="10.072367628720093"><ele>41.0</ele><time>2026-04-25T14:20:19.999Z</time></trkpt><trkpt lat="45.1102010553476" lon="10.07244439809445"><ele>41.0</ele><time>2026-04-25T14:20:20.999Z</time></trkpt><trkpt lat="45.11034338833109" lon="10.072642031563024"><ele>41.0</ele><time>2026-04-25T14:20:22.999Z</time></trkpt><trkpt lat="45.11041730049995" lon="10.072683243605292"><ele>40.666666666666664</ele><time>2026-04-25T14:20:23.999Z</time></trkpt><trkpt lat="45.11049146417133" lon="10.07271100079167"><ele>40.33333333333333</ele><time>2026-04-25T14:20:24.999Z</time></trkpt><trkpt lat="45.11056723796102" lon="10.072739138309016"><ele>40.0</ele><time>2026-04-25T14:20:25.999Z</time></trkpt><trkpt lat="45.11063611199768" lon="10.072769825009512"><ele>39.666666666666664</ele><time>2026-04-25T14:20:26.999Z</time></trkpt><trkpt lat="45.11070869890264" lon="10.072806310205799"><ele>39.333333333333336</ele><time>2026-04-25T14:20:27.999Z</time></trkpt><trkpt lat="45.1107811931207" lon="10.07284210423999"><ele>39.0</ele><time>2026-04-25T14:20:28.999Z</time></trkpt><trkpt lat="45.110851571428235" lon="10.072879889659406"><ele>39.0</ele><time>2026-04-25T14:20:29.999Z</time></trkpt><trkpt lat="45.11092113100311" lon="10.07291736099906"><ele>39.0</ele><time>2026-04-25T14:20:30.999Z</time></trkpt><trkpt lat="45.110993865986345" lon="10.072953502953112"><ele>39.0</ele><time>2026-04-25T14:20:31.999Z</time></trkpt><trkpt lat="45.111068840861805" lon="10.072994396436894"><ele>39.0</ele><time>2026-04-25T14:20:32.999Z</time></trkpt><trkpt lat="45.11114483254557" lon="10.073033325619232"><ele>39.0</ele><time>2026-04-25T14:20:33.999Z</time></trkpt><trkpt lat="45.11122044039024" lon="10.073075459320952"><ele>39.0</ele><time>2026-04-25T14:20:34.999Z</time></trkpt><trkpt lat="45.11129607051831" lon="10.073111359787415"><ele>39.0</ele><time>2026-04-25T14:20:35.999Z</time></trkpt><trkpt lat="45.111371834718106" lon="10.073147301837068"><ele>39.0</ele><time>2026-04-25T14:20:37.001Z</time></trkpt><trkpt lat="45.11144390608423" lon="10.073184088418477"><ele>39.0</ele><time>2026-04-25T14:20:38.001Z</time></trkpt><trkpt lat="45.111519732581584" lon="10.073217173456086"><ele>39.0</ele><time>2026-04-25T14:20:39.001Z</time></trkpt><trkpt lat="45.11159857517806" lon="10.073245189147343"><ele>39.0</ele><time>2026-04-25T14:20:40.001Z</time></trkpt><trkpt lat="45.11167767548029" lon="10.073269577851406"><ele>39.0</ele><time>2026-04-25T14:20:41Z</time></trkpt><trkpt lat="45.111758490988024" lon="10.073296870883201"><ele>39.0</ele><time>2026-04-25T14:20:42Z</time></trkpt><trkpt lat="45.111837613974345" lon="10.073328497319334"><ele>39.0</ele><time>2026-04-25T14:20:43Z</time></trkpt><trkpt lat="45.111910228620744" lon="10.073348859024389"><ele>39.0</ele><time>2026-04-25T14:20:44Z</time></trkpt><trkpt lat="45.11200008353288" lon="10.073374779754584"><ele>39.0</ele><time>2026-04-25T14:20:45Z</time></trkpt><trkpt lat="45.112075802351434" lon="10.073407440149804"><ele>39.0</ele><time>2026-04-25T14:20:46Z</time></trkpt><trkpt lat="45.11215672428593" lon="10.073434620113764"><ele>39.0</ele><time>2026-04-25T14:20:47Z</time></trkpt><trkpt lat="45.11223705022331" lon="10.073462081820072"><ele>39.0</ele><time>2026-04-25T14:20:48Z</time></trkpt><trkpt lat="45.11231593777641" lon="10.073491196296139"><ele>39.0</ele><time>2026-04-25T14:20:49Z</time></trkpt><trkpt lat="45.11239672191494" lon="10.073519807996403"><ele>39.0</ele><time>2026-04-25T14:20:50Z</time></trkpt><trkpt lat="45.112477331792505" lon="10.07354958059254"><ele>39.0</ele><time>2026-04-25T14:20:51Z</time></trkpt><trkpt lat="45.11255584655985" lon="10.073576977000183"><ele>39.0</ele><time>2026-04-25T14:20:52Z</time></trkpt><trkpt lat="45.1126303292505" lon="10.073605148601184"><ele>39.0</ele><time>2026-04-25T14:20:53Z</time></trkpt><trkpt lat="45.11271123893139" lon="10.073628145932728"><ele>38.833333333333336</ele><time>2026-04-25T14:20:54Z</time></trkpt><trkpt lat="45.11278850327152" lon="10.073645894935167"><ele>38.666666666666664</ele><time>2026-04-25T14:20:55Z</time></trkpt><trkpt lat="45.11286282283058" lon="10.073672467707183"><ele>38.5</ele><time>2026-04-25T14:20:56Z</time></trkpt><trkpt lat="45.11293759126056" lon="10.073710021769335"><ele>38.33333333333333</ele><time>2026-04-25T14:20:57Z</time></trkpt><trkpt lat="45.11301602065988" lon="10.07374265169163"><ele>38.166666666666664</ele><time>2026-04-25T14:20:58Z</time></trkpt><trkpt lat="45.113096258001065" lon="10.073769166714284"><ele>38.0</ele><time>2026-04-25T14:20:59Z</time></trkpt><trkpt lat="45.11317681429659" lon="10.073796686008167"><ele>38.0</ele><time>2026-04-25T14:21:00Z</time></trkpt><trkpt lat="45.113254581326785" lon="10.073820941897758"><ele>38.0</ele><time>2026-04-25T14:21:01Z</time></trkpt><trkpt lat="45.11333314144017" lon="10.073845662929203"><ele>38.0</ele><time>2026-04-25T14:21:02Z</time></trkpt><trkpt lat="45.11340935601862" lon="10.073869540371122"><ele>38.0</ele><time>2026-04-25T14:21:03Z</time></trkpt><trkpt lat="45.11348601442885" lon="10.073893993891147"><ele>38.0</ele><time>2026-04-25T14:21:04Z</time></trkpt><trkpt lat="45.11356204886589" lon="10.073919476387417"><ele>38.0</ele><time>2026-04-25T14:21:05Z</time></trkpt><trkpt lat="45.113637888816854" lon="10.073944926276214"><ele>38.0</ele><time>2026-04-25T14:21:06Z</time></trkpt><trkpt lat="45.11371291340798" lon="10.073967015016544"><ele>38.0</ele><time>2026-04-25T14:21:07Z</time></trkpt><trkpt lat="45.11378663466652" lon="10.073988456028529"><ele>38.0</ele><time>2026-04-25T14:21:08Z</time></trkpt><trkpt lat="45.11385920534628" lon="10.074018392846636"><ele>38.0</ele><time>2026-04-25T14:21:09Z</time></trkpt><trkpt lat="45.11393080807921" lon="10.074044393287794"><ele>38.0</ele><time>2026-04-25T14:21:10Z</time></trkpt><trkpt lat="45.114003929311394" lon="10.074069108417232"><ele>38.0</ele><time>2026-04-25T14:21:11Z</time></trkpt><trkpt lat="45.11407640733042" lon="10.074092614698321"><ele>38.0</ele><time>2026-04-25T14:21:12Z</time></trkpt><trkpt lat="45.11414694773615" lon="10.074112482280093"><ele>38.0</ele><time>2026-04-25T14:21:13Z</time></trkpt><trkpt lat="45.11421673946932" lon="10.074133288532199"><ele>38.0</ele><time>2026-04-25T14:21:14Z</time></trkpt><trkpt lat="45.11428034737152" lon="10.074157678024003"><ele>38.0</ele><time>2026-04-25T14:21:15Z</time></trkpt><trkpt lat="45.11434639713108" lon="10.074185465358093"><ele>38.0</ele><time>2026-04-25T14:21:16Z</time></trkpt><trkpt lat="45.11439422465994" lon="10.074245354999784"><ele>38.0</ele><time>2026-04-25T14:21:17Z</time></trkpt><trkpt lat="45.11439624475126" lon="10.074347297460795"><ele>38.0</ele><time>2026-04-25T14:21:18Z</time></trkpt><trkpt lat="45.11433621775206" lon="10.074436755810591"><ele>38.0</ele><time>2026-04-25T14:21:19Z</time></trkpt><trkpt lat="45.114328595505036" lon="10.074545935924156"><ele>38.0</ele><time>2026-04-25T14:21:20Z</time></trkpt><trkpt lat="45.1142990987688" lon="10.07463565976614"><ele>38.0</ele><time>2026-04-25T14:21:21Z</time></trkpt><trkpt lat="45.11427748782011" lon="10.074733584087644"><ele>38.0</ele><time>2026-04-25T14:21:22Z</time></trkpt><trkpt lat="45.114258570866006" lon="10.074840530043225"><ele>38.0</ele><time>2026-04-25T14:21:23Z</time></trkpt><trkpt lat="45.11424179917261" lon="10.074937369870733"><ele>38.0</ele><time>2026-04-25T14:21:24Z</time></trkpt><trkpt lat="45.11421832984125" lon="10.075035585259675"><ele>38.0</ele><time>2026-04-25T14:21:25Z</time></trkpt><trkpt lat="45.11419348060472" lon="10.075129197216867"><ele>38.0</ele><time>2026-04-25T14:21:26Z</time></trkpt><trkpt lat="45.11416616916288" lon="10.075227577308144"><ele>38.0</ele><time>2026-04-25T14:21:27Z</time></trkpt><trkpt lat="45.114138804776104" lon="10.075329165284213"><ele>38.0</ele><time>2026-04-25T14:21:28Z</time></trkpt><trkpt lat="45.114118922176736" lon="10.075432476702698"><ele>38.0</ele><time>2026-04-25T14:21:29Z</time></trkpt><trkpt lat="45.114102252091854" lon="10.075534634242551"><ele>38.0</ele><time>2026-04-25T14:21:30Z</time></trkpt><trkpt lat="45.11408137021921" lon="10.075633795875575"><ele>38.0</ele><time>2026-04-25T14:21:31Z</time></trkpt><trkpt lat="45.114058135917325" lon="10.075735424344836"><ele>38.0</ele><time>2026-04-25T14:21:32Z</time></trkpt><trkpt lat="45.114031961119586" lon="10.07584068178571"><ele>38.166666666666664</ele><time>2026-04-25T14:21:33Z</time></trkpt><trkpt lat="45.11400555895165" lon="10.075943796810696"><ele>38.33333333333333</ele><time>2026-04-25T14:21:34Z</time></trkpt><trkpt lat="45.11398045896828" lon="10.076047429376981"><ele>38.5</ele><time>2026-04-25T14:21:35Z</time></trkpt><trkpt lat="45.11396013635839" lon="10.076155101015324"><ele>38.666666666666664</ele><time>2026-04-25T14:21:36Z</time></trkpt><trkpt lat="45.11394140013912" lon="10.076260327855708"><ele>38.833333333333336</ele><time>2026-04-25T14:21:37Z</time></trkpt><trkpt lat="45.113916976909174" lon="10.076366495492563"><ele>39.0</ele><time>2026-04-25T14:21:38Z</time></trkpt><trkpt lat="45.11389372720206" lon="10.076470607970785"><ele>39.0</ele><time>2026-04-25T14:21:39Z</time></trkpt><trkpt lat="45.11387131537986" lon="10.076575749500952"><ele>39.0</ele><time>2026-04-25T14:21:40Z</time></trkpt><trkpt lat="45.113846984219904" lon="10.076680797767564"><ele>39.0</ele><time>2026-04-25T14:21:41Z</time></trkpt><trkpt lat="45.1138191400163" lon="10.076782871354874"><ele>39.0</ele><time>2026-04-25T14:21:42Z</time></trkpt><trkpt lat="45.11379579463536" lon="10.076891232582554"><ele>39.0</ele><time>2026-04-25T14:21:43Z</time></trkpt><trkpt lat="45.1137699125004" lon="10.076987941283665"><ele>39.0</ele><time>2026-04-25T14:21:44Z</time></trkpt><trkpt lat="45.11373883308413" lon="10.077091074859027"><ele>39.166666666666664</ele><time>2026-04-25T14:21:45Z</time></trkpt><trkpt lat="45.113714536221316" lon="10.077196442732532"><ele>39.333333333333336</ele><time>2026-04-25T14:21:46Z</time></trkpt><trkpt lat="45.11368925858617" lon="10.077304167086682"><ele>39.5</ele><time>2026-04-25T14:21:47Z</time></trkpt><trkpt lat="45.113665306335115" lon="10.07741139259635"><ele>39.66666666666667</ele><time>2026-04-25T14:21:48Z</time></trkpt><trkpt lat="45.11363698546451" lon="10.077511808430744"><ele>39.833333333333336</ele><time>2026-04-25T14:21:49Z</time></trkpt><trkpt lat="45.113608405776695" lon="10.077612978330906"><ele>40.0</ele><time>2026-04-25T14:21:50Z</time></trkpt><trkpt lat="45.11356919379569" lon="10.077701633766093"><ele>40.14285714285714</ele><time>2026-04-25T14:21:51Z</time></trkpt><trkpt lat="45.113541573992904" lon="10.077799911149494"><ele>40.285714285714285</ele><time>2026-04-25T14:21:51.999Z</time></trkpt><trkpt lat="45.11351488431497" lon="10.077894878938821"><ele>40.42857142857143</ele><time>2026-04-25T14:21:52.999Z</time></trkpt><trkpt lat="45.11350140433939" lon="10.077997238103723"><ele>40.57142857142857</ele><time>2026-04-25T14:21:53.999Z</time></trkpt><trkpt lat="45.113473132837655" lon="10.07808880887814"><ele>40.714285714285715</ele><time>2026-04-25T14:21:54.999Z</time></trkpt><trkpt lat="45.11344873333496" lon="10.078176643304262"><ele>40.857142857142854</ele><time>2026-04-25T14:21:55.999Z</time></trkpt><trkpt lat="45.11341549817317" lon="10.078260974505497"><ele>41.0</ele><time>2026-04-25T14:21:56.999Z</time></trkpt><trkpt lat="45.113372436874414" lon="10.078327047143521"><ele>41.0</ele><time>2026-04-25T14:21:57.999Z</time></trkpt><trkpt lat="45.11333887177494" lon="10.078404213326232"><ele>41.0</ele><time>2026-04-25T14:21:58.999Z</time></trkpt><trkpt lat="45.11330311820943" lon="10.078485651721213"><ele>41.0</ele><time>2026-04-25T14:21:59.999Z</time></trkpt><trkpt lat="45.11323545177709" lon="10.07863935597792"><ele>41.0</ele><time>2026-04-25T14:22:01.999Z</time></trkpt><trkpt lat="45.11320189258757" lon="10.07871562303164"><ele>41.0</ele><time>2026-04-25T14:22:02.999Z</time></trkpt><trkpt lat="45.11313949904861" lon="10.078855276297267"><ele>41.0</ele><time>2026-04-25T14:22:04.999Z</time></trkpt><trkpt lat="45.11305539897475" lon="10.078838212337761"><ele>40.99999999999999</ele><time>2026-04-25T14:22:06.999Z</time></trkpt><trkpt lat="45.11298984276681" lon="10.078813395432922"><ele>41.0</ele><time>2026-04-25T14:22:07.999Z</time></trkpt><trkpt lat="45.11292582710599" lon="10.078767456888489"><ele>41.0</ele><time>2026-04-25T14:22:08.999Z</time></trkpt><trkpt lat="45.11285716902175" lon="10.078737170271351"><ele>41.0</ele><time>2026-04-25T14:22:09.999Z</time></trkpt><trkpt lat="45.11278887398128" lon="10.078687910902945"><ele>41.0</ele><time>2026-04-25T14:22:10.999Z</time></trkpt><trkpt lat="45.11272356027153" lon="10.078651683654032"><ele>40.99999999999999</ele><time>2026-04-25T14:22:11.999Z</time></trkpt><trkpt lat="45.11265900564014" lon="10.078615877564584"><ele>41.0</ele><time>2026-04-25T14:22:12.999Z</time></trkpt><trkpt lat="45.112588610441335" lon="10.078601620063017"><ele>41.0</ele><time>2026-04-25T14:22:13.999Z</time></trkpt><trkpt lat="45.11252283200851" lon="10.07856157320293"><ele>41.0</ele><time>2026-04-25T14:22:14.999Z</time></trkpt><trkpt lat="45.11245439146972" lon="10.078520851442685"><ele>41.0</ele><time>2026-04-25T14:22:15.999Z</time></trkpt><trkpt lat="45.11238177381803" lon="10.078489259801989"><ele>41.0</ele><time>2026-04-25T14:22:16.999Z</time></trkpt><trkpt lat="45.11230877249182" lon="10.07846197783678"><ele>41.0</ele><time>2026-04-25T14:22:17.999Z</time></trkpt><trkpt lat="45.112234540666506" lon="10.078437543335962"><ele>41.0</ele><time>2026-04-25T14:22:18.999Z</time></trkpt><trkpt lat="45.11215851751905" lon="10.07841576206797"><ele>40.666666666666664</ele><time>2026-04-25T14:22:19.999Z</time></trkpt><trkpt lat="45.11208203502692" lon="10.078377378731068"><ele>40.33333333333333</ele><time>2026-04-25T14:22:20.999Z</time></trkpt><trkpt lat="45.11199961772146" lon="10.078374776887335"><ele>40.0</ele><time>2026-04-25T14:22:21.999Z</time></trkpt><trkpt lat="45.11192101903016" lon="10.07834612996568"><ele>39.666666666666664</ele><time>2026-04-25T14:22:22.999Z</time></trkpt><trkpt lat="45.111840511616464" lon="10.078320606147027"><ele>39.333333333333336</ele><time>2026-04-25T14:22:23.999Z</time></trkpt><trkpt lat="45.111760935733614" lon="10.078297910020318"><ele>39.0</ele><time>2026-04-25T14:22:24.999Z</time></trkpt><trkpt lat="45.111681785790914" lon="10.078273424721834"><ele>38.833333333333336</ele><time>2026-04-25T14:22:25.999Z</time></trkpt><trkpt lat="45.111603091821955" lon="10.078247118751978"><ele>38.666666666666664</ele><time>2026-04-25T14:22:26.999Z</time></trkpt><trkpt lat="45.11152359247215" lon="10.078222943059977"><ele>38.5</ele><time>2026-04-25T14:22:27.999Z</time></trkpt><trkpt lat="45.11144355693435" lon="10.078205823274743"><ele>38.33333333333333</ele><time>2026-04-25T14:22:28.999Z</time></trkpt><trkpt lat="45.11136414313399" lon="10.078188240813894"><ele>38.166666666666664</ele><time>2026-04-25T14:22:29.999Z</time></trkpt><trkpt lat="45.11128388319584" lon="10.078162909618188"><ele>38.0</ele><time>2026-04-25T14:22:30.999Z</time></trkpt><trkpt lat="45.11120587793387" lon="10.078133903903758"><ele>38.0</ele><time>2026-04-25T14:22:31.999Z</time></trkpt><trkpt lat="45.11112563894167" lon="10.078101427246146"><ele>38.0</ele><time>2026-04-25T14:22:32.999Z</time></trkpt><trkpt lat="45.11104481796201" lon="10.078082722206254"><ele>38.0</ele><time>2026-04-25T14:22:33.999Z</time></trkpt><trkpt lat="45.1109637287811" lon="10.07806307405887"><ele>38.0</ele><time>2026-04-25T14:22:34.999Z</time></trkpt><trkpt lat="45.11088111634831" lon="10.078051120104691"><ele>38.0</ele><time>2026-04-25T14:22:35.999Z</time></trkpt><trkpt lat="45.110796080715396" lon="10.078048951565926"><ele>38.0</ele><time>2026-04-25T14:22:36.999Z</time></trkpt><trkpt lat="45.11071164505248" lon="10.078053723386796"><ele>38.0</ele><time>2026-04-25T14:22:37.999Z</time></trkpt><trkpt lat="45.11062707541644" lon="10.078067006956132"><ele>38.0</ele><time>2026-04-25T14:22:38.999Z</time></trkpt><trkpt lat="45.110545399955036" lon="10.078080784156274"><ele>38.0</ele><time>2026-04-25T14:22:39.999Z</time></trkpt><trkpt lat="45.11046146324744" lon="10.078092795775005"><ele>38.0</ele><time>2026-04-25T14:22:40.999Z</time></trkpt><trkpt lat="45.1103794419139" lon="10.078104002981284"><ele>38.0</ele><time>2026-04-25T14:22:42Z</time></trkpt><trkpt lat="45.11029930422127" lon="10.078124198829068"><ele>38.0</ele><time>2026-04-25T14:22:43Z</time></trkpt><trkpt lat="45.11021860442304" lon="10.078158553614877"><ele>38.0</ele><time>2026-04-25T14:22:44Z</time></trkpt><trkpt lat="45.11014051607208" lon="10.078200367695192"><ele>38.0</ele><time>2026-04-25T14:22:45Z</time></trkpt><trkpt lat="45.11006098184516" lon="10.07823621754372"><ele>38.0</ele><time>2026-04-25T14:22:46Z</time></trkpt><trkpt lat="45.109977907261154" lon="10.078253562356084"><ele>38.0</ele><time>2026-04-25T14:22:47Z</time></trkpt><trkpt lat="45.10989286211048" lon="10.07825716047291"><ele>38.0</ele><time>2026-04-25T14:22:48Z</time></trkpt><trkpt lat="45.10980976849252" lon="10.078244538525174"><ele>38.0</ele><time>2026-04-25T14:22:49Z</time></trkpt><trkpt lat="45.109731318329864" lon="10.078215403803467"><ele>38.0</ele><time>2026-04-25T14:22:50Z</time></trkpt><trkpt lat="45.109655025325225" lon="10.078178970685316"><ele>38.0</ele><time>2026-04-25T14:22:51Z</time></trkpt><trkpt lat="45.109579387189676" lon="10.078147470365137"><ele>38.0</ele><time>2026-04-25T14:22:52Z</time></trkpt><trkpt lat="45.10950416544216" lon="10.078120109587609"><ele>38.0</ele><time>2026-04-25T14:22:53Z</time></trkpt><trkpt lat="45.1094295284012" lon="10.078096345642692"><ele>38.0</ele><time>2026-04-25T14:22:54Z</time></trkpt><trkpt lat="45.109356238534325" lon="10.07807357768265"><ele>38.0</ele><time>2026-04-25T14:22:55Z</time></trkpt><trkpt lat="45.109286613559085" lon="10.078045519157909"><ele>38.0</ele><time>2026-04-25T14:22:56Z</time></trkpt><trkpt lat="45.10921937279407" lon="10.0780194370509"><ele>38.0</ele><time>2026-04-25T14:22:57Z</time></trkpt><trkpt lat="45.109150720177965" lon="10.077996570574037"><ele>38.0</ele><time>2026-04-25T14:22:58Z</time></trkpt><trkpt lat="45.10908344744503" lon="10.07798426875906"><ele>38.0</ele><time>2026-04-25T14:22:59Z</time></trkpt><trkpt lat="45.109018735551395" lon="10.077966584298107"><ele>38.0</ele><time>2026-04-25T14:23:00Z</time></trkpt><trkpt lat="45.1089556699018" lon="10.077946967430737"><ele>38.0</ele><time>2026-04-25T14:23:01Z</time></trkpt><trkpt lat="45.1088391757065" lon="10.077919746710286"><ele>38.5</ele><time>2026-04-25T14:23:03Z</time></trkpt><trkpt lat="45.10878198336499" lon="10.077870943783141"><ele>39.0</ele><time>2026-04-25T14:23:05Z</time></trkpt><trkpt lat="45.108802123227505" lon="10.077686923428926"><ele>39.5</ele><time>2026-04-25T14:23:07Z</time></trkpt><trkpt lat="45.108814833698496" lon="10.07758273625112"><ele>40.0</ele><time>2026-04-25T14:23:09Z</time></trkpt><trkpt lat="45.10882501213364" lon="10.07747762492289"><ele>40.5</ele><time>2026-04-25T14:23:11Z</time></trkpt><trkpt lat="45.10883555699243" lon="10.077376398423384"><ele>41.0</ele><time>2026-04-25T14:23:13Z</time></trkpt><trkpt lat="45.10884936004177" lon="10.077275761368236"><ele>40.99999999999999</ele><time>2026-04-25T14:23:15Z</time></trkpt><trkpt lat="45.108852262500996" lon="10.077179033177236"><ele>41.0</ele><time>2026-04-25T14:23:17Z</time></trkpt><trkpt lat="45.10884246094985" lon="10.077088059719177"><ele>41.0</ele><time>2026-04-25T14:23:19Z</time></trkpt><trkpt lat="45.108834004855694" lon="10.076993900586402"><ele>41.0</ele><time>2026-04-25T14:23:21Z</time></trkpt><trkpt lat="45.10880915694013" lon="10.076906485880833"><ele>41.0</ele><time>2026-04-25T14:23:23Z</time></trkpt><trkpt lat="45.10874241773779" lon="10.076819235953375"><ele>40.99999999999999</ele><time>2026-04-25T14:23:26Z</time></trkpt><trkpt lat="45.10867923915661" lon="10.076753665975817"><ele>41.0</ele><time>2026-04-25T14:23:29Z</time></trkpt><trkpt lat="45.108603785048345" lon="10.076727314710935"><ele>41.0</ele><time>2026-04-25T14:24:03.999Z</time></trkpt><trkpt lat="45.1085294545442" lon="10.076767152051875"><ele>41.0</ele><time>2026-04-25T14:24:07.999Z</time></trkpt><trkpt lat="45.108462362863314" lon="10.07677216825129"><ele>41.0</ele><time>2026-04-25T14:24:10.999Z</time></trkpt><trkpt lat="45.10840307503757" lon="10.076803321464606"><ele>41.0</ele><time>2026-04-25T14:24:13.999Z</time></trkpt><trkpt lat="45.108333361724085" lon="10.076826403293184"><ele>41.0</ele><time>2026-04-25T14:24:17.999Z</time></trkpt><trkpt lat="45.108273265897694" lon="10.076865128453166"><ele>41.0</ele><time>2026-04-25T14:24:22.999Z</time></trkpt></trkseg></trk></gpx>